<?xml version="1.0" encoding="UTF-8"?>
<gpx version="1.1" creator="https://www.youtrack.es" xsi:schemaLocation="http://www.topografix.com/GPX/1/1 http://www.topografix.com/GPX/1/1/gpx.xsd http://www.garmin.com/xmlschemas/GpxExtensions/v3 http://www.garmin.com/xmlschemas/GpxExtensionsv3.xsd http://www.garmin.com/xmlschemas/TrackPointExtension/v1 http://www.garmin.com/xmlschemas/TrackPointExtensionv1.xsd" xmlns:gpxtpx="http://www.garmin.com/xmlschemas/TrackPointExtension/v1" xmlns:gpxx="http://www.garmin.com/xmlschemas/GpxExtensions/v3" xmlns:xsi="http://www.w3.org/2001/XMLSchema-instance">
  <metadata>
    <link href="https://www.youtrack.es">
      <text>YouTrack.es</text>
    </link>
    <time>2026-05-09T03:50:21Z</time>
  </metadata>
  <trk>
    <src>https://www.youtrack.es</src>
    <link href="https://www.youtrack.es/ruta/35195-cicloturista-la-rioja">
      <text>YouTrack.es</text>
    </link>
    <trkseg>
      <trkpt lat="42.3036680" lon="-1.9583690">
        <ele>353.6</ele>
        <time>2022-08-12T06:21:15Z</time>
      </trkpt>
      <trkpt lat="42.3036770" lon="-1.9584170">
        <ele>350.2</ele>
        <time>2022-08-12T06:21:16Z</time>
      </trkpt>
      <trkpt lat="42.3036670" lon="-1.9585360">
        <ele>350.8</ele>
        <time>2022-08-12T06:21:18Z</time>
      </trkpt>
      <trkpt lat="42.3036540" lon="-1.9585970">
        <ele>350.6</ele>
        <time>2022-08-12T06:21:19Z</time>
      </trkpt>
      <trkpt lat="42.3036280" lon="-1.9587100">
        <ele>351.0</ele>
        <time>2022-08-12T06:21:21Z</time>
      </trkpt>
      <trkpt lat="42.3036200" lon="-1.9588110">
        <ele>352.4</ele>
        <time>2022-08-12T06:21:23Z</time>
      </trkpt>
      <trkpt lat="42.3036150" lon="-1.9588440">
        <ele>352.0</ele>
        <time>2022-08-12T06:21:24Z</time>
      </trkpt>
      <trkpt lat="42.3036240" lon="-1.9589230">
        <ele>352.0</ele>
        <time>2022-08-12T06:21:26Z</time>
      </trkpt>
      <trkpt lat="42.3036330" lon="-1.9589550">
        <ele>351.8</ele>
        <time>2022-08-12T06:21:27Z</time>
      </trkpt>
      <trkpt lat="42.3035990" lon="-1.9591180">
        <ele>351.8</ele>
        <time>2022-08-12T06:21:31Z</time>
      </trkpt>
      <trkpt lat="42.3035910" lon="-1.9591690">
        <ele>352.0</ele>
        <time>2022-08-12T06:21:32Z</time>
      </trkpt>
      <trkpt lat="42.3035810" lon="-1.9592570">
        <ele>352.4</ele>
        <time>2022-08-12T06:21:34Z</time>
      </trkpt>
      <trkpt lat="42.3035670" lon="-1.9593460">
        <ele>352.8</ele>
        <time>2022-08-12T06:21:36Z</time>
      </trkpt>
      <trkpt lat="42.3035520" lon="-1.9594290">
        <ele>353.0</ele>
        <time>2022-08-12T06:21:38Z</time>
      </trkpt>
      <trkpt lat="42.3035450" lon="-1.9594680">
        <ele>353.4</ele>
        <time>2022-08-12T06:21:39Z</time>
      </trkpt>
      <trkpt lat="42.3035410" lon="-1.9594960">
        <ele>353.4</ele>
        <time>2022-08-12T06:21:40Z</time>
      </trkpt>
      <trkpt lat="42.3034980" lon="-1.9596290">
        <ele>354.0</ele>
        <time>2022-08-12T06:21:43Z</time>
      </trkpt>
      <trkpt lat="42.3034740" lon="-1.9596740">
        <ele>355.2</ele>
        <time>2022-08-12T06:21:44Z</time>
      </trkpt>
      <trkpt lat="42.3034330" lon="-1.9597580">
        <ele>356.2</ele>
        <time>2022-08-12T06:21:46Z</time>
      </trkpt>
      <trkpt lat="42.3033830" lon="-1.9598450">
        <ele>356.6</ele>
        <time>2022-08-12T06:21:48Z</time>
      </trkpt>
      <trkpt lat="42.3033450" lon="-1.9599400">
        <ele>356.8</ele>
        <time>2022-08-12T06:21:50Z</time>
      </trkpt>
      <trkpt lat="42.3032760" lon="-1.9601230">
        <ele>356.8</ele>
        <time>2022-08-12T06:21:53Z</time>
      </trkpt>
      <trkpt lat="42.3032390" lon="-1.9602130">
        <ele>356.6</ele>
        <time>2022-08-12T06:21:55Z</time>
      </trkpt>
      <trkpt lat="42.3032360" lon="-1.9602510">
        <ele>356.6</ele>
        <time>2022-08-12T06:21:56Z</time>
      </trkpt>
      <trkpt lat="42.3032180" lon="-1.9602950">
        <ele>356.6</ele>
        <time>2022-08-12T06:21:57Z</time>
      </trkpt>
      <trkpt lat="42.3032000" lon="-1.9603320">
        <ele>356.6</ele>
        <time>2022-08-12T06:21:58Z</time>
      </trkpt>
      <trkpt lat="42.3031800" lon="-1.9603730">
        <ele>356.6</ele>
        <time>2022-08-12T06:21:59Z</time>
      </trkpt>
      <trkpt lat="42.3031150" lon="-1.9605500">
        <ele>356.8</ele>
        <time>2022-08-12T06:22:03Z</time>
      </trkpt>
      <trkpt lat="42.3030910" lon="-1.9606390">
        <ele>357.2</ele>
        <time>2022-08-12T06:22:05Z</time>
      </trkpt>
      <trkpt lat="42.3030060" lon="-1.9606790">
        <ele>357.6</ele>
        <time>2022-08-12T06:22:07Z</time>
      </trkpt>
      <trkpt lat="42.3029810" lon="-1.9606930">
        <ele>357.8</ele>
        <time>2022-08-12T06:22:08Z</time>
      </trkpt>
      <trkpt lat="42.3029660" lon="-1.9607190">
        <ele>358.2</ele>
        <time>2022-08-12T06:22:09Z</time>
      </trkpt>
      <trkpt lat="42.3029410" lon="-1.9607630">
        <ele>358.4</ele>
        <time>2022-08-12T06:22:10Z</time>
      </trkpt>
      <trkpt lat="42.3029150" lon="-1.9608140">
        <ele>358.4</ele>
        <time>2022-08-12T06:22:11Z</time>
      </trkpt>
      <trkpt lat="42.3028610" lon="-1.9609070">
        <ele>358.6</ele>
        <time>2022-08-12T06:22:13Z</time>
      </trkpt>
      <trkpt lat="42.3027830" lon="-1.9610560">
        <ele>358.6</ele>
        <time>2022-08-12T06:22:16Z</time>
      </trkpt>
      <trkpt lat="42.3027570" lon="-1.9611120">
        <ele>358.6</ele>
        <time>2022-08-12T06:22:17Z</time>
      </trkpt>
      <trkpt lat="42.3027280" lon="-1.9611610">
        <ele>358.6</ele>
        <time>2022-08-12T06:22:18Z</time>
      </trkpt>
      <trkpt lat="42.3025660" lon="-1.9614320">
        <ele>358.6</ele>
        <time>2022-08-12T06:22:23Z</time>
      </trkpt>
      <trkpt lat="42.3024660" lon="-1.9616000">
        <ele>358.6</ele>
        <time>2022-08-12T06:22:26Z</time>
      </trkpt>
      <trkpt lat="42.3023710" lon="-1.9616940">
        <ele>358.6</ele>
        <time>2022-08-12T06:22:28Z</time>
      </trkpt>
      <trkpt lat="42.3022950" lon="-1.9618130">
        <ele>358.6</ele>
        <time>2022-08-12T06:22:30Z</time>
      </trkpt>
      <trkpt lat="42.3022340" lon="-1.9619190">
        <ele>358.4</ele>
        <time>2022-08-12T06:22:32Z</time>
      </trkpt>
      <trkpt lat="42.3022150" lon="-1.9619830">
        <ele>358.4</ele>
        <time>2022-08-12T06:22:33Z</time>
      </trkpt>
      <trkpt lat="42.3021690" lon="-1.9621540">
        <ele>358.4</ele>
        <time>2022-08-12T06:22:36Z</time>
      </trkpt>
      <trkpt lat="42.3021230" lon="-1.9622490">
        <ele>358.4</ele>
        <time>2022-08-12T06:22:38Z</time>
      </trkpt>
      <trkpt lat="42.3021300" lon="-1.9623040">
        <ele>358.4</ele>
        <time>2022-08-12T06:22:39Z</time>
      </trkpt>
      <trkpt lat="42.3021420" lon="-1.9623650">
        <ele>358.2</ele>
        <time>2022-08-12T06:22:40Z</time>
      </trkpt>
      <trkpt lat="42.3021760" lon="-1.9625630">
        <ele>357.8</ele>
        <time>2022-08-12T06:22:43Z</time>
      </trkpt>
      <trkpt lat="42.3022570" lon="-1.9627230">
        <ele>357.4</ele>
        <time>2022-08-12T06:22:45Z</time>
      </trkpt>
      <trkpt lat="42.3023280" lon="-1.9627880">
        <ele>357.2</ele>
        <time>2022-08-12T06:22:46Z</time>
      </trkpt>
      <trkpt lat="42.3023820" lon="-1.9628480">
        <ele>357.0</ele>
        <time>2022-08-12T06:22:47Z</time>
      </trkpt>
      <trkpt lat="42.3024050" lon="-1.9629030">
        <ele>356.8</ele>
        <time>2022-08-12T06:22:48Z</time>
      </trkpt>
      <trkpt lat="42.3024940" lon="-1.9631190">
        <ele>356.2</ele>
        <time>2022-08-12T06:22:51Z</time>
      </trkpt>
      <trkpt lat="42.3025310" lon="-1.9631930">
        <ele>355.8</ele>
        <time>2022-08-12T06:22:52Z</time>
      </trkpt>
      <trkpt lat="42.3025910" lon="-1.9632660">
        <ele>355.6</ele>
        <time>2022-08-12T06:22:53Z</time>
      </trkpt>
      <trkpt lat="42.3026950" lon="-1.9634250">
        <ele>354.6</ele>
        <time>2022-08-12T06:22:55Z</time>
      </trkpt>
      <trkpt lat="42.3027500" lon="-1.9635140">
        <ele>354.2</ele>
        <time>2022-08-12T06:22:56Z</time>
      </trkpt>
      <trkpt lat="42.3028040" lon="-1.9635970">
        <ele>353.8</ele>
        <time>2022-08-12T06:22:57Z</time>
      </trkpt>
      <trkpt lat="42.3029000" lon="-1.9637440">
        <ele>353.4</ele>
        <time>2022-08-12T06:22:59Z</time>
      </trkpt>
      <trkpt lat="42.3029470" lon="-1.9638240">
        <ele>353.0</ele>
        <time>2022-08-12T06:23:00Z</time>
      </trkpt>
      <trkpt lat="42.3029980" lon="-1.9639060">
        <ele>352.4</ele>
        <time>2022-08-12T06:23:01Z</time>
      </trkpt>
      <trkpt lat="42.3030810" lon="-1.9640720">
        <ele>351.6</ele>
        <time>2022-08-12T06:23:03Z</time>
      </trkpt>
      <trkpt lat="42.3031500" lon="-1.9641880">
        <ele>351.0</ele>
        <time>2022-08-12T06:23:05Z</time>
      </trkpt>
      <trkpt lat="42.3031720" lon="-1.9642360">
        <ele>350.6</ele>
        <time>2022-08-12T06:23:06Z</time>
      </trkpt>
      <trkpt lat="42.3031860" lon="-1.9642850">
        <ele>350.6</ele>
        <time>2022-08-12T06:23:07Z</time>
      </trkpt>
      <trkpt lat="42.3033360" lon="-1.9643200">
        <ele>349.8</ele>
        <time>2022-08-12T06:23:09Z</time>
      </trkpt>
      <trkpt lat="42.3034490" lon="-1.9643920">
        <ele>349.4</ele>
        <time>2022-08-12T06:23:11Z</time>
      </trkpt>
      <trkpt lat="42.3034810" lon="-1.9644500">
        <ele>349.4</ele>
        <time>2022-08-12T06:23:12Z</time>
      </trkpt>
      <trkpt lat="42.3034910" lon="-1.9645140">
        <ele>349.2</ele>
        <time>2022-08-12T06:23:13Z</time>
      </trkpt>
      <trkpt lat="42.3034630" lon="-1.9646270">
        <ele>349.2</ele>
        <time>2022-08-12T06:23:15Z</time>
      </trkpt>
      <trkpt lat="42.3033290" lon="-1.9647270">
        <ele>349.2</ele>
        <time>2022-08-12T06:23:18Z</time>
      </trkpt>
      <trkpt lat="42.3032790" lon="-1.9647310">
        <ele>349.2</ele>
        <time>2022-08-12T06:23:19Z</time>
      </trkpt>
      <trkpt lat="42.3032110" lon="-1.9647050">
        <ele>349.2</ele>
        <time>2022-08-12T06:23:21Z</time>
      </trkpt>
      <trkpt lat="42.3031680" lon="-1.9646220">
        <ele>349.2</ele>
        <time>2022-08-12T06:23:23Z</time>
      </trkpt>
      <trkpt lat="42.3031000" lon="-1.9645060">
        <ele>349.2</ele>
        <time>2022-08-12T06:23:25Z</time>
      </trkpt>
      <trkpt lat="42.3030930" lon="-1.9644170">
        <ele>349.0</ele>
        <time>2022-08-12T06:23:27Z</time>
      </trkpt>
      <trkpt lat="42.3031240" lon="-1.9643890">
        <ele>349.0</ele>
        <time>2022-08-12T06:23:28Z</time>
      </trkpt>
      <trkpt lat="42.3032150" lon="-1.9643150">
        <ele>348.8</ele>
        <time>2022-08-12T06:23:31Z</time>
      </trkpt>
      <trkpt lat="42.3032210" lon="-1.9643140">
        <ele>348.8</ele>
        <time>2022-08-12T06:23:32Z</time>
      </trkpt>
      <trkpt lat="42.3032330" lon="-1.9643090">
        <ele>348.8</ele>
        <time>2022-08-12T06:23:33Z</time>
      </trkpt>
      <trkpt lat="42.3032850" lon="-1.9642970">
        <ele>348.8</ele>
        <time>2022-08-12T06:23:35Z</time>
      </trkpt>
      <trkpt lat="42.3033390" lon="-1.9643360">
        <ele>348.8</ele>
        <time>2022-08-12T06:23:37Z</time>
      </trkpt>
      <trkpt lat="42.3034450" lon="-1.9644200">
        <ele>348.8</ele>
        <time>2022-08-12T06:23:40Z</time>
      </trkpt>
      <trkpt lat="42.3034810" lon="-1.9644540">
        <ele>348.8</ele>
        <time>2022-08-12T06:23:41Z</time>
      </trkpt>
      <trkpt lat="42.3035070" lon="-1.9644830">
        <ele>348.8</ele>
        <time>2022-08-12T06:23:42Z</time>
      </trkpt>
      <trkpt lat="42.3035710" lon="-1.9645690">
        <ele>348.8</ele>
        <time>2022-08-12T06:23:44Z</time>
      </trkpt>
      <trkpt lat="42.3036370" lon="-1.9646390">
        <ele>349.0</ele>
        <time>2022-08-12T06:23:46Z</time>
      </trkpt>
      <trkpt lat="42.3036600" lon="-1.9646740">
        <ele>349.0</ele>
        <time>2022-08-12T06:23:47Z</time>
      </trkpt>
      <trkpt lat="42.3036720" lon="-1.9647090">
        <ele>349.0</ele>
        <time>2022-08-12T06:23:48Z</time>
      </trkpt>
      <trkpt lat="42.3036470" lon="-1.9647650">
        <ele>349.0</ele>
        <time>2022-08-12T06:23:50Z</time>
      </trkpt>
      <trkpt lat="42.3035920" lon="-1.9648720">
        <ele>349.2</ele>
        <time>2022-08-12T06:23:54Z</time>
      </trkpt>
      <trkpt lat="42.3035020" lon="-1.9650180">
        <ele>349.2</ele>
        <time>2022-08-12T06:23:58Z</time>
      </trkpt>
      <trkpt lat="42.3034880" lon="-1.9650330">
        <ele>349.2</ele>
        <time>2022-08-12T06:23:59Z</time>
      </trkpt>
      <trkpt lat="42.3034850" lon="-1.9650370">
        <ele>349.2</ele>
        <time>2022-08-12T06:24:00Z</time>
      </trkpt>
      <trkpt lat="42.3035040" lon="-1.9650500">
        <ele>349.2</ele>
        <time>2022-08-12T06:24:04Z</time>
      </trkpt>
      <trkpt lat="42.3035240" lon="-1.9651060">
        <ele>349.2</ele>
        <time>2022-08-12T06:24:06Z</time>
      </trkpt>
      <trkpt lat="42.3035240" lon="-1.9651060">
        <ele>349.4</ele>
        <time>2022-08-12T06:24:08Z</time>
      </trkpt>
      <trkpt lat="42.3035300" lon="-1.9651690">
        <ele>349.4</ele>
        <time>2022-08-12T06:24:11Z</time>
      </trkpt>
      <trkpt lat="42.3035360" lon="-1.9651590">
        <ele>349.4</ele>
        <time>2022-08-12T06:24:14Z</time>
      </trkpt>
      <trkpt lat="42.3035360" lon="-1.9651590">
        <ele>349.0</ele>
        <time>2022-08-12T06:26:48Z</time>
      </trkpt>
      <trkpt lat="42.3034200" lon="-1.9645200">
        <ele>348.8</ele>
        <time>2022-08-12T06:26:49Z</time>
      </trkpt>
      <trkpt lat="42.3035220" lon="-1.9644680">
        <ele>349.0</ele>
        <time>2022-08-12T06:26:50Z</time>
      </trkpt>
      <trkpt lat="42.3035780" lon="-1.9644020">
        <ele>349.0</ele>
        <time>2022-08-12T06:26:51Z</time>
      </trkpt>
      <trkpt lat="42.3035090" lon="-1.9641590">
        <ele>348.2</ele>
        <time>2022-08-12T06:27:15Z</time>
      </trkpt>
      <trkpt lat="42.3035130" lon="-1.9643430">
        <ele>348.2</ele>
        <time>2022-08-12T06:27:16Z</time>
      </trkpt>
      <trkpt lat="42.3035420" lon="-1.9644760">
        <ele>348.2</ele>
        <time>2022-08-12T06:27:18Z</time>
      </trkpt>
      <trkpt lat="42.3035390" lon="-1.9645790">
        <ele>348.2</ele>
        <time>2022-08-12T06:27:19Z</time>
      </trkpt>
      <trkpt lat="42.3034740" lon="-1.9645650">
        <ele>348.2</ele>
        <time>2022-08-12T06:27:22Z</time>
      </trkpt>
      <trkpt lat="42.3034250" lon="-1.9647100">
        <ele>348.2</ele>
        <time>2022-08-12T06:27:23Z</time>
      </trkpt>
      <trkpt lat="42.3033780" lon="-1.9647710">
        <ele>348.2</ele>
        <time>2022-08-12T06:27:24Z</time>
      </trkpt>
      <trkpt lat="42.3033440" lon="-1.9647670">
        <ele>348.2</ele>
        <time>2022-08-12T06:27:25Z</time>
      </trkpt>
      <trkpt lat="42.3032730" lon="-1.9646710">
        <ele>348.2</ele>
        <time>2022-08-12T06:27:28Z</time>
      </trkpt>
      <trkpt lat="42.3032120" lon="-1.9645050">
        <ele>348.4</ele>
        <time>2022-08-12T06:27:33Z</time>
      </trkpt>
      <trkpt lat="42.3031970" lon="-1.9644930">
        <ele>348.4</ele>
        <time>2022-08-12T06:27:34Z</time>
      </trkpt>
      <trkpt lat="42.3031890" lon="-1.9644960">
        <ele>348.4</ele>
        <time>2022-08-12T06:27:36Z</time>
      </trkpt>
      <trkpt lat="42.3031300" lon="-1.9645180">
        <ele>348.4</ele>
        <time>2022-08-12T06:27:39Z</time>
      </trkpt>
      <trkpt lat="42.3030460" lon="-1.9645850">
        <ele>348.4</ele>
        <time>2022-08-12T06:27:41Z</time>
      </trkpt>
      <trkpt lat="42.3030160" lon="-1.9645950">
        <ele>348.2</ele>
        <time>2022-08-12T06:27:42Z</time>
      </trkpt>
      <trkpt lat="42.3030350" lon="-1.9646110">
        <ele>348.2</ele>
        <time>2022-08-12T06:27:43Z</time>
      </trkpt>
      <trkpt lat="42.3030940" lon="-1.9646050">
        <ele>348.2</ele>
        <time>2022-08-12T06:27:44Z</time>
      </trkpt>
      <trkpt lat="42.3032100" lon="-1.9643130">
        <ele>348.4</ele>
        <time>2022-08-12T06:27:46Z</time>
      </trkpt>
      <trkpt lat="42.3032940" lon="-1.9641780">
        <ele>348.4</ele>
        <time>2022-08-12T06:27:48Z</time>
      </trkpt>
      <trkpt lat="42.3033700" lon="-1.9642670">
        <ele>348.2</ele>
        <time>2022-08-12T06:27:51Z</time>
      </trkpt>
      <trkpt lat="42.3034310" lon="-1.9643280">
        <ele>348.2</ele>
        <time>2022-08-12T06:27:52Z</time>
      </trkpt>
      <trkpt lat="42.3036240" lon="-1.9645130">
        <ele>348.4</ele>
        <time>2022-08-12T06:27:56Z</time>
      </trkpt>
      <trkpt lat="42.3036540" lon="-1.9645510">
        <ele>348.6</ele>
        <time>2022-08-12T06:27:57Z</time>
      </trkpt>
      <trkpt lat="42.3037400" lon="-1.9646200">
        <ele>348.6</ele>
        <time>2022-08-12T06:27:59Z</time>
      </trkpt>
      <trkpt lat="42.3038350" lon="-1.9646940">
        <ele>348.8</ele>
        <time>2022-08-12T06:28:01Z</time>
      </trkpt>
      <trkpt lat="42.3038880" lon="-1.9648200">
        <ele>348.8</ele>
        <time>2022-08-12T06:28:03Z</time>
      </trkpt>
      <trkpt lat="42.3039450" lon="-1.9649360">
        <ele>349.0</ele>
        <time>2022-08-12T06:28:05Z</time>
      </trkpt>
      <trkpt lat="42.3040030" lon="-1.9650070">
        <ele>349.0</ele>
        <time>2022-08-12T06:28:07Z</time>
      </trkpt>
      <trkpt lat="42.3041020" lon="-1.9651160">
        <ele>349.0</ele>
        <time>2022-08-12T06:28:10Z</time>
      </trkpt>
      <trkpt lat="42.3041840" lon="-1.9651900">
        <ele>349.0</ele>
        <time>2022-08-12T06:28:12Z</time>
      </trkpt>
      <trkpt lat="42.3042740" lon="-1.9652780">
        <ele>349.0</ele>
        <time>2022-08-12T06:28:14Z</time>
      </trkpt>
      <trkpt lat="42.3043100" lon="-1.9653330">
        <ele>349.0</ele>
        <time>2022-08-12T06:28:15Z</time>
      </trkpt>
      <trkpt lat="42.3045170" lon="-1.9655780">
        <ele>349.2</ele>
        <time>2022-08-12T06:28:20Z</time>
      </trkpt>
      <trkpt lat="42.3045580" lon="-1.9656140">
        <ele>349.2</ele>
        <time>2022-08-12T06:28:21Z</time>
      </trkpt>
      <trkpt lat="42.3047900" lon="-1.9659440">
        <ele>349.4</ele>
        <time>2022-08-12T06:28:28Z</time>
      </trkpt>
      <trkpt lat="42.3048370" lon="-1.9660350">
        <ele>349.4</ele>
        <time>2022-08-12T06:28:30Z</time>
      </trkpt>
      <trkpt lat="42.3049570" lon="-1.9661530">
        <ele>349.6</ele>
        <time>2022-08-12T06:28:33Z</time>
      </trkpt>
      <trkpt lat="42.3050760" lon="-1.9662700">
        <ele>349.6</ele>
        <time>2022-08-12T06:28:36Z</time>
      </trkpt>
      <trkpt lat="42.3051920" lon="-1.9664030">
        <ele>349.6</ele>
        <time>2022-08-12T06:28:39Z</time>
      </trkpt>
      <trkpt lat="42.3052740" lon="-1.9664690">
        <ele>349.8</ele>
        <time>2022-08-12T06:28:41Z</time>
      </trkpt>
      <trkpt lat="42.3055310" lon="-1.9667930">
        <ele>350.2</ele>
        <time>2022-08-12T06:28:48Z</time>
      </trkpt>
      <trkpt lat="42.3056240" lon="-1.9669380">
        <ele>350.4</ele>
        <time>2022-08-12T06:28:51Z</time>
      </trkpt>
      <trkpt lat="42.3056780" lon="-1.9670490">
        <ele>350.6</ele>
        <time>2022-08-12T06:28:53Z</time>
      </trkpt>
      <trkpt lat="42.3057100" lon="-1.9670950">
        <ele>350.6</ele>
        <time>2022-08-12T06:28:54Z</time>
      </trkpt>
      <trkpt lat="42.3057920" lon="-1.9671660">
        <ele>350.6</ele>
        <time>2022-08-12T06:28:56Z</time>
      </trkpt>
      <trkpt lat="42.3058770" lon="-1.9672280">
        <ele>350.8</ele>
        <time>2022-08-12T06:28:58Z</time>
      </trkpt>
      <trkpt lat="42.3059110" lon="-1.9672770">
        <ele>350.8</ele>
        <time>2022-08-12T06:28:59Z</time>
      </trkpt>
      <trkpt lat="42.3059470" lon="-1.9673260">
        <ele>350.8</ele>
        <time>2022-08-12T06:29:00Z</time>
      </trkpt>
      <trkpt lat="42.3059790" lon="-1.9673750">
        <ele>350.8</ele>
        <time>2022-08-12T06:29:01Z</time>
      </trkpt>
      <trkpt lat="42.3061300" lon="-1.9675620">
        <ele>350.8</ele>
        <time>2022-08-12T06:29:05Z</time>
      </trkpt>
      <trkpt lat="42.3062830" lon="-1.9677460">
        <ele>351.2</ele>
        <time>2022-08-12T06:29:09Z</time>
      </trkpt>
      <trkpt lat="42.3063880" lon="-1.9678870">
        <ele>351.2</ele>
        <time>2022-08-12T06:29:12Z</time>
      </trkpt>
      <trkpt lat="42.3065330" lon="-1.9680610">
        <ele>351.4</ele>
        <time>2022-08-12T06:29:16Z</time>
      </trkpt>
      <trkpt lat="42.3066030" lon="-1.9681550">
        <ele>351.6</ele>
        <time>2022-08-12T06:29:18Z</time>
      </trkpt>
      <trkpt lat="42.3066460" lon="-1.9681990">
        <ele>351.8</ele>
        <time>2022-08-12T06:29:19Z</time>
      </trkpt>
      <trkpt lat="42.3067950" lon="-1.9682990">
        <ele>351.8</ele>
        <time>2022-08-12T06:29:22Z</time>
      </trkpt>
      <trkpt lat="42.3068690" lon="-1.9684000">
        <ele>352.0</ele>
        <time>2022-08-12T06:29:24Z</time>
      </trkpt>
      <trkpt lat="42.3069040" lon="-1.9685100">
        <ele>352.2</ele>
        <time>2022-08-12T06:29:26Z</time>
      </trkpt>
      <trkpt lat="42.3069380" lon="-1.9685620">
        <ele>352.4</ele>
        <time>2022-08-12T06:29:27Z</time>
      </trkpt>
      <trkpt lat="42.3070050" lon="-1.9686670">
        <ele>352.6</ele>
        <time>2022-08-12T06:29:29Z</time>
      </trkpt>
      <trkpt lat="42.3070640" lon="-1.9687900">
        <ele>352.6</ele>
        <time>2022-08-12T06:29:31Z</time>
      </trkpt>
      <trkpt lat="42.3070790" lon="-1.9688710">
        <ele>352.8</ele>
        <time>2022-08-12T06:29:36Z</time>
      </trkpt>
      <trkpt lat="42.3072470" lon="-1.9689660">
        <ele>352.8</ele>
        <time>2022-08-12T06:29:38Z</time>
      </trkpt>
      <trkpt lat="42.3073650" lon="-1.9690080">
        <ele>352.8</ele>
        <time>2022-08-12T06:29:40Z</time>
      </trkpt>
      <trkpt lat="42.3074470" lon="-1.9691020">
        <ele>353.0</ele>
        <time>2022-08-12T06:29:43Z</time>
      </trkpt>
      <trkpt lat="42.3075160" lon="-1.9691900">
        <ele>353.0</ele>
        <time>2022-08-12T06:29:45Z</time>
      </trkpt>
      <trkpt lat="42.3077970" lon="-1.9695470">
        <ele>353.6</ele>
        <time>2022-08-12T06:29:53Z</time>
      </trkpt>
      <trkpt lat="42.3078910" lon="-1.9696830">
        <ele>353.8</ele>
        <time>2022-08-12T06:29:56Z</time>
      </trkpt>
      <trkpt lat="42.3079250" lon="-1.9697250">
        <ele>353.8</ele>
        <time>2022-08-12T06:29:57Z</time>
      </trkpt>
      <trkpt lat="42.3080000" lon="-1.9698140">
        <ele>353.8</ele>
        <time>2022-08-12T06:29:59Z</time>
      </trkpt>
      <trkpt lat="42.3080650" lon="-1.9699090">
        <ele>354.0</ele>
        <time>2022-08-12T06:30:01Z</time>
      </trkpt>
      <trkpt lat="42.3081270" lon="-1.9700000">
        <ele>354.0</ele>
        <time>2022-08-12T06:30:03Z</time>
      </trkpt>
      <trkpt lat="42.3081940" lon="-1.9700860">
        <ele>354.2</ele>
        <time>2022-08-12T06:30:05Z</time>
      </trkpt>
      <trkpt lat="42.3082250" lon="-1.9701340">
        <ele>354.2</ele>
        <time>2022-08-12T06:30:06Z</time>
      </trkpt>
      <trkpt lat="42.3084080" lon="-1.9703190">
        <ele>354.6</ele>
        <time>2022-08-12T06:30:11Z</time>
      </trkpt>
      <trkpt lat="42.3084730" lon="-1.9703670">
        <ele>354.8</ele>
        <time>2022-08-12T06:30:13Z</time>
      </trkpt>
      <trkpt lat="42.3085170" lon="-1.9703510">
        <ele>355.0</ele>
        <time>2022-08-12T06:30:14Z</time>
      </trkpt>
      <trkpt lat="42.3085900" lon="-1.9702740">
        <ele>354.8</ele>
        <time>2022-08-12T06:30:16Z</time>
      </trkpt>
      <trkpt lat="42.3086200" lon="-1.9702310">
        <ele>355.0</ele>
        <time>2022-08-12T06:30:17Z</time>
      </trkpt>
      <trkpt lat="42.3086450" lon="-1.9701840">
        <ele>355.0</ele>
        <time>2022-08-12T06:30:18Z</time>
      </trkpt>
      <trkpt lat="42.3087740" lon="-1.9699890">
        <ele>355.2</ele>
        <time>2022-08-12T06:30:22Z</time>
      </trkpt>
      <trkpt lat="42.3088740" lon="-1.9698580">
        <ele>355.2</ele>
        <time>2022-08-12T06:30:25Z</time>
      </trkpt>
      <trkpt lat="42.3090230" lon="-1.9696310">
        <ele>355.6</ele>
        <time>2022-08-12T06:30:30Z</time>
      </trkpt>
      <trkpt lat="42.3090580" lon="-1.9695910">
        <ele>355.6</ele>
        <time>2022-08-12T06:30:31Z</time>
      </trkpt>
      <trkpt lat="42.3091160" lon="-1.9695060">
        <ele>355.6</ele>
        <time>2022-08-12T06:30:33Z</time>
      </trkpt>
      <trkpt lat="42.3092410" lon="-1.9693090">
        <ele>355.6</ele>
        <time>2022-08-12T06:30:37Z</time>
      </trkpt>
      <trkpt lat="42.3092640" lon="-1.9692730">
        <ele>355.8</ele>
        <time>2022-08-12T06:30:38Z</time>
      </trkpt>
      <trkpt lat="42.3093270" lon="-1.9691760">
        <ele>355.8</ele>
        <time>2022-08-12T06:30:40Z</time>
      </trkpt>
      <trkpt lat="42.3094330" lon="-1.9690040">
        <ele>356.2</ele>
        <time>2022-08-12T06:30:44Z</time>
      </trkpt>
      <trkpt lat="42.3094760" lon="-1.9689180">
        <ele>356.4</ele>
        <time>2022-08-12T06:30:46Z</time>
      </trkpt>
      <trkpt lat="42.3095870" lon="-1.9687290">
        <ele>356.8</ele>
        <time>2022-08-12T06:30:50Z</time>
      </trkpt>
      <trkpt lat="42.3096160" lon="-1.9686840">
        <ele>356.8</ele>
        <time>2022-08-12T06:30:51Z</time>
      </trkpt>
      <trkpt lat="42.3097420" lon="-1.9685220">
        <ele>357.0</ele>
        <time>2022-08-12T06:30:55Z</time>
      </trkpt>
      <trkpt lat="42.3097810" lon="-1.9684760">
        <ele>357.0</ele>
        <time>2022-08-12T06:30:56Z</time>
      </trkpt>
      <trkpt lat="42.3099830" lon="-1.9681730">
        <ele>357.6</ele>
        <time>2022-08-12T06:31:03Z</time>
      </trkpt>
      <trkpt lat="42.3100120" lon="-1.9681310">
        <ele>357.6</ele>
        <time>2022-08-12T06:31:04Z</time>
      </trkpt>
      <trkpt lat="42.3101640" lon="-1.9678990">
        <ele>357.6</ele>
        <time>2022-08-12T06:31:10Z</time>
      </trkpt>
      <trkpt lat="42.3101830" lon="-1.9678710">
        <ele>357.6</ele>
        <time>2022-08-12T06:31:11Z</time>
      </trkpt>
      <trkpt lat="42.3102570" lon="-1.9678370">
        <ele>357.4</ele>
        <time>2022-08-12T06:31:14Z</time>
      </trkpt>
      <trkpt lat="42.3102920" lon="-1.9678370">
        <ele>357.4</ele>
        <time>2022-08-12T06:31:15Z</time>
      </trkpt>
      <trkpt lat="42.3103650" lon="-1.9678500">
        <ele>357.2</ele>
        <time>2022-08-12T06:31:17Z</time>
      </trkpt>
      <trkpt lat="42.3104930" lon="-1.9678990">
        <ele>357.0</ele>
        <time>2022-08-12T06:31:20Z</time>
      </trkpt>
      <trkpt lat="42.3105360" lon="-1.9679180">
        <ele>357.0</ele>
        <time>2022-08-12T06:31:21Z</time>
      </trkpt>
      <trkpt lat="42.3106400" lon="-1.9679580">
        <ele>357.0</ele>
        <time>2022-08-12T06:31:23Z</time>
      </trkpt>
      <trkpt lat="42.3108690" lon="-1.9680520">
        <ele>357.2</ele>
        <time>2022-08-12T06:31:28Z</time>
      </trkpt>
      <trkpt lat="42.3110060" lon="-1.9681210">
        <ele>357.4</ele>
        <time>2022-08-12T06:31:31Z</time>
      </trkpt>
      <trkpt lat="42.3111390" lon="-1.9681820">
        <ele>357.6</ele>
        <time>2022-08-12T06:31:34Z</time>
      </trkpt>
      <trkpt lat="42.3112300" lon="-1.9682040">
        <ele>357.6</ele>
        <time>2022-08-12T06:31:36Z</time>
      </trkpt>
      <trkpt lat="42.3113560" lon="-1.9682670">
        <ele>357.6</ele>
        <time>2022-08-12T06:31:38Z</time>
      </trkpt>
      <trkpt lat="42.3114130" lon="-1.9683000">
        <ele>357.4</ele>
        <time>2022-08-12T06:31:39Z</time>
      </trkpt>
      <trkpt lat="42.3114740" lon="-1.9683190">
        <ele>357.2</ele>
        <time>2022-08-12T06:31:40Z</time>
      </trkpt>
      <trkpt lat="42.3118040" lon="-1.9684320">
        <ele>355.4</ele>
        <time>2022-08-12T06:31:44Z</time>
      </trkpt>
      <trkpt lat="42.3120860" lon="-1.9684930">
        <ele>354.4</ele>
        <time>2022-08-12T06:31:47Z</time>
      </trkpt>
      <trkpt lat="42.3121740" lon="-1.9685080">
        <ele>354.2</ele>
        <time>2022-08-12T06:31:48Z</time>
      </trkpt>
      <trkpt lat="42.3122770" lon="-1.9685280">
        <ele>353.4</ele>
        <time>2022-08-12T06:31:49Z</time>
      </trkpt>
      <trkpt lat="42.3123920" lon="-1.9685550">
        <ele>353.0</ele>
        <time>2022-08-12T06:31:50Z</time>
      </trkpt>
      <trkpt lat="42.3126190" lon="-1.9686420">
        <ele>351.8</ele>
        <time>2022-08-12T06:31:52Z</time>
      </trkpt>
      <trkpt lat="42.3127380" lon="-1.9686740">
        <ele>351.0</ele>
        <time>2022-08-12T06:31:53Z</time>
      </trkpt>
      <trkpt lat="42.3128550" lon="-1.9687160">
        <ele>350.6</ele>
        <time>2022-08-12T06:31:54Z</time>
      </trkpt>
      <trkpt lat="42.3130990" lon="-1.9688050">
        <ele>349.2</ele>
        <time>2022-08-12T06:31:56Z</time>
      </trkpt>
      <trkpt lat="42.3132070" lon="-1.9688590">
        <ele>348.6</ele>
        <time>2022-08-12T06:31:57Z</time>
      </trkpt>
      <trkpt lat="42.3133200" lon="-1.9689280">
        <ele>347.0</ele>
        <time>2022-08-12T06:31:58Z</time>
      </trkpt>
      <trkpt lat="42.3135520" lon="-1.9690890">
        <ele>345.2</ele>
        <time>2022-08-12T06:32:00Z</time>
      </trkpt>
      <trkpt lat="42.3137680" lon="-1.9692810">
        <ele>343.8</ele>
        <time>2022-08-12T06:32:02Z</time>
      </trkpt>
      <trkpt lat="42.3138560" lon="-1.9693880">
        <ele>342.6</ele>
        <time>2022-08-12T06:32:03Z</time>
      </trkpt>
      <trkpt lat="42.3139430" lon="-1.9695200">
        <ele>341.8</ele>
        <time>2022-08-12T06:32:04Z</time>
      </trkpt>
      <trkpt lat="42.3140100" lon="-1.9696450">
        <ele>340.8</ele>
        <time>2022-08-12T06:32:05Z</time>
      </trkpt>
      <trkpt lat="42.3141380" lon="-1.9698940">
        <ele>339.4</ele>
        <time>2022-08-12T06:32:07Z</time>
      </trkpt>
      <trkpt lat="42.3143250" lon="-1.9702460">
        <ele>338.2</ele>
        <time>2022-08-12T06:32:10Z</time>
      </trkpt>
      <trkpt lat="42.3145890" lon="-1.9707620">
        <ele>337.0</ele>
        <time>2022-08-12T06:32:15Z</time>
      </trkpt>
      <trkpt lat="42.3146380" lon="-1.9708430">
        <ele>337.0</ele>
        <time>2022-08-12T06:32:16Z</time>
      </trkpt>
      <trkpt lat="42.3147410" lon="-1.9709690">
        <ele>336.8</ele>
        <time>2022-08-12T06:32:18Z</time>
      </trkpt>
      <trkpt lat="42.3148020" lon="-1.9710160">
        <ele>336.8</ele>
        <time>2022-08-12T06:32:19Z</time>
      </trkpt>
      <trkpt lat="42.3148650" lon="-1.9710470">
        <ele>336.8</ele>
        <time>2022-08-12T06:32:20Z</time>
      </trkpt>
      <trkpt lat="42.3149870" lon="-1.9710920">
        <ele>336.8</ele>
        <time>2022-08-12T06:32:22Z</time>
      </trkpt>
      <trkpt lat="42.3150450" lon="-1.9711320">
        <ele>336.8</ele>
        <time>2022-08-12T06:32:23Z</time>
      </trkpt>
      <trkpt lat="42.3151460" lon="-1.9712390">
        <ele>336.8</ele>
        <time>2022-08-12T06:32:25Z</time>
      </trkpt>
      <trkpt lat="42.3151790" lon="-1.9713100">
        <ele>336.8</ele>
        <time>2022-08-12T06:32:26Z</time>
      </trkpt>
      <trkpt lat="42.3152000" lon="-1.9713850">
        <ele>336.8</ele>
        <time>2022-08-12T06:32:27Z</time>
      </trkpt>
      <trkpt lat="42.3152140" lon="-1.9715450">
        <ele>336.8</ele>
        <time>2022-08-12T06:32:29Z</time>
      </trkpt>
      <trkpt lat="42.3152110" lon="-1.9716280">
        <ele>336.8</ele>
        <time>2022-08-12T06:32:30Z</time>
      </trkpt>
      <trkpt lat="42.3152110" lon="-1.9717840">
        <ele>336.8</ele>
        <time>2022-08-12T06:32:32Z</time>
      </trkpt>
      <trkpt lat="42.3152390" lon="-1.9719340">
        <ele>336.8</ele>
        <time>2022-08-12T06:32:34Z</time>
      </trkpt>
      <trkpt lat="42.3154050" lon="-1.9722830">
        <ele>336.8</ele>
        <time>2022-08-12T06:32:39Z</time>
      </trkpt>
      <trkpt lat="42.3157040" lon="-1.9727350">
        <ele>336.2</ele>
        <time>2022-08-12T06:32:46Z</time>
      </trkpt>
      <trkpt lat="42.3159320" lon="-1.9730580">
        <ele>336.0</ele>
        <time>2022-08-12T06:32:51Z</time>
      </trkpt>
      <trkpt lat="42.3161020" lon="-1.9733000">
        <ele>335.6</ele>
        <time>2022-08-12T06:32:55Z</time>
      </trkpt>
      <trkpt lat="42.3164690" lon="-1.9738420">
        <ele>335.6</ele>
        <time>2022-08-12T06:33:03Z</time>
      </trkpt>
      <trkpt lat="42.3165670" lon="-1.9739800">
        <ele>335.6</ele>
        <time>2022-08-12T06:33:05Z</time>
      </trkpt>
      <trkpt lat="42.3168430" lon="-1.9742910">
        <ele>335.6</ele>
        <time>2022-08-12T06:33:11Z</time>
      </trkpt>
      <trkpt lat="42.3169880" lon="-1.9744040">
        <ele>335.6</ele>
        <time>2022-08-12T06:33:14Z</time>
      </trkpt>
      <trkpt lat="42.3171750" lon="-1.9745590">
        <ele>335.0</ele>
        <time>2022-08-12T06:33:18Z</time>
      </trkpt>
      <trkpt lat="42.3173260" lon="-1.9746860">
        <ele>335.2</ele>
        <time>2022-08-12T06:33:21Z</time>
      </trkpt>
      <trkpt lat="42.3174730" lon="-1.9748150">
        <ele>335.0</ele>
        <time>2022-08-12T06:33:24Z</time>
      </trkpt>
      <trkpt lat="42.3176700" lon="-1.9749810">
        <ele>335.0</ele>
        <time>2022-08-12T06:33:28Z</time>
      </trkpt>
      <trkpt lat="42.3181910" lon="-1.9753450">
        <ele>334.8</ele>
        <time>2022-08-12T06:33:38Z</time>
      </trkpt>
      <trkpt lat="42.3185480" lon="-1.9755220">
        <ele>334.6</ele>
        <time>2022-08-12T06:33:45Z</time>
      </trkpt>
      <trkpt lat="42.3186630" lon="-1.9755780">
        <ele>334.4</ele>
        <time>2022-08-12T06:33:47Z</time>
      </trkpt>
      <trkpt lat="42.3189160" lon="-1.9756960">
        <ele>334.4</ele>
        <time>2022-08-12T06:33:52Z</time>
      </trkpt>
      <trkpt lat="42.3192110" lon="-1.9758480">
        <ele>334.4</ele>
        <time>2022-08-12T06:33:58Z</time>
      </trkpt>
      <trkpt lat="42.3194690" lon="-1.9759780">
        <ele>334.0</ele>
        <time>2022-08-12T06:34:03Z</time>
      </trkpt>
      <trkpt lat="42.3196810" lon="-1.9760480">
        <ele>333.8</ele>
        <time>2022-08-12T06:34:07Z</time>
      </trkpt>
      <trkpt lat="42.3199680" lon="-1.9761130">
        <ele>333.8</ele>
        <time>2022-08-12T06:34:12Z</time>
      </trkpt>
      <trkpt lat="42.3201980" lon="-1.9761750">
        <ele>334.0</ele>
        <time>2022-08-12T06:34:17Z</time>
      </trkpt>
      <trkpt lat="42.3202790" lon="-1.9762000">
        <ele>334.0</ele>
        <time>2022-08-12T06:34:19Z</time>
      </trkpt>
      <trkpt lat="42.3204280" lon="-1.9762510">
        <ele>334.6</ele>
        <time>2022-08-12T06:34:23Z</time>
      </trkpt>
      <trkpt lat="42.3205080" lon="-1.9762820">
        <ele>334.8</ele>
        <time>2022-08-12T06:34:25Z</time>
      </trkpt>
      <trkpt lat="42.3205480" lon="-1.9762990">
        <ele>335.0</ele>
        <time>2022-08-12T06:34:26Z</time>
      </trkpt>
      <trkpt lat="42.3206790" lon="-1.9763480">
        <ele>335.4</ele>
        <time>2022-08-12T06:34:29Z</time>
      </trkpt>
      <trkpt lat="42.3208350" lon="-1.9763990">
        <ele>335.6</ele>
        <time>2022-08-12T06:34:32Z</time>
      </trkpt>
      <trkpt lat="42.3212450" lon="-1.9765810">
        <ele>335.4</ele>
        <time>2022-08-12T06:34:40Z</time>
      </trkpt>
      <trkpt lat="42.3212940" lon="-1.9766090">
        <ele>335.4</ele>
        <time>2022-08-12T06:34:41Z</time>
      </trkpt>
      <trkpt lat="42.3215310" lon="-1.9767980">
        <ele>335.2</ele>
        <time>2022-08-12T06:34:46Z</time>
      </trkpt>
      <trkpt lat="42.3219790" lon="-1.9770970">
        <ele>335.0</ele>
        <time>2022-08-12T06:34:55Z</time>
      </trkpt>
      <trkpt lat="42.3220330" lon="-1.9771320">
        <ele>334.8</ele>
        <time>2022-08-12T06:34:56Z</time>
      </trkpt>
      <trkpt lat="42.3221420" lon="-1.9772020">
        <ele>335.0</ele>
        <time>2022-08-12T06:34:58Z</time>
      </trkpt>
      <trkpt lat="42.3222920" lon="-1.9773040">
        <ele>335.0</ele>
        <time>2022-08-12T06:35:01Z</time>
      </trkpt>
      <trkpt lat="42.3224460" lon="-1.9774180">
        <ele>334.0</ele>
        <time>2022-08-12T06:35:04Z</time>
      </trkpt>
      <trkpt lat="42.3224970" lon="-1.9774620">
        <ele>334.0</ele>
        <time>2022-08-12T06:35:05Z</time>
      </trkpt>
      <trkpt lat="42.3227680" lon="-1.9777680">
        <ele>332.8</ele>
        <time>2022-08-12T06:35:11Z</time>
      </trkpt>
      <trkpt lat="42.3228470" lon="-1.9778760">
        <ele>332.6</ele>
        <time>2022-08-12T06:35:13Z</time>
      </trkpt>
      <trkpt lat="42.3232070" lon="-1.9783680">
        <ele>332.4</ele>
        <time>2022-08-12T06:35:22Z</time>
      </trkpt>
      <trkpt lat="42.3234490" lon="-1.9787300">
        <ele>331.8</ele>
        <time>2022-08-12T06:35:28Z</time>
      </trkpt>
      <trkpt lat="42.3235590" lon="-1.9789250">
        <ele>331.4</ele>
        <time>2022-08-12T06:35:31Z</time>
      </trkpt>
      <trkpt lat="42.3236950" lon="-1.9791880">
        <ele>330.8</ele>
        <time>2022-08-12T06:35:35Z</time>
      </trkpt>
      <trkpt lat="42.3238110" lon="-1.9794780">
        <ele>330.2</ele>
        <time>2022-08-12T06:35:39Z</time>
      </trkpt>
      <trkpt lat="42.3238760" lon="-1.9796910">
        <ele>330.0</ele>
        <time>2022-08-12T06:35:42Z</time>
      </trkpt>
      <trkpt lat="42.3239250" lon="-1.9799780">
        <ele>329.8</ele>
        <time>2022-08-12T06:35:46Z</time>
      </trkpt>
      <trkpt lat="42.3239320" lon="-1.9800470">
        <ele>329.8</ele>
        <time>2022-08-12T06:35:47Z</time>
      </trkpt>
      <trkpt lat="42.3239560" lon="-1.9802660">
        <ele>329.4</ele>
        <time>2022-08-12T06:35:51Z</time>
      </trkpt>
      <trkpt lat="42.3240250" lon="-1.9806600">
        <ele>329.8</ele>
        <time>2022-08-12T06:35:59Z</time>
      </trkpt>
      <trkpt lat="42.3241120" lon="-1.9809730">
        <ele>330.2</ele>
        <time>2022-08-12T06:36:06Z</time>
      </trkpt>
      <trkpt lat="42.3241420" lon="-1.9810470">
        <ele>330.6</ele>
        <time>2022-08-12T06:36:08Z</time>
      </trkpt>
      <trkpt lat="42.3241550" lon="-1.9810840">
        <ele>330.6</ele>
        <time>2022-08-12T06:36:09Z</time>
      </trkpt>
      <trkpt lat="42.3241720" lon="-1.9811250">
        <ele>330.8</ele>
        <time>2022-08-12T06:36:10Z</time>
      </trkpt>
      <trkpt lat="42.3242200" lon="-1.9812070">
        <ele>332.0</ele>
        <time>2022-08-12T06:36:13Z</time>
      </trkpt>
      <trkpt lat="42.3242540" lon="-1.9812630">
        <ele>332.2</ele>
        <time>2022-08-12T06:36:15Z</time>
      </trkpt>
      <trkpt lat="42.3243380" lon="-1.9813610">
        <ele>332.6</ele>
        <time>2022-08-12T06:36:19Z</time>
      </trkpt>
      <trkpt lat="42.3243980" lon="-1.9814280">
        <ele>333.0</ele>
        <time>2022-08-12T06:36:22Z</time>
      </trkpt>
      <trkpt lat="42.3244460" lon="-1.9814650">
        <ele>333.2</ele>
        <time>2022-08-12T06:36:24Z</time>
      </trkpt>
      <trkpt lat="42.3245930" lon="-1.9815700">
        <ele>334.2</ele>
        <time>2022-08-12T06:36:30Z</time>
      </trkpt>
      <trkpt lat="42.3246690" lon="-1.9816090">
        <ele>334.8</ele>
        <time>2022-08-12T06:36:33Z</time>
      </trkpt>
      <trkpt lat="42.3247630" lon="-1.9816630">
        <ele>335.2</ele>
        <time>2022-08-12T06:36:36Z</time>
      </trkpt>
      <trkpt lat="42.3250350" lon="-1.9818330">
        <ele>335.6</ele>
        <time>2022-08-12T06:36:44Z</time>
      </trkpt>
      <trkpt lat="42.3252670" lon="-1.9819740">
        <ele>335.6</ele>
        <time>2022-08-12T06:36:49Z</time>
      </trkpt>
      <trkpt lat="42.3255490" lon="-1.9821540">
        <ele>334.2</ele>
        <time>2022-08-12T06:36:54Z</time>
      </trkpt>
      <trkpt lat="42.3256750" lon="-1.9822490">
        <ele>333.4</ele>
        <time>2022-08-12T06:36:56Z</time>
      </trkpt>
      <trkpt lat="42.3257310" lon="-1.9822990">
        <ele>333.0</ele>
        <time>2022-08-12T06:36:57Z</time>
      </trkpt>
      <trkpt lat="42.3259210" lon="-1.9825150">
        <ele>331.6</ele>
        <time>2022-08-12T06:37:01Z</time>
      </trkpt>
      <trkpt lat="42.3260060" lon="-1.9826240">
        <ele>331.2</ele>
        <time>2022-08-12T06:37:03Z</time>
      </trkpt>
      <trkpt lat="42.3260330" lon="-1.9826710">
        <ele>330.4</ele>
        <time>2022-08-12T06:37:04Z</time>
      </trkpt>
      <trkpt lat="42.3260560" lon="-1.9827600">
        <ele>329.2</ele>
        <time>2022-08-12T06:37:06Z</time>
      </trkpt>
      <trkpt lat="42.3260240" lon="-1.9828580">
        <ele>328.4</ele>
        <time>2022-08-12T06:37:08Z</time>
      </trkpt>
      <trkpt lat="42.3259960" lon="-1.9829090">
        <ele>328.2</ele>
        <time>2022-08-12T06:37:09Z</time>
      </trkpt>
      <trkpt lat="42.3259320" lon="-1.9830000">
        <ele>327.6</ele>
        <time>2022-08-12T06:37:11Z</time>
      </trkpt>
      <trkpt lat="42.3258710" lon="-1.9830970">
        <ele>326.6</ele>
        <time>2022-08-12T06:37:13Z</time>
      </trkpt>
      <trkpt lat="42.3258430" lon="-1.9832050">
        <ele>326.2</ele>
        <time>2022-08-12T06:37:15Z</time>
      </trkpt>
      <trkpt lat="42.3258590" lon="-1.9833070">
        <ele>325.8</ele>
        <time>2022-08-12T06:37:17Z</time>
      </trkpt>
      <trkpt lat="42.3258820" lon="-1.9833500">
        <ele>325.6</ele>
        <time>2022-08-12T06:37:18Z</time>
      </trkpt>
      <trkpt lat="42.3260320" lon="-1.9835620">
        <ele>325.4</ele>
        <time>2022-08-12T06:37:23Z</time>
      </trkpt>
      <trkpt lat="42.3261250" lon="-1.9836940">
        <ele>325.4</ele>
        <time>2022-08-12T06:37:26Z</time>
      </trkpt>
      <trkpt lat="42.3264320" lon="-1.9841460">
        <ele>325.0</ele>
        <time>2022-08-12T06:37:36Z</time>
      </trkpt>
      <trkpt lat="42.3265240" lon="-1.9842810">
        <ele>324.8</ele>
        <time>2022-08-12T06:37:39Z</time>
      </trkpt>
      <trkpt lat="42.3265860" lon="-1.9843720">
        <ele>324.6</ele>
        <time>2022-08-12T06:37:41Z</time>
      </trkpt>
      <trkpt lat="42.3267660" lon="-1.9846440">
        <ele>324.2</ele>
        <time>2022-08-12T06:37:47Z</time>
      </trkpt>
      <trkpt lat="42.3268940" lon="-1.9848210">
        <ele>323.8</ele>
        <time>2022-08-12T06:37:51Z</time>
      </trkpt>
      <trkpt lat="42.3269910" lon="-1.9849710">
        <ele>324.0</ele>
        <time>2022-08-12T06:37:54Z</time>
      </trkpt>
      <trkpt lat="42.3270800" lon="-1.9850990">
        <ele>324.2</ele>
        <time>2022-08-12T06:37:57Z</time>
      </trkpt>
      <trkpt lat="42.3274060" lon="-1.9855860">
        <ele>323.8</ele>
        <time>2022-08-12T06:38:07Z</time>
      </trkpt>
      <trkpt lat="42.3274630" lon="-1.9856740">
        <ele>323.6</ele>
        <time>2022-08-12T06:38:09Z</time>
      </trkpt>
      <trkpt lat="42.3275330" lon="-1.9857840">
        <ele>323.6</ele>
        <time>2022-08-12T06:38:11Z</time>
      </trkpt>
      <trkpt lat="42.3277420" lon="-1.9861450">
        <ele>323.8</ele>
        <time>2022-08-12T06:38:18Z</time>
      </trkpt>
      <trkpt lat="42.3280510" lon="-1.9866290">
        <ele>323.8</ele>
        <time>2022-08-12T06:38:28Z</time>
      </trkpt>
      <trkpt lat="42.3281510" lon="-1.9867880">
        <ele>323.4</ele>
        <time>2022-08-12T06:38:31Z</time>
      </trkpt>
      <trkpt lat="42.3283130" lon="-1.9870290">
        <ele>323.2</ele>
        <time>2022-08-12T06:38:36Z</time>
      </trkpt>
      <trkpt lat="42.3283850" lon="-1.9871040">
        <ele>323.2</ele>
        <time>2022-08-12T06:38:38Z</time>
      </trkpt>
      <trkpt lat="42.3284230" lon="-1.9871350">
        <ele>323.0</ele>
        <time>2022-08-12T06:38:39Z</time>
      </trkpt>
      <trkpt lat="42.3285230" lon="-1.9872200">
        <ele>323.0</ele>
        <time>2022-08-12T06:38:42Z</time>
      </trkpt>
      <trkpt lat="42.3285620" lon="-1.9872620">
        <ele>323.2</ele>
        <time>2022-08-12T06:38:43Z</time>
      </trkpt>
      <trkpt lat="42.3286280" lon="-1.9873460">
        <ele>323.2</ele>
        <time>2022-08-12T06:38:45Z</time>
      </trkpt>
      <trkpt lat="42.3289380" lon="-1.9878220">
        <ele>323.0</ele>
        <time>2022-08-12T06:38:55Z</time>
      </trkpt>
      <trkpt lat="42.3292440" lon="-1.9883160">
        <ele>323.0</ele>
        <time>2022-08-12T06:39:05Z</time>
      </trkpt>
      <trkpt lat="42.3295690" lon="-1.9887760">
        <ele>323.0</ele>
        <time>2022-08-12T06:39:15Z</time>
      </trkpt>
      <trkpt lat="42.3297480" lon="-1.9890650">
        <ele>323.0</ele>
        <time>2022-08-12T06:39:21Z</time>
      </trkpt>
      <trkpt lat="42.3298760" lon="-1.9892350">
        <ele>323.0</ele>
        <time>2022-08-12T06:39:25Z</time>
      </trkpt>
      <trkpt lat="42.3300130" lon="-1.9894200">
        <ele>323.0</ele>
        <time>2022-08-12T06:39:29Z</time>
      </trkpt>
      <trkpt lat="42.3301610" lon="-1.9896600">
        <ele>322.6</ele>
        <time>2022-08-12T06:39:34Z</time>
      </trkpt>
      <trkpt lat="42.3301930" lon="-1.9897070">
        <ele>322.6</ele>
        <time>2022-08-12T06:39:35Z</time>
      </trkpt>
      <trkpt lat="42.3304410" lon="-1.9900780">
        <ele>322.0</ele>
        <time>2022-08-12T06:39:43Z</time>
      </trkpt>
      <trkpt lat="42.3305610" lon="-1.9902630">
        <ele>322.0</ele>
        <time>2022-08-12T06:39:47Z</time>
      </trkpt>
      <trkpt lat="42.3306730" lon="-1.9904480">
        <ele>321.8</ele>
        <time>2022-08-12T06:39:51Z</time>
      </trkpt>
      <trkpt lat="42.3307320" lon="-1.9905380">
        <ele>321.8</ele>
        <time>2022-08-12T06:39:53Z</time>
      </trkpt>
      <trkpt lat="42.3308540" lon="-1.9906980">
        <ele>322.0</ele>
        <time>2022-08-12T06:39:57Z</time>
      </trkpt>
      <trkpt lat="42.3309170" lon="-1.9907720">
        <ele>322.0</ele>
        <time>2022-08-12T06:39:59Z</time>
      </trkpt>
      <trkpt lat="42.3312410" lon="-1.9911740">
        <ele>322.6</ele>
        <time>2022-08-12T06:40:09Z</time>
      </trkpt>
      <trkpt lat="42.3314660" lon="-1.9915810">
        <ele>322.4</ele>
        <time>2022-08-12T06:40:17Z</time>
      </trkpt>
      <trkpt lat="42.3316840" lon="-1.9919660">
        <ele>322.4</ele>
        <time>2022-08-12T06:40:25Z</time>
      </trkpt>
      <trkpt lat="42.3319550" lon="-1.9923670">
        <ele>322.2</ele>
        <time>2022-08-12T06:40:34Z</time>
      </trkpt>
      <trkpt lat="42.3322060" lon="-1.9927340">
        <ele>322.0</ele>
        <time>2022-08-12T06:40:42Z</time>
      </trkpt>
      <trkpt lat="42.3323930" lon="-1.9930080">
        <ele>321.8</ele>
        <time>2022-08-12T06:40:48Z</time>
      </trkpt>
      <trkpt lat="42.3324580" lon="-1.9930990">
        <ele>321.6</ele>
        <time>2022-08-12T06:40:50Z</time>
      </trkpt>
      <trkpt lat="42.3325500" lon="-1.9932330">
        <ele>321.8</ele>
        <time>2022-08-12T06:40:53Z</time>
      </trkpt>
      <trkpt lat="42.3326970" lon="-1.9934580">
        <ele>321.6</ele>
        <time>2022-08-12T06:40:58Z</time>
      </trkpt>
      <trkpt lat="42.3330240" lon="-1.9940160">
        <ele>322.4</ele>
        <time>2022-08-12T06:41:10Z</time>
      </trkpt>
      <trkpt lat="42.3332150" lon="-1.9944440">
        <ele>322.0</ele>
        <time>2022-08-12T06:41:18Z</time>
      </trkpt>
      <trkpt lat="42.3334250" lon="-1.9949110">
        <ele>321.2</ele>
        <time>2022-08-12T06:41:27Z</time>
      </trkpt>
      <trkpt lat="42.3336140" lon="-1.9953200">
        <ele>321.2</ele>
        <time>2022-08-12T06:41:35Z</time>
      </trkpt>
      <trkpt lat="42.3338920" lon="-1.9958120">
        <ele>321.2</ele>
        <time>2022-08-12T06:41:45Z</time>
      </trkpt>
      <trkpt lat="42.3339170" lon="-1.9958620">
        <ele>321.2</ele>
        <time>2022-08-12T06:41:46Z</time>
      </trkpt>
      <trkpt lat="42.3341910" lon="-1.9963840">
        <ele>321.4</ele>
        <time>2022-08-12T06:41:57Z</time>
      </trkpt>
      <trkpt lat="42.3342990" lon="-1.9966060">
        <ele>321.2</ele>
        <time>2022-08-12T06:42:03Z</time>
      </trkpt>
      <trkpt lat="42.3343290" lon="-1.9966430">
        <ele>321.4</ele>
        <time>2022-08-12T06:42:06Z</time>
      </trkpt>
      <trkpt lat="42.3343290" lon="-1.9966430">
        <ele>321.4</ele>
        <time>2022-08-12T06:42:07Z</time>
      </trkpt>
      <trkpt lat="42.3343310" lon="-1.9966450">
        <ele>321.8</ele>
        <time>2022-08-12T06:42:29Z</time>
      </trkpt>
      <trkpt lat="42.3343800" lon="-1.9966730">
        <ele>321.8</ele>
        <time>2022-08-12T06:42:32Z</time>
      </trkpt>
      <trkpt lat="42.3345250" lon="-1.9967330">
        <ele>321.6</ele>
        <time>2022-08-12T06:42:37Z</time>
      </trkpt>
      <trkpt lat="42.3345650" lon="-1.9967460">
        <ele>321.6</ele>
        <time>2022-08-12T06:42:38Z</time>
      </trkpt>
      <trkpt lat="42.3347280" lon="-1.9967690">
        <ele>322.0</ele>
        <time>2022-08-12T06:42:42Z</time>
      </trkpt>
      <trkpt lat="42.3348090" lon="-1.9967570">
        <ele>322.0</ele>
        <time>2022-08-12T06:42:44Z</time>
      </trkpt>
      <trkpt lat="42.3349210" lon="-1.9967170">
        <ele>322.2</ele>
        <time>2022-08-12T06:42:47Z</time>
      </trkpt>
      <trkpt lat="42.3351240" lon="-1.9966530">
        <ele>322.2</ele>
        <time>2022-08-12T06:42:52Z</time>
      </trkpt>
      <trkpt lat="42.3353800" lon="-1.9966510">
        <ele>322.6</ele>
        <time>2022-08-12T06:42:58Z</time>
      </trkpt>
      <trkpt lat="42.3357610" lon="-1.9966610">
        <ele>322.4</ele>
        <time>2022-08-12T06:43:07Z</time>
      </trkpt>
      <trkpt lat="42.3358050" lon="-1.9966510">
        <ele>322.6</ele>
        <time>2022-08-12T06:43:08Z</time>
      </trkpt>
      <trkpt lat="42.3361190" lon="-1.9965790">
        <ele>322.4</ele>
        <time>2022-08-12T06:43:14Z</time>
      </trkpt>
      <trkpt lat="42.3362340" lon="-1.9965390">
        <ele>322.2</ele>
        <time>2022-08-12T06:43:16Z</time>
      </trkpt>
      <trkpt lat="42.3363430" lon="-1.9965010">
        <ele>321.8</ele>
        <time>2022-08-12T06:43:18Z</time>
      </trkpt>
      <trkpt lat="42.3365120" lon="-1.9964580">
        <ele>321.0</ele>
        <time>2022-08-12T06:43:22Z</time>
      </trkpt>
      <trkpt lat="42.3365350" lon="-1.9964560">
        <ele>320.6</ele>
        <time>2022-08-12T06:43:23Z</time>
      </trkpt>
      <trkpt lat="42.3365680" lon="-1.9964490">
        <ele>320.2</ele>
        <time>2022-08-12T06:43:25Z</time>
      </trkpt>
      <trkpt lat="42.3366230" lon="-1.9964410">
        <ele>319.8</ele>
        <time>2022-08-12T06:43:27Z</time>
      </trkpt>
      <trkpt lat="42.3366570" lon="-1.9964330">
        <ele>319.6</ele>
        <time>2022-08-12T06:43:28Z</time>
      </trkpt>
      <trkpt lat="42.3368480" lon="-1.9963850">
        <ele>318.6</ele>
        <time>2022-08-12T06:43:32Z</time>
      </trkpt>
      <trkpt lat="42.3369460" lon="-1.9963610">
        <ele>318.4</ele>
        <time>2022-08-12T06:43:34Z</time>
      </trkpt>
      <trkpt lat="42.3371420" lon="-1.9963460">
        <ele>317.6</ele>
        <time>2022-08-12T06:43:38Z</time>
      </trkpt>
      <trkpt lat="42.3371950" lon="-1.9963530">
        <ele>317.4</ele>
        <time>2022-08-12T06:43:39Z</time>
      </trkpt>
      <trkpt lat="42.3372460" lon="-1.9963670">
        <ele>317.4</ele>
        <time>2022-08-12T06:43:40Z</time>
      </trkpt>
      <trkpt lat="42.3373470" lon="-1.9964130">
        <ele>317.2</ele>
        <time>2022-08-12T06:43:42Z</time>
      </trkpt>
      <trkpt lat="42.3374280" lon="-1.9964600">
        <ele>316.8</ele>
        <time>2022-08-12T06:43:44Z</time>
      </trkpt>
      <trkpt lat="42.3375200" lon="-1.9965140">
        <ele>315.8</ele>
        <time>2022-08-12T06:43:46Z</time>
      </trkpt>
      <trkpt lat="42.3375680" lon="-1.9965500">
        <ele>315.6</ele>
        <time>2022-08-12T06:43:47Z</time>
      </trkpt>
      <trkpt lat="42.3376650" lon="-1.9966370">
        <ele>315.2</ele>
        <time>2022-08-12T06:43:49Z</time>
      </trkpt>
      <trkpt lat="42.3377150" lon="-1.9966820">
        <ele>314.8</ele>
        <time>2022-08-12T06:43:50Z</time>
      </trkpt>
      <trkpt lat="42.3378260" lon="-1.9967760">
        <ele>314.6</ele>
        <time>2022-08-12T06:43:52Z</time>
      </trkpt>
      <trkpt lat="42.3379900" lon="-1.9969450">
        <ele>313.6</ele>
        <time>2022-08-12T06:43:55Z</time>
      </trkpt>
      <trkpt lat="42.3380420" lon="-1.9970060">
        <ele>313.4</ele>
        <time>2022-08-12T06:43:56Z</time>
      </trkpt>
      <trkpt lat="42.3381450" lon="-1.9971290">
        <ele>312.8</ele>
        <time>2022-08-12T06:43:58Z</time>
      </trkpt>
      <trkpt lat="42.3381980" lon="-1.9971950">
        <ele>312.4</ele>
        <time>2022-08-12T06:43:59Z</time>
      </trkpt>
      <trkpt lat="42.3382540" lon="-1.9972650">
        <ele>312.2</ele>
        <time>2022-08-12T06:44:00Z</time>
      </trkpt>
      <trkpt lat="42.3383680" lon="-1.9974070">
        <ele>311.0</ele>
        <time>2022-08-12T06:44:02Z</time>
      </trkpt>
      <trkpt lat="42.3384290" lon="-1.9974770">
        <ele>311.0</ele>
        <time>2022-08-12T06:44:03Z</time>
      </trkpt>
      <trkpt lat="42.3386080" lon="-1.9976790">
        <ele>309.6</ele>
        <time>2022-08-12T06:44:06Z</time>
      </trkpt>
      <trkpt lat="42.3388640" lon="-1.9978980">
        <ele>308.8</ele>
        <time>2022-08-12T06:44:10Z</time>
      </trkpt>
      <trkpt lat="42.3389270" lon="-1.9979410">
        <ele>308.2</ele>
        <time>2022-08-12T06:44:11Z</time>
      </trkpt>
      <trkpt lat="42.3391590" lon="-1.9980820">
        <ele>307.6</ele>
        <time>2022-08-12T06:44:15Z</time>
      </trkpt>
      <trkpt lat="42.3394110" lon="-1.9982430">
        <ele>307.2</ele>
        <time>2022-08-12T06:44:20Z</time>
      </trkpt>
      <trkpt lat="42.3394580" lon="-1.9982760">
        <ele>307.2</ele>
        <time>2022-08-12T06:44:21Z</time>
      </trkpt>
      <trkpt lat="42.3396820" lon="-1.9984590">
        <ele>307.2</ele>
        <time>2022-08-12T06:44:26Z</time>
      </trkpt>
      <trkpt lat="42.3397810" lon="-1.9985170">
        <ele>307.2</ele>
        <time>2022-08-12T06:44:28Z</time>
      </trkpt>
      <trkpt lat="42.3399930" lon="-1.9985960">
        <ele>307.0</ele>
        <time>2022-08-12T06:44:32Z</time>
      </trkpt>
      <trkpt lat="42.3401490" lon="-1.9986400">
        <ele>307.0</ele>
        <time>2022-08-12T06:44:35Z</time>
      </trkpt>
      <trkpt lat="42.3404490" lon="-1.9987110">
        <ele>306.8</ele>
        <time>2022-08-12T06:44:41Z</time>
      </trkpt>
      <trkpt lat="42.3406400" lon="-1.9987450">
        <ele>307.0</ele>
        <time>2022-08-12T06:44:45Z</time>
      </trkpt>
      <trkpt lat="42.3406850" lon="-1.9987520">
        <ele>307.0</ele>
        <time>2022-08-12T06:44:46Z</time>
      </trkpt>
      <trkpt lat="42.3409190" lon="-1.9987650">
        <ele>307.2</ele>
        <time>2022-08-12T06:44:51Z</time>
      </trkpt>
      <trkpt lat="42.3410640" lon="-1.9987660">
        <ele>307.4</ele>
        <time>2022-08-12T06:44:54Z</time>
      </trkpt>
      <trkpt lat="42.3411120" lon="-1.9987650">
        <ele>307.4</ele>
        <time>2022-08-12T06:44:55Z</time>
      </trkpt>
      <trkpt lat="42.3412990" lon="-1.9987670">
        <ele>306.8</ele>
        <time>2022-08-12T06:44:59Z</time>
      </trkpt>
      <trkpt lat="42.3415680" lon="-1.9987800">
        <ele>307.0</ele>
        <time>2022-08-12T06:45:05Z</time>
      </trkpt>
      <trkpt lat="42.3419680" lon="-1.9988870">
        <ele>307.0</ele>
        <time>2022-08-12T06:45:14Z</time>
      </trkpt>
      <trkpt lat="42.3421900" lon="-1.9990000">
        <ele>307.4</ele>
        <time>2022-08-12T06:45:19Z</time>
      </trkpt>
      <trkpt lat="42.3424380" lon="-1.9991420">
        <ele>307.2</ele>
        <time>2022-08-12T06:45:25Z</time>
      </trkpt>
      <trkpt lat="42.3429230" lon="-1.9994570">
        <ele>307.4</ele>
        <time>2022-08-12T06:45:37Z</time>
      </trkpt>
      <trkpt lat="42.3430020" lon="-1.9995130">
        <ele>307.4</ele>
        <time>2022-08-12T06:45:39Z</time>
      </trkpt>
      <trkpt lat="42.3431980" lon="-1.9996680">
        <ele>307.4</ele>
        <time>2022-08-12T06:45:44Z</time>
      </trkpt>
      <trkpt lat="42.3433040" lon="-1.9997760">
        <ele>307.6</ele>
        <time>2022-08-12T06:45:47Z</time>
      </trkpt>
      <trkpt lat="42.3434380" lon="-1.9999250">
        <ele>307.8</ele>
        <time>2022-08-12T06:45:51Z</time>
      </trkpt>
      <trkpt lat="42.3435560" lon="-2.0000870">
        <ele>307.8</ele>
        <time>2022-08-12T06:45:55Z</time>
      </trkpt>
      <trkpt lat="42.3436920" lon="-2.0003010">
        <ele>308.0</ele>
        <time>2022-08-12T06:46:00Z</time>
      </trkpt>
      <trkpt lat="42.3438000" lon="-2.0004710">
        <ele>307.8</ele>
        <time>2022-08-12T06:46:04Z</time>
      </trkpt>
      <trkpt lat="42.3439650" lon="-2.0007180">
        <ele>308.2</ele>
        <time>2022-08-12T06:46:10Z</time>
      </trkpt>
      <trkpt lat="42.3440460" lon="-2.0008430">
        <ele>308.6</ele>
        <time>2022-08-12T06:46:13Z</time>
      </trkpt>
      <trkpt lat="42.3442330" lon="-2.0011620">
        <ele>309.2</ele>
        <time>2022-08-12T06:46:21Z</time>
      </trkpt>
      <trkpt lat="42.3443040" lon="-2.0012830">
        <ele>309.4</ele>
        <time>2022-08-12T06:46:24Z</time>
      </trkpt>
      <trkpt lat="42.3445670" lon="-2.0017110">
        <ele>309.4</ele>
        <time>2022-08-12T06:46:33Z</time>
      </trkpt>
      <trkpt lat="42.3446620" lon="-2.0018650">
        <ele>309.0</ele>
        <time>2022-08-12T06:46:36Z</time>
      </trkpt>
      <trkpt lat="42.3447840" lon="-2.0020700">
        <ele>308.2</ele>
        <time>2022-08-12T06:46:40Z</time>
      </trkpt>
      <trkpt lat="42.3448150" lon="-2.0021200">
        <ele>308.2</ele>
        <time>2022-08-12T06:46:41Z</time>
      </trkpt>
      <trkpt lat="42.3450590" lon="-2.0024760">
        <ele>307.6</ele>
        <time>2022-08-12T06:46:49Z</time>
      </trkpt>
      <trkpt lat="42.3450920" lon="-2.0025210">
        <ele>307.6</ele>
        <time>2022-08-12T06:46:50Z</time>
      </trkpt>
      <trkpt lat="42.3454920" lon="-2.0030780">
        <ele>307.4</ele>
        <time>2022-08-12T06:47:02Z</time>
      </trkpt>
      <trkpt lat="42.3456230" lon="-2.0032790">
        <ele>307.2</ele>
        <time>2022-08-12T06:47:06Z</time>
      </trkpt>
      <trkpt lat="42.3458590" lon="-2.0036800">
        <ele>307.2</ele>
        <time>2022-08-12T06:47:14Z</time>
      </trkpt>
      <trkpt lat="42.3460170" lon="-2.0039990">
        <ele>307.0</ele>
        <time>2022-08-12T06:47:20Z</time>
      </trkpt>
      <trkpt lat="42.3460910" lon="-2.0041690">
        <ele>307.0</ele>
        <time>2022-08-12T06:47:23Z</time>
      </trkpt>
      <trkpt lat="42.3461390" lon="-2.0042820">
        <ele>306.8</ele>
        <time>2022-08-12T06:47:25Z</time>
      </trkpt>
      <trkpt lat="42.3462920" lon="-2.0046040">
        <ele>306.4</ele>
        <time>2022-08-12T06:47:31Z</time>
      </trkpt>
      <trkpt lat="42.3464190" lon="-2.0048680">
        <ele>306.4</ele>
        <time>2022-08-12T06:47:36Z</time>
      </trkpt>
      <trkpt lat="42.3466410" lon="-2.0054210">
        <ele>306.4</ele>
        <time>2022-08-12T06:47:46Z</time>
      </trkpt>
      <trkpt lat="42.3467890" lon="-2.0058880">
        <ele>306.2</ele>
        <time>2022-08-12T06:47:54Z</time>
      </trkpt>
      <trkpt lat="42.3468050" lon="-2.0059420">
        <ele>306.2</ele>
        <time>2022-08-12T06:47:55Z</time>
      </trkpt>
      <trkpt lat="42.3468970" lon="-2.0062180">
        <ele>306.4</ele>
        <time>2022-08-12T06:48:00Z</time>
      </trkpt>
      <trkpt lat="42.3470290" lon="-2.0065590">
        <ele>306.4</ele>
        <time>2022-08-12T06:48:06Z</time>
      </trkpt>
      <trkpt lat="42.3470750" lon="-2.0066720">
        <ele>306.4</ele>
        <time>2022-08-12T06:48:08Z</time>
      </trkpt>
      <trkpt lat="42.3472690" lon="-2.0071150">
        <ele>306.4</ele>
        <time>2022-08-12T06:48:16Z</time>
      </trkpt>
      <trkpt lat="42.3475190" lon="-2.0076660">
        <ele>306.6</ele>
        <time>2022-08-12T06:48:26Z</time>
      </trkpt>
      <trkpt lat="42.3476410" lon="-2.0079380">
        <ele>306.4</ele>
        <time>2022-08-12T06:48:31Z</time>
      </trkpt>
      <trkpt lat="42.3477750" lon="-2.0082110">
        <ele>306.4</ele>
        <time>2022-08-12T06:48:36Z</time>
      </trkpt>
      <trkpt lat="42.3479900" lon="-2.0086510">
        <ele>306.6</ele>
        <time>2022-08-12T06:48:44Z</time>
      </trkpt>
      <trkpt lat="42.3480960" lon="-2.0088650">
        <ele>306.6</ele>
        <time>2022-08-12T06:48:48Z</time>
      </trkpt>
      <trkpt lat="42.3483080" lon="-2.0092750">
        <ele>306.6</ele>
        <time>2022-08-12T06:48:56Z</time>
      </trkpt>
      <trkpt lat="42.3483340" lon="-2.0093300">
        <ele>306.4</ele>
        <time>2022-08-12T06:48:57Z</time>
      </trkpt>
      <trkpt lat="42.3484910" lon="-2.0096820">
        <ele>306.8</ele>
        <time>2022-08-12T06:49:04Z</time>
      </trkpt>
      <trkpt lat="42.3485420" lon="-2.0097680">
        <ele>306.8</ele>
        <time>2022-08-12T06:49:06Z</time>
      </trkpt>
      <trkpt lat="42.3487670" lon="-2.0100970">
        <ele>307.2</ele>
        <time>2022-08-12T06:49:13Z</time>
      </trkpt>
      <trkpt lat="42.3487970" lon="-2.0101360">
        <ele>307.4</ele>
        <time>2022-08-12T06:49:14Z</time>
      </trkpt>
      <trkpt lat="42.3490950" lon="-2.0105280">
        <ele>306.6</ele>
        <time>2022-08-12T06:49:22Z</time>
      </trkpt>
      <trkpt lat="42.3494470" lon="-2.0109640">
        <ele>306.2</ele>
        <time>2022-08-12T06:49:31Z</time>
      </trkpt>
      <trkpt lat="42.3495800" lon="-2.0110810">
        <ele>306.0</ele>
        <time>2022-08-12T06:49:34Z</time>
      </trkpt>
      <trkpt lat="42.3496220" lon="-2.0111170">
        <ele>306.0</ele>
        <time>2022-08-12T06:49:35Z</time>
      </trkpt>
      <trkpt lat="42.3496650" lon="-2.0111570">
        <ele>306.0</ele>
        <time>2022-08-12T06:49:36Z</time>
      </trkpt>
      <trkpt lat="42.3497050" lon="-2.0112020">
        <ele>306.0</ele>
        <time>2022-08-12T06:49:37Z</time>
      </trkpt>
      <trkpt lat="42.3498170" lon="-2.0113350">
        <ele>306.0</ele>
        <time>2022-08-12T06:49:40Z</time>
      </trkpt>
      <trkpt lat="42.3499340" lon="-2.0114710">
        <ele>305.8</ele>
        <time>2022-08-12T06:49:43Z</time>
      </trkpt>
      <trkpt lat="42.3500100" lon="-2.0115580">
        <ele>305.8</ele>
        <time>2022-08-12T06:49:45Z</time>
      </trkpt>
      <trkpt lat="42.3502160" lon="-2.0118130">
        <ele>306.2</ele>
        <time>2022-08-12T06:49:51Z</time>
      </trkpt>
      <trkpt lat="42.3503020" lon="-2.0119410">
        <ele>306.4</ele>
        <time>2022-08-12T06:49:54Z</time>
      </trkpt>
      <trkpt lat="42.3505950" lon="-2.0124680">
        <ele>306.8</ele>
        <time>2022-08-12T06:50:04Z</time>
      </trkpt>
      <trkpt lat="42.3507280" lon="-2.0127860">
        <ele>306.6</ele>
        <time>2022-08-12T06:50:09Z</time>
      </trkpt>
      <trkpt lat="42.3507700" lon="-2.0129250">
        <ele>306.2</ele>
        <time>2022-08-12T06:50:11Z</time>
      </trkpt>
      <trkpt lat="42.3507870" lon="-2.0129940">
        <ele>306.0</ele>
        <time>2022-08-12T06:50:12Z</time>
      </trkpt>
      <trkpt lat="42.3508740" lon="-2.0133360">
        <ele>305.2</ele>
        <time>2022-08-12T06:50:17Z</time>
      </trkpt>
      <trkpt lat="42.3509250" lon="-2.0135160">
        <ele>305.0</ele>
        <time>2022-08-12T06:50:20Z</time>
      </trkpt>
      <trkpt lat="42.3510660" lon="-2.0139490">
        <ele>304.8</ele>
        <time>2022-08-12T06:50:27Z</time>
      </trkpt>
      <trkpt lat="42.3511270" lon="-2.0141310">
        <ele>304.8</ele>
        <time>2022-08-12T06:50:30Z</time>
      </trkpt>
      <trkpt lat="42.3513440" lon="-2.0148540">
        <ele>305.6</ele>
        <time>2022-08-12T06:50:42Z</time>
      </trkpt>
      <trkpt lat="42.3514420" lon="-2.0151350">
        <ele>305.2</ele>
        <time>2022-08-12T06:50:47Z</time>
      </trkpt>
      <trkpt lat="42.3515820" lon="-2.0154850">
        <ele>305.2</ele>
        <time>2022-08-12T06:50:53Z</time>
      </trkpt>
      <trkpt lat="42.3517560" lon="-2.0160160">
        <ele>305.4</ele>
        <time>2022-08-12T06:51:02Z</time>
      </trkpt>
      <trkpt lat="42.3518700" lon="-2.0164320">
        <ele>305.4</ele>
        <time>2022-08-12T06:51:09Z</time>
      </trkpt>
      <trkpt lat="42.3519350" lon="-2.0165920">
        <ele>305.6</ele>
        <time>2022-08-12T06:51:12Z</time>
      </trkpt>
      <trkpt lat="42.3521310" lon="-2.0169620">
        <ele>308.2</ele>
        <time>2022-08-12T06:51:19Z</time>
      </trkpt>
      <trkpt lat="42.3523940" lon="-2.0174970">
        <ele>305.4</ele>
        <time>2022-08-12T06:51:29Z</time>
      </trkpt>
      <trkpt lat="42.3525880" lon="-2.0178390">
        <ele>305.4</ele>
        <time>2022-08-12T06:51:36Z</time>
      </trkpt>
      <trkpt lat="42.3526310" lon="-2.0178880">
        <ele>305.4</ele>
        <time>2022-08-12T06:51:37Z</time>
      </trkpt>
      <trkpt lat="42.3527460" lon="-2.0180050">
        <ele>305.4</ele>
        <time>2022-08-12T06:51:40Z</time>
      </trkpt>
      <trkpt lat="42.3528890" lon="-2.0181530">
        <ele>305.6</ele>
        <time>2022-08-12T06:51:44Z</time>
      </trkpt>
      <trkpt lat="42.3529160" lon="-2.0181970">
        <ele>305.6</ele>
        <time>2022-08-12T06:51:45Z</time>
      </trkpt>
      <trkpt lat="42.3529410" lon="-2.0182440">
        <ele>305.6</ele>
        <time>2022-08-12T06:51:46Z</time>
      </trkpt>
      <trkpt lat="42.3530580" lon="-2.0184870">
        <ele>305.2</ele>
        <time>2022-08-12T06:51:51Z</time>
      </trkpt>
      <trkpt lat="42.3530870" lon="-2.0185320">
        <ele>305.2</ele>
        <time>2022-08-12T06:51:52Z</time>
      </trkpt>
      <trkpt lat="42.3531970" lon="-2.0186570">
        <ele>305.4</ele>
        <time>2022-08-12T06:51:55Z</time>
      </trkpt>
      <trkpt lat="42.3532650" lon="-2.0187240">
        <ele>306.0</ele>
        <time>2022-08-12T06:51:57Z</time>
      </trkpt>
      <trkpt lat="42.3534490" lon="-2.0188880">
        <ele>306.6</ele>
        <time>2022-08-12T06:52:02Z</time>
      </trkpt>
      <trkpt lat="42.3536040" lon="-2.0190120">
        <ele>306.8</ele>
        <time>2022-08-12T06:52:06Z</time>
      </trkpt>
      <trkpt lat="42.3538200" lon="-2.0192060">
        <ele>307.0</ele>
        <time>2022-08-12T06:52:12Z</time>
      </trkpt>
      <trkpt lat="42.3540420" lon="-2.0194630">
        <ele>307.0</ele>
        <time>2022-08-12T06:52:19Z</time>
      </trkpt>
      <trkpt lat="42.3541120" lon="-2.0195220">
        <ele>307.2</ele>
        <time>2022-08-12T06:52:21Z</time>
      </trkpt>
      <trkpt lat="42.3542360" lon="-2.0195810">
        <ele>307.2</ele>
        <time>2022-08-12T06:52:24Z</time>
      </trkpt>
      <trkpt lat="42.3543350" lon="-2.0196090">
        <ele>307.2</ele>
        <time>2022-08-12T06:52:26Z</time>
      </trkpt>
      <trkpt lat="42.3547150" lon="-2.0197120">
        <ele>306.8</ele>
        <time>2022-08-12T06:52:34Z</time>
      </trkpt>
      <trkpt lat="42.3551220" lon="-2.0199350">
        <ele>307.0</ele>
        <time>2022-08-12T06:52:44Z</time>
      </trkpt>
      <trkpt lat="42.3554680" lon="-2.0200730">
        <ele>307.0</ele>
        <time>2022-08-12T06:52:52Z</time>
      </trkpt>
      <trkpt lat="42.3555050" lon="-2.0200810">
        <ele>307.0</ele>
        <time>2022-08-12T06:52:53Z</time>
      </trkpt>
      <trkpt lat="42.3559480" lon="-2.0202270">
        <ele>306.8</ele>
        <time>2022-08-12T06:53:02Z</time>
      </trkpt>
      <trkpt lat="42.3559960" lon="-2.0202480">
        <ele>306.8</ele>
        <time>2022-08-12T06:53:03Z</time>
      </trkpt>
      <trkpt lat="42.3560890" lon="-2.0202950">
        <ele>306.8</ele>
        <time>2022-08-12T06:53:05Z</time>
      </trkpt>
      <trkpt lat="42.3562930" lon="-2.0204470">
        <ele>306.8</ele>
        <time>2022-08-12T06:53:10Z</time>
      </trkpt>
      <trkpt lat="42.3563990" lon="-2.0205680">
        <ele>306.8</ele>
        <time>2022-08-12T06:53:13Z</time>
      </trkpt>
      <trkpt lat="42.3565820" lon="-2.0207520">
        <ele>307.2</ele>
        <time>2022-08-12T06:53:18Z</time>
      </trkpt>
      <trkpt lat="42.3567050" lon="-2.0208410">
        <ele>307.2</ele>
        <time>2022-08-12T06:53:21Z</time>
      </trkpt>
      <trkpt lat="42.3569520" lon="-2.0209970">
        <ele>307.6</ele>
        <time>2022-08-12T06:53:27Z</time>
      </trkpt>
      <trkpt lat="42.3572640" lon="-2.0211330">
        <ele>307.6</ele>
        <time>2022-08-12T06:53:34Z</time>
      </trkpt>
      <trkpt lat="42.3573110" lon="-2.0211480">
        <ele>307.6</ele>
        <time>2022-08-12T06:53:35Z</time>
      </trkpt>
      <trkpt lat="42.3574430" lon="-2.0212050">
        <ele>307.6</ele>
        <time>2022-08-12T06:53:38Z</time>
      </trkpt>
      <trkpt lat="42.3576050" lon="-2.0213140">
        <ele>307.6</ele>
        <time>2022-08-12T06:53:42Z</time>
      </trkpt>
      <trkpt lat="42.3577040" lon="-2.0214130">
        <ele>307.8</ele>
        <time>2022-08-12T06:53:45Z</time>
      </trkpt>
      <trkpt lat="42.3577390" lon="-2.0214460">
        <ele>308.0</ele>
        <time>2022-08-12T06:53:46Z</time>
      </trkpt>
      <trkpt lat="42.3578390" lon="-2.0215350">
        <ele>308.2</ele>
        <time>2022-08-12T06:53:49Z</time>
      </trkpt>
      <trkpt lat="42.3579740" lon="-2.0216570">
        <ele>308.2</ele>
        <time>2022-08-12T06:53:53Z</time>
      </trkpt>
      <trkpt lat="42.3581710" lon="-2.0218360">
        <ele>308.4</ele>
        <time>2022-08-12T06:53:58Z</time>
      </trkpt>
      <trkpt lat="42.3584590" lon="-2.0221340">
        <ele>308.6</ele>
        <time>2022-08-12T06:54:06Z</time>
      </trkpt>
      <trkpt lat="42.3587420" lon="-2.0225530">
        <ele>308.6</ele>
        <time>2022-08-12T06:54:16Z</time>
      </trkpt>
      <trkpt lat="42.3588200" lon="-2.0226850">
        <ele>309.0</ele>
        <time>2022-08-12T06:54:19Z</time>
      </trkpt>
      <trkpt lat="42.3588860" lon="-2.0228010">
        <ele>309.4</ele>
        <time>2022-08-12T06:54:22Z</time>
      </trkpt>
      <trkpt lat="42.3589420" lon="-2.0229120">
        <ele>309.8</ele>
        <time>2022-08-12T06:54:25Z</time>
      </trkpt>
      <trkpt lat="42.3589820" lon="-2.0229800">
        <ele>310.0</ele>
        <time>2022-08-12T06:54:27Z</time>
      </trkpt>
      <trkpt lat="42.3590190" lon="-2.0230510">
        <ele>310.6</ele>
        <time>2022-08-12T06:54:29Z</time>
      </trkpt>
      <trkpt lat="42.3590580" lon="-2.0231180">
        <ele>311.2</ele>
        <time>2022-08-12T06:54:31Z</time>
      </trkpt>
      <trkpt lat="42.3591090" lon="-2.0232100">
        <ele>312.2</ele>
        <time>2022-08-12T06:54:34Z</time>
      </trkpt>
      <trkpt lat="42.3591560" lon="-2.0232720">
        <ele>312.6</ele>
        <time>2022-08-12T06:54:36Z</time>
      </trkpt>
      <trkpt lat="42.3593370" lon="-2.0233700">
        <ele>313.0</ele>
        <time>2022-08-12T06:54:42Z</time>
      </trkpt>
      <trkpt lat="42.3594770" lon="-2.0234500">
        <ele>313.0</ele>
        <time>2022-08-12T06:54:46Z</time>
      </trkpt>
      <trkpt lat="42.3595100" lon="-2.0234790">
        <ele>313.0</ele>
        <time>2022-08-12T06:54:47Z</time>
      </trkpt>
      <trkpt lat="42.3595740" lon="-2.0235620">
        <ele>313.0</ele>
        <time>2022-08-12T06:54:49Z</time>
      </trkpt>
      <trkpt lat="42.3597890" lon="-2.0238840">
        <ele>312.0</ele>
        <time>2022-08-12T06:54:56Z</time>
      </trkpt>
      <trkpt lat="42.3600140" lon="-2.0241880">
        <ele>311.8</ele>
        <time>2022-08-12T06:55:03Z</time>
      </trkpt>
      <trkpt lat="42.3601910" lon="-2.0244850">
        <ele>311.8</ele>
        <time>2022-08-12T06:55:10Z</time>
      </trkpt>
      <trkpt lat="42.3603800" lon="-2.0249160">
        <ele>312.6</ele>
        <time>2022-08-12T06:55:19Z</time>
      </trkpt>
      <trkpt lat="42.3606220" lon="-2.0253300">
        <ele>313.0</ele>
        <time>2022-08-12T06:55:28Z</time>
      </trkpt>
      <trkpt lat="42.3607020" lon="-2.0254670">
        <ele>313.2</ele>
        <time>2022-08-12T06:55:31Z</time>
      </trkpt>
      <trkpt lat="42.3608790" lon="-2.0257830">
        <ele>313.4</ele>
        <time>2022-08-12T06:55:38Z</time>
      </trkpt>
      <trkpt lat="42.3610490" lon="-2.0260560">
        <ele>313.0</ele>
        <time>2022-08-12T06:55:44Z</time>
      </trkpt>
      <trkpt lat="42.3611120" lon="-2.0261560">
        <ele>313.0</ele>
        <time>2022-08-12T06:55:46Z</time>
      </trkpt>
      <trkpt lat="42.3611420" lon="-2.0261990">
        <ele>313.0</ele>
        <time>2022-08-12T06:55:47Z</time>
      </trkpt>
      <trkpt lat="42.3613560" lon="-2.0265060">
        <ele>313.0</ele>
        <time>2022-08-12T06:55:54Z</time>
      </trkpt>
      <trkpt lat="42.3614680" lon="-2.0266620">
        <ele>313.2</ele>
        <time>2022-08-12T06:55:58Z</time>
      </trkpt>
      <trkpt lat="42.3615370" lon="-2.0267550">
        <ele>313.4</ele>
        <time>2022-08-12T06:56:00Z</time>
      </trkpt>
      <trkpt lat="42.3618030" lon="-2.0271250">
        <ele>313.8</ele>
        <time>2022-08-12T06:56:09Z</time>
      </trkpt>
      <trkpt lat="42.3619480" lon="-2.0273870">
        <ele>314.2</ele>
        <time>2022-08-12T06:56:16Z</time>
      </trkpt>
      <trkpt lat="42.3620270" lon="-2.0275330">
        <ele>313.6</ele>
        <time>2022-08-12T06:56:21Z</time>
      </trkpt>
      <trkpt lat="42.3620140" lon="-2.0276980">
        <ele>312.2</ele>
        <time>2022-08-12T06:56:26Z</time>
      </trkpt>
      <trkpt lat="42.3619410" lon="-2.0278230">
        <ele>311.8</ele>
        <time>2022-08-12T06:56:30Z</time>
      </trkpt>
      <trkpt lat="42.3618890" lon="-2.0279000">
        <ele>311.8</ele>
        <time>2022-08-12T06:56:32Z</time>
      </trkpt>
      <trkpt lat="42.3618600" lon="-2.0279400">
        <ele>311.8</ele>
        <time>2022-08-12T06:56:33Z</time>
      </trkpt>
      <trkpt lat="42.3616040" lon="-2.0282400">
        <ele>312.2</ele>
        <time>2022-08-12T06:56:41Z</time>
      </trkpt>
      <trkpt lat="42.3613150" lon="-2.0285340">
        <ele>312.4</ele>
        <time>2022-08-12T06:56:49Z</time>
      </trkpt>
      <trkpt lat="42.3612750" lon="-2.0285780">
        <ele>312.6</ele>
        <time>2022-08-12T06:56:50Z</time>
      </trkpt>
      <trkpt lat="42.3611740" lon="-2.0287370">
        <ele>312.6</ele>
        <time>2022-08-12T06:56:53Z</time>
      </trkpt>
      <trkpt lat="42.3609560" lon="-2.0291500">
        <ele>312.6</ele>
        <time>2022-08-12T06:57:01Z</time>
      </trkpt>
      <trkpt lat="42.3607260" lon="-2.0295830">
        <ele>313.2</ele>
        <time>2022-08-12T06:57:09Z</time>
      </trkpt>
      <trkpt lat="42.3606590" lon="-2.0296940">
        <ele>313.2</ele>
        <time>2022-08-12T06:57:11Z</time>
      </trkpt>
      <trkpt lat="42.3605950" lon="-2.0297880">
        <ele>313.2</ele>
        <time>2022-08-12T06:57:13Z</time>
      </trkpt>
      <trkpt lat="42.3605600" lon="-2.0298300">
        <ele>313.2</ele>
        <time>2022-08-12T06:57:14Z</time>
      </trkpt>
      <trkpt lat="42.3605280" lon="-2.0298610">
        <ele>313.2</ele>
        <time>2022-08-12T06:57:15Z</time>
      </trkpt>
      <trkpt lat="42.3604420" lon="-2.0299320">
        <ele>313.4</ele>
        <time>2022-08-12T06:57:17Z</time>
      </trkpt>
      <trkpt lat="42.3602190" lon="-2.0301220">
        <ele>313.8</ele>
        <time>2022-08-12T06:57:23Z</time>
      </trkpt>
      <trkpt lat="42.3601470" lon="-2.0302170">
        <ele>313.8</ele>
        <time>2022-08-12T06:57:25Z</time>
      </trkpt>
      <trkpt lat="42.3600550" lon="-2.0303830">
        <ele>313.8</ele>
        <time>2022-08-12T06:57:28Z</time>
      </trkpt>
      <trkpt lat="42.3599350" lon="-2.0306360">
        <ele>314.0</ele>
        <time>2022-08-12T06:57:33Z</time>
      </trkpt>
      <trkpt lat="42.3598650" lon="-2.0307820">
        <ele>314.4</ele>
        <time>2022-08-12T06:57:36Z</time>
      </trkpt>
      <trkpt lat="42.3597800" lon="-2.0309670">
        <ele>314.8</ele>
        <time>2022-08-12T06:57:40Z</time>
      </trkpt>
      <trkpt lat="42.3596930" lon="-2.0311400">
        <ele>315.6</ele>
        <time>2022-08-12T06:57:44Z</time>
      </trkpt>
      <trkpt lat="42.3595570" lon="-2.0314070">
        <ele>316.6</ele>
        <time>2022-08-12T06:57:50Z</time>
      </trkpt>
      <trkpt lat="42.3595320" lon="-2.0314610">
        <ele>316.8</ele>
        <time>2022-08-12T06:57:51Z</time>
      </trkpt>
      <trkpt lat="42.3594490" lon="-2.0316460">
        <ele>317.2</ele>
        <time>2022-08-12T06:57:55Z</time>
      </trkpt>
      <trkpt lat="42.3593920" lon="-2.0317870">
        <ele>317.8</ele>
        <time>2022-08-12T06:57:58Z</time>
      </trkpt>
      <trkpt lat="42.3592950" lon="-2.0320180">
        <ele>318.0</ele>
        <time>2022-08-12T06:58:03Z</time>
      </trkpt>
      <trkpt lat="42.3591400" lon="-2.0323840">
        <ele>318.8</ele>
        <time>2022-08-12T06:58:11Z</time>
      </trkpt>
      <trkpt lat="42.3591250" lon="-2.0324190">
        <ele>318.8</ele>
        <time>2022-08-12T06:58:12Z</time>
      </trkpt>
      <trkpt lat="42.3590020" lon="-2.0327060">
        <ele>319.8</ele>
        <time>2022-08-12T06:58:19Z</time>
      </trkpt>
      <trkpt lat="42.3589900" lon="-2.0327430">
        <ele>320.0</ele>
        <time>2022-08-12T06:58:20Z</time>
      </trkpt>
      <trkpt lat="42.3589670" lon="-2.0328280">
        <ele>320.8</ele>
        <time>2022-08-12T06:58:23Z</time>
      </trkpt>
      <trkpt lat="42.3589620" lon="-2.0328570">
        <ele>321.0</ele>
        <time>2022-08-12T06:58:24Z</time>
      </trkpt>
      <trkpt lat="42.3589520" lon="-2.0328960">
        <ele>321.0</ele>
        <time>2022-08-12T06:58:25Z</time>
      </trkpt>
      <trkpt lat="42.3588850" lon="-2.0331300">
        <ele>322.0</ele>
        <time>2022-08-12T06:58:31Z</time>
      </trkpt>
      <trkpt lat="42.3588580" lon="-2.0333860">
        <ele>323.2</ele>
        <time>2022-08-12T06:58:37Z</time>
      </trkpt>
      <trkpt lat="42.3588260" lon="-2.0335940">
        <ele>324.2</ele>
        <time>2022-08-12T06:58:42Z</time>
      </trkpt>
      <trkpt lat="42.3588090" lon="-2.0336760">
        <ele>324.6</ele>
        <time>2022-08-12T06:58:44Z</time>
      </trkpt>
      <trkpt lat="42.3587520" lon="-2.0339440">
        <ele>325.4</ele>
        <time>2022-08-12T06:58:50Z</time>
      </trkpt>
      <trkpt lat="42.3587380" lon="-2.0339880">
        <ele>325.6</ele>
        <time>2022-08-12T06:58:51Z</time>
      </trkpt>
      <trkpt lat="42.3586040" lon="-2.0344160">
        <ele>326.2</ele>
        <time>2022-08-12T06:59:00Z</time>
      </trkpt>
      <trkpt lat="42.3584690" lon="-2.0347700">
        <ele>326.2</ele>
        <time>2022-08-12T06:59:07Z</time>
      </trkpt>
      <trkpt lat="42.3584290" lon="-2.0348710">
        <ele>326.2</ele>
        <time>2022-08-12T06:59:09Z</time>
      </trkpt>
      <trkpt lat="42.3583130" lon="-2.0351630">
        <ele>326.2</ele>
        <time>2022-08-12T06:59:15Z</time>
      </trkpt>
      <trkpt lat="42.3582250" lon="-2.0353640">
        <ele>326.2</ele>
        <time>2022-08-12T06:59:19Z</time>
      </trkpt>
      <trkpt lat="42.3580570" lon="-2.0357880">
        <ele>326.2</ele>
        <time>2022-08-12T06:59:27Z</time>
      </trkpt>
      <trkpt lat="42.3579970" lon="-2.0359480">
        <ele>326.2</ele>
        <time>2022-08-12T06:59:30Z</time>
      </trkpt>
      <trkpt lat="42.3578750" lon="-2.0362770">
        <ele>326.2</ele>
        <time>2022-08-12T06:59:36Z</time>
      </trkpt>
      <trkpt lat="42.3578520" lon="-2.0363310">
        <ele>326.2</ele>
        <time>2022-08-12T06:59:37Z</time>
      </trkpt>
      <trkpt lat="42.3576100" lon="-2.0368480">
        <ele>326.4</ele>
        <time>2022-08-12T06:59:47Z</time>
      </trkpt>
      <trkpt lat="42.3574510" lon="-2.0370990">
        <ele>326.4</ele>
        <time>2022-08-12T06:59:52Z</time>
      </trkpt>
      <trkpt lat="42.3573520" lon="-2.0372200">
        <ele>326.2</ele>
        <time>2022-08-12T06:59:55Z</time>
      </trkpt>
      <trkpt lat="42.3569730" lon="-2.0376220">
        <ele>326.2</ele>
        <time>2022-08-12T07:00:05Z</time>
      </trkpt>
      <trkpt lat="42.3567410" lon="-2.0378540">
        <ele>326.4</ele>
        <time>2022-08-12T07:00:11Z</time>
      </trkpt>
      <trkpt lat="42.3566690" lon="-2.0379180">
        <ele>326.4</ele>
        <time>2022-08-12T07:00:13Z</time>
      </trkpt>
      <trkpt lat="42.3565480" lon="-2.0380200">
        <ele>326.4</ele>
        <time>2022-08-12T07:00:16Z</time>
      </trkpt>
      <trkpt lat="42.3560470" lon="-2.0383540">
        <ele>326.0</ele>
        <time>2022-08-12T07:00:27Z</time>
      </trkpt>
      <trkpt lat="42.3557450" lon="-2.0385150">
        <ele>326.0</ele>
        <time>2022-08-12T07:00:34Z</time>
      </trkpt>
      <trkpt lat="42.3556470" lon="-2.0385630">
        <ele>326.0</ele>
        <time>2022-08-12T07:00:36Z</time>
      </trkpt>
      <trkpt lat="42.3554750" lon="-2.0386480">
        <ele>326.4</ele>
        <time>2022-08-12T07:00:40Z</time>
      </trkpt>
      <trkpt lat="42.3553890" lon="-2.0386980">
        <ele>326.2</ele>
        <time>2022-08-12T07:00:42Z</time>
      </trkpt>
      <trkpt lat="42.3552570" lon="-2.0387810">
        <ele>326.2</ele>
        <time>2022-08-12T07:00:45Z</time>
      </trkpt>
      <trkpt lat="42.3547930" lon="-2.0390780">
        <ele>326.8</ele>
        <time>2022-08-12T07:00:56Z</time>
      </trkpt>
      <trkpt lat="42.3545100" lon="-2.0392490">
        <ele>326.8</ele>
        <time>2022-08-12T07:01:03Z</time>
      </trkpt>
      <trkpt lat="42.3544420" lon="-2.0392850">
        <ele>326.8</ele>
        <time>2022-08-12T07:01:05Z</time>
      </trkpt>
      <trkpt lat="42.3543820" lon="-2.0393250">
        <ele>326.6</ele>
        <time>2022-08-12T07:01:07Z</time>
      </trkpt>
      <trkpt lat="42.3543450" lon="-2.0393560">
        <ele>326.4</ele>
        <time>2022-08-12T07:01:09Z</time>
      </trkpt>
      <trkpt lat="42.3542780" lon="-2.0393930">
        <ele>326.6</ele>
        <time>2022-08-12T07:01:13Z</time>
      </trkpt>
      <trkpt lat="42.3542120" lon="-2.0394400">
        <ele>326.6</ele>
        <time>2022-08-12T07:01:16Z</time>
      </trkpt>
      <trkpt lat="42.3541010" lon="-2.0395550">
        <ele>326.4</ele>
        <time>2022-08-12T07:01:21Z</time>
      </trkpt>
      <trkpt lat="42.3540690" lon="-2.0395870">
        <ele>326.4</ele>
        <time>2022-08-12T07:01:23Z</time>
      </trkpt>
      <trkpt lat="42.3539670" lon="-2.0396850">
        <ele>326.2</ele>
        <time>2022-08-12T07:01:30Z</time>
      </trkpt>
      <trkpt lat="42.3539530" lon="-2.0397100">
        <ele>326.2</ele>
        <time>2022-08-12T07:01:32Z</time>
      </trkpt>
      <trkpt lat="42.3539520" lon="-2.0397140">
        <ele>326.2</ele>
        <time>2022-08-12T07:01:33Z</time>
      </trkpt>
      <trkpt lat="42.3539360" lon="-2.0397230">
        <ele>326.4</ele>
        <time>2022-08-12T07:02:04Z</time>
      </trkpt>
      <trkpt lat="42.3538570" lon="-2.0397730">
        <ele>326.4</ele>
        <time>2022-08-12T07:02:08Z</time>
      </trkpt>
      <trkpt lat="42.3537600" lon="-2.0398200">
        <ele>326.4</ele>
        <time>2022-08-12T07:02:11Z</time>
      </trkpt>
      <trkpt lat="42.3536890" lon="-2.0398600">
        <ele>326.4</ele>
        <time>2022-08-12T07:02:13Z</time>
      </trkpt>
      <trkpt lat="42.3535840" lon="-2.0399220">
        <ele>326.6</ele>
        <time>2022-08-12T07:02:16Z</time>
      </trkpt>
      <trkpt lat="42.3534390" lon="-2.0400100">
        <ele>326.8</ele>
        <time>2022-08-12T07:02:20Z</time>
      </trkpt>
      <trkpt lat="42.3532620" lon="-2.0401290">
        <ele>326.8</ele>
        <time>2022-08-12T07:02:25Z</time>
      </trkpt>
      <trkpt lat="42.3531670" lon="-2.0401840">
        <ele>326.8</ele>
        <time>2022-08-12T07:02:28Z</time>
      </trkpt>
      <trkpt lat="42.3528860" lon="-2.0403360">
        <ele>327.0</ele>
        <time>2022-08-12T07:02:36Z</time>
      </trkpt>
      <trkpt lat="42.3526450" lon="-2.0404800">
        <ele>327.4</ele>
        <time>2022-08-12T07:02:43Z</time>
      </trkpt>
      <trkpt lat="42.3522650" lon="-2.0406520">
        <ele>327.6</ele>
        <time>2022-08-12T07:02:53Z</time>
      </trkpt>
      <trkpt lat="42.3520750" lon="-2.0407500">
        <ele>327.6</ele>
        <time>2022-08-12T07:02:59Z</time>
      </trkpt>
      <trkpt lat="42.3520600" lon="-2.0408120">
        <ele>327.8</ele>
        <time>2022-08-12T07:03:01Z</time>
      </trkpt>
      <trkpt lat="42.3520660" lon="-2.0408440">
        <ele>327.8</ele>
        <time>2022-08-12T07:03:02Z</time>
      </trkpt>
      <trkpt lat="42.3521210" lon="-2.0409410">
        <ele>327.8</ele>
        <time>2022-08-12T07:03:05Z</time>
      </trkpt>
      <trkpt lat="42.3521910" lon="-2.0410440">
        <ele>328.0</ele>
        <time>2022-08-12T07:03:08Z</time>
      </trkpt>
      <trkpt lat="42.3522690" lon="-2.0411540">
        <ele>328.0</ele>
        <time>2022-08-12T07:03:11Z</time>
      </trkpt>
      <trkpt lat="42.3524320" lon="-2.0414060">
        <ele>328.2</ele>
        <time>2022-08-12T07:03:17Z</time>
      </trkpt>
      <trkpt lat="42.3525740" lon="-2.0416770">
        <ele>328.2</ele>
        <time>2022-08-12T07:03:23Z</time>
      </trkpt>
      <trkpt lat="42.3525980" lon="-2.0417240">
        <ele>328.2</ele>
        <time>2022-08-12T07:03:24Z</time>
      </trkpt>
      <trkpt lat="42.3528040" lon="-2.0421050">
        <ele>328.0</ele>
        <time>2022-08-12T07:03:32Z</time>
      </trkpt>
      <trkpt lat="42.3528800" lon="-2.0422440">
        <ele>328.2</ele>
        <time>2022-08-12T07:03:35Z</time>
      </trkpt>
      <trkpt lat="42.3530530" lon="-2.0425800">
        <ele>328.0</ele>
        <time>2022-08-12T07:03:42Z</time>
      </trkpt>
      <trkpt lat="42.3531560" lon="-2.0427710">
        <ele>328.2</ele>
        <time>2022-08-12T07:03:46Z</time>
      </trkpt>
      <trkpt lat="42.3532580" lon="-2.0429550">
        <ele>328.6</ele>
        <time>2022-08-12T07:03:50Z</time>
      </trkpt>
      <trkpt lat="42.3533920" lon="-2.0432020">
        <ele>328.6</ele>
        <time>2022-08-12T07:03:55Z</time>
      </trkpt>
      <trkpt lat="42.3534700" lon="-2.0433440">
        <ele>328.6</ele>
        <time>2022-08-12T07:03:58Z</time>
      </trkpt>
      <trkpt lat="42.3536270" lon="-2.0436300">
        <ele>328.6</ele>
        <time>2022-08-12T07:04:04Z</time>
      </trkpt>
      <trkpt lat="42.3537040" lon="-2.0437740">
        <ele>328.6</ele>
        <time>2022-08-12T07:04:07Z</time>
      </trkpt>
      <trkpt lat="42.3539110" lon="-2.0441590">
        <ele>329.0</ele>
        <time>2022-08-12T07:04:15Z</time>
      </trkpt>
      <trkpt lat="42.3540920" lon="-2.0446210">
        <ele>329.2</ele>
        <time>2022-08-12T07:04:24Z</time>
      </trkpt>
      <trkpt lat="42.3540940" lon="-2.0446640">
        <ele>329.2</ele>
        <time>2022-08-12T07:04:25Z</time>
      </trkpt>
      <trkpt lat="42.3540880" lon="-2.0447860">
        <ele>329.2</ele>
        <time>2022-08-12T07:04:27Z</time>
      </trkpt>
      <trkpt lat="42.3540660" lon="-2.0448840">
        <ele>329.2</ele>
        <time>2022-08-12T07:04:29Z</time>
      </trkpt>
      <trkpt lat="42.3539570" lon="-2.0454660">
        <ele>329.4</ele>
        <time>2022-08-12T07:04:39Z</time>
      </trkpt>
      <trkpt lat="42.3538540" lon="-2.0459930">
        <ele>329.8</ele>
        <time>2022-08-12T07:04:48Z</time>
      </trkpt>
      <trkpt lat="42.3537860" lon="-2.0462750">
        <ele>330.0</ele>
        <time>2022-08-12T07:04:53Z</time>
      </trkpt>
      <trkpt lat="42.3537680" lon="-2.0463920">
        <ele>330.2</ele>
        <time>2022-08-12T07:04:55Z</time>
      </trkpt>
      <trkpt lat="42.3537670" lon="-2.0465120">
        <ele>330.2</ele>
        <time>2022-08-12T07:04:57Z</time>
      </trkpt>
      <trkpt lat="42.3537790" lon="-2.0469910">
        <ele>330.4</ele>
        <time>2022-08-12T07:05:05Z</time>
      </trkpt>
      <trkpt lat="42.3537720" lon="-2.0471610">
        <ele>330.2</ele>
        <time>2022-08-12T07:05:08Z</time>
      </trkpt>
      <trkpt lat="42.3537960" lon="-2.0472680">
        <ele>330.2</ele>
        <time>2022-08-12T07:05:10Z</time>
      </trkpt>
      <trkpt lat="42.3538150" lon="-2.0473170">
        <ele>330.0</ele>
        <time>2022-08-12T07:05:11Z</time>
      </trkpt>
      <trkpt lat="42.3538390" lon="-2.0473630">
        <ele>330.0</ele>
        <time>2022-08-12T07:05:12Z</time>
      </trkpt>
      <trkpt lat="42.3538980" lon="-2.0474430">
        <ele>329.8</ele>
        <time>2022-08-12T07:05:14Z</time>
      </trkpt>
      <trkpt lat="42.3539760" lon="-2.0475070">
        <ele>330.0</ele>
        <time>2022-08-12T07:05:16Z</time>
      </trkpt>
      <trkpt lat="42.3541050" lon="-2.0475740">
        <ele>330.0</ele>
        <time>2022-08-12T07:05:19Z</time>
      </trkpt>
      <trkpt lat="42.3542890" lon="-2.0476370">
        <ele>330.0</ele>
        <time>2022-08-12T07:05:23Z</time>
      </trkpt>
      <trkpt lat="42.3545640" lon="-2.0477540">
        <ele>329.8</ele>
        <time>2022-08-12T07:05:29Z</time>
      </trkpt>
      <trkpt lat="42.3547810" lon="-2.0478490">
        <ele>329.4</ele>
        <time>2022-08-12T07:05:34Z</time>
      </trkpt>
      <trkpt lat="42.3551750" lon="-2.0480430">
        <ele>329.4</ele>
        <time>2022-08-12T07:05:43Z</time>
      </trkpt>
      <trkpt lat="42.3552160" lon="-2.0480700">
        <ele>329.4</ele>
        <time>2022-08-12T07:05:44Z</time>
      </trkpt>
      <trkpt lat="42.3552860" lon="-2.0481310">
        <ele>329.4</ele>
        <time>2022-08-12T07:05:46Z</time>
      </trkpt>
      <trkpt lat="42.3553590" lon="-2.0482270">
        <ele>329.4</ele>
        <time>2022-08-12T07:05:48Z</time>
      </trkpt>
      <trkpt lat="42.3554960" lon="-2.0485470">
        <ele>329.4</ele>
        <time>2022-08-12T07:05:54Z</time>
      </trkpt>
      <trkpt lat="42.3555650" lon="-2.0487630">
        <ele>329.4</ele>
        <time>2022-08-12T07:05:58Z</time>
      </trkpt>
      <trkpt lat="42.3556480" lon="-2.0490350">
        <ele>329.6</ele>
        <time>2022-08-12T07:06:03Z</time>
      </trkpt>
      <trkpt lat="42.3557260" lon="-2.0492570">
        <ele>329.6</ele>
        <time>2022-08-12T07:06:07Z</time>
      </trkpt>
      <trkpt lat="42.3558270" lon="-2.0495310">
        <ele>329.6</ele>
        <time>2022-08-12T07:06:12Z</time>
      </trkpt>
      <trkpt lat="42.3558690" lon="-2.0496330">
        <ele>329.6</ele>
        <time>2022-08-12T07:06:14Z</time>
      </trkpt>
      <trkpt lat="42.3559830" lon="-2.0498010">
        <ele>329.6</ele>
        <time>2022-08-12T07:06:18Z</time>
      </trkpt>
      <trkpt lat="42.3560830" lon="-2.0499220">
        <ele>329.2</ele>
        <time>2022-08-12T07:06:21Z</time>
      </trkpt>
      <trkpt lat="42.3561550" lon="-2.0500480">
        <ele>328.8</ele>
        <time>2022-08-12T07:06:23Z</time>
      </trkpt>
      <trkpt lat="42.3561800" lon="-2.0501170">
        <ele>328.6</ele>
        <time>2022-08-12T07:06:24Z</time>
      </trkpt>
      <trkpt lat="42.3562000" lon="-2.0501870">
        <ele>328.0</ele>
        <time>2022-08-12T07:06:25Z</time>
      </trkpt>
      <trkpt lat="42.3562210" lon="-2.0503320">
        <ele>327.4</ele>
        <time>2022-08-12T07:06:27Z</time>
      </trkpt>
      <trkpt lat="42.3562240" lon="-2.0504650">
        <ele>326.8</ele>
        <time>2022-08-12T07:06:29Z</time>
      </trkpt>
      <trkpt lat="42.3562160" lon="-2.0506830">
        <ele>326.2</ele>
        <time>2022-08-12T07:06:32Z</time>
      </trkpt>
      <trkpt lat="42.3562120" lon="-2.0508700">
        <ele>326.0</ele>
        <time>2022-08-12T07:06:35Z</time>
      </trkpt>
      <trkpt lat="42.3562170" lon="-2.0509460">
        <ele>326.0</ele>
        <time>2022-08-12T07:06:36Z</time>
      </trkpt>
      <trkpt lat="42.3562630" lon="-2.0514540">
        <ele>325.8</ele>
        <time>2022-08-12T07:06:44Z</time>
      </trkpt>
      <trkpt lat="42.3562530" lon="-2.0518440">
        <ele>325.6</ele>
        <time>2022-08-12T07:06:50Z</time>
      </trkpt>
      <trkpt lat="42.3562590" lon="-2.0520270">
        <ele>325.4</ele>
        <time>2022-08-12T07:06:53Z</time>
      </trkpt>
      <trkpt lat="42.3562800" lon="-2.0521350">
        <ele>325.2</ele>
        <time>2022-08-12T07:06:55Z</time>
      </trkpt>
      <trkpt lat="42.3563300" lon="-2.0522730">
        <ele>323.6</ele>
        <time>2022-08-12T07:06:58Z</time>
      </trkpt>
      <trkpt lat="42.3563710" lon="-2.0523370">
        <ele>322.6</ele>
        <time>2022-08-12T07:07:00Z</time>
      </trkpt>
      <trkpt lat="42.3564180" lon="-2.0523850">
        <ele>322.0</ele>
        <time>2022-08-12T07:07:03Z</time>
      </trkpt>
      <trkpt lat="42.3564400" lon="-2.0523990">
        <ele>321.6</ele>
        <time>2022-08-12T07:07:05Z</time>
      </trkpt>
      <trkpt lat="42.3564680" lon="-2.0524010">
        <ele>320.4</ele>
        <time>2022-08-12T07:07:34Z</time>
      </trkpt>
      <trkpt lat="42.3565210" lon="-2.0524050">
        <ele>320.4</ele>
        <time>2022-08-12T07:07:36Z</time>
      </trkpt>
      <trkpt lat="42.3565840" lon="-2.0524030">
        <ele>320.4</ele>
        <time>2022-08-12T07:07:38Z</time>
      </trkpt>
      <trkpt lat="42.3566580" lon="-2.0524140">
        <ele>320.4</ele>
        <time>2022-08-12T07:07:40Z</time>
      </trkpt>
      <trkpt lat="42.3567280" lon="-2.0524430">
        <ele>320.4</ele>
        <time>2022-08-12T07:07:42Z</time>
      </trkpt>
      <trkpt lat="42.3568640" lon="-2.0525640">
        <ele>320.8</ele>
        <time>2022-08-12T07:07:48Z</time>
      </trkpt>
      <trkpt lat="42.3569180" lon="-2.0526210">
        <ele>321.4</ele>
        <time>2022-08-12T07:07:51Z</time>
      </trkpt>
      <trkpt lat="42.3569510" lon="-2.0526580">
        <ele>321.8</ele>
        <time>2022-08-12T07:07:53Z</time>
      </trkpt>
      <trkpt lat="42.3569810" lon="-2.0526940">
        <ele>322.2</ele>
        <time>2022-08-12T07:07:55Z</time>
      </trkpt>
      <trkpt lat="42.3569990" lon="-2.0527160">
        <ele>322.2</ele>
        <time>2022-08-12T07:07:56Z</time>
      </trkpt>
      <trkpt lat="42.3570110" lon="-2.0527320">
        <ele>322.4</ele>
        <time>2022-08-12T07:07:57Z</time>
      </trkpt>
      <trkpt lat="42.3570570" lon="-2.0527900">
        <ele>322.6</ele>
        <time>2022-08-12T07:08:00Z</time>
      </trkpt>
      <trkpt lat="42.3571130" lon="-2.0528620">
        <ele>323.2</ele>
        <time>2022-08-12T07:08:03Z</time>
      </trkpt>
      <trkpt lat="42.3571440" lon="-2.0529040">
        <ele>323.6</ele>
        <time>2022-08-12T07:08:05Z</time>
      </trkpt>
      <trkpt lat="42.3571570" lon="-2.0529210">
        <ele>323.8</ele>
        <time>2022-08-12T07:08:06Z</time>
      </trkpt>
      <trkpt lat="42.3572060" lon="-2.0529900">
        <ele>324.2</ele>
        <time>2022-08-12T07:08:09Z</time>
      </trkpt>
      <trkpt lat="42.3572360" lon="-2.0530360">
        <ele>324.6</ele>
        <time>2022-08-12T07:08:11Z</time>
      </trkpt>
      <trkpt lat="42.3573030" lon="-2.0531530">
        <ele>325.6</ele>
        <time>2022-08-12T07:08:16Z</time>
      </trkpt>
      <trkpt lat="42.3573130" lon="-2.0531780">
        <ele>325.8</ele>
        <time>2022-08-12T07:08:17Z</time>
      </trkpt>
      <trkpt lat="42.3573220" lon="-2.0532030">
        <ele>326.0</ele>
        <time>2022-08-12T07:08:18Z</time>
      </trkpt>
      <trkpt lat="42.3573760" lon="-2.0533440">
        <ele>326.6</ele>
        <time>2022-08-12T07:08:23Z</time>
      </trkpt>
      <trkpt lat="42.3573840" lon="-2.0533730">
        <ele>326.6</ele>
        <time>2022-08-12T07:08:24Z</time>
      </trkpt>
      <trkpt lat="42.3574020" lon="-2.0534340">
        <ele>327.0</ele>
        <time>2022-08-12T07:08:26Z</time>
      </trkpt>
      <trkpt lat="42.3574260" lon="-2.0535980">
        <ele>328.0</ele>
        <time>2022-08-12T07:08:31Z</time>
      </trkpt>
      <trkpt lat="42.3574320" lon="-2.0536710">
        <ele>328.4</ele>
        <time>2022-08-12T07:08:33Z</time>
      </trkpt>
      <trkpt lat="42.3574350" lon="-2.0538580">
        <ele>329.2</ele>
        <time>2022-08-12T07:08:38Z</time>
      </trkpt>
      <trkpt lat="42.3574400" lon="-2.0540180">
        <ele>330.0</ele>
        <time>2022-08-12T07:08:42Z</time>
      </trkpt>
      <trkpt lat="42.3574470" lon="-2.0541320">
        <ele>330.4</ele>
        <time>2022-08-12T07:08:45Z</time>
      </trkpt>
      <trkpt lat="42.3574720" lon="-2.0543480">
        <ele>330.4</ele>
        <time>2022-08-12T07:08:50Z</time>
      </trkpt>
      <trkpt lat="42.3575360" lon="-2.0547480">
        <ele>330.8</ele>
        <time>2022-08-12T07:08:59Z</time>
      </trkpt>
      <trkpt lat="42.3575790" lon="-2.0548940">
        <ele>330.6</ele>
        <time>2022-08-12T07:09:02Z</time>
      </trkpt>
      <trkpt lat="42.3576480" lon="-2.0550580">
        <ele>330.6</ele>
        <time>2022-08-12T07:09:06Z</time>
      </trkpt>
      <trkpt lat="42.3577030" lon="-2.0552050">
        <ele>330.4</ele>
        <time>2022-08-12T07:09:09Z</time>
      </trkpt>
      <trkpt lat="42.3577730" lon="-2.0553800">
        <ele>330.4</ele>
        <time>2022-08-12T07:09:13Z</time>
      </trkpt>
      <trkpt lat="42.3578110" lon="-2.0554650">
        <ele>330.4</ele>
        <time>2022-08-12T07:09:15Z</time>
      </trkpt>
      <trkpt lat="42.3579160" lon="-2.0557260">
        <ele>330.6</ele>
        <time>2022-08-12T07:09:21Z</time>
      </trkpt>
      <trkpt lat="42.3580110" lon="-2.0559370">
        <ele>330.8</ele>
        <time>2022-08-12T07:09:26Z</time>
      </trkpt>
      <trkpt lat="42.3580850" lon="-2.0561040">
        <ele>331.2</ele>
        <time>2022-08-12T07:09:30Z</time>
      </trkpt>
      <trkpt lat="42.3582270" lon="-2.0564430">
        <ele>331.6</ele>
        <time>2022-08-12T07:09:38Z</time>
      </trkpt>
      <trkpt lat="42.3583580" lon="-2.0567520">
        <ele>332.4</ele>
        <time>2022-08-12T07:09:45Z</time>
      </trkpt>
      <trkpt lat="42.3584070" lon="-2.0568780">
        <ele>332.6</ele>
        <time>2022-08-12T07:09:48Z</time>
      </trkpt>
      <trkpt lat="42.3585480" lon="-2.0572230">
        <ele>333.2</ele>
        <time>2022-08-12T07:09:56Z</time>
      </trkpt>
      <trkpt lat="42.3586280" lon="-2.0574480">
        <ele>333.4</ele>
        <time>2022-08-12T07:10:01Z</time>
      </trkpt>
      <trkpt lat="42.3586770" lon="-2.0575890">
        <ele>333.2</ele>
        <time>2022-08-12T07:10:04Z</time>
      </trkpt>
      <trkpt lat="42.3587140" lon="-2.0576780">
        <ele>333.4</ele>
        <time>2022-08-12T07:10:06Z</time>
      </trkpt>
      <trkpt lat="42.3589240" lon="-2.0581230">
        <ele>333.4</ele>
        <time>2022-08-12T07:10:16Z</time>
      </trkpt>
      <trkpt lat="42.3591540" lon="-2.0584860">
        <ele>333.6</ele>
        <time>2022-08-12T07:10:25Z</time>
      </trkpt>
      <trkpt lat="42.3592320" lon="-2.0586030">
        <ele>333.4</ele>
        <time>2022-08-12T07:10:28Z</time>
      </trkpt>
      <trkpt lat="42.3593880" lon="-2.0588180">
        <ele>334.0</ele>
        <time>2022-08-12T07:10:34Z</time>
      </trkpt>
      <trkpt lat="42.3596250" lon="-2.0591760">
        <ele>334.4</ele>
        <time>2022-08-12T07:10:43Z</time>
      </trkpt>
      <trkpt lat="42.3598000" lon="-2.0594620">
        <ele>334.2</ele>
        <time>2022-08-12T07:10:50Z</time>
      </trkpt>
      <trkpt lat="42.3598770" lon="-2.0595720">
        <ele>334.2</ele>
        <time>2022-08-12T07:10:53Z</time>
      </trkpt>
      <trkpt lat="42.3600720" lon="-2.0597820">
        <ele>334.0</ele>
        <time>2022-08-12T07:10:59Z</time>
      </trkpt>
      <trkpt lat="42.3601600" lon="-2.0598350">
        <ele>333.8</ele>
        <time>2022-08-12T07:11:01Z</time>
      </trkpt>
      <trkpt lat="42.3602850" lon="-2.0598620">
        <ele>333.4</ele>
        <time>2022-08-12T07:11:04Z</time>
      </trkpt>
      <trkpt lat="42.3603440" lon="-2.0598610">
        <ele>333.2</ele>
        <time>2022-08-12T07:11:05Z</time>
      </trkpt>
      <trkpt lat="42.3603930" lon="-2.0598500">
        <ele>332.8</ele>
        <time>2022-08-12T07:11:06Z</time>
      </trkpt>
      <trkpt lat="42.3604870" lon="-2.0598120">
        <ele>332.2</ele>
        <time>2022-08-12T07:11:08Z</time>
      </trkpt>
      <trkpt lat="42.3605320" lon="-2.0597870">
        <ele>332.2</ele>
        <time>2022-08-12T07:11:09Z</time>
      </trkpt>
      <trkpt lat="42.3607630" lon="-2.0596130">
        <ele>331.0</ele>
        <time>2022-08-12T07:11:14Z</time>
      </trkpt>
      <trkpt lat="42.3608610" lon="-2.0595410">
        <ele>329.6</ele>
        <time>2022-08-12T07:11:16Z</time>
      </trkpt>
      <trkpt lat="42.3609090" lon="-2.0595040">
        <ele>329.2</ele>
        <time>2022-08-12T07:11:17Z</time>
      </trkpt>
      <trkpt lat="42.3611130" lon="-2.0593560">
        <ele>328.4</ele>
        <time>2022-08-12T07:11:21Z</time>
      </trkpt>
      <trkpt lat="42.3612500" lon="-2.0592580">
        <ele>327.0</ele>
        <time>2022-08-12T07:11:24Z</time>
      </trkpt>
      <trkpt lat="42.3612780" lon="-2.0592390">
        <ele>327.0</ele>
        <time>2022-08-12T07:11:25Z</time>
      </trkpt>
      <trkpt lat="42.3613220" lon="-2.0592260">
        <ele>325.8</ele>
        <time>2022-08-12T07:11:28Z</time>
      </trkpt>
      <trkpt lat="42.3613560" lon="-2.0592500">
        <ele>324.8</ele>
        <time>2022-08-12T07:11:31Z</time>
      </trkpt>
      <trkpt lat="42.3613640" lon="-2.0592800">
        <ele>324.6</ele>
        <time>2022-08-12T07:11:33Z</time>
      </trkpt>
      <trkpt lat="42.3614010" lon="-2.0593940">
        <ele>324.6</ele>
        <time>2022-08-12T07:11:37Z</time>
      </trkpt>
      <trkpt lat="42.3614240" lon="-2.0594180">
        <ele>324.6</ele>
        <time>2022-08-12T07:11:38Z</time>
      </trkpt>
      <trkpt lat="42.3614720" lon="-2.0594600">
        <ele>324.6</ele>
        <time>2022-08-12T07:11:40Z</time>
      </trkpt>
      <trkpt lat="42.3615160" lon="-2.0594930">
        <ele>324.6</ele>
        <time>2022-08-12T07:11:42Z</time>
      </trkpt>
      <trkpt lat="42.3615460" lon="-2.0595170">
        <ele>325.2</ele>
        <time>2022-08-12T07:11:44Z</time>
      </trkpt>
      <trkpt lat="42.3615560" lon="-2.0595270">
        <ele>325.6</ele>
        <time>2022-08-12T07:11:45Z</time>
      </trkpt>
      <trkpt lat="42.3615870" lon="-2.0595490">
        <ele>325.8</ele>
        <time>2022-08-12T07:11:47Z</time>
      </trkpt>
      <trkpt lat="42.3616600" lon="-2.0595950">
        <ele>326.4</ele>
        <time>2022-08-12T07:11:51Z</time>
      </trkpt>
      <trkpt lat="42.3616650" lon="-2.0595950">
        <ele>326.6</ele>
        <time>2022-08-12T07:11:52Z</time>
      </trkpt>
      <trkpt lat="42.3616620" lon="-2.0595960">
        <ele>327.8</ele>
        <time>2022-08-12T07:12:17Z</time>
      </trkpt>
      <trkpt lat="42.3616430" lon="-2.0595890">
        <ele>327.6</ele>
        <time>2022-08-12T07:12:18Z</time>
      </trkpt>
      <trkpt lat="42.3616230" lon="-2.0595760">
        <ele>327.6</ele>
        <time>2022-08-12T07:12:19Z</time>
      </trkpt>
      <trkpt lat="42.3615160" lon="-2.0595040">
        <ele>327.4</ele>
        <time>2022-08-12T07:12:23Z</time>
      </trkpt>
      <trkpt lat="42.3614850" lon="-2.0594800">
        <ele>327.2</ele>
        <time>2022-08-12T07:12:24Z</time>
      </trkpt>
      <trkpt lat="42.3614500" lon="-2.0594550">
        <ele>327.0</ele>
        <time>2022-08-12T07:12:25Z</time>
      </trkpt>
      <trkpt lat="42.3613920" lon="-2.0594040">
        <ele>326.8</ele>
        <time>2022-08-12T07:12:27Z</time>
      </trkpt>
      <trkpt lat="42.3613570" lon="-2.0593520">
        <ele>326.6</ele>
        <time>2022-08-12T07:12:29Z</time>
      </trkpt>
      <trkpt lat="42.3613320" lon="-2.0592910">
        <ele>326.4</ele>
        <time>2022-08-12T07:12:31Z</time>
      </trkpt>
      <trkpt lat="42.3613220" lon="-2.0592260">
        <ele>325.8</ele>
        <time>2022-08-12T07:12:33Z</time>
      </trkpt>
      <trkpt lat="42.3613300" lon="-2.0592020">
        <ele>325.4</ele>
        <time>2022-08-12T07:12:34Z</time>
      </trkpt>
      <trkpt lat="42.3613910" lon="-2.0591400">
        <ele>325.0</ele>
        <time>2022-08-12T07:12:37Z</time>
      </trkpt>
      <trkpt lat="42.3614420" lon="-2.0590820">
        <ele>324.8</ele>
        <time>2022-08-12T07:12:39Z</time>
      </trkpt>
      <trkpt lat="42.3614640" lon="-2.0590460">
        <ele>324.6</ele>
        <time>2022-08-12T07:12:40Z</time>
      </trkpt>
      <trkpt lat="42.3615010" lon="-2.0589690">
        <ele>324.4</ele>
        <time>2022-08-12T07:12:42Z</time>
      </trkpt>
      <trkpt lat="42.3615490" lon="-2.0588660">
        <ele>323.2</ele>
        <time>2022-08-12T07:12:45Z</time>
      </trkpt>
      <trkpt lat="42.3615980" lon="-2.0588340">
        <ele>322.4</ele>
        <time>2022-08-12T07:12:47Z</time>
      </trkpt>
      <trkpt lat="42.3616280" lon="-2.0588370">
        <ele>321.6</ele>
        <time>2022-08-12T07:12:48Z</time>
      </trkpt>
      <trkpt lat="42.3616540" lon="-2.0588480">
        <ele>321.2</ele>
        <time>2022-08-12T07:12:49Z</time>
      </trkpt>
      <trkpt lat="42.3617530" lon="-2.0589230">
        <ele>320.6</ele>
        <time>2022-08-12T07:12:52Z</time>
      </trkpt>
      <trkpt lat="42.3617840" lon="-2.0589550">
        <ele>320.0</ele>
        <time>2022-08-12T07:12:53Z</time>
      </trkpt>
      <trkpt lat="42.3618200" lon="-2.0589900">
        <ele>319.8</ele>
        <time>2022-08-12T07:12:54Z</time>
      </trkpt>
      <trkpt lat="42.3619650" lon="-2.0591350">
        <ele>319.2</ele>
        <time>2022-08-12T07:12:58Z</time>
      </trkpt>
      <trkpt lat="42.3620590" lon="-2.0592190">
        <ele>318.2</ele>
        <time>2022-08-12T07:13:00Z</time>
      </trkpt>
      <trkpt lat="42.3622230" lon="-2.0593470">
        <ele>317.2</ele>
        <time>2022-08-12T07:13:04Z</time>
      </trkpt>
      <trkpt lat="42.3624040" lon="-2.0594730">
        <ele>316.2</ele>
        <time>2022-08-12T07:13:09Z</time>
      </trkpt>
      <trkpt lat="42.3626280" lon="-2.0596300">
        <ele>315.8</ele>
        <time>2022-08-12T07:13:15Z</time>
      </trkpt>
      <trkpt lat="42.3627390" lon="-2.0597120">
        <ele>315.6</ele>
        <time>2022-08-12T07:13:18Z</time>
      </trkpt>
      <trkpt lat="42.3629350" lon="-2.0598500">
        <ele>315.0</ele>
        <time>2022-08-12T07:13:23Z</time>
      </trkpt>
      <trkpt lat="42.3630970" lon="-2.0599590">
        <ele>314.8</ele>
        <time>2022-08-12T07:13:27Z</time>
      </trkpt>
      <trkpt lat="42.3631770" lon="-2.0600150">
        <ele>314.8</ele>
        <time>2022-08-12T07:13:29Z</time>
      </trkpt>
      <trkpt lat="42.3635230" lon="-2.0602440">
        <ele>315.0</ele>
        <time>2022-08-12T07:13:38Z</time>
      </trkpt>
      <trkpt lat="42.3637080" lon="-2.0603760">
        <ele>315.2</ele>
        <time>2022-08-12T07:13:43Z</time>
      </trkpt>
      <trkpt lat="42.3638590" lon="-2.0604830">
        <ele>315.4</ele>
        <time>2022-08-12T07:13:47Z</time>
      </trkpt>
      <trkpt lat="42.3640070" lon="-2.0605850">
        <ele>315.4</ele>
        <time>2022-08-12T07:13:51Z</time>
      </trkpt>
      <trkpt lat="42.3642950" lon="-2.0607850">
        <ele>315.6</ele>
        <time>2022-08-12T07:13:59Z</time>
      </trkpt>
      <trkpt lat="42.3644090" lon="-2.0608620">
        <ele>315.8</ele>
        <time>2022-08-12T07:14:02Z</time>
      </trkpt>
      <trkpt lat="42.3646320" lon="-2.0610110">
        <ele>315.8</ele>
        <time>2022-08-12T07:14:08Z</time>
      </trkpt>
      <trkpt lat="42.3649280" lon="-2.0612170">
        <ele>315.8</ele>
        <time>2022-08-12T07:14:16Z</time>
      </trkpt>
      <trkpt lat="42.3649660" lon="-2.0612430">
        <ele>315.8</ele>
        <time>2022-08-12T07:14:17Z</time>
      </trkpt>
      <trkpt lat="42.3651130" lon="-2.0613430">
        <ele>316.0</ele>
        <time>2022-08-12T07:14:21Z</time>
      </trkpt>
      <trkpt lat="42.3654070" lon="-2.0615470">
        <ele>316.4</ele>
        <time>2022-08-12T07:14:29Z</time>
      </trkpt>
      <trkpt lat="42.3655190" lon="-2.0616230">
        <ele>316.6</ele>
        <time>2022-08-12T07:14:32Z</time>
      </trkpt>
      <trkpt lat="42.3658160" lon="-2.0618330">
        <ele>316.6</ele>
        <time>2022-08-12T07:14:40Z</time>
      </trkpt>
      <trkpt lat="42.3658520" lon="-2.0618580">
        <ele>316.6</ele>
        <time>2022-08-12T07:14:41Z</time>
      </trkpt>
      <trkpt lat="42.3661050" lon="-2.0620260">
        <ele>316.8</ele>
        <time>2022-08-12T07:14:48Z</time>
      </trkpt>
      <trkpt lat="42.3662910" lon="-2.0621450">
        <ele>316.8</ele>
        <time>2022-08-12T07:14:53Z</time>
      </trkpt>
      <trkpt lat="42.3665530" lon="-2.0623150">
        <ele>316.8</ele>
        <time>2022-08-12T07:15:00Z</time>
      </trkpt>
      <trkpt lat="42.3667480" lon="-2.0624280">
        <ele>316.8</ele>
        <time>2022-08-12T07:15:05Z</time>
      </trkpt>
      <trkpt lat="42.3671230" lon="-2.0625940">
        <ele>317.0</ele>
        <time>2022-08-12T07:15:14Z</time>
      </trkpt>
      <trkpt lat="42.3672850" lon="-2.0626460">
        <ele>317.0</ele>
        <time>2022-08-12T07:15:18Z</time>
      </trkpt>
      <trkpt lat="42.3675510" lon="-2.0628050">
        <ele>316.8</ele>
        <time>2022-08-12T07:15:25Z</time>
      </trkpt>
      <trkpt lat="42.3678040" lon="-2.0630810">
        <ele>317.2</ele>
        <time>2022-08-12T07:15:33Z</time>
      </trkpt>
      <trkpt lat="42.3678910" lon="-2.0631890">
        <ele>317.2</ele>
        <time>2022-08-12T07:15:36Z</time>
      </trkpt>
      <trkpt lat="42.3681190" lon="-2.0634160">
        <ele>316.8</ele>
        <time>2022-08-12T07:15:43Z</time>
      </trkpt>
      <trkpt lat="42.3684630" lon="-2.0637080">
        <ele>317.0</ele>
        <time>2022-08-12T07:15:53Z</time>
      </trkpt>
      <trkpt lat="42.3689090" lon="-2.0640410">
        <ele>317.4</ele>
        <time>2022-08-12T07:16:05Z</time>
      </trkpt>
      <trkpt lat="42.3692790" lon="-2.0643470">
        <ele>317.2</ele>
        <time>2022-08-12T07:16:15Z</time>
      </trkpt>
      <trkpt lat="42.3693150" lon="-2.0643760">
        <ele>317.4</ele>
        <time>2022-08-12T07:16:16Z</time>
      </trkpt>
      <trkpt lat="42.3694260" lon="-2.0644570">
        <ele>317.2</ele>
        <time>2022-08-12T07:16:19Z</time>
      </trkpt>
      <trkpt lat="42.3696930" lon="-2.0646340">
        <ele>317.2</ele>
        <time>2022-08-12T07:16:26Z</time>
      </trkpt>
      <trkpt lat="42.3697330" lon="-2.0646560">
        <ele>317.2</ele>
        <time>2022-08-12T07:16:27Z</time>
      </trkpt>
      <trkpt lat="42.3701750" lon="-2.0648630">
        <ele>317.2</ele>
        <time>2022-08-12T07:16:38Z</time>
      </trkpt>
      <trkpt lat="42.3703460" lon="-2.0649370">
        <ele>317.2</ele>
        <time>2022-08-12T07:16:42Z</time>
      </trkpt>
      <trkpt lat="42.3704300" lon="-2.0649800">
        <ele>317.2</ele>
        <time>2022-08-12T07:16:44Z</time>
      </trkpt>
      <trkpt lat="42.3706840" lon="-2.0651080">
        <ele>316.8</ele>
        <time>2022-08-12T07:16:50Z</time>
      </trkpt>
      <trkpt lat="42.3710910" lon="-2.0653270">
        <ele>316.4</ele>
        <time>2022-08-12T07:17:00Z</time>
      </trkpt>
      <trkpt lat="42.3711750" lon="-2.0653660">
        <ele>316.0</ele>
        <time>2022-08-12T07:17:02Z</time>
      </trkpt>
      <trkpt lat="42.3712590" lon="-2.0654040">
        <ele>315.8</ele>
        <time>2022-08-12T07:17:04Z</time>
      </trkpt>
      <trkpt lat="42.3714640" lon="-2.0655100">
        <ele>316.4</ele>
        <time>2022-08-12T07:17:09Z</time>
      </trkpt>
      <trkpt lat="42.3715480" lon="-2.0655530">
        <ele>316.4</ele>
        <time>2022-08-12T07:17:11Z</time>
      </trkpt>
      <trkpt lat="42.3715890" lon="-2.0655720">
        <ele>316.2</ele>
        <time>2022-08-12T07:17:12Z</time>
      </trkpt>
      <trkpt lat="42.3717560" lon="-2.0656570">
        <ele>316.0</ele>
        <time>2022-08-12T07:17:16Z</time>
      </trkpt>
      <trkpt lat="42.3719950" lon="-2.0658040">
        <ele>315.6</ele>
        <time>2022-08-12T07:17:22Z</time>
      </trkpt>
      <trkpt lat="42.3720730" lon="-2.0658560">
        <ele>315.8</ele>
        <time>2022-08-12T07:17:24Z</time>
      </trkpt>
      <trkpt lat="42.3721860" lon="-2.0659410">
        <ele>316.0</ele>
        <time>2022-08-12T07:17:27Z</time>
      </trkpt>
      <trkpt lat="42.3724440" lon="-2.0661220">
        <ele>316.2</ele>
        <time>2022-08-12T07:17:34Z</time>
      </trkpt>
      <trkpt lat="42.3727100" lon="-2.0662710">
        <ele>316.4</ele>
        <time>2022-08-12T07:17:41Z</time>
      </trkpt>
      <trkpt lat="42.3728590" lon="-2.0663220">
        <ele>316.6</ele>
        <time>2022-08-12T07:17:45Z</time>
      </trkpt>
      <trkpt lat="42.3730750" lon="-2.0663900">
        <ele>317.0</ele>
        <time>2022-08-12T07:17:50Z</time>
      </trkpt>
      <trkpt lat="42.3735360" lon="-2.0665430">
        <ele>317.2</ele>
        <time>2022-08-12T07:18:01Z</time>
      </trkpt>
      <trkpt lat="42.3739900" lon="-2.0666740">
        <ele>317.2</ele>
        <time>2022-08-12T07:18:12Z</time>
      </trkpt>
      <trkpt lat="42.3743170" lon="-2.0667640">
        <ele>317.6</ele>
        <time>2022-08-12T07:18:20Z</time>
      </trkpt>
      <trkpt lat="42.3744020" lon="-2.0667870">
        <ele>317.6</ele>
        <time>2022-08-12T07:18:22Z</time>
      </trkpt>
      <trkpt lat="42.3748090" lon="-2.0669040">
        <ele>317.6</ele>
        <time>2022-08-12T07:18:32Z</time>
      </trkpt>
      <trkpt lat="42.3750200" lon="-2.0670050">
        <ele>317.8</ele>
        <time>2022-08-12T07:18:38Z</time>
      </trkpt>
      <trkpt lat="42.3752420" lon="-2.0671210">
        <ele>318.2</ele>
        <time>2022-08-12T07:18:44Z</time>
      </trkpt>
      <trkpt lat="42.3752710" lon="-2.0671360">
        <ele>318.2</ele>
        <time>2022-08-12T07:18:45Z</time>
      </trkpt>
      <trkpt lat="42.3755880" lon="-2.0672120">
        <ele>318.8</ele>
        <time>2022-08-12T07:18:53Z</time>
      </trkpt>
      <trkpt lat="42.3757950" lon="-2.0672400">
        <ele>319.0</ele>
        <time>2022-08-12T07:18:58Z</time>
      </trkpt>
      <trkpt lat="42.3759190" lon="-2.0672620">
        <ele>319.0</ele>
        <time>2022-08-12T07:19:01Z</time>
      </trkpt>
      <trkpt lat="42.3763080" lon="-2.0673540">
        <ele>319.0</ele>
        <time>2022-08-12T07:19:11Z</time>
      </trkpt>
      <trkpt lat="42.3766050" lon="-2.0674400">
        <ele>318.8</ele>
        <time>2022-08-12T07:19:19Z</time>
      </trkpt>
      <trkpt lat="42.3766390" lon="-2.0674490">
        <ele>318.8</ele>
        <time>2022-08-12T07:19:20Z</time>
      </trkpt>
      <trkpt lat="42.3766710" lon="-2.0674560">
        <ele>318.8</ele>
        <time>2022-08-12T07:19:21Z</time>
      </trkpt>
      <trkpt lat="42.3768160" lon="-2.0674870">
        <ele>318.8</ele>
        <time>2022-08-12T07:19:26Z</time>
      </trkpt>
      <trkpt lat="42.3768670" lon="-2.0674980">
        <ele>318.8</ele>
        <time>2022-08-12T07:19:28Z</time>
      </trkpt>
      <trkpt lat="42.3769520" lon="-2.0675150">
        <ele>319.0</ele>
        <time>2022-08-12T07:19:32Z</time>
      </trkpt>
      <trkpt lat="42.3769970" lon="-2.0675280">
        <ele>319.0</ele>
        <time>2022-08-12T07:19:34Z</time>
      </trkpt>
      <trkpt lat="42.3770870" lon="-2.0675510">
        <ele>319.2</ele>
        <time>2022-08-12T07:19:37Z</time>
      </trkpt>
      <trkpt lat="42.3771180" lon="-2.0675660">
        <ele>319.2</ele>
        <time>2022-08-12T07:19:38Z</time>
      </trkpt>
      <trkpt lat="42.3771840" lon="-2.0675950">
        <ele>319.4</ele>
        <time>2022-08-12T07:19:40Z</time>
      </trkpt>
      <trkpt lat="42.3773220" lon="-2.0676370">
        <ele>319.2</ele>
        <time>2022-08-12T07:19:44Z</time>
      </trkpt>
      <trkpt lat="42.3773960" lon="-2.0676600">
        <ele>319.0</ele>
        <time>2022-08-12T07:19:46Z</time>
      </trkpt>
      <trkpt lat="42.3774720" lon="-2.0676840">
        <ele>319.0</ele>
        <time>2022-08-12T07:19:48Z</time>
      </trkpt>
      <trkpt lat="42.3777010" lon="-2.0677630">
        <ele>319.0</ele>
        <time>2022-08-12T07:19:54Z</time>
      </trkpt>
      <trkpt lat="42.3778200" lon="-2.0677880">
        <ele>319.0</ele>
        <time>2022-08-12T07:19:57Z</time>
      </trkpt>
      <trkpt lat="42.3779670" lon="-2.0678360">
        <ele>318.8</ele>
        <time>2022-08-12T07:20:01Z</time>
      </trkpt>
      <trkpt lat="42.3782370" lon="-2.0679230">
        <ele>319.6</ele>
        <time>2022-08-12T07:20:08Z</time>
      </trkpt>
      <trkpt lat="42.3783180" lon="-2.0679450">
        <ele>320.4</ele>
        <time>2022-08-12T07:20:10Z</time>
      </trkpt>
      <trkpt lat="42.3783570" lon="-2.0679560">
        <ele>320.6</ele>
        <time>2022-08-12T07:20:11Z</time>
      </trkpt>
      <trkpt lat="42.3785580" lon="-2.0680080">
        <ele>319.4</ele>
        <time>2022-08-12T07:20:16Z</time>
      </trkpt>
      <trkpt lat="42.3786810" lon="-2.0680350">
        <ele>319.0</ele>
        <time>2022-08-12T07:20:19Z</time>
      </trkpt>
      <trkpt lat="42.3789630" lon="-2.0681130">
        <ele>318.8</ele>
        <time>2022-08-12T07:20:26Z</time>
      </trkpt>
      <trkpt lat="42.3791650" lon="-2.0681640">
        <ele>318.8</ele>
        <time>2022-08-12T07:20:31Z</time>
      </trkpt>
      <trkpt lat="42.3793800" lon="-2.0682170">
        <ele>318.8</ele>
        <time>2022-08-12T07:20:36Z</time>
      </trkpt>
      <trkpt lat="42.3796140" lon="-2.0682750">
        <ele>318.8</ele>
        <time>2022-08-12T07:20:42Z</time>
      </trkpt>
      <trkpt lat="42.3797310" lon="-2.0682940">
        <ele>318.8</ele>
        <time>2022-08-12T07:20:45Z</time>
      </trkpt>
      <trkpt lat="42.3797690" lon="-2.0683050">
        <ele>318.8</ele>
        <time>2022-08-12T07:20:46Z</time>
      </trkpt>
      <trkpt lat="42.3798070" lon="-2.0683160">
        <ele>318.8</ele>
        <time>2022-08-12T07:20:47Z</time>
      </trkpt>
      <trkpt lat="42.3799180" lon="-2.0683460">
        <ele>318.8</ele>
        <time>2022-08-12T07:20:50Z</time>
      </trkpt>
      <trkpt lat="42.3800230" lon="-2.0683740">
        <ele>319.0</ele>
        <time>2022-08-12T07:20:53Z</time>
      </trkpt>
      <trkpt lat="42.3802560" lon="-2.0684430">
        <ele>319.2</ele>
        <time>2022-08-12T07:21:00Z</time>
      </trkpt>
      <trkpt lat="42.3804610" lon="-2.0685060">
        <ele>319.4</ele>
        <time>2022-08-12T07:21:05Z</time>
      </trkpt>
      <trkpt lat="42.3805040" lon="-2.0685160">
        <ele>319.4</ele>
        <time>2022-08-12T07:21:06Z</time>
      </trkpt>
      <trkpt lat="42.3808910" lon="-2.0685650">
        <ele>318.6</ele>
        <time>2022-08-12T07:21:15Z</time>
      </trkpt>
      <trkpt lat="42.3810040" lon="-2.0685830">
        <ele>318.6</ele>
        <time>2022-08-12T07:21:18Z</time>
      </trkpt>
      <trkpt lat="42.3811090" lon="-2.0686490">
        <ele>318.6</ele>
        <time>2022-08-12T07:21:21Z</time>
      </trkpt>
      <trkpt lat="42.3812950" lon="-2.0687440">
        <ele>319.0</ele>
        <time>2022-08-12T07:21:26Z</time>
      </trkpt>
      <trkpt lat="42.3813380" lon="-2.0687480">
        <ele>319.0</ele>
        <time>2022-08-12T07:21:27Z</time>
      </trkpt>
      <trkpt lat="42.3815260" lon="-2.0687350">
        <ele>318.8</ele>
        <time>2022-08-12T07:21:31Z</time>
      </trkpt>
      <trkpt lat="42.3815760" lon="-2.0687270">
        <ele>318.8</ele>
        <time>2022-08-12T07:21:32Z</time>
      </trkpt>
      <trkpt lat="42.3816830" lon="-2.0687180">
        <ele>318.6</ele>
        <time>2022-08-12T07:21:34Z</time>
      </trkpt>
      <trkpt lat="42.3817930" lon="-2.0687270">
        <ele>318.4</ele>
        <time>2022-08-12T07:21:36Z</time>
      </trkpt>
      <trkpt lat="42.3819040" lon="-2.0687510">
        <ele>318.2</ele>
        <time>2022-08-12T07:21:38Z</time>
      </trkpt>
      <trkpt lat="42.3821390" lon="-2.0688330">
        <ele>317.4</ele>
        <time>2022-08-12T07:21:42Z</time>
      </trkpt>
      <trkpt lat="42.3822660" lon="-2.0688960">
        <ele>317.0</ele>
        <time>2022-08-12T07:21:44Z</time>
      </trkpt>
      <trkpt lat="42.3824520" lon="-2.0690050">
        <ele>316.2</ele>
        <time>2022-08-12T07:21:47Z</time>
      </trkpt>
      <trkpt lat="42.3825610" lon="-2.0690710">
        <ele>315.2</ele>
        <time>2022-08-12T07:21:49Z</time>
      </trkpt>
      <trkpt lat="42.3826120" lon="-2.0691000">
        <ele>314.8</ele>
        <time>2022-08-12T07:21:50Z</time>
      </trkpt>
      <trkpt lat="42.3827540" lon="-2.0691740">
        <ele>314.0</ele>
        <time>2022-08-12T07:21:53Z</time>
      </trkpt>
      <trkpt lat="42.3828350" lon="-2.0692140">
        <ele>314.0</ele>
        <time>2022-08-12T07:21:55Z</time>
      </trkpt>
      <trkpt lat="42.3828700" lon="-2.0692300">
        <ele>314.0</ele>
        <time>2022-08-12T07:21:56Z</time>
      </trkpt>
      <trkpt lat="42.3829380" lon="-2.0692620">
        <ele>313.8</ele>
        <time>2022-08-12T07:21:58Z</time>
      </trkpt>
      <trkpt lat="42.3830240" lon="-2.0692960">
        <ele>313.6</ele>
        <time>2022-08-12T07:22:02Z</time>
      </trkpt>
      <trkpt lat="42.3830420" lon="-2.0692880">
        <ele>313.6</ele>
        <time>2022-08-12T07:22:03Z</time>
      </trkpt>
      <trkpt lat="42.3830540" lon="-2.0692320">
        <ele>313.6</ele>
        <time>2022-08-12T07:22:05Z</time>
      </trkpt>
      <trkpt lat="42.3830150" lon="-2.0689750">
        <ele>313.4</ele>
        <time>2022-08-12T07:22:11Z</time>
      </trkpt>
      <trkpt lat="42.3830210" lon="-2.0687960">
        <ele>313.0</ele>
        <time>2022-08-12T07:22:15Z</time>
      </trkpt>
      <trkpt lat="42.3830470" lon="-2.0687100">
        <ele>312.8</ele>
        <time>2022-08-12T07:22:17Z</time>
      </trkpt>
      <trkpt lat="42.3830660" lon="-2.0686700">
        <ele>312.6</ele>
        <time>2022-08-12T07:22:18Z</time>
      </trkpt>
      <trkpt lat="42.3831490" lon="-2.0685450">
        <ele>312.6</ele>
        <time>2022-08-12T07:22:21Z</time>
      </trkpt>
      <trkpt lat="42.3831800" lon="-2.0685120">
        <ele>312.4</ele>
        <time>2022-08-12T07:22:22Z</time>
      </trkpt>
      <trkpt lat="42.3832090" lon="-2.0684850">
        <ele>312.4</ele>
        <time>2022-08-12T07:22:23Z</time>
      </trkpt>
      <trkpt lat="42.3832870" lon="-2.0684340">
        <ele>312.0</ele>
        <time>2022-08-12T07:22:26Z</time>
      </trkpt>
      <trkpt lat="42.3833100" lon="-2.0684200">
        <ele>311.8</ele>
        <time>2022-08-12T07:22:27Z</time>
      </trkpt>
      <trkpt lat="42.3833540" lon="-2.0684010">
        <ele>311.8</ele>
        <time>2022-08-12T07:22:29Z</time>
      </trkpt>
      <trkpt lat="42.3834500" lon="-2.0683610">
        <ele>311.8</ele>
        <time>2022-08-12T07:22:32Z</time>
      </trkpt>
      <trkpt lat="42.3835180" lon="-2.0683140">
        <ele>311.8</ele>
        <time>2022-08-12T07:22:34Z</time>
      </trkpt>
      <trkpt lat="42.3835540" lon="-2.0682990">
        <ele>311.8</ele>
        <time>2022-08-12T07:22:35Z</time>
      </trkpt>
      <trkpt lat="42.3836740" lon="-2.0682340">
        <ele>311.8</ele>
        <time>2022-08-12T07:22:38Z</time>
      </trkpt>
      <trkpt lat="42.3837170" lon="-2.0682090">
        <ele>312.2</ele>
        <time>2022-08-12T07:22:39Z</time>
      </trkpt>
      <trkpt lat="42.3837980" lon="-2.0681600">
        <ele>312.4</ele>
        <time>2022-08-12T07:22:41Z</time>
      </trkpt>
      <trkpt lat="42.3839140" lon="-2.0681090">
        <ele>312.4</ele>
        <time>2022-08-12T07:22:43Z</time>
      </trkpt>
      <trkpt lat="42.3840310" lon="-2.0680740">
        <ele>312.6</ele>
        <time>2022-08-12T07:22:45Z</time>
      </trkpt>
      <trkpt lat="42.3841800" lon="-2.0680270">
        <ele>312.8</ele>
        <time>2022-08-12T07:22:48Z</time>
      </trkpt>
      <trkpt lat="42.3842320" lon="-2.0680070">
        <ele>312.8</ele>
        <time>2022-08-12T07:22:49Z</time>
      </trkpt>
      <trkpt lat="42.3843610" lon="-2.0679490">
        <ele>312.6</ele>
        <time>2022-08-12T07:22:52Z</time>
      </trkpt>
      <trkpt lat="42.3844490" lon="-2.0679030">
        <ele>313.0</ele>
        <time>2022-08-12T07:22:54Z</time>
      </trkpt>
      <trkpt lat="42.3846270" lon="-2.0678240">
        <ele>312.8</ele>
        <time>2022-08-12T07:22:58Z</time>
      </trkpt>
      <trkpt lat="42.3849780" lon="-2.0676170">
        <ele>313.2</ele>
        <time>2022-08-12T07:23:07Z</time>
      </trkpt>
      <trkpt lat="42.3852870" lon="-2.0674350">
        <ele>313.4</ele>
        <time>2022-08-12T07:23:15Z</time>
      </trkpt>
      <trkpt lat="42.3853820" lon="-2.0673660">
        <ele>313.4</ele>
        <time>2022-08-12T07:23:18Z</time>
      </trkpt>
      <trkpt lat="42.3855150" lon="-2.0672560">
        <ele>313.4</ele>
        <time>2022-08-12T07:23:22Z</time>
      </trkpt>
      <trkpt lat="42.3855540" lon="-2.0672250">
        <ele>313.4</ele>
        <time>2022-08-12T07:23:23Z</time>
      </trkpt>
      <trkpt lat="42.3856640" lon="-2.0671350">
        <ele>313.2</ele>
        <time>2022-08-12T07:23:26Z</time>
      </trkpt>
      <trkpt lat="42.3857070" lon="-2.0671000">
        <ele>313.2</ele>
        <time>2022-08-12T07:23:27Z</time>
      </trkpt>
      <trkpt lat="42.3858330" lon="-2.0670030">
        <ele>313.0</ele>
        <time>2022-08-12T07:23:30Z</time>
      </trkpt>
      <trkpt lat="42.3858730" lon="-2.0669770">
        <ele>313.2</ele>
        <time>2022-08-12T07:23:31Z</time>
      </trkpt>
      <trkpt lat="42.3860700" lon="-2.0668740">
        <ele>313.4</ele>
        <time>2022-08-12T07:23:36Z</time>
      </trkpt>
      <trkpt lat="42.3861050" lon="-2.0668410">
        <ele>313.4</ele>
        <time>2022-08-12T07:23:37Z</time>
      </trkpt>
      <trkpt lat="42.3862350" lon="-2.0666790">
        <ele>313.4</ele>
        <time>2022-08-12T07:23:41Z</time>
      </trkpt>
      <trkpt lat="42.3863290" lon="-2.0665590">
        <ele>313.4</ele>
        <time>2022-08-12T07:23:44Z</time>
      </trkpt>
      <trkpt lat="42.3863650" lon="-2.0665260">
        <ele>313.4</ele>
        <time>2022-08-12T07:23:45Z</time>
      </trkpt>
      <trkpt lat="42.3864480" lon="-2.0664740">
        <ele>313.4</ele>
        <time>2022-08-12T07:23:47Z</time>
      </trkpt>
      <trkpt lat="42.3865360" lon="-2.0664520">
        <ele>313.4</ele>
        <time>2022-08-12T07:23:49Z</time>
      </trkpt>
      <trkpt lat="42.3866230" lon="-2.0664470">
        <ele>313.2</ele>
        <time>2022-08-12T07:23:51Z</time>
      </trkpt>
      <trkpt lat="42.3866650" lon="-2.0664480">
        <ele>313.2</ele>
        <time>2022-08-12T07:23:52Z</time>
      </trkpt>
      <trkpt lat="42.3868370" lon="-2.0664530">
        <ele>313.2</ele>
        <time>2022-08-12T07:23:56Z</time>
      </trkpt>
      <trkpt lat="42.3868800" lon="-2.0664500">
        <ele>313.0</ele>
        <time>2022-08-12T07:23:57Z</time>
      </trkpt>
      <trkpt lat="42.3871360" lon="-2.0664280">
        <ele>313.0</ele>
        <time>2022-08-12T07:24:03Z</time>
      </trkpt>
      <trkpt lat="42.3873080" lon="-2.0663960">
        <ele>313.0</ele>
        <time>2022-08-12T07:24:07Z</time>
      </trkpt>
      <trkpt lat="42.3877310" lon="-2.0663240">
        <ele>313.4</ele>
        <time>2022-08-12T07:24:17Z</time>
      </trkpt>
      <trkpt lat="42.3881920" lon="-2.0661970">
        <ele>313.2</ele>
        <time>2022-08-12T07:24:28Z</time>
      </trkpt>
      <trkpt lat="42.3882710" lon="-2.0661710">
        <ele>313.2</ele>
        <time>2022-08-12T07:24:30Z</time>
      </trkpt>
      <trkpt lat="42.3884560" lon="-2.0660630">
        <ele>313.2</ele>
        <time>2022-08-12T07:24:35Z</time>
      </trkpt>
      <trkpt lat="42.3885760" lon="-2.0659870">
        <ele>313.2</ele>
        <time>2022-08-12T07:24:38Z</time>
      </trkpt>
      <trkpt lat="42.3887440" lon="-2.0659070">
        <ele>313.2</ele>
        <time>2022-08-12T07:24:42Z</time>
      </trkpt>
      <trkpt lat="42.3888750" lon="-2.0658590">
        <ele>313.2</ele>
        <time>2022-08-12T07:24:45Z</time>
      </trkpt>
      <trkpt lat="42.3889580" lon="-2.0658330">
        <ele>313.0</ele>
        <time>2022-08-12T07:24:47Z</time>
      </trkpt>
      <trkpt lat="42.3891260" lon="-2.0657830">
        <ele>313.0</ele>
        <time>2022-08-12T07:24:51Z</time>
      </trkpt>
      <trkpt lat="42.3892450" lon="-2.0657260">
        <ele>313.0</ele>
        <time>2022-08-12T07:24:54Z</time>
      </trkpt>
      <trkpt lat="42.3895340" lon="-2.0655820">
        <ele>313.2</ele>
        <time>2022-08-12T07:25:01Z</time>
      </trkpt>
      <trkpt lat="42.3896610" lon="-2.0655180">
        <ele>313.2</ele>
        <time>2022-08-12T07:25:04Z</time>
      </trkpt>
      <trkpt lat="42.3899900" lon="-2.0653200">
        <ele>313.2</ele>
        <time>2022-08-12T07:25:12Z</time>
      </trkpt>
      <trkpt lat="42.3902740" lon="-2.0651660">
        <ele>313.4</ele>
        <time>2022-08-12T07:25:19Z</time>
      </trkpt>
      <trkpt lat="42.3903140" lon="-2.0651420">
        <ele>313.4</ele>
        <time>2022-08-12T07:25:20Z</time>
      </trkpt>
      <trkpt lat="42.3905740" lon="-2.0649720">
        <ele>313.4</ele>
        <time>2022-08-12T07:25:27Z</time>
      </trkpt>
      <trkpt lat="42.3906400" lon="-2.0649170">
        <ele>313.4</ele>
        <time>2022-08-12T07:25:29Z</time>
      </trkpt>
      <trkpt lat="42.3907940" lon="-2.0647410">
        <ele>313.4</ele>
        <time>2022-08-12T07:25:34Z</time>
      </trkpt>
      <trkpt lat="42.3909580" lon="-2.0645520">
        <ele>313.4</ele>
        <time>2022-08-12T07:25:39Z</time>
      </trkpt>
      <trkpt lat="42.3910900" lon="-2.0643880">
        <ele>313.6</ele>
        <time>2022-08-12T07:25:43Z</time>
      </trkpt>
      <trkpt lat="42.3911230" lon="-2.0643480">
        <ele>313.8</ele>
        <time>2022-08-12T07:25:44Z</time>
      </trkpt>
      <trkpt lat="42.3912500" lon="-2.0641960">
        <ele>313.8</ele>
        <time>2022-08-12T07:25:48Z</time>
      </trkpt>
      <trkpt lat="42.3913040" lon="-2.0640880">
        <ele>313.8</ele>
        <time>2022-08-12T07:25:50Z</time>
      </trkpt>
      <trkpt lat="42.3913610" lon="-2.0639970">
        <ele>313.8</ele>
        <time>2022-08-12T07:25:52Z</time>
      </trkpt>
      <trkpt lat="42.3914320" lon="-2.0639290">
        <ele>313.2</ele>
        <time>2022-08-12T07:25:54Z</time>
      </trkpt>
      <trkpt lat="42.3914670" lon="-2.0638980">
        <ele>313.2</ele>
        <time>2022-08-12T07:25:55Z</time>
      </trkpt>
      <trkpt lat="42.3915650" lon="-2.0638130">
        <ele>312.8</ele>
        <time>2022-08-12T07:25:58Z</time>
      </trkpt>
      <trkpt lat="42.3916190" lon="-2.0637680">
        <ele>312.6</ele>
        <time>2022-08-12T07:26:00Z</time>
      </trkpt>
      <trkpt lat="42.3916450" lon="-2.0637400">
        <ele>312.4</ele>
        <time>2022-08-12T07:26:01Z</time>
      </trkpt>
      <trkpt lat="42.3919210" lon="-2.0634250">
        <ele>312.4</ele>
        <time>2022-08-12T07:26:09Z</time>
      </trkpt>
      <trkpt lat="42.3919490" lon="-2.0633980">
        <ele>312.4</ele>
        <time>2022-08-12T07:26:10Z</time>
      </trkpt>
      <trkpt lat="42.3920120" lon="-2.0633330">
        <ele>312.2</ele>
        <time>2022-08-12T07:26:12Z</time>
      </trkpt>
      <trkpt lat="42.3921150" lon="-2.0632020">
        <ele>312.2</ele>
        <time>2022-08-12T07:26:15Z</time>
      </trkpt>
      <trkpt lat="42.3921900" lon="-2.0631040">
        <ele>312.2</ele>
        <time>2022-08-12T07:26:17Z</time>
      </trkpt>
      <trkpt lat="42.3923180" lon="-2.0629380">
        <ele>312.2</ele>
        <time>2022-08-12T07:26:21Z</time>
      </trkpt>
      <trkpt lat="42.3923510" lon="-2.0628930">
        <ele>312.2</ele>
        <time>2022-08-12T07:26:22Z</time>
      </trkpt>
      <trkpt lat="42.3925900" lon="-2.0626570">
        <ele>312.6</ele>
        <time>2022-08-12T07:26:29Z</time>
      </trkpt>
      <trkpt lat="42.3926610" lon="-2.0625740">
        <ele>312.6</ele>
        <time>2022-08-12T07:26:31Z</time>
      </trkpt>
      <trkpt lat="42.3927290" lon="-2.0625010">
        <ele>312.6</ele>
        <time>2022-08-12T07:26:33Z</time>
      </trkpt>
      <trkpt lat="42.3928090" lon="-2.0624010">
        <ele>312.6</ele>
        <time>2022-08-12T07:26:36Z</time>
      </trkpt>
      <trkpt lat="42.3928430" lon="-2.0623780">
        <ele>312.6</ele>
        <time>2022-08-12T07:26:37Z</time>
      </trkpt>
      <trkpt lat="42.3930260" lon="-2.0622960">
        <ele>313.2</ele>
        <time>2022-08-12T07:26:42Z</time>
      </trkpt>
      <trkpt lat="42.3932090" lon="-2.0622840">
        <ele>313.4</ele>
        <time>2022-08-12T07:26:46Z</time>
      </trkpt>
      <trkpt lat="42.3932530" lon="-2.0622740">
        <ele>313.6</ele>
        <time>2022-08-12T07:26:47Z</time>
      </trkpt>
      <trkpt lat="42.3933520" lon="-2.0622470">
        <ele>313.8</ele>
        <time>2022-08-12T07:26:49Z</time>
      </trkpt>
      <trkpt lat="42.3934200" lon="-2.0621720">
        <ele>313.8</ele>
        <time>2022-08-12T07:26:51Z</time>
      </trkpt>
      <trkpt lat="42.3935700" lon="-2.0620090">
        <ele>314.0</ele>
        <time>2022-08-12T07:26:56Z</time>
      </trkpt>
      <trkpt lat="42.3936020" lon="-2.0619860">
        <ele>314.0</ele>
        <time>2022-08-12T07:26:57Z</time>
      </trkpt>
      <trkpt lat="42.3939260" lon="-2.0618300">
        <ele>314.2</ele>
        <time>2022-08-12T07:27:05Z</time>
      </trkpt>
      <trkpt lat="42.3940130" lon="-2.0617820">
        <ele>314.2</ele>
        <time>2022-08-12T07:27:07Z</time>
      </trkpt>
      <trkpt lat="42.3940830" lon="-2.0617060">
        <ele>314.2</ele>
        <time>2022-08-12T07:27:09Z</time>
      </trkpt>
      <trkpt lat="42.3941220" lon="-2.0616560">
        <ele>314.0</ele>
        <time>2022-08-12T07:27:10Z</time>
      </trkpt>
      <trkpt lat="42.3943230" lon="-2.0613790">
        <ele>313.4</ele>
        <time>2022-08-12T07:27:15Z</time>
      </trkpt>
      <trkpt lat="42.3944350" lon="-2.0612610">
        <ele>312.6</ele>
        <time>2022-08-12T07:27:18Z</time>
      </trkpt>
      <trkpt lat="42.3944720" lon="-2.0612310">
        <ele>312.4</ele>
        <time>2022-08-12T07:27:19Z</time>
      </trkpt>
      <trkpt lat="42.3945320" lon="-2.0611780">
        <ele>312.4</ele>
        <time>2022-08-12T07:27:21Z</time>
      </trkpt>
      <trkpt lat="42.3947680" lon="-2.0609660">
        <ele>312.2</ele>
        <time>2022-08-12T07:27:28Z</time>
      </trkpt>
      <trkpt lat="42.3948340" lon="-2.0609050">
        <ele>312.2</ele>
        <time>2022-08-12T07:27:30Z</time>
      </trkpt>
      <trkpt lat="42.3949350" lon="-2.0607940">
        <ele>311.8</ele>
        <time>2022-08-12T07:27:33Z</time>
      </trkpt>
      <trkpt lat="42.3949950" lon="-2.0607310">
        <ele>311.8</ele>
        <time>2022-08-12T07:27:35Z</time>
      </trkpt>
      <trkpt lat="42.3950660" lon="-2.0606500">
        <ele>311.8</ele>
        <time>2022-08-12T07:27:37Z</time>
      </trkpt>
      <trkpt lat="42.3952900" lon="-2.0604530">
        <ele>312.4</ele>
        <time>2022-08-12T07:27:43Z</time>
      </trkpt>
      <trkpt lat="42.3954170" lon="-2.0604310">
        <ele>312.4</ele>
        <time>2022-08-12T07:27:46Z</time>
      </trkpt>
      <trkpt lat="42.3955000" lon="-2.0604350">
        <ele>312.4</ele>
        <time>2022-08-12T07:27:48Z</time>
      </trkpt>
      <trkpt lat="42.3955880" lon="-2.0604400">
        <ele>312.6</ele>
        <time>2022-08-12T07:27:50Z</time>
      </trkpt>
      <trkpt lat="42.3957110" lon="-2.0604200">
        <ele>313.0</ele>
        <time>2022-08-12T07:27:53Z</time>
      </trkpt>
      <trkpt lat="42.3957490" lon="-2.0604070">
        <ele>313.0</ele>
        <time>2022-08-12T07:27:54Z</time>
      </trkpt>
      <trkpt lat="42.3959250" lon="-2.0602830">
        <ele>313.6</ele>
        <time>2022-08-12T07:27:59Z</time>
      </trkpt>
      <trkpt lat="42.3959920" lon="-2.0602430">
        <ele>313.6</ele>
        <time>2022-08-12T07:28:01Z</time>
      </trkpt>
      <trkpt lat="42.3961200" lon="-2.0602280">
        <ele>314.0</ele>
        <time>2022-08-12T07:28:05Z</time>
      </trkpt>
      <trkpt lat="42.3961590" lon="-2.0602420">
        <ele>314.2</ele>
        <time>2022-08-12T07:28:06Z</time>
      </trkpt>
      <trkpt lat="42.3962720" lon="-2.0602940">
        <ele>314.8</ele>
        <time>2022-08-12T07:28:09Z</time>
      </trkpt>
      <trkpt lat="42.3965020" lon="-2.0604440">
        <ele>315.4</ele>
        <time>2022-08-12T07:28:15Z</time>
      </trkpt>
      <trkpt lat="42.3965700" lon="-2.0605140">
        <ele>315.4</ele>
        <time>2022-08-12T07:28:17Z</time>
      </trkpt>
      <trkpt lat="42.3966130" lon="-2.0606100">
        <ele>315.4</ele>
        <time>2022-08-12T07:28:19Z</time>
      </trkpt>
      <trkpt lat="42.3966410" lon="-2.0609170">
        <ele>315.6</ele>
        <time>2022-08-12T07:28:24Z</time>
      </trkpt>
      <trkpt lat="42.3966520" lon="-2.0610340">
        <ele>315.8</ele>
        <time>2022-08-12T07:28:26Z</time>
      </trkpt>
      <trkpt lat="42.3967240" lon="-2.0616560">
        <ele>315.4</ele>
        <time>2022-08-12T07:28:36Z</time>
      </trkpt>
      <trkpt lat="42.3967320" lon="-2.0617160">
        <ele>315.4</ele>
        <time>2022-08-12T07:28:37Z</time>
      </trkpt>
      <trkpt lat="42.3967830" lon="-2.0620700">
        <ele>315.4</ele>
        <time>2022-08-12T07:28:43Z</time>
      </trkpt>
      <trkpt lat="42.3969070" lon="-2.0626660">
        <ele>315.4</ele>
        <time>2022-08-12T07:28:53Z</time>
      </trkpt>
      <trkpt lat="42.3969400" lon="-2.0628460">
        <ele>315.4</ele>
        <time>2022-08-12T07:28:56Z</time>
      </trkpt>
      <trkpt lat="42.3969900" lon="-2.0631410">
        <ele>315.4</ele>
        <time>2022-08-12T07:29:01Z</time>
      </trkpt>
      <trkpt lat="42.3970550" lon="-2.0636860">
        <ele>315.6</ele>
        <time>2022-08-12T07:29:10Z</time>
      </trkpt>
      <trkpt lat="42.3971340" lon="-2.0641720">
        <ele>315.4</ele>
        <time>2022-08-12T07:29:18Z</time>
      </trkpt>
      <trkpt lat="42.3972450" lon="-2.0646240">
        <ele>315.8</ele>
        <time>2022-08-12T07:29:26Z</time>
      </trkpt>
      <trkpt lat="42.3972710" lon="-2.0647350">
        <ele>316.0</ele>
        <time>2022-08-12T07:29:28Z</time>
      </trkpt>
      <trkpt lat="42.3973580" lon="-2.0650000">
        <ele>316.0</ele>
        <time>2022-08-12T07:29:33Z</time>
      </trkpt>
      <trkpt lat="42.3974790" lon="-2.0653790">
        <ele>315.6</ele>
        <time>2022-08-12T07:29:40Z</time>
      </trkpt>
      <trkpt lat="42.3975890" lon="-2.0657890">
        <ele>315.2</ele>
        <time>2022-08-12T07:29:48Z</time>
      </trkpt>
      <trkpt lat="42.3976650" lon="-2.0659840">
        <ele>315.2</ele>
        <time>2022-08-12T07:29:52Z</time>
      </trkpt>
      <trkpt lat="42.3977350" lon="-2.0661260">
        <ele>315.2</ele>
        <time>2022-08-12T07:29:55Z</time>
      </trkpt>
      <trkpt lat="42.3978290" lon="-2.0663040">
        <ele>315.0</ele>
        <time>2022-08-12T07:29:59Z</time>
      </trkpt>
      <trkpt lat="42.3978800" lon="-2.0663850">
        <ele>315.0</ele>
        <time>2022-08-12T07:30:01Z</time>
      </trkpt>
      <trkpt lat="42.3981380" lon="-2.0668010">
        <ele>314.8</ele>
        <time>2022-08-12T07:30:10Z</time>
      </trkpt>
      <trkpt lat="42.3984320" lon="-2.0671680">
        <ele>315.2</ele>
        <time>2022-08-12T07:30:19Z</time>
      </trkpt>
      <trkpt lat="42.3988010" lon="-2.0675960">
        <ele>315.0</ele>
        <time>2022-08-12T07:30:30Z</time>
      </trkpt>
      <trkpt lat="42.3990820" lon="-2.0678630">
        <ele>314.6</ele>
        <time>2022-08-12T07:30:38Z</time>
      </trkpt>
      <trkpt lat="42.3991150" lon="-2.0678930">
        <ele>314.6</ele>
        <time>2022-08-12T07:30:39Z</time>
      </trkpt>
      <trkpt lat="42.3993810" lon="-2.0680830">
        <ele>315.0</ele>
        <time>2022-08-12T07:30:46Z</time>
      </trkpt>
      <trkpt lat="42.3996930" lon="-2.0682810">
        <ele>315.0</ele>
        <time>2022-08-12T07:30:54Z</time>
      </trkpt>
      <trkpt lat="42.3998900" lon="-2.0684050">
        <ele>315.2</ele>
        <time>2022-08-12T07:30:59Z</time>
      </trkpt>
      <trkpt lat="42.4000500" lon="-2.0684970">
        <ele>315.4</ele>
        <time>2022-08-12T07:31:03Z</time>
      </trkpt>
      <trkpt lat="42.4001310" lon="-2.0685390">
        <ele>315.6</ele>
        <time>2022-08-12T07:31:05Z</time>
      </trkpt>
      <trkpt lat="42.4002880" lon="-2.0686280">
        <ele>315.6</ele>
        <time>2022-08-12T07:31:09Z</time>
      </trkpt>
      <trkpt lat="42.4003640" lon="-2.0686910">
        <ele>315.6</ele>
        <time>2022-08-12T07:31:11Z</time>
      </trkpt>
      <trkpt lat="42.4004000" lon="-2.0687280">
        <ele>315.6</ele>
        <time>2022-08-12T07:31:12Z</time>
      </trkpt>
      <trkpt lat="42.4005160" lon="-2.0688540">
        <ele>315.6</ele>
        <time>2022-08-12T07:31:15Z</time>
      </trkpt>
      <trkpt lat="42.4005940" lon="-2.0689210">
        <ele>315.6</ele>
        <time>2022-08-12T07:31:17Z</time>
      </trkpt>
      <trkpt lat="42.4007050" lon="-2.0690320">
        <ele>315.6</ele>
        <time>2022-08-12T07:31:20Z</time>
      </trkpt>
      <trkpt lat="42.4008640" lon="-2.0691750">
        <ele>315.6</ele>
        <time>2022-08-12T07:31:24Z</time>
      </trkpt>
      <trkpt lat="42.4010400" lon="-2.0692750">
        <ele>315.4</ele>
        <time>2022-08-12T07:31:28Z</time>
      </trkpt>
      <trkpt lat="42.4011290" lon="-2.0693070">
        <ele>315.2</ele>
        <time>2022-08-12T07:31:30Z</time>
      </trkpt>
      <trkpt lat="42.4011710" lon="-2.0693210">
        <ele>315.2</ele>
        <time>2022-08-12T07:31:31Z</time>
      </trkpt>
      <trkpt lat="42.4012970" lon="-2.0693570">
        <ele>315.2</ele>
        <time>2022-08-12T07:31:34Z</time>
      </trkpt>
      <trkpt lat="42.4013860" lon="-2.0693720">
        <ele>315.2</ele>
        <time>2022-08-12T07:31:36Z</time>
      </trkpt>
      <trkpt lat="42.4015690" lon="-2.0694340">
        <ele>315.4</ele>
        <time>2022-08-12T07:31:40Z</time>
      </trkpt>
      <trkpt lat="42.4016970" lon="-2.0694750">
        <ele>315.6</ele>
        <time>2022-08-12T07:31:43Z</time>
      </trkpt>
      <trkpt lat="42.4021310" lon="-2.0696180">
        <ele>315.8</ele>
        <time>2022-08-12T07:31:53Z</time>
      </trkpt>
      <trkpt lat="42.4025800" lon="-2.0697080">
        <ele>316.0</ele>
        <time>2022-08-12T07:32:03Z</time>
      </trkpt>
      <trkpt lat="42.4028050" lon="-2.0697070">
        <ele>315.4</ele>
        <time>2022-08-12T07:32:08Z</time>
      </trkpt>
      <trkpt lat="42.4028830" lon="-2.0697460">
        <ele>315.4</ele>
        <time>2022-08-12T07:32:10Z</time>
      </trkpt>
      <trkpt lat="42.4029500" lon="-2.0698590">
        <ele>315.6</ele>
        <time>2022-08-12T07:32:13Z</time>
      </trkpt>
      <trkpt lat="42.4029600" lon="-2.0698910">
        <ele>315.6</ele>
        <time>2022-08-12T07:32:14Z</time>
      </trkpt>
      <trkpt lat="42.4030150" lon="-2.0700040">
        <ele>315.6</ele>
        <time>2022-08-12T07:32:17Z</time>
      </trkpt>
      <trkpt lat="42.4030470" lon="-2.0700160">
        <ele>315.6</ele>
        <time>2022-08-12T07:32:18Z</time>
      </trkpt>
      <trkpt lat="42.4033390" lon="-2.0699620">
        <ele>315.4</ele>
        <time>2022-08-12T07:32:25Z</time>
      </trkpt>
      <trkpt lat="42.4036910" lon="-2.0699000">
        <ele>315.2</ele>
        <time>2022-08-12T07:32:33Z</time>
      </trkpt>
      <trkpt lat="42.4040480" lon="-2.0698360">
        <ele>315.6</ele>
        <time>2022-08-12T07:32:41Z</time>
      </trkpt>
      <trkpt lat="42.4042260" lon="-2.0698120">
        <ele>315.8</ele>
        <time>2022-08-12T07:32:45Z</time>
      </trkpt>
      <trkpt lat="42.4044050" lon="-2.0697780">
        <ele>315.8</ele>
        <time>2022-08-12T07:32:49Z</time>
      </trkpt>
      <trkpt lat="42.4045360" lon="-2.0697440">
        <ele>316.0</ele>
        <time>2022-08-12T07:32:52Z</time>
      </trkpt>
      <trkpt lat="42.4048560" lon="-2.0696600">
        <ele>315.8</ele>
        <time>2022-08-12T07:32:59Z</time>
      </trkpt>
      <trkpt lat="42.4049030" lon="-2.0696510">
        <ele>315.8</ele>
        <time>2022-08-12T07:33:00Z</time>
      </trkpt>
      <trkpt lat="42.4052570" lon="-2.0696270">
        <ele>315.8</ele>
        <time>2022-08-12T07:33:08Z</time>
      </trkpt>
      <trkpt lat="42.4053360" lon="-2.0696230">
        <ele>315.6</ele>
        <time>2022-08-12T07:33:10Z</time>
      </trkpt>
      <trkpt lat="42.4057280" lon="-2.0696130">
        <ele>315.6</ele>
        <time>2022-08-12T07:33:19Z</time>
      </trkpt>
      <trkpt lat="42.4060850" lon="-2.0695950">
        <ele>315.6</ele>
        <time>2022-08-12T07:33:27Z</time>
      </trkpt>
      <trkpt lat="42.4061580" lon="-2.0695910">
        <ele>315.6</ele>
        <time>2022-08-12T07:33:29Z</time>
      </trkpt>
      <trkpt lat="42.4062060" lon="-2.0695900">
        <ele>315.6</ele>
        <time>2022-08-12T07:33:30Z</time>
      </trkpt>
      <trkpt lat="42.4063300" lon="-2.0695800">
        <ele>315.6</ele>
        <time>2022-08-12T07:33:33Z</time>
      </trkpt>
      <trkpt lat="42.4064560" lon="-2.0695640">
        <ele>315.6</ele>
        <time>2022-08-12T07:33:36Z</time>
      </trkpt>
      <trkpt lat="42.4064990" lon="-2.0695630">
        <ele>315.6</ele>
        <time>2022-08-12T07:33:37Z</time>
      </trkpt>
      <trkpt lat="42.4068360" lon="-2.0695850">
        <ele>315.6</ele>
        <time>2022-08-12T07:33:45Z</time>
      </trkpt>
      <trkpt lat="42.4068970" lon="-2.0695380">
        <ele>315.6</ele>
        <time>2022-08-12T07:33:47Z</time>
      </trkpt>
      <trkpt lat="42.4069240" lon="-2.0694930">
        <ele>315.6</ele>
        <time>2022-08-12T07:33:48Z</time>
      </trkpt>
      <trkpt lat="42.4069780" lon="-2.0693940">
        <ele>315.4</ele>
        <time>2022-08-12T07:33:50Z</time>
      </trkpt>
      <trkpt lat="42.4070300" lon="-2.0692890">
        <ele>315.2</ele>
        <time>2022-08-12T07:33:52Z</time>
      </trkpt>
      <trkpt lat="42.4070840" lon="-2.0691930">
        <ele>314.8</ele>
        <time>2022-08-12T07:33:54Z</time>
      </trkpt>
      <trkpt lat="42.4071090" lon="-2.0691650">
        <ele>314.8</ele>
        <time>2022-08-12T07:33:55Z</time>
      </trkpt>
      <trkpt lat="42.4071450" lon="-2.0691350">
        <ele>314.6</ele>
        <time>2022-08-12T07:33:56Z</time>
      </trkpt>
      <trkpt lat="42.4072240" lon="-2.0690940">
        <ele>314.6</ele>
        <time>2022-08-12T07:33:58Z</time>
      </trkpt>
      <trkpt lat="42.4072530" lon="-2.0690850">
        <ele>314.6</ele>
        <time>2022-08-12T07:33:59Z</time>
      </trkpt>
      <trkpt lat="42.4073340" lon="-2.0690540">
        <ele>314.4</ele>
        <time>2022-08-12T07:34:01Z</time>
      </trkpt>
      <trkpt lat="42.4074440" lon="-2.0690030">
        <ele>314.4</ele>
        <time>2022-08-12T07:34:04Z</time>
      </trkpt>
      <trkpt lat="42.4075330" lon="-2.0689670">
        <ele>314.6</ele>
        <time>2022-08-12T07:34:06Z</time>
      </trkpt>
      <trkpt lat="42.4076550" lon="-2.0689240">
        <ele>314.8</ele>
        <time>2022-08-12T07:34:09Z</time>
      </trkpt>
      <trkpt lat="42.4077960" lon="-2.0688700">
        <ele>314.8</ele>
        <time>2022-08-12T07:34:12Z</time>
      </trkpt>
      <trkpt lat="42.4079120" lon="-2.0688310">
        <ele>314.6</ele>
        <time>2022-08-12T07:34:15Z</time>
      </trkpt>
      <trkpt lat="42.4081210" lon="-2.0687490">
        <ele>314.6</ele>
        <time>2022-08-12T07:34:20Z</time>
      </trkpt>
      <trkpt lat="42.4081880" lon="-2.0687210">
        <ele>314.6</ele>
        <time>2022-08-12T07:34:22Z</time>
      </trkpt>
      <trkpt lat="42.4083480" lon="-2.0686350">
        <ele>315.0</ele>
        <time>2022-08-12T07:34:26Z</time>
      </trkpt>
      <trkpt lat="42.4083910" lon="-2.0686100">
        <ele>315.0</ele>
        <time>2022-08-12T07:34:27Z</time>
      </trkpt>
      <trkpt lat="42.4086070" lon="-2.0685120">
        <ele>315.4</ele>
        <time>2022-08-12T07:34:32Z</time>
      </trkpt>
      <trkpt lat="42.4086920" lon="-2.0684770">
        <ele>315.4</ele>
        <time>2022-08-12T07:34:34Z</time>
      </trkpt>
      <trkpt lat="42.4087370" lon="-2.0684590">
        <ele>315.4</ele>
        <time>2022-08-12T07:34:35Z</time>
      </trkpt>
      <trkpt lat="42.4090770" lon="-2.0682790">
        <ele>315.8</ele>
        <time>2022-08-12T07:34:43Z</time>
      </trkpt>
      <trkpt lat="42.4091140" lon="-2.0682520">
        <ele>315.8</ele>
        <time>2022-08-12T07:34:44Z</time>
      </trkpt>
      <trkpt lat="42.4091610" lon="-2.0682280">
        <ele>315.8</ele>
        <time>2022-08-12T07:34:45Z</time>
      </trkpt>
      <trkpt lat="42.4092440" lon="-2.0681840">
        <ele>316.0</ele>
        <time>2022-08-12T07:34:47Z</time>
      </trkpt>
      <trkpt lat="42.4093270" lon="-2.0681180">
        <ele>316.0</ele>
        <time>2022-08-12T07:34:49Z</time>
      </trkpt>
      <trkpt lat="42.4093520" lon="-2.0680950">
        <ele>316.0</ele>
        <time>2022-08-12T07:34:50Z</time>
      </trkpt>
      <trkpt lat="42.4094430" lon="-2.0679780">
        <ele>315.8</ele>
        <time>2022-08-12T07:34:53Z</time>
      </trkpt>
      <trkpt lat="42.4094890" lon="-2.0679400">
        <ele>315.8</ele>
        <time>2022-08-12T07:34:54Z</time>
      </trkpt>
      <trkpt lat="42.4095510" lon="-2.0678750">
        <ele>315.4</ele>
        <time>2022-08-12T07:34:56Z</time>
      </trkpt>
      <trkpt lat="42.4095920" lon="-2.0678400">
        <ele>315.4</ele>
        <time>2022-08-12T07:34:57Z</time>
      </trkpt>
      <trkpt lat="42.4096790" lon="-2.0677810">
        <ele>315.4</ele>
        <time>2022-08-12T07:34:59Z</time>
      </trkpt>
      <trkpt lat="42.4097660" lon="-2.0677400">
        <ele>315.2</ele>
        <time>2022-08-12T07:35:01Z</time>
      </trkpt>
      <trkpt lat="42.4098100" lon="-2.0677260">
        <ele>315.2</ele>
        <time>2022-08-12T07:35:02Z</time>
      </trkpt>
      <trkpt lat="42.4099410" lon="-2.0677020">
        <ele>315.0</ele>
        <time>2022-08-12T07:35:05Z</time>
      </trkpt>
      <trkpt lat="42.4099850" lon="-2.0676960">
        <ele>314.8</ele>
        <time>2022-08-12T07:35:06Z</time>
      </trkpt>
      <trkpt lat="42.4100340" lon="-2.0676950">
        <ele>314.8</ele>
        <time>2022-08-12T07:35:07Z</time>
      </trkpt>
      <trkpt lat="42.4101050" lon="-2.0677000">
        <ele>314.8</ele>
        <time>2022-08-12T07:35:09Z</time>
      </trkpt>
      <trkpt lat="42.4103150" lon="-2.0677330">
        <ele>315.0</ele>
        <time>2022-08-12T07:35:14Z</time>
      </trkpt>
      <trkpt lat="42.4104590" lon="-2.0677570">
        <ele>315.4</ele>
        <time>2022-08-12T07:35:17Z</time>
      </trkpt>
      <trkpt lat="42.4108230" lon="-2.0678240">
        <ele>315.6</ele>
        <time>2022-08-12T07:35:25Z</time>
      </trkpt>
      <trkpt lat="42.4109470" lon="-2.0678440">
        <ele>315.8</ele>
        <time>2022-08-12T07:35:28Z</time>
      </trkpt>
      <trkpt lat="42.4111900" lon="-2.0678690">
        <ele>315.8</ele>
        <time>2022-08-12T07:35:33Z</time>
      </trkpt>
      <trkpt lat="42.4116160" lon="-2.0678900">
        <ele>315.8</ele>
        <time>2022-08-12T07:35:42Z</time>
      </trkpt>
      <trkpt lat="42.4120860" lon="-2.0679300">
        <ele>315.4</ele>
        <time>2022-08-12T07:35:52Z</time>
      </trkpt>
      <trkpt lat="42.4123200" lon="-2.0679770">
        <ele>315.4</ele>
        <time>2022-08-12T07:35:57Z</time>
      </trkpt>
      <trkpt lat="42.4125020" lon="-2.0680200">
        <ele>315.4</ele>
        <time>2022-08-12T07:36:01Z</time>
      </trkpt>
      <trkpt lat="42.4125480" lon="-2.0680340">
        <ele>315.4</ele>
        <time>2022-08-12T07:36:02Z</time>
      </trkpt>
      <trkpt lat="42.4125940" lon="-2.0680490">
        <ele>315.4</ele>
        <time>2022-08-12T07:36:03Z</time>
      </trkpt>
      <trkpt lat="42.4127260" lon="-2.0681060">
        <ele>315.4</ele>
        <time>2022-08-12T07:36:06Z</time>
      </trkpt>
      <trkpt lat="42.4127680" lon="-2.0681320">
        <ele>315.4</ele>
        <time>2022-08-12T07:36:07Z</time>
      </trkpt>
      <trkpt lat="42.4128840" lon="-2.0682280">
        <ele>315.4</ele>
        <time>2022-08-12T07:36:10Z</time>
      </trkpt>
      <trkpt lat="42.4130340" lon="-2.0683770">
        <ele>315.4</ele>
        <time>2022-08-12T07:36:14Z</time>
      </trkpt>
      <trkpt lat="42.4131400" lon="-2.0684840">
        <ele>315.4</ele>
        <time>2022-08-12T07:36:17Z</time>
      </trkpt>
      <trkpt lat="42.4131760" lon="-2.0685150">
        <ele>315.4</ele>
        <time>2022-08-12T07:36:18Z</time>
      </trkpt>
      <trkpt lat="42.4132950" lon="-2.0685990">
        <ele>315.4</ele>
        <time>2022-08-12T07:36:21Z</time>
      </trkpt>
      <trkpt lat="42.4133960" lon="-2.0686620">
        <ele>315.6</ele>
        <time>2022-08-12T07:36:24Z</time>
      </trkpt>
      <trkpt lat="42.4136150" lon="-2.0689130">
        <ele>315.6</ele>
        <time>2022-08-12T07:36:30Z</time>
      </trkpt>
      <trkpt lat="42.4138460" lon="-2.0692090">
        <ele>315.6</ele>
        <time>2022-08-12T07:36:37Z</time>
      </trkpt>
      <trkpt lat="42.4139050" lon="-2.0692900">
        <ele>315.6</ele>
        <time>2022-08-12T07:36:39Z</time>
      </trkpt>
      <trkpt lat="42.4139490" lon="-2.0693370">
        <ele>315.6</ele>
        <time>2022-08-12T07:36:40Z</time>
      </trkpt>
      <trkpt lat="42.4140480" lon="-2.0694350">
        <ele>316.2</ele>
        <time>2022-08-12T07:36:43Z</time>
      </trkpt>
      <trkpt lat="42.4140760" lon="-2.0694680">
        <ele>316.2</ele>
        <time>2022-08-12T07:36:44Z</time>
      </trkpt>
      <trkpt lat="42.4141830" lon="-2.0695870">
        <ele>316.2</ele>
        <time>2022-08-12T07:36:47Z</time>
      </trkpt>
      <trkpt lat="42.4142860" lon="-2.0697030">
        <ele>316.4</ele>
        <time>2022-08-12T07:36:50Z</time>
      </trkpt>
      <trkpt lat="42.4143290" lon="-2.0697450">
        <ele>316.4</ele>
        <time>2022-08-12T07:36:51Z</time>
      </trkpt>
      <trkpt lat="42.4143620" lon="-2.0697740">
        <ele>316.2</ele>
        <time>2022-08-12T07:36:52Z</time>
      </trkpt>
      <trkpt lat="42.4144420" lon="-2.0698590">
        <ele>316.2</ele>
        <time>2022-08-12T07:36:55Z</time>
      </trkpt>
      <trkpt lat="42.4145090" lon="-2.0699550">
        <ele>316.2</ele>
        <time>2022-08-12T07:36:57Z</time>
      </trkpt>
      <trkpt lat="42.4145750" lon="-2.0701100">
        <ele>316.2</ele>
        <time>2022-08-12T07:37:00Z</time>
      </trkpt>
      <trkpt lat="42.4145950" lon="-2.0701880">
        <ele>316.2</ele>
        <time>2022-08-12T07:37:01Z</time>
      </trkpt>
      <trkpt lat="42.4146680" lon="-2.0703230">
        <ele>316.2</ele>
        <time>2022-08-12T07:37:03Z</time>
      </trkpt>
      <trkpt lat="42.4147220" lon="-2.0703810">
        <ele>316.2</ele>
        <time>2022-08-12T07:37:04Z</time>
      </trkpt>
      <trkpt lat="42.4149920" lon="-2.0706570">
        <ele>316.0</ele>
        <time>2022-08-12T07:37:11Z</time>
      </trkpt>
      <trkpt lat="42.4150230" lon="-2.0706960">
        <ele>316.0</ele>
        <time>2022-08-12T07:37:12Z</time>
      </trkpt>
      <trkpt lat="42.4151080" lon="-2.0707750">
        <ele>316.0</ele>
        <time>2022-08-12T07:37:14Z</time>
      </trkpt>
      <trkpt lat="42.4151500" lon="-2.0708280">
        <ele>316.0</ele>
        <time>2022-08-12T07:37:15Z</time>
      </trkpt>
      <trkpt lat="42.4151840" lon="-2.0708630">
        <ele>315.8</ele>
        <time>2022-08-12T07:37:16Z</time>
      </trkpt>
      <trkpt lat="42.4152500" lon="-2.0709380">
        <ele>315.8</ele>
        <time>2022-08-12T07:37:18Z</time>
      </trkpt>
      <trkpt lat="42.4153740" lon="-2.0711030">
        <ele>316.0</ele>
        <time>2022-08-12T07:37:22Z</time>
      </trkpt>
      <trkpt lat="42.4153960" lon="-2.0711390">
        <ele>316.0</ele>
        <time>2022-08-12T07:37:23Z</time>
      </trkpt>
      <trkpt lat="42.4154590" lon="-2.0712340">
        <ele>316.2</ele>
        <time>2022-08-12T07:37:25Z</time>
      </trkpt>
      <trkpt lat="42.4155390" lon="-2.0713840">
        <ele>316.0</ele>
        <time>2022-08-12T07:37:28Z</time>
      </trkpt>
      <trkpt lat="42.4155570" lon="-2.0714160">
        <ele>316.0</ele>
        <time>2022-08-12T07:37:29Z</time>
      </trkpt>
      <trkpt lat="42.4156140" lon="-2.0715120">
        <ele>316.0</ele>
        <time>2022-08-12T07:37:31Z</time>
      </trkpt>
      <trkpt lat="42.4157240" lon="-2.0717960">
        <ele>315.8</ele>
        <time>2022-08-12T07:37:37Z</time>
      </trkpt>
      <trkpt lat="42.4157420" lon="-2.0719290">
        <ele>315.8</ele>
        <time>2022-08-12T07:37:39Z</time>
      </trkpt>
      <trkpt lat="42.4157700" lon="-2.0720730">
        <ele>315.8</ele>
        <time>2022-08-12T07:37:41Z</time>
      </trkpt>
      <trkpt lat="42.4158110" lon="-2.0722730">
        <ele>316.0</ele>
        <time>2022-08-12T07:37:44Z</time>
      </trkpt>
      <trkpt lat="42.4158300" lon="-2.0723370">
        <ele>316.0</ele>
        <time>2022-08-12T07:37:45Z</time>
      </trkpt>
      <trkpt lat="42.4159140" lon="-2.0726690">
        <ele>316.4</ele>
        <time>2022-08-12T07:37:51Z</time>
      </trkpt>
      <trkpt lat="42.4159260" lon="-2.0727200">
        <ele>316.4</ele>
        <time>2022-08-12T07:37:52Z</time>
      </trkpt>
      <trkpt lat="42.4159700" lon="-2.0728340">
        <ele>316.8</ele>
        <time>2022-08-12T07:37:54Z</time>
      </trkpt>
      <trkpt lat="42.4160780" lon="-2.0729780">
        <ele>317.2</ele>
        <time>2022-08-12T07:37:57Z</time>
      </trkpt>
      <trkpt lat="42.4161550" lon="-2.0731100">
        <ele>317.2</ele>
        <time>2022-08-12T07:38:00Z</time>
      </trkpt>
      <trkpt lat="42.4162910" lon="-2.0733630">
        <ele>317.4</ele>
        <time>2022-08-12T07:38:05Z</time>
      </trkpt>
      <trkpt lat="42.4163590" lon="-2.0734780">
        <ele>317.4</ele>
        <time>2022-08-12T07:38:07Z</time>
      </trkpt>
      <trkpt lat="42.4165400" lon="-2.0738010">
        <ele>317.2</ele>
        <time>2022-08-12T07:38:13Z</time>
      </trkpt>
      <trkpt lat="42.4166540" lon="-2.0740390">
        <ele>317.2</ele>
        <time>2022-08-12T07:38:17Z</time>
      </trkpt>
      <trkpt lat="42.4167220" lon="-2.0742460">
        <ele>317.0</ele>
        <time>2022-08-12T07:38:20Z</time>
      </trkpt>
      <trkpt lat="42.4167730" lon="-2.0745050">
        <ele>317.0</ele>
        <time>2022-08-12T07:38:24Z</time>
      </trkpt>
      <trkpt lat="42.4168060" lon="-2.0747100">
        <ele>317.2</ele>
        <time>2022-08-12T07:38:27Z</time>
      </trkpt>
      <trkpt lat="42.4168210" lon="-2.0747930">
        <ele>317.2</ele>
        <time>2022-08-12T07:38:28Z</time>
      </trkpt>
      <trkpt lat="42.4168500" lon="-2.0749320">
        <ele>317.2</ele>
        <time>2022-08-12T07:38:30Z</time>
      </trkpt>
      <trkpt lat="42.4168880" lon="-2.0750590">
        <ele>317.4</ele>
        <time>2022-08-12T07:38:32Z</time>
      </trkpt>
      <trkpt lat="42.4169320" lon="-2.0751710">
        <ele>317.4</ele>
        <time>2022-08-12T07:38:34Z</time>
      </trkpt>
      <trkpt lat="42.4169580" lon="-2.0752320">
        <ele>317.6</ele>
        <time>2022-08-12T07:38:35Z</time>
      </trkpt>
      <trkpt lat="42.4170730" lon="-2.0754670">
        <ele>317.4</ele>
        <time>2022-08-12T07:38:39Z</time>
      </trkpt>
      <trkpt lat="42.4171360" lon="-2.0756040">
        <ele>317.4</ele>
        <time>2022-08-12T07:38:41Z</time>
      </trkpt>
      <trkpt lat="42.4172070" lon="-2.0757830">
        <ele>317.6</ele>
        <time>2022-08-12T07:38:44Z</time>
      </trkpt>
      <trkpt lat="42.4173940" lon="-2.0762400">
        <ele>317.4</ele>
        <time>2022-08-12T07:38:51Z</time>
      </trkpt>
      <trkpt lat="42.4174380" lon="-2.0763560">
        <ele>317.4</ele>
        <time>2022-08-12T07:38:53Z</time>
      </trkpt>
      <trkpt lat="42.4174670" lon="-2.0764340">
        <ele>317.4</ele>
        <time>2022-08-12T07:38:54Z</time>
      </trkpt>
      <trkpt lat="42.4175070" lon="-2.0765490">
        <ele>317.4</ele>
        <time>2022-08-12T07:38:56Z</time>
      </trkpt>
      <trkpt lat="42.4175570" lon="-2.0766810">
        <ele>317.4</ele>
        <time>2022-08-12T07:38:58Z</time>
      </trkpt>
      <trkpt lat="42.4176090" lon="-2.0767920">
        <ele>317.4</ele>
        <time>2022-08-12T07:39:00Z</time>
      </trkpt>
      <trkpt lat="42.4176290" lon="-2.0768350">
        <ele>317.4</ele>
        <time>2022-08-12T07:39:01Z</time>
      </trkpt>
      <trkpt lat="42.4176560" lon="-2.0768880">
        <ele>317.6</ele>
        <time>2022-08-12T07:39:02Z</time>
      </trkpt>
      <trkpt lat="42.4177180" lon="-2.0769870">
        <ele>317.6</ele>
        <time>2022-08-12T07:39:04Z</time>
      </trkpt>
      <trkpt lat="42.4177730" lon="-2.0770830">
        <ele>317.4</ele>
        <time>2022-08-12T07:39:06Z</time>
      </trkpt>
      <trkpt lat="42.4178270" lon="-2.0772320">
        <ele>317.6</ele>
        <time>2022-08-12T07:39:09Z</time>
      </trkpt>
      <trkpt lat="42.4178500" lon="-2.0773080">
        <ele>317.6</ele>
        <time>2022-08-12T07:39:11Z</time>
      </trkpt>
      <trkpt lat="42.4178870" lon="-2.0773680">
        <ele>317.6</ele>
        <time>2022-08-12T07:39:14Z</time>
      </trkpt>
      <trkpt lat="42.4179080" lon="-2.0773970">
        <ele>317.8</ele>
        <time>2022-08-12T07:39:16Z</time>
      </trkpt>
      <trkpt lat="42.4179620" lon="-2.0774890">
        <ele>318.0</ele>
        <time>2022-08-12T07:39:21Z</time>
      </trkpt>
      <trkpt lat="42.4179900" lon="-2.0775210">
        <ele>318.0</ele>
        <time>2022-08-12T07:39:22Z</time>
      </trkpt>
      <trkpt lat="42.4181040" lon="-2.0776190">
        <ele>318.2</ele>
        <time>2022-08-12T07:39:26Z</time>
      </trkpt>
      <trkpt lat="42.4181480" lon="-2.0776880">
        <ele>318.2</ele>
        <time>2022-08-12T07:39:28Z</time>
      </trkpt>
      <trkpt lat="42.4181740" lon="-2.0777460">
        <ele>318.2</ele>
        <time>2022-08-12T07:39:29Z</time>
      </trkpt>
      <trkpt lat="42.4181940" lon="-2.0778670">
        <ele>318.4</ele>
        <time>2022-08-12T07:39:31Z</time>
      </trkpt>
      <trkpt lat="42.4181930" lon="-2.0779180">
        <ele>318.4</ele>
        <time>2022-08-12T07:39:32Z</time>
      </trkpt>
      <trkpt lat="42.4181830" lon="-2.0779770">
        <ele>318.4</ele>
        <time>2022-08-12T07:39:33Z</time>
      </trkpt>
      <trkpt lat="42.4181380" lon="-2.0780980">
        <ele>318.6</ele>
        <time>2022-08-12T07:39:35Z</time>
      </trkpt>
      <trkpt lat="42.4181150" lon="-2.0781510">
        <ele>318.6</ele>
        <time>2022-08-12T07:39:36Z</time>
      </trkpt>
      <trkpt lat="42.4180730" lon="-2.0782530">
        <ele>318.6</ele>
        <time>2022-08-12T07:39:38Z</time>
      </trkpt>
      <trkpt lat="42.4180310" lon="-2.0784150">
        <ele>318.4</ele>
        <time>2022-08-12T07:39:41Z</time>
      </trkpt>
      <trkpt lat="42.4180560" lon="-2.0784600">
        <ele>318.4</ele>
        <time>2022-08-12T07:39:42Z</time>
      </trkpt>
      <trkpt lat="42.4181350" lon="-2.0785390">
        <ele>318.4</ele>
        <time>2022-08-12T07:39:44Z</time>
      </trkpt>
      <trkpt lat="42.4182110" lon="-2.0786060">
        <ele>318.2</ele>
        <time>2022-08-12T07:39:46Z</time>
      </trkpt>
      <trkpt lat="42.4182590" lon="-2.0786560">
        <ele>318.2</ele>
        <time>2022-08-12T07:39:47Z</time>
      </trkpt>
      <trkpt lat="42.4184080" lon="-2.0788650">
        <ele>317.8</ele>
        <time>2022-08-12T07:39:51Z</time>
      </trkpt>
      <trkpt lat="42.4184790" lon="-2.0790550">
        <ele>317.6</ele>
        <time>2022-08-12T07:39:54Z</time>
      </trkpt>
      <trkpt lat="42.4185550" lon="-2.0792690">
        <ele>317.4</ele>
        <time>2022-08-12T07:39:57Z</time>
      </trkpt>
      <trkpt lat="42.4185950" lon="-2.0793930">
        <ele>317.4</ele>
        <time>2022-08-12T07:39:59Z</time>
      </trkpt>
      <trkpt lat="42.4186480" lon="-2.0795510">
        <ele>317.2</ele>
        <time>2022-08-12T07:40:01Z</time>
      </trkpt>
      <trkpt lat="42.4186950" lon="-2.0796730">
        <ele>317.2</ele>
        <time>2022-08-12T07:40:03Z</time>
      </trkpt>
      <trkpt lat="42.4188010" lon="-2.0799820">
        <ele>317.2</ele>
        <time>2022-08-12T07:40:08Z</time>
      </trkpt>
      <trkpt lat="42.4188500" lon="-2.0801040">
        <ele>317.0</ele>
        <time>2022-08-12T07:40:10Z</time>
      </trkpt>
      <trkpt lat="42.4189340" lon="-2.0804140">
        <ele>317.2</ele>
        <time>2022-08-12T07:40:16Z</time>
      </trkpt>
      <trkpt lat="42.4189380" lon="-2.0804710">
        <ele>317.2</ele>
        <time>2022-08-12T07:40:17Z</time>
      </trkpt>
      <trkpt lat="42.4189420" lon="-2.0805540">
        <ele>317.4</ele>
        <time>2022-08-12T07:40:18Z</time>
      </trkpt>
      <trkpt lat="42.4189620" lon="-2.0807050">
        <ele>317.4</ele>
        <time>2022-08-12T07:40:20Z</time>
      </trkpt>
      <trkpt lat="42.4189760" lon="-2.0808510">
        <ele>317.4</ele>
        <time>2022-08-12T07:40:22Z</time>
      </trkpt>
      <trkpt lat="42.4190020" lon="-2.0809710">
        <ele>317.6</ele>
        <time>2022-08-12T07:40:24Z</time>
      </trkpt>
      <trkpt lat="42.4190690" lon="-2.0813360">
        <ele>317.8</ele>
        <time>2022-08-12T07:40:29Z</time>
      </trkpt>
      <trkpt lat="42.4191320" lon="-2.0817560">
        <ele>317.6</ele>
        <time>2022-08-12T07:40:35Z</time>
      </trkpt>
      <trkpt lat="42.4191560" lon="-2.0819690">
        <ele>317.6</ele>
        <time>2022-08-12T07:40:38Z</time>
      </trkpt>
      <trkpt lat="42.4191900" lon="-2.0822310">
        <ele>317.4</ele>
        <time>2022-08-12T07:40:42Z</time>
      </trkpt>
      <trkpt lat="42.4191950" lon="-2.0822860">
        <ele>317.4</ele>
        <time>2022-08-12T07:40:43Z</time>
      </trkpt>
      <trkpt lat="42.4192130" lon="-2.0824300">
        <ele>317.4</ele>
        <time>2022-08-12T07:40:45Z</time>
      </trkpt>
      <trkpt lat="42.4192440" lon="-2.0825610">
        <ele>317.2</ele>
        <time>2022-08-12T07:40:47Z</time>
      </trkpt>
      <trkpt lat="42.4192570" lon="-2.0826240">
        <ele>317.2</ele>
        <time>2022-08-12T07:40:48Z</time>
      </trkpt>
      <trkpt lat="42.4192900" lon="-2.0827660">
        <ele>317.4</ele>
        <time>2022-08-12T07:40:50Z</time>
      </trkpt>
      <trkpt lat="42.4193670" lon="-2.0829330">
        <ele>317.2</ele>
        <time>2022-08-12T07:40:53Z</time>
      </trkpt>
      <trkpt lat="42.4194250" lon="-2.0830320">
        <ele>317.4</ele>
        <time>2022-08-12T07:40:55Z</time>
      </trkpt>
      <trkpt lat="42.4194450" lon="-2.0830770">
        <ele>317.4</ele>
        <time>2022-08-12T07:40:56Z</time>
      </trkpt>
      <trkpt lat="42.4194750" lon="-2.0831530">
        <ele>317.4</ele>
        <time>2022-08-12T07:40:57Z</time>
      </trkpt>
      <trkpt lat="42.4194990" lon="-2.0832140">
        <ele>317.4</ele>
        <time>2022-08-12T07:40:58Z</time>
      </trkpt>
      <trkpt lat="42.4195250" lon="-2.0832720">
        <ele>317.2</ele>
        <time>2022-08-12T07:40:59Z</time>
      </trkpt>
      <trkpt lat="42.4195990" lon="-2.0834310">
        <ele>317.4</ele>
        <time>2022-08-12T07:41:02Z</time>
      </trkpt>
      <trkpt lat="42.4196250" lon="-2.0834860">
        <ele>317.4</ele>
        <time>2022-08-12T07:41:03Z</time>
      </trkpt>
      <trkpt lat="42.4196660" lon="-2.0835990">
        <ele>317.4</ele>
        <time>2022-08-12T07:41:05Z</time>
      </trkpt>
      <trkpt lat="42.4197160" lon="-2.0838490">
        <ele>317.4</ele>
        <time>2022-08-12T07:41:09Z</time>
      </trkpt>
      <trkpt lat="42.4197270" lon="-2.0839620">
        <ele>317.4</ele>
        <time>2022-08-12T07:41:11Z</time>
      </trkpt>
      <trkpt lat="42.4197710" lon="-2.0842030">
        <ele>317.4</ele>
        <time>2022-08-12T07:41:16Z</time>
      </trkpt>
      <trkpt lat="42.4197820" lon="-2.0842150">
        <ele>317.4</ele>
        <time>2022-08-12T07:41:17Z</time>
      </trkpt>
      <trkpt lat="42.4197950" lon="-2.0842310">
        <ele>317.4</ele>
        <time>2022-08-12T07:41:19Z</time>
      </trkpt>
      <trkpt lat="42.4197950" lon="-2.0842310">
        <ele>316.8</ele>
        <time>2022-08-12T07:45:32Z</time>
      </trkpt>
      <trkpt lat="42.4197940" lon="-2.0842350">
        <ele>316.8</ele>
        <time>2022-08-12T07:45:33Z</time>
      </trkpt>
      <trkpt lat="42.4197850" lon="-2.0842540">
        <ele>316.8</ele>
        <time>2022-08-12T07:45:34Z</time>
      </trkpt>
      <trkpt lat="42.4197650" lon="-2.0843040">
        <ele>316.8</ele>
        <time>2022-08-12T07:45:36Z</time>
      </trkpt>
      <trkpt lat="42.4197670" lon="-2.0843630">
        <ele>316.8</ele>
        <time>2022-08-12T07:45:38Z</time>
      </trkpt>
      <trkpt lat="42.4197900" lon="-2.0845650">
        <ele>316.8</ele>
        <time>2022-08-12T07:45:44Z</time>
      </trkpt>
      <trkpt lat="42.4198130" lon="-2.0847550">
        <ele>317.0</ele>
        <time>2022-08-12T07:45:48Z</time>
      </trkpt>
      <trkpt lat="42.4198220" lon="-2.0848530">
        <ele>317.0</ele>
        <time>2022-08-12T07:45:50Z</time>
      </trkpt>
      <trkpt lat="42.4198390" lon="-2.0849900">
        <ele>317.0</ele>
        <time>2022-08-12T07:45:53Z</time>
      </trkpt>
      <trkpt lat="42.4198510" lon="-2.0850660">
        <ele>317.0</ele>
        <time>2022-08-12T07:45:55Z</time>
      </trkpt>
      <trkpt lat="42.4198810" lon="-2.0852760">
        <ele>317.0</ele>
        <time>2022-08-12T07:46:00Z</time>
      </trkpt>
      <trkpt lat="42.4198900" lon="-2.0853490">
        <ele>317.0</ele>
        <time>2022-08-12T07:46:02Z</time>
      </trkpt>
      <trkpt lat="42.4199260" lon="-2.0854960">
        <ele>317.0</ele>
        <time>2022-08-12T07:46:05Z</time>
      </trkpt>
      <trkpt lat="42.4199390" lon="-2.0855380">
        <ele>317.0</ele>
        <time>2022-08-12T07:46:06Z</time>
      </trkpt>
      <trkpt lat="42.4199650" lon="-2.0856220">
        <ele>317.0</ele>
        <time>2022-08-12T07:46:08Z</time>
      </trkpt>
      <trkpt lat="42.4200400" lon="-2.0858990">
        <ele>317.2</ele>
        <time>2022-08-12T07:46:13Z</time>
      </trkpt>
      <trkpt lat="42.4200730" lon="-2.0860640">
        <ele>317.4</ele>
        <time>2022-08-12T07:46:16Z</time>
      </trkpt>
      <trkpt lat="42.4201000" lon="-2.0861670">
        <ele>317.4</ele>
        <time>2022-08-12T07:46:18Z</time>
      </trkpt>
      <trkpt lat="42.4201500" lon="-2.0863400">
        <ele>317.4</ele>
        <time>2022-08-12T07:46:22Z</time>
      </trkpt>
      <trkpt lat="42.4201740" lon="-2.0864460">
        <ele>317.4</ele>
        <time>2022-08-12T07:46:25Z</time>
      </trkpt>
      <trkpt lat="42.4202240" lon="-2.0866330">
        <ele>317.6</ele>
        <time>2022-08-12T07:46:29Z</time>
      </trkpt>
      <trkpt lat="42.4202930" lon="-2.0868850">
        <ele>317.6</ele>
        <time>2022-08-12T07:46:34Z</time>
      </trkpt>
      <trkpt lat="42.4203150" lon="-2.0869480">
        <ele>317.6</ele>
        <time>2022-08-12T07:46:35Z</time>
      </trkpt>
      <trkpt lat="42.4204050" lon="-2.0872320">
        <ele>317.6</ele>
        <time>2022-08-12T07:46:40Z</time>
      </trkpt>
      <trkpt lat="42.4205010" lon="-2.0877640">
        <ele>318.0</ele>
        <time>2022-08-12T07:46:49Z</time>
      </trkpt>
      <trkpt lat="42.4205250" lon="-2.0881570">
        <ele>318.2</ele>
        <time>2022-08-12T07:46:56Z</time>
      </trkpt>
      <trkpt lat="42.4205690" lon="-2.0885790">
        <ele>318.2</ele>
        <time>2022-08-12T07:47:03Z</time>
      </trkpt>
      <trkpt lat="42.4205970" lon="-2.0888970">
        <ele>318.2</ele>
        <time>2022-08-12T07:47:08Z</time>
      </trkpt>
      <trkpt lat="42.4206090" lon="-2.0890740">
        <ele>318.2</ele>
        <time>2022-08-12T07:47:11Z</time>
      </trkpt>
      <trkpt lat="42.4206230" lon="-2.0892020">
        <ele>318.2</ele>
        <time>2022-08-12T07:47:13Z</time>
      </trkpt>
      <trkpt lat="42.4206400" lon="-2.0893120">
        <ele>318.2</ele>
        <time>2022-08-12T07:47:15Z</time>
      </trkpt>
      <trkpt lat="42.4206490" lon="-2.0894280">
        <ele>318.2</ele>
        <time>2022-08-12T07:47:17Z</time>
      </trkpt>
      <trkpt lat="42.4206490" lon="-2.0898160">
        <ele>318.0</ele>
        <time>2022-08-12T07:47:23Z</time>
      </trkpt>
      <trkpt lat="42.4206410" lon="-2.0899660">
        <ele>318.0</ele>
        <time>2022-08-12T07:47:25Z</time>
      </trkpt>
      <trkpt lat="42.4206510" lon="-2.0901950">
        <ele>318.0</ele>
        <time>2022-08-12T07:47:28Z</time>
      </trkpt>
      <trkpt lat="42.4206500" lon="-2.0902860">
        <ele>318.0</ele>
        <time>2022-08-12T07:47:29Z</time>
      </trkpt>
      <trkpt lat="42.4206310" lon="-2.0904450">
        <ele>318.0</ele>
        <time>2022-08-12T07:47:31Z</time>
      </trkpt>
      <trkpt lat="42.4206230" lon="-2.0905820">
        <ele>318.0</ele>
        <time>2022-08-12T07:47:33Z</time>
      </trkpt>
      <trkpt lat="42.4206110" lon="-2.0907900">
        <ele>318.0</ele>
        <time>2022-08-12T07:47:36Z</time>
      </trkpt>
      <trkpt lat="42.4205830" lon="-2.0908840">
        <ele>318.0</ele>
        <time>2022-08-12T07:47:38Z</time>
      </trkpt>
      <trkpt lat="42.4205500" lon="-2.0909420">
        <ele>318.2</ele>
        <time>2022-08-12T07:47:40Z</time>
      </trkpt>
      <trkpt lat="42.4204990" lon="-2.0909550">
        <ele>318.2</ele>
        <time>2022-08-12T07:47:42Z</time>
      </trkpt>
      <trkpt lat="42.4203110" lon="-2.0909890">
        <ele>318.2</ele>
        <time>2022-08-12T07:47:47Z</time>
      </trkpt>
      <trkpt lat="42.4202700" lon="-2.0910030">
        <ele>318.2</ele>
        <time>2022-08-12T07:47:48Z</time>
      </trkpt>
      <trkpt lat="42.4201860" lon="-2.0910300">
        <ele>318.2</ele>
        <time>2022-08-12T07:47:50Z</time>
      </trkpt>
      <trkpt lat="42.4200060" lon="-2.0910910">
        <ele>318.4</ele>
        <time>2022-08-12T07:47:54Z</time>
      </trkpt>
      <trkpt lat="42.4199150" lon="-2.0911200">
        <ele>318.4</ele>
        <time>2022-08-12T07:47:56Z</time>
      </trkpt>
      <trkpt lat="42.4197240" lon="-2.0911830">
        <ele>318.4</ele>
        <time>2022-08-12T07:48:00Z</time>
      </trkpt>
      <trkpt lat="42.4196330" lon="-2.0912150">
        <ele>318.6</ele>
        <time>2022-08-12T07:48:02Z</time>
      </trkpt>
      <trkpt lat="42.4195850" lon="-2.0912330">
        <ele>318.6</ele>
        <time>2022-08-12T07:48:03Z</time>
      </trkpt>
      <trkpt lat="42.4194870" lon="-2.0912670">
        <ele>318.6</ele>
        <time>2022-08-12T07:48:05Z</time>
      </trkpt>
      <trkpt lat="42.4193580" lon="-2.0913190">
        <ele>318.6</ele>
        <time>2022-08-12T07:48:08Z</time>
      </trkpt>
      <trkpt lat="42.4192080" lon="-2.0913800">
        <ele>318.8</ele>
        <time>2022-08-12T07:48:11Z</time>
      </trkpt>
      <trkpt lat="42.4188350" lon="-2.0915380">
        <ele>318.8</ele>
        <time>2022-08-12T07:48:19Z</time>
      </trkpt>
      <trkpt lat="42.4186100" lon="-2.0916520">
        <ele>319.0</ele>
        <time>2022-08-12T07:48:24Z</time>
      </trkpt>
      <trkpt lat="42.4184810" lon="-2.0917250">
        <ele>319.0</ele>
        <time>2022-08-12T07:48:27Z</time>
      </trkpt>
      <trkpt lat="42.4183980" lon="-2.0917770">
        <ele>319.0</ele>
        <time>2022-08-12T07:48:29Z</time>
      </trkpt>
      <trkpt lat="42.4182680" lon="-2.0918620">
        <ele>318.8</ele>
        <time>2022-08-12T07:48:32Z</time>
      </trkpt>
      <trkpt lat="42.4182260" lon="-2.0918950">
        <ele>318.8</ele>
        <time>2022-08-12T07:48:33Z</time>
      </trkpt>
      <trkpt lat="42.4181400" lon="-2.0919620">
        <ele>318.8</ele>
        <time>2022-08-12T07:48:35Z</time>
      </trkpt>
      <trkpt lat="42.4179730" lon="-2.0921120">
        <ele>319.0</ele>
        <time>2022-08-12T07:48:39Z</time>
      </trkpt>
      <trkpt lat="42.4178880" lon="-2.0921820">
        <ele>319.0</ele>
        <time>2022-08-12T07:48:41Z</time>
      </trkpt>
      <trkpt lat="42.4177610" lon="-2.0922830">
        <ele>319.0</ele>
        <time>2022-08-12T07:48:44Z</time>
      </trkpt>
      <trkpt lat="42.4176760" lon="-2.0923490">
        <ele>319.0</ele>
        <time>2022-08-12T07:48:46Z</time>
      </trkpt>
      <trkpt lat="42.4175910" lon="-2.0924120">
        <ele>319.0</ele>
        <time>2022-08-12T07:48:48Z</time>
      </trkpt>
      <trkpt lat="42.4170910" lon="-2.0927780">
        <ele>319.0</ele>
        <time>2022-08-12T07:49:00Z</time>
      </trkpt>
      <trkpt lat="42.4170480" lon="-2.0928100">
        <ele>318.8</ele>
        <time>2022-08-12T07:49:01Z</time>
      </trkpt>
      <trkpt lat="42.4166060" lon="-2.0931430">
        <ele>319.0</ele>
        <time>2022-08-12T07:49:12Z</time>
      </trkpt>
      <trkpt lat="42.4165190" lon="-2.0932280">
        <ele>319.2</ele>
        <time>2022-08-12T07:49:15Z</time>
      </trkpt>
      <trkpt lat="42.4164500" lon="-2.0933040">
        <ele>319.2</ele>
        <time>2022-08-12T07:49:17Z</time>
      </trkpt>
      <trkpt lat="42.4163690" lon="-2.0934040">
        <ele>319.2</ele>
        <time>2022-08-12T07:49:20Z</time>
      </trkpt>
      <trkpt lat="42.4162710" lon="-2.0935210">
        <ele>319.4</ele>
        <time>2022-08-12T07:49:23Z</time>
      </trkpt>
      <trkpt lat="42.4162480" lon="-2.0935550">
        <ele>319.4</ele>
        <time>2022-08-12T07:49:24Z</time>
      </trkpt>
      <trkpt lat="42.4161860" lon="-2.0936400">
        <ele>319.6</ele>
        <time>2022-08-12T07:49:26Z</time>
      </trkpt>
      <trkpt lat="42.4161200" lon="-2.0937400">
        <ele>319.8</ele>
        <time>2022-08-12T07:49:28Z</time>
      </trkpt>
      <trkpt lat="42.4158410" lon="-2.0941990">
        <ele>320.4</ele>
        <time>2022-08-12T07:49:38Z</time>
      </trkpt>
      <trkpt lat="42.4156540" lon="-2.0944760">
        <ele>320.4</ele>
        <time>2022-08-12T07:49:44Z</time>
      </trkpt>
      <trkpt lat="42.4155560" lon="-2.0946210">
        <ele>320.6</ele>
        <time>2022-08-12T07:49:47Z</time>
      </trkpt>
      <trkpt lat="42.4154910" lon="-2.0947150">
        <ele>320.6</ele>
        <time>2022-08-12T07:49:49Z</time>
      </trkpt>
      <trkpt lat="42.4153920" lon="-2.0948530">
        <ele>320.6</ele>
        <time>2022-08-12T07:49:52Z</time>
      </trkpt>
      <trkpt lat="42.4153590" lon="-2.0949000">
        <ele>320.6</ele>
        <time>2022-08-12T07:49:53Z</time>
      </trkpt>
      <trkpt lat="42.4152060" lon="-2.0951310">
        <ele>320.8</ele>
        <time>2022-08-12T07:49:58Z</time>
      </trkpt>
      <trkpt lat="42.4151750" lon="-2.0951730">
        <ele>320.8</ele>
        <time>2022-08-12T07:49:59Z</time>
      </trkpt>
      <trkpt lat="42.4150900" lon="-2.0953050">
        <ele>321.2</ele>
        <time>2022-08-12T07:50:02Z</time>
      </trkpt>
      <trkpt lat="42.4149460" lon="-2.0955200">
        <ele>321.6</ele>
        <time>2022-08-12T07:50:07Z</time>
      </trkpt>
      <trkpt lat="42.4148630" lon="-2.0956570">
        <ele>321.6</ele>
        <time>2022-08-12T07:50:10Z</time>
      </trkpt>
      <trkpt lat="42.4147540" lon="-2.0958370">
        <ele>322.0</ele>
        <time>2022-08-12T07:50:14Z</time>
      </trkpt>
      <trkpt lat="42.4147260" lon="-2.0958840">
        <ele>322.0</ele>
        <time>2022-08-12T07:50:15Z</time>
      </trkpt>
      <trkpt lat="42.4146970" lon="-2.0959330">
        <ele>322.2</ele>
        <time>2022-08-12T07:50:16Z</time>
      </trkpt>
      <trkpt lat="42.4145900" lon="-2.0961050">
        <ele>322.4</ele>
        <time>2022-08-12T07:50:20Z</time>
      </trkpt>
      <trkpt lat="42.4145290" lon="-2.0962130">
        <ele>322.2</ele>
        <time>2022-08-12T07:50:22Z</time>
      </trkpt>
      <trkpt lat="42.4144590" lon="-2.0963490">
        <ele>322.4</ele>
        <time>2022-08-12T07:50:25Z</time>
      </trkpt>
      <trkpt lat="42.4144120" lon="-2.0964490">
        <ele>322.2</ele>
        <time>2022-08-12T07:50:27Z</time>
      </trkpt>
      <trkpt lat="42.4143710" lon="-2.0965610">
        <ele>322.4</ele>
        <time>2022-08-12T07:50:29Z</time>
      </trkpt>
      <trkpt lat="42.4143450" lon="-2.0966500">
        <ele>322.6</ele>
        <time>2022-08-12T07:50:31Z</time>
      </trkpt>
      <trkpt lat="42.4143180" lon="-2.0967570">
        <ele>322.8</ele>
        <time>2022-08-12T07:50:33Z</time>
      </trkpt>
      <trkpt lat="42.4143030" lon="-2.0968160">
        <ele>322.8</ele>
        <time>2022-08-12T07:50:34Z</time>
      </trkpt>
      <trkpt lat="42.4142630" lon="-2.0969630">
        <ele>323.0</ele>
        <time>2022-08-12T07:50:37Z</time>
      </trkpt>
      <trkpt lat="42.4141910" lon="-2.0972130">
        <ele>323.6</ele>
        <time>2022-08-12T07:50:43Z</time>
      </trkpt>
      <trkpt lat="42.4141590" lon="-2.0972900">
        <ele>323.8</ele>
        <time>2022-08-12T07:50:45Z</time>
      </trkpt>
      <trkpt lat="42.4141310" lon="-2.0973570">
        <ele>324.2</ele>
        <time>2022-08-12T07:50:47Z</time>
      </trkpt>
      <trkpt lat="42.4141100" lon="-2.0974170">
        <ele>324.6</ele>
        <time>2022-08-12T07:50:49Z</time>
      </trkpt>
      <trkpt lat="42.4140830" lon="-2.0974860">
        <ele>325.0</ele>
        <time>2022-08-12T07:50:51Z</time>
      </trkpt>
      <trkpt lat="42.4140280" lon="-2.0976260">
        <ele>326.0</ele>
        <time>2022-08-12T07:50:56Z</time>
      </trkpt>
      <trkpt lat="42.4139750" lon="-2.0977510">
        <ele>327.2</ele>
        <time>2022-08-12T07:51:00Z</time>
      </trkpt>
      <trkpt lat="42.4139380" lon="-2.0978340">
        <ele>327.8</ele>
        <time>2022-08-12T07:51:03Z</time>
      </trkpt>
      <trkpt lat="42.4139170" lon="-2.0978860">
        <ele>328.2</ele>
        <time>2022-08-12T07:51:05Z</time>
      </trkpt>
      <trkpt lat="42.4138800" lon="-2.0979660">
        <ele>329.0</ele>
        <time>2022-08-12T07:51:08Z</time>
      </trkpt>
      <trkpt lat="42.4138540" lon="-2.0980240">
        <ele>329.4</ele>
        <time>2022-08-12T07:51:10Z</time>
      </trkpt>
      <trkpt lat="42.4137910" lon="-2.0981600">
        <ele>330.6</ele>
        <time>2022-08-12T07:51:15Z</time>
      </trkpt>
      <trkpt lat="42.4137490" lon="-2.0982460">
        <ele>331.0</ele>
        <time>2022-08-12T07:51:18Z</time>
      </trkpt>
      <trkpt lat="42.4137200" lon="-2.0983030">
        <ele>331.6</ele>
        <time>2022-08-12T07:51:20Z</time>
      </trkpt>
      <trkpt lat="42.4136770" lon="-2.0983950">
        <ele>332.2</ele>
        <time>2022-08-12T07:51:23Z</time>
      </trkpt>
      <trkpt lat="42.4136340" lon="-2.0984960">
        <ele>332.8</ele>
        <time>2022-08-12T07:51:26Z</time>
      </trkpt>
      <trkpt lat="42.4135680" lon="-2.0986590">
        <ele>333.8</ele>
        <time>2022-08-12T07:51:31Z</time>
      </trkpt>
      <trkpt lat="42.4135220" lon="-2.0987610">
        <ele>334.6</ele>
        <time>2022-08-12T07:51:34Z</time>
      </trkpt>
      <trkpt lat="42.4134140" lon="-2.0989800">
        <ele>335.0</ele>
        <time>2022-08-12T07:51:40Z</time>
      </trkpt>
      <trkpt lat="42.4133740" lon="-2.0990630">
        <ele>335.0</ele>
        <time>2022-08-12T07:51:42Z</time>
      </trkpt>
      <trkpt lat="42.4133540" lon="-2.0991050">
        <ele>335.0</ele>
        <time>2022-08-12T07:51:43Z</time>
      </trkpt>
      <trkpt lat="42.4132660" lon="-2.0992870">
        <ele>334.8</ele>
        <time>2022-08-12T07:51:47Z</time>
      </trkpt>
      <trkpt lat="42.4132170" lon="-2.0994010">
        <ele>334.6</ele>
        <time>2022-08-12T07:51:49Z</time>
      </trkpt>
      <trkpt lat="42.4131840" lon="-2.0994720">
        <ele>334.4</ele>
        <time>2022-08-12T07:51:50Z</time>
      </trkpt>
      <trkpt lat="42.4131610" lon="-2.0995200">
        <ele>334.2</ele>
        <time>2022-08-12T07:51:51Z</time>
      </trkpt>
      <trkpt lat="42.4131340" lon="-2.0995760">
        <ele>334.0</ele>
        <time>2022-08-12T07:51:52Z</time>
      </trkpt>
      <trkpt lat="42.4129770" lon="-2.0999190">
        <ele>333.0</ele>
        <time>2022-08-12T07:51:58Z</time>
      </trkpt>
      <trkpt lat="42.4129550" lon="-2.0999670">
        <ele>332.8</ele>
        <time>2022-08-12T07:51:59Z</time>
      </trkpt>
      <trkpt lat="42.4129330" lon="-2.1000080">
        <ele>332.8</ele>
        <time>2022-08-12T07:52:00Z</time>
      </trkpt>
      <trkpt lat="42.4129130" lon="-2.1000440">
        <ele>332.6</ele>
        <time>2022-08-12T07:52:01Z</time>
      </trkpt>
      <trkpt lat="42.4128840" lon="-2.1001160">
        <ele>332.6</ele>
        <time>2022-08-12T07:52:03Z</time>
      </trkpt>
      <trkpt lat="42.4128650" lon="-2.1001870">
        <ele>332.4</ele>
        <time>2022-08-12T07:52:05Z</time>
      </trkpt>
      <trkpt lat="42.4128760" lon="-2.1002560">
        <ele>332.4</ele>
        <time>2022-08-12T07:52:07Z</time>
      </trkpt>
      <trkpt lat="42.4128860" lon="-2.1002930">
        <ele>332.4</ele>
        <time>2022-08-12T07:52:08Z</time>
      </trkpt>
      <trkpt lat="42.4129530" lon="-2.1004230">
        <ele>332.8</ele>
        <time>2022-08-12T07:52:13Z</time>
      </trkpt>
      <trkpt lat="42.4130670" lon="-2.1005170">
        <ele>333.6</ele>
        <time>2022-08-12T07:52:19Z</time>
      </trkpt>
      <trkpt lat="42.4131570" lon="-2.1005730">
        <ele>334.0</ele>
        <time>2022-08-12T07:52:23Z</time>
      </trkpt>
      <trkpt lat="42.4132110" lon="-2.1006220">
        <ele>334.2</ele>
        <time>2022-08-12T07:52:26Z</time>
      </trkpt>
      <trkpt lat="42.4133510" lon="-2.1007760">
        <ele>335.2</ele>
        <time>2022-08-12T07:52:34Z</time>
      </trkpt>
      <trkpt lat="42.4133630" lon="-2.1007930">
        <ele>335.2</ele>
        <time>2022-08-12T07:52:35Z</time>
      </trkpt>
      <trkpt lat="42.4133750" lon="-2.1008090">
        <ele>335.4</ele>
        <time>2022-08-12T07:52:36Z</time>
      </trkpt>
      <trkpt lat="42.4133840" lon="-2.1008230">
        <ele>336.0</ele>
        <time>2022-08-12T07:52:37Z</time>
      </trkpt>
      <trkpt lat="42.4133930" lon="-2.1008350">
        <ele>336.4</ele>
        <time>2022-08-12T07:52:39Z</time>
      </trkpt>
      <trkpt lat="42.4133990" lon="-2.1008400">
        <ele>336.8</ele>
        <time>2022-08-12T07:52:41Z</time>
      </trkpt>
      <trkpt lat="42.4134040" lon="-2.1008470">
        <ele>337.0</ele>
        <time>2022-08-12T07:52:42Z</time>
      </trkpt>
      <trkpt lat="42.4134170" lon="-2.1008680">
        <ele>337.4</ele>
        <time>2022-08-12T07:52:45Z</time>
      </trkpt>
      <trkpt lat="42.4134200" lon="-2.1008760">
        <ele>337.6</ele>
        <time>2022-08-12T07:52:46Z</time>
      </trkpt>
      <trkpt lat="42.4134400" lon="-2.1009090">
        <ele>337.8</ele>
        <time>2022-08-12T07:52:49Z</time>
      </trkpt>
      <trkpt lat="42.4134740" lon="-2.1009890">
        <ele>338.6</ele>
        <time>2022-08-12T07:52:58Z</time>
      </trkpt>
      <trkpt lat="42.4134890" lon="-2.1010250">
        <ele>339.4</ele>
        <time>2022-08-12T07:53:02Z</time>
      </trkpt>
      <trkpt lat="42.4134990" lon="-2.1010650">
        <ele>339.6</ele>
        <time>2022-08-12T07:53:06Z</time>
      </trkpt>
      <trkpt lat="42.4135020" lon="-2.1010730">
        <ele>339.8</ele>
        <time>2022-08-12T07:53:07Z</time>
      </trkpt>
      <trkpt lat="42.4135140" lon="-2.1011240">
        <ele>340.6</ele>
        <time>2022-08-12T07:53:13Z</time>
      </trkpt>
      <trkpt lat="42.4135160" lon="-2.1011310">
        <ele>340.8</ele>
        <time>2022-08-12T07:53:14Z</time>
      </trkpt>
      <trkpt lat="42.4135150" lon="-2.1011950">
        <ele>341.8</ele>
        <time>2022-08-12T07:53:21Z</time>
      </trkpt>
      <trkpt lat="42.4135130" lon="-2.1012000">
        <ele>341.8</ele>
        <time>2022-08-12T07:53:22Z</time>
      </trkpt>
      <trkpt lat="42.4135220" lon="-2.1012350">
        <ele>342.4</ele>
        <time>2022-08-12T07:53:31Z</time>
      </trkpt>
      <trkpt lat="42.4135240" lon="-2.1012450">
        <ele>342.6</ele>
        <time>2022-08-12T07:53:33Z</time>
      </trkpt>
      <trkpt lat="42.4135240" lon="-2.1012450">
        <ele>343.2</ele>
        <time>2022-08-12T07:53:54Z</time>
      </trkpt>
      <trkpt lat="42.4135240" lon="-2.1012450">
        <ele>343.2</ele>
        <time>2022-08-12T07:53:55Z</time>
      </trkpt>
      <trkpt lat="42.4135240" lon="-2.1012450">
        <ele>343.8</ele>
        <time>2022-08-12T07:53:59Z</time>
      </trkpt>
      <trkpt lat="42.4135390" lon="-2.1013360">
        <ele>344.0</ele>
        <time>2022-08-12T07:54:05Z</time>
      </trkpt>
      <trkpt lat="42.4135390" lon="-2.1013510">
        <ele>344.0</ele>
        <time>2022-08-12T07:54:06Z</time>
      </trkpt>
      <trkpt lat="42.4135460" lon="-2.1013880">
        <ele>344.2</ele>
        <time>2022-08-12T07:54:08Z</time>
      </trkpt>
      <trkpt lat="42.4135480" lon="-2.1014640">
        <ele>345.0</ele>
        <time>2022-08-12T07:54:15Z</time>
      </trkpt>
      <trkpt lat="42.4135530" lon="-2.1014830">
        <ele>345.2</ele>
        <time>2022-08-12T07:54:17Z</time>
      </trkpt>
      <trkpt lat="42.4135580" lon="-2.1015270">
        <ele>345.6</ele>
        <time>2022-08-12T07:54:21Z</time>
      </trkpt>
      <trkpt lat="42.4135610" lon="-2.1015800">
        <ele>346.0</ele>
        <time>2022-08-12T07:54:25Z</time>
      </trkpt>
      <trkpt lat="42.4135640" lon="-2.1016130">
        <ele>346.4</ele>
        <time>2022-08-12T07:54:28Z</time>
      </trkpt>
      <trkpt lat="42.4135640" lon="-2.1016920">
        <ele>347.4</ele>
        <time>2022-08-12T07:54:35Z</time>
      </trkpt>
      <trkpt lat="42.4135640" lon="-2.1017050">
        <ele>347.8</ele>
        <time>2022-08-12T07:54:36Z</time>
      </trkpt>
      <trkpt lat="42.4135670" lon="-2.1017830">
        <ele>348.6</ele>
        <time>2022-08-12T07:54:43Z</time>
      </trkpt>
      <trkpt lat="42.4135710" lon="-2.1017930">
        <ele>348.8</ele>
        <time>2022-08-12T07:54:44Z</time>
      </trkpt>
      <trkpt lat="42.4135760" lon="-2.1019030">
        <ele>349.6</ele>
        <time>2022-08-12T07:54:53Z</time>
      </trkpt>
      <trkpt lat="42.4135750" lon="-2.1019140">
        <ele>349.6</ele>
        <time>2022-08-12T07:54:54Z</time>
      </trkpt>
      <trkpt lat="42.4135780" lon="-2.1020180">
        <ele>350.6</ele>
        <time>2022-08-12T07:55:03Z</time>
      </trkpt>
      <trkpt lat="42.4135790" lon="-2.1020420">
        <ele>351.0</ele>
        <time>2022-08-12T07:55:05Z</time>
      </trkpt>
      <trkpt lat="42.4135830" lon="-2.1021570">
        <ele>351.4</ele>
        <time>2022-08-12T07:55:15Z</time>
      </trkpt>
      <trkpt lat="42.4135840" lon="-2.1021790">
        <ele>352.0</ele>
        <time>2022-08-12T07:55:17Z</time>
      </trkpt>
      <trkpt lat="42.4135920" lon="-2.1022530">
        <ele>353.0</ele>
        <time>2022-08-12T07:55:25Z</time>
      </trkpt>
      <trkpt lat="42.4135910" lon="-2.1022620">
        <ele>353.0</ele>
        <time>2022-08-12T07:55:26Z</time>
      </trkpt>
      <trkpt lat="42.4135940" lon="-2.1023340">
        <ele>354.0</ele>
        <time>2022-08-12T07:55:34Z</time>
      </trkpt>
      <trkpt lat="42.4135930" lon="-2.1023440">
        <ele>354.0</ele>
        <time>2022-08-12T07:55:35Z</time>
      </trkpt>
      <trkpt lat="42.4136020" lon="-2.1024320">
        <ele>355.0</ele>
        <time>2022-08-12T07:55:44Z</time>
      </trkpt>
      <trkpt lat="42.4136010" lon="-2.1024420">
        <ele>355.4</ele>
        <time>2022-08-12T07:55:45Z</time>
      </trkpt>
      <trkpt lat="42.4135980" lon="-2.1024860">
        <ele>356.2</ele>
        <time>2022-08-12T07:55:50Z</time>
      </trkpt>
      <trkpt lat="42.4136010" lon="-2.1024960">
        <ele>356.2</ele>
        <time>2022-08-12T07:55:51Z</time>
      </trkpt>
      <trkpt lat="42.4136040" lon="-2.1025310">
        <ele>356.6</ele>
        <time>2022-08-12T07:55:54Z</time>
      </trkpt>
      <trkpt lat="42.4136010" lon="-2.1025500">
        <ele>356.6</ele>
        <time>2022-08-12T07:55:56Z</time>
      </trkpt>
      <trkpt lat="42.4136080" lon="-2.1026030">
        <ele>357.2</ele>
        <time>2022-08-12T07:56:02Z</time>
      </trkpt>
      <trkpt lat="42.4136060" lon="-2.1026230">
        <ele>357.6</ele>
        <time>2022-08-12T07:56:04Z</time>
      </trkpt>
      <trkpt lat="42.4136050" lon="-2.1026320">
        <ele>357.6</ele>
        <time>2022-08-12T07:56:05Z</time>
      </trkpt>
      <trkpt lat="42.4136050" lon="-2.1027090">
        <ele>358.4</ele>
        <time>2022-08-12T07:56:14Z</time>
      </trkpt>
      <trkpt lat="42.4136040" lon="-2.1027160">
        <ele>358.6</ele>
        <time>2022-08-12T07:56:15Z</time>
      </trkpt>
      <trkpt lat="42.4136120" lon="-2.1027960">
        <ele>359.6</ele>
        <time>2022-08-12T07:56:23Z</time>
      </trkpt>
      <trkpt lat="42.4136170" lon="-2.1028580">
        <ele>360.2</ele>
        <time>2022-08-12T07:56:34Z</time>
      </trkpt>
      <trkpt lat="42.4136180" lon="-2.1028660">
        <ele>360.2</ele>
        <time>2022-08-12T07:56:35Z</time>
      </trkpt>
      <trkpt lat="42.4136190" lon="-2.1029200">
        <ele>361.2</ele>
        <time>2022-08-12T07:56:41Z</time>
      </trkpt>
      <trkpt lat="42.4136240" lon="-2.1029710">
        <ele>361.8</ele>
        <time>2022-08-12T07:56:46Z</time>
      </trkpt>
      <trkpt lat="42.4136250" lon="-2.1029840">
        <ele>361.8</ele>
        <time>2022-08-12T07:56:47Z</time>
      </trkpt>
      <trkpt lat="42.4136320" lon="-2.1030160">
        <ele>362.4</ele>
        <time>2022-08-12T07:56:50Z</time>
      </trkpt>
      <trkpt lat="42.4136400" lon="-2.1030680">
        <ele>363.0</ele>
        <time>2022-08-12T07:56:55Z</time>
      </trkpt>
      <trkpt lat="42.4136430" lon="-2.1030980">
        <ele>363.4</ele>
        <time>2022-08-12T07:56:58Z</time>
      </trkpt>
      <trkpt lat="42.4136490" lon="-2.1031860">
        <ele>363.8</ele>
        <time>2022-08-12T07:57:05Z</time>
      </trkpt>
      <trkpt lat="42.4136490" lon="-2.1032400">
        <ele>364.4</ele>
        <time>2022-08-12T07:57:09Z</time>
      </trkpt>
      <trkpt lat="42.4136510" lon="-2.1032990">
        <ele>365.0</ele>
        <time>2022-08-12T07:57:13Z</time>
      </trkpt>
      <trkpt lat="42.4136520" lon="-2.1033200">
        <ele>365.6</ele>
        <time>2022-08-12T07:57:15Z</time>
      </trkpt>
      <trkpt lat="42.4136460" lon="-2.1034000">
        <ele>366.8</ele>
        <time>2022-08-12T07:57:21Z</time>
      </trkpt>
      <trkpt lat="42.4136410" lon="-2.1034270">
        <ele>366.8</ele>
        <time>2022-08-12T07:57:23Z</time>
      </trkpt>
      <trkpt lat="42.4136230" lon="-2.1035260">
        <ele>367.2</ele>
        <time>2022-08-12T07:57:30Z</time>
      </trkpt>
      <trkpt lat="42.4136140" lon="-2.1035680">
        <ele>367.4</ele>
        <time>2022-08-12T07:57:33Z</time>
      </trkpt>
      <trkpt lat="42.4136110" lon="-2.1035930">
        <ele>367.8</ele>
        <time>2022-08-12T07:57:35Z</time>
      </trkpt>
      <trkpt lat="42.4136090" lon="-2.1035990">
        <ele>367.8</ele>
        <time>2022-08-12T07:57:36Z</time>
      </trkpt>
      <trkpt lat="42.4135940" lon="-2.1036450">
        <ele>368.0</ele>
        <time>2022-08-12T07:57:52Z</time>
      </trkpt>
      <trkpt lat="42.4135760" lon="-2.1037560">
        <ele>368.4</ele>
        <time>2022-08-12T07:57:57Z</time>
      </trkpt>
      <trkpt lat="42.4135530" lon="-2.1038710">
        <ele>369.0</ele>
        <time>2022-08-12T07:58:01Z</time>
      </trkpt>
      <trkpt lat="42.4135260" lon="-2.1039580">
        <ele>369.2</ele>
        <time>2022-08-12T07:58:04Z</time>
      </trkpt>
      <trkpt lat="42.4134350" lon="-2.1042500">
        <ele>370.0</ele>
        <time>2022-08-12T07:58:14Z</time>
      </trkpt>
      <trkpt lat="42.4134270" lon="-2.1042730">
        <ele>370.2</ele>
        <time>2022-08-12T07:58:15Z</time>
      </trkpt>
      <trkpt lat="42.4133330" lon="-2.1045310">
        <ele>370.8</ele>
        <time>2022-08-12T07:58:24Z</time>
      </trkpt>
      <trkpt lat="42.4132690" lon="-2.1047000">
        <ele>371.4</ele>
        <time>2022-08-12T07:58:30Z</time>
      </trkpt>
      <trkpt lat="42.4132140" lon="-2.1048480">
        <ele>372.0</ele>
        <time>2022-08-12T07:58:35Z</time>
      </trkpt>
      <trkpt lat="42.4131730" lon="-2.1049630">
        <ele>372.4</ele>
        <time>2022-08-12T07:58:39Z</time>
      </trkpt>
      <trkpt lat="42.4131360" lon="-2.1050610">
        <ele>372.8</ele>
        <time>2022-08-12T07:58:42Z</time>
      </trkpt>
      <trkpt lat="42.4130910" lon="-2.1051810">
        <ele>373.0</ele>
        <time>2022-08-12T07:58:46Z</time>
      </trkpt>
      <trkpt lat="42.4130210" lon="-2.1053870">
        <ele>373.4</ele>
        <time>2022-08-12T07:58:53Z</time>
      </trkpt>
      <trkpt lat="42.4130100" lon="-2.1054170">
        <ele>373.4</ele>
        <time>2022-08-12T07:58:54Z</time>
      </trkpt>
      <trkpt lat="42.4129330" lon="-2.1056180">
        <ele>374.6</ele>
        <time>2022-08-12T07:59:01Z</time>
      </trkpt>
      <trkpt lat="42.4128540" lon="-2.1058490">
        <ele>375.6</ele>
        <time>2022-08-12T07:59:09Z</time>
      </trkpt>
      <trkpt lat="42.4128030" lon="-2.1059510">
        <ele>376.2</ele>
        <time>2022-08-12T07:59:13Z</time>
      </trkpt>
      <trkpt lat="42.4127350" lon="-2.1060320">
        <ele>376.6</ele>
        <time>2022-08-12T07:59:17Z</time>
      </trkpt>
      <trkpt lat="42.4126620" lon="-2.1060930">
        <ele>377.0</ele>
        <time>2022-08-12T07:59:21Z</time>
      </trkpt>
      <trkpt lat="42.4126410" lon="-2.1061180">
        <ele>377.4</ele>
        <time>2022-08-12T07:59:23Z</time>
      </trkpt>
      <trkpt lat="42.4126380" lon="-2.1061240">
        <ele>377.8</ele>
        <time>2022-08-12T07:59:24Z</time>
      </trkpt>
      <trkpt lat="42.4126380" lon="-2.1061240">
        <ele>377.8</ele>
        <time>2022-08-12T07:59:25Z</time>
      </trkpt>
      <trkpt lat="42.4126580" lon="-2.1061160">
        <ele>378.0</ele>
        <time>2022-08-12T07:59:38Z</time>
      </trkpt>
      <trkpt lat="42.4126820" lon="-2.1061070">
        <ele>377.8</ele>
        <time>2022-08-12T07:59:39Z</time>
      </trkpt>
      <trkpt lat="42.4127680" lon="-2.1060870">
        <ele>377.6</ele>
        <time>2022-08-12T07:59:44Z</time>
      </trkpt>
      <trkpt lat="42.4127860" lon="-2.1061160">
        <ele>377.4</ele>
        <time>2022-08-12T07:59:47Z</time>
      </trkpt>
      <trkpt lat="42.4127810" lon="-2.1061320">
        <ele>377.2</ele>
        <time>2022-08-12T07:59:50Z</time>
      </trkpt>
      <trkpt lat="42.4127800" lon="-2.1061420">
        <ele>377.2</ele>
        <time>2022-08-12T07:59:51Z</time>
      </trkpt>
      <trkpt lat="42.4127750" lon="-2.1061550">
        <ele>377.2</ele>
        <time>2022-08-12T07:59:52Z</time>
      </trkpt>
      <trkpt lat="42.4127680" lon="-2.1061720">
        <ele>377.4</ele>
        <time>2022-08-12T07:59:56Z</time>
      </trkpt>
      <trkpt lat="42.4127530" lon="-2.1062000">
        <ele>377.6</ele>
        <time>2022-08-12T08:00:01Z</time>
      </trkpt>
      <trkpt lat="42.4127540" lon="-2.1061960">
        <ele>377.6</ele>
        <time>2022-08-12T08:01:26Z</time>
      </trkpt>
      <trkpt lat="42.4127590" lon="-2.1061790">
        <ele>377.6</ele>
        <time>2022-08-12T08:01:27Z</time>
      </trkpt>
      <trkpt lat="42.4127710" lon="-2.1061020">
        <ele>377.4</ele>
        <time>2022-08-12T08:01:31Z</time>
      </trkpt>
      <trkpt lat="42.4127670" lon="-2.1060870">
        <ele>377.2</ele>
        <time>2022-08-12T08:01:32Z</time>
      </trkpt>
      <trkpt lat="42.4127610" lon="-2.1060780">
        <ele>377.0</ele>
        <time>2022-08-12T08:01:33Z</time>
      </trkpt>
      <trkpt lat="42.4127600" lon="-2.1060700">
        <ele>376.8</ele>
        <time>2022-08-12T08:01:37Z</time>
      </trkpt>
      <trkpt lat="42.4127390" lon="-2.1060710">
        <ele>376.8</ele>
        <time>2022-08-12T08:01:40Z</time>
      </trkpt>
      <trkpt lat="42.4127270" lon="-2.1060710">
        <ele>376.8</ele>
        <time>2022-08-12T08:01:41Z</time>
      </trkpt>
      <trkpt lat="42.4126930" lon="-2.1060820">
        <ele>376.8</ele>
        <time>2022-08-12T08:01:44Z</time>
      </trkpt>
      <trkpt lat="42.4126750" lon="-2.1060890">
        <ele>376.8</ele>
        <time>2022-08-12T08:01:45Z</time>
      </trkpt>
      <trkpt lat="42.4126420" lon="-2.1061020">
        <ele>376.8</ele>
        <time>2022-08-12T08:01:47Z</time>
      </trkpt>
      <trkpt lat="42.4125870" lon="-2.1061390">
        <ele>376.8</ele>
        <time>2022-08-12T08:01:50Z</time>
      </trkpt>
      <trkpt lat="42.4125500" lon="-2.1061670">
        <ele>377.0</ele>
        <time>2022-08-12T08:01:52Z</time>
      </trkpt>
      <trkpt lat="42.4124870" lon="-2.1062030">
        <ele>377.6</ele>
        <time>2022-08-12T08:01:55Z</time>
      </trkpt>
      <trkpt lat="42.4123290" lon="-2.1062920">
        <ele>378.0</ele>
        <time>2022-08-12T08:02:02Z</time>
      </trkpt>
      <trkpt lat="42.4120900" lon="-2.1064190">
        <ele>378.2</ele>
        <time>2022-08-12T08:02:12Z</time>
      </trkpt>
      <trkpt lat="42.4119050" lon="-2.1065600">
        <ele>377.8</ele>
        <time>2022-08-12T08:02:18Z</time>
      </trkpt>
      <trkpt lat="42.4117680" lon="-2.1067090">
        <ele>377.0</ele>
        <time>2022-08-12T08:02:22Z</time>
      </trkpt>
      <trkpt lat="42.4116940" lon="-2.1067850">
        <ele>376.8</ele>
        <time>2022-08-12T08:02:24Z</time>
      </trkpt>
      <trkpt lat="42.4116280" lon="-2.1068620">
        <ele>376.8</ele>
        <time>2022-08-12T08:02:26Z</time>
      </trkpt>
      <trkpt lat="42.4114460" lon="-2.1070680">
        <ele>376.6</ele>
        <time>2022-08-12T08:02:32Z</time>
      </trkpt>
      <trkpt lat="42.4114160" lon="-2.1071080">
        <ele>376.6</ele>
        <time>2022-08-12T08:02:33Z</time>
      </trkpt>
      <trkpt lat="42.4112270" lon="-2.1073660">
        <ele>376.8</ele>
        <time>2022-08-12T08:02:40Z</time>
      </trkpt>
      <trkpt lat="42.4111350" lon="-2.1074890">
        <ele>377.2</ele>
        <time>2022-08-12T08:02:44Z</time>
      </trkpt>
      <trkpt lat="42.4111130" lon="-2.1075180">
        <ele>377.6</ele>
        <time>2022-08-12T08:02:45Z</time>
      </trkpt>
      <trkpt lat="42.4110680" lon="-2.1075790">
        <ele>378.2</ele>
        <time>2022-08-12T08:02:47Z</time>
      </trkpt>
      <trkpt lat="42.4110280" lon="-2.1076310">
        <ele>378.6</ele>
        <time>2022-08-12T08:02:49Z</time>
      </trkpt>
      <trkpt lat="42.4110070" lon="-2.1076570">
        <ele>378.8</ele>
        <time>2022-08-12T08:02:50Z</time>
      </trkpt>
      <trkpt lat="42.4109700" lon="-2.1077030">
        <ele>379.0</ele>
        <time>2022-08-12T08:02:52Z</time>
      </trkpt>
      <trkpt lat="42.4109490" lon="-2.1077290">
        <ele>379.0</ele>
        <time>2022-08-12T08:02:53Z</time>
      </trkpt>
      <trkpt lat="42.4108820" lon="-2.1078070">
        <ele>379.4</ele>
        <time>2022-08-12T08:02:56Z</time>
      </trkpt>
      <trkpt lat="42.4108630" lon="-2.1078300">
        <ele>379.8</ele>
        <time>2022-08-12T08:02:57Z</time>
      </trkpt>
      <trkpt lat="42.4108190" lon="-2.1078810">
        <ele>380.2</ele>
        <time>2022-08-12T08:02:59Z</time>
      </trkpt>
      <trkpt lat="42.4107070" lon="-2.1080200">
        <ele>380.8</ele>
        <time>2022-08-12T08:03:04Z</time>
      </trkpt>
      <trkpt lat="42.4106850" lon="-2.1080470">
        <ele>381.0</ele>
        <time>2022-08-12T08:03:05Z</time>
      </trkpt>
      <trkpt lat="42.4105540" lon="-2.1082010">
        <ele>382.0</ele>
        <time>2022-08-12T08:03:11Z</time>
      </trkpt>
      <trkpt lat="42.4104360" lon="-2.1083360">
        <ele>382.8</ele>
        <time>2022-08-12T08:03:16Z</time>
      </trkpt>
      <trkpt lat="42.4103440" lon="-2.1084510">
        <ele>383.2</ele>
        <time>2022-08-12T08:03:20Z</time>
      </trkpt>
      <trkpt lat="42.4101610" lon="-2.1086770">
        <ele>384.0</ele>
        <time>2022-08-12T08:03:28Z</time>
      </trkpt>
      <trkpt lat="42.4100670" lon="-2.1087920">
        <ele>384.4</ele>
        <time>2022-08-12T08:03:32Z</time>
      </trkpt>
      <trkpt lat="42.4099780" lon="-2.1088970">
        <ele>385.0</ele>
        <time>2022-08-12T08:03:36Z</time>
      </trkpt>
      <trkpt lat="42.4098560" lon="-2.1090440">
        <ele>385.4</ele>
        <time>2022-08-12T08:03:41Z</time>
      </trkpt>
      <trkpt lat="42.4098310" lon="-2.1090700">
        <ele>385.6</ele>
        <time>2022-08-12T08:03:42Z</time>
      </trkpt>
      <trkpt lat="42.4096660" lon="-2.1092590">
        <ele>386.0</ele>
        <time>2022-08-12T08:03:49Z</time>
      </trkpt>
      <trkpt lat="42.4094540" lon="-2.1095080">
        <ele>386.6</ele>
        <time>2022-08-12T08:03:58Z</time>
      </trkpt>
      <trkpt lat="42.4094290" lon="-2.1095340">
        <ele>386.6</ele>
        <time>2022-08-12T08:03:59Z</time>
      </trkpt>
      <trkpt lat="42.4092400" lon="-2.1097560">
        <ele>387.2</ele>
        <time>2022-08-12T08:04:07Z</time>
      </trkpt>
      <trkpt lat="42.4090410" lon="-2.1098920">
        <ele>387.4</ele>
        <time>2022-08-12T08:04:14Z</time>
      </trkpt>
      <trkpt lat="42.4089370" lon="-2.1098940">
        <ele>387.4</ele>
        <time>2022-08-12T08:04:17Z</time>
      </trkpt>
      <trkpt lat="42.4088150" lon="-2.1098750">
        <ele>387.4</ele>
        <time>2022-08-12T08:04:20Z</time>
      </trkpt>
      <trkpt lat="42.4087900" lon="-2.1098680">
        <ele>387.2</ele>
        <time>2022-08-12T08:04:21Z</time>
      </trkpt>
      <trkpt lat="42.4086840" lon="-2.1098190">
        <ele>385.8</ele>
        <time>2022-08-12T08:04:25Z</time>
      </trkpt>
      <trkpt lat="42.4086550" lon="-2.1098210">
        <ele>385.6</ele>
        <time>2022-08-12T08:04:26Z</time>
      </trkpt>
      <trkpt lat="42.4086330" lon="-2.1098400">
        <ele>385.2</ele>
        <time>2022-08-12T08:04:27Z</time>
      </trkpt>
      <trkpt lat="42.4085990" lon="-2.1099190">
        <ele>384.8</ele>
        <time>2022-08-12T08:04:29Z</time>
      </trkpt>
      <trkpt lat="42.4085850" lon="-2.1099630">
        <ele>384.8</ele>
        <time>2022-08-12T08:04:30Z</time>
      </trkpt>
      <trkpt lat="42.4084920" lon="-2.1101840">
        <ele>384.6</ele>
        <time>2022-08-12T08:04:35Z</time>
      </trkpt>
      <trkpt lat="42.4084230" lon="-2.1103380">
        <ele>384.6</ele>
        <time>2022-08-12T08:04:38Z</time>
      </trkpt>
      <trkpt lat="42.4083360" lon="-2.1105300">
        <ele>386.0</ele>
        <time>2022-08-12T08:04:42Z</time>
      </trkpt>
      <trkpt lat="42.4083110" lon="-2.1105800">
        <ele>386.2</ele>
        <time>2022-08-12T08:04:43Z</time>
      </trkpt>
      <trkpt lat="42.4082640" lon="-2.1106770">
        <ele>386.4</ele>
        <time>2022-08-12T08:04:45Z</time>
      </trkpt>
      <trkpt lat="42.4081140" lon="-2.1110190">
        <ele>384.6</ele>
        <time>2022-08-12T08:04:51Z</time>
      </trkpt>
      <trkpt lat="42.4080850" lon="-2.1110790">
        <ele>384.6</ele>
        <time>2022-08-12T08:04:52Z</time>
      </trkpt>
      <trkpt lat="42.4079730" lon="-2.1112840">
        <ele>383.8</ele>
        <time>2022-08-12T08:04:55Z</time>
      </trkpt>
      <trkpt lat="42.4079390" lon="-2.1113370">
        <ele>383.4</ele>
        <time>2022-08-12T08:04:56Z</time>
      </trkpt>
      <trkpt lat="42.4078950" lon="-2.1114050">
        <ele>383.4</ele>
        <time>2022-08-12T08:04:57Z</time>
      </trkpt>
      <trkpt lat="42.4077320" lon="-2.1116270">
        <ele>382.4</ele>
        <time>2022-08-12T08:05:00Z</time>
      </trkpt>
      <trkpt lat="42.4076180" lon="-2.1117540">
        <ele>382.0</ele>
        <time>2022-08-12T08:05:02Z</time>
      </trkpt>
      <trkpt lat="42.4074650" lon="-2.1119020">
        <ele>381.4</ele>
        <time>2022-08-12T08:05:04Z</time>
      </trkpt>
      <trkpt lat="42.4072280" lon="-2.1120920">
        <ele>379.8</ele>
        <time>2022-08-12T08:05:07Z</time>
      </trkpt>
      <trkpt lat="42.4069630" lon="-2.1122600">
        <ele>378.4</ele>
        <time>2022-08-12T08:05:10Z</time>
      </trkpt>
      <trkpt lat="42.4066840" lon="-2.1124360">
        <ele>377.2</ele>
        <time>2022-08-12T08:05:13Z</time>
      </trkpt>
      <trkpt lat="42.4066100" lon="-2.1124880">
        <ele>376.8</ele>
        <time>2022-08-12T08:05:14Z</time>
      </trkpt>
      <trkpt lat="42.4064990" lon="-2.1125700">
        <ele>376.0</ele>
        <time>2022-08-12T08:05:15Z</time>
      </trkpt>
      <trkpt lat="42.4063150" lon="-2.1127290">
        <ele>374.6</ele>
        <time>2022-08-12T08:05:17Z</time>
      </trkpt>
      <trkpt lat="42.4062260" lon="-2.1128200">
        <ele>374.2</ele>
        <time>2022-08-12T08:05:18Z</time>
      </trkpt>
      <trkpt lat="42.4061400" lon="-2.1129170">
        <ele>373.6</ele>
        <time>2022-08-12T08:05:19Z</time>
      </trkpt>
      <trkpt lat="42.4059700" lon="-2.1131210">
        <ele>372.2</ele>
        <time>2022-08-12T08:05:21Z</time>
      </trkpt>
      <trkpt lat="42.4058010" lon="-2.1133320">
        <ele>371.0</ele>
        <time>2022-08-12T08:05:23Z</time>
      </trkpt>
      <trkpt lat="42.4057160" lon="-2.1134360">
        <ele>370.2</ele>
        <time>2022-08-12T08:05:24Z</time>
      </trkpt>
      <trkpt lat="42.4056300" lon="-2.1135370">
        <ele>369.8</ele>
        <time>2022-08-12T08:05:25Z</time>
      </trkpt>
      <trkpt lat="42.4055430" lon="-2.1136300">
        <ele>369.2</ele>
        <time>2022-08-12T08:05:26Z</time>
      </trkpt>
      <trkpt lat="42.4054560" lon="-2.1137190">
        <ele>368.4</ele>
        <time>2022-08-12T08:05:27Z</time>
      </trkpt>
      <trkpt lat="42.4052780" lon="-2.1138750">
        <ele>367.2</ele>
        <time>2022-08-12T08:05:29Z</time>
      </trkpt>
      <trkpt lat="42.4051040" lon="-2.1140120">
        <ele>366.2</ele>
        <time>2022-08-12T08:05:31Z</time>
      </trkpt>
      <trkpt lat="42.4048510" lon="-2.1142050">
        <ele>365.0</ele>
        <time>2022-08-12T08:05:34Z</time>
      </trkpt>
      <trkpt lat="42.4046890" lon="-2.1143340">
        <ele>364.4</ele>
        <time>2022-08-12T08:05:36Z</time>
      </trkpt>
      <trkpt lat="42.4045340" lon="-2.1144760">
        <ele>363.6</ele>
        <time>2022-08-12T08:05:38Z</time>
      </trkpt>
      <trkpt lat="42.4043210" lon="-2.1147060">
        <ele>362.8</ele>
        <time>2022-08-12T08:05:41Z</time>
      </trkpt>
      <trkpt lat="42.4042550" lon="-2.1147870">
        <ele>362.8</ele>
        <time>2022-08-12T08:05:42Z</time>
      </trkpt>
      <trkpt lat="42.4041370" lon="-2.1149560">
        <ele>362.4</ele>
        <time>2022-08-12T08:05:44Z</time>
      </trkpt>
      <trkpt lat="42.4040330" lon="-2.1151230">
        <ele>362.2</ele>
        <time>2022-08-12T08:05:46Z</time>
      </trkpt>
      <trkpt lat="42.4039330" lon="-2.1152980">
        <ele>362.2</ele>
        <time>2022-08-12T08:05:48Z</time>
      </trkpt>
      <trkpt lat="42.4036970" lon="-2.1157640">
        <ele>362.0</ele>
        <time>2022-08-12T08:05:53Z</time>
      </trkpt>
      <trkpt lat="42.4036090" lon="-2.1159630">
        <ele>361.2</ele>
        <time>2022-08-12T08:05:55Z</time>
      </trkpt>
      <trkpt lat="42.4035020" lon="-2.1162930">
        <ele>360.2</ele>
        <time>2022-08-12T08:05:58Z</time>
      </trkpt>
      <trkpt lat="42.4034720" lon="-2.1164120">
        <ele>359.8</ele>
        <time>2022-08-12T08:05:59Z</time>
      </trkpt>
      <trkpt lat="42.4034250" lon="-2.1166590">
        <ele>358.4</ele>
        <time>2022-08-12T08:06:01Z</time>
      </trkpt>
      <trkpt lat="42.4033960" lon="-2.1169150">
        <ele>357.8</ele>
        <time>2022-08-12T08:06:03Z</time>
      </trkpt>
      <trkpt lat="42.4033890" lon="-2.1170450">
        <ele>357.4</ele>
        <time>2022-08-12T08:06:04Z</time>
      </trkpt>
      <trkpt lat="42.4033790" lon="-2.1174050">
        <ele>356.0</ele>
        <time>2022-08-12T08:06:07Z</time>
      </trkpt>
      <trkpt lat="42.4033740" lon="-2.1176940">
        <ele>355.0</ele>
        <time>2022-08-12T08:06:09Z</time>
      </trkpt>
      <trkpt lat="42.4033690" lon="-2.1177950">
        <ele>354.4</ele>
        <time>2022-08-12T08:06:10Z</time>
      </trkpt>
      <trkpt lat="42.4033600" lon="-2.1179190">
        <ele>353.8</ele>
        <time>2022-08-12T08:06:11Z</time>
      </trkpt>
      <trkpt lat="42.4033390" lon="-2.1182690">
        <ele>352.4</ele>
        <time>2022-08-12T08:06:14Z</time>
      </trkpt>
      <trkpt lat="42.4033310" lon="-2.1185030">
        <ele>351.6</ele>
        <time>2022-08-12T08:06:16Z</time>
      </trkpt>
      <trkpt lat="42.4033240" lon="-2.1187280">
        <ele>351.2</ele>
        <time>2022-08-12T08:06:18Z</time>
      </trkpt>
      <trkpt lat="42.4033090" lon="-2.1190120">
        <ele>350.2</ele>
        <time>2022-08-12T08:06:21Z</time>
      </trkpt>
      <trkpt lat="42.4033080" lon="-2.1190830">
        <ele>350.0</ele>
        <time>2022-08-12T08:06:22Z</time>
      </trkpt>
      <trkpt lat="42.4033020" lon="-2.1192330">
        <ele>349.6</ele>
        <time>2022-08-12T08:06:24Z</time>
      </trkpt>
      <trkpt lat="42.4032900" lon="-2.1197460">
        <ele>349.4</ele>
        <time>2022-08-12T08:06:31Z</time>
      </trkpt>
      <trkpt lat="42.4032840" lon="-2.1200400">
        <ele>351.6</ele>
        <time>2022-08-12T08:06:35Z</time>
      </trkpt>
      <trkpt lat="42.4032750" lon="-2.1201690">
        <ele>352.2</ele>
        <time>2022-08-12T08:06:37Z</time>
      </trkpt>
      <trkpt lat="42.4032720" lon="-2.1203370">
        <ele>352.2</ele>
        <time>2022-08-12T08:06:40Z</time>
      </trkpt>
      <trkpt lat="42.4032750" lon="-2.1204490">
        <ele>352.0</ele>
        <time>2022-08-12T08:06:42Z</time>
      </trkpt>
      <trkpt lat="42.4032770" lon="-2.1204910">
        <ele>352.0</ele>
        <time>2022-08-12T08:06:43Z</time>
      </trkpt>
      <trkpt lat="42.4032770" lon="-2.1205220">
        <ele>351.2</ele>
        <time>2022-08-12T08:06:44Z</time>
      </trkpt>
      <trkpt lat="42.4032740" lon="-2.1205680">
        <ele>350.6</ele>
        <time>2022-08-12T08:06:45Z</time>
      </trkpt>
      <trkpt lat="42.4032750" lon="-2.1206850">
        <ele>349.6</ele>
        <time>2022-08-12T08:06:47Z</time>
      </trkpt>
      <trkpt lat="42.4032750" lon="-2.1207510">
        <ele>349.2</ele>
        <time>2022-08-12T08:06:48Z</time>
      </trkpt>
      <trkpt lat="42.4032710" lon="-2.1208260">
        <ele>349.2</ele>
        <time>2022-08-12T08:06:49Z</time>
      </trkpt>
      <trkpt lat="42.4032680" lon="-2.1209650">
        <ele>349.0</ele>
        <time>2022-08-12T08:06:51Z</time>
      </trkpt>
      <trkpt lat="42.4032600" lon="-2.1212060">
        <ele>348.4</ele>
        <time>2022-08-12T08:06:56Z</time>
      </trkpt>
      <trkpt lat="42.4032470" lon="-2.1213170">
        <ele>348.2</ele>
        <time>2022-08-12T08:06:58Z</time>
      </trkpt>
      <trkpt lat="42.4032340" lon="-2.1214800">
        <ele>349.0</ele>
        <time>2022-08-12T08:07:01Z</time>
      </trkpt>
      <trkpt lat="42.4032310" lon="-2.1216330">
        <ele>349.0</ele>
        <time>2022-08-12T08:07:04Z</time>
      </trkpt>
      <trkpt lat="42.4032140" lon="-2.1218860">
        <ele>348.8</ele>
        <time>2022-08-12T08:07:09Z</time>
      </trkpt>
      <trkpt lat="42.4032100" lon="-2.1219820">
        <ele>347.6</ele>
        <time>2022-08-12T08:07:11Z</time>
      </trkpt>
      <trkpt lat="42.4032090" lon="-2.1220640">
        <ele>347.0</ele>
        <time>2022-08-12T08:07:13Z</time>
      </trkpt>
      <trkpt lat="42.4032170" lon="-2.1221020">
        <ele>346.6</ele>
        <time>2022-08-12T08:07:15Z</time>
      </trkpt>
      <trkpt lat="42.4032210" lon="-2.1221240">
        <ele>346.4</ele>
        <time>2022-08-12T08:07:17Z</time>
      </trkpt>
      <trkpt lat="42.4031990" lon="-2.1221700">
        <ele>346.0</ele>
        <time>2022-08-12T08:07:48Z</time>
      </trkpt>
      <trkpt lat="42.4031950" lon="-2.1221920">
        <ele>345.8</ele>
        <time>2022-08-12T08:07:49Z</time>
      </trkpt>
      <trkpt lat="42.4031880" lon="-2.1224220">
        <ele>345.6</ele>
        <time>2022-08-12T08:07:55Z</time>
      </trkpt>
      <trkpt lat="42.4031790" lon="-2.1225180">
        <ele>345.4</ele>
        <time>2022-08-12T08:07:57Z</time>
      </trkpt>
      <trkpt lat="42.4031680" lon="-2.1227560">
        <ele>345.4</ele>
        <time>2022-08-12T08:08:01Z</time>
      </trkpt>
      <trkpt lat="42.4031650" lon="-2.1228950">
        <ele>345.2</ele>
        <time>2022-08-12T08:08:03Z</time>
      </trkpt>
      <trkpt lat="42.4031590" lon="-2.1230370">
        <ele>345.2</ele>
        <time>2022-08-12T08:08:05Z</time>
      </trkpt>
      <trkpt lat="42.4031520" lon="-2.1231090">
        <ele>345.0</ele>
        <time>2022-08-12T08:08:06Z</time>
      </trkpt>
      <trkpt lat="42.4031480" lon="-2.1231820">
        <ele>344.8</ele>
        <time>2022-08-12T08:08:07Z</time>
      </trkpt>
      <trkpt lat="42.4031440" lon="-2.1232570">
        <ele>344.6</ele>
        <time>2022-08-12T08:08:08Z</time>
      </trkpt>
      <trkpt lat="42.4031140" lon="-2.1237800">
        <ele>344.0</ele>
        <time>2022-08-12T08:08:15Z</time>
      </trkpt>
      <trkpt lat="42.4031120" lon="-2.1238560">
        <ele>343.8</ele>
        <time>2022-08-12T08:08:16Z</time>
      </trkpt>
      <trkpt lat="42.4030940" lon="-2.1243570">
        <ele>342.8</ele>
        <time>2022-08-12T08:08:23Z</time>
      </trkpt>
      <trkpt lat="42.4030910" lon="-2.1245440">
        <ele>342.8</ele>
        <time>2022-08-12T08:08:26Z</time>
      </trkpt>
      <trkpt lat="42.4030920" lon="-2.1246210">
        <ele>342.6</ele>
        <time>2022-08-12T08:08:27Z</time>
      </trkpt>
      <trkpt lat="42.4030900" lon="-2.1248690">
        <ele>342.6</ele>
        <time>2022-08-12T08:08:31Z</time>
      </trkpt>
      <trkpt lat="42.4031010" lon="-2.1249680">
        <ele>342.2</ele>
        <time>2022-08-12T08:08:33Z</time>
      </trkpt>
      <trkpt lat="42.4031150" lon="-2.1250190">
        <ele>342.2</ele>
        <time>2022-08-12T08:08:34Z</time>
      </trkpt>
      <trkpt lat="42.4031950" lon="-2.1251440">
        <ele>342.0</ele>
        <time>2022-08-12T08:08:37Z</time>
      </trkpt>
      <trkpt lat="42.4032650" lon="-2.1252030">
        <ele>341.6</ele>
        <time>2022-08-12T08:08:39Z</time>
      </trkpt>
      <trkpt lat="42.4033760" lon="-2.1252000">
        <ele>341.4</ele>
        <time>2022-08-12T08:08:41Z</time>
      </trkpt>
      <trkpt lat="42.4035640" lon="-2.1250840">
        <ele>340.4</ele>
        <time>2022-08-12T08:08:45Z</time>
      </trkpt>
      <trkpt lat="42.4036440" lon="-2.1250220">
        <ele>340.0</ele>
        <time>2022-08-12T08:08:47Z</time>
      </trkpt>
      <trkpt lat="42.4036920" lon="-2.1249800">
        <ele>339.8</ele>
        <time>2022-08-12T08:08:48Z</time>
      </trkpt>
      <trkpt lat="42.4037740" lon="-2.1249350">
        <ele>339.6</ele>
        <time>2022-08-12T08:08:50Z</time>
      </trkpt>
      <trkpt lat="42.4038640" lon="-2.1248930">
        <ele>339.4</ele>
        <time>2022-08-12T08:08:52Z</time>
      </trkpt>
      <trkpt lat="42.4039940" lon="-2.1248170">
        <ele>339.4</ele>
        <time>2022-08-12T08:08:55Z</time>
      </trkpt>
      <trkpt lat="42.4040770" lon="-2.1247590">
        <ele>339.2</ele>
        <time>2022-08-12T08:08:57Z</time>
      </trkpt>
      <trkpt lat="42.4042050" lon="-2.1246530">
        <ele>339.2</ele>
        <time>2022-08-12T08:09:00Z</time>
      </trkpt>
      <trkpt lat="42.4042800" lon="-2.1245720">
        <ele>339.0</ele>
        <time>2022-08-12T08:09:02Z</time>
      </trkpt>
      <trkpt lat="42.4043130" lon="-2.1245260">
        <ele>339.0</ele>
        <time>2022-08-12T08:09:03Z</time>
      </trkpt>
      <trkpt lat="42.4043850" lon="-2.1244210">
        <ele>339.0</ele>
        <time>2022-08-12T08:09:05Z</time>
      </trkpt>
      <trkpt lat="42.4044910" lon="-2.1242790">
        <ele>339.0</ele>
        <time>2022-08-12T08:09:08Z</time>
      </trkpt>
      <trkpt lat="42.4046240" lon="-2.1240870">
        <ele>339.0</ele>
        <time>2022-08-12T08:09:12Z</time>
      </trkpt>
      <trkpt lat="42.4046550" lon="-2.1240410">
        <ele>339.0</ele>
        <time>2022-08-12T08:09:13Z</time>
      </trkpt>
      <trkpt lat="42.4047150" lon="-2.1239540">
        <ele>339.0</ele>
        <time>2022-08-12T08:09:15Z</time>
      </trkpt>
      <trkpt lat="42.4048830" lon="-2.1237000">
        <ele>338.4</ele>
        <time>2022-08-12T08:09:20Z</time>
      </trkpt>
      <trkpt lat="42.4049210" lon="-2.1236480">
        <ele>338.4</ele>
        <time>2022-08-12T08:09:21Z</time>
      </trkpt>
      <trkpt lat="42.4050760" lon="-2.1234270">
        <ele>337.8</ele>
        <time>2022-08-12T08:09:25Z</time>
      </trkpt>
      <trkpt lat="42.4051470" lon="-2.1233080">
        <ele>337.4</ele>
        <time>2022-08-12T08:09:27Z</time>
      </trkpt>
      <trkpt lat="42.4052470" lon="-2.1231440">
        <ele>336.8</ele>
        <time>2022-08-12T08:09:30Z</time>
      </trkpt>
      <trkpt lat="42.4054810" lon="-2.1227860">
        <ele>336.4</ele>
        <time>2022-08-12T08:09:37Z</time>
      </trkpt>
      <trkpt lat="42.4056620" lon="-2.1225440">
        <ele>336.2</ele>
        <time>2022-08-12T08:09:42Z</time>
      </trkpt>
      <trkpt lat="42.4057670" lon="-2.1224020">
        <ele>336.2</ele>
        <time>2022-08-12T08:09:45Z</time>
      </trkpt>
      <trkpt lat="42.4058810" lon="-2.1222710">
        <ele>336.2</ele>
        <time>2022-08-12T08:09:48Z</time>
      </trkpt>
      <trkpt lat="42.4059890" lon="-2.1221300">
        <ele>336.2</ele>
        <time>2022-08-12T08:09:51Z</time>
      </trkpt>
      <trkpt lat="42.4061770" lon="-2.1218170">
        <ele>336.0</ele>
        <time>2022-08-12T08:09:57Z</time>
      </trkpt>
      <trkpt lat="42.4062140" lon="-2.1217610">
        <ele>335.8</ele>
        <time>2022-08-12T08:09:58Z</time>
      </trkpt>
      <trkpt lat="42.4062530" lon="-2.1217030">
        <ele>335.8</ele>
        <time>2022-08-12T08:09:59Z</time>
      </trkpt>
      <trkpt lat="42.4064510" lon="-2.1214090">
        <ele>335.0</ele>
        <time>2022-08-12T08:10:04Z</time>
      </trkpt>
      <trkpt lat="42.4064860" lon="-2.1213600">
        <ele>334.8</ele>
        <time>2022-08-12T08:10:05Z</time>
      </trkpt>
      <trkpt lat="42.4065810" lon="-2.1212400">
        <ele>334.2</ele>
        <time>2022-08-12T08:10:08Z</time>
      </trkpt>
      <trkpt lat="42.4066550" lon="-2.1211670">
        <ele>334.0</ele>
        <time>2022-08-12T08:10:10Z</time>
      </trkpt>
      <trkpt lat="42.4066990" lon="-2.1211370">
        <ele>333.6</ele>
        <time>2022-08-12T08:10:11Z</time>
      </trkpt>
      <trkpt lat="42.4068050" lon="-2.1210860">
        <ele>333.4</ele>
        <time>2022-08-12T08:10:13Z</time>
      </trkpt>
      <trkpt lat="42.4068630" lon="-2.1210640">
        <ele>333.0</ele>
        <time>2022-08-12T08:10:14Z</time>
      </trkpt>
      <trkpt lat="42.4069100" lon="-2.1210450">
        <ele>332.4</ele>
        <time>2022-08-12T08:10:15Z</time>
      </trkpt>
      <trkpt lat="42.4070580" lon="-2.1209970">
        <ele>331.2</ele>
        <time>2022-08-12T08:10:18Z</time>
      </trkpt>
      <trkpt lat="42.4071460" lon="-2.1209650">
        <ele>330.4</ele>
        <time>2022-08-12T08:10:20Z</time>
      </trkpt>
      <trkpt lat="42.4072040" lon="-2.1209440">
        <ele>329.8</ele>
        <time>2022-08-12T08:10:21Z</time>
      </trkpt>
      <trkpt lat="42.4073500" lon="-2.1208670">
        <ele>328.6</ele>
        <time>2022-08-12T08:10:25Z</time>
      </trkpt>
      <trkpt lat="42.4073860" lon="-2.1208550">
        <ele>328.2</ele>
        <time>2022-08-12T08:10:26Z</time>
      </trkpt>
      <trkpt lat="42.4074440" lon="-2.1208770">
        <ele>328.0</ele>
        <time>2022-08-12T08:10:28Z</time>
      </trkpt>
      <trkpt lat="42.4074710" lon="-2.1209130">
        <ele>327.8</ele>
        <time>2022-08-12T08:10:29Z</time>
      </trkpt>
      <trkpt lat="42.4074970" lon="-2.1210210">
        <ele>327.6</ele>
        <time>2022-08-12T08:10:31Z</time>
      </trkpt>
      <trkpt lat="42.4075220" lon="-2.1211290">
        <ele>327.4</ele>
        <time>2022-08-12T08:10:33Z</time>
      </trkpt>
      <trkpt lat="42.4075400" lon="-2.1211830">
        <ele>327.2</ele>
        <time>2022-08-12T08:10:34Z</time>
      </trkpt>
      <trkpt lat="42.4076030" lon="-2.1213930">
        <ele>327.2</ele>
        <time>2022-08-12T08:10:38Z</time>
      </trkpt>
      <trkpt lat="42.4076210" lon="-2.1214640">
        <ele>327.2</ele>
        <time>2022-08-12T08:10:39Z</time>
      </trkpt>
      <trkpt lat="42.4076920" lon="-2.1217060">
        <ele>327.2</ele>
        <time>2022-08-12T08:10:43Z</time>
      </trkpt>
      <trkpt lat="42.4077230" lon="-2.1218320">
        <ele>327.2</ele>
        <time>2022-08-12T08:10:45Z</time>
      </trkpt>
      <trkpt lat="42.4077410" lon="-2.1218950">
        <ele>327.2</ele>
        <time>2022-08-12T08:10:46Z</time>
      </trkpt>
      <trkpt lat="42.4078610" lon="-2.1223870">
        <ele>327.0</ele>
        <time>2022-08-12T08:10:54Z</time>
      </trkpt>
      <trkpt lat="42.4079350" lon="-2.1226870">
        <ele>327.0</ele>
        <time>2022-08-12T08:10:59Z</time>
      </trkpt>
      <trkpt lat="42.4079830" lon="-2.1228610">
        <ele>327.0</ele>
        <time>2022-08-12T08:11:02Z</time>
      </trkpt>
      <trkpt lat="42.4080140" lon="-2.1229850">
        <ele>327.0</ele>
        <time>2022-08-12T08:11:04Z</time>
      </trkpt>
      <trkpt lat="42.4080460" lon="-2.1231090">
        <ele>327.2</ele>
        <time>2022-08-12T08:11:06Z</time>
      </trkpt>
      <trkpt lat="42.4081600" lon="-2.1235820">
        <ele>327.6</ele>
        <time>2022-08-12T08:11:14Z</time>
      </trkpt>
      <trkpt lat="42.4082000" lon="-2.1237600">
        <ele>327.6</ele>
        <time>2022-08-12T08:11:17Z</time>
      </trkpt>
      <trkpt lat="42.4082360" lon="-2.1238870">
        <ele>327.6</ele>
        <time>2022-08-12T08:11:19Z</time>
      </trkpt>
      <trkpt lat="42.4082890" lon="-2.1239840">
        <ele>327.4</ele>
        <time>2022-08-12T08:11:21Z</time>
      </trkpt>
      <trkpt lat="42.4083200" lon="-2.1240230">
        <ele>327.4</ele>
        <time>2022-08-12T08:11:22Z</time>
      </trkpt>
      <trkpt lat="42.4084700" lon="-2.1241480">
        <ele>327.2</ele>
        <time>2022-08-12T08:11:27Z</time>
      </trkpt>
      <trkpt lat="42.4085010" lon="-2.1241720">
        <ele>327.2</ele>
        <time>2022-08-12T08:11:28Z</time>
      </trkpt>
      <trkpt lat="42.4085320" lon="-2.1242930">
        <ele>327.4</ele>
        <time>2022-08-12T08:11:32Z</time>
      </trkpt>
      <trkpt lat="42.4084880" lon="-2.1244550">
        <ele>327.2</ele>
        <time>2022-08-12T08:11:36Z</time>
      </trkpt>
      <trkpt lat="42.4084900" lon="-2.1245080">
        <ele>327.0</ele>
        <time>2022-08-12T08:11:37Z</time>
      </trkpt>
      <trkpt lat="42.4085010" lon="-2.1245610">
        <ele>327.0</ele>
        <time>2022-08-12T08:11:38Z</time>
      </trkpt>
      <trkpt lat="42.4085670" lon="-2.1247260">
        <ele>326.8</ele>
        <time>2022-08-12T08:11:41Z</time>
      </trkpt>
      <trkpt lat="42.4086090" lon="-2.1248390">
        <ele>326.6</ele>
        <time>2022-08-12T08:11:43Z</time>
      </trkpt>
      <trkpt lat="42.4087440" lon="-2.1251650">
        <ele>326.0</ele>
        <time>2022-08-12T08:11:49Z</time>
      </trkpt>
      <trkpt lat="42.4088880" lon="-2.1256710">
        <ele>326.0</ele>
        <time>2022-08-12T08:11:58Z</time>
      </trkpt>
      <trkpt lat="42.4089240" lon="-2.1258500">
        <ele>325.8</ele>
        <time>2022-08-12T08:12:01Z</time>
      </trkpt>
      <trkpt lat="42.4089600" lon="-2.1260340">
        <ele>325.8</ele>
        <time>2022-08-12T08:12:04Z</time>
      </trkpt>
      <trkpt lat="42.4089960" lon="-2.1262090">
        <ele>325.6</ele>
        <time>2022-08-12T08:12:07Z</time>
      </trkpt>
      <trkpt lat="42.4090100" lon="-2.1262680">
        <ele>325.6</ele>
        <time>2022-08-12T08:12:08Z</time>
      </trkpt>
      <trkpt lat="42.4090430" lon="-2.1264530">
        <ele>325.0</ele>
        <time>2022-08-12T08:12:11Z</time>
      </trkpt>
      <trkpt lat="42.4090750" lon="-2.1266810">
        <ele>325.0</ele>
        <time>2022-08-12T08:12:15Z</time>
      </trkpt>
      <trkpt lat="42.4091020" lon="-2.1269530">
        <ele>324.6</ele>
        <time>2022-08-12T08:12:20Z</time>
      </trkpt>
      <trkpt lat="42.4091170" lon="-2.1270530">
        <ele>324.8</ele>
        <time>2022-08-12T08:12:22Z</time>
      </trkpt>
      <trkpt lat="42.4091260" lon="-2.1271470">
        <ele>324.8</ele>
        <time>2022-08-12T08:12:24Z</time>
      </trkpt>
      <trkpt lat="42.4091410" lon="-2.1274340">
        <ele>324.8</ele>
        <time>2022-08-12T08:12:29Z</time>
      </trkpt>
      <trkpt lat="42.4091480" lon="-2.1274790">
        <ele>324.8</ele>
        <time>2022-08-12T08:12:30Z</time>
      </trkpt>
      <trkpt lat="42.4092580" lon="-2.1278570">
        <ele>324.8</ele>
        <time>2022-08-12T08:12:37Z</time>
      </trkpt>
      <trkpt lat="42.4092890" lon="-2.1279670">
        <ele>324.8</ele>
        <time>2022-08-12T08:12:39Z</time>
      </trkpt>
      <trkpt lat="42.4093280" lon="-2.1281250">
        <ele>325.0</ele>
        <time>2022-08-12T08:12:42Z</time>
      </trkpt>
      <trkpt lat="42.4093740" lon="-2.1282670">
        <ele>325.0</ele>
        <time>2022-08-12T08:12:45Z</time>
      </trkpt>
      <trkpt lat="42.4093960" lon="-2.1283130">
        <ele>325.0</ele>
        <time>2022-08-12T08:12:46Z</time>
      </trkpt>
      <trkpt lat="42.4094600" lon="-2.1284600">
        <ele>325.0</ele>
        <time>2022-08-12T08:12:49Z</time>
      </trkpt>
      <trkpt lat="42.4095770" lon="-2.1287970">
        <ele>325.4</ele>
        <time>2022-08-12T08:12:55Z</time>
      </trkpt>
      <trkpt lat="42.4097200" lon="-2.1292910">
        <ele>325.2</ele>
        <time>2022-08-12T08:13:03Z</time>
      </trkpt>
      <trkpt lat="42.4098170" lon="-2.1295990">
        <ele>325.0</ele>
        <time>2022-08-12T08:13:08Z</time>
      </trkpt>
      <trkpt lat="42.4099140" lon="-2.1298990">
        <ele>324.6</ele>
        <time>2022-08-12T08:13:13Z</time>
      </trkpt>
      <trkpt lat="42.4099550" lon="-2.1300170">
        <ele>324.4</ele>
        <time>2022-08-12T08:13:15Z</time>
      </trkpt>
      <trkpt lat="42.4101200" lon="-2.1304560">
        <ele>324.6</ele>
        <time>2022-08-12T08:13:23Z</time>
      </trkpt>
      <trkpt lat="42.4102130" lon="-2.1306740">
        <ele>324.6</ele>
        <time>2022-08-12T08:13:27Z</time>
      </trkpt>
      <trkpt lat="42.4102870" lon="-2.1308340">
        <ele>324.6</ele>
        <time>2022-08-12T08:13:30Z</time>
      </trkpt>
      <trkpt lat="42.4103050" lon="-2.1308920">
        <ele>324.6</ele>
        <time>2022-08-12T08:13:31Z</time>
      </trkpt>
      <trkpt lat="42.4103910" lon="-2.1311950">
        <ele>324.4</ele>
        <time>2022-08-12T08:13:36Z</time>
      </trkpt>
      <trkpt lat="42.4104360" lon="-2.1313090">
        <ele>324.8</ele>
        <time>2022-08-12T08:13:38Z</time>
      </trkpt>
      <trkpt lat="42.4104560" lon="-2.1313650">
        <ele>324.6</ele>
        <time>2022-08-12T08:13:39Z</time>
      </trkpt>
      <trkpt lat="42.4105420" lon="-2.1316000">
        <ele>324.6</ele>
        <time>2022-08-12T08:13:43Z</time>
      </trkpt>
      <trkpt lat="42.4105590" lon="-2.1316420">
        <ele>324.6</ele>
        <time>2022-08-12T08:13:44Z</time>
      </trkpt>
      <trkpt lat="42.4106060" lon="-2.1317570">
        <ele>324.6</ele>
        <time>2022-08-12T08:13:46Z</time>
      </trkpt>
      <trkpt lat="42.4106530" lon="-2.1318630">
        <ele>324.8</ele>
        <time>2022-08-12T08:13:48Z</time>
      </trkpt>
      <trkpt lat="42.4107250" lon="-2.1320220">
        <ele>324.8</ele>
        <time>2022-08-12T08:13:51Z</time>
      </trkpt>
      <trkpt lat="42.4107900" lon="-2.1321960">
        <ele>324.4</ele>
        <time>2022-08-12T08:13:54Z</time>
      </trkpt>
      <trkpt lat="42.4108520" lon="-2.1323620">
        <ele>324.6</ele>
        <time>2022-08-12T08:13:57Z</time>
      </trkpt>
      <trkpt lat="42.4109700" lon="-2.1327140">
        <ele>324.4</ele>
        <time>2022-08-12T08:14:03Z</time>
      </trkpt>
      <trkpt lat="42.4109820" lon="-2.1327760">
        <ele>324.4</ele>
        <time>2022-08-12T08:14:04Z</time>
      </trkpt>
      <trkpt lat="42.4111210" lon="-2.1332580">
        <ele>324.2</ele>
        <time>2022-08-12T08:14:12Z</time>
      </trkpt>
      <trkpt lat="42.4112280" lon="-2.1336260">
        <ele>324.2</ele>
        <time>2022-08-12T08:14:19Z</time>
      </trkpt>
      <trkpt lat="42.4112440" lon="-2.1336770">
        <ele>324.2</ele>
        <time>2022-08-12T08:14:20Z</time>
      </trkpt>
      <trkpt lat="42.4113200" lon="-2.1340080">
        <ele>324.0</ele>
        <time>2022-08-12T08:14:26Z</time>
      </trkpt>
      <trkpt lat="42.4113460" lon="-2.1341820">
        <ele>324.2</ele>
        <time>2022-08-12T08:14:29Z</time>
      </trkpt>
      <trkpt lat="42.4114000" lon="-2.1346590">
        <ele>324.4</ele>
        <time>2022-08-12T08:14:37Z</time>
      </trkpt>
      <trkpt lat="42.4114380" lon="-2.1349890">
        <ele>324.8</ele>
        <time>2022-08-12T08:14:43Z</time>
      </trkpt>
      <trkpt lat="42.4114330" lon="-2.1351560">
        <ele>324.8</ele>
        <time>2022-08-12T08:14:46Z</time>
      </trkpt>
      <trkpt lat="42.4114360" lon="-2.1352140">
        <ele>324.8</ele>
        <time>2022-08-12T08:14:47Z</time>
      </trkpt>
      <trkpt lat="42.4114830" lon="-2.1354210">
        <ele>325.0</ele>
        <time>2022-08-12T08:14:51Z</time>
      </trkpt>
      <trkpt lat="42.4114950" lon="-2.1354690">
        <ele>325.0</ele>
        <time>2022-08-12T08:14:52Z</time>
      </trkpt>
      <trkpt lat="42.4115270" lon="-2.1356480">
        <ele>325.0</ele>
        <time>2022-08-12T08:14:55Z</time>
      </trkpt>
      <trkpt lat="42.4115400" lon="-2.1357690">
        <ele>325.2</ele>
        <time>2022-08-12T08:14:57Z</time>
      </trkpt>
      <trkpt lat="42.4115350" lon="-2.1360090">
        <ele>325.0</ele>
        <time>2022-08-12T08:15:01Z</time>
      </trkpt>
      <trkpt lat="42.4115160" lon="-2.1361820">
        <ele>324.8</ele>
        <time>2022-08-12T08:15:04Z</time>
      </trkpt>
      <trkpt lat="42.4114810" lon="-2.1366490">
        <ele>325.0</ele>
        <time>2022-08-12T08:15:13Z</time>
      </trkpt>
      <trkpt lat="42.4114600" lon="-2.1367220">
        <ele>325.4</ele>
        <time>2022-08-12T08:15:15Z</time>
      </trkpt>
      <trkpt lat="42.4114380" lon="-2.1368420">
        <ele>326.2</ele>
        <time>2022-08-12T08:15:18Z</time>
      </trkpt>
      <trkpt lat="42.4114320" lon="-2.1368900">
        <ele>326.2</ele>
        <time>2022-08-12T08:15:19Z</time>
      </trkpt>
      <trkpt lat="42.4114260" lon="-2.1369410">
        <ele>326.6</ele>
        <time>2022-08-12T08:15:20Z</time>
      </trkpt>
      <trkpt lat="42.4114230" lon="-2.1370460">
        <ele>327.0</ele>
        <time>2022-08-12T08:15:22Z</time>
      </trkpt>
      <trkpt lat="42.4114330" lon="-2.1372180">
        <ele>327.4</ele>
        <time>2022-08-12T08:15:25Z</time>
      </trkpt>
      <trkpt lat="42.4114340" lon="-2.1373160">
        <ele>327.4</ele>
        <time>2022-08-12T08:15:27Z</time>
      </trkpt>
      <trkpt lat="42.4114540" lon="-2.1376430">
        <ele>327.6</ele>
        <time>2022-08-12T08:15:33Z</time>
      </trkpt>
      <trkpt lat="42.4114580" lon="-2.1378070">
        <ele>327.0</ele>
        <time>2022-08-12T08:15:36Z</time>
      </trkpt>
      <trkpt lat="42.4114890" lon="-2.1383030">
        <ele>327.6</ele>
        <time>2022-08-12T08:15:45Z</time>
      </trkpt>
      <trkpt lat="42.4114930" lon="-2.1383460">
        <ele>327.8</ele>
        <time>2022-08-12T08:15:46Z</time>
      </trkpt>
      <trkpt lat="42.4115260" lon="-2.1388930">
        <ele>326.4</ele>
        <time>2022-08-12T08:15:56Z</time>
      </trkpt>
      <trkpt lat="42.4115420" lon="-2.1392860">
        <ele>326.4</ele>
        <time>2022-08-12T08:16:03Z</time>
      </trkpt>
      <trkpt lat="42.4115630" lon="-2.1396270">
        <ele>327.4</ele>
        <time>2022-08-12T08:16:09Z</time>
      </trkpt>
      <trkpt lat="42.4115750" lon="-2.1398000">
        <ele>327.6</ele>
        <time>2022-08-12T08:16:12Z</time>
      </trkpt>
      <trkpt lat="42.4116180" lon="-2.1404250">
        <ele>327.6</ele>
        <time>2022-08-12T08:16:23Z</time>
      </trkpt>
      <trkpt lat="42.4116550" lon="-2.1409710">
        <ele>327.8</ele>
        <time>2022-08-12T08:16:32Z</time>
      </trkpt>
      <trkpt lat="42.4116710" lon="-2.1411530">
        <ele>327.8</ele>
        <time>2022-08-12T08:16:35Z</time>
      </trkpt>
      <trkpt lat="42.4117120" lon="-2.1417060">
        <ele>327.6</ele>
        <time>2022-08-12T08:16:44Z</time>
      </trkpt>
      <trkpt lat="42.4117580" lon="-2.1422050">
        <ele>327.6</ele>
        <time>2022-08-12T08:16:52Z</time>
      </trkpt>
      <trkpt lat="42.4118290" lon="-2.1427070">
        <ele>326.8</ele>
        <time>2022-08-12T08:17:00Z</time>
      </trkpt>
      <trkpt lat="42.4118490" lon="-2.1428330">
        <ele>326.8</ele>
        <time>2022-08-12T08:17:02Z</time>
      </trkpt>
      <trkpt lat="42.4119100" lon="-2.1432130">
        <ele>326.8</ele>
        <time>2022-08-12T08:17:08Z</time>
      </trkpt>
      <trkpt lat="42.4119980" lon="-2.1438300">
        <ele>327.8</ele>
        <time>2022-08-12T08:17:18Z</time>
      </trkpt>
      <trkpt lat="42.4120320" lon="-2.1441470">
        <ele>327.4</ele>
        <time>2022-08-12T08:17:23Z</time>
      </trkpt>
      <trkpt lat="42.4120620" lon="-2.1442790">
        <ele>327.0</ele>
        <time>2022-08-12T08:17:25Z</time>
      </trkpt>
      <trkpt lat="42.4120840" lon="-2.1444180">
        <ele>326.4</ele>
        <time>2022-08-12T08:17:27Z</time>
      </trkpt>
      <trkpt lat="42.4120910" lon="-2.1444910">
        <ele>326.0</ele>
        <time>2022-08-12T08:17:28Z</time>
      </trkpt>
      <trkpt lat="42.4120890" lon="-2.1445590">
        <ele>325.8</ele>
        <time>2022-08-12T08:17:29Z</time>
      </trkpt>
      <trkpt lat="42.4120790" lon="-2.1446240">
        <ele>325.6</ele>
        <time>2022-08-12T08:17:30Z</time>
      </trkpt>
      <trkpt lat="42.4120610" lon="-2.1447460">
        <ele>325.2</ele>
        <time>2022-08-12T08:17:32Z</time>
      </trkpt>
      <trkpt lat="42.4120500" lon="-2.1449810">
        <ele>325.0</ele>
        <time>2022-08-12T08:17:36Z</time>
      </trkpt>
      <trkpt lat="42.4120130" lon="-2.1454560">
        <ele>324.6</ele>
        <time>2022-08-12T08:17:44Z</time>
      </trkpt>
      <trkpt lat="42.4119860" lon="-2.1456920">
        <ele>324.2</ele>
        <time>2022-08-12T08:17:48Z</time>
      </trkpt>
      <trkpt lat="42.4119630" lon="-2.1459130">
        <ele>324.4</ele>
        <time>2022-08-12T08:17:52Z</time>
      </trkpt>
      <trkpt lat="42.4119540" lon="-2.1459720">
        <ele>324.4</ele>
        <time>2022-08-12T08:17:53Z</time>
      </trkpt>
      <trkpt lat="42.4119100" lon="-2.1463300">
        <ele>324.6</ele>
        <time>2022-08-12T08:17:59Z</time>
      </trkpt>
      <trkpt lat="42.4119400" lon="-2.1464400">
        <ele>324.6</ele>
        <time>2022-08-12T08:18:01Z</time>
      </trkpt>
      <trkpt lat="42.4120060" lon="-2.1465910">
        <ele>324.8</ele>
        <time>2022-08-12T08:18:04Z</time>
      </trkpt>
      <trkpt lat="42.4120880" lon="-2.1467330">
        <ele>324.8</ele>
        <time>2022-08-12T08:18:07Z</time>
      </trkpt>
      <trkpt lat="42.4121070" lon="-2.1467750">
        <ele>324.8</ele>
        <time>2022-08-12T08:18:08Z</time>
      </trkpt>
      <trkpt lat="42.4121970" lon="-2.1469950">
        <ele>324.6</ele>
        <time>2022-08-12T08:18:12Z</time>
      </trkpt>
      <trkpt lat="42.4122200" lon="-2.1471140">
        <ele>324.4</ele>
        <time>2022-08-12T08:18:14Z</time>
      </trkpt>
      <trkpt lat="42.4122330" lon="-2.1471700">
        <ele>324.2</ele>
        <time>2022-08-12T08:18:15Z</time>
      </trkpt>
      <trkpt lat="42.4122600" lon="-2.1472760">
        <ele>324.4</ele>
        <time>2022-08-12T08:18:17Z</time>
      </trkpt>
      <trkpt lat="42.4122870" lon="-2.1473750">
        <ele>324.4</ele>
        <time>2022-08-12T08:18:19Z</time>
      </trkpt>
      <trkpt lat="42.4122940" lon="-2.1474290">
        <ele>324.4</ele>
        <time>2022-08-12T08:18:20Z</time>
      </trkpt>
      <trkpt lat="42.4123710" lon="-2.1478080">
        <ele>324.6</ele>
        <time>2022-08-12T08:18:27Z</time>
      </trkpt>
      <trkpt lat="42.4123810" lon="-2.1478420">
        <ele>324.6</ele>
        <time>2022-08-12T08:18:28Z</time>
      </trkpt>
      <trkpt lat="42.4124120" lon="-2.1480070">
        <ele>324.8</ele>
        <time>2022-08-12T08:18:31Z</time>
      </trkpt>
      <trkpt lat="42.4124430" lon="-2.1482200">
        <ele>324.8</ele>
        <time>2022-08-12T08:18:34Z</time>
      </trkpt>
      <trkpt lat="42.4124600" lon="-2.1483290">
        <ele>325.0</ele>
        <time>2022-08-12T08:18:36Z</time>
      </trkpt>
      <trkpt lat="42.4125260" lon="-2.1487910">
        <ele>324.8</ele>
        <time>2022-08-12T08:18:44Z</time>
      </trkpt>
      <trkpt lat="42.4125330" lon="-2.1488530">
        <ele>324.6</ele>
        <time>2022-08-12T08:18:45Z</time>
      </trkpt>
      <trkpt lat="42.4125400" lon="-2.1489110">
        <ele>324.6</ele>
        <time>2022-08-12T08:18:46Z</time>
      </trkpt>
      <trkpt lat="42.4125560" lon="-2.1490230">
        <ele>324.4</ele>
        <time>2022-08-12T08:18:48Z</time>
      </trkpt>
      <trkpt lat="42.4125590" lon="-2.1490810">
        <ele>324.4</ele>
        <time>2022-08-12T08:18:49Z</time>
      </trkpt>
      <trkpt lat="42.4125610" lon="-2.1491420">
        <ele>324.4</ele>
        <time>2022-08-12T08:18:50Z</time>
      </trkpt>
      <trkpt lat="42.4125590" lon="-2.1492650">
        <ele>324.0</ele>
        <time>2022-08-12T08:18:52Z</time>
      </trkpt>
      <trkpt lat="42.4125520" lon="-2.1493870">
        <ele>324.0</ele>
        <time>2022-08-12T08:18:54Z</time>
      </trkpt>
      <trkpt lat="42.4125460" lon="-2.1494500">
        <ele>324.2</ele>
        <time>2022-08-12T08:18:55Z</time>
      </trkpt>
      <trkpt lat="42.4124900" lon="-2.1499880">
        <ele>324.2</ele>
        <time>2022-08-12T08:19:04Z</time>
      </trkpt>
      <trkpt lat="42.4124080" lon="-2.1504630">
        <ele>324.6</ele>
        <time>2022-08-12T08:19:12Z</time>
      </trkpt>
      <trkpt lat="42.4122920" lon="-2.1509390">
        <ele>324.4</ele>
        <time>2022-08-12T08:19:20Z</time>
      </trkpt>
      <trkpt lat="42.4121650" lon="-2.1513420">
        <ele>324.2</ele>
        <time>2022-08-12T08:19:27Z</time>
      </trkpt>
      <trkpt lat="42.4120590" lon="-2.1517410">
        <ele>324.4</ele>
        <time>2022-08-12T08:19:34Z</time>
      </trkpt>
      <trkpt lat="42.4120420" lon="-2.1517960">
        <ele>324.4</ele>
        <time>2022-08-12T08:19:35Z</time>
      </trkpt>
      <trkpt lat="42.4119410" lon="-2.1520530">
        <ele>324.4</ele>
        <time>2022-08-12T08:19:40Z</time>
      </trkpt>
      <trkpt lat="42.4117560" lon="-2.1524920">
        <ele>324.6</ele>
        <time>2022-08-12T08:19:48Z</time>
      </trkpt>
      <trkpt lat="42.4115990" lon="-2.1529290">
        <ele>324.8</ele>
        <time>2022-08-12T08:19:56Z</time>
      </trkpt>
      <trkpt lat="42.4114930" lon="-2.1531960">
        <ele>325.0</ele>
        <time>2022-08-12T08:20:01Z</time>
      </trkpt>
      <trkpt lat="42.4113790" lon="-2.1533920">
        <ele>325.0</ele>
        <time>2022-08-12T08:20:05Z</time>
      </trkpt>
      <trkpt lat="42.4112140" lon="-2.1536150">
        <ele>325.0</ele>
        <time>2022-08-12T08:20:10Z</time>
      </trkpt>
      <trkpt lat="42.4110900" lon="-2.1537940">
        <ele>325.0</ele>
        <time>2022-08-12T08:20:14Z</time>
      </trkpt>
      <trkpt lat="42.4110050" lon="-2.1539390">
        <ele>325.0</ele>
        <time>2022-08-12T08:20:17Z</time>
      </trkpt>
      <trkpt lat="42.4108950" lon="-2.1541410">
        <ele>325.2</ele>
        <time>2022-08-12T08:20:21Z</time>
      </trkpt>
      <trkpt lat="42.4106710" lon="-2.1545220">
        <ele>325.2</ele>
        <time>2022-08-12T08:20:29Z</time>
      </trkpt>
      <trkpt lat="42.4104960" lon="-2.1547940">
        <ele>325.2</ele>
        <time>2022-08-12T08:20:35Z</time>
      </trkpt>
      <trkpt lat="42.4104290" lon="-2.1548600">
        <ele>325.2</ele>
        <time>2022-08-12T08:20:37Z</time>
      </trkpt>
      <trkpt lat="42.4102020" lon="-2.1549620">
        <ele>325.6</ele>
        <time>2022-08-12T08:20:43Z</time>
      </trkpt>
      <trkpt lat="42.4101230" lon="-2.1549690">
        <ele>325.8</ele>
        <time>2022-08-12T08:20:45Z</time>
      </trkpt>
      <trkpt lat="42.4100580" lon="-2.1549720">
        <ele>325.8</ele>
        <time>2022-08-12T08:20:47Z</time>
      </trkpt>
      <trkpt lat="42.4099490" lon="-2.1549820">
        <ele>326.6</ele>
        <time>2022-08-12T08:20:50Z</time>
      </trkpt>
      <trkpt lat="42.4099160" lon="-2.1549860">
        <ele>326.8</ele>
        <time>2022-08-12T08:20:51Z</time>
      </trkpt>
      <trkpt lat="42.4097670" lon="-2.1550620">
        <ele>327.2</ele>
        <time>2022-08-12T08:20:56Z</time>
      </trkpt>
      <trkpt lat="42.4097100" lon="-2.1551700">
        <ele>327.2</ele>
        <time>2022-08-12T08:20:59Z</time>
      </trkpt>
      <trkpt lat="42.4096680" lon="-2.1553000">
        <ele>327.4</ele>
        <time>2022-08-12T08:21:02Z</time>
      </trkpt>
      <trkpt lat="42.4095930" lon="-2.1556160">
        <ele>327.4</ele>
        <time>2022-08-12T08:21:08Z</time>
      </trkpt>
      <trkpt lat="42.4095820" lon="-2.1556700">
        <ele>327.2</ele>
        <time>2022-08-12T08:21:09Z</time>
      </trkpt>
      <trkpt lat="42.4094970" lon="-2.1560650">
        <ele>326.4</ele>
        <time>2022-08-12T08:21:16Z</time>
      </trkpt>
      <trkpt lat="42.4094690" lon="-2.1561810">
        <ele>326.4</ele>
        <time>2022-08-12T08:21:18Z</time>
      </trkpt>
      <trkpt lat="42.4093910" lon="-2.1565220">
        <ele>326.4</ele>
        <time>2022-08-12T08:21:24Z</time>
      </trkpt>
      <trkpt lat="42.4093790" lon="-2.1565780">
        <ele>326.4</ele>
        <time>2022-08-12T08:21:25Z</time>
      </trkpt>
      <trkpt lat="42.4092460" lon="-2.1571050">
        <ele>327.0</ele>
        <time>2022-08-12T08:21:35Z</time>
      </trkpt>
      <trkpt lat="42.4092190" lon="-2.1572080">
        <ele>327.0</ele>
        <time>2022-08-12T08:21:37Z</time>
      </trkpt>
      <trkpt lat="42.4091250" lon="-2.1575500">
        <ele>327.2</ele>
        <time>2022-08-12T08:21:44Z</time>
      </trkpt>
      <trkpt lat="42.4090520" lon="-2.1578250">
        <ele>327.0</ele>
        <time>2022-08-12T08:21:50Z</time>
      </trkpt>
      <trkpt lat="42.4089790" lon="-2.1581470">
        <ele>328.0</ele>
        <time>2022-08-12T08:21:57Z</time>
      </trkpt>
      <trkpt lat="42.4089830" lon="-2.1584450">
        <ele>328.2</ele>
        <time>2022-08-12T08:22:04Z</time>
      </trkpt>
      <trkpt lat="42.4090540" lon="-2.1585620">
        <ele>328.2</ele>
        <time>2022-08-12T08:22:07Z</time>
      </trkpt>
      <trkpt lat="42.4090860" lon="-2.1585930">
        <ele>328.2</ele>
        <time>2022-08-12T08:22:08Z</time>
      </trkpt>
      <trkpt lat="42.4092050" lon="-2.1586960">
        <ele>327.8</ele>
        <time>2022-08-12T08:22:12Z</time>
      </trkpt>
      <trkpt lat="42.4092340" lon="-2.1587510">
        <ele>327.4</ele>
        <time>2022-08-12T08:22:14Z</time>
      </trkpt>
      <trkpt lat="42.4092340" lon="-2.1587630">
        <ele>327.2</ele>
        <time>2022-08-12T08:22:15Z</time>
      </trkpt>
      <trkpt lat="42.4092340" lon="-2.1587740">
        <ele>327.4</ele>
        <time>2022-08-12T08:22:33Z</time>
      </trkpt>
      <trkpt lat="42.4092340" lon="-2.1587860">
        <ele>327.2</ele>
        <time>2022-08-12T08:22:34Z</time>
      </trkpt>
      <trkpt lat="42.4092240" lon="-2.1588270">
        <ele>327.2</ele>
        <time>2022-08-12T08:22:35Z</time>
      </trkpt>
      <trkpt lat="42.4092080" lon="-2.1588760">
        <ele>327.2</ele>
        <time>2022-08-12T08:22:36Z</time>
      </trkpt>
      <trkpt lat="42.4091850" lon="-2.1589240">
        <ele>327.0</ele>
        <time>2022-08-12T08:22:37Z</time>
      </trkpt>
      <trkpt lat="42.4091590" lon="-2.1589660">
        <ele>327.0</ele>
        <time>2022-08-12T08:22:38Z</time>
      </trkpt>
      <trkpt lat="42.4090940" lon="-2.1590110">
        <ele>326.8</ele>
        <time>2022-08-12T08:22:40Z</time>
      </trkpt>
      <trkpt lat="42.4090590" lon="-2.1590140">
        <ele>326.6</ele>
        <time>2022-08-12T08:22:41Z</time>
      </trkpt>
      <trkpt lat="42.4089500" lon="-2.1589960">
        <ele>326.2</ele>
        <time>2022-08-12T08:22:44Z</time>
      </trkpt>
      <trkpt lat="42.4088430" lon="-2.1590180">
        <ele>326.2</ele>
        <time>2022-08-12T08:22:47Z</time>
      </trkpt>
      <trkpt lat="42.4087720" lon="-2.1591040">
        <ele>326.2</ele>
        <time>2022-08-12T08:22:50Z</time>
      </trkpt>
      <trkpt lat="42.4087560" lon="-2.1591450">
        <ele>326.4</ele>
        <time>2022-08-12T08:22:51Z</time>
      </trkpt>
      <trkpt lat="42.4086980" lon="-2.1594660">
        <ele>327.0</ele>
        <time>2022-08-12T08:22:58Z</time>
      </trkpt>
      <trkpt lat="42.4086430" lon="-2.1599820">
        <ele>327.2</ele>
        <time>2022-08-12T08:23:08Z</time>
      </trkpt>
      <trkpt lat="42.4085440" lon="-2.1601960">
        <ele>327.2</ele>
        <time>2022-08-12T08:23:13Z</time>
      </trkpt>
      <trkpt lat="42.4084870" lon="-2.1604410">
        <ele>327.4</ele>
        <time>2022-08-12T08:23:18Z</time>
      </trkpt>
      <trkpt lat="42.4084690" lon="-2.1606590">
        <ele>327.6</ele>
        <time>2022-08-12T08:23:22Z</time>
      </trkpt>
      <trkpt lat="42.4084430" lon="-2.1608450">
        <ele>327.6</ele>
        <time>2022-08-12T08:23:25Z</time>
      </trkpt>
      <trkpt lat="42.4084300" lon="-2.1609570">
        <ele>327.4</ele>
        <time>2022-08-12T08:23:27Z</time>
      </trkpt>
      <trkpt lat="42.4084190" lon="-2.1610080">
        <ele>327.4</ele>
        <time>2022-08-12T08:23:28Z</time>
      </trkpt>
      <trkpt lat="42.4083750" lon="-2.1611610">
        <ele>326.8</ele>
        <time>2022-08-12T08:23:31Z</time>
      </trkpt>
      <trkpt lat="42.4083560" lon="-2.1612160">
        <ele>326.6</ele>
        <time>2022-08-12T08:23:32Z</time>
      </trkpt>
      <trkpt lat="42.4082570" lon="-2.1615510">
        <ele>326.6</ele>
        <time>2022-08-12T08:23:39Z</time>
      </trkpt>
      <trkpt lat="42.4082520" lon="-2.1616060">
        <ele>326.8</ele>
        <time>2022-08-12T08:23:40Z</time>
      </trkpt>
      <trkpt lat="42.4082360" lon="-2.1617650">
        <ele>327.0</ele>
        <time>2022-08-12T08:23:43Z</time>
      </trkpt>
      <trkpt lat="42.4082250" lon="-2.1618190">
        <ele>327.2</ele>
        <time>2022-08-12T08:23:44Z</time>
      </trkpt>
      <trkpt lat="42.4082030" lon="-2.1619280">
        <ele>327.4</ele>
        <time>2022-08-12T08:23:46Z</time>
      </trkpt>
      <trkpt lat="42.4081960" lon="-2.1619830">
        <ele>327.6</ele>
        <time>2022-08-12T08:23:47Z</time>
      </trkpt>
      <trkpt lat="42.4081870" lon="-2.1620380">
        <ele>327.6</ele>
        <time>2022-08-12T08:23:48Z</time>
      </trkpt>
      <trkpt lat="42.4081620" lon="-2.1621510">
        <ele>327.6</ele>
        <time>2022-08-12T08:23:50Z</time>
      </trkpt>
      <trkpt lat="42.4081270" lon="-2.1623290">
        <ele>327.8</ele>
        <time>2022-08-12T08:23:53Z</time>
      </trkpt>
      <trkpt lat="42.4080930" lon="-2.1626360">
        <ele>327.2</ele>
        <time>2022-08-12T08:23:58Z</time>
      </trkpt>
      <trkpt lat="42.4080350" lon="-2.1630260">
        <ele>327.0</ele>
        <time>2022-08-12T08:24:05Z</time>
      </trkpt>
      <trkpt lat="42.4079800" lon="-2.1634530">
        <ele>327.8</ele>
        <time>2022-08-12T08:24:13Z</time>
      </trkpt>
      <trkpt lat="42.4079400" lon="-2.1640260">
        <ele>328.0</ele>
        <time>2022-08-12T08:24:23Z</time>
      </trkpt>
      <trkpt lat="42.4078990" lon="-2.1644760">
        <ele>327.8</ele>
        <time>2022-08-12T08:24:31Z</time>
      </trkpt>
      <trkpt lat="42.4078910" lon="-2.1645400">
        <ele>327.6</ele>
        <time>2022-08-12T08:24:32Z</time>
      </trkpt>
      <trkpt lat="42.4078810" lon="-2.1647920">
        <ele>327.2</ele>
        <time>2022-08-12T08:24:36Z</time>
      </trkpt>
      <trkpt lat="42.4078690" lon="-2.1649190">
        <ele>327.2</ele>
        <time>2022-08-12T08:24:38Z</time>
      </trkpt>
      <trkpt lat="42.4078370" lon="-2.1652310">
        <ele>327.2</ele>
        <time>2022-08-12T08:24:43Z</time>
      </trkpt>
      <trkpt lat="42.4078190" lon="-2.1653530">
        <ele>327.0</ele>
        <time>2022-08-12T08:24:45Z</time>
      </trkpt>
      <trkpt lat="42.4077950" lon="-2.1655230">
        <ele>327.0</ele>
        <time>2022-08-12T08:24:48Z</time>
      </trkpt>
      <trkpt lat="42.4077870" lon="-2.1655810">
        <ele>327.2</ele>
        <time>2022-08-12T08:24:49Z</time>
      </trkpt>
      <trkpt lat="42.4077210" lon="-2.1661070">
        <ele>327.2</ele>
        <time>2022-08-12T08:24:58Z</time>
      </trkpt>
      <trkpt lat="42.4076780" lon="-2.1665700">
        <ele>327.6</ele>
        <time>2022-08-12T08:25:07Z</time>
      </trkpt>
      <trkpt lat="42.4076820" lon="-2.1667050">
        <ele>328.0</ele>
        <time>2022-08-12T08:25:10Z</time>
      </trkpt>
      <trkpt lat="42.4076800" lon="-2.1668140">
        <ele>328.2</ele>
        <time>2022-08-12T08:25:12Z</time>
      </trkpt>
      <trkpt lat="42.4076820" lon="-2.1669030">
        <ele>328.4</ele>
        <time>2022-08-12T08:25:13Z</time>
      </trkpt>
      <trkpt lat="42.4076820" lon="-2.1671410">
        <ele>328.4</ele>
        <time>2022-08-12T08:25:16Z</time>
      </trkpt>
      <trkpt lat="42.4076920" lon="-2.1673220">
        <ele>327.8</ele>
        <time>2022-08-12T08:25:18Z</time>
      </trkpt>
      <trkpt lat="42.4076970" lon="-2.1674480">
        <ele>327.4</ele>
        <time>2022-08-12T08:25:20Z</time>
      </trkpt>
      <trkpt lat="42.4076950" lon="-2.1675210">
        <ele>327.2</ele>
        <time>2022-08-12T08:25:21Z</time>
      </trkpt>
      <trkpt lat="42.4076950" lon="-2.1675710">
        <ele>327.2</ele>
        <time>2022-08-12T08:25:22Z</time>
      </trkpt>
      <trkpt lat="42.4076980" lon="-2.1676350">
        <ele>327.2</ele>
        <time>2022-08-12T08:25:23Z</time>
      </trkpt>
      <trkpt lat="42.4077020" lon="-2.1680120">
        <ele>326.8</ele>
        <time>2022-08-12T08:25:29Z</time>
      </trkpt>
      <trkpt lat="42.4077030" lon="-2.1680720">
        <ele>326.8</ele>
        <time>2022-08-12T08:25:30Z</time>
      </trkpt>
      <trkpt lat="42.4077070" lon="-2.1684250">
        <ele>326.8</ele>
        <time>2022-08-12T08:25:36Z</time>
      </trkpt>
      <trkpt lat="42.4076970" lon="-2.1687350">
        <ele>327.2</ele>
        <time>2022-08-12T08:25:42Z</time>
      </trkpt>
      <trkpt lat="42.4076960" lon="-2.1687890">
        <ele>327.4</ele>
        <time>2022-08-12T08:25:43Z</time>
      </trkpt>
      <trkpt lat="42.4076990" lon="-2.1691240">
        <ele>327.4</ele>
        <time>2022-08-12T08:25:49Z</time>
      </trkpt>
      <trkpt lat="42.4077040" lon="-2.1692520">
        <ele>327.6</ele>
        <time>2022-08-12T08:25:51Z</time>
      </trkpt>
      <trkpt lat="42.4077050" lon="-2.1693630">
        <ele>327.6</ele>
        <time>2022-08-12T08:25:53Z</time>
      </trkpt>
      <trkpt lat="42.4077020" lon="-2.1695950">
        <ele>327.6</ele>
        <time>2022-08-12T08:25:57Z</time>
      </trkpt>
      <trkpt lat="42.4076960" lon="-2.1697480">
        <ele>327.4</ele>
        <time>2022-08-12T08:26:00Z</time>
      </trkpt>
      <trkpt lat="42.4076870" lon="-2.1700860">
        <ele>327.4</ele>
        <time>2022-08-12T08:26:06Z</time>
      </trkpt>
      <trkpt lat="42.4076880" lon="-2.1701950">
        <ele>327.4</ele>
        <time>2022-08-12T08:26:08Z</time>
      </trkpt>
      <trkpt lat="42.4076850" lon="-2.1702470">
        <ele>327.4</ele>
        <time>2022-08-12T08:26:09Z</time>
      </trkpt>
      <trkpt lat="42.4076330" lon="-2.1707250">
        <ele>327.8</ele>
        <time>2022-08-12T08:26:18Z</time>
      </trkpt>
      <trkpt lat="42.4076540" lon="-2.1710500">
        <ele>328.0</ele>
        <time>2022-08-12T08:26:24Z</time>
      </trkpt>
      <trkpt lat="42.4076490" lon="-2.1712390">
        <ele>328.0</ele>
        <time>2022-08-12T08:26:27Z</time>
      </trkpt>
      <trkpt lat="42.4076460" lon="-2.1713370">
        <ele>328.0</ele>
        <time>2022-08-12T08:26:29Z</time>
      </trkpt>
      <trkpt lat="42.4076180" lon="-2.1716250">
        <ele>328.2</ele>
        <time>2022-08-12T08:26:34Z</time>
      </trkpt>
      <trkpt lat="42.4076180" lon="-2.1716740">
        <ele>328.2</ele>
        <time>2022-08-12T08:26:35Z</time>
      </trkpt>
      <trkpt lat="42.4076310" lon="-2.1717560">
        <ele>328.4</ele>
        <time>2022-08-12T08:26:37Z</time>
      </trkpt>
      <trkpt lat="42.4076610" lon="-2.1718860">
        <ele>328.8</ele>
        <time>2022-08-12T08:26:40Z</time>
      </trkpt>
      <trkpt lat="42.4076580" lon="-2.1721540">
        <ele>329.4</ele>
        <time>2022-08-12T08:26:46Z</time>
      </trkpt>
      <trkpt lat="42.4076420" lon="-2.1722840">
        <ele>329.4</ele>
        <time>2022-08-12T08:26:49Z</time>
      </trkpt>
      <trkpt lat="42.4076300" lon="-2.1723750">
        <ele>329.4</ele>
        <time>2022-08-12T08:26:51Z</time>
      </trkpt>
      <trkpt lat="42.4076300" lon="-2.1724300">
        <ele>329.4</ele>
        <time>2022-08-12T08:26:52Z</time>
      </trkpt>
      <trkpt lat="42.4076280" lon="-2.1725330">
        <ele>329.4</ele>
        <time>2022-08-12T08:26:54Z</time>
      </trkpt>
      <trkpt lat="42.4076170" lon="-2.1727510">
        <ele>329.2</ele>
        <time>2022-08-12T08:26:58Z</time>
      </trkpt>
      <trkpt lat="42.4075310" lon="-2.1731840">
        <ele>329.4</ele>
        <time>2022-08-12T08:27:06Z</time>
      </trkpt>
      <trkpt lat="42.4075150" lon="-2.1732970">
        <ele>329.6</ele>
        <time>2022-08-12T08:27:08Z</time>
      </trkpt>
      <trkpt lat="42.4075040" lon="-2.1735490">
        <ele>329.6</ele>
        <time>2022-08-12T08:27:12Z</time>
      </trkpt>
      <trkpt lat="42.4074720" lon="-2.1740650">
        <ele>329.6</ele>
        <time>2022-08-12T08:27:21Z</time>
      </trkpt>
      <trkpt lat="42.4074730" lon="-2.1742410">
        <ele>329.2</ele>
        <time>2022-08-12T08:27:24Z</time>
      </trkpt>
      <trkpt lat="42.4074720" lon="-2.1744500">
        <ele>329.4</ele>
        <time>2022-08-12T08:27:28Z</time>
      </trkpt>
      <trkpt lat="42.4074580" lon="-2.1748050">
        <ele>329.4</ele>
        <time>2022-08-12T08:27:35Z</time>
      </trkpt>
      <trkpt lat="42.4074460" lon="-2.1750200">
        <ele>329.2</ele>
        <time>2022-08-12T08:27:40Z</time>
      </trkpt>
      <trkpt lat="42.4074460" lon="-2.1753550">
        <ele>329.0</ele>
        <time>2022-08-12T08:27:47Z</time>
      </trkpt>
      <trkpt lat="42.4074970" lon="-2.1758120">
        <ele>328.6</ele>
        <time>2022-08-12T08:27:55Z</time>
      </trkpt>
      <trkpt lat="42.4075850" lon="-2.1761380">
        <ele>328.6</ele>
        <time>2022-08-12T08:28:01Z</time>
      </trkpt>
      <trkpt lat="42.4076230" lon="-2.1762500">
        <ele>328.6</ele>
        <time>2022-08-12T08:28:03Z</time>
      </trkpt>
      <trkpt lat="42.4077030" lon="-2.1765630">
        <ele>328.4</ele>
        <time>2022-08-12T08:28:09Z</time>
      </trkpt>
      <trkpt lat="42.4077230" lon="-2.1766570">
        <ele>328.4</ele>
        <time>2022-08-12T08:28:11Z</time>
      </trkpt>
      <trkpt lat="42.4077830" lon="-2.1767630">
        <ele>328.6</ele>
        <time>2022-08-12T08:28:13Z</time>
      </trkpt>
      <trkpt lat="42.4078180" lon="-2.1768190">
        <ele>329.0</ele>
        <time>2022-08-12T08:28:14Z</time>
      </trkpt>
      <trkpt lat="42.4079200" lon="-2.1770330">
        <ele>329.2</ele>
        <time>2022-08-12T08:28:18Z</time>
      </trkpt>
      <trkpt lat="42.4079300" lon="-2.1770830">
        <ele>329.2</ele>
        <time>2022-08-12T08:28:19Z</time>
      </trkpt>
      <trkpt lat="42.4079550" lon="-2.1771840">
        <ele>329.2</ele>
        <time>2022-08-12T08:28:21Z</time>
      </trkpt>
      <trkpt lat="42.4080370" lon="-2.1774190">
        <ele>329.2</ele>
        <time>2022-08-12T08:28:26Z</time>
      </trkpt>
      <trkpt lat="42.4080610" lon="-2.1774670">
        <ele>329.4</ele>
        <time>2022-08-12T08:28:27Z</time>
      </trkpt>
      <trkpt lat="42.4081060" lon="-2.1775600">
        <ele>329.4</ele>
        <time>2022-08-12T08:28:29Z</time>
      </trkpt>
      <trkpt lat="42.4081420" lon="-2.1776450">
        <ele>329.4</ele>
        <time>2022-08-12T08:28:31Z</time>
      </trkpt>
      <trkpt lat="42.4081610" lon="-2.1776900">
        <ele>329.4</ele>
        <time>2022-08-12T08:28:32Z</time>
      </trkpt>
      <trkpt lat="42.4082620" lon="-2.1779260">
        <ele>329.2</ele>
        <time>2022-08-12T08:28:37Z</time>
      </trkpt>
      <trkpt lat="42.4084200" lon="-2.1782580">
        <ele>328.6</ele>
        <time>2022-08-12T08:28:44Z</time>
      </trkpt>
      <trkpt lat="42.4084740" lon="-2.1783550">
        <ele>328.6</ele>
        <time>2022-08-12T08:28:46Z</time>
      </trkpt>
      <trkpt lat="42.4087130" lon="-2.1787420">
        <ele>328.8</ele>
        <time>2022-08-12T08:28:54Z</time>
      </trkpt>
      <trkpt lat="42.4089460" lon="-2.1791360">
        <ele>328.8</ele>
        <time>2022-08-12T08:29:02Z</time>
      </trkpt>
      <trkpt lat="42.4091650" lon="-2.1795650">
        <ele>329.0</ele>
        <time>2022-08-12T08:29:11Z</time>
      </trkpt>
      <trkpt lat="42.4094350" lon="-2.1800950">
        <ele>329.0</ele>
        <time>2022-08-12T08:29:22Z</time>
      </trkpt>
      <trkpt lat="42.4095120" lon="-2.1802780">
        <ele>329.0</ele>
        <time>2022-08-12T08:29:26Z</time>
      </trkpt>
      <trkpt lat="42.4095800" lon="-2.1804090">
        <ele>328.8</ele>
        <time>2022-08-12T08:29:29Z</time>
      </trkpt>
      <trkpt lat="42.4097240" lon="-2.1805410">
        <ele>327.8</ele>
        <time>2022-08-12T08:29:34Z</time>
      </trkpt>
      <trkpt lat="42.4097310" lon="-2.1805840">
        <ele>327.0</ele>
        <time>2022-08-12T08:29:36Z</time>
      </trkpt>
      <trkpt lat="42.4097330" lon="-2.1805920">
        <ele>326.0</ele>
        <time>2022-08-12T08:29:38Z</time>
      </trkpt>
      <trkpt lat="42.4097330" lon="-2.1805920">
        <ele>325.6</ele>
        <time>2022-08-12T08:29:39Z</time>
      </trkpt>
      <trkpt lat="42.4097330" lon="-2.1805920">
        <ele>324.6</ele>
        <time>2022-08-12T08:30:18Z</time>
      </trkpt>
      <trkpt lat="42.4097170" lon="-2.1806160">
        <ele>324.6</ele>
        <time>2022-08-12T08:30:21Z</time>
      </trkpt>
      <trkpt lat="42.4097070" lon="-2.1806250">
        <ele>324.6</ele>
        <time>2022-08-12T08:30:29Z</time>
      </trkpt>
      <trkpt lat="42.4096950" lon="-2.1806360">
        <ele>324.6</ele>
        <time>2022-08-12T08:30:30Z</time>
      </trkpt>
      <trkpt lat="42.4096010" lon="-2.1807140">
        <ele>324.6</ele>
        <time>2022-08-12T08:30:35Z</time>
      </trkpt>
      <trkpt lat="42.4095920" lon="-2.1807210">
        <ele>324.4</ele>
        <time>2022-08-12T08:30:36Z</time>
      </trkpt>
      <trkpt lat="42.4095720" lon="-2.1807260">
        <ele>324.8</ele>
        <time>2022-08-12T08:30:42Z</time>
      </trkpt>
      <trkpt lat="42.4095550" lon="-2.1807230">
        <ele>325.4</ele>
        <time>2022-08-12T08:30:45Z</time>
      </trkpt>
      <trkpt lat="42.4095150" lon="-2.1807140">
        <ele>325.6</ele>
        <time>2022-08-12T08:30:49Z</time>
      </trkpt>
      <trkpt lat="42.4095070" lon="-2.1807100">
        <ele>325.8</ele>
        <time>2022-08-12T08:30:50Z</time>
      </trkpt>
      <trkpt lat="42.4094900" lon="-2.1806970">
        <ele>326.0</ele>
        <time>2022-08-12T08:30:52Z</time>
      </trkpt>
      <trkpt lat="42.4094610" lon="-2.1806720">
        <ele>326.6</ele>
        <time>2022-08-12T08:30:54Z</time>
      </trkpt>
      <trkpt lat="42.4094610" lon="-2.1806720">
        <ele>327.0</ele>
        <time>2022-08-12T08:30:55Z</time>
      </trkpt>
      <trkpt lat="42.4094410" lon="-2.1806600">
        <ele>327.6</ele>
        <time>2022-08-12T08:30:57Z</time>
      </trkpt>
      <trkpt lat="42.4093910" lon="-2.1806430">
        <ele>328.2</ele>
        <time>2022-08-12T08:31:02Z</time>
      </trkpt>
      <trkpt lat="42.4093860" lon="-2.1806450">
        <ele>328.4</ele>
        <time>2022-08-12T08:31:03Z</time>
      </trkpt>
      <trkpt lat="42.4093630" lon="-2.1806670">
        <ele>329.4</ele>
        <time>2022-08-12T08:31:07Z</time>
      </trkpt>
      <trkpt lat="42.4093530" lon="-2.1806960">
        <ele>329.8</ele>
        <time>2022-08-12T08:31:10Z</time>
      </trkpt>
      <trkpt lat="42.4093650" lon="-2.1807310">
        <ele>330.2</ele>
        <time>2022-08-12T08:31:17Z</time>
      </trkpt>
      <trkpt lat="42.4093720" lon="-2.1807480">
        <ele>330.4</ele>
        <time>2022-08-12T08:31:18Z</time>
      </trkpt>
      <trkpt lat="42.4094340" lon="-2.1808850">
        <ele>330.4</ele>
        <time>2022-08-12T08:31:21Z</time>
      </trkpt>
      <trkpt lat="42.4096100" lon="-2.1812570">
        <ele>330.2</ele>
        <time>2022-08-12T08:31:30Z</time>
      </trkpt>
      <trkpt lat="42.4097130" lon="-2.1814380">
        <ele>330.6</ele>
        <time>2022-08-12T08:31:35Z</time>
      </trkpt>
      <trkpt lat="42.4098290" lon="-2.1816320">
        <ele>330.2</ele>
        <time>2022-08-12T08:31:39Z</time>
      </trkpt>
      <trkpt lat="42.4099150" lon="-2.1817830">
        <ele>329.6</ele>
        <time>2022-08-12T08:31:42Z</time>
      </trkpt>
      <trkpt lat="42.4099440" lon="-2.1818400">
        <ele>329.4</ele>
        <time>2022-08-12T08:31:44Z</time>
      </trkpt>
      <trkpt lat="42.4099710" lon="-2.1818890">
        <ele>329.4</ele>
        <time>2022-08-12T08:31:45Z</time>
      </trkpt>
      <trkpt lat="42.4100480" lon="-2.1820150">
        <ele>329.0</ele>
        <time>2022-08-12T08:31:47Z</time>
      </trkpt>
      <trkpt lat="42.4102620" lon="-2.1823390">
        <ele>328.4</ele>
        <time>2022-08-12T08:31:52Z</time>
      </trkpt>
      <trkpt lat="42.4103210" lon="-2.1824340">
        <ele>328.2</ele>
        <time>2022-08-12T08:31:54Z</time>
      </trkpt>
      <trkpt lat="42.4103210" lon="-2.1824340">
        <ele>328.0</ele>
        <time>2022-08-12T08:31:55Z</time>
      </trkpt>
      <trkpt lat="42.4103980" lon="-2.1825360">
        <ele>328.0</ele>
        <time>2022-08-12T08:31:56Z</time>
      </trkpt>
      <trkpt lat="42.4104720" lon="-2.1826310">
        <ele>327.8</ele>
        <time>2022-08-12T08:31:59Z</time>
      </trkpt>
      <trkpt lat="42.4107620" lon="-2.1830530">
        <ele>327.4</ele>
        <time>2022-08-12T08:32:07Z</time>
      </trkpt>
      <trkpt lat="42.4109380" lon="-2.1832540">
        <ele>326.8</ele>
        <time>2022-08-12T08:32:13Z</time>
      </trkpt>
      <trkpt lat="42.4110080" lon="-2.1833360">
        <ele>326.8</ele>
        <time>2022-08-12T08:32:15Z</time>
      </trkpt>
      <trkpt lat="42.4113770" lon="-2.1838290">
        <ele>327.2</ele>
        <time>2022-08-12T08:32:25Z</time>
      </trkpt>
      <trkpt lat="42.4116730" lon="-2.1842430">
        <ele>327.4</ele>
        <time>2022-08-12T08:32:34Z</time>
      </trkpt>
      <trkpt lat="42.4117400" lon="-2.1843320">
        <ele>327.4</ele>
        <time>2022-08-12T08:32:36Z</time>
      </trkpt>
      <trkpt lat="42.4120080" lon="-2.1846720">
        <ele>327.4</ele>
        <time>2022-08-12T08:32:45Z</time>
      </trkpt>
      <trkpt lat="42.4121910" lon="-2.1848930">
        <ele>327.8</ele>
        <time>2022-08-12T08:32:51Z</time>
      </trkpt>
      <trkpt lat="42.4122390" lon="-2.1849330">
        <ele>328.2</ele>
        <time>2022-08-12T08:32:55Z</time>
      </trkpt>
      <trkpt lat="42.4122740" lon="-2.1849710">
        <ele>328.6</ele>
        <time>2022-08-12T08:32:57Z</time>
      </trkpt>
      <trkpt lat="42.4122930" lon="-2.1849960">
        <ele>328.8</ele>
        <time>2022-08-12T08:32:58Z</time>
      </trkpt>
      <trkpt lat="42.4124170" lon="-2.1851730">
        <ele>329.0</ele>
        <time>2022-08-12T08:33:01Z</time>
      </trkpt>
      <trkpt lat="42.4125370" lon="-2.1853340">
        <ele>328.8</ele>
        <time>2022-08-12T08:33:05Z</time>
      </trkpt>
      <trkpt lat="42.4126460" lon="-2.1854780">
        <ele>328.4</ele>
        <time>2022-08-12T08:33:07Z</time>
      </trkpt>
      <trkpt lat="42.4126850" lon="-2.1855290">
        <ele>328.4</ele>
        <time>2022-08-12T08:33:08Z</time>
      </trkpt>
      <trkpt lat="42.4128200" lon="-2.1857270">
        <ele>327.8</ele>
        <time>2022-08-12T08:33:12Z</time>
      </trkpt>
      <trkpt lat="42.4129530" lon="-2.1859400">
        <ele>327.4</ele>
        <time>2022-08-12T08:33:16Z</time>
      </trkpt>
      <trkpt lat="42.4132000" lon="-2.1863730">
        <ele>327.6</ele>
        <time>2022-08-12T08:33:25Z</time>
      </trkpt>
      <trkpt lat="42.4134950" lon="-2.1868930">
        <ele>327.8</ele>
        <time>2022-08-12T08:33:35Z</time>
      </trkpt>
      <trkpt lat="42.4136850" lon="-2.1873290">
        <ele>327.6</ele>
        <time>2022-08-12T08:33:43Z</time>
      </trkpt>
      <trkpt lat="42.4136850" lon="-2.1873290">
        <ele>327.8</ele>
        <time>2022-08-12T08:33:44Z</time>
      </trkpt>
      <trkpt lat="42.4139020" lon="-2.1878460">
        <ele>328.6</ele>
        <time>2022-08-12T08:33:52Z</time>
      </trkpt>
      <trkpt lat="42.4141970" lon="-2.1885510">
        <ele>328.4</ele>
        <time>2022-08-12T08:34:04Z</time>
      </trkpt>
      <trkpt lat="42.4142170" lon="-2.1886090">
        <ele>328.2</ele>
        <time>2022-08-12T08:34:05Z</time>
      </trkpt>
      <trkpt lat="42.4143130" lon="-2.1889030">
        <ele>328.2</ele>
        <time>2022-08-12T08:34:11Z</time>
      </trkpt>
      <trkpt lat="42.4144440" lon="-2.1893600">
        <ele>328.6</ele>
        <time>2022-08-12T08:34:18Z</time>
      </trkpt>
      <trkpt lat="42.4145300" lon="-2.1896590">
        <ele>328.4</ele>
        <time>2022-08-12T08:34:24Z</time>
      </trkpt>
      <trkpt lat="42.4145620" lon="-2.1897910">
        <ele>328.6</ele>
        <time>2022-08-12T08:34:25Z</time>
      </trkpt>
      <trkpt lat="42.4145960" lon="-2.1899610">
        <ele>328.6</ele>
        <time>2022-08-12T08:34:28Z</time>
      </trkpt>
      <trkpt lat="42.4147100" lon="-2.1904950">
        <ele>328.8</ele>
        <time>2022-08-12T08:34:37Z</time>
      </trkpt>
      <trkpt lat="42.4147360" lon="-2.1906100">
        <ele>329.0</ele>
        <time>2022-08-12T08:34:39Z</time>
      </trkpt>
      <trkpt lat="42.4148280" lon="-2.1910280">
        <ele>329.4</ele>
        <time>2022-08-12T08:34:46Z</time>
      </trkpt>
      <trkpt lat="42.4149220" lon="-2.1915240">
        <ele>329.0</ele>
        <time>2022-08-12T08:34:54Z</time>
      </trkpt>
      <trkpt lat="42.4150080" lon="-2.1920220">
        <ele>329.0</ele>
        <time>2022-08-12T08:35:02Z</time>
      </trkpt>
      <trkpt lat="42.4150860" lon="-2.1924840">
        <ele>329.2</ele>
        <time>2022-08-12T08:35:09Z</time>
      </trkpt>
      <trkpt lat="42.4151140" lon="-2.1926120">
        <ele>329.4</ele>
        <time>2022-08-12T08:35:11Z</time>
      </trkpt>
      <trkpt lat="42.4152030" lon="-2.1931740">
        <ele>329.0</ele>
        <time>2022-08-12T08:35:20Z</time>
      </trkpt>
      <trkpt lat="42.4152720" lon="-2.1935880">
        <ele>329.0</ele>
        <time>2022-08-12T08:35:27Z</time>
      </trkpt>
      <trkpt lat="42.4153010" lon="-2.1937690">
        <ele>329.0</ele>
        <time>2022-08-12T08:35:30Z</time>
      </trkpt>
      <trkpt lat="42.4153400" lon="-2.1939940">
        <ele>329.4</ele>
        <time>2022-08-12T08:35:35Z</time>
      </trkpt>
      <trkpt lat="42.4153970" lon="-2.1942850">
        <ele>329.6</ele>
        <time>2022-08-12T08:35:39Z</time>
      </trkpt>
      <trkpt lat="42.4155010" lon="-2.1948410">
        <ele>329.4</ele>
        <time>2022-08-12T08:35:49Z</time>
      </trkpt>
      <trkpt lat="42.4155590" lon="-2.1951300">
        <ele>329.6</ele>
        <time>2022-08-12T08:35:54Z</time>
      </trkpt>
      <trkpt lat="42.4156190" lon="-2.1954230">
        <ele>330.0</ele>
        <time>2022-08-12T08:35:59Z</time>
      </trkpt>
      <trkpt lat="42.4156850" lon="-2.1957770">
        <ele>330.2</ele>
        <time>2022-08-12T08:36:05Z</time>
      </trkpt>
      <trkpt lat="42.4157120" lon="-2.1960150">
        <ele>330.2</ele>
        <time>2022-08-12T08:36:09Z</time>
      </trkpt>
      <trkpt lat="42.4157350" lon="-2.1964980">
        <ele>330.6</ele>
        <time>2022-08-12T08:36:17Z</time>
      </trkpt>
      <trkpt lat="42.4157980" lon="-2.1969740">
        <ele>331.0</ele>
        <time>2022-08-12T08:36:25Z</time>
      </trkpt>
      <trkpt lat="42.4158010" lon="-2.1970350">
        <ele>331.2</ele>
        <time>2022-08-12T08:36:26Z</time>
      </trkpt>
      <trkpt lat="42.4158020" lon="-2.1970830">
        <ele>331.2</ele>
        <time>2022-08-12T08:36:28Z</time>
      </trkpt>
      <trkpt lat="42.4157810" lon="-2.1971990">
        <ele>331.2</ele>
        <time>2022-08-12T08:36:29Z</time>
      </trkpt>
      <trkpt lat="42.4157480" lon="-2.1973140">
        <ele>331.2</ele>
        <time>2022-08-12T08:36:31Z</time>
      </trkpt>
      <trkpt lat="42.4157340" lon="-2.1973730">
        <ele>331.2</ele>
        <time>2022-08-12T08:36:32Z</time>
      </trkpt>
      <trkpt lat="42.4156800" lon="-2.1977290">
        <ele>331.2</ele>
        <time>2022-08-12T08:36:38Z</time>
      </trkpt>
      <trkpt lat="42.4156570" lon="-2.1980240">
        <ele>331.2</ele>
        <time>2022-08-12T08:36:43Z</time>
      </trkpt>
      <trkpt lat="42.4156710" lon="-2.1981420">
        <ele>331.2</ele>
        <time>2022-08-12T08:36:45Z</time>
      </trkpt>
      <trkpt lat="42.4157580" lon="-2.1987620">
        <ele>331.8</ele>
        <time>2022-08-12T08:36:55Z</time>
      </trkpt>
      <trkpt lat="42.4157630" lon="-2.1988880">
        <ele>331.8</ele>
        <time>2022-08-12T08:36:57Z</time>
      </trkpt>
      <trkpt lat="42.4157330" lon="-2.1992280">
        <ele>332.0</ele>
        <time>2022-08-12T08:37:02Z</time>
      </trkpt>
      <trkpt lat="42.4156900" lon="-2.1995320">
        <ele>331.8</ele>
        <time>2022-08-12T08:37:08Z</time>
      </trkpt>
      <trkpt lat="42.4156610" lon="-2.1997880">
        <ele>332.0</ele>
        <time>2022-08-12T08:37:11Z</time>
      </trkpt>
      <trkpt lat="42.4156500" lon="-2.1998520">
        <ele>332.0</ele>
        <time>2022-08-12T08:37:12Z</time>
      </trkpt>
      <trkpt lat="42.4156230" lon="-2.1999750">
        <ele>332.2</ele>
        <time>2022-08-12T08:37:14Z</time>
      </trkpt>
      <trkpt lat="42.4156100" lon="-2.2001020">
        <ele>332.2</ele>
        <time>2022-08-12T08:37:16Z</time>
      </trkpt>
      <trkpt lat="42.4155890" lon="-2.2002260">
        <ele>332.2</ele>
        <time>2022-08-12T08:37:18Z</time>
      </trkpt>
      <trkpt lat="42.4155570" lon="-2.2003450">
        <ele>332.2</ele>
        <time>2022-08-12T08:37:20Z</time>
      </trkpt>
      <trkpt lat="42.4155570" lon="-2.2003450">
        <ele>332.2</ele>
        <time>2022-08-12T08:37:21Z</time>
      </trkpt>
      <trkpt lat="42.4155090" lon="-2.2006500">
        <ele>332.4</ele>
        <time>2022-08-12T08:37:25Z</time>
      </trkpt>
      <trkpt lat="42.4154830" lon="-2.2007680">
        <ele>332.6</ele>
        <time>2022-08-12T08:37:27Z</time>
      </trkpt>
      <trkpt lat="42.4154210" lon="-2.2011270">
        <ele>332.8</ele>
        <time>2022-08-12T08:37:33Z</time>
      </trkpt>
      <trkpt lat="42.4153670" lon="-2.2012220">
        <ele>332.6</ele>
        <time>2022-08-12T08:37:35Z</time>
      </trkpt>
      <trkpt lat="42.4153750" lon="-2.2013550">
        <ele>332.8</ele>
        <time>2022-08-12T08:37:39Z</time>
      </trkpt>
      <trkpt lat="42.4154280" lon="-2.2014610">
        <ele>333.0</ele>
        <time>2022-08-12T08:37:42Z</time>
      </trkpt>
      <trkpt lat="42.4154340" lon="-2.2015540">
        <ele>332.8</ele>
        <time>2022-08-12T08:37:44Z</time>
      </trkpt>
      <trkpt lat="42.4154280" lon="-2.2016030">
        <ele>332.8</ele>
        <time>2022-08-12T08:37:45Z</time>
      </trkpt>
      <trkpt lat="42.4154160" lon="-2.2016560">
        <ele>332.6</ele>
        <time>2022-08-12T08:37:46Z</time>
      </trkpt>
      <trkpt lat="42.4153570" lon="-2.2018060">
        <ele>332.2</ele>
        <time>2022-08-12T08:37:49Z</time>
      </trkpt>
      <trkpt lat="42.4152520" lon="-2.2022030">
        <ele>331.6</ele>
        <time>2022-08-12T08:37:56Z</time>
      </trkpt>
      <trkpt lat="42.4151350" lon="-2.2026360">
        <ele>331.8</ele>
        <time>2022-08-12T08:38:04Z</time>
      </trkpt>
      <trkpt lat="42.4151100" lon="-2.2027300">
        <ele>331.8</ele>
        <time>2022-08-12T08:38:06Z</time>
      </trkpt>
      <trkpt lat="42.4150310" lon="-2.2030750">
        <ele>331.8</ele>
        <time>2022-08-12T08:38:12Z</time>
      </trkpt>
      <trkpt lat="42.4150170" lon="-2.2031310">
        <ele>331.8</ele>
        <time>2022-08-12T08:38:13Z</time>
      </trkpt>
      <trkpt lat="42.4149820" lon="-2.2032980">
        <ele>331.6</ele>
        <time>2022-08-12T08:38:16Z</time>
      </trkpt>
      <trkpt lat="42.4148740" lon="-2.2037630">
        <ele>331.4</ele>
        <time>2022-08-12T08:38:24Z</time>
      </trkpt>
      <trkpt lat="42.4148410" lon="-2.2038910">
        <ele>331.4</ele>
        <time>2022-08-12T08:38:26Z</time>
      </trkpt>
      <trkpt lat="42.4147670" lon="-2.2041860">
        <ele>331.6</ele>
        <time>2022-08-12T08:38:31Z</time>
      </trkpt>
      <trkpt lat="42.4146860" lon="-2.2046770">
        <ele>331.8</ele>
        <time>2022-08-12T08:38:39Z</time>
      </trkpt>
      <trkpt lat="42.4146760" lon="-2.2047400">
        <ele>331.8</ele>
        <time>2022-08-12T08:38:40Z</time>
      </trkpt>
      <trkpt lat="42.4146020" lon="-2.2051820">
        <ele>331.8</ele>
        <time>2022-08-12T08:38:48Z</time>
      </trkpt>
      <trkpt lat="42.4145710" lon="-2.2053420">
        <ele>331.4</ele>
        <time>2022-08-12T08:38:52Z</time>
      </trkpt>
      <trkpt lat="42.4145750" lon="-2.2053890">
        <ele>331.2</ele>
        <time>2022-08-12T08:38:53Z</time>
      </trkpt>
      <trkpt lat="42.4145850" lon="-2.2054900">
        <ele>331.4</ele>
        <time>2022-08-12T08:38:55Z</time>
      </trkpt>
      <trkpt lat="42.4145870" lon="-2.2056630">
        <ele>331.2</ele>
        <time>2022-08-12T08:38:59Z</time>
      </trkpt>
      <trkpt lat="42.4145760" lon="-2.2057980">
        <ele>331.2</ele>
        <time>2022-08-12T08:39:00Z</time>
      </trkpt>
      <trkpt lat="42.4145580" lon="-2.2059330">
        <ele>331.0</ele>
        <time>2022-08-12T08:39:02Z</time>
      </trkpt>
      <trkpt lat="42.4145430" lon="-2.2060580">
        <ele>330.8</ele>
        <time>2022-08-12T08:39:04Z</time>
      </trkpt>
      <trkpt lat="42.4145200" lon="-2.2063710">
        <ele>330.4</ele>
        <time>2022-08-12T08:39:10Z</time>
      </trkpt>
      <trkpt lat="42.4145140" lon="-2.2064130">
        <ele>330.4</ele>
        <time>2022-08-12T08:39:12Z</time>
      </trkpt>
      <trkpt lat="42.4145030" lon="-2.2064460">
        <ele>330.2</ele>
        <time>2022-08-12T08:39:14Z</time>
      </trkpt>
      <trkpt lat="42.4144920" lon="-2.2065200">
        <ele>330.2</ele>
        <time>2022-08-12T08:39:17Z</time>
      </trkpt>
      <trkpt lat="42.4144840" lon="-2.2065590">
        <ele>330.2</ele>
        <time>2022-08-12T08:39:19Z</time>
      </trkpt>
      <trkpt lat="42.4144770" lon="-2.2065990">
        <ele>330.2</ele>
        <time>2022-08-12T08:39:21Z</time>
      </trkpt>
      <trkpt lat="42.4144790" lon="-2.2066100">
        <ele>330.2</ele>
        <time>2022-08-12T08:39:22Z</time>
      </trkpt>
      <trkpt lat="42.4144780" lon="-2.2066240">
        <ele>330.2</ele>
        <time>2022-08-12T08:39:25Z</time>
      </trkpt>
      <trkpt lat="42.4144780" lon="-2.2066240">
        <ele>330.2</ele>
        <time>2022-08-12T08:39:26Z</time>
      </trkpt>
      <trkpt lat="42.4144770" lon="-2.2066960">
        <ele>330.4</ele>
        <time>2022-08-12T08:39:32Z</time>
      </trkpt>
      <trkpt lat="42.4144690" lon="-2.2067240">
        <ele>330.6</ele>
        <time>2022-08-12T08:39:34Z</time>
      </trkpt>
      <trkpt lat="42.4144710" lon="-2.2068170">
        <ele>330.8</ele>
        <time>2022-08-12T08:39:41Z</time>
      </trkpt>
      <trkpt lat="42.4144680" lon="-2.2068320">
        <ele>330.8</ele>
        <time>2022-08-12T08:39:43Z</time>
      </trkpt>
      <trkpt lat="42.4144650" lon="-2.2068520">
        <ele>330.8</ele>
        <time>2022-08-12T08:39:44Z</time>
      </trkpt>
      <trkpt lat="42.4144560" lon="-2.2069180">
        <ele>330.8</ele>
        <time>2022-08-12T08:39:47Z</time>
      </trkpt>
      <trkpt lat="42.4144300" lon="-2.2070540">
        <ele>330.8</ele>
        <time>2022-08-12T08:39:52Z</time>
      </trkpt>
      <trkpt lat="42.4144260" lon="-2.2071600">
        <ele>330.8</ele>
        <time>2022-08-12T08:39:55Z</time>
      </trkpt>
      <trkpt lat="42.4144100" lon="-2.2072560">
        <ele>330.8</ele>
        <time>2022-08-12T08:39:58Z</time>
      </trkpt>
      <trkpt lat="42.4143960" lon="-2.2073530">
        <ele>331.0</ele>
        <time>2022-08-12T08:40:02Z</time>
      </trkpt>
      <trkpt lat="42.4143970" lon="-2.2073890">
        <ele>331.0</ele>
        <time>2022-08-12T08:40:04Z</time>
      </trkpt>
      <trkpt lat="42.4143970" lon="-2.2073890">
        <ele>331.0</ele>
        <time>2022-08-12T08:40:06Z</time>
      </trkpt>
      <trkpt lat="42.4143680" lon="-2.2073900">
        <ele>332.0</ele>
        <time>2022-08-12T08:43:44Z</time>
      </trkpt>
      <trkpt lat="42.4143650" lon="-2.2074190">
        <ele>332.0</ele>
        <time>2022-08-12T08:43:45Z</time>
      </trkpt>
      <trkpt lat="42.4143620" lon="-2.2074500">
        <ele>332.0</ele>
        <time>2022-08-12T08:43:46Z</time>
      </trkpt>
      <trkpt lat="42.4143580" lon="-2.2074960">
        <ele>332.0</ele>
        <time>2022-08-12T08:43:47Z</time>
      </trkpt>
      <trkpt lat="42.4143500" lon="-2.2076720">
        <ele>331.6</ele>
        <time>2022-08-12T08:43:51Z</time>
      </trkpt>
      <trkpt lat="42.4143490" lon="-2.2077330">
        <ele>331.8</ele>
        <time>2022-08-12T08:43:52Z</time>
      </trkpt>
      <trkpt lat="42.4143520" lon="-2.2078300">
        <ele>332.0</ele>
        <time>2022-08-12T08:43:54Z</time>
      </trkpt>
      <trkpt lat="42.4143520" lon="-2.2078780">
        <ele>332.0</ele>
        <time>2022-08-12T08:43:55Z</time>
      </trkpt>
      <trkpt lat="42.4143540" lon="-2.2080320">
        <ele>331.8</ele>
        <time>2022-08-12T08:43:58Z</time>
      </trkpt>
      <trkpt lat="42.4143610" lon="-2.2082050">
        <ele>331.8</ele>
        <time>2022-08-12T08:44:01Z</time>
      </trkpt>
      <trkpt lat="42.4143630" lon="-2.2083860">
        <ele>332.2</ele>
        <time>2022-08-12T08:44:04Z</time>
      </trkpt>
      <trkpt lat="42.4143650" lon="-2.2084430">
        <ele>332.0</ele>
        <time>2022-08-12T08:44:05Z</time>
      </trkpt>
      <trkpt lat="42.4143710" lon="-2.2085580">
        <ele>332.2</ele>
        <time>2022-08-12T08:44:07Z</time>
      </trkpt>
      <trkpt lat="42.4143830" lon="-2.2088890">
        <ele>332.0</ele>
        <time>2022-08-12T08:44:13Z</time>
      </trkpt>
      <trkpt lat="42.4144010" lon="-2.2093120">
        <ele>332.0</ele>
        <time>2022-08-12T08:44:21Z</time>
      </trkpt>
      <trkpt lat="42.4144030" lon="-2.2093710">
        <ele>331.8</ele>
        <time>2022-08-12T08:44:22Z</time>
      </trkpt>
      <trkpt lat="42.4144040" lon="-2.2099030">
        <ele>331.4</ele>
        <time>2022-08-12T08:44:31Z</time>
      </trkpt>
      <trkpt lat="42.4144050" lon="-2.2099610">
        <ele>331.4</ele>
        <time>2022-08-12T08:44:32Z</time>
      </trkpt>
      <trkpt lat="42.4144430" lon="-2.2106340">
        <ele>331.4</ele>
        <time>2022-08-12T08:44:43Z</time>
      </trkpt>
      <trkpt lat="42.4144500" lon="-2.2107430">
        <ele>331.0</ele>
        <time>2022-08-12T08:44:45Z</time>
      </trkpt>
      <trkpt lat="42.4144590" lon="-2.2109240">
        <ele>330.8</ele>
        <time>2022-08-12T08:44:48Z</time>
      </trkpt>
      <trkpt lat="42.4144630" lon="-2.2110300">
        <ele>330.8</ele>
        <time>2022-08-12T08:44:50Z</time>
      </trkpt>
      <trkpt lat="42.4144790" lon="-2.2112170">
        <ele>330.6</ele>
        <time>2022-08-12T08:44:53Z</time>
      </trkpt>
      <trkpt lat="42.4144800" lon="-2.2113410">
        <ele>330.6</ele>
        <time>2022-08-12T08:44:55Z</time>
      </trkpt>
      <trkpt lat="42.4144800" lon="-2.2114010">
        <ele>330.4</ele>
        <time>2022-08-12T08:44:56Z</time>
      </trkpt>
      <trkpt lat="42.4144890" lon="-2.2115290">
        <ele>330.4</ele>
        <time>2022-08-12T08:44:58Z</time>
      </trkpt>
      <trkpt lat="42.4144930" lon="-2.2116470">
        <ele>330.4</ele>
        <time>2022-08-12T08:45:00Z</time>
      </trkpt>
      <trkpt lat="42.4144930" lon="-2.2118200">
        <ele>330.2</ele>
        <time>2022-08-12T08:45:03Z</time>
      </trkpt>
      <trkpt lat="42.4144810" lon="-2.2120520">
        <ele>330.2</ele>
        <time>2022-08-12T08:45:07Z</time>
      </trkpt>
      <trkpt lat="42.4144810" lon="-2.2121070">
        <ele>330.2</ele>
        <time>2022-08-12T08:45:08Z</time>
      </trkpt>
      <trkpt lat="42.4144910" lon="-2.2122120">
        <ele>330.2</ele>
        <time>2022-08-12T08:45:10Z</time>
      </trkpt>
      <trkpt lat="42.4144900" lon="-2.2122790">
        <ele>330.4</ele>
        <time>2022-08-12T08:45:12Z</time>
      </trkpt>
      <trkpt lat="42.4145010" lon="-2.2123070">
        <ele>330.6</ele>
        <time>2022-08-12T08:45:13Z</time>
      </trkpt>
      <trkpt lat="42.4145040" lon="-2.2123290">
        <ele>330.8</ele>
        <time>2022-08-12T08:45:14Z</time>
      </trkpt>
      <trkpt lat="42.4145120" lon="-2.2123750">
        <ele>330.8</ele>
        <time>2022-08-12T08:45:15Z</time>
      </trkpt>
      <trkpt lat="42.4145090" lon="-2.2124750">
        <ele>330.8</ele>
        <time>2022-08-12T08:45:17Z</time>
      </trkpt>
      <trkpt lat="42.4144960" lon="-2.2125960">
        <ele>330.6</ele>
        <time>2022-08-12T08:45:20Z</time>
      </trkpt>
      <trkpt lat="42.4144890" lon="-2.2126840">
        <ele>330.4</ele>
        <time>2022-08-12T08:45:22Z</time>
      </trkpt>
      <trkpt lat="42.4145400" lon="-2.2128750">
        <ele>330.2</ele>
        <time>2022-08-12T08:45:26Z</time>
      </trkpt>
      <trkpt lat="42.4145830" lon="-2.2130800">
        <ele>330.2</ele>
        <time>2022-08-12T08:45:30Z</time>
      </trkpt>
      <trkpt lat="42.4146500" lon="-2.2133290">
        <ele>330.4</ele>
        <time>2022-08-12T08:45:35Z</time>
      </trkpt>
      <trkpt lat="42.4146620" lon="-2.2133790">
        <ele>330.4</ele>
        <time>2022-08-12T08:45:36Z</time>
      </trkpt>
      <trkpt lat="42.4147140" lon="-2.2136910">
        <ele>330.2</ele>
        <time>2022-08-12T08:45:42Z</time>
      </trkpt>
      <trkpt lat="42.4147240" lon="-2.2139360">
        <ele>330.4</ele>
        <time>2022-08-12T08:45:46Z</time>
      </trkpt>
      <trkpt lat="42.4147320" lon="-2.2140440">
        <ele>330.4</ele>
        <time>2022-08-12T08:45:48Z</time>
      </trkpt>
      <trkpt lat="42.4147780" lon="-2.2143820">
        <ele>330.6</ele>
        <time>2022-08-12T08:45:53Z</time>
      </trkpt>
      <trkpt lat="42.4147930" lon="-2.2144720">
        <ele>330.6</ele>
        <time>2022-08-12T08:45:55Z</time>
      </trkpt>
      <trkpt lat="42.4148600" lon="-2.2148130">
        <ele>330.8</ele>
        <time>2022-08-12T08:46:02Z</time>
      </trkpt>
      <trkpt lat="42.4148860" lon="-2.2149130">
        <ele>330.8</ele>
        <time>2022-08-12T08:46:03Z</time>
      </trkpt>
      <trkpt lat="42.4149100" lon="-2.2150320">
        <ele>330.8</ele>
        <time>2022-08-12T08:46:05Z</time>
      </trkpt>
      <trkpt lat="42.4149930" lon="-2.2153510">
        <ele>330.6</ele>
        <time>2022-08-12T08:46:11Z</time>
      </trkpt>
      <trkpt lat="42.4151190" lon="-2.2157780">
        <ele>331.4</ele>
        <time>2022-08-12T08:46:19Z</time>
      </trkpt>
      <trkpt lat="42.4152520" lon="-2.2161140">
        <ele>331.2</ele>
        <time>2022-08-12T08:46:26Z</time>
      </trkpt>
      <trkpt lat="42.4153430" lon="-2.2162280">
        <ele>331.0</ele>
        <time>2022-08-12T08:46:29Z</time>
      </trkpt>
      <trkpt lat="42.4154100" lon="-2.2162850">
        <ele>330.8</ele>
        <time>2022-08-12T08:46:31Z</time>
      </trkpt>
      <trkpt lat="42.4154400" lon="-2.2163190">
        <ele>330.8</ele>
        <time>2022-08-12T08:46:32Z</time>
      </trkpt>
      <trkpt lat="42.4154890" lon="-2.2164140">
        <ele>330.8</ele>
        <time>2022-08-12T08:46:34Z</time>
      </trkpt>
      <trkpt lat="42.4155070" lon="-2.2164590">
        <ele>330.8</ele>
        <time>2022-08-12T08:46:35Z</time>
      </trkpt>
      <trkpt lat="42.4156580" lon="-2.2169090">
        <ele>331.0</ele>
        <time>2022-08-12T08:46:43Z</time>
      </trkpt>
      <trkpt lat="42.4156970" lon="-2.2170730">
        <ele>331.2</ele>
        <time>2022-08-12T08:46:46Z</time>
      </trkpt>
      <trkpt lat="42.4157370" lon="-2.2173590">
        <ele>331.4</ele>
        <time>2022-08-12T08:46:51Z</time>
      </trkpt>
      <trkpt lat="42.4158200" lon="-2.2176480">
        <ele>331.4</ele>
        <time>2022-08-12T08:46:56Z</time>
      </trkpt>
      <trkpt lat="42.4158750" lon="-2.2178030">
        <ele>331.4</ele>
        <time>2022-08-12T08:46:59Z</time>
      </trkpt>
      <trkpt lat="42.4160020" lon="-2.2181200">
        <ele>331.4</ele>
        <time>2022-08-12T08:47:05Z</time>
      </trkpt>
      <trkpt lat="42.4160410" lon="-2.2182400">
        <ele>331.4</ele>
        <time>2022-08-12T08:47:07Z</time>
      </trkpt>
      <trkpt lat="42.4160880" lon="-2.2184270">
        <ele>331.6</ele>
        <time>2022-08-12T08:47:10Z</time>
      </trkpt>
      <trkpt lat="42.4161210" lon="-2.2185450">
        <ele>331.6</ele>
        <time>2022-08-12T08:47:12Z</time>
      </trkpt>
      <trkpt lat="42.4161440" lon="-2.2186030">
        <ele>331.6</ele>
        <time>2022-08-12T08:47:13Z</time>
      </trkpt>
      <trkpt lat="42.4161750" lon="-2.2186660">
        <ele>331.6</ele>
        <time>2022-08-12T08:47:14Z</time>
      </trkpt>
      <trkpt lat="42.4162960" lon="-2.2188580">
        <ele>331.6</ele>
        <time>2022-08-12T08:47:18Z</time>
      </trkpt>
      <trkpt lat="42.4165710" lon="-2.2192660">
        <ele>331.2</ele>
        <time>2022-08-12T08:47:27Z</time>
      </trkpt>
      <trkpt lat="42.4168660" lon="-2.2196550">
        <ele>331.0</ele>
        <time>2022-08-12T08:47:36Z</time>
      </trkpt>
      <trkpt lat="42.4170220" lon="-2.2198690">
        <ele>331.2</ele>
        <time>2022-08-12T08:47:41Z</time>
      </trkpt>
      <trkpt lat="42.4170530" lon="-2.2199130">
        <ele>331.2</ele>
        <time>2022-08-12T08:47:42Z</time>
      </trkpt>
      <trkpt lat="42.4171150" lon="-2.2199930">
        <ele>331.6</ele>
        <time>2022-08-12T08:47:44Z</time>
      </trkpt>
      <trkpt lat="42.4173880" lon="-2.2203270">
        <ele>331.4</ele>
        <time>2022-08-12T08:47:52Z</time>
      </trkpt>
      <trkpt lat="42.4176830" lon="-2.2206910">
        <ele>331.8</ele>
        <time>2022-08-12T08:48:01Z</time>
      </trkpt>
      <trkpt lat="42.4179470" lon="-2.2210320">
        <ele>332.0</ele>
        <time>2022-08-12T08:48:09Z</time>
      </trkpt>
      <trkpt lat="42.4182660" lon="-2.2214060">
        <ele>332.0</ele>
        <time>2022-08-12T08:48:18Z</time>
      </trkpt>
      <trkpt lat="42.4186080" lon="-2.2217640">
        <ele>332.4</ele>
        <time>2022-08-12T08:48:27Z</time>
      </trkpt>
      <trkpt lat="42.4188700" lon="-2.2220380">
        <ele>332.0</ele>
        <time>2022-08-12T08:48:34Z</time>
      </trkpt>
      <trkpt lat="42.4191970" lon="-2.2223630">
        <ele>331.6</ele>
        <time>2022-08-12T08:48:42Z</time>
      </trkpt>
      <trkpt lat="42.4195000" lon="-2.2226540">
        <ele>332.0</ele>
        <time>2022-08-12T08:48:50Z</time>
      </trkpt>
      <trkpt lat="42.4199000" lon="-2.2230380">
        <ele>332.4</ele>
        <time>2022-08-12T08:49:00Z</time>
      </trkpt>
      <trkpt lat="42.4202600" lon="-2.2233380">
        <ele>332.0</ele>
        <time>2022-08-12T08:49:09Z</time>
      </trkpt>
      <trkpt lat="42.4205360" lon="-2.2236180">
        <ele>332.2</ele>
        <time>2022-08-12T08:49:16Z</time>
      </trkpt>
      <trkpt lat="42.4208160" lon="-2.2240240">
        <ele>332.6</ele>
        <time>2022-08-12T08:49:25Z</time>
      </trkpt>
      <trkpt lat="42.4210010" lon="-2.2243010">
        <ele>333.0</ele>
        <time>2022-08-12T08:49:31Z</time>
      </trkpt>
      <trkpt lat="42.4211350" lon="-2.2244920">
        <ele>333.2</ele>
        <time>2022-08-12T08:49:35Z</time>
      </trkpt>
      <trkpt lat="42.4213670" lon="-2.2248570">
        <ele>333.0</ele>
        <time>2022-08-12T08:49:43Z</time>
      </trkpt>
      <trkpt lat="42.4216260" lon="-2.2252940">
        <ele>332.2</ele>
        <time>2022-08-12T08:49:52Z</time>
      </trkpt>
      <trkpt lat="42.4218760" lon="-2.2257430">
        <ele>333.0</ele>
        <time>2022-08-12T08:50:01Z</time>
      </trkpt>
      <trkpt lat="42.4219670" lon="-2.2259140">
        <ele>333.0</ele>
        <time>2022-08-12T08:50:04Z</time>
      </trkpt>
      <trkpt lat="42.4221690" lon="-2.2262550">
        <ele>332.8</ele>
        <time>2022-08-12T08:50:11Z</time>
      </trkpt>
      <trkpt lat="42.4224770" lon="-2.2267440">
        <ele>333.2</ele>
        <time>2022-08-12T08:50:21Z</time>
      </trkpt>
      <trkpt lat="42.4227400" lon="-2.2272100">
        <ele>333.6</ele>
        <time>2022-08-12T08:50:31Z</time>
      </trkpt>
      <trkpt lat="42.4227950" lon="-2.2273550">
        <ele>333.8</ele>
        <time>2022-08-12T08:50:34Z</time>
      </trkpt>
      <trkpt lat="42.4228070" lon="-2.2274070">
        <ele>333.8</ele>
        <time>2022-08-12T08:50:35Z</time>
      </trkpt>
      <trkpt lat="42.4228130" lon="-2.2274970">
        <ele>333.8</ele>
        <time>2022-08-12T08:50:37Z</time>
      </trkpt>
      <trkpt lat="42.4228240" lon="-2.2276930">
        <ele>334.2</ele>
        <time>2022-08-12T08:50:41Z</time>
      </trkpt>
      <trkpt lat="42.4228440" lon="-2.2277920">
        <ele>334.8</ele>
        <time>2022-08-12T08:50:43Z</time>
      </trkpt>
      <trkpt lat="42.4228610" lon="-2.2278500">
        <ele>335.0</ele>
        <time>2022-08-12T08:50:44Z</time>
      </trkpt>
      <trkpt lat="42.4229020" lon="-2.2279940">
        <ele>335.2</ele>
        <time>2022-08-12T08:50:47Z</time>
      </trkpt>
      <trkpt lat="42.4229450" lon="-2.2281440">
        <ele>336.0</ele>
        <time>2022-08-12T08:50:50Z</time>
      </trkpt>
      <trkpt lat="42.4229770" lon="-2.2282480">
        <ele>336.2</ele>
        <time>2022-08-12T08:50:52Z</time>
      </trkpt>
      <trkpt lat="42.4230560" lon="-2.2286940">
        <ele>336.4</ele>
        <time>2022-08-12T08:51:00Z</time>
      </trkpt>
      <trkpt lat="42.4230900" lon="-2.2290610">
        <ele>336.4</ele>
        <time>2022-08-12T08:51:07Z</time>
      </trkpt>
      <trkpt lat="42.4230620" lon="-2.2293120">
        <ele>336.8</ele>
        <time>2022-08-12T08:51:12Z</time>
      </trkpt>
      <trkpt lat="42.4230120" lon="-2.2295050">
        <ele>337.2</ele>
        <time>2022-08-12T08:51:16Z</time>
      </trkpt>
      <trkpt lat="42.4229800" lon="-2.2296580">
        <ele>337.4</ele>
        <time>2022-08-12T08:51:19Z</time>
      </trkpt>
      <trkpt lat="42.4229670" lon="-2.2299590">
        <ele>337.4</ele>
        <time>2022-08-12T08:51:26Z</time>
      </trkpt>
      <trkpt lat="42.4229810" lon="-2.2301470">
        <ele>338.4</ele>
        <time>2022-08-12T08:51:31Z</time>
      </trkpt>
      <trkpt lat="42.4230100" lon="-2.2302490">
        <ele>338.8</ele>
        <time>2022-08-12T08:51:34Z</time>
      </trkpt>
      <trkpt lat="42.4230280" lon="-2.2303130">
        <ele>339.4</ele>
        <time>2022-08-12T08:51:36Z</time>
      </trkpt>
      <trkpt lat="42.4230560" lon="-2.2304800">
        <ele>340.2</ele>
        <time>2022-08-12T08:51:41Z</time>
      </trkpt>
      <trkpt lat="42.4230610" lon="-2.2305090">
        <ele>340.6</ele>
        <time>2022-08-12T08:51:42Z</time>
      </trkpt>
      <trkpt lat="42.4230740" lon="-2.2306780">
        <ele>341.6</ele>
        <time>2022-08-12T08:51:47Z</time>
      </trkpt>
      <trkpt lat="42.4230790" lon="-2.2307320">
        <ele>342.2</ele>
        <time>2022-08-12T08:51:49Z</time>
      </trkpt>
      <trkpt lat="42.4230950" lon="-2.2307640">
        <ele>342.6</ele>
        <time>2022-08-12T08:51:50Z</time>
      </trkpt>
      <trkpt lat="42.4232000" lon="-2.2308420">
        <ele>343.4</ele>
        <time>2022-08-12T08:51:54Z</time>
      </trkpt>
      <trkpt lat="42.4232230" lon="-2.2308470">
        <ele>343.4</ele>
        <time>2022-08-12T08:51:55Z</time>
      </trkpt>
      <trkpt lat="42.4234470" lon="-2.2308550">
        <ele>343.8</ele>
        <time>2022-08-12T08:52:03Z</time>
      </trkpt>
      <trkpt lat="42.4236730" lon="-2.2309560">
        <ele>344.2</ele>
        <time>2022-08-12T08:52:11Z</time>
      </trkpt>
      <trkpt lat="42.4236990" lon="-2.2309780">
        <ele>344.6</ele>
        <time>2022-08-12T08:52:12Z</time>
      </trkpt>
      <trkpt lat="42.4237910" lon="-2.2311250">
        <ele>345.0</ele>
        <time>2022-08-12T08:52:17Z</time>
      </trkpt>
      <trkpt lat="42.4239440" lon="-2.2313930">
        <ele>345.4</ele>
        <time>2022-08-12T08:52:25Z</time>
      </trkpt>
      <trkpt lat="42.4239700" lon="-2.2314200">
        <ele>345.6</ele>
        <time>2022-08-12T08:52:26Z</time>
      </trkpt>
      <trkpt lat="42.4241100" lon="-2.2315740">
        <ele>345.4</ele>
        <time>2022-08-12T08:52:32Z</time>
      </trkpt>
      <trkpt lat="42.4241880" lon="-2.2316720">
        <ele>345.4</ele>
        <time>2022-08-12T08:52:35Z</time>
      </trkpt>
      <trkpt lat="42.4243280" lon="-2.2319720">
        <ele>346.0</ele>
        <time>2022-08-12T08:52:42Z</time>
      </trkpt>
      <trkpt lat="42.4243800" lon="-2.2321840">
        <ele>345.8</ele>
        <time>2022-08-12T08:52:46Z</time>
      </trkpt>
      <trkpt lat="42.4244240" lon="-2.2323390">
        <ele>345.6</ele>
        <time>2022-08-12T08:52:49Z</time>
      </trkpt>
      <trkpt lat="42.4245290" lon="-2.2326400">
        <ele>345.4</ele>
        <time>2022-08-12T08:52:55Z</time>
      </trkpt>
      <trkpt lat="42.4245990" lon="-2.2328350">
        <ele>345.6</ele>
        <time>2022-08-12T08:52:59Z</time>
      </trkpt>
      <trkpt lat="42.4247770" lon="-2.2333710">
        <ele>345.8</ele>
        <time>2022-08-12T08:53:10Z</time>
      </trkpt>
      <trkpt lat="42.4248420" lon="-2.2336960">
        <ele>346.0</ele>
        <time>2022-08-12T08:53:17Z</time>
      </trkpt>
      <trkpt lat="42.4248450" lon="-2.2338780">
        <ele>346.8</ele>
        <time>2022-08-12T08:53:21Z</time>
      </trkpt>
      <trkpt lat="42.4248450" lon="-2.2340670">
        <ele>347.2</ele>
        <time>2022-08-12T08:53:25Z</time>
      </trkpt>
      <trkpt lat="42.4248430" lon="-2.2341580">
        <ele>347.6</ele>
        <time>2022-08-12T08:53:27Z</time>
      </trkpt>
      <trkpt lat="42.4248430" lon="-2.2341940">
        <ele>347.8</ele>
        <time>2022-08-12T08:53:28Z</time>
      </trkpt>
      <trkpt lat="42.4248910" lon="-2.2345230">
        <ele>348.8</ele>
        <time>2022-08-12T08:53:35Z</time>
      </trkpt>
      <trkpt lat="42.4249010" lon="-2.2345710">
        <ele>349.0</ele>
        <time>2022-08-12T08:53:36Z</time>
      </trkpt>
      <trkpt lat="42.4250160" lon="-2.2348960">
        <ele>349.6</ele>
        <time>2022-08-12T08:53:43Z</time>
      </trkpt>
      <trkpt lat="42.4251330" lon="-2.2353200">
        <ele>349.8</ele>
        <time>2022-08-12T08:53:52Z</time>
      </trkpt>
      <trkpt lat="42.4252140" lon="-2.2356560">
        <ele>350.0</ele>
        <time>2022-08-12T08:53:59Z</time>
      </trkpt>
      <trkpt lat="42.4252330" lon="-2.2357030">
        <ele>350.2</ele>
        <time>2022-08-12T08:54:00Z</time>
      </trkpt>
      <trkpt lat="42.4254160" lon="-2.2362040">
        <ele>350.0</ele>
        <time>2022-08-12T08:54:11Z</time>
      </trkpt>
      <trkpt lat="42.4255830" lon="-2.2367640">
        <ele>350.6</ele>
        <time>2022-08-12T08:54:23Z</time>
      </trkpt>
      <trkpt lat="42.4256690" lon="-2.2369940">
        <ele>350.6</ele>
        <time>2022-08-12T08:54:28Z</time>
      </trkpt>
      <trkpt lat="42.4257270" lon="-2.2371810">
        <ele>351.2</ele>
        <time>2022-08-12T08:54:32Z</time>
      </trkpt>
      <trkpt lat="42.4258130" lon="-2.2375680">
        <ele>351.8</ele>
        <time>2022-08-12T08:54:40Z</time>
      </trkpt>
      <trkpt lat="42.4259330" lon="-2.2379340">
        <ele>351.8</ele>
        <time>2022-08-12T08:54:48Z</time>
      </trkpt>
      <trkpt lat="42.4260640" lon="-2.2383540">
        <ele>352.4</ele>
        <time>2022-08-12T08:54:57Z</time>
      </trkpt>
      <trkpt lat="42.4260780" lon="-2.2383990">
        <ele>352.4</ele>
        <time>2022-08-12T08:54:58Z</time>
      </trkpt>
      <trkpt lat="42.4262460" lon="-2.2389550">
        <ele>352.8</ele>
        <time>2022-08-12T08:55:10Z</time>
      </trkpt>
      <trkpt lat="42.4264250" lon="-2.2395160">
        <ele>353.0</ele>
        <time>2022-08-12T08:55:22Z</time>
      </trkpt>
      <trkpt lat="42.4265610" lon="-2.2399390">
        <ele>353.4</ele>
        <time>2022-08-12T08:55:31Z</time>
      </trkpt>
      <trkpt lat="42.4265740" lon="-2.2399910">
        <ele>353.4</ele>
        <time>2022-08-12T08:55:32Z</time>
      </trkpt>
      <trkpt lat="42.4266330" lon="-2.2401930">
        <ele>353.2</ele>
        <time>2022-08-12T08:55:36Z</time>
      </trkpt>
      <trkpt lat="42.4266840" lon="-2.2403300">
        <ele>352.8</ele>
        <time>2022-08-12T08:55:39Z</time>
      </trkpt>
      <trkpt lat="42.4267420" lon="-2.2405180">
        <ele>352.2</ele>
        <time>2022-08-12T08:55:43Z</time>
      </trkpt>
      <trkpt lat="42.4268350" lon="-2.2407810">
        <ele>352.6</ele>
        <time>2022-08-12T08:55:49Z</time>
      </trkpt>
      <trkpt lat="42.4269510" lon="-2.2410910">
        <ele>353.4</ele>
        <time>2022-08-12T08:55:56Z</time>
      </trkpt>
      <trkpt lat="42.4270070" lon="-2.2412190">
        <ele>353.2</ele>
        <time>2022-08-12T08:55:59Z</time>
      </trkpt>
      <trkpt lat="42.4271750" lon="-2.2416750">
        <ele>353.4</ele>
        <time>2022-08-12T08:56:09Z</time>
      </trkpt>
      <trkpt lat="42.4272790" lon="-2.2421070">
        <ele>354.0</ele>
        <time>2022-08-12T08:56:18Z</time>
      </trkpt>
      <trkpt lat="42.4274370" lon="-2.2424720">
        <ele>354.2</ele>
        <time>2022-08-12T08:56:26Z</time>
      </trkpt>
      <trkpt lat="42.4275170" lon="-2.2425890">
        <ele>354.4</ele>
        <time>2022-08-12T08:56:29Z</time>
      </trkpt>
      <trkpt lat="42.4276100" lon="-2.2426890">
        <ele>354.4</ele>
        <time>2022-08-12T08:56:32Z</time>
      </trkpt>
      <trkpt lat="42.4279150" lon="-2.2429240">
        <ele>354.6</ele>
        <time>2022-08-12T08:56:41Z</time>
      </trkpt>
      <trkpt lat="42.4281950" lon="-2.2430820">
        <ele>354.8</ele>
        <time>2022-08-12T08:56:49Z</time>
      </trkpt>
      <trkpt lat="42.4284760" lon="-2.2432130">
        <ele>354.2</ele>
        <time>2022-08-12T08:56:57Z</time>
      </trkpt>
      <trkpt lat="42.4285820" lon="-2.2432320">
        <ele>354.0</ele>
        <time>2022-08-12T08:57:00Z</time>
      </trkpt>
      <trkpt lat="42.4287450" lon="-2.2432550">
        <ele>353.8</ele>
        <time>2022-08-12T08:57:05Z</time>
      </trkpt>
      <trkpt lat="42.4289820" lon="-2.2433140">
        <ele>353.6</ele>
        <time>2022-08-12T08:57:12Z</time>
      </trkpt>
      <trkpt lat="42.4291260" lon="-2.2434030">
        <ele>353.8</ele>
        <time>2022-08-12T08:57:16Z</time>
      </trkpt>
      <trkpt lat="42.4291820" lon="-2.2434630">
        <ele>354.0</ele>
        <time>2022-08-12T08:57:18Z</time>
      </trkpt>
      <trkpt lat="42.4293650" lon="-2.2437550">
        <ele>354.6</ele>
        <time>2022-08-12T08:57:25Z</time>
      </trkpt>
      <trkpt lat="42.4295240" lon="-2.2441440">
        <ele>354.8</ele>
        <time>2022-08-12T08:57:33Z</time>
      </trkpt>
      <trkpt lat="42.4295410" lon="-2.2441970">
        <ele>354.8</ele>
        <time>2022-08-12T08:57:34Z</time>
      </trkpt>
      <trkpt lat="42.4296770" lon="-2.2446670">
        <ele>355.2</ele>
        <time>2022-08-12T08:57:43Z</time>
      </trkpt>
      <trkpt lat="42.4296910" lon="-2.2447190">
        <ele>355.2</ele>
        <time>2022-08-12T08:57:44Z</time>
      </trkpt>
      <trkpt lat="42.4297450" lon="-2.2448890">
        <ele>355.4</ele>
        <time>2022-08-12T08:57:47Z</time>
      </trkpt>
      <trkpt lat="42.4298470" lon="-2.2451920">
        <ele>355.6</ele>
        <time>2022-08-12T08:57:53Z</time>
      </trkpt>
      <trkpt lat="42.4298820" lon="-2.2453010">
        <ele>355.6</ele>
        <time>2022-08-12T08:57:55Z</time>
      </trkpt>
      <trkpt lat="42.4301140" lon="-2.2459350">
        <ele>355.8</ele>
        <time>2022-08-12T08:58:07Z</time>
      </trkpt>
      <trkpt lat="42.4303180" lon="-2.2464420">
        <ele>355.8</ele>
        <time>2022-08-12T08:58:16Z</time>
      </trkpt>
      <trkpt lat="42.4304960" lon="-2.2469380">
        <ele>356.0</ele>
        <time>2022-08-12T08:58:24Z</time>
      </trkpt>
      <trkpt lat="42.4305660" lon="-2.2471280">
        <ele>356.0</ele>
        <time>2022-08-12T08:58:27Z</time>
      </trkpt>
      <trkpt lat="42.4307440" lon="-2.2476150">
        <ele>356.2</ele>
        <time>2022-08-12T08:58:35Z</time>
      </trkpt>
      <trkpt lat="42.4307940" lon="-2.2477350">
        <ele>356.2</ele>
        <time>2022-08-12T08:58:37Z</time>
      </trkpt>
      <trkpt lat="42.4308730" lon="-2.2479000">
        <ele>356.2</ele>
        <time>2022-08-12T08:58:40Z</time>
      </trkpt>
      <trkpt lat="42.4309740" lon="-2.2480460">
        <ele>356.2</ele>
        <time>2022-08-12T08:58:43Z</time>
      </trkpt>
      <trkpt lat="42.4312700" lon="-2.2482870">
        <ele>356.0</ele>
        <time>2022-08-12T08:58:50Z</time>
      </trkpt>
      <trkpt lat="42.4313900" lon="-2.2483990">
        <ele>356.0</ele>
        <time>2022-08-12T08:58:53Z</time>
      </trkpt>
      <trkpt lat="42.4314520" lon="-2.2484980">
        <ele>356.0</ele>
        <time>2022-08-12T08:58:55Z</time>
      </trkpt>
      <trkpt lat="42.4315650" lon="-2.2488620">
        <ele>356.2</ele>
        <time>2022-08-12T08:59:01Z</time>
      </trkpt>
      <trkpt lat="42.4317260" lon="-2.2494810">
        <ele>356.2</ele>
        <time>2022-08-12T08:59:11Z</time>
      </trkpt>
      <trkpt lat="42.4317530" lon="-2.2496050">
        <ele>356.4</ele>
        <time>2022-08-12T08:59:13Z</time>
      </trkpt>
      <trkpt lat="42.4317870" lon="-2.2497190">
        <ele>356.4</ele>
        <time>2022-08-12T08:59:15Z</time>
      </trkpt>
      <trkpt lat="42.4318160" lon="-2.2498480">
        <ele>356.6</ele>
        <time>2022-08-12T08:59:17Z</time>
      </trkpt>
      <trkpt lat="42.4318280" lon="-2.2498910">
        <ele>356.6</ele>
        <time>2022-08-12T08:59:18Z</time>
      </trkpt>
      <trkpt lat="42.4318850" lon="-2.2501000">
        <ele>356.6</ele>
        <time>2022-08-12T08:59:22Z</time>
      </trkpt>
      <trkpt lat="42.4319290" lon="-2.2503040">
        <ele>356.6</ele>
        <time>2022-08-12T08:59:26Z</time>
      </trkpt>
      <trkpt lat="42.4319930" lon="-2.2505360">
        <ele>356.6</ele>
        <time>2022-08-12T08:59:30Z</time>
      </trkpt>
      <trkpt lat="42.4320630" lon="-2.2508310">
        <ele>356.8</ele>
        <time>2022-08-12T08:59:35Z</time>
      </trkpt>
      <trkpt lat="42.4320950" lon="-2.2509490">
        <ele>356.8</ele>
        <time>2022-08-12T08:59:37Z</time>
      </trkpt>
      <trkpt lat="42.4322090" lon="-2.2513600">
        <ele>356.6</ele>
        <time>2022-08-12T08:59:44Z</time>
      </trkpt>
      <trkpt lat="42.4322230" lon="-2.2514190">
        <ele>356.6</ele>
        <time>2022-08-12T08:59:45Z</time>
      </trkpt>
      <trkpt lat="42.4323150" lon="-2.2517900">
        <ele>356.6</ele>
        <time>2022-08-12T08:59:51Z</time>
      </trkpt>
      <trkpt lat="42.4323810" lon="-2.2520360">
        <ele>356.6</ele>
        <time>2022-08-12T08:59:55Z</time>
      </trkpt>
      <trkpt lat="42.4325210" lon="-2.2525530">
        <ele>356.4</ele>
        <time>2022-08-12T09:00:04Z</time>
      </trkpt>
      <trkpt lat="42.4325640" lon="-2.2526960">
        <ele>356.6</ele>
        <time>2022-08-12T09:00:07Z</time>
      </trkpt>
      <trkpt lat="42.4325960" lon="-2.2527490">
        <ele>356.6</ele>
        <time>2022-08-12T09:00:09Z</time>
      </trkpt>
      <trkpt lat="42.4326180" lon="-2.2527570">
        <ele>356.4</ele>
        <time>2022-08-12T09:00:10Z</time>
      </trkpt>
      <trkpt lat="42.4326750" lon="-2.2527390">
        <ele>356.4</ele>
        <time>2022-08-12T09:00:13Z</time>
      </trkpt>
      <trkpt lat="42.4328320" lon="-2.2526740">
        <ele>356.2</ele>
        <time>2022-08-12T09:00:19Z</time>
      </trkpt>
      <trkpt lat="42.4330210" lon="-2.2525950">
        <ele>356.0</ele>
        <time>2022-08-12T09:00:25Z</time>
      </trkpt>
      <trkpt lat="42.4332020" lon="-2.2525300">
        <ele>356.0</ele>
        <time>2022-08-12T09:00:31Z</time>
      </trkpt>
      <trkpt lat="42.4332270" lon="-2.2525140">
        <ele>356.0</ele>
        <time>2022-08-12T09:00:32Z</time>
      </trkpt>
      <trkpt lat="42.4332510" lon="-2.2525010">
        <ele>356.0</ele>
        <time>2022-08-12T09:00:33Z</time>
      </trkpt>
      <trkpt lat="42.4333060" lon="-2.2524820">
        <ele>356.0</ele>
        <time>2022-08-12T09:00:35Z</time>
      </trkpt>
      <trkpt lat="42.4335170" lon="-2.2523830">
        <ele>355.8</ele>
        <time>2022-08-12T09:00:42Z</time>
      </trkpt>
      <trkpt lat="42.4338190" lon="-2.2522810">
        <ele>355.8</ele>
        <time>2022-08-12T09:00:50Z</time>
      </trkpt>
      <trkpt lat="42.4338530" lon="-2.2522710">
        <ele>355.8</ele>
        <time>2022-08-12T09:00:51Z</time>
      </trkpt>
      <trkpt lat="42.4341050" lon="-2.2521750">
        <ele>355.6</ele>
        <time>2022-08-12T09:00:59Z</time>
      </trkpt>
      <trkpt lat="42.4341520" lon="-2.2521520">
        <ele>355.4</ele>
        <time>2022-08-12T09:01:03Z</time>
      </trkpt>
      <trkpt lat="42.4341930" lon="-2.2521260">
        <ele>355.2</ele>
        <time>2022-08-12T09:01:05Z</time>
      </trkpt>
      <trkpt lat="42.4342440" lon="-2.2520940">
        <ele>355.2</ele>
        <time>2022-08-12T09:01:07Z</time>
      </trkpt>
      <trkpt lat="42.4342820" lon="-2.2520520">
        <ele>355.2</ele>
        <time>2022-08-12T09:01:09Z</time>
      </trkpt>
      <trkpt lat="42.4343050" lon="-2.2520370">
        <ele>355.2</ele>
        <time>2022-08-12T09:01:10Z</time>
      </trkpt>
      <trkpt lat="42.4343340" lon="-2.2520150">
        <ele>355.2</ele>
        <time>2022-08-12T09:01:12Z</time>
      </trkpt>
      <trkpt lat="42.4343340" lon="-2.2520020">
        <ele>355.2</ele>
        <time>2022-08-12T09:01:14Z</time>
      </trkpt>
      <trkpt lat="42.4343520" lon="-2.2520100">
        <ele>355.2</ele>
        <time>2022-08-12T09:03:50Z</time>
      </trkpt>
      <trkpt lat="42.4343540" lon="-2.2520200">
        <ele>355.2</ele>
        <time>2022-08-12T09:03:51Z</time>
      </trkpt>
      <trkpt lat="42.4343430" lon="-2.2520620">
        <ele>355.4</ele>
        <time>2022-08-12T09:03:53Z</time>
      </trkpt>
      <trkpt lat="42.4343250" lon="-2.2520900">
        <ele>355.4</ele>
        <time>2022-08-12T09:03:54Z</time>
      </trkpt>
      <trkpt lat="42.4342090" lon="-2.2521720">
        <ele>355.2</ele>
        <time>2022-08-12T09:03:58Z</time>
      </trkpt>
      <trkpt lat="42.4341380" lon="-2.2522060">
        <ele>355.2</ele>
        <time>2022-08-12T09:04:00Z</time>
      </trkpt>
      <trkpt lat="42.4340420" lon="-2.2522370">
        <ele>355.2</ele>
        <time>2022-08-12T09:04:02Z</time>
      </trkpt>
      <trkpt lat="42.4339320" lon="-2.2522770">
        <ele>355.2</ele>
        <time>2022-08-12T09:04:04Z</time>
      </trkpt>
      <trkpt lat="42.4337480" lon="-2.2523540">
        <ele>355.4</ele>
        <time>2022-08-12T09:04:08Z</time>
      </trkpt>
      <trkpt lat="42.4336730" lon="-2.2523890">
        <ele>355.4</ele>
        <time>2022-08-12T09:04:10Z</time>
      </trkpt>
      <trkpt lat="42.4336230" lon="-2.2524070">
        <ele>355.4</ele>
        <time>2022-08-12T09:04:11Z</time>
      </trkpt>
      <trkpt lat="42.4335020" lon="-2.2524400">
        <ele>355.6</ele>
        <time>2022-08-12T09:04:14Z</time>
      </trkpt>
      <trkpt lat="42.4334600" lon="-2.2524570">
        <ele>355.6</ele>
        <time>2022-08-12T09:04:15Z</time>
      </trkpt>
      <trkpt lat="42.4334060" lon="-2.2524730">
        <ele>355.6</ele>
        <time>2022-08-12T09:04:16Z</time>
      </trkpt>
      <trkpt lat="42.4333300" lon="-2.2524940">
        <ele>355.6</ele>
        <time>2022-08-12T09:04:18Z</time>
      </trkpt>
      <trkpt lat="42.4332870" lon="-2.2525080">
        <ele>355.6</ele>
        <time>2022-08-12T09:04:19Z</time>
      </trkpt>
      <trkpt lat="42.4328470" lon="-2.2526790">
        <ele>355.4</ele>
        <time>2022-08-12T09:04:29Z</time>
      </trkpt>
      <trkpt lat="42.4326490" lon="-2.2527800">
        <ele>355.8</ele>
        <time>2022-08-12T09:04:35Z</time>
      </trkpt>
      <trkpt lat="42.4326270" lon="-2.2528020">
        <ele>355.8</ele>
        <time>2022-08-12T09:04:36Z</time>
      </trkpt>
      <trkpt lat="42.4326070" lon="-2.2528420">
        <ele>356.0</ele>
        <time>2022-08-12T09:04:37Z</time>
      </trkpt>
      <trkpt lat="42.4326100" lon="-2.2529240">
        <ele>355.8</ele>
        <time>2022-08-12T09:04:39Z</time>
      </trkpt>
      <trkpt lat="42.4326610" lon="-2.2531190">
        <ele>356.2</ele>
        <time>2022-08-12T09:04:43Z</time>
      </trkpt>
      <trkpt lat="42.4327030" lon="-2.2532220">
        <ele>356.2</ele>
        <time>2022-08-12T09:04:45Z</time>
      </trkpt>
      <trkpt lat="42.4327300" lon="-2.2533400">
        <ele>356.2</ele>
        <time>2022-08-12T09:04:47Z</time>
      </trkpt>
      <trkpt lat="42.4327620" lon="-2.2535150">
        <ele>356.2</ele>
        <time>2022-08-12T09:04:50Z</time>
      </trkpt>
      <trkpt lat="42.4327730" lon="-2.2535610">
        <ele>356.4</ele>
        <time>2022-08-12T09:04:51Z</time>
      </trkpt>
      <trkpt lat="42.4327860" lon="-2.2536280">
        <ele>356.4</ele>
        <time>2022-08-12T09:04:52Z</time>
      </trkpt>
      <trkpt lat="42.4328220" lon="-2.2538110">
        <ele>356.4</ele>
        <time>2022-08-12T09:04:55Z</time>
      </trkpt>
      <trkpt lat="42.4328500" lon="-2.2539480">
        <ele>356.4</ele>
        <time>2022-08-12T09:04:57Z</time>
      </trkpt>
      <trkpt lat="42.4329040" lon="-2.2542280">
        <ele>356.2</ele>
        <time>2022-08-12T09:05:01Z</time>
      </trkpt>
      <trkpt lat="42.4329360" lon="-2.2543700">
        <ele>356.2</ele>
        <time>2022-08-12T09:05:03Z</time>
      </trkpt>
      <trkpt lat="42.4329890" lon="-2.2546230">
        <ele>355.6</ele>
        <time>2022-08-12T09:05:08Z</time>
      </trkpt>
      <trkpt lat="42.4330250" lon="-2.2547140">
        <ele>355.4</ele>
        <time>2022-08-12T09:05:12Z</time>
      </trkpt>
      <trkpt lat="42.4330580" lon="-2.2546950">
        <ele>354.4</ele>
        <time>2022-08-12T09:06:43Z</time>
      </trkpt>
      <trkpt lat="42.4330630" lon="-2.2546820">
        <ele>354.4</ele>
        <time>2022-08-12T09:06:44Z</time>
      </trkpt>
      <trkpt lat="42.4330640" lon="-2.2546660">
        <ele>354.4</ele>
        <time>2022-08-12T09:06:45Z</time>
      </trkpt>
      <trkpt lat="42.4330620" lon="-2.2546310">
        <ele>354.6</ele>
        <time>2022-08-12T09:06:48Z</time>
      </trkpt>
      <trkpt lat="42.4330630" lon="-2.2546270">
        <ele>354.6</ele>
        <time>2022-08-12T09:06:49Z</time>
      </trkpt>
      <trkpt lat="42.4330660" lon="-2.2545980">
        <ele>354.6</ele>
        <time>2022-08-12T09:06:51Z</time>
      </trkpt>
      <trkpt lat="42.4330710" lon="-2.2545850">
        <ele>354.6</ele>
        <time>2022-08-12T09:06:52Z</time>
      </trkpt>
      <trkpt lat="42.4331500" lon="-2.2545100">
        <ele>354.6</ele>
        <time>2022-08-12T09:06:56Z</time>
      </trkpt>
      <trkpt lat="42.4331860" lon="-2.2544910">
        <ele>354.6</ele>
        <time>2022-08-12T09:06:57Z</time>
      </trkpt>
      <trkpt lat="42.4332690" lon="-2.2544530">
        <ele>354.6</ele>
        <time>2022-08-12T09:06:59Z</time>
      </trkpt>
      <trkpt lat="42.4333560" lon="-2.2544190">
        <ele>354.8</ele>
        <time>2022-08-12T09:07:01Z</time>
      </trkpt>
      <trkpt lat="42.4334430" lon="-2.2543900">
        <ele>355.0</ele>
        <time>2022-08-12T09:07:03Z</time>
      </trkpt>
      <trkpt lat="42.4336140" lon="-2.2543090">
        <ele>355.4</ele>
        <time>2022-08-12T09:07:08Z</time>
      </trkpt>
      <trkpt lat="42.4339280" lon="-2.2541050">
        <ele>356.0</ele>
        <time>2022-08-12T09:07:17Z</time>
      </trkpt>
      <trkpt lat="42.4340000" lon="-2.2540500">
        <ele>356.0</ele>
        <time>2022-08-12T09:07:19Z</time>
      </trkpt>
      <trkpt lat="42.4341140" lon="-2.2539650">
        <ele>356.0</ele>
        <time>2022-08-12T09:07:22Z</time>
      </trkpt>
      <trkpt lat="42.4342150" lon="-2.2538890">
        <ele>356.0</ele>
        <time>2022-08-12T09:07:25Z</time>
      </trkpt>
      <trkpt lat="42.4343080" lon="-2.2538370">
        <ele>356.0</ele>
        <time>2022-08-12T09:07:27Z</time>
      </trkpt>
      <trkpt lat="42.4344140" lon="-2.2537290">
        <ele>356.2</ele>
        <time>2022-08-12T09:07:30Z</time>
      </trkpt>
      <trkpt lat="42.4346310" lon="-2.2535670">
        <ele>356.4</ele>
        <time>2022-08-12T09:07:36Z</time>
      </trkpt>
      <trkpt lat="42.4347090" lon="-2.2535140">
        <ele>356.4</ele>
        <time>2022-08-12T09:07:38Z</time>
      </trkpt>
      <trkpt lat="42.4347970" lon="-2.2534520">
        <ele>356.4</ele>
        <time>2022-08-12T09:07:40Z</time>
      </trkpt>
      <trkpt lat="42.4349080" lon="-2.2533920">
        <ele>356.4</ele>
        <time>2022-08-12T09:07:42Z</time>
      </trkpt>
      <trkpt lat="42.4349520" lon="-2.2533730">
        <ele>356.4</ele>
        <time>2022-08-12T09:07:43Z</time>
      </trkpt>
      <trkpt lat="42.4350610" lon="-2.2533120">
        <ele>356.4</ele>
        <time>2022-08-12T09:07:45Z</time>
      </trkpt>
      <trkpt lat="42.4352540" lon="-2.2532150">
        <ele>356.2</ele>
        <time>2022-08-12T09:07:49Z</time>
      </trkpt>
      <trkpt lat="42.4353360" lon="-2.2531870">
        <ele>354.8</ele>
        <time>2022-08-12T09:07:53Z</time>
      </trkpt>
      <trkpt lat="42.4353570" lon="-2.2531870">
        <ele>354.2</ele>
        <time>2022-08-12T09:07:55Z</time>
      </trkpt>
      <trkpt lat="42.4353690" lon="-2.2531920">
        <ele>354.0</ele>
        <time>2022-08-12T09:07:56Z</time>
      </trkpt>
      <trkpt lat="42.4353820" lon="-2.2532040">
        <ele>353.8</ele>
        <time>2022-08-12T09:07:57Z</time>
      </trkpt>
      <trkpt lat="42.4353880" lon="-2.2532270">
        <ele>353.6</ele>
        <time>2022-08-12T09:07:58Z</time>
      </trkpt>
      <trkpt lat="42.4353780" lon="-2.2532720">
        <ele>353.6</ele>
        <time>2022-08-12T09:08:00Z</time>
      </trkpt>
      <trkpt lat="42.4353560" lon="-2.2532930">
        <ele>353.6</ele>
        <time>2022-08-12T09:08:01Z</time>
      </trkpt>
      <trkpt lat="42.4352190" lon="-2.2533730">
        <ele>353.0</ele>
        <time>2022-08-12T09:08:05Z</time>
      </trkpt>
      <trkpt lat="42.4352000" lon="-2.2533830">
        <ele>353.0</ele>
        <time>2022-08-12T09:08:06Z</time>
      </trkpt>
      <trkpt lat="42.4351790" lon="-2.2533970">
        <ele>352.4</ele>
        <time>2022-08-12T09:08:07Z</time>
      </trkpt>
      <trkpt lat="42.4351780" lon="-2.2534390">
        <ele>351.6</ele>
        <time>2022-08-12T09:08:09Z</time>
      </trkpt>
      <trkpt lat="42.4351880" lon="-2.2534490">
        <ele>351.0</ele>
        <time>2022-08-12T09:08:10Z</time>
      </trkpt>
      <trkpt lat="42.4352490" lon="-2.2534670">
        <ele>350.2</ele>
        <time>2022-08-12T09:08:12Z</time>
      </trkpt>
      <trkpt lat="42.4353880" lon="-2.2535120">
        <ele>349.0</ele>
        <time>2022-08-12T09:08:15Z</time>
      </trkpt>
      <trkpt lat="42.4354620" lon="-2.2535420">
        <ele>348.8</ele>
        <time>2022-08-12T09:08:16Z</time>
      </trkpt>
      <trkpt lat="42.4356650" lon="-2.2536330">
        <ele>348.0</ele>
        <time>2022-08-12T09:08:19Z</time>
      </trkpt>
      <trkpt lat="42.4357190" lon="-2.2536590">
        <ele>347.8</ele>
        <time>2022-08-12T09:08:20Z</time>
      </trkpt>
      <trkpt lat="42.4357560" lon="-2.2536790">
        <ele>347.0</ele>
        <time>2022-08-12T09:08:21Z</time>
      </trkpt>
      <trkpt lat="42.4357820" lon="-2.2536990">
        <ele>345.8</ele>
        <time>2022-08-12T09:08:22Z</time>
      </trkpt>
      <trkpt lat="42.4358080" lon="-2.2537490">
        <ele>343.6</ele>
        <time>2022-08-12T09:08:24Z</time>
      </trkpt>
      <trkpt lat="42.4358420" lon="-2.2538120">
        <ele>342.0</ele>
        <time>2022-08-12T09:08:26Z</time>
      </trkpt>
      <trkpt lat="42.4358800" lon="-2.2538890">
        <ele>341.4</ele>
        <time>2022-08-12T09:08:28Z</time>
      </trkpt>
      <trkpt lat="42.4358980" lon="-2.2539340">
        <ele>341.0</ele>
        <time>2022-08-12T09:08:29Z</time>
      </trkpt>
      <trkpt lat="42.4359110" lon="-2.2539740">
        <ele>340.8</ele>
        <time>2022-08-12T09:08:30Z</time>
      </trkpt>
      <trkpt lat="42.4359380" lon="-2.2540890">
        <ele>340.6</ele>
        <time>2022-08-12T09:08:32Z</time>
      </trkpt>
      <trkpt lat="42.4359720" lon="-2.2542420">
        <ele>340.6</ele>
        <time>2022-08-12T09:08:35Z</time>
      </trkpt>
      <trkpt lat="42.4360180" lon="-2.2544010">
        <ele>340.6</ele>
        <time>2022-08-12T09:08:38Z</time>
      </trkpt>
      <trkpt lat="42.4360870" lon="-2.2547180">
        <ele>340.6</ele>
        <time>2022-08-12T09:08:44Z</time>
      </trkpt>
      <trkpt lat="42.4361100" lon="-2.2548350">
        <ele>340.4</ele>
        <time>2022-08-12T09:08:46Z</time>
      </trkpt>
      <trkpt lat="42.4361690" lon="-2.2550660">
        <ele>340.4</ele>
        <time>2022-08-12T09:08:50Z</time>
      </trkpt>
      <trkpt lat="42.4362930" lon="-2.2556160">
        <ele>340.6</ele>
        <time>2022-08-12T09:08:59Z</time>
      </trkpt>
      <trkpt lat="42.4363370" lon="-2.2557980">
        <ele>340.8</ele>
        <time>2022-08-12T09:09:02Z</time>
      </trkpt>
      <trkpt lat="42.4364130" lon="-2.2561140">
        <ele>341.0</ele>
        <time>2022-08-12T09:09:07Z</time>
      </trkpt>
      <trkpt lat="42.4365120" lon="-2.2565040">
        <ele>341.2</ele>
        <time>2022-08-12T09:09:13Z</time>
      </trkpt>
      <trkpt lat="42.4365680" lon="-2.2567210">
        <ele>341.2</ele>
        <time>2022-08-12T09:09:16Z</time>
      </trkpt>
      <trkpt lat="42.4367500" lon="-2.2574760">
        <ele>341.2</ele>
        <time>2022-08-12T09:09:27Z</time>
      </trkpt>
      <trkpt lat="42.4367810" lon="-2.2576050">
        <ele>341.2</ele>
        <time>2022-08-12T09:09:29Z</time>
      </trkpt>
      <trkpt lat="42.4368750" lon="-2.2581860">
        <ele>341.0</ele>
        <time>2022-08-12T09:09:37Z</time>
      </trkpt>
      <trkpt lat="42.4369560" lon="-2.2588450">
        <ele>341.0</ele>
        <time>2022-08-12T09:09:46Z</time>
      </trkpt>
      <trkpt lat="42.4369800" lon="-2.2594420">
        <ele>341.2</ele>
        <time>2022-08-12T09:09:54Z</time>
      </trkpt>
      <trkpt lat="42.4369610" lon="-2.2597110">
        <ele>341.2</ele>
        <time>2022-08-12T09:09:58Z</time>
      </trkpt>
      <trkpt lat="42.4369610" lon="-2.2597990">
        <ele>341.2</ele>
        <time>2022-08-12T09:09:59Z</time>
      </trkpt>
      <trkpt lat="42.4369800" lon="-2.2600200">
        <ele>341.2</ele>
        <time>2022-08-12T09:10:02Z</time>
      </trkpt>
      <trkpt lat="42.4370130" lon="-2.2603050">
        <ele>341.2</ele>
        <time>2022-08-12T09:10:06Z</time>
      </trkpt>
      <trkpt lat="42.4370610" lon="-2.2607750">
        <ele>341.2</ele>
        <time>2022-08-12T09:10:12Z</time>
      </trkpt>
      <trkpt lat="42.4370810" lon="-2.2610730">
        <ele>341.2</ele>
        <time>2022-08-12T09:10:16Z</time>
      </trkpt>
      <trkpt lat="42.4370870" lon="-2.2613560">
        <ele>341.4</ele>
        <time>2022-08-12T09:10:20Z</time>
      </trkpt>
      <trkpt lat="42.4371190" lon="-2.2619550">
        <ele>341.6</ele>
        <time>2022-08-12T09:10:28Z</time>
      </trkpt>
      <trkpt lat="42.4371360" lon="-2.2621830">
        <ele>341.6</ele>
        <time>2022-08-12T09:10:31Z</time>
      </trkpt>
      <trkpt lat="42.4372110" lon="-2.2627370">
        <ele>341.6</ele>
        <time>2022-08-12T09:10:38Z</time>
      </trkpt>
      <trkpt lat="42.4372340" lon="-2.2628720">
        <ele>341.6</ele>
        <time>2022-08-12T09:10:40Z</time>
      </trkpt>
      <trkpt lat="42.4373410" lon="-2.2633090">
        <ele>341.6</ele>
        <time>2022-08-12T09:10:46Z</time>
      </trkpt>
      <trkpt lat="42.4374400" lon="-2.2638380">
        <ele>341.6</ele>
        <time>2022-08-12T09:10:53Z</time>
      </trkpt>
      <trkpt lat="42.4374700" lon="-2.2642860">
        <ele>341.4</ele>
        <time>2022-08-12T09:10:59Z</time>
      </trkpt>
      <trkpt lat="42.4374750" lon="-2.2644300">
        <ele>341.4</ele>
        <time>2022-08-12T09:11:01Z</time>
      </trkpt>
      <trkpt lat="42.4374780" lon="-2.2646670">
        <ele>341.6</ele>
        <time>2022-08-12T09:11:04Z</time>
      </trkpt>
      <trkpt lat="42.4374870" lon="-2.2648920">
        <ele>342.2</ele>
        <time>2022-08-12T09:11:07Z</time>
      </trkpt>
      <trkpt lat="42.4374910" lon="-2.2649660">
        <ele>342.4</ele>
        <time>2022-08-12T09:11:08Z</time>
      </trkpt>
      <trkpt lat="42.4374960" lon="-2.2652500">
        <ele>342.4</ele>
        <time>2022-08-12T09:11:12Z</time>
      </trkpt>
      <trkpt lat="42.4375160" lon="-2.2653740">
        <ele>342.2</ele>
        <time>2022-08-12T09:11:14Z</time>
      </trkpt>
      <trkpt lat="42.4375960" lon="-2.2656550">
        <ele>342.0</ele>
        <time>2022-08-12T09:11:18Z</time>
      </trkpt>
      <trkpt lat="42.4376830" lon="-2.2659290">
        <ele>342.0</ele>
        <time>2022-08-12T09:11:22Z</time>
      </trkpt>
      <trkpt lat="42.4377690" lon="-2.2662040">
        <ele>342.0</ele>
        <time>2022-08-12T09:11:26Z</time>
      </trkpt>
      <trkpt lat="42.4378220" lon="-2.2664810">
        <ele>342.2</ele>
        <time>2022-08-12T09:11:30Z</time>
      </trkpt>
      <trkpt lat="42.4379370" lon="-2.2669680">
        <ele>342.0</ele>
        <time>2022-08-12T09:11:37Z</time>
      </trkpt>
      <trkpt lat="42.4380930" lon="-2.2676040">
        <ele>342.4</ele>
        <time>2022-08-12T09:11:46Z</time>
      </trkpt>
      <trkpt lat="42.4381820" lon="-2.2680420">
        <ele>342.2</ele>
        <time>2022-08-12T09:11:52Z</time>
      </trkpt>
      <trkpt lat="42.4382390" lon="-2.2682260">
        <ele>342.4</ele>
        <time>2022-08-12T09:11:55Z</time>
      </trkpt>
      <trkpt lat="42.4382790" lon="-2.2684330">
        <ele>342.4</ele>
        <time>2022-08-12T09:11:58Z</time>
      </trkpt>
      <trkpt lat="42.4383080" lon="-2.2686290">
        <ele>342.6</ele>
        <time>2022-08-12T09:12:01Z</time>
      </trkpt>
      <trkpt lat="42.4383400" lon="-2.2687440">
        <ele>342.8</ele>
        <time>2022-08-12T09:12:03Z</time>
      </trkpt>
      <trkpt lat="42.4383610" lon="-2.2688000">
        <ele>342.8</ele>
        <time>2022-08-12T09:12:04Z</time>
      </trkpt>
      <trkpt lat="42.4383840" lon="-2.2688560">
        <ele>342.8</ele>
        <time>2022-08-12T09:12:05Z</time>
      </trkpt>
      <trkpt lat="42.4384270" lon="-2.2689810">
        <ele>343.0</ele>
        <time>2022-08-12T09:12:07Z</time>
      </trkpt>
      <trkpt lat="42.4384610" lon="-2.2691070">
        <ele>343.0</ele>
        <time>2022-08-12T09:12:09Z</time>
      </trkpt>
      <trkpt lat="42.4385390" lon="-2.2695050">
        <ele>343.0</ele>
        <time>2022-08-12T09:12:15Z</time>
      </trkpt>
      <trkpt lat="42.4387180" lon="-2.2702420">
        <ele>343.2</ele>
        <time>2022-08-12T09:12:26Z</time>
      </trkpt>
      <trkpt lat="42.4387590" lon="-2.2705280">
        <ele>343.2</ele>
        <time>2022-08-12T09:12:30Z</time>
      </trkpt>
      <trkpt lat="42.4387730" lon="-2.2708240">
        <ele>343.2</ele>
        <time>2022-08-12T09:12:34Z</time>
      </trkpt>
      <trkpt lat="42.4387990" lon="-2.2713430">
        <ele>343.2</ele>
        <time>2022-08-12T09:12:41Z</time>
      </trkpt>
      <trkpt lat="42.4388210" lon="-2.2714870">
        <ele>343.2</ele>
        <time>2022-08-12T09:12:43Z</time>
      </trkpt>
      <trkpt lat="42.4389500" lon="-2.2719830">
        <ele>343.2</ele>
        <time>2022-08-12T09:12:50Z</time>
      </trkpt>
      <trkpt lat="42.4390930" lon="-2.2724920">
        <ele>343.2</ele>
        <time>2022-08-12T09:12:57Z</time>
      </trkpt>
      <trkpt lat="42.4391110" lon="-2.2726260">
        <ele>343.2</ele>
        <time>2022-08-12T09:12:59Z</time>
      </trkpt>
      <trkpt lat="42.4392170" lon="-2.2733860">
        <ele>343.4</ele>
        <time>2022-08-12T09:13:09Z</time>
      </trkpt>
      <trkpt lat="42.4392460" lon="-2.2735360">
        <ele>343.2</ele>
        <time>2022-08-12T09:13:11Z</time>
      </trkpt>
      <trkpt lat="42.4393270" lon="-2.2738270">
        <ele>343.6</ele>
        <time>2022-08-12T09:13:15Z</time>
      </trkpt>
      <trkpt lat="42.4393900" lon="-2.2739540">
        <ele>343.6</ele>
        <time>2022-08-12T09:13:17Z</time>
      </trkpt>
      <trkpt lat="42.4396270" lon="-2.2743880">
        <ele>343.6</ele>
        <time>2022-08-12T09:13:24Z</time>
      </trkpt>
      <trkpt lat="42.4398030" lon="-2.2748620">
        <ele>343.6</ele>
        <time>2022-08-12T09:13:31Z</time>
      </trkpt>
      <trkpt lat="42.4399180" lon="-2.2751110">
        <ele>343.8</ele>
        <time>2022-08-12T09:13:35Z</time>
      </trkpt>
      <trkpt lat="42.4399450" lon="-2.2752460">
        <ele>343.8</ele>
        <time>2022-08-12T09:13:37Z</time>
      </trkpt>
      <trkpt lat="42.4400000" lon="-2.2756160">
        <ele>343.8</ele>
        <time>2022-08-12T09:13:42Z</time>
      </trkpt>
      <trkpt lat="42.4400160" lon="-2.2758480">
        <ele>343.8</ele>
        <time>2022-08-12T09:13:45Z</time>
      </trkpt>
      <trkpt lat="42.4400310" lon="-2.2759160">
        <ele>343.8</ele>
        <time>2022-08-12T09:13:46Z</time>
      </trkpt>
      <trkpt lat="42.4400900" lon="-2.2760310">
        <ele>343.8</ele>
        <time>2022-08-12T09:13:48Z</time>
      </trkpt>
      <trkpt lat="42.4401980" lon="-2.2762060">
        <ele>343.6</ele>
        <time>2022-08-12T09:13:51Z</time>
      </trkpt>
      <trkpt lat="42.4402780" lon="-2.2764050">
        <ele>343.6</ele>
        <time>2022-08-12T09:13:54Z</time>
      </trkpt>
      <trkpt lat="42.4404540" lon="-2.2767910">
        <ele>343.6</ele>
        <time>2022-08-12T09:14:00Z</time>
      </trkpt>
      <trkpt lat="42.4405470" lon="-2.2769870">
        <ele>343.8</ele>
        <time>2022-08-12T09:14:03Z</time>
      </trkpt>
      <trkpt lat="42.4405880" lon="-2.2771270">
        <ele>343.6</ele>
        <time>2022-08-12T09:14:05Z</time>
      </trkpt>
      <trkpt lat="42.4406010" lon="-2.2772040">
        <ele>343.6</ele>
        <time>2022-08-12T09:14:06Z</time>
      </trkpt>
      <trkpt lat="42.4406600" lon="-2.2774960">
        <ele>343.8</ele>
        <time>2022-08-12T09:14:10Z</time>
      </trkpt>
      <trkpt lat="42.4407130" lon="-2.2776300">
        <ele>343.8</ele>
        <time>2022-08-12T09:14:12Z</time>
      </trkpt>
      <trkpt lat="42.4408880" lon="-2.2781110">
        <ele>343.8</ele>
        <time>2022-08-12T09:14:19Z</time>
      </trkpt>
      <trkpt lat="42.4409050" lon="-2.2781830">
        <ele>343.8</ele>
        <time>2022-08-12T09:14:20Z</time>
      </trkpt>
      <trkpt lat="42.4409160" lon="-2.2782580">
        <ele>343.8</ele>
        <time>2022-08-12T09:14:21Z</time>
      </trkpt>
      <trkpt lat="42.4409320" lon="-2.2785610">
        <ele>343.8</ele>
        <time>2022-08-12T09:14:25Z</time>
      </trkpt>
      <trkpt lat="42.4409710" lon="-2.2789310">
        <ele>343.8</ele>
        <time>2022-08-12T09:14:30Z</time>
      </trkpt>
      <trkpt lat="42.4410200" lon="-2.2790680">
        <ele>343.8</ele>
        <time>2022-08-12T09:14:32Z</time>
      </trkpt>
      <trkpt lat="42.4411230" lon="-2.2793440">
        <ele>343.4</ele>
        <time>2022-08-12T09:14:36Z</time>
      </trkpt>
      <trkpt lat="42.4412340" lon="-2.2796190">
        <ele>343.2</ele>
        <time>2022-08-12T09:14:40Z</time>
      </trkpt>
      <trkpt lat="42.4412620" lon="-2.2796870">
        <ele>343.2</ele>
        <time>2022-08-12T09:14:41Z</time>
      </trkpt>
      <trkpt lat="42.4413780" lon="-2.2800270">
        <ele>343.2</ele>
        <time>2022-08-12T09:14:46Z</time>
      </trkpt>
      <trkpt lat="42.4413960" lon="-2.2801790">
        <ele>343.2</ele>
        <time>2022-08-12T09:14:48Z</time>
      </trkpt>
      <trkpt lat="42.4414710" lon="-2.2808370">
        <ele>343.4</ele>
        <time>2022-08-12T09:14:57Z</time>
      </trkpt>
      <trkpt lat="42.4415210" lon="-2.2812890">
        <ele>343.4</ele>
        <time>2022-08-12T09:15:03Z</time>
      </trkpt>
      <trkpt lat="42.4415330" lon="-2.2813620">
        <ele>343.4</ele>
        <time>2022-08-12T09:15:04Z</time>
      </trkpt>
      <trkpt lat="42.4415760" lon="-2.2815040">
        <ele>343.4</ele>
        <time>2022-08-12T09:15:06Z</time>
      </trkpt>
      <trkpt lat="42.4416080" lon="-2.2815710">
        <ele>343.4</ele>
        <time>2022-08-12T09:15:07Z</time>
      </trkpt>
      <trkpt lat="42.4418520" lon="-2.2820030">
        <ele>343.6</ele>
        <time>2022-08-12T09:15:14Z</time>
      </trkpt>
      <trkpt lat="42.4418920" lon="-2.2820650">
        <ele>343.6</ele>
        <time>2022-08-12T09:15:15Z</time>
      </trkpt>
      <trkpt lat="42.4420400" lon="-2.2823010">
        <ele>343.8</ele>
        <time>2022-08-12T09:15:19Z</time>
      </trkpt>
      <trkpt lat="42.4422180" lon="-2.2826040">
        <ele>344.0</ele>
        <time>2022-08-12T09:15:24Z</time>
      </trkpt>
      <trkpt lat="42.4422630" lon="-2.2826520">
        <ele>343.8</ele>
        <time>2022-08-12T09:15:25Z</time>
      </trkpt>
      <trkpt lat="42.4423140" lon="-2.2826860">
        <ele>343.8</ele>
        <time>2022-08-12T09:15:26Z</time>
      </trkpt>
      <trkpt lat="42.4424210" lon="-2.2827320">
        <ele>343.8</ele>
        <time>2022-08-12T09:15:28Z</time>
      </trkpt>
      <trkpt lat="42.4424710" lon="-2.2827650">
        <ele>343.8</ele>
        <time>2022-08-12T09:15:29Z</time>
      </trkpt>
      <trkpt lat="42.4425190" lon="-2.2828100">
        <ele>343.8</ele>
        <time>2022-08-12T09:15:30Z</time>
      </trkpt>
      <trkpt lat="42.4426910" lon="-2.2830230">
        <ele>343.8</ele>
        <time>2022-08-12T09:15:34Z</time>
      </trkpt>
      <trkpt lat="42.4430090" lon="-2.2834620">
        <ele>343.8</ele>
        <time>2022-08-12T09:15:42Z</time>
      </trkpt>
      <trkpt lat="42.4430390" lon="-2.2835280">
        <ele>343.8</ele>
        <time>2022-08-12T09:15:43Z</time>
      </trkpt>
      <trkpt lat="42.4431000" lon="-2.2837410">
        <ele>343.8</ele>
        <time>2022-08-12T09:15:46Z</time>
      </trkpt>
      <trkpt lat="42.4431190" lon="-2.2838920">
        <ele>343.8</ele>
        <time>2022-08-12T09:15:48Z</time>
      </trkpt>
      <trkpt lat="42.4431210" lon="-2.2839670">
        <ele>343.8</ele>
        <time>2022-08-12T09:15:49Z</time>
      </trkpt>
      <trkpt lat="42.4431120" lon="-2.2843310">
        <ele>343.8</ele>
        <time>2022-08-12T09:15:54Z</time>
      </trkpt>
      <trkpt lat="42.4431220" lon="-2.2848230">
        <ele>344.0</ele>
        <time>2022-08-12T09:16:01Z</time>
      </trkpt>
      <trkpt lat="42.4431990" lon="-2.2852890">
        <ele>344.4</ele>
        <time>2022-08-12T09:16:08Z</time>
      </trkpt>
      <trkpt lat="42.4432200" lon="-2.2853520">
        <ele>344.2</ele>
        <time>2022-08-12T09:16:09Z</time>
      </trkpt>
      <trkpt lat="42.4432470" lon="-2.2854120">
        <ele>344.4</ele>
        <time>2022-08-12T09:16:10Z</time>
      </trkpt>
      <trkpt lat="42.4433120" lon="-2.2855180">
        <ele>344.4</ele>
        <time>2022-08-12T09:16:12Z</time>
      </trkpt>
      <trkpt lat="42.4433980" lon="-2.2856120">
        <ele>344.6</ele>
        <time>2022-08-12T09:16:14Z</time>
      </trkpt>
      <trkpt lat="42.4435320" lon="-2.2857340">
        <ele>344.6</ele>
        <time>2022-08-12T09:16:17Z</time>
      </trkpt>
      <trkpt lat="42.4436040" lon="-2.2858420">
        <ele>344.6</ele>
        <time>2022-08-12T09:16:19Z</time>
      </trkpt>
      <trkpt lat="42.4436540" lon="-2.2859630">
        <ele>344.6</ele>
        <time>2022-08-12T09:16:21Z</time>
      </trkpt>
      <trkpt lat="42.4437050" lon="-2.2861530">
        <ele>344.6</ele>
        <time>2022-08-12T09:16:24Z</time>
      </trkpt>
      <trkpt lat="42.4438230" lon="-2.2866660">
        <ele>344.8</ele>
        <time>2022-08-12T09:16:32Z</time>
      </trkpt>
      <trkpt lat="42.4439920" lon="-2.2871230">
        <ele>345.2</ele>
        <time>2022-08-12T09:16:39Z</time>
      </trkpt>
      <trkpt lat="42.4442280" lon="-2.2874210">
        <ele>345.2</ele>
        <time>2022-08-12T09:16:45Z</time>
      </trkpt>
      <trkpt lat="42.4444380" lon="-2.2877430">
        <ele>345.0</ele>
        <time>2022-08-12T09:16:51Z</time>
      </trkpt>
      <trkpt lat="42.4444620" lon="-2.2878020">
        <ele>345.0</ele>
        <time>2022-08-12T09:16:52Z</time>
      </trkpt>
      <trkpt lat="42.4444800" lon="-2.2878610">
        <ele>345.0</ele>
        <time>2022-08-12T09:16:53Z</time>
      </trkpt>
      <trkpt lat="42.4444950" lon="-2.2880250">
        <ele>345.0</ele>
        <time>2022-08-12T09:16:56Z</time>
      </trkpt>
      <trkpt lat="42.4444730" lon="-2.2882120">
        <ele>345.0</ele>
        <time>2022-08-12T09:17:01Z</time>
      </trkpt>
      <trkpt lat="42.4444720" lon="-2.2882240">
        <ele>344.8</ele>
        <time>2022-08-12T09:17:02Z</time>
      </trkpt>
      <trkpt lat="42.4444720" lon="-2.2882280">
        <ele>345.2</ele>
        <time>2022-08-12T09:21:05Z</time>
      </trkpt>
      <trkpt lat="42.4444720" lon="-2.2882550">
        <ele>345.2</ele>
        <time>2022-08-12T09:21:06Z</time>
      </trkpt>
      <trkpt lat="42.4444720" lon="-2.2882910">
        <ele>345.2</ele>
        <time>2022-08-12T09:21:07Z</time>
      </trkpt>
      <trkpt lat="42.4444760" lon="-2.2883350">
        <ele>345.0</ele>
        <time>2022-08-12T09:21:08Z</time>
      </trkpt>
      <trkpt lat="42.4444780" lon="-2.2884380">
        <ele>345.0</ele>
        <time>2022-08-12T09:21:10Z</time>
      </trkpt>
      <trkpt lat="42.4444730" lon="-2.2885560">
        <ele>344.8</ele>
        <time>2022-08-12T09:21:12Z</time>
      </trkpt>
      <trkpt lat="42.4444670" lon="-2.2886740">
        <ele>344.8</ele>
        <time>2022-08-12T09:21:14Z</time>
      </trkpt>
      <trkpt lat="42.4444600" lon="-2.2887310">
        <ele>344.8</ele>
        <time>2022-08-12T09:21:15Z</time>
      </trkpt>
      <trkpt lat="42.4444480" lon="-2.2888560">
        <ele>344.8</ele>
        <time>2022-08-12T09:21:17Z</time>
      </trkpt>
      <trkpt lat="42.4444480" lon="-2.2889210">
        <ele>344.8</ele>
        <time>2022-08-12T09:21:18Z</time>
      </trkpt>
      <trkpt lat="42.4444490" lon="-2.2890410">
        <ele>345.0</ele>
        <time>2022-08-12T09:21:20Z</time>
      </trkpt>
      <trkpt lat="42.4444660" lon="-2.2892190">
        <ele>345.4</ele>
        <time>2022-08-12T09:21:23Z</time>
      </trkpt>
      <trkpt lat="42.4444810" lon="-2.2892810">
        <ele>345.4</ele>
        <time>2022-08-12T09:21:24Z</time>
      </trkpt>
      <trkpt lat="42.4445020" lon="-2.2893380">
        <ele>345.4</ele>
        <time>2022-08-12T09:21:25Z</time>
      </trkpt>
      <trkpt lat="42.4445680" lon="-2.2895000">
        <ele>345.6</ele>
        <time>2022-08-12T09:21:28Z</time>
      </trkpt>
      <trkpt lat="42.4445910" lon="-2.2895540">
        <ele>345.6</ele>
        <time>2022-08-12T09:21:29Z</time>
      </trkpt>
      <trkpt lat="42.4446640" lon="-2.2897350">
        <ele>345.8</ele>
        <time>2022-08-12T09:21:33Z</time>
      </trkpt>
      <trkpt lat="42.4446890" lon="-2.2900080">
        <ele>345.8</ele>
        <time>2022-08-12T09:21:37Z</time>
      </trkpt>
      <trkpt lat="42.4446950" lon="-2.2900770">
        <ele>345.8</ele>
        <time>2022-08-12T09:21:38Z</time>
      </trkpt>
      <trkpt lat="42.4446790" lon="-2.2902820">
        <ele>346.0</ele>
        <time>2022-08-12T09:21:41Z</time>
      </trkpt>
      <trkpt lat="42.4446620" lon="-2.2904660">
        <ele>346.2</ele>
        <time>2022-08-12T09:21:44Z</time>
      </trkpt>
      <trkpt lat="42.4446810" lon="-2.2905830">
        <ele>346.2</ele>
        <time>2022-08-12T09:21:46Z</time>
      </trkpt>
      <trkpt lat="42.4446960" lon="-2.2906390">
        <ele>346.2</ele>
        <time>2022-08-12T09:21:47Z</time>
      </trkpt>
      <trkpt lat="42.4447290" lon="-2.2907560">
        <ele>346.4</ele>
        <time>2022-08-12T09:21:49Z</time>
      </trkpt>
      <trkpt lat="42.4447920" lon="-2.2908640">
        <ele>346.4</ele>
        <time>2022-08-12T09:21:51Z</time>
      </trkpt>
      <trkpt lat="42.4448590" lon="-2.2909690">
        <ele>346.2</ele>
        <time>2022-08-12T09:21:53Z</time>
      </trkpt>
      <trkpt lat="42.4449290" lon="-2.2910610">
        <ele>346.4</ele>
        <time>2022-08-12T09:21:55Z</time>
      </trkpt>
      <trkpt lat="42.4449630" lon="-2.2911040">
        <ele>346.4</ele>
        <time>2022-08-12T09:21:56Z</time>
      </trkpt>
      <trkpt lat="42.4450040" lon="-2.2911380">
        <ele>346.4</ele>
        <time>2022-08-12T09:21:57Z</time>
      </trkpt>
      <trkpt lat="42.4451110" lon="-2.2912480">
        <ele>346.2</ele>
        <time>2022-08-12T09:22:00Z</time>
      </trkpt>
      <trkpt lat="42.4452140" lon="-2.2913270">
        <ele>346.0</ele>
        <time>2022-08-12T09:22:03Z</time>
      </trkpt>
      <trkpt lat="42.4452610" lon="-2.2913400">
        <ele>346.0</ele>
        <time>2022-08-12T09:22:04Z</time>
      </trkpt>
      <trkpt lat="42.4453590" lon="-2.2913570">
        <ele>346.0</ele>
        <time>2022-08-12T09:22:06Z</time>
      </trkpt>
      <trkpt lat="42.4454410" lon="-2.2913680">
        <ele>346.0</ele>
        <time>2022-08-12T09:22:08Z</time>
      </trkpt>
      <trkpt lat="42.4454880" lon="-2.2913850">
        <ele>345.8</ele>
        <time>2022-08-12T09:22:09Z</time>
      </trkpt>
      <trkpt lat="42.4456150" lon="-2.2914840">
        <ele>345.6</ele>
        <time>2022-08-12T09:22:12Z</time>
      </trkpt>
      <trkpt lat="42.4456540" lon="-2.2915210">
        <ele>345.6</ele>
        <time>2022-08-12T09:22:13Z</time>
      </trkpt>
      <trkpt lat="42.4457420" lon="-2.2916160">
        <ele>345.6</ele>
        <time>2022-08-12T09:22:15Z</time>
      </trkpt>
      <trkpt lat="42.4458140" lon="-2.2916640">
        <ele>345.6</ele>
        <time>2022-08-12T09:22:16Z</time>
      </trkpt>
      <trkpt lat="42.4459040" lon="-2.2917540">
        <ele>345.6</ele>
        <time>2022-08-12T09:22:18Z</time>
      </trkpt>
      <trkpt lat="42.4460030" lon="-2.2918950">
        <ele>345.6</ele>
        <time>2022-08-12T09:22:21Z</time>
      </trkpt>
      <trkpt lat="42.4460800" lon="-2.2920410">
        <ele>346.0</ele>
        <time>2022-08-12T09:22:24Z</time>
      </trkpt>
      <trkpt lat="42.4461340" lon="-2.2921380">
        <ele>346.2</ele>
        <time>2022-08-12T09:22:26Z</time>
      </trkpt>
      <trkpt lat="42.4461860" lon="-2.2922450">
        <ele>346.4</ele>
        <time>2022-08-12T09:22:28Z</time>
      </trkpt>
      <trkpt lat="42.4462080" lon="-2.2923070">
        <ele>346.6</ele>
        <time>2022-08-12T09:22:29Z</time>
      </trkpt>
      <trkpt lat="42.4462420" lon="-2.2924330">
        <ele>346.8</ele>
        <time>2022-08-12T09:22:31Z</time>
      </trkpt>
      <trkpt lat="42.4462920" lon="-2.2925510">
        <ele>346.8</ele>
        <time>2022-08-12T09:22:33Z</time>
      </trkpt>
      <trkpt lat="42.4463500" lon="-2.2927400">
        <ele>347.0</ele>
        <time>2022-08-12T09:22:36Z</time>
      </trkpt>
      <trkpt lat="42.4463980" lon="-2.2928710">
        <ele>347.0</ele>
        <time>2022-08-12T09:22:38Z</time>
      </trkpt>
      <trkpt lat="42.4464450" lon="-2.2931450">
        <ele>347.0</ele>
        <time>2022-08-12T09:22:42Z</time>
      </trkpt>
      <trkpt lat="42.4464760" lon="-2.2933340">
        <ele>347.0</ele>
        <time>2022-08-12T09:22:45Z</time>
      </trkpt>
      <trkpt lat="42.4465010" lon="-2.2934570">
        <ele>347.2</ele>
        <time>2022-08-12T09:22:47Z</time>
      </trkpt>
      <trkpt lat="42.4465110" lon="-2.2935200">
        <ele>347.2</ele>
        <time>2022-08-12T09:22:48Z</time>
      </trkpt>
      <trkpt lat="42.4465430" lon="-2.2936430">
        <ele>347.2</ele>
        <time>2022-08-12T09:22:50Z</time>
      </trkpt>
      <trkpt lat="42.4465920" lon="-2.2938260">
        <ele>347.2</ele>
        <time>2022-08-12T09:22:53Z</time>
      </trkpt>
      <trkpt lat="42.4466250" lon="-2.2939620">
        <ele>347.2</ele>
        <time>2022-08-12T09:22:55Z</time>
      </trkpt>
      <trkpt lat="42.4467100" lon="-2.2943510">
        <ele>347.4</ele>
        <time>2022-08-12T09:23:01Z</time>
      </trkpt>
      <trkpt lat="42.4467530" lon="-2.2945440">
        <ele>347.4</ele>
        <time>2022-08-12T09:23:04Z</time>
      </trkpt>
      <trkpt lat="42.4468510" lon="-2.2948000">
        <ele>347.6</ele>
        <time>2022-08-12T09:23:08Z</time>
      </trkpt>
      <trkpt lat="42.4469440" lon="-2.2949820">
        <ele>347.6</ele>
        <time>2022-08-12T09:23:11Z</time>
      </trkpt>
      <trkpt lat="42.4470630" lon="-2.2952170">
        <ele>347.8</ele>
        <time>2022-08-12T09:23:15Z</time>
      </trkpt>
      <trkpt lat="42.4472810" lon="-2.2955960">
        <ele>348.4</ele>
        <time>2022-08-12T09:23:23Z</time>
      </trkpt>
      <trkpt lat="42.4473460" lon="-2.2957370">
        <ele>348.6</ele>
        <time>2022-08-12T09:23:26Z</time>
      </trkpt>
      <trkpt lat="42.4473590" lon="-2.2957880">
        <ele>348.8</ele>
        <time>2022-08-12T09:23:27Z</time>
      </trkpt>
      <trkpt lat="42.4473690" lon="-2.2958370">
        <ele>349.0</ele>
        <time>2022-08-12T09:23:28Z</time>
      </trkpt>
      <trkpt lat="42.4474320" lon="-2.2960160">
        <ele>349.4</ele>
        <time>2022-08-12T09:23:31Z</time>
      </trkpt>
      <trkpt lat="42.4474760" lon="-2.2961150">
        <ele>349.8</ele>
        <time>2022-08-12T09:23:33Z</time>
      </trkpt>
      <trkpt lat="42.4475540" lon="-2.2962670">
        <ele>350.0</ele>
        <time>2022-08-12T09:23:36Z</time>
      </trkpt>
      <trkpt lat="42.4475810" lon="-2.2963150">
        <ele>350.0</ele>
        <time>2022-08-12T09:23:37Z</time>
      </trkpt>
      <trkpt lat="42.4477120" lon="-2.2964910">
        <ele>350.4</ele>
        <time>2022-08-12T09:23:41Z</time>
      </trkpt>
      <trkpt lat="42.4477420" lon="-2.2965270">
        <ele>350.4</ele>
        <time>2022-08-12T09:23:42Z</time>
      </trkpt>
      <trkpt lat="42.4478810" lon="-2.2967150">
        <ele>350.6</ele>
        <time>2022-08-12T09:23:47Z</time>
      </trkpt>
      <trkpt lat="42.4480120" lon="-2.2968700">
        <ele>350.6</ele>
        <time>2022-08-12T09:23:51Z</time>
      </trkpt>
      <trkpt lat="42.4480900" lon="-2.2969630">
        <ele>350.6</ele>
        <time>2022-08-12T09:23:53Z</time>
      </trkpt>
      <trkpt lat="42.4481320" lon="-2.2970070">
        <ele>350.6</ele>
        <time>2022-08-12T09:23:54Z</time>
      </trkpt>
      <trkpt lat="42.4483770" lon="-2.2973050">
        <ele>350.2</ele>
        <time>2022-08-12T09:24:00Z</time>
      </trkpt>
      <trkpt lat="42.4486650" lon="-2.2977490">
        <ele>350.0</ele>
        <time>2022-08-12T09:24:08Z</time>
      </trkpt>
      <trkpt lat="42.4487900" lon="-2.2979720">
        <ele>350.2</ele>
        <time>2022-08-12T09:24:12Z</time>
      </trkpt>
      <trkpt lat="42.4488440" lon="-2.2980660">
        <ele>350.4</ele>
        <time>2022-08-12T09:24:14Z</time>
      </trkpt>
      <trkpt lat="42.4488930" lon="-2.2981630">
        <ele>350.4</ele>
        <time>2022-08-12T09:24:16Z</time>
      </trkpt>
      <trkpt lat="42.4490150" lon="-2.2983610">
        <ele>350.4</ele>
        <time>2022-08-12T09:24:20Z</time>
      </trkpt>
      <trkpt lat="42.4490440" lon="-2.2984060">
        <ele>350.6</ele>
        <time>2022-08-12T09:24:21Z</time>
      </trkpt>
      <trkpt lat="42.4491050" lon="-2.2984900">
        <ele>350.8</ele>
        <time>2022-08-12T09:24:23Z</time>
      </trkpt>
      <trkpt lat="42.4491370" lon="-2.2985260">
        <ele>350.8</ele>
        <time>2022-08-12T09:24:24Z</time>
      </trkpt>
      <trkpt lat="42.4492060" lon="-2.2985930">
        <ele>351.2</ele>
        <time>2022-08-12T09:24:26Z</time>
      </trkpt>
      <trkpt lat="42.4492820" lon="-2.2986620">
        <ele>351.6</ele>
        <time>2022-08-12T09:24:28Z</time>
      </trkpt>
      <trkpt lat="42.4493590" lon="-2.2987300">
        <ele>351.8</ele>
        <time>2022-08-12T09:24:30Z</time>
      </trkpt>
      <trkpt lat="42.4495380" lon="-2.2988630">
        <ele>352.2</ele>
        <time>2022-08-12T09:24:34Z</time>
      </trkpt>
      <trkpt lat="42.4499480" lon="-2.2992340">
        <ele>352.4</ele>
        <time>2022-08-12T09:24:44Z</time>
      </trkpt>
      <trkpt lat="42.4500790" lon="-2.2994320">
        <ele>352.6</ele>
        <time>2022-08-12T09:24:48Z</time>
      </trkpt>
      <trkpt lat="42.4501980" lon="-2.2996380">
        <ele>353.0</ele>
        <time>2022-08-12T09:24:52Z</time>
      </trkpt>
      <trkpt lat="42.4503860" lon="-2.3000160">
        <ele>353.8</ele>
        <time>2022-08-12T09:24:59Z</time>
      </trkpt>
      <trkpt lat="42.4504560" lon="-2.3001820">
        <ele>353.8</ele>
        <time>2022-08-12T09:25:02Z</time>
      </trkpt>
      <trkpt lat="42.4506170" lon="-2.3006260">
        <ele>354.8</ele>
        <time>2022-08-12T09:25:10Z</time>
      </trkpt>
      <trkpt lat="42.4506400" lon="-2.3006820">
        <ele>354.8</ele>
        <time>2022-08-12T09:25:11Z</time>
      </trkpt>
      <trkpt lat="42.4507850" lon="-2.3010560">
        <ele>355.4</ele>
        <time>2022-08-12T09:25:18Z</time>
      </trkpt>
      <trkpt lat="42.4508380" lon="-2.3012150">
        <ele>355.8</ele>
        <time>2022-08-12T09:25:21Z</time>
      </trkpt>
      <trkpt lat="42.4508680" lon="-2.3012970">
        <ele>356.2</ele>
        <time>2022-08-12T09:25:23Z</time>
      </trkpt>
      <trkpt lat="42.4509130" lon="-2.3014470">
        <ele>356.8</ele>
        <time>2022-08-12T09:25:26Z</time>
      </trkpt>
      <trkpt lat="42.4509230" lon="-2.3014830">
        <ele>357.0</ele>
        <time>2022-08-12T09:25:27Z</time>
      </trkpt>
      <trkpt lat="42.4509580" lon="-2.3016300">
        <ele>357.6</ele>
        <time>2022-08-12T09:25:30Z</time>
      </trkpt>
      <trkpt lat="42.4509840" lon="-2.3018210">
        <ele>358.2</ele>
        <time>2022-08-12T09:25:34Z</time>
      </trkpt>
      <trkpt lat="42.4509830" lon="-2.3019220">
        <ele>358.8</ele>
        <time>2022-08-12T09:25:36Z</time>
      </trkpt>
      <trkpt lat="42.4509620" lon="-2.3020280">
        <ele>359.0</ele>
        <time>2022-08-12T09:25:38Z</time>
      </trkpt>
      <trkpt lat="42.4509510" lon="-2.3020650">
        <ele>359.2</ele>
        <time>2022-08-12T09:25:39Z</time>
      </trkpt>
      <trkpt lat="42.4508390" lon="-2.3023280">
        <ele>359.6</ele>
        <time>2022-08-12T09:25:45Z</time>
      </trkpt>
      <trkpt lat="42.4507970" lon="-2.3024330">
        <ele>359.8</ele>
        <time>2022-08-12T09:25:47Z</time>
      </trkpt>
      <trkpt lat="42.4506970" lon="-2.3026840">
        <ele>360.2</ele>
        <time>2022-08-12T09:25:52Z</time>
      </trkpt>
      <trkpt lat="42.4505620" lon="-2.3030340">
        <ele>360.6</ele>
        <time>2022-08-12T09:25:59Z</time>
      </trkpt>
      <trkpt lat="42.4505480" lon="-2.3030770">
        <ele>360.8</ele>
        <time>2022-08-12T09:26:00Z</time>
      </trkpt>
      <trkpt lat="42.4503790" lon="-2.3035400">
        <ele>361.0</ele>
        <time>2022-08-12T09:26:08Z</time>
      </trkpt>
      <trkpt lat="42.4502450" lon="-2.3038830">
        <ele>361.2</ele>
        <time>2022-08-12T09:26:14Z</time>
      </trkpt>
      <trkpt lat="42.4501730" lon="-2.3040600">
        <ele>361.2</ele>
        <time>2022-08-12T09:26:17Z</time>
      </trkpt>
      <trkpt lat="42.4498840" lon="-2.3046380">
        <ele>361.6</ele>
        <time>2022-08-12T09:26:27Z</time>
      </trkpt>
      <trkpt lat="42.4495970" lon="-2.3049540">
        <ele>361.6</ele>
        <time>2022-08-12T09:26:34Z</time>
      </trkpt>
      <trkpt lat="42.4493010" lon="-2.3050980">
        <ele>361.8</ele>
        <time>2022-08-12T09:26:40Z</time>
      </trkpt>
      <trkpt lat="42.4491960" lon="-2.3051470">
        <ele>361.8</ele>
        <time>2022-08-12T09:26:42Z</time>
      </trkpt>
      <trkpt lat="42.4490870" lon="-2.3051640">
        <ele>361.8</ele>
        <time>2022-08-12T09:26:44Z</time>
      </trkpt>
      <trkpt lat="42.4490320" lon="-2.3051680">
        <ele>361.8</ele>
        <time>2022-08-12T09:26:45Z</time>
      </trkpt>
      <trkpt lat="42.4489150" lon="-2.3051740">
        <ele>361.6</ele>
        <time>2022-08-12T09:26:47Z</time>
      </trkpt>
      <trkpt lat="42.4487890" lon="-2.3052110">
        <ele>361.4</ele>
        <time>2022-08-12T09:26:49Z</time>
      </trkpt>
      <trkpt lat="42.4487250" lon="-2.3052500">
        <ele>361.2</ele>
        <time>2022-08-12T09:26:50Z</time>
      </trkpt>
      <trkpt lat="42.4486640" lon="-2.3053010">
        <ele>361.0</ele>
        <time>2022-08-12T09:26:51Z</time>
      </trkpt>
      <trkpt lat="42.4484910" lon="-2.3054970">
        <ele>360.2</ele>
        <time>2022-08-12T09:26:54Z</time>
      </trkpt>
      <trkpt lat="42.4484350" lon="-2.3055710">
        <ele>360.0</ele>
        <time>2022-08-12T09:26:55Z</time>
      </trkpt>
      <trkpt lat="42.4481910" lon="-2.3058440">
        <ele>358.8</ele>
        <time>2022-08-12T09:26:59Z</time>
      </trkpt>
      <trkpt lat="42.4480670" lon="-2.3059880">
        <ele>358.0</ele>
        <time>2022-08-12T09:27:01Z</time>
      </trkpt>
      <trkpt lat="42.4480090" lon="-2.3060680">
        <ele>357.4</ele>
        <time>2022-08-12T09:27:02Z</time>
      </trkpt>
      <trkpt lat="42.4478760" lon="-2.3063020">
        <ele>356.2</ele>
        <time>2022-08-12T09:27:05Z</time>
      </trkpt>
      <trkpt lat="42.4478500" lon="-2.3063620">
        <ele>356.0</ele>
        <time>2022-08-12T09:27:06Z</time>
      </trkpt>
      <trkpt lat="42.4478280" lon="-2.3064120">
        <ele>355.8</ele>
        <time>2022-08-12T09:27:07Z</time>
      </trkpt>
      <trkpt lat="42.4477880" lon="-2.3065440">
        <ele>355.4</ele>
        <time>2022-08-12T09:27:10Z</time>
      </trkpt>
      <trkpt lat="42.4477850" lon="-2.3065930">
        <ele>355.2</ele>
        <time>2022-08-12T09:27:11Z</time>
      </trkpt>
      <trkpt lat="42.4477950" lon="-2.3067030">
        <ele>355.0</ele>
        <time>2022-08-12T09:27:13Z</time>
      </trkpt>
      <trkpt lat="42.4478090" lon="-2.3068260">
        <ele>354.8</ele>
        <time>2022-08-12T09:27:15Z</time>
      </trkpt>
      <trkpt lat="42.4478160" lon="-2.3068910">
        <ele>354.8</ele>
        <time>2022-08-12T09:27:16Z</time>
      </trkpt>
      <trkpt lat="42.4478520" lon="-2.3070820">
        <ele>354.6</ele>
        <time>2022-08-12T09:27:19Z</time>
      </trkpt>
      <trkpt lat="42.4478720" lon="-2.3071470">
        <ele>354.6</ele>
        <time>2022-08-12T09:27:20Z</time>
      </trkpt>
      <trkpt lat="42.4479250" lon="-2.3072760">
        <ele>354.4</ele>
        <time>2022-08-12T09:27:22Z</time>
      </trkpt>
      <trkpt lat="42.4479840" lon="-2.3074010">
        <ele>354.2</ele>
        <time>2022-08-12T09:27:24Z</time>
      </trkpt>
      <trkpt lat="42.4480730" lon="-2.3076080">
        <ele>354.0</ele>
        <time>2022-08-12T09:27:27Z</time>
      </trkpt>
      <trkpt lat="42.4481180" lon="-2.3077450">
        <ele>354.0</ele>
        <time>2022-08-12T09:27:29Z</time>
      </trkpt>
      <trkpt lat="42.4481860" lon="-2.3078610">
        <ele>354.0</ele>
        <time>2022-08-12T09:27:31Z</time>
      </trkpt>
      <trkpt lat="42.4482690" lon="-2.3079460">
        <ele>353.8</ele>
        <time>2022-08-12T09:27:33Z</time>
      </trkpt>
      <trkpt lat="42.4483880" lon="-2.3080650">
        <ele>353.2</ele>
        <time>2022-08-12T09:27:37Z</time>
      </trkpt>
      <trkpt lat="42.4484350" lon="-2.3081080">
        <ele>353.0</ele>
        <time>2022-08-12T09:27:39Z</time>
      </trkpt>
      <trkpt lat="42.4484750" lon="-2.3081500">
        <ele>352.8</ele>
        <time>2022-08-12T09:27:41Z</time>
      </trkpt>
      <trkpt lat="42.4484920" lon="-2.3081740">
        <ele>352.8</ele>
        <time>2022-08-12T09:27:42Z</time>
      </trkpt>
      <trkpt lat="42.4485250" lon="-2.3082220">
        <ele>353.0</ele>
        <time>2022-08-12T09:27:44Z</time>
      </trkpt>
      <trkpt lat="42.4485570" lon="-2.3082800">
        <ele>353.0</ele>
        <time>2022-08-12T09:27:46Z</time>
      </trkpt>
      <trkpt lat="42.4485650" lon="-2.3083170">
        <ele>353.2</ele>
        <time>2022-08-12T09:27:47Z</time>
      </trkpt>
      <trkpt lat="42.4485700" lon="-2.3084510">
        <ele>353.6</ele>
        <time>2022-08-12T09:27:50Z</time>
      </trkpt>
      <trkpt lat="42.4485650" lon="-2.3084990">
        <ele>353.6</ele>
        <time>2022-08-12T09:27:51Z</time>
      </trkpt>
      <trkpt lat="42.4485530" lon="-2.3085460">
        <ele>353.6</ele>
        <time>2022-08-12T09:27:52Z</time>
      </trkpt>
      <trkpt lat="42.4485160" lon="-2.3086430">
        <ele>353.6</ele>
        <time>2022-08-12T09:27:54Z</time>
      </trkpt>
      <trkpt lat="42.4484910" lon="-2.3088220">
        <ele>353.8</ele>
        <time>2022-08-12T09:27:57Z</time>
      </trkpt>
      <trkpt lat="42.4484850" lon="-2.3089430">
        <ele>353.8</ele>
        <time>2022-08-12T09:27:59Z</time>
      </trkpt>
      <trkpt lat="42.4484820" lon="-2.3091140">
        <ele>354.0</ele>
        <time>2022-08-12T09:28:02Z</time>
      </trkpt>
      <trkpt lat="42.4484790" lon="-2.3092310">
        <ele>354.2</ele>
        <time>2022-08-12T09:28:04Z</time>
      </trkpt>
      <trkpt lat="42.4484760" lon="-2.3092900">
        <ele>354.2</ele>
        <time>2022-08-12T09:28:05Z</time>
      </trkpt>
      <trkpt lat="42.4484820" lon="-2.3095120">
        <ele>354.4</ele>
        <time>2022-08-12T09:28:09Z</time>
      </trkpt>
      <trkpt lat="42.4485060" lon="-2.3096980">
        <ele>354.6</ele>
        <time>2022-08-12T09:28:13Z</time>
      </trkpt>
      <trkpt lat="42.4485310" lon="-2.3098350">
        <ele>355.2</ele>
        <time>2022-08-12T09:28:16Z</time>
      </trkpt>
      <trkpt lat="42.4485590" lon="-2.3099770">
        <ele>356.2</ele>
        <time>2022-08-12T09:28:19Z</time>
      </trkpt>
      <trkpt lat="42.4485700" lon="-2.3100250">
        <ele>356.6</ele>
        <time>2022-08-12T09:28:20Z</time>
      </trkpt>
      <trkpt lat="42.4486050" lon="-2.3101570">
        <ele>357.2</ele>
        <time>2022-08-12T09:28:23Z</time>
      </trkpt>
      <trkpt lat="42.4486790" lon="-2.3103990">
        <ele>357.6</ele>
        <time>2022-08-12T09:28:28Z</time>
      </trkpt>
      <trkpt lat="42.4488070" lon="-2.3108200">
        <ele>358.0</ele>
        <time>2022-08-12T09:28:37Z</time>
      </trkpt>
      <trkpt lat="42.4488660" lon="-2.3110460">
        <ele>358.4</ele>
        <time>2022-08-12T09:28:42Z</time>
      </trkpt>
      <trkpt lat="42.4488900" lon="-2.3111690">
        <ele>358.6</ele>
        <time>2022-08-12T09:28:45Z</time>
      </trkpt>
      <trkpt lat="42.4489220" lon="-2.3113110">
        <ele>359.6</ele>
        <time>2022-08-12T09:28:49Z</time>
      </trkpt>
      <trkpt lat="42.4489460" lon="-2.3114100">
        <ele>360.8</ele>
        <time>2022-08-12T09:28:52Z</time>
      </trkpt>
      <trkpt lat="42.4489810" lon="-2.3114660">
        <ele>361.2</ele>
        <time>2022-08-12T09:28:54Z</time>
      </trkpt>
      <trkpt lat="42.4490310" lon="-2.3115050">
        <ele>361.2</ele>
        <time>2022-08-12T09:28:56Z</time>
      </trkpt>
      <trkpt lat="42.4492410" lon="-2.3115780">
        <ele>361.4</ele>
        <time>2022-08-12T09:29:02Z</time>
      </trkpt>
      <trkpt lat="42.4494550" lon="-2.3116440">
        <ele>361.0</ele>
        <time>2022-08-12T09:29:08Z</time>
      </trkpt>
      <trkpt lat="42.4495320" lon="-2.3116630">
        <ele>360.8</ele>
        <time>2022-08-12T09:29:10Z</time>
      </trkpt>
      <trkpt lat="42.4497670" lon="-2.3117020">
        <ele>360.8</ele>
        <time>2022-08-12T09:29:16Z</time>
      </trkpt>
      <trkpt lat="42.4498540" lon="-2.3117160">
        <ele>360.8</ele>
        <time>2022-08-12T09:29:18Z</time>
      </trkpt>
      <trkpt lat="42.4501140" lon="-2.3117500">
        <ele>360.6</ele>
        <time>2022-08-12T09:29:24Z</time>
      </trkpt>
      <trkpt lat="42.4501960" lon="-2.3117560">
        <ele>360.4</ele>
        <time>2022-08-12T09:29:26Z</time>
      </trkpt>
      <trkpt lat="42.4502380" lon="-2.3117570">
        <ele>360.2</ele>
        <time>2022-08-12T09:29:27Z</time>
      </trkpt>
      <trkpt lat="42.4505080" lon="-2.3117300">
        <ele>359.8</ele>
        <time>2022-08-12T09:29:34Z</time>
      </trkpt>
      <trkpt lat="42.4505240" lon="-2.3117340">
        <ele>359.8</ele>
        <time>2022-08-12T09:29:35Z</time>
      </trkpt>
      <trkpt lat="42.4506000" lon="-2.3118060">
        <ele>359.6</ele>
        <time>2022-08-12T09:29:39Z</time>
      </trkpt>
      <trkpt lat="42.4506350" lon="-2.3120530">
        <ele>359.8</ele>
        <time>2022-08-12T09:29:45Z</time>
      </trkpt>
      <trkpt lat="42.4506760" lon="-2.3124570">
        <ele>360.6</ele>
        <time>2022-08-12T09:29:53Z</time>
      </trkpt>
      <trkpt lat="42.4506830" lon="-2.3125130">
        <ele>360.8</ele>
        <time>2022-08-12T09:29:54Z</time>
      </trkpt>
      <trkpt lat="42.4506940" lon="-2.3126330">
        <ele>361.0</ele>
        <time>2022-08-12T09:29:56Z</time>
      </trkpt>
      <trkpt lat="42.4507260" lon="-2.3130120">
        <ele>361.4</ele>
        <time>2022-08-12T09:30:02Z</time>
      </trkpt>
      <trkpt lat="42.4507440" lon="-2.3132830">
        <ele>361.6</ele>
        <time>2022-08-12T09:30:06Z</time>
      </trkpt>
      <trkpt lat="42.4507690" lon="-2.3136280">
        <ele>361.8</ele>
        <time>2022-08-12T09:30:11Z</time>
      </trkpt>
      <trkpt lat="42.4507790" lon="-2.3137680">
        <ele>362.2</ele>
        <time>2022-08-12T09:30:13Z</time>
      </trkpt>
      <trkpt lat="42.4508190" lon="-2.3142640">
        <ele>362.4</ele>
        <time>2022-08-12T09:30:20Z</time>
      </trkpt>
      <trkpt lat="42.4508630" lon="-2.3149750">
        <ele>362.6</ele>
        <time>2022-08-12T09:30:30Z</time>
      </trkpt>
      <trkpt lat="42.4508690" lon="-2.3150480">
        <ele>363.2</ele>
        <time>2022-08-12T09:30:31Z</time>
      </trkpt>
      <trkpt lat="42.4509180" lon="-2.3156680">
        <ele>364.2</ele>
        <time>2022-08-12T09:30:40Z</time>
      </trkpt>
      <trkpt lat="42.4509500" lon="-2.3162100">
        <ele>364.8</ele>
        <time>2022-08-12T09:30:49Z</time>
      </trkpt>
      <trkpt lat="42.4508970" lon="-2.3165160">
        <ele>365.2</ele>
        <time>2022-08-12T09:30:55Z</time>
      </trkpt>
      <trkpt lat="42.4508830" lon="-2.3165610">
        <ele>365.4</ele>
        <time>2022-08-12T09:30:56Z</time>
      </trkpt>
      <trkpt lat="42.4508080" lon="-2.3167450">
        <ele>366.0</ele>
        <time>2022-08-12T09:31:00Z</time>
      </trkpt>
      <trkpt lat="42.4507850" lon="-2.3167860">
        <ele>366.4</ele>
        <time>2022-08-12T09:31:01Z</time>
      </trkpt>
      <trkpt lat="42.4507360" lon="-2.3168620">
        <ele>367.0</ele>
        <time>2022-08-12T09:31:03Z</time>
      </trkpt>
      <trkpt lat="42.4506250" lon="-2.3169960">
        <ele>367.6</ele>
        <time>2022-08-12T09:31:07Z</time>
      </trkpt>
      <trkpt lat="42.4505350" lon="-2.3170750">
        <ele>368.2</ele>
        <time>2022-08-12T09:31:10Z</time>
      </trkpt>
      <trkpt lat="42.4504030" lon="-2.3171600">
        <ele>368.8</ele>
        <time>2022-08-12T09:31:14Z</time>
      </trkpt>
      <trkpt lat="42.4502760" lon="-2.3172360">
        <ele>369.8</ele>
        <time>2022-08-12T09:31:18Z</time>
      </trkpt>
      <trkpt lat="42.4502450" lon="-2.3172550">
        <ele>370.0</ele>
        <time>2022-08-12T09:31:19Z</time>
      </trkpt>
      <trkpt lat="42.4500360" lon="-2.3173910">
        <ele>371.0</ele>
        <time>2022-08-12T09:31:26Z</time>
      </trkpt>
      <trkpt lat="42.4500120" lon="-2.3174160">
        <ele>371.2</ele>
        <time>2022-08-12T09:31:27Z</time>
      </trkpt>
      <trkpt lat="42.4499280" lon="-2.3175450">
        <ele>372.2</ele>
        <time>2022-08-12T09:31:31Z</time>
      </trkpt>
      <trkpt lat="42.4498880" lon="-2.3176210">
        <ele>372.4</ele>
        <time>2022-08-12T09:31:33Z</time>
      </trkpt>
      <trkpt lat="42.4498130" lon="-2.3178690">
        <ele>373.2</ele>
        <time>2022-08-12T09:31:39Z</time>
      </trkpt>
      <trkpt lat="42.4498030" lon="-2.3179160">
        <ele>373.2</ele>
        <time>2022-08-12T09:31:40Z</time>
      </trkpt>
      <trkpt lat="42.4497420" lon="-2.3182700">
        <ele>373.2</ele>
        <time>2022-08-12T09:31:46Z</time>
      </trkpt>
      <trkpt lat="42.4497010" lon="-2.3186050">
        <ele>373.0</ele>
        <time>2022-08-12T09:31:50Z</time>
      </trkpt>
      <trkpt lat="42.4496910" lon="-2.3187010">
        <ele>373.0</ele>
        <time>2022-08-12T09:31:51Z</time>
      </trkpt>
      <trkpt lat="42.4496560" lon="-2.3191130">
        <ele>372.2</ele>
        <time>2022-08-12T09:31:55Z</time>
      </trkpt>
      <trkpt lat="42.4496490" lon="-2.3192200">
        <ele>372.0</ele>
        <time>2022-08-12T09:31:56Z</time>
      </trkpt>
      <trkpt lat="42.4496430" lon="-2.3193240">
        <ele>371.6</ele>
        <time>2022-08-12T09:31:57Z</time>
      </trkpt>
      <trkpt lat="42.4496330" lon="-2.3195260">
        <ele>371.0</ele>
        <time>2022-08-12T09:31:59Z</time>
      </trkpt>
      <trkpt lat="42.4495910" lon="-2.3200250">
        <ele>370.0</ele>
        <time>2022-08-12T09:32:04Z</time>
      </trkpt>
      <trkpt lat="42.4495830" lon="-2.3201250">
        <ele>369.8</ele>
        <time>2022-08-12T09:32:05Z</time>
      </trkpt>
      <trkpt lat="42.4495650" lon="-2.3203280">
        <ele>369.4</ele>
        <time>2022-08-12T09:32:07Z</time>
      </trkpt>
      <trkpt lat="42.4495090" lon="-2.3209350">
        <ele>369.2</ele>
        <time>2022-08-12T09:32:13Z</time>
      </trkpt>
      <trkpt lat="42.4494980" lon="-2.3210390">
        <ele>369.0</ele>
        <time>2022-08-12T09:32:14Z</time>
      </trkpt>
      <trkpt lat="42.4494520" lon="-2.3215690">
        <ele>368.2</ele>
        <time>2022-08-12T09:32:19Z</time>
      </trkpt>
      <trkpt lat="42.4494400" lon="-2.3216750">
        <ele>368.0</ele>
        <time>2022-08-12T09:32:20Z</time>
      </trkpt>
      <trkpt lat="42.4493550" lon="-2.3224050">
        <ele>367.0</ele>
        <time>2022-08-12T09:32:27Z</time>
      </trkpt>
      <trkpt lat="42.4493390" lon="-2.3225310">
        <ele>367.0</ele>
        <time>2022-08-12T09:32:28Z</time>
      </trkpt>
      <trkpt lat="42.4493200" lon="-2.3227260">
        <ele>366.8</ele>
        <time>2022-08-12T09:32:30Z</time>
      </trkpt>
      <trkpt lat="42.4492600" lon="-2.3233870">
        <ele>366.4</ele>
        <time>2022-08-12T09:32:36Z</time>
      </trkpt>
      <trkpt lat="42.4492430" lon="-2.3236060">
        <ele>365.8</ele>
        <time>2022-08-12T09:32:38Z</time>
      </trkpt>
      <trkpt lat="42.4492340" lon="-2.3237150">
        <ele>365.8</ele>
        <time>2022-08-12T09:32:39Z</time>
      </trkpt>
      <trkpt lat="42.4491810" lon="-2.3245040">
        <ele>365.2</ele>
        <time>2022-08-12T09:32:46Z</time>
      </trkpt>
      <trkpt lat="42.4491750" lon="-2.3247250">
        <ele>365.0</ele>
        <time>2022-08-12T09:32:48Z</time>
      </trkpt>
      <trkpt lat="42.4491740" lon="-2.3248350">
        <ele>364.8</ele>
        <time>2022-08-12T09:32:49Z</time>
      </trkpt>
      <trkpt lat="42.4491770" lon="-2.3252690">
        <ele>364.4</ele>
        <time>2022-08-12T09:32:53Z</time>
      </trkpt>
      <trkpt lat="42.4491980" lon="-2.3258700">
        <ele>364.0</ele>
        <time>2022-08-12T09:32:59Z</time>
      </trkpt>
      <trkpt lat="42.4492450" lon="-2.3266940">
        <ele>365.0</ele>
        <time>2022-08-12T09:33:08Z</time>
      </trkpt>
      <trkpt lat="42.4492950" lon="-2.3274880">
        <ele>365.2</ele>
        <time>2022-08-12T09:33:17Z</time>
      </trkpt>
      <trkpt lat="42.4493180" lon="-2.3277700">
        <ele>365.6</ele>
        <time>2022-08-12T09:33:20Z</time>
      </trkpt>
      <trkpt lat="42.4493460" lon="-2.3282900">
        <ele>365.8</ele>
        <time>2022-08-12T09:33:26Z</time>
      </trkpt>
      <trkpt lat="42.4493760" lon="-2.3289590">
        <ele>365.6</ele>
        <time>2022-08-12T09:33:33Z</time>
      </trkpt>
      <trkpt lat="42.4494030" lon="-2.3297500">
        <ele>365.2</ele>
        <time>2022-08-12T09:33:41Z</time>
      </trkpt>
      <trkpt lat="42.4494040" lon="-2.3298500">
        <ele>365.2</ele>
        <time>2022-08-12T09:33:42Z</time>
      </trkpt>
      <trkpt lat="42.4494280" lon="-2.3306550">
        <ele>365.2</ele>
        <time>2022-08-12T09:33:50Z</time>
      </trkpt>
      <trkpt lat="42.4494350" lon="-2.3308770">
        <ele>365.0</ele>
        <time>2022-08-12T09:33:52Z</time>
      </trkpt>
      <trkpt lat="42.4494430" lon="-2.3312750">
        <ele>364.8</ele>
        <time>2022-08-12T09:33:56Z</time>
      </trkpt>
      <trkpt lat="42.4494460" lon="-2.3318430">
        <ele>364.6</ele>
        <time>2022-08-12T09:34:02Z</time>
      </trkpt>
      <trkpt lat="42.4494540" lon="-2.3326160">
        <ele>365.2</ele>
        <time>2022-08-12T09:34:10Z</time>
      </trkpt>
      <trkpt lat="42.4494690" lon="-2.3333720">
        <ele>365.6</ele>
        <time>2022-08-12T09:34:18Z</time>
      </trkpt>
      <trkpt lat="42.4494770" lon="-2.3341400">
        <ele>365.8</ele>
        <time>2022-08-12T09:34:26Z</time>
      </trkpt>
      <trkpt lat="42.4494790" lon="-2.3343430">
        <ele>365.8</ele>
        <time>2022-08-12T09:34:28Z</time>
      </trkpt>
      <trkpt lat="42.4494830" lon="-2.3351700">
        <ele>365.2</ele>
        <time>2022-08-12T09:34:36Z</time>
      </trkpt>
      <trkpt lat="42.4494910" lon="-2.3354870">
        <ele>365.0</ele>
        <time>2022-08-12T09:34:39Z</time>
      </trkpt>
      <trkpt lat="42.4494980" lon="-2.3360140">
        <ele>364.8</ele>
        <time>2022-08-12T09:34:44Z</time>
      </trkpt>
      <trkpt lat="42.4495090" lon="-2.3368380">
        <ele>364.4</ele>
        <time>2022-08-12T09:34:52Z</time>
      </trkpt>
      <trkpt lat="42.4495210" lon="-2.3376670">
        <ele>364.4</ele>
        <time>2022-08-12T09:35:00Z</time>
      </trkpt>
      <trkpt lat="42.4495220" lon="-2.3377700">
        <ele>364.4</ele>
        <time>2022-08-12T09:35:01Z</time>
      </trkpt>
      <trkpt lat="42.4495300" lon="-2.3386000">
        <ele>364.2</ele>
        <time>2022-08-12T09:35:09Z</time>
      </trkpt>
      <trkpt lat="42.4495320" lon="-2.3389190">
        <ele>363.6</ele>
        <time>2022-08-12T09:35:12Z</time>
      </trkpt>
      <trkpt lat="42.4495320" lon="-2.3390260">
        <ele>363.6</ele>
        <time>2022-08-12T09:35:13Z</time>
      </trkpt>
      <trkpt lat="42.4495420" lon="-2.3396920">
        <ele>363.2</ele>
        <time>2022-08-12T09:35:19Z</time>
      </trkpt>
      <trkpt lat="42.4495540" lon="-2.3401270">
        <ele>363.0</ele>
        <time>2022-08-12T09:35:23Z</time>
      </trkpt>
      <trkpt lat="42.4495710" lon="-2.3408800">
        <ele>362.8</ele>
        <time>2022-08-12T09:35:30Z</time>
      </trkpt>
      <trkpt lat="42.4495770" lon="-2.3414160">
        <ele>362.8</ele>
        <time>2022-08-12T09:35:35Z</time>
      </trkpt>
      <trkpt lat="42.4495840" lon="-2.3420570">
        <ele>362.4</ele>
        <time>2022-08-12T09:35:41Z</time>
      </trkpt>
      <trkpt lat="42.4495900" lon="-2.3425900">
        <ele>362.2</ele>
        <time>2022-08-12T09:35:46Z</time>
      </trkpt>
      <trkpt lat="42.4495990" lon="-2.3434160">
        <ele>362.0</ele>
        <time>2022-08-12T09:35:54Z</time>
      </trkpt>
      <trkpt lat="42.4496100" lon="-2.3442130">
        <ele>361.8</ele>
        <time>2022-08-12T09:36:02Z</time>
      </trkpt>
      <trkpt lat="42.4496140" lon="-2.3444030">
        <ele>361.8</ele>
        <time>2022-08-12T09:36:04Z</time>
      </trkpt>
      <trkpt lat="42.4496140" lon="-2.3446820">
        <ele>361.8</ele>
        <time>2022-08-12T09:36:07Z</time>
      </trkpt>
      <trkpt lat="42.4496240" lon="-2.3452260">
        <ele>361.8</ele>
        <time>2022-08-12T09:36:13Z</time>
      </trkpt>
      <trkpt lat="42.4496410" lon="-2.3458740">
        <ele>362.0</ele>
        <time>2022-08-12T09:36:20Z</time>
      </trkpt>
      <trkpt lat="42.4496630" lon="-2.3463420">
        <ele>362.0</ele>
        <time>2022-08-12T09:36:25Z</time>
      </trkpt>
      <trkpt lat="42.4496860" lon="-2.3468960">
        <ele>362.2</ele>
        <time>2022-08-12T09:36:31Z</time>
      </trkpt>
      <trkpt lat="42.4497300" lon="-2.3476260">
        <ele>362.6</ele>
        <time>2022-08-12T09:36:39Z</time>
      </trkpt>
      <trkpt lat="42.4497620" lon="-2.3479930">
        <ele>363.0</ele>
        <time>2022-08-12T09:36:43Z</time>
      </trkpt>
      <trkpt lat="42.4497870" lon="-2.3482830">
        <ele>363.4</ele>
        <time>2022-08-12T09:36:46Z</time>
      </trkpt>
      <trkpt lat="42.4497930" lon="-2.3483540">
        <ele>363.6</ele>
        <time>2022-08-12T09:36:47Z</time>
      </trkpt>
      <trkpt lat="42.4498060" lon="-2.3485190">
        <ele>363.8</ele>
        <time>2022-08-12T09:36:49Z</time>
      </trkpt>
      <trkpt lat="42.4498290" lon="-2.3488940">
        <ele>364.6</ele>
        <time>2022-08-12T09:36:54Z</time>
      </trkpt>
      <trkpt lat="42.4498340" lon="-2.3489690">
        <ele>365.0</ele>
        <time>2022-08-12T09:36:55Z</time>
      </trkpt>
      <trkpt lat="42.4498430" lon="-2.3490560">
        <ele>365.2</ele>
        <time>2022-08-12T09:36:56Z</time>
      </trkpt>
      <trkpt lat="42.4498520" lon="-2.3491860">
        <ele>365.8</ele>
        <time>2022-08-12T09:36:58Z</time>
      </trkpt>
      <trkpt lat="42.4498590" lon="-2.3492580">
        <ele>366.0</ele>
        <time>2022-08-12T09:36:59Z</time>
      </trkpt>
      <trkpt lat="42.4498670" lon="-2.3493310">
        <ele>366.4</ele>
        <time>2022-08-12T09:37:00Z</time>
      </trkpt>
      <trkpt lat="42.4498750" lon="-2.3494030">
        <ele>366.8</ele>
        <time>2022-08-12T09:37:01Z</time>
      </trkpt>
      <trkpt lat="42.4498850" lon="-2.3494750">
        <ele>367.4</ele>
        <time>2022-08-12T09:37:02Z</time>
      </trkpt>
      <trkpt lat="42.4499480" lon="-2.3497630">
        <ele>368.4</ele>
        <time>2022-08-12T09:37:06Z</time>
      </trkpt>
      <trkpt lat="42.4499670" lon="-2.3498320">
        <ele>368.8</ele>
        <time>2022-08-12T09:37:07Z</time>
      </trkpt>
      <trkpt lat="42.4500100" lon="-2.3499640">
        <ele>369.2</ele>
        <time>2022-08-12T09:37:09Z</time>
      </trkpt>
      <trkpt lat="42.4500370" lon="-2.3500210">
        <ele>369.4</ele>
        <time>2022-08-12T09:37:10Z</time>
      </trkpt>
      <trkpt lat="42.4500660" lon="-2.3500700">
        <ele>370.0</ele>
        <time>2022-08-12T09:37:11Z</time>
      </trkpt>
      <trkpt lat="42.4501040" lon="-2.3501120">
        <ele>370.2</ele>
        <time>2022-08-12T09:37:12Z</time>
      </trkpt>
      <trkpt lat="42.4501460" lon="-2.3501450">
        <ele>370.6</ele>
        <time>2022-08-12T09:37:13Z</time>
      </trkpt>
      <trkpt lat="42.4501930" lon="-2.3501640">
        <ele>371.0</ele>
        <time>2022-08-12T09:37:14Z</time>
      </trkpt>
      <trkpt lat="42.4502430" lon="-2.3501660">
        <ele>371.0</ele>
        <time>2022-08-12T09:37:15Z</time>
      </trkpt>
      <trkpt lat="42.4502940" lon="-2.3501640">
        <ele>371.2</ele>
        <time>2022-08-12T09:37:16Z</time>
      </trkpt>
      <trkpt lat="42.4503410" lon="-2.3501580">
        <ele>371.6</ele>
        <time>2022-08-12T09:37:17Z</time>
      </trkpt>
      <trkpt lat="42.4504370" lon="-2.3501130">
        <ele>372.0</ele>
        <time>2022-08-12T09:37:19Z</time>
      </trkpt>
      <trkpt lat="42.4504780" lon="-2.3500690">
        <ele>372.0</ele>
        <time>2022-08-12T09:37:20Z</time>
      </trkpt>
      <trkpt lat="42.4505150" lon="-2.3500150">
        <ele>372.2</ele>
        <time>2022-08-12T09:37:21Z</time>
      </trkpt>
      <trkpt lat="42.4506770" lon="-2.3497110">
        <ele>372.4</ele>
        <time>2022-08-12T09:37:26Z</time>
      </trkpt>
      <trkpt lat="42.4507980" lon="-2.3492870">
        <ele>372.0</ele>
        <time>2022-08-12T09:37:32Z</time>
      </trkpt>
      <trkpt lat="42.4508370" lon="-2.3490360">
        <ele>371.6</ele>
        <time>2022-08-12T09:37:35Z</time>
      </trkpt>
      <trkpt lat="42.4508350" lon="-2.3487910">
        <ele>371.4</ele>
        <time>2022-08-12T09:37:38Z</time>
      </trkpt>
      <trkpt lat="42.4508140" lon="-2.3485430">
        <ele>371.0</ele>
        <time>2022-08-12T09:37:41Z</time>
      </trkpt>
      <trkpt lat="42.4507940" lon="-2.3483420">
        <ele>370.6</ele>
        <time>2022-08-12T09:37:43Z</time>
      </trkpt>
      <trkpt lat="42.4507810" lon="-2.3482690">
        <ele>370.4</ele>
        <time>2022-08-12T09:37:44Z</time>
      </trkpt>
      <trkpt lat="42.4507680" lon="-2.3481740">
        <ele>369.8</ele>
        <time>2022-08-12T09:37:45Z</time>
      </trkpt>
      <trkpt lat="42.4507430" lon="-2.3479700">
        <ele>369.2</ele>
        <time>2022-08-12T09:37:47Z</time>
      </trkpt>
      <trkpt lat="42.4507150" lon="-2.3477500">
        <ele>368.8</ele>
        <time>2022-08-12T09:37:49Z</time>
      </trkpt>
      <trkpt lat="42.4507000" lon="-2.3476360">
        <ele>368.0</ele>
        <time>2022-08-12T09:37:50Z</time>
      </trkpt>
      <trkpt lat="42.4506850" lon="-2.3475210">
        <ele>367.6</ele>
        <time>2022-08-12T09:37:51Z</time>
      </trkpt>
      <trkpt lat="42.4506550" lon="-2.3472930">
        <ele>367.0</ele>
        <time>2022-08-12T09:37:53Z</time>
      </trkpt>
      <trkpt lat="42.4506440" lon="-2.3471900">
        <ele>366.4</ele>
        <time>2022-08-12T09:37:54Z</time>
      </trkpt>
      <trkpt lat="42.4506280" lon="-2.3470140">
        <ele>365.4</ele>
        <time>2022-08-12T09:37:56Z</time>
      </trkpt>
      <trkpt lat="42.4506290" lon="-2.3468720">
        <ele>364.2</ele>
        <time>2022-08-12T09:37:58Z</time>
      </trkpt>
      <trkpt lat="42.4506450" lon="-2.3468170">
        <ele>363.8</ele>
        <time>2022-08-12T09:37:59Z</time>
      </trkpt>
      <trkpt lat="42.4506620" lon="-2.3467830">
        <ele>363.0</ele>
        <time>2022-08-12T09:38:00Z</time>
      </trkpt>
      <trkpt lat="42.4507170" lon="-2.3466690">
        <ele>362.0</ele>
        <time>2022-08-12T09:38:02Z</time>
      </trkpt>
      <trkpt lat="42.4507480" lon="-2.3466500">
        <ele>362.0</ele>
        <time>2022-08-12T09:38:03Z</time>
      </trkpt>
      <trkpt lat="42.4507740" lon="-2.3466770">
        <ele>361.8</ele>
        <time>2022-08-12T09:38:04Z</time>
      </trkpt>
      <trkpt lat="42.4508630" lon="-2.3467860">
        <ele>361.6</ele>
        <time>2022-08-12T09:38:06Z</time>
      </trkpt>
      <trkpt lat="42.4509830" lon="-2.3469230">
        <ele>361.2</ele>
        <time>2022-08-12T09:38:08Z</time>
      </trkpt>
      <trkpt lat="42.4510140" lon="-2.3470340">
        <ele>361.0</ele>
        <time>2022-08-12T09:38:09Z</time>
      </trkpt>
      <trkpt lat="42.4510260" lon="-2.3471860">
        <ele>360.6</ele>
        <time>2022-08-12T09:38:10Z</time>
      </trkpt>
      <trkpt lat="42.4510570" lon="-2.3474690">
        <ele>359.2</ele>
        <time>2022-08-12T09:38:12Z</time>
      </trkpt>
      <trkpt lat="42.4510980" lon="-2.3478070">
        <ele>358.2</ele>
        <time>2022-08-12T09:38:15Z</time>
      </trkpt>
      <trkpt lat="42.4511380" lon="-2.3481090">
        <ele>357.4</ele>
        <time>2022-08-12T09:38:18Z</time>
      </trkpt>
      <trkpt lat="42.4511500" lon="-2.3481980">
        <ele>357.2</ele>
        <time>2022-08-12T09:38:19Z</time>
      </trkpt>
      <trkpt lat="42.4511620" lon="-2.3484350">
        <ele>357.0</ele>
        <time>2022-08-12T09:38:22Z</time>
      </trkpt>
      <trkpt lat="42.4511600" lon="-2.3485060">
        <ele>357.0</ele>
        <time>2022-08-12T09:38:23Z</time>
      </trkpt>
      <trkpt lat="42.4511680" lon="-2.3488440">
        <ele>357.2</ele>
        <time>2022-08-12T09:38:28Z</time>
      </trkpt>
      <trkpt lat="42.4511720" lon="-2.3489670">
        <ele>357.4</ele>
        <time>2022-08-12T09:38:30Z</time>
      </trkpt>
      <trkpt lat="42.4511400" lon="-2.3493270">
        <ele>357.6</ele>
        <time>2022-08-12T09:38:36Z</time>
      </trkpt>
      <trkpt lat="42.4511180" lon="-2.3494420">
        <ele>357.6</ele>
        <time>2022-08-12T09:38:38Z</time>
      </trkpt>
      <trkpt lat="42.4510530" lon="-2.3496680">
        <ele>357.0</ele>
        <time>2022-08-12T09:38:42Z</time>
      </trkpt>
      <trkpt lat="42.4510320" lon="-2.3497360">
        <ele>357.0</ele>
        <time>2022-08-12T09:38:43Z</time>
      </trkpt>
      <trkpt lat="42.4509770" lon="-2.3499240">
        <ele>357.0</ele>
        <time>2022-08-12T09:38:47Z</time>
      </trkpt>
      <trkpt lat="42.4509670" lon="-2.3500780">
        <ele>357.8</ele>
        <time>2022-08-12T09:38:50Z</time>
      </trkpt>
      <trkpt lat="42.4509780" lon="-2.3501350">
        <ele>357.8</ele>
        <time>2022-08-12T09:38:51Z</time>
      </trkpt>
      <trkpt lat="42.4510090" lon="-2.3502410">
        <ele>358.2</ele>
        <time>2022-08-12T09:38:53Z</time>
      </trkpt>
      <trkpt lat="42.4510540" lon="-2.3503310">
        <ele>358.4</ele>
        <time>2022-08-12T09:38:55Z</time>
      </trkpt>
      <trkpt lat="42.4512060" lon="-2.3506550">
        <ele>358.4</ele>
        <time>2022-08-12T09:39:02Z</time>
      </trkpt>
      <trkpt lat="42.4512250" lon="-2.3507010">
        <ele>358.8</ele>
        <time>2022-08-12T09:39:03Z</time>
      </trkpt>
      <trkpt lat="42.4512850" lon="-2.3508340">
        <ele>359.6</ele>
        <time>2022-08-12T09:39:06Z</time>
      </trkpt>
      <trkpt lat="42.4513700" lon="-2.3510200">
        <ele>360.0</ele>
        <time>2022-08-12T09:39:10Z</time>
      </trkpt>
      <trkpt lat="42.4513880" lon="-2.3510670">
        <ele>360.4</ele>
        <time>2022-08-12T09:39:11Z</time>
      </trkpt>
      <trkpt lat="42.4514240" lon="-2.3511680">
        <ele>360.6</ele>
        <time>2022-08-12T09:39:13Z</time>
      </trkpt>
      <trkpt lat="42.4515310" lon="-2.3514980">
        <ele>361.0</ele>
        <time>2022-08-12T09:39:19Z</time>
      </trkpt>
      <trkpt lat="42.4516230" lon="-2.3518220">
        <ele>360.8</ele>
        <time>2022-08-12T09:39:25Z</time>
      </trkpt>
      <trkpt lat="42.4516490" lon="-2.3518840">
        <ele>360.8</ele>
        <time>2022-08-12T09:39:26Z</time>
      </trkpt>
      <trkpt lat="42.4517590" lon="-2.3521380">
        <ele>361.6</ele>
        <time>2022-08-12T09:39:31Z</time>
      </trkpt>
      <trkpt lat="42.4517870" lon="-2.3522020">
        <ele>361.8</ele>
        <time>2022-08-12T09:39:32Z</time>
      </trkpt>
      <trkpt lat="42.4519960" lon="-2.3526290">
        <ele>361.8</ele>
        <time>2022-08-12T09:39:40Z</time>
      </trkpt>
      <trkpt lat="42.4520440" lon="-2.3527350">
        <ele>361.8</ele>
        <time>2022-08-12T09:39:42Z</time>
      </trkpt>
      <trkpt lat="42.4521420" lon="-2.3529730">
        <ele>361.6</ele>
        <time>2022-08-12T09:39:46Z</time>
      </trkpt>
      <trkpt lat="42.4522540" lon="-2.3532070">
        <ele>361.4</ele>
        <time>2022-08-12T09:39:50Z</time>
      </trkpt>
      <trkpt lat="42.4524670" lon="-2.3536150">
        <ele>360.4</ele>
        <time>2022-08-12T09:39:57Z</time>
      </trkpt>
      <trkpt lat="42.4525270" lon="-2.3537260">
        <ele>360.4</ele>
        <time>2022-08-12T09:39:59Z</time>
      </trkpt>
      <trkpt lat="42.4527090" lon="-2.3540700">
        <ele>360.4</ele>
        <time>2022-08-12T09:40:05Z</time>
      </trkpt>
      <trkpt lat="42.4528150" lon="-2.3543050">
        <ele>360.4</ele>
        <time>2022-08-12T09:40:09Z</time>
      </trkpt>
      <trkpt lat="42.4529140" lon="-2.3544720">
        <ele>360.2</ele>
        <time>2022-08-12T09:40:12Z</time>
      </trkpt>
      <trkpt lat="42.4532150" lon="-2.3550700">
        <ele>360.6</ele>
        <time>2022-08-12T09:40:22Z</time>
      </trkpt>
      <trkpt lat="42.4534600" lon="-2.3555540">
        <ele>360.6</ele>
        <time>2022-08-12T09:40:30Z</time>
      </trkpt>
      <trkpt lat="42.4537110" lon="-2.3560260">
        <ele>360.4</ele>
        <time>2022-08-12T09:40:38Z</time>
      </trkpt>
      <trkpt lat="42.4539830" lon="-2.3565690">
        <ele>361.2</ele>
        <time>2022-08-12T09:40:47Z</time>
      </trkpt>
      <trkpt lat="42.4542000" lon="-2.3569720">
        <ele>361.4</ele>
        <time>2022-08-12T09:40:54Z</time>
      </trkpt>
      <trkpt lat="42.4544070" lon="-2.3573970">
        <ele>361.4</ele>
        <time>2022-08-12T09:41:01Z</time>
      </trkpt>
      <trkpt lat="42.4544730" lon="-2.3575200">
        <ele>361.6</ele>
        <time>2022-08-12T09:41:03Z</time>
      </trkpt>
      <trkpt lat="42.4546260" lon="-2.3578290">
        <ele>361.8</ele>
        <time>2022-08-12T09:41:08Z</time>
      </trkpt>
      <trkpt lat="42.4547750" lon="-2.3581290">
        <ele>361.6</ele>
        <time>2022-08-12T09:41:13Z</time>
      </trkpt>
      <trkpt lat="42.4549880" lon="-2.3585650">
        <ele>362.0</ele>
        <time>2022-08-12T09:41:20Z</time>
      </trkpt>
      <trkpt lat="42.4551770" lon="-2.3589180">
        <ele>362.0</ele>
        <time>2022-08-12T09:41:26Z</time>
      </trkpt>
      <trkpt lat="42.4552990" lon="-2.3591550">
        <ele>362.0</ele>
        <time>2022-08-12T09:41:30Z</time>
      </trkpt>
      <trkpt lat="42.4555050" lon="-2.3595940">
        <ele>361.8</ele>
        <time>2022-08-12T09:41:37Z</time>
      </trkpt>
      <trkpt lat="42.4557350" lon="-2.3601550">
        <ele>362.2</ele>
        <time>2022-08-12T09:41:46Z</time>
      </trkpt>
      <trkpt lat="42.4558880" lon="-2.3604470">
        <ele>362.2</ele>
        <time>2022-08-12T09:41:51Z</time>
      </trkpt>
      <trkpt lat="42.4559620" lon="-2.3605500">
        <ele>362.4</ele>
        <time>2022-08-12T09:41:53Z</time>
      </trkpt>
      <trkpt lat="42.4562750" lon="-2.3609270">
        <ele>362.4</ele>
        <time>2022-08-12T09:42:01Z</time>
      </trkpt>
      <trkpt lat="42.4565900" lon="-2.3613050">
        <ele>362.2</ele>
        <time>2022-08-12T09:42:09Z</time>
      </trkpt>
      <trkpt lat="42.4567320" lon="-2.3614900">
        <ele>362.2</ele>
        <time>2022-08-12T09:42:13Z</time>
      </trkpt>
      <trkpt lat="42.4568600" lon="-2.3617100">
        <ele>362.4</ele>
        <time>2022-08-12T09:42:17Z</time>
      </trkpt>
      <trkpt lat="42.4568950" lon="-2.3618380">
        <ele>362.6</ele>
        <time>2022-08-12T09:42:19Z</time>
      </trkpt>
      <trkpt lat="42.4569090" lon="-2.3619720">
        <ele>362.8</ele>
        <time>2022-08-12T09:42:21Z</time>
      </trkpt>
      <trkpt lat="42.4569270" lon="-2.3624280">
        <ele>362.8</ele>
        <time>2022-08-12T09:42:27Z</time>
      </trkpt>
      <trkpt lat="42.4569900" lon="-2.3629230">
        <ele>362.2</ele>
        <time>2022-08-12T09:42:34Z</time>
      </trkpt>
      <trkpt lat="42.4569760" lon="-2.3629950">
        <ele>362.2</ele>
        <time>2022-08-12T09:42:35Z</time>
      </trkpt>
      <trkpt lat="42.4569750" lon="-2.3631100">
        <ele>362.2</ele>
        <time>2022-08-12T09:42:37Z</time>
      </trkpt>
      <trkpt lat="42.4569840" lon="-2.3632750">
        <ele>362.4</ele>
        <time>2022-08-12T09:42:40Z</time>
      </trkpt>
      <trkpt lat="42.4570230" lon="-2.3634260">
        <ele>362.6</ele>
        <time>2022-08-12T09:42:42Z</time>
      </trkpt>
      <trkpt lat="42.4572560" lon="-2.3640090">
        <ele>363.2</ele>
        <time>2022-08-12T09:42:51Z</time>
      </trkpt>
      <trkpt lat="42.4573320" lon="-2.3642090">
        <ele>363.2</ele>
        <time>2022-08-12T09:42:54Z</time>
      </trkpt>
      <trkpt lat="42.4575890" lon="-2.3648900">
        <ele>363.4</ele>
        <time>2022-08-12T09:43:04Z</time>
      </trkpt>
      <trkpt lat="42.4577440" lon="-2.3652880">
        <ele>363.4</ele>
        <time>2022-08-12T09:43:10Z</time>
      </trkpt>
      <trkpt lat="42.4578500" lon="-2.3655570">
        <ele>363.4</ele>
        <time>2022-08-12T09:43:14Z</time>
      </trkpt>
      <trkpt lat="42.4580860" lon="-2.3661570">
        <ele>363.4</ele>
        <time>2022-08-12T09:43:23Z</time>
      </trkpt>
      <trkpt lat="42.4583450" lon="-2.3668370">
        <ele>363.6</ele>
        <time>2022-08-12T09:43:33Z</time>
      </trkpt>
      <trkpt lat="42.4583930" lon="-2.3669760">
        <ele>363.6</ele>
        <time>2022-08-12T09:43:35Z</time>
      </trkpt>
      <trkpt lat="42.4585680" lon="-2.3676670">
        <ele>363.8</ele>
        <time>2022-08-12T09:43:44Z</time>
      </trkpt>
      <trkpt lat="42.4586960" lon="-2.3682670">
        <ele>363.8</ele>
        <time>2022-08-12T09:43:52Z</time>
      </trkpt>
      <trkpt lat="42.4588580" lon="-2.3690220">
        <ele>363.8</ele>
        <time>2022-08-12T09:44:02Z</time>
      </trkpt>
      <trkpt lat="42.4588730" lon="-2.3690980">
        <ele>363.8</ele>
        <time>2022-08-12T09:44:03Z</time>
      </trkpt>
      <trkpt lat="42.4588880" lon="-2.3691740">
        <ele>363.8</ele>
        <time>2022-08-12T09:44:04Z</time>
      </trkpt>
      <trkpt lat="42.4590470" lon="-2.3699280">
        <ele>364.2</ele>
        <time>2022-08-12T09:44:14Z</time>
      </trkpt>
      <trkpt lat="42.4590640" lon="-2.3700020">
        <ele>364.2</ele>
        <time>2022-08-12T09:44:15Z</time>
      </trkpt>
      <trkpt lat="42.4592370" lon="-2.3707430">
        <ele>364.4</ele>
        <time>2022-08-12T09:44:25Z</time>
      </trkpt>
      <trkpt lat="42.4592730" lon="-2.3708880">
        <ele>364.6</ele>
        <time>2022-08-12T09:44:27Z</time>
      </trkpt>
      <trkpt lat="42.4594060" lon="-2.3714300">
        <ele>364.8</ele>
        <time>2022-08-12T09:44:34Z</time>
      </trkpt>
      <trkpt lat="42.4594680" lon="-2.3717140">
        <ele>364.8</ele>
        <time>2022-08-12T09:44:38Z</time>
      </trkpt>
      <trkpt lat="42.4595790" lon="-2.3721650">
        <ele>365.0</ele>
        <time>2022-08-12T09:44:44Z</time>
      </trkpt>
      <trkpt lat="42.4597500" lon="-2.3728690">
        <ele>365.2</ele>
        <time>2022-08-12T09:44:54Z</time>
      </trkpt>
      <trkpt lat="42.4598980" lon="-2.3735310">
        <ele>365.4</ele>
        <time>2022-08-12T09:45:03Z</time>
      </trkpt>
      <trkpt lat="42.4599350" lon="-2.3736970">
        <ele>365.6</ele>
        <time>2022-08-12T09:45:05Z</time>
      </trkpt>
      <trkpt lat="42.4599940" lon="-2.3742190">
        <ele>365.6</ele>
        <time>2022-08-12T09:45:12Z</time>
      </trkpt>
      <trkpt lat="42.4600120" lon="-2.3745920">
        <ele>366.0</ele>
        <time>2022-08-12T09:45:17Z</time>
      </trkpt>
      <trkpt lat="42.4600180" lon="-2.3749360">
        <ele>366.0</ele>
        <time>2022-08-12T09:45:22Z</time>
      </trkpt>
      <trkpt lat="42.4600240" lon="-2.3750170">
        <ele>366.0</ele>
        <time>2022-08-12T09:45:25Z</time>
      </trkpt>
      <trkpt lat="42.4600240" lon="-2.3750200">
        <ele>365.6</ele>
        <time>2022-08-12T09:47:36Z</time>
      </trkpt>
      <trkpt lat="42.4600240" lon="-2.3750540">
        <ele>365.6</ele>
        <time>2022-08-12T09:47:37Z</time>
      </trkpt>
      <trkpt lat="42.4600250" lon="-2.3750950">
        <ele>365.6</ele>
        <time>2022-08-12T09:47:38Z</time>
      </trkpt>
      <trkpt lat="42.4600230" lon="-2.3751880">
        <ele>365.8</ele>
        <time>2022-08-12T09:47:40Z</time>
      </trkpt>
      <trkpt lat="42.4600240" lon="-2.3752750">
        <ele>365.8</ele>
        <time>2022-08-12T09:47:42Z</time>
      </trkpt>
      <trkpt lat="42.4600300" lon="-2.3753760">
        <ele>365.8</ele>
        <time>2022-08-12T09:47:44Z</time>
      </trkpt>
      <trkpt lat="42.4600360" lon="-2.3754340">
        <ele>365.8</ele>
        <time>2022-08-12T09:47:45Z</time>
      </trkpt>
      <trkpt lat="42.4600780" lon="-2.3756620">
        <ele>366.0</ele>
        <time>2022-08-12T09:47:49Z</time>
      </trkpt>
      <trkpt lat="42.4601410" lon="-2.3758380">
        <ele>366.2</ele>
        <time>2022-08-12T09:47:52Z</time>
      </trkpt>
      <trkpt lat="42.4601890" lon="-2.3759560">
        <ele>366.2</ele>
        <time>2022-08-12T09:47:54Z</time>
      </trkpt>
      <trkpt lat="42.4602260" lon="-2.3760750">
        <ele>366.2</ele>
        <time>2022-08-12T09:47:56Z</time>
      </trkpt>
      <trkpt lat="42.4602260" lon="-2.3760750">
        <ele>366.4</ele>
        <time>2022-08-12T09:48:06Z</time>
      </trkpt>
      <trkpt lat="42.4606650" lon="-2.3767920">
        <ele>366.4</ele>
        <time>2022-08-12T09:48:08Z</time>
      </trkpt>
      <trkpt lat="42.4606820" lon="-2.3769370">
        <ele>366.4</ele>
        <time>2022-08-12T09:48:10Z</time>
      </trkpt>
      <trkpt lat="42.4606820" lon="-2.3770120">
        <ele>366.4</ele>
        <time>2022-08-12T09:48:11Z</time>
      </trkpt>
      <trkpt lat="42.4606750" lon="-2.3771590">
        <ele>366.4</ele>
        <time>2022-08-12T09:48:13Z</time>
      </trkpt>
      <trkpt lat="42.4606180" lon="-2.3773970">
        <ele>366.4</ele>
        <time>2022-08-12T09:48:16Z</time>
      </trkpt>
      <trkpt lat="42.4604200" lon="-2.3780140">
        <ele>366.2</ele>
        <time>2022-08-12T09:48:25Z</time>
      </trkpt>
      <trkpt lat="42.4603970" lon="-2.3780770">
        <ele>366.2</ele>
        <time>2022-08-12T09:48:26Z</time>
      </trkpt>
      <trkpt lat="42.4602690" lon="-2.3784120">
        <ele>366.6</ele>
        <time>2022-08-12T09:48:32Z</time>
      </trkpt>
      <trkpt lat="42.4602080" lon="-2.3785550">
        <ele>367.0</ele>
        <time>2022-08-12T09:48:35Z</time>
      </trkpt>
      <trkpt lat="42.4601350" lon="-2.3787620">
        <ele>367.6</ele>
        <time>2022-08-12T09:48:39Z</time>
      </trkpt>
      <trkpt lat="42.4600250" lon="-2.3790660">
        <ele>368.2</ele>
        <time>2022-08-12T09:48:44Z</time>
      </trkpt>
      <trkpt lat="42.4599780" lon="-2.3791890">
        <ele>368.2</ele>
        <time>2022-08-12T09:48:46Z</time>
      </trkpt>
      <trkpt lat="42.4598900" lon="-2.3794470">
        <ele>368.4</ele>
        <time>2022-08-12T09:48:50Z</time>
      </trkpt>
      <trkpt lat="42.4597460" lon="-2.3798990">
        <ele>368.6</ele>
        <time>2022-08-12T09:48:57Z</time>
      </trkpt>
      <trkpt lat="42.4597120" lon="-2.3800370">
        <ele>368.6</ele>
        <time>2022-08-12T09:48:59Z</time>
      </trkpt>
      <trkpt lat="42.4597010" lon="-2.3801830">
        <ele>368.8</ele>
        <time>2022-08-12T09:49:01Z</time>
      </trkpt>
      <trkpt lat="42.4597040" lon="-2.3802560">
        <ele>368.8</ele>
        <time>2022-08-12T09:49:02Z</time>
      </trkpt>
      <trkpt lat="42.4597030" lon="-2.3804800">
        <ele>368.8</ele>
        <time>2022-08-12T09:49:05Z</time>
      </trkpt>
      <trkpt lat="42.4596680" lon="-2.3808720">
        <ele>368.8</ele>
        <time>2022-08-12T09:49:10Z</time>
      </trkpt>
      <trkpt lat="42.4595860" lon="-2.3813480">
        <ele>368.2</ele>
        <time>2022-08-12T09:49:16Z</time>
      </trkpt>
      <trkpt lat="42.4595520" lon="-2.3815080">
        <ele>368.2</ele>
        <time>2022-08-12T09:49:18Z</time>
      </trkpt>
      <trkpt lat="42.4595410" lon="-2.3815860">
        <ele>368.2</ele>
        <time>2022-08-12T09:49:19Z</time>
      </trkpt>
      <trkpt lat="42.4595400" lon="-2.3817360">
        <ele>368.0</ele>
        <time>2022-08-12T09:49:21Z</time>
      </trkpt>
      <trkpt lat="42.4595610" lon="-2.3818020">
        <ele>368.0</ele>
        <time>2022-08-12T09:49:22Z</time>
      </trkpt>
      <trkpt lat="42.4595950" lon="-2.3818520">
        <ele>368.0</ele>
        <time>2022-08-12T09:49:23Z</time>
      </trkpt>
      <trkpt lat="42.4596470" lon="-2.3818680">
        <ele>368.0</ele>
        <time>2022-08-12T09:49:24Z</time>
      </trkpt>
      <trkpt lat="42.4597570" lon="-2.3818210">
        <ele>368.0</ele>
        <time>2022-08-12T09:49:26Z</time>
      </trkpt>
      <trkpt lat="42.4597990" lon="-2.3817740">
        <ele>368.0</ele>
        <time>2022-08-12T09:49:27Z</time>
      </trkpt>
      <trkpt lat="42.4599260" lon="-2.3816210">
        <ele>367.8</ele>
        <time>2022-08-12T09:49:30Z</time>
      </trkpt>
      <trkpt lat="42.4600180" lon="-2.3815460">
        <ele>367.8</ele>
        <time>2022-08-12T09:49:32Z</time>
      </trkpt>
      <trkpt lat="42.4600760" lon="-2.3815280">
        <ele>367.8</ele>
        <time>2022-08-12T09:49:33Z</time>
      </trkpt>
      <trkpt lat="42.4601340" lon="-2.3815230">
        <ele>367.6</ele>
        <time>2022-08-12T09:49:34Z</time>
      </trkpt>
      <trkpt lat="42.4603120" lon="-2.3815450">
        <ele>367.4</ele>
        <time>2022-08-12T09:49:37Z</time>
      </trkpt>
      <trkpt lat="42.4603690" lon="-2.3815700">
        <ele>367.2</ele>
        <time>2022-08-12T09:49:38Z</time>
      </trkpt>
      <trkpt lat="42.4604210" lon="-2.3816070">
        <ele>367.2</ele>
        <time>2022-08-12T09:49:39Z</time>
      </trkpt>
      <trkpt lat="42.4605190" lon="-2.3817060">
        <ele>366.8</ele>
        <time>2022-08-12T09:49:41Z</time>
      </trkpt>
      <trkpt lat="42.4605660" lon="-2.3817600">
        <ele>366.6</ele>
        <time>2022-08-12T09:49:42Z</time>
      </trkpt>
      <trkpt lat="42.4606610" lon="-2.3818630">
        <ele>366.6</ele>
        <time>2022-08-12T09:49:44Z</time>
      </trkpt>
      <trkpt lat="42.4609380" lon="-2.3820990">
        <ele>366.2</ele>
        <time>2022-08-12T09:49:49Z</time>
      </trkpt>
      <trkpt lat="42.4612370" lon="-2.3823560">
        <ele>366.0</ele>
        <time>2022-08-12T09:49:54Z</time>
      </trkpt>
      <trkpt lat="42.4614140" lon="-2.3824860">
        <ele>365.6</ele>
        <time>2022-08-12T09:49:57Z</time>
      </trkpt>
      <trkpt lat="42.4616990" lon="-2.3827020">
        <ele>365.0</ele>
        <time>2022-08-12T09:50:02Z</time>
      </trkpt>
      <trkpt lat="42.4618220" lon="-2.3828100">
        <ele>365.0</ele>
        <time>2022-08-12T09:50:04Z</time>
      </trkpt>
      <trkpt lat="42.4619230" lon="-2.3829120">
        <ele>364.8</ele>
        <time>2022-08-12T09:50:06Z</time>
      </trkpt>
      <trkpt lat="42.4622520" lon="-2.3833250">
        <ele>364.6</ele>
        <time>2022-08-12T09:50:13Z</time>
      </trkpt>
      <trkpt lat="42.4624550" lon="-2.3836810">
        <ele>364.6</ele>
        <time>2022-08-12T09:50:18Z</time>
      </trkpt>
      <trkpt lat="42.4625300" lon="-2.3838220">
        <ele>364.6</ele>
        <time>2022-08-12T09:50:20Z</time>
      </trkpt>
      <trkpt lat="42.4626080" lon="-2.3839630">
        <ele>364.8</ele>
        <time>2022-08-12T09:50:22Z</time>
      </trkpt>
      <trkpt lat="42.4626910" lon="-2.3840970">
        <ele>365.0</ele>
        <time>2022-08-12T09:50:24Z</time>
      </trkpt>
      <trkpt lat="42.4628320" lon="-2.3843940">
        <ele>364.8</ele>
        <time>2022-08-12T09:50:28Z</time>
      </trkpt>
      <trkpt lat="42.4628570" lon="-2.3844770">
        <ele>364.8</ele>
        <time>2022-08-12T09:50:29Z</time>
      </trkpt>
      <trkpt lat="42.4629580" lon="-2.3849930">
        <ele>364.8</ele>
        <time>2022-08-12T09:50:35Z</time>
      </trkpt>
      <trkpt lat="42.4630180" lon="-2.3857700">
        <ele>364.2</ele>
        <time>2022-08-12T09:50:44Z</time>
      </trkpt>
      <trkpt lat="42.4630190" lon="-2.3858390">
        <ele>364.2</ele>
        <time>2022-08-12T09:50:45Z</time>
      </trkpt>
      <trkpt lat="42.4630200" lon="-2.3859260">
        <ele>364.2</ele>
        <time>2022-08-12T09:50:46Z</time>
      </trkpt>
      <trkpt lat="42.4630100" lon="-2.3866100">
        <ele>363.8</ele>
        <time>2022-08-12T09:50:54Z</time>
      </trkpt>
      <trkpt lat="42.4629750" lon="-2.3874110">
        <ele>364.0</ele>
        <time>2022-08-12T09:51:03Z</time>
      </trkpt>
      <trkpt lat="42.4629710" lon="-2.3874810">
        <ele>364.0</ele>
        <time>2022-08-12T09:51:04Z</time>
      </trkpt>
      <trkpt lat="42.4629520" lon="-2.3881700">
        <ele>364.2</ele>
        <time>2022-08-12T09:51:12Z</time>
      </trkpt>
      <trkpt lat="42.4629340" lon="-2.3886960">
        <ele>364.4</ele>
        <time>2022-08-12T09:51:18Z</time>
      </trkpt>
      <trkpt lat="42.4629350" lon="-2.3890350">
        <ele>364.4</ele>
        <time>2022-08-12T09:51:22Z</time>
      </trkpt>
      <trkpt lat="42.4629750" lon="-2.3896860">
        <ele>364.8</ele>
        <time>2022-08-12T09:51:30Z</time>
      </trkpt>
      <trkpt lat="42.4629920" lon="-2.3898470">
        <ele>365.0</ele>
        <time>2022-08-12T09:51:32Z</time>
      </trkpt>
      <trkpt lat="42.4630120" lon="-2.3900140">
        <ele>365.2</ele>
        <time>2022-08-12T09:51:34Z</time>
      </trkpt>
      <trkpt lat="42.4630660" lon="-2.3903440">
        <ele>365.8</ele>
        <time>2022-08-12T09:51:38Z</time>
      </trkpt>
      <trkpt lat="42.4631100" lon="-2.3905890">
        <ele>366.2</ele>
        <time>2022-08-12T09:51:41Z</time>
      </trkpt>
      <trkpt lat="42.4632280" lon="-2.3911460">
        <ele>366.2</ele>
        <time>2022-08-12T09:51:48Z</time>
      </trkpt>
      <trkpt lat="42.4632860" lon="-2.3912940">
        <ele>366.4</ele>
        <time>2022-08-12T09:51:50Z</time>
      </trkpt>
      <trkpt lat="42.4634370" lon="-2.3916390">
        <ele>366.4</ele>
        <time>2022-08-12T09:51:55Z</time>
      </trkpt>
      <trkpt lat="42.4635090" lon="-2.3917810">
        <ele>366.6</ele>
        <time>2022-08-12T09:51:57Z</time>
      </trkpt>
      <trkpt lat="42.4638690" lon="-2.3923650">
        <ele>367.2</ele>
        <time>2022-08-12T09:52:06Z</time>
      </trkpt>
      <trkpt lat="42.4639570" lon="-2.3924930">
        <ele>367.2</ele>
        <time>2022-08-12T09:52:08Z</time>
      </trkpt>
      <trkpt lat="42.4643430" lon="-2.3930670">
        <ele>367.0</ele>
        <time>2022-08-12T09:52:17Z</time>
      </trkpt>
      <trkpt lat="42.4644280" lon="-2.3931860">
        <ele>367.0</ele>
        <time>2022-08-12T09:52:19Z</time>
      </trkpt>
      <trkpt lat="42.4647010" lon="-2.3935870">
        <ele>367.0</ele>
        <time>2022-08-12T09:52:26Z</time>
      </trkpt>
      <trkpt lat="42.4649540" lon="-2.3939030">
        <ele>367.2</ele>
        <time>2022-08-12T09:52:33Z</time>
      </trkpt>
      <trkpt lat="42.4649690" lon="-2.3939360">
        <ele>367.4</ele>
        <time>2022-08-12T09:52:34Z</time>
      </trkpt>
      <trkpt lat="42.4649770" lon="-2.3940150">
        <ele>367.4</ele>
        <time>2022-08-12T09:52:36Z</time>
      </trkpt>
      <trkpt lat="42.4649500" lon="-2.3941680">
        <ele>367.4</ele>
        <time>2022-08-12T09:52:40Z</time>
      </trkpt>
      <trkpt lat="42.4650530" lon="-2.3943610">
        <ele>367.4</ele>
        <time>2022-08-12T09:52:45Z</time>
      </trkpt>
      <trkpt lat="42.4652370" lon="-2.3946870">
        <ele>367.6</ele>
        <time>2022-08-12T09:52:51Z</time>
      </trkpt>
      <trkpt lat="42.4653300" lon="-2.3948560">
        <ele>367.6</ele>
        <time>2022-08-12T09:52:54Z</time>
      </trkpt>
      <trkpt lat="42.4654340" lon="-2.3950240">
        <ele>367.6</ele>
        <time>2022-08-12T09:52:57Z</time>
      </trkpt>
      <trkpt lat="42.4657580" lon="-2.3954910">
        <ele>367.2</ele>
        <time>2022-08-12T09:53:06Z</time>
      </trkpt>
      <trkpt lat="42.4659850" lon="-2.3958070">
        <ele>367.2</ele>
        <time>2022-08-12T09:53:12Z</time>
      </trkpt>
      <trkpt lat="42.4661340" lon="-2.3959960">
        <ele>367.2</ele>
        <time>2022-08-12T09:53:16Z</time>
      </trkpt>
      <trkpt lat="42.4662110" lon="-2.3961270">
        <ele>367.2</ele>
        <time>2022-08-12T09:53:18Z</time>
      </trkpt>
      <trkpt lat="42.4663360" lon="-2.3963320">
        <ele>367.0</ele>
        <time>2022-08-12T09:53:21Z</time>
      </trkpt>
      <trkpt lat="42.4664420" lon="-2.3965280">
        <ele>366.4</ele>
        <time>2022-08-12T09:53:24Z</time>
      </trkpt>
      <trkpt lat="42.4664760" lon="-2.3966170">
        <ele>366.4</ele>
        <time>2022-08-12T09:53:25Z</time>
      </trkpt>
      <trkpt lat="42.4667020" lon="-2.3972640">
        <ele>365.8</ele>
        <time>2022-08-12T09:53:34Z</time>
      </trkpt>
      <trkpt lat="42.4668970" lon="-2.3977980">
        <ele>366.2</ele>
        <time>2022-08-12T09:53:42Z</time>
      </trkpt>
      <trkpt lat="42.4670100" lon="-2.3980680">
        <ele>366.2</ele>
        <time>2022-08-12T09:53:46Z</time>
      </trkpt>
      <trkpt lat="42.4672120" lon="-2.3986520">
        <ele>366.4</ele>
        <time>2022-08-12T09:53:54Z</time>
      </trkpt>
      <trkpt lat="42.4672510" lon="-2.3992200">
        <ele>366.4</ele>
        <time>2022-08-12T09:54:01Z</time>
      </trkpt>
      <trkpt lat="42.4672540" lon="-2.3995420">
        <ele>366.4</ele>
        <time>2022-08-12T09:54:05Z</time>
      </trkpt>
      <trkpt lat="42.4672460" lon="-2.3997820">
        <ele>366.4</ele>
        <time>2022-08-12T09:54:08Z</time>
      </trkpt>
      <trkpt lat="42.4672610" lon="-2.4005000">
        <ele>366.4</ele>
        <time>2022-08-12T09:54:17Z</time>
      </trkpt>
      <trkpt lat="42.4672660" lon="-2.4007440">
        <ele>366.4</ele>
        <time>2022-08-12T09:54:20Z</time>
      </trkpt>
      <trkpt lat="42.4672680" lon="-2.4009850">
        <ele>366.4</ele>
        <time>2022-08-12T09:54:23Z</time>
      </trkpt>
      <trkpt lat="42.4672370" lon="-2.4016310">
        <ele>366.6</ele>
        <time>2022-08-12T09:54:31Z</time>
      </trkpt>
      <trkpt lat="42.4672200" lon="-2.4019340">
        <ele>366.6</ele>
        <time>2022-08-12T09:54:35Z</time>
      </trkpt>
      <trkpt lat="42.4672130" lon="-2.4020300">
        <ele>366.6</ele>
        <time>2022-08-12T09:54:36Z</time>
      </trkpt>
      <trkpt lat="42.4671920" lon="-2.4021770">
        <ele>366.8</ele>
        <time>2022-08-12T09:54:38Z</time>
      </trkpt>
      <trkpt lat="42.4670580" lon="-2.4028450">
        <ele>366.8</ele>
        <time>2022-08-12T09:54:46Z</time>
      </trkpt>
      <trkpt lat="42.4670030" lon="-2.4032730">
        <ele>366.8</ele>
        <time>2022-08-12T09:54:52Z</time>
      </trkpt>
      <trkpt lat="42.4669470" lon="-2.4036610">
        <ele>366.8</ele>
        <time>2022-08-12T09:54:57Z</time>
      </trkpt>
      <trkpt lat="42.4669120" lon="-2.4038240">
        <ele>366.8</ele>
        <time>2022-08-12T09:54:59Z</time>
      </trkpt>
      <trkpt lat="42.4668830" lon="-2.4039570">
        <ele>366.8</ele>
        <time>2022-08-12T09:55:01Z</time>
      </trkpt>
      <trkpt lat="42.4667840" lon="-2.4042860">
        <ele>367.0</ele>
        <time>2022-08-12T09:55:06Z</time>
      </trkpt>
      <trkpt lat="42.4667390" lon="-2.4044300">
        <ele>367.4</ele>
        <time>2022-08-12T09:55:08Z</time>
      </trkpt>
      <trkpt lat="42.4666050" lon="-2.4048200">
        <ele>368.0</ele>
        <time>2022-08-12T09:55:14Z</time>
      </trkpt>
      <trkpt lat="42.4664260" lon="-2.4053750">
        <ele>368.0</ele>
        <time>2022-08-12T09:55:22Z</time>
      </trkpt>
      <trkpt lat="42.4662690" lon="-2.4059160">
        <ele>367.8</ele>
        <time>2022-08-12T09:55:29Z</time>
      </trkpt>
      <trkpt lat="42.4661130" lon="-2.4065430">
        <ele>367.8</ele>
        <time>2022-08-12T09:55:37Z</time>
      </trkpt>
      <trkpt lat="42.4659700" lon="-2.4071690">
        <ele>368.0</ele>
        <time>2022-08-12T09:55:45Z</time>
      </trkpt>
      <trkpt lat="42.4658640" lon="-2.4077800">
        <ele>368.2</ele>
        <time>2022-08-12T09:55:53Z</time>
      </trkpt>
      <trkpt lat="42.4658360" lon="-2.4079540">
        <ele>368.2</ele>
        <time>2022-08-12T09:55:55Z</time>
      </trkpt>
      <trkpt lat="42.4657810" lon="-2.4081930">
        <ele>368.4</ele>
        <time>2022-08-12T09:55:58Z</time>
      </trkpt>
      <trkpt lat="42.4657540" lon="-2.4083440">
        <ele>368.2</ele>
        <time>2022-08-12T09:56:00Z</time>
      </trkpt>
      <trkpt lat="42.4657410" lon="-2.4084180">
        <ele>368.2</ele>
        <time>2022-08-12T09:56:01Z</time>
      </trkpt>
      <trkpt lat="42.4657340" lon="-2.4085730">
        <ele>368.0</ele>
        <time>2022-08-12T09:56:03Z</time>
      </trkpt>
      <trkpt lat="42.4657400" lon="-2.4086560">
        <ele>368.0</ele>
        <time>2022-08-12T09:56:04Z</time>
      </trkpt>
      <trkpt lat="42.4657430" lon="-2.4087180">
        <ele>367.8</ele>
        <time>2022-08-12T09:56:05Z</time>
      </trkpt>
      <trkpt lat="42.4657310" lon="-2.4089750">
        <ele>367.2</ele>
        <time>2022-08-12T09:56:08Z</time>
      </trkpt>
      <trkpt lat="42.4656590" lon="-2.4093410">
        <ele>366.6</ele>
        <time>2022-08-12T09:56:12Z</time>
      </trkpt>
      <trkpt lat="42.4656410" lon="-2.4094370">
        <ele>366.6</ele>
        <time>2022-08-12T09:56:13Z</time>
      </trkpt>
      <trkpt lat="42.4655860" lon="-2.4096630">
        <ele>366.4</ele>
        <time>2022-08-12T09:56:16Z</time>
      </trkpt>
      <trkpt lat="42.4655530" lon="-2.4097590">
        <ele>366.4</ele>
        <time>2022-08-12T09:56:17Z</time>
      </trkpt>
      <trkpt lat="42.4654860" lon="-2.4099070">
        <ele>366.2</ele>
        <time>2022-08-12T09:56:19Z</time>
      </trkpt>
      <trkpt lat="42.4652270" lon="-2.4103270">
        <ele>366.4</ele>
        <time>2022-08-12T09:56:26Z</time>
      </trkpt>
      <trkpt lat="42.4649240" lon="-2.4107250">
        <ele>367.2</ele>
        <time>2022-08-12T09:56:34Z</time>
      </trkpt>
      <trkpt lat="42.4647290" lon="-2.4109830">
        <ele>367.2</ele>
        <time>2022-08-12T09:56:39Z</time>
      </trkpt>
      <trkpt lat="42.4645650" lon="-2.4111900">
        <ele>367.4</ele>
        <time>2022-08-12T09:56:43Z</time>
      </trkpt>
      <trkpt lat="42.4644730" lon="-2.4112990">
        <ele>367.4</ele>
        <time>2022-08-12T09:56:45Z</time>
      </trkpt>
      <trkpt lat="42.4643510" lon="-2.4114580">
        <ele>367.6</ele>
        <time>2022-08-12T09:56:48Z</time>
      </trkpt>
      <trkpt lat="42.4642630" lon="-2.4115970">
        <ele>367.6</ele>
        <time>2022-08-12T09:56:51Z</time>
      </trkpt>
      <trkpt lat="42.4642380" lon="-2.4116340">
        <ele>367.6</ele>
        <time>2022-08-12T09:56:52Z</time>
      </trkpt>
      <trkpt lat="42.4641720" lon="-2.4117540">
        <ele>367.8</ele>
        <time>2022-08-12T09:56:56Z</time>
      </trkpt>
      <trkpt lat="42.4641370" lon="-2.4118220">
        <ele>367.8</ele>
        <time>2022-08-12T09:56:59Z</time>
      </trkpt>
      <trkpt lat="42.4641010" lon="-2.4118730">
        <ele>367.8</ele>
        <time>2022-08-12T09:57:02Z</time>
      </trkpt>
      <trkpt lat="42.4640830" lon="-2.4119130">
        <ele>367.8</ele>
        <time>2022-08-12T09:57:04Z</time>
      </trkpt>
      <trkpt lat="42.4640450" lon="-2.4119730">
        <ele>367.8</ele>
        <time>2022-08-12T09:57:06Z</time>
      </trkpt>
      <trkpt lat="42.4640070" lon="-2.4120260">
        <ele>367.8</ele>
        <time>2022-08-12T09:57:08Z</time>
      </trkpt>
      <trkpt lat="42.4639410" lon="-2.4121000">
        <ele>367.8</ele>
        <time>2022-08-12T09:57:11Z</time>
      </trkpt>
      <trkpt lat="42.4639290" lon="-2.4121290">
        <ele>367.8</ele>
        <time>2022-08-12T09:57:12Z</time>
      </trkpt>
      <trkpt lat="42.4639400" lon="-2.4122300">
        <ele>367.8</ele>
        <time>2022-08-12T09:57:16Z</time>
      </trkpt>
      <trkpt lat="42.4639450" lon="-2.4122870">
        <ele>367.8</ele>
        <time>2022-08-12T09:57:19Z</time>
      </trkpt>
      <trkpt lat="42.4639440" lon="-2.4123010">
        <ele>368.0</ele>
        <time>2022-08-12T09:57:20Z</time>
      </trkpt>
      <trkpt lat="42.4639450" lon="-2.4123060">
        <ele>368.0</ele>
        <time>2022-08-12T09:57:21Z</time>
      </trkpt>
      <trkpt lat="42.4638980" lon="-2.4123370">
        <ele>368.2</ele>
        <time>2022-08-12T09:57:29Z</time>
      </trkpt>
      <trkpt lat="42.4638650" lon="-2.4123380">
        <ele>368.2</ele>
        <time>2022-08-12T09:57:31Z</time>
      </trkpt>
      <trkpt lat="42.4638300" lon="-2.4123570">
        <ele>368.2</ele>
        <time>2022-08-12T09:57:33Z</time>
      </trkpt>
      <trkpt lat="42.4638170" lon="-2.4124030">
        <ele>368.4</ele>
        <time>2022-08-12T09:57:35Z</time>
      </trkpt>
      <trkpt lat="42.4638200" lon="-2.4124370">
        <ele>368.6</ele>
        <time>2022-08-12T09:57:36Z</time>
      </trkpt>
      <trkpt lat="42.4638320" lon="-2.4125750">
        <ele>369.4</ele>
        <time>2022-08-12T09:57:39Z</time>
      </trkpt>
      <trkpt lat="42.4638390" lon="-2.4126230">
        <ele>369.6</ele>
        <time>2022-08-12T09:57:40Z</time>
      </trkpt>
      <trkpt lat="42.4638530" lon="-2.4127130">
        <ele>370.0</ele>
        <time>2022-08-12T09:57:42Z</time>
      </trkpt>
      <trkpt lat="42.4638790" lon="-2.4128420">
        <ele>370.6</ele>
        <time>2022-08-12T09:57:45Z</time>
      </trkpt>
      <trkpt lat="42.4639060" lon="-2.4130150">
        <ele>372.0</ele>
        <time>2022-08-12T09:57:49Z</time>
      </trkpt>
      <trkpt lat="42.4639690" lon="-2.4133760">
        <ele>372.6</ele>
        <time>2022-08-12T09:57:55Z</time>
      </trkpt>
      <trkpt lat="42.4640400" lon="-2.4137790">
        <ele>371.6</ele>
        <time>2022-08-12T09:58:00Z</time>
      </trkpt>
      <trkpt lat="42.4640470" lon="-2.4138210">
        <ele>371.4</ele>
        <time>2022-08-12T09:58:01Z</time>
      </trkpt>
      <trkpt lat="42.4640630" lon="-2.4139040">
        <ele>370.8</ele>
        <time>2022-08-12T09:58:03Z</time>
      </trkpt>
      <trkpt lat="42.4640860" lon="-2.4140020">
        <ele>369.8</ele>
        <time>2022-08-12T09:58:06Z</time>
      </trkpt>
      <trkpt lat="42.4640930" lon="-2.4140250">
        <ele>369.8</ele>
        <time>2022-08-12T09:58:07Z</time>
      </trkpt>
      <trkpt lat="42.4641090" lon="-2.4140440">
        <ele>369.6</ele>
        <time>2022-08-12T09:58:08Z</time>
      </trkpt>
      <trkpt lat="42.4641400" lon="-2.4140390">
        <ele>369.2</ele>
        <time>2022-08-12T09:58:10Z</time>
      </trkpt>
      <trkpt lat="42.4641510" lon="-2.4139260">
        <ele>368.8</ele>
        <time>2022-08-12T09:58:14Z</time>
      </trkpt>
      <trkpt lat="42.4641430" lon="-2.4138920">
        <ele>368.6</ele>
        <time>2022-08-12T09:58:15Z</time>
      </trkpt>
      <trkpt lat="42.4641270" lon="-2.4136930">
        <ele>368.4</ele>
        <time>2022-08-12T09:58:19Z</time>
      </trkpt>
      <trkpt lat="42.4641310" lon="-2.4136380">
        <ele>368.4</ele>
        <time>2022-08-12T09:58:20Z</time>
      </trkpt>
      <trkpt lat="42.4641360" lon="-2.4135800">
        <ele>368.4</ele>
        <time>2022-08-12T09:58:21Z</time>
      </trkpt>
      <trkpt lat="42.4641610" lon="-2.4134870">
        <ele>368.4</ele>
        <time>2022-08-12T09:58:23Z</time>
      </trkpt>
      <trkpt lat="42.4641790" lon="-2.4134490">
        <ele>368.4</ele>
        <time>2022-08-12T09:58:24Z</time>
      </trkpt>
      <trkpt lat="42.4641850" lon="-2.4133040">
        <ele>368.6</ele>
        <time>2022-08-12T09:58:27Z</time>
      </trkpt>
      <trkpt lat="42.4641700" lon="-2.4132740">
        <ele>368.6</ele>
        <time>2022-08-12T09:58:28Z</time>
      </trkpt>
      <trkpt lat="42.4641060" lon="-2.4131760">
        <ele>368.6</ele>
        <time>2022-08-12T09:58:32Z</time>
      </trkpt>
      <trkpt lat="42.4640960" lon="-2.4131590">
        <ele>368.4</ele>
        <time>2022-08-12T09:58:33Z</time>
      </trkpt>
      <trkpt lat="42.4640940" lon="-2.4131470">
        <ele>367.8</ele>
        <time>2022-08-12T10:01:00Z</time>
      </trkpt>
      <trkpt lat="42.4640980" lon="-2.4131530">
        <ele>367.8</ele>
        <time>2022-08-12T10:01:01Z</time>
      </trkpt>
      <trkpt lat="42.4640980" lon="-2.4131530">
        <ele>367.8</ele>
        <time>2022-08-12T10:01:07Z</time>
      </trkpt>
      <trkpt lat="42.4640990" lon="-2.4131550">
        <ele>367.8</ele>
        <time>2022-08-12T10:01:08Z</time>
      </trkpt>
      <trkpt lat="42.4641080" lon="-2.4131860">
        <ele>367.8</ele>
        <time>2022-08-12T10:01:10Z</time>
      </trkpt>
      <trkpt lat="42.4641220" lon="-2.4132150">
        <ele>368.0</ele>
        <time>2022-08-12T10:01:12Z</time>
      </trkpt>
      <trkpt lat="42.4641690" lon="-2.4133190">
        <ele>368.0</ele>
        <time>2022-08-12T10:01:17Z</time>
      </trkpt>
      <trkpt lat="42.4641730" lon="-2.4133410">
        <ele>368.0</ele>
        <time>2022-08-12T10:01:18Z</time>
      </trkpt>
      <trkpt lat="42.4641650" lon="-2.4133920">
        <ele>368.0</ele>
        <time>2022-08-12T10:01:20Z</time>
      </trkpt>
      <trkpt lat="42.4641190" lon="-2.4134780">
        <ele>368.0</ele>
        <time>2022-08-12T10:01:23Z</time>
      </trkpt>
      <trkpt lat="42.4641170" lon="-2.4136140">
        <ele>368.4</ele>
        <time>2022-08-12T10:01:27Z</time>
      </trkpt>
      <trkpt lat="42.4641160" lon="-2.4136540">
        <ele>368.4</ele>
        <time>2022-08-12T10:01:28Z</time>
      </trkpt>
      <trkpt lat="42.4640770" lon="-2.4137700">
        <ele>368.4</ele>
        <time>2022-08-12T10:01:31Z</time>
      </trkpt>
      <trkpt lat="42.4640570" lon="-2.4137930">
        <ele>368.6</ele>
        <time>2022-08-12T10:01:32Z</time>
      </trkpt>
      <trkpt lat="42.4640390" lon="-2.4138020">
        <ele>368.6</ele>
        <time>2022-08-12T10:01:33Z</time>
      </trkpt>
      <trkpt lat="42.4640070" lon="-2.4137760">
        <ele>368.6</ele>
        <time>2022-08-12T10:01:36Z</time>
      </trkpt>
      <trkpt lat="42.4639760" lon="-2.4135890">
        <ele>369.2</ele>
        <time>2022-08-12T10:01:42Z</time>
      </trkpt>
      <trkpt lat="42.4639650" lon="-2.4135090">
        <ele>369.6</ele>
        <time>2022-08-12T10:01:44Z</time>
      </trkpt>
      <trkpt lat="42.4639500" lon="-2.4133960">
        <ele>370.2</ele>
        <time>2022-08-12T10:01:47Z</time>
      </trkpt>
      <trkpt lat="42.4639350" lon="-2.4133230">
        <ele>370.4</ele>
        <time>2022-08-12T10:01:49Z</time>
      </trkpt>
      <trkpt lat="42.4639220" lon="-2.4132750">
        <ele>370.6</ele>
        <time>2022-08-12T10:01:50Z</time>
      </trkpt>
      <trkpt lat="42.4639130" lon="-2.4132060">
        <ele>371.2</ele>
        <time>2022-08-12T10:01:52Z</time>
      </trkpt>
      <trkpt lat="42.4638940" lon="-2.4130920">
        <ele>371.6</ele>
        <time>2022-08-12T10:01:55Z</time>
      </trkpt>
      <trkpt lat="42.4638890" lon="-2.4130540">
        <ele>371.8</ele>
        <time>2022-08-12T10:01:56Z</time>
      </trkpt>
      <trkpt lat="42.4638830" lon="-2.4130180">
        <ele>372.2</ele>
        <time>2022-08-12T10:01:58Z</time>
      </trkpt>
      <trkpt lat="42.4638800" lon="-2.4130140">
        <ele>372.6</ele>
        <time>2022-08-12T10:01:59Z</time>
      </trkpt>
      <trkpt lat="42.4638830" lon="-2.4130120">
        <ele>372.8</ele>
        <time>2022-08-12T10:04:12Z</time>
      </trkpt>
      <trkpt lat="42.4639200" lon="-2.4132600">
        <ele>372.8</ele>
        <time>2022-08-12T10:04:17Z</time>
      </trkpt>
      <trkpt lat="42.4639980" lon="-2.4136440">
        <ele>372.2</ele>
        <time>2022-08-12T10:04:22Z</time>
      </trkpt>
      <trkpt lat="42.4640080" lon="-2.4137140">
        <ele>372.0</ele>
        <time>2022-08-12T10:04:23Z</time>
      </trkpt>
      <trkpt lat="42.4640120" lon="-2.4137780">
        <ele>371.8</ele>
        <time>2022-08-12T10:04:24Z</time>
      </trkpt>
      <trkpt lat="42.4640340" lon="-2.4138970">
        <ele>371.4</ele>
        <time>2022-08-12T10:04:26Z</time>
      </trkpt>
      <trkpt lat="42.4640450" lon="-2.4139540">
        <ele>371.0</ele>
        <time>2022-08-12T10:04:27Z</time>
      </trkpt>
      <trkpt lat="42.4640580" lon="-2.4140100">
        <ele>370.8</ele>
        <time>2022-08-12T10:04:28Z</time>
      </trkpt>
      <trkpt lat="42.4640810" lon="-2.4141530">
        <ele>370.2</ele>
        <time>2022-08-12T10:04:31Z</time>
      </trkpt>
      <trkpt lat="42.4640760" lon="-2.4141880">
        <ele>370.0</ele>
        <time>2022-08-12T10:04:32Z</time>
      </trkpt>
      <trkpt lat="42.4640670" lon="-2.4142160">
        <ele>370.0</ele>
        <time>2022-08-12T10:04:33Z</time>
      </trkpt>
      <trkpt lat="42.4640530" lon="-2.4142300">
        <ele>369.8</ele>
        <time>2022-08-12T10:04:34Z</time>
      </trkpt>
      <trkpt lat="42.4640350" lon="-2.4142350">
        <ele>369.6</ele>
        <time>2022-08-12T10:04:35Z</time>
      </trkpt>
      <trkpt lat="42.4640180" lon="-2.4142370">
        <ele>369.6</ele>
        <time>2022-08-12T10:04:36Z</time>
      </trkpt>
      <trkpt lat="42.4639640" lon="-2.4142240">
        <ele>369.4</ele>
        <time>2022-08-12T10:04:38Z</time>
      </trkpt>
      <trkpt lat="42.4638970" lon="-2.4141950">
        <ele>369.2</ele>
        <time>2022-08-12T10:04:40Z</time>
      </trkpt>
      <trkpt lat="42.4638660" lon="-2.4141820">
        <ele>369.2</ele>
        <time>2022-08-12T10:04:41Z</time>
      </trkpt>
      <trkpt lat="42.4638170" lon="-2.4141620">
        <ele>369.0</ele>
        <time>2022-08-12T10:04:43Z</time>
      </trkpt>
      <trkpt lat="42.4636910" lon="-2.4140970">
        <ele>369.0</ele>
        <time>2022-08-12T10:04:48Z</time>
      </trkpt>
      <trkpt lat="42.4635910" lon="-2.4140360">
        <ele>369.0</ele>
        <time>2022-08-12T10:04:52Z</time>
      </trkpt>
      <trkpt lat="42.4635540" lon="-2.4140210">
        <ele>369.0</ele>
        <time>2022-08-12T10:04:53Z</time>
      </trkpt>
      <trkpt lat="42.4635190" lon="-2.4140000">
        <ele>369.0</ele>
        <time>2022-08-12T10:04:54Z</time>
      </trkpt>
      <trkpt lat="42.4634500" lon="-2.4139540">
        <ele>369.0</ele>
        <time>2022-08-12T10:04:56Z</time>
      </trkpt>
      <trkpt lat="42.4634160" lon="-2.4139260">
        <ele>369.2</ele>
        <time>2022-08-12T10:04:57Z</time>
      </trkpt>
      <trkpt lat="42.4633140" lon="-2.4138500">
        <ele>369.4</ele>
        <time>2022-08-12T10:05:00Z</time>
      </trkpt>
      <trkpt lat="42.4632550" lon="-2.4138270">
        <ele>369.6</ele>
        <time>2022-08-12T10:05:02Z</time>
      </trkpt>
      <trkpt lat="42.4631060" lon="-2.4138060">
        <ele>369.8</ele>
        <time>2022-08-12T10:05:06Z</time>
      </trkpt>
      <trkpt lat="42.4629500" lon="-2.4138290">
        <ele>370.2</ele>
        <time>2022-08-12T10:05:10Z</time>
      </trkpt>
      <trkpt lat="42.4628430" lon="-2.4138650">
        <ele>370.2</ele>
        <time>2022-08-12T10:05:12Z</time>
      </trkpt>
      <trkpt lat="42.4627220" lon="-2.4139220">
        <ele>370.4</ele>
        <time>2022-08-12T10:05:15Z</time>
      </trkpt>
      <trkpt lat="42.4625990" lon="-2.4139270">
        <ele>370.6</ele>
        <time>2022-08-12T10:05:18Z</time>
      </trkpt>
      <trkpt lat="42.4625120" lon="-2.4139330">
        <ele>370.8</ele>
        <time>2022-08-12T10:05:20Z</time>
      </trkpt>
      <trkpt lat="42.4624300" lon="-2.4139490">
        <ele>371.2</ele>
        <time>2022-08-12T10:05:23Z</time>
      </trkpt>
      <trkpt lat="42.4622980" lon="-2.4139680">
        <ele>371.4</ele>
        <time>2022-08-12T10:05:26Z</time>
      </trkpt>
      <trkpt lat="42.4621710" lon="-2.4140070">
        <ele>371.4</ele>
        <time>2022-08-12T10:05:29Z</time>
      </trkpt>
      <trkpt lat="42.4619790" lon="-2.4140930">
        <ele>371.4</ele>
        <time>2022-08-12T10:05:33Z</time>
      </trkpt>
      <trkpt lat="42.4619390" lon="-2.4141100">
        <ele>371.2</ele>
        <time>2022-08-12T10:05:34Z</time>
      </trkpt>
      <trkpt lat="42.4615750" lon="-2.4143000">
        <ele>371.6</ele>
        <time>2022-08-12T10:05:42Z</time>
      </trkpt>
      <trkpt lat="42.4614490" lon="-2.4143660">
        <ele>371.6</ele>
        <time>2022-08-12T10:05:45Z</time>
      </trkpt>
      <trkpt lat="42.4612030" lon="-2.4145190">
        <ele>372.0</ele>
        <time>2022-08-12T10:05:51Z</time>
      </trkpt>
      <trkpt lat="42.4611640" lon="-2.4145410">
        <ele>372.2</ele>
        <time>2022-08-12T10:05:52Z</time>
      </trkpt>
      <trkpt lat="42.4610200" lon="-2.4145920">
        <ele>372.4</ele>
        <time>2022-08-12T10:05:56Z</time>
      </trkpt>
      <trkpt lat="42.4608700" lon="-2.4146370">
        <ele>372.8</ele>
        <time>2022-08-12T10:05:59Z</time>
      </trkpt>
      <trkpt lat="42.4607360" lon="-2.4146700">
        <ele>373.0</ele>
        <time>2022-08-12T10:06:02Z</time>
      </trkpt>
      <trkpt lat="42.4602700" lon="-2.4147550">
        <ele>373.0</ele>
        <time>2022-08-12T10:06:12Z</time>
      </trkpt>
      <trkpt lat="42.4599590" lon="-2.4147820">
        <ele>373.8</ele>
        <time>2022-08-12T10:06:19Z</time>
      </trkpt>
      <trkpt lat="42.4598710" lon="-2.4147870">
        <ele>373.8</ele>
        <time>2022-08-12T10:06:21Z</time>
      </trkpt>
      <trkpt lat="42.4597750" lon="-2.4147950">
        <ele>374.0</ele>
        <time>2022-08-12T10:06:24Z</time>
      </trkpt>
      <trkpt lat="42.4597250" lon="-2.4147960">
        <ele>374.2</ele>
        <time>2022-08-12T10:06:26Z</time>
      </trkpt>
      <trkpt lat="42.4596840" lon="-2.4148130">
        <ele>374.2</ele>
        <time>2022-08-12T10:06:27Z</time>
      </trkpt>
      <trkpt lat="42.4595540" lon="-2.4148850">
        <ele>374.6</ele>
        <time>2022-08-12T10:06:30Z</time>
      </trkpt>
      <trkpt lat="42.4594850" lon="-2.4149220">
        <ele>374.8</ele>
        <time>2022-08-12T10:06:32Z</time>
      </trkpt>
      <trkpt lat="42.4594030" lon="-2.4149860">
        <ele>375.0</ele>
        <time>2022-08-12T10:06:34Z</time>
      </trkpt>
      <trkpt lat="42.4593580" lon="-2.4150160">
        <ele>375.0</ele>
        <time>2022-08-12T10:06:35Z</time>
      </trkpt>
      <trkpt lat="42.4592090" lon="-2.4151050">
        <ele>375.0</ele>
        <time>2022-08-12T10:06:39Z</time>
      </trkpt>
      <trkpt lat="42.4590480" lon="-2.4151790">
        <ele>374.8</ele>
        <time>2022-08-12T10:06:43Z</time>
      </trkpt>
      <trkpt lat="42.4589640" lon="-2.4152190">
        <ele>374.8</ele>
        <time>2022-08-12T10:06:45Z</time>
      </trkpt>
      <trkpt lat="42.4588360" lon="-2.4152790">
        <ele>374.8</ele>
        <time>2022-08-12T10:06:48Z</time>
      </trkpt>
      <trkpt lat="42.4585330" lon="-2.4154800">
        <ele>375.4</ele>
        <time>2022-08-12T10:06:55Z</time>
      </trkpt>
      <trkpt lat="42.4585000" lon="-2.4155100">
        <ele>375.4</ele>
        <time>2022-08-12T10:06:56Z</time>
      </trkpt>
      <trkpt lat="42.4584710" lon="-2.4155380">
        <ele>375.4</ele>
        <time>2022-08-12T10:06:57Z</time>
      </trkpt>
      <trkpt lat="42.4584360" lon="-2.4155890">
        <ele>375.6</ele>
        <time>2022-08-12T10:06:59Z</time>
      </trkpt>
      <trkpt lat="42.4584310" lon="-2.4156080">
        <ele>375.6</ele>
        <time>2022-08-12T10:07:00Z</time>
      </trkpt>
      <trkpt lat="42.4584020" lon="-2.4156770">
        <ele>375.8</ele>
        <time>2022-08-12T10:07:02Z</time>
      </trkpt>
      <trkpt lat="42.4582940" lon="-2.4158210">
        <ele>376.0</ele>
        <time>2022-08-12T10:07:05Z</time>
      </trkpt>
      <trkpt lat="42.4582600" lon="-2.4158710">
        <ele>376.0</ele>
        <time>2022-08-12T10:07:06Z</time>
      </trkpt>
      <trkpt lat="42.4580650" lon="-2.4161320">
        <ele>376.4</ele>
        <time>2022-08-12T10:07:11Z</time>
      </trkpt>
      <trkpt lat="42.4580340" lon="-2.4161770">
        <ele>376.4</ele>
        <time>2022-08-12T10:07:12Z</time>
      </trkpt>
      <trkpt lat="42.4578130" lon="-2.4163840">
        <ele>377.0</ele>
        <time>2022-08-12T10:07:17Z</time>
      </trkpt>
      <trkpt lat="42.4576670" lon="-2.4165190">
        <ele>377.0</ele>
        <time>2022-08-12T10:07:20Z</time>
      </trkpt>
      <trkpt lat="42.4576390" lon="-2.4165660">
        <ele>377.0</ele>
        <time>2022-08-12T10:07:21Z</time>
      </trkpt>
      <trkpt lat="42.4576210" lon="-2.4166040">
        <ele>377.0</ele>
        <time>2022-08-12T10:07:22Z</time>
      </trkpt>
      <trkpt lat="42.4575790" lon="-2.4166510">
        <ele>377.0</ele>
        <time>2022-08-12T10:07:23Z</time>
      </trkpt>
      <trkpt lat="42.4575180" lon="-2.4167880">
        <ele>377.0</ele>
        <time>2022-08-12T10:07:26Z</time>
      </trkpt>
      <trkpt lat="42.4574900" lon="-2.4168820">
        <ele>377.0</ele>
        <time>2022-08-12T10:07:28Z</time>
      </trkpt>
      <trkpt lat="42.4574470" lon="-2.4169720">
        <ele>377.0</ele>
        <time>2022-08-12T10:07:30Z</time>
      </trkpt>
      <trkpt lat="42.4574240" lon="-2.4170160">
        <ele>377.0</ele>
        <time>2022-08-12T10:07:31Z</time>
      </trkpt>
      <trkpt lat="42.4573500" lon="-2.4171960">
        <ele>377.6</ele>
        <time>2022-08-12T10:07:35Z</time>
      </trkpt>
      <trkpt lat="42.4573400" lon="-2.4172260">
        <ele>377.8</ele>
        <time>2022-08-12T10:07:36Z</time>
      </trkpt>
      <trkpt lat="42.4571950" lon="-2.4174460">
        <ele>378.0</ele>
        <time>2022-08-12T10:07:42Z</time>
      </trkpt>
      <trkpt lat="42.4571480" lon="-2.4175120">
        <ele>378.2</ele>
        <time>2022-08-12T10:07:45Z</time>
      </trkpt>
      <trkpt lat="42.4571250" lon="-2.4175360">
        <ele>378.2</ele>
        <time>2022-08-12T10:07:46Z</time>
      </trkpt>
      <trkpt lat="42.4569520" lon="-2.4176920">
        <ele>378.2</ele>
        <time>2022-08-12T10:07:51Z</time>
      </trkpt>
      <trkpt lat="42.4569140" lon="-2.4177340">
        <ele>378.2</ele>
        <time>2022-08-12T10:07:52Z</time>
      </trkpt>
      <trkpt lat="42.4567760" lon="-2.4178450">
        <ele>378.4</ele>
        <time>2022-08-12T10:07:55Z</time>
      </trkpt>
      <trkpt lat="42.4567430" lon="-2.4178750">
        <ele>378.4</ele>
        <time>2022-08-12T10:07:56Z</time>
      </trkpt>
      <trkpt lat="42.4566110" lon="-2.4179890">
        <ele>378.4</ele>
        <time>2022-08-12T10:07:59Z</time>
      </trkpt>
      <trkpt lat="42.4564830" lon="-2.4180790">
        <ele>378.4</ele>
        <time>2022-08-12T10:08:02Z</time>
      </trkpt>
      <trkpt lat="42.4561970" lon="-2.4182110">
        <ele>378.6</ele>
        <time>2022-08-12T10:08:10Z</time>
      </trkpt>
      <trkpt lat="42.4560390" lon="-2.4182680">
        <ele>379.0</ele>
        <time>2022-08-12T10:08:14Z</time>
      </trkpt>
      <trkpt lat="42.4559190" lon="-2.4182910">
        <ele>379.0</ele>
        <time>2022-08-12T10:08:17Z</time>
      </trkpt>
      <trkpt lat="42.4558910" lon="-2.4183000">
        <ele>379.0</ele>
        <time>2022-08-12T10:08:18Z</time>
      </trkpt>
      <trkpt lat="42.4558050" lon="-2.4183690">
        <ele>379.0</ele>
        <time>2022-08-12T10:08:23Z</time>
      </trkpt>
      <trkpt lat="42.4557910" lon="-2.4183810">
        <ele>379.0</ele>
        <time>2022-08-12T10:08:24Z</time>
      </trkpt>
      <trkpt lat="42.4557630" lon="-2.4183960">
        <ele>379.2</ele>
        <time>2022-08-12T10:08:26Z</time>
      </trkpt>
      <trkpt lat="42.4556940" lon="-2.4184030">
        <ele>379.4</ele>
        <time>2022-08-12T10:08:29Z</time>
      </trkpt>
      <trkpt lat="42.4555910" lon="-2.4184410">
        <ele>379.4</ele>
        <time>2022-08-12T10:08:32Z</time>
      </trkpt>
      <trkpt lat="42.4555500" lon="-2.4184710">
        <ele>379.4</ele>
        <time>2022-08-12T10:08:33Z</time>
      </trkpt>
      <trkpt lat="42.4552720" lon="-2.4186740">
        <ele>379.0</ele>
        <time>2022-08-12T10:08:40Z</time>
      </trkpt>
      <trkpt lat="42.4551230" lon="-2.4187560">
        <ele>378.8</ele>
        <time>2022-08-12T10:08:45Z</time>
      </trkpt>
      <trkpt lat="42.4551050" lon="-2.4187510">
        <ele>378.8</ele>
        <time>2022-08-12T10:08:46Z</time>
      </trkpt>
      <trkpt lat="42.4550870" lon="-2.4187160">
        <ele>378.8</ele>
        <time>2022-08-12T10:08:48Z</time>
      </trkpt>
      <trkpt lat="42.4550830" lon="-2.4186520">
        <ele>378.8</ele>
        <time>2022-08-12T10:08:50Z</time>
      </trkpt>
      <trkpt lat="42.4550570" lon="-2.4185880">
        <ele>378.8</ele>
        <time>2022-08-12T10:08:52Z</time>
      </trkpt>
      <trkpt lat="42.4549950" lon="-2.4185520">
        <ele>379.0</ele>
        <time>2022-08-12T10:08:54Z</time>
      </trkpt>
      <trkpt lat="42.4548540" lon="-2.4185100">
        <ele>379.4</ele>
        <time>2022-08-12T10:08:58Z</time>
      </trkpt>
      <trkpt lat="42.4548170" lon="-2.4185140">
        <ele>379.4</ele>
        <time>2022-08-12T10:08:59Z</time>
      </trkpt>
      <trkpt lat="42.4546020" lon="-2.4185360">
        <ele>379.6</ele>
        <time>2022-08-12T10:09:04Z</time>
      </trkpt>
      <trkpt lat="42.4545610" lon="-2.4185360">
        <ele>379.8</ele>
        <time>2022-08-12T10:09:05Z</time>
      </trkpt>
      <trkpt lat="42.4543930" lon="-2.4185390">
        <ele>380.0</ele>
        <time>2022-08-12T10:09:09Z</time>
      </trkpt>
      <trkpt lat="42.4542720" lon="-2.4185700">
        <ele>380.2</ele>
        <time>2022-08-12T10:09:12Z</time>
      </trkpt>
      <trkpt lat="42.4540310" lon="-2.4186850">
        <ele>380.8</ele>
        <time>2022-08-12T10:09:18Z</time>
      </trkpt>
      <trkpt lat="42.4538930" lon="-2.4187940">
        <ele>381.0</ele>
        <time>2022-08-12T10:09:23Z</time>
      </trkpt>
      <trkpt lat="42.4538750" lon="-2.4188140">
        <ele>381.2</ele>
        <time>2022-08-12T10:09:24Z</time>
      </trkpt>
      <trkpt lat="42.4537640" lon="-2.4189320">
        <ele>381.4</ele>
        <time>2022-08-12T10:09:28Z</time>
      </trkpt>
      <trkpt lat="42.4536800" lon="-2.4190140">
        <ele>381.4</ele>
        <time>2022-08-12T10:09:30Z</time>
      </trkpt>
      <trkpt lat="42.4535800" lon="-2.4191280">
        <ele>381.4</ele>
        <time>2022-08-12T10:09:33Z</time>
      </trkpt>
      <trkpt lat="42.4535160" lon="-2.4192230">
        <ele>381.6</ele>
        <time>2022-08-12T10:09:35Z</time>
      </trkpt>
      <trkpt lat="42.4534960" lon="-2.4192670">
        <ele>381.6</ele>
        <time>2022-08-12T10:09:36Z</time>
      </trkpt>
      <trkpt lat="42.4533600" lon="-2.4194810">
        <ele>382.0</ele>
        <time>2022-08-12T10:09:42Z</time>
      </trkpt>
      <trkpt lat="42.4533150" lon="-2.4195150">
        <ele>382.2</ele>
        <time>2022-08-12T10:09:45Z</time>
      </trkpt>
      <trkpt lat="42.4532310" lon="-2.4195800">
        <ele>382.2</ele>
        <time>2022-08-12T10:09:48Z</time>
      </trkpt>
      <trkpt lat="42.4531030" lon="-2.4197600">
        <ele>382.4</ele>
        <time>2022-08-12T10:09:54Z</time>
      </trkpt>
      <trkpt lat="42.4529650" lon="-2.4199020">
        <ele>382.4</ele>
        <time>2022-08-12T10:10:00Z</time>
      </trkpt>
      <trkpt lat="42.4527110" lon="-2.4201280">
        <ele>382.4</ele>
        <time>2022-08-12T10:10:06Z</time>
      </trkpt>
      <trkpt lat="42.4525540" lon="-2.4202910">
        <ele>382.6</ele>
        <time>2022-08-12T10:10:10Z</time>
      </trkpt>
      <trkpt lat="42.4524770" lon="-2.4203510">
        <ele>382.6</ele>
        <time>2022-08-12T10:10:12Z</time>
      </trkpt>
      <trkpt lat="42.4522420" lon="-2.4205490">
        <ele>383.0</ele>
        <time>2022-08-12T10:10:18Z</time>
      </trkpt>
      <trkpt lat="42.4521060" lon="-2.4207180">
        <ele>383.2</ele>
        <time>2022-08-12T10:10:23Z</time>
      </trkpt>
      <trkpt lat="42.4520890" lon="-2.4207520">
        <ele>383.2</ele>
        <time>2022-08-12T10:10:24Z</time>
      </trkpt>
      <trkpt lat="42.4520870" lon="-2.4207810">
        <ele>383.4</ele>
        <time>2022-08-12T10:10:25Z</time>
      </trkpt>
      <trkpt lat="42.4521020" lon="-2.4209100">
        <ele>383.8</ele>
        <time>2022-08-12T10:10:28Z</time>
      </trkpt>
      <trkpt lat="42.4521250" lon="-2.4209910">
        <ele>384.2</ele>
        <time>2022-08-12T10:10:30Z</time>
      </trkpt>
      <trkpt lat="42.4521730" lon="-2.4211090">
        <ele>384.6</ele>
        <time>2022-08-12T10:10:33Z</time>
      </trkpt>
      <trkpt lat="42.4522460" lon="-2.4212620">
        <ele>385.2</ele>
        <time>2022-08-12T10:10:37Z</time>
      </trkpt>
      <trkpt lat="42.4522650" lon="-2.4212990">
        <ele>385.4</ele>
        <time>2022-08-12T10:10:38Z</time>
      </trkpt>
      <trkpt lat="42.4523590" lon="-2.4214780">
        <ele>386.0</ele>
        <time>2022-08-12T10:10:43Z</time>
      </trkpt>
      <trkpt lat="42.4523930" lon="-2.4215520">
        <ele>386.0</ele>
        <time>2022-08-12T10:10:45Z</time>
      </trkpt>
      <trkpt lat="42.4524600" lon="-2.4216890">
        <ele>386.4</ele>
        <time>2022-08-12T10:10:49Z</time>
      </trkpt>
      <trkpt lat="42.4525020" lon="-2.4217860">
        <ele>387.0</ele>
        <time>2022-08-12T10:10:52Z</time>
      </trkpt>
      <trkpt lat="42.4525300" lon="-2.4218470">
        <ele>387.4</ele>
        <time>2022-08-12T10:10:54Z</time>
      </trkpt>
      <trkpt lat="42.4526000" lon="-2.4219880">
        <ele>388.2</ele>
        <time>2022-08-12T10:10:59Z</time>
      </trkpt>
      <trkpt lat="42.4526290" lon="-2.4220420">
        <ele>388.6</ele>
        <time>2022-08-12T10:11:01Z</time>
      </trkpt>
      <trkpt lat="42.4526860" lon="-2.4221480">
        <ele>389.8</ele>
        <time>2022-08-12T10:11:05Z</time>
      </trkpt>
      <trkpt lat="42.4526920" lon="-2.4221800">
        <ele>390.2</ele>
        <time>2022-08-12T10:11:06Z</time>
      </trkpt>
      <trkpt lat="42.4526940" lon="-2.4222490">
        <ele>390.8</ele>
        <time>2022-08-12T10:11:08Z</time>
      </trkpt>
      <trkpt lat="42.4526770" lon="-2.4222890">
        <ele>391.4</ele>
        <time>2022-08-12T10:11:09Z</time>
      </trkpt>
      <trkpt lat="42.4526420" lon="-2.4223550">
        <ele>392.2</ele>
        <time>2022-08-12T10:11:11Z</time>
      </trkpt>
      <trkpt lat="42.4524820" lon="-2.4224880">
        <ele>392.6</ele>
        <time>2022-08-12T10:11:17Z</time>
      </trkpt>
      <trkpt lat="42.4523760" lon="-2.4226160">
        <ele>392.6</ele>
        <time>2022-08-12T10:11:22Z</time>
      </trkpt>
      <trkpt lat="42.4523790" lon="-2.4226480">
        <ele>392.6</ele>
        <time>2022-08-12T10:11:23Z</time>
      </trkpt>
      <trkpt lat="42.4524160" lon="-2.4227480">
        <ele>392.8</ele>
        <time>2022-08-12T10:11:26Z</time>
      </trkpt>
      <trkpt lat="42.4525000" lon="-2.4230110">
        <ele>393.2</ele>
        <time>2022-08-12T10:11:33Z</time>
      </trkpt>
      <trkpt lat="42.4525800" lon="-2.4232700">
        <ele>394.0</ele>
        <time>2022-08-12T10:11:39Z</time>
      </trkpt>
      <trkpt lat="42.4525930" lon="-2.4233140">
        <ele>394.2</ele>
        <time>2022-08-12T10:11:40Z</time>
      </trkpt>
      <trkpt lat="42.4526840" lon="-2.4235580">
        <ele>395.2</ele>
        <time>2022-08-12T10:11:46Z</time>
      </trkpt>
      <trkpt lat="42.4527420" lon="-2.4236050">
        <ele>395.2</ele>
        <time>2022-08-12T10:11:48Z</time>
      </trkpt>
      <trkpt lat="42.4528110" lon="-2.4236400">
        <ele>395.4</ele>
        <time>2022-08-12T10:11:50Z</time>
      </trkpt>
      <trkpt lat="42.4528800" lon="-2.4236980">
        <ele>395.6</ele>
        <time>2022-08-12T10:11:52Z</time>
      </trkpt>
      <trkpt lat="42.4529270" lon="-2.4237900">
        <ele>395.6</ele>
        <time>2022-08-12T10:11:54Z</time>
      </trkpt>
      <trkpt lat="42.4529370" lon="-2.4239030">
        <ele>395.6</ele>
        <time>2022-08-12T10:11:56Z</time>
      </trkpt>
      <trkpt lat="42.4529230" lon="-2.4239970">
        <ele>395.6</ele>
        <time>2022-08-12T10:11:58Z</time>
      </trkpt>
      <trkpt lat="42.4529240" lon="-2.4240970">
        <ele>395.6</ele>
        <time>2022-08-12T10:12:00Z</time>
      </trkpt>
      <trkpt lat="42.4529430" lon="-2.4241470">
        <ele>395.6</ele>
        <time>2022-08-12T10:12:01Z</time>
      </trkpt>
      <trkpt lat="42.4529680" lon="-2.4242000">
        <ele>395.6</ele>
        <time>2022-08-12T10:12:02Z</time>
      </trkpt>
      <trkpt lat="42.4530430" lon="-2.4243740">
        <ele>395.6</ele>
        <time>2022-08-12T10:12:05Z</time>
      </trkpt>
      <trkpt lat="42.4530650" lon="-2.4244150">
        <ele>395.6</ele>
        <time>2022-08-12T10:12:06Z</time>
      </trkpt>
      <trkpt lat="42.4531520" lon="-2.4245720">
        <ele>395.6</ele>
        <time>2022-08-12T10:12:09Z</time>
      </trkpt>
      <trkpt lat="42.4533130" lon="-2.4248970">
        <ele>395.8</ele>
        <time>2022-08-12T10:12:15Z</time>
      </trkpt>
      <trkpt lat="42.4533860" lon="-2.4250640">
        <ele>395.8</ele>
        <time>2022-08-12T10:12:18Z</time>
      </trkpt>
      <trkpt lat="42.4534110" lon="-2.4251050">
        <ele>395.8</ele>
        <time>2022-08-12T10:12:19Z</time>
      </trkpt>
      <trkpt lat="42.4534480" lon="-2.4251540">
        <ele>395.8</ele>
        <time>2022-08-12T10:12:20Z</time>
      </trkpt>
      <trkpt lat="42.4535060" lon="-2.4252210">
        <ele>395.8</ele>
        <time>2022-08-12T10:12:22Z</time>
      </trkpt>
      <trkpt lat="42.4535490" lon="-2.4252790">
        <ele>395.8</ele>
        <time>2022-08-12T10:12:23Z</time>
      </trkpt>
      <trkpt lat="42.4535700" lon="-2.4253410">
        <ele>395.8</ele>
        <time>2022-08-12T10:12:24Z</time>
      </trkpt>
      <trkpt lat="42.4536190" lon="-2.4255190">
        <ele>395.6</ele>
        <time>2022-08-12T10:12:27Z</time>
      </trkpt>
      <trkpt lat="42.4536830" lon="-2.4256420">
        <ele>395.6</ele>
        <time>2022-08-12T10:12:29Z</time>
      </trkpt>
      <trkpt lat="42.4538550" lon="-2.4260180">
        <ele>395.8</ele>
        <time>2022-08-12T10:12:36Z</time>
      </trkpt>
      <trkpt lat="42.4538750" lon="-2.4260690">
        <ele>395.8</ele>
        <time>2022-08-12T10:12:37Z</time>
      </trkpt>
      <trkpt lat="42.4539770" lon="-2.4262630">
        <ele>396.0</ele>
        <time>2022-08-12T10:12:41Z</time>
      </trkpt>
      <trkpt lat="42.4540030" lon="-2.4263160">
        <ele>396.0</ele>
        <time>2022-08-12T10:12:42Z</time>
      </trkpt>
      <trkpt lat="42.4540940" lon="-2.4264820">
        <ele>396.0</ele>
        <time>2022-08-12T10:12:45Z</time>
      </trkpt>
      <trkpt lat="42.4541180" lon="-2.4265460">
        <ele>396.0</ele>
        <time>2022-08-12T10:12:46Z</time>
      </trkpt>
      <trkpt lat="42.4541720" lon="-2.4266690">
        <ele>395.8</ele>
        <time>2022-08-12T10:12:48Z</time>
      </trkpt>
      <trkpt lat="42.4543720" lon="-2.4270800">
        <ele>395.8</ele>
        <time>2022-08-12T10:12:55Z</time>
      </trkpt>
      <trkpt lat="42.4544560" lon="-2.4272460">
        <ele>395.6</ele>
        <time>2022-08-12T10:12:58Z</time>
      </trkpt>
      <trkpt lat="42.4545170" lon="-2.4273620">
        <ele>395.6</ele>
        <time>2022-08-12T10:13:00Z</time>
      </trkpt>
      <trkpt lat="42.4546090" lon="-2.4275420">
        <ele>395.4</ele>
        <time>2022-08-12T10:13:03Z</time>
      </trkpt>
      <trkpt lat="42.4546600" lon="-2.4276470">
        <ele>395.4</ele>
        <time>2022-08-12T10:13:05Z</time>
      </trkpt>
      <trkpt lat="42.4547300" lon="-2.4277800">
        <ele>395.2</ele>
        <time>2022-08-12T10:13:07Z</time>
      </trkpt>
      <trkpt lat="42.4547710" lon="-2.4279050">
        <ele>395.2</ele>
        <time>2022-08-12T10:13:09Z</time>
      </trkpt>
      <trkpt lat="42.4548300" lon="-2.4279960">
        <ele>395.0</ele>
        <time>2022-08-12T10:13:11Z</time>
      </trkpt>
      <trkpt lat="42.4548690" lon="-2.4280100">
        <ele>395.0</ele>
        <time>2022-08-12T10:13:12Z</time>
      </trkpt>
      <trkpt lat="42.4549490" lon="-2.4280220">
        <ele>394.6</ele>
        <time>2022-08-12T10:13:14Z</time>
      </trkpt>
      <trkpt lat="42.4551020" lon="-2.4280440">
        <ele>394.2</ele>
        <time>2022-08-12T10:13:17Z</time>
      </trkpt>
      <trkpt lat="42.4551950" lon="-2.4281030">
        <ele>394.0</ele>
        <time>2022-08-12T10:13:19Z</time>
      </trkpt>
      <trkpt lat="42.4552710" lon="-2.4282060">
        <ele>394.0</ele>
        <time>2022-08-12T10:13:21Z</time>
      </trkpt>
      <trkpt lat="42.4553150" lon="-2.4283450">
        <ele>394.0</ele>
        <time>2022-08-12T10:13:23Z</time>
      </trkpt>
      <trkpt lat="42.4553160" lon="-2.4285190">
        <ele>394.2</ele>
        <time>2022-08-12T10:13:25Z</time>
      </trkpt>
      <trkpt lat="42.4552570" lon="-2.4287680">
        <ele>394.0</ele>
        <time>2022-08-12T10:13:28Z</time>
      </trkpt>
      <trkpt lat="42.4552590" lon="-2.4288550">
        <ele>394.0</ele>
        <time>2022-08-12T10:13:29Z</time>
      </trkpt>
      <trkpt lat="42.4552720" lon="-2.4289450">
        <ele>393.8</ele>
        <time>2022-08-12T10:13:30Z</time>
      </trkpt>
      <trkpt lat="42.4553630" lon="-2.4291900">
        <ele>393.2</ele>
        <time>2022-08-12T10:13:33Z</time>
      </trkpt>
      <trkpt lat="42.4554080" lon="-2.4292970">
        <ele>393.0</ele>
        <time>2022-08-12T10:13:34Z</time>
      </trkpt>
      <trkpt lat="42.4554910" lon="-2.4294780">
        <ele>392.6</ele>
        <time>2022-08-12T10:13:36Z</time>
      </trkpt>
      <trkpt lat="42.4556140" lon="-2.4297420">
        <ele>392.2</ele>
        <time>2022-08-12T10:13:39Z</time>
      </trkpt>
      <trkpt lat="42.4556560" lon="-2.4298200">
        <ele>392.0</ele>
        <time>2022-08-12T10:13:40Z</time>
      </trkpt>
      <trkpt lat="42.4557690" lon="-2.4300440">
        <ele>391.2</ele>
        <time>2022-08-12T10:13:43Z</time>
      </trkpt>
      <trkpt lat="42.4558420" lon="-2.4301950">
        <ele>391.0</ele>
        <time>2022-08-12T10:13:45Z</time>
      </trkpt>
      <trkpt lat="42.4558750" lon="-2.4302710">
        <ele>390.8</ele>
        <time>2022-08-12T10:13:46Z</time>
      </trkpt>
      <trkpt lat="42.4560230" lon="-2.4305650">
        <ele>390.6</ele>
        <time>2022-08-12T10:13:50Z</time>
      </trkpt>
      <trkpt lat="42.4561240" lon="-2.4307790">
        <ele>390.6</ele>
        <time>2022-08-12T10:13:53Z</time>
      </trkpt>
      <trkpt lat="42.4562360" lon="-2.4309820">
        <ele>390.8</ele>
        <time>2022-08-12T10:13:56Z</time>
      </trkpt>
      <trkpt lat="42.4563600" lon="-2.4312490">
        <ele>390.8</ele>
        <time>2022-08-12T10:14:00Z</time>
      </trkpt>
      <trkpt lat="42.4563810" lon="-2.4313170">
        <ele>390.4</ele>
        <time>2022-08-12T10:14:01Z</time>
      </trkpt>
      <trkpt lat="42.4564360" lon="-2.4314380">
        <ele>390.4</ele>
        <time>2022-08-12T10:14:03Z</time>
      </trkpt>
      <trkpt lat="42.4564700" lon="-2.4314690">
        <ele>390.6</ele>
        <time>2022-08-12T10:14:04Z</time>
      </trkpt>
      <trkpt lat="42.4565260" lon="-2.4315120">
        <ele>390.6</ele>
        <time>2022-08-12T10:14:05Z</time>
      </trkpt>
      <trkpt lat="42.4566220" lon="-2.4316030">
        <ele>390.2</ele>
        <time>2022-08-12T10:14:07Z</time>
      </trkpt>
      <trkpt lat="42.4566600" lon="-2.4316330">
        <ele>390.2</ele>
        <time>2022-08-12T10:14:08Z</time>
      </trkpt>
      <trkpt lat="42.4566990" lon="-2.4316890">
        <ele>390.2</ele>
        <time>2022-08-12T10:14:09Z</time>
      </trkpt>
      <trkpt lat="42.4567650" lon="-2.4318210">
        <ele>390.0</ele>
        <time>2022-08-12T10:14:11Z</time>
      </trkpt>
      <trkpt lat="42.4568390" lon="-2.4319630">
        <ele>390.0</ele>
        <time>2022-08-12T10:14:13Z</time>
      </trkpt>
      <trkpt lat="42.4569100" lon="-2.4320980">
        <ele>389.8</ele>
        <time>2022-08-12T10:14:15Z</time>
      </trkpt>
      <trkpt lat="42.4569340" lon="-2.4321750">
        <ele>390.0</ele>
        <time>2022-08-12T10:14:16Z</time>
      </trkpt>
      <trkpt lat="42.4569980" lon="-2.4323160">
        <ele>390.0</ele>
        <time>2022-08-12T10:14:18Z</time>
      </trkpt>
      <trkpt lat="42.4570230" lon="-2.4323850">
        <ele>390.0</ele>
        <time>2022-08-12T10:14:19Z</time>
      </trkpt>
      <trkpt lat="42.4572890" lon="-2.4329420">
        <ele>390.0</ele>
        <time>2022-08-12T10:14:27Z</time>
      </trkpt>
      <trkpt lat="42.4573490" lon="-2.4330760">
        <ele>390.0</ele>
        <time>2022-08-12T10:14:29Z</time>
      </trkpt>
      <trkpt lat="42.4575360" lon="-2.4335470">
        <ele>390.0</ele>
        <time>2022-08-12T10:14:36Z</time>
      </trkpt>
      <trkpt lat="42.4577490" lon="-2.4340320">
        <ele>389.6</ele>
        <time>2022-08-12T10:14:43Z</time>
      </trkpt>
      <trkpt lat="42.4577870" lon="-2.4342640">
        <ele>389.4</ele>
        <time>2022-08-12T10:14:46Z</time>
      </trkpt>
      <trkpt lat="42.4577880" lon="-2.4344200">
        <ele>389.6</ele>
        <time>2022-08-12T10:14:48Z</time>
      </trkpt>
      <trkpt lat="42.4577480" lon="-2.4349660">
        <ele>390.0</ele>
        <time>2022-08-12T10:14:55Z</time>
      </trkpt>
      <trkpt lat="42.4577420" lon="-2.4350430">
        <ele>390.0</ele>
        <time>2022-08-12T10:14:56Z</time>
      </trkpt>
      <trkpt lat="42.4577140" lon="-2.4354160">
        <ele>390.0</ele>
        <time>2022-08-12T10:15:01Z</time>
      </trkpt>
      <trkpt lat="42.4577220" lon="-2.4354860">
        <ele>390.2</ele>
        <time>2022-08-12T10:15:02Z</time>
      </trkpt>
      <trkpt lat="42.4577430" lon="-2.4355480">
        <ele>390.2</ele>
        <time>2022-08-12T10:15:03Z</time>
      </trkpt>
      <trkpt lat="42.4578040" lon="-2.4356590">
        <ele>390.2</ele>
        <time>2022-08-12T10:15:05Z</time>
      </trkpt>
      <trkpt lat="42.4578710" lon="-2.4357670">
        <ele>390.2</ele>
        <time>2022-08-12T10:15:07Z</time>
      </trkpt>
      <trkpt lat="42.4579170" lon="-2.4359240">
        <ele>390.4</ele>
        <time>2022-08-12T10:15:10Z</time>
      </trkpt>
      <trkpt lat="42.4578520" lon="-2.4359980">
        <ele>390.6</ele>
        <time>2022-08-12T10:15:13Z</time>
      </trkpt>
      <trkpt lat="42.4578160" lon="-2.4360210">
        <ele>390.6</ele>
        <time>2022-08-12T10:15:14Z</time>
      </trkpt>
      <trkpt lat="42.4577440" lon="-2.4360860">
        <ele>390.8</ele>
        <time>2022-08-12T10:15:16Z</time>
      </trkpt>
      <trkpt lat="42.4577210" lon="-2.4361310">
        <ele>390.8</ele>
        <time>2022-08-12T10:15:17Z</time>
      </trkpt>
      <trkpt lat="42.4577100" lon="-2.4361830">
        <ele>390.8</ele>
        <time>2022-08-12T10:15:18Z</time>
      </trkpt>
      <trkpt lat="42.4576890" lon="-2.4364260">
        <ele>390.6</ele>
        <time>2022-08-12T10:15:22Z</time>
      </trkpt>
      <trkpt lat="42.4576690" lon="-2.4365600">
        <ele>390.6</ele>
        <time>2022-08-12T10:15:24Z</time>
      </trkpt>
      <trkpt lat="42.4576490" lon="-2.4368200">
        <ele>390.8</ele>
        <time>2022-08-12T10:15:28Z</time>
      </trkpt>
      <trkpt lat="42.4576370" lon="-2.4370150">
        <ele>391.0</ele>
        <time>2022-08-12T10:15:31Z</time>
      </trkpt>
      <trkpt lat="42.4576030" lon="-2.4374150">
        <ele>391.4</ele>
        <time>2022-08-12T10:15:37Z</time>
      </trkpt>
      <trkpt lat="42.4576060" lon="-2.4374730">
        <ele>391.4</ele>
        <time>2022-08-12T10:15:38Z</time>
      </trkpt>
      <trkpt lat="42.4576420" lon="-2.4375640">
        <ele>391.4</ele>
        <time>2022-08-12T10:15:40Z</time>
      </trkpt>
      <trkpt lat="42.4577080" lon="-2.4377260">
        <ele>391.6</ele>
        <time>2022-08-12T10:15:44Z</time>
      </trkpt>
      <trkpt lat="42.4576660" lon="-2.4377860">
        <ele>391.4</ele>
        <time>2022-08-12T10:15:46Z</time>
      </trkpt>
      <trkpt lat="42.4576310" lon="-2.4377920">
        <ele>391.4</ele>
        <time>2022-08-12T10:15:47Z</time>
      </trkpt>
      <trkpt lat="42.4575920" lon="-2.4377980">
        <ele>391.4</ele>
        <time>2022-08-12T10:15:48Z</time>
      </trkpt>
      <trkpt lat="42.4575240" lon="-2.4378480">
        <ele>391.4</ele>
        <time>2022-08-12T10:15:50Z</time>
      </trkpt>
      <trkpt lat="42.4575020" lon="-2.4378940">
        <ele>391.4</ele>
        <time>2022-08-12T10:15:51Z</time>
      </trkpt>
      <trkpt lat="42.4574320" lon="-2.4381390">
        <ele>391.4</ele>
        <time>2022-08-12T10:15:55Z</time>
      </trkpt>
      <trkpt lat="42.4574160" lon="-2.4382040">
        <ele>391.6</ele>
        <time>2022-08-12T10:15:56Z</time>
      </trkpt>
      <trkpt lat="42.4573750" lon="-2.4384020">
        <ele>391.6</ele>
        <time>2022-08-12T10:15:59Z</time>
      </trkpt>
      <trkpt lat="42.4573600" lon="-2.4385360">
        <ele>391.6</ele>
        <time>2022-08-12T10:16:01Z</time>
      </trkpt>
      <trkpt lat="42.4573520" lon="-2.4386090">
        <ele>391.6</ele>
        <time>2022-08-12T10:16:02Z</time>
      </trkpt>
      <trkpt lat="42.4573280" lon="-2.4388990">
        <ele>391.6</ele>
        <time>2022-08-12T10:16:06Z</time>
      </trkpt>
      <trkpt lat="42.4573090" lon="-2.4390400">
        <ele>391.6</ele>
        <time>2022-08-12T10:16:08Z</time>
      </trkpt>
      <trkpt lat="42.4572750" lon="-2.4393860">
        <ele>391.4</ele>
        <time>2022-08-12T10:16:13Z</time>
      </trkpt>
      <trkpt lat="42.4572240" lon="-2.4400680">
        <ele>391.4</ele>
        <time>2022-08-12T10:16:23Z</time>
      </trkpt>
      <trkpt lat="42.4572220" lon="-2.4401370">
        <ele>391.4</ele>
        <time>2022-08-12T10:16:24Z</time>
      </trkpt>
      <trkpt lat="42.4572120" lon="-2.4404080">
        <ele>391.4</ele>
        <time>2022-08-12T10:16:28Z</time>
      </trkpt>
      <trkpt lat="42.4571920" lon="-2.4409380">
        <ele>391.6</ele>
        <time>2022-08-12T10:16:36Z</time>
      </trkpt>
      <trkpt lat="42.4571780" lon="-2.4412340">
        <ele>391.8</ele>
        <time>2022-08-12T10:16:41Z</time>
      </trkpt>
      <trkpt lat="42.4571660" lon="-2.4412770">
        <ele>391.8</ele>
        <time>2022-08-12T10:16:42Z</time>
      </trkpt>
      <trkpt lat="42.4571520" lon="-2.4413060">
        <ele>391.6</ele>
        <time>2022-08-12T10:16:43Z</time>
      </trkpt>
      <trkpt lat="42.4571420" lon="-2.4413360">
        <ele>391.6</ele>
        <time>2022-08-12T10:16:45Z</time>
      </trkpt>
      <trkpt lat="42.4571470" lon="-2.4413480">
        <ele>391.6</ele>
        <time>2022-08-12T10:16:46Z</time>
      </trkpt>
      <trkpt lat="42.4571490" lon="-2.4413640">
        <ele>391.6</ele>
        <time>2022-08-12T10:16:47Z</time>
      </trkpt>
      <trkpt lat="42.4571490" lon="-2.4413840">
        <ele>391.6</ele>
        <time>2022-08-12T10:16:51Z</time>
      </trkpt>
      <trkpt lat="42.4571450" lon="-2.4413790">
        <ele>391.8</ele>
        <time>2022-08-12T10:16:55Z</time>
      </trkpt>
      <trkpt lat="42.4571290" lon="-2.4413730">
        <ele>391.6</ele>
        <time>2022-08-12T10:16:57Z</time>
      </trkpt>
      <trkpt lat="42.4571350" lon="-2.4413720">
        <ele>391.6</ele>
        <time>2022-08-12T10:17:00Z</time>
      </trkpt>
      <trkpt lat="42.4571580" lon="-2.4413890">
        <ele>391.4</ele>
        <time>2022-08-12T10:17:01Z</time>
      </trkpt>
      <trkpt lat="42.4571960" lon="-2.4414020">
        <ele>391.4</ele>
        <time>2022-08-12T10:17:02Z</time>
      </trkpt>
      <trkpt lat="42.4572480" lon="-2.4414070">
        <ele>391.4</ele>
        <time>2022-08-12T10:17:03Z</time>
      </trkpt>
      <trkpt lat="42.4577130" lon="-2.4414730">
        <ele>391.2</ele>
        <time>2022-08-12T10:17:06Z</time>
      </trkpt>
      <trkpt lat="42.4580140" lon="-2.4415150">
        <ele>391.0</ele>
        <time>2022-08-12T10:17:10Z</time>
      </trkpt>
      <trkpt lat="42.4581570" lon="-2.4415120">
        <ele>390.6</ele>
        <time>2022-08-12T10:17:12Z</time>
      </trkpt>
      <trkpt lat="42.4582160" lon="-2.4415120">
        <ele>390.6</ele>
        <time>2022-08-12T10:17:13Z</time>
      </trkpt>
      <trkpt lat="42.4582720" lon="-2.4415260">
        <ele>390.4</ele>
        <time>2022-08-12T10:17:14Z</time>
      </trkpt>
      <trkpt lat="42.4583830" lon="-2.4415930">
        <ele>390.4</ele>
        <time>2022-08-12T10:17:16Z</time>
      </trkpt>
      <trkpt lat="42.4584250" lon="-2.4416480">
        <ele>390.2</ele>
        <time>2022-08-12T10:17:17Z</time>
      </trkpt>
      <trkpt lat="42.4584490" lon="-2.4417170">
        <ele>390.2</ele>
        <time>2022-08-12T10:17:18Z</time>
      </trkpt>
      <trkpt lat="42.4584510" lon="-2.4418550">
        <ele>390.2</ele>
        <time>2022-08-12T10:17:20Z</time>
      </trkpt>
      <trkpt lat="42.4584090" lon="-2.4420540">
        <ele>390.2</ele>
        <time>2022-08-12T10:17:23Z</time>
      </trkpt>
      <trkpt lat="42.4584090" lon="-2.4422010">
        <ele>390.2</ele>
        <time>2022-08-12T10:17:25Z</time>
      </trkpt>
      <trkpt lat="42.4583990" lon="-2.4424250">
        <ele>390.2</ele>
        <time>2022-08-12T10:17:28Z</time>
      </trkpt>
      <trkpt lat="42.4584040" lon="-2.4426550">
        <ele>390.2</ele>
        <time>2022-08-12T10:17:31Z</time>
      </trkpt>
      <trkpt lat="42.4584060" lon="-2.4427260">
        <ele>390.2</ele>
        <time>2022-08-12T10:17:32Z</time>
      </trkpt>
      <trkpt lat="42.4584110" lon="-2.4428620">
        <ele>390.2</ele>
        <time>2022-08-12T10:17:34Z</time>
      </trkpt>
      <trkpt lat="42.4584210" lon="-2.4430010">
        <ele>390.2</ele>
        <time>2022-08-12T10:17:36Z</time>
      </trkpt>
      <trkpt lat="42.4584230" lon="-2.4430770">
        <ele>390.2</ele>
        <time>2022-08-12T10:17:37Z</time>
      </trkpt>
      <trkpt lat="42.4583970" lon="-2.4434640">
        <ele>390.0</ele>
        <time>2022-08-12T10:17:42Z</time>
      </trkpt>
      <trkpt lat="42.4583600" lon="-2.4436880">
        <ele>390.0</ele>
        <time>2022-08-12T10:17:45Z</time>
      </trkpt>
      <trkpt lat="42.4583430" lon="-2.4438310">
        <ele>390.0</ele>
        <time>2022-08-12T10:17:47Z</time>
      </trkpt>
      <trkpt lat="42.4583150" lon="-2.4439740">
        <ele>390.0</ele>
        <time>2022-08-12T10:17:49Z</time>
      </trkpt>
      <trkpt lat="42.4582990" lon="-2.4440430">
        <ele>390.0</ele>
        <time>2022-08-12T10:17:50Z</time>
      </trkpt>
      <trkpt lat="42.4582510" lon="-2.4442960">
        <ele>390.2</ele>
        <time>2022-08-12T10:17:54Z</time>
      </trkpt>
      <trkpt lat="42.4582190" lon="-2.4444150">
        <ele>390.2</ele>
        <time>2022-08-12T10:17:56Z</time>
      </trkpt>
      <trkpt lat="42.4581730" lon="-2.4445690">
        <ele>390.2</ele>
        <time>2022-08-12T10:17:59Z</time>
      </trkpt>
      <trkpt lat="42.4581780" lon="-2.4446240">
        <ele>390.2</ele>
        <time>2022-08-12T10:18:00Z</time>
      </trkpt>
      <trkpt lat="42.4581490" lon="-2.4447310">
        <ele>390.2</ele>
        <time>2022-08-12T10:18:02Z</time>
      </trkpt>
      <trkpt lat="42.4581100" lon="-2.4448610">
        <ele>390.2</ele>
        <time>2022-08-12T10:18:04Z</time>
      </trkpt>
      <trkpt lat="42.4581130" lon="-2.4449220">
        <ele>390.2</ele>
        <time>2022-08-12T10:18:05Z</time>
      </trkpt>
      <trkpt lat="42.4580660" lon="-2.4449850">
        <ele>390.2</ele>
        <time>2022-08-12T10:18:06Z</time>
      </trkpt>
      <trkpt lat="42.4580410" lon="-2.4450480">
        <ele>390.2</ele>
        <time>2022-08-12T10:18:07Z</time>
      </trkpt>
      <trkpt lat="42.4581000" lon="-2.4451220">
        <ele>390.2</ele>
        <time>2022-08-12T10:18:08Z</time>
      </trkpt>
      <trkpt lat="42.4581890" lon="-2.4453470">
        <ele>390.6</ele>
        <time>2022-08-12T10:18:12Z</time>
      </trkpt>
      <trkpt lat="42.4582380" lon="-2.4455310">
        <ele>390.8</ele>
        <time>2022-08-12T10:18:15Z</time>
      </trkpt>
      <trkpt lat="42.4582780" lon="-2.4456530">
        <ele>391.0</ele>
        <time>2022-08-12T10:18:17Z</time>
      </trkpt>
      <trkpt lat="42.4582980" lon="-2.4457170">
        <ele>391.0</ele>
        <time>2022-08-12T10:18:18Z</time>
      </trkpt>
      <trkpt lat="42.4583890" lon="-2.4459700">
        <ele>391.4</ele>
        <time>2022-08-12T10:18:22Z</time>
      </trkpt>
      <trkpt lat="42.4584380" lon="-2.4460920">
        <ele>391.2</ele>
        <time>2022-08-12T10:18:24Z</time>
      </trkpt>
      <trkpt lat="42.4584760" lon="-2.4462080">
        <ele>391.4</ele>
        <time>2022-08-12T10:18:26Z</time>
      </trkpt>
      <trkpt lat="42.4585470" lon="-2.4463510">
        <ele>391.6</ele>
        <time>2022-08-12T10:18:29Z</time>
      </trkpt>
      <trkpt lat="42.4585630" lon="-2.4464050">
        <ele>391.6</ele>
        <time>2022-08-12T10:18:30Z</time>
      </trkpt>
      <trkpt lat="42.4585530" lon="-2.4464700">
        <ele>391.8</ele>
        <time>2022-08-12T10:18:31Z</time>
      </trkpt>
      <trkpt lat="42.4585430" lon="-2.4466030">
        <ele>392.4</ele>
        <time>2022-08-12T10:18:33Z</time>
      </trkpt>
      <trkpt lat="42.4585710" lon="-2.4466290">
        <ele>392.6</ele>
        <time>2022-08-12T10:18:34Z</time>
      </trkpt>
      <trkpt lat="42.4586000" lon="-2.4466230">
        <ele>392.8</ele>
        <time>2022-08-12T10:18:35Z</time>
      </trkpt>
      <trkpt lat="42.4586890" lon="-2.4465930">
        <ele>393.4</ele>
        <time>2022-08-12T10:18:38Z</time>
      </trkpt>
      <trkpt lat="42.4587660" lon="-2.4465530">
        <ele>393.8</ele>
        <time>2022-08-12T10:18:40Z</time>
      </trkpt>
      <trkpt lat="42.4588710" lon="-2.4465200">
        <ele>393.8</ele>
        <time>2022-08-12T10:18:42Z</time>
      </trkpt>
      <trkpt lat="42.4590220" lon="-2.4464620">
        <ele>393.8</ele>
        <time>2022-08-12T10:18:45Z</time>
      </trkpt>
      <trkpt lat="42.4590980" lon="-2.4464270">
        <ele>393.8</ele>
        <time>2022-08-12T10:18:47Z</time>
      </trkpt>
      <trkpt lat="42.4591810" lon="-2.4464020">
        <ele>393.8</ele>
        <time>2022-08-12T10:18:49Z</time>
      </trkpt>
      <trkpt lat="42.4592590" lon="-2.4463780">
        <ele>393.8</ele>
        <time>2022-08-12T10:18:51Z</time>
      </trkpt>
      <trkpt lat="42.4595170" lon="-2.4462300">
        <ele>393.8</ele>
        <time>2022-08-12T10:18:56Z</time>
      </trkpt>
      <trkpt lat="42.4596160" lon="-2.4461760">
        <ele>393.6</ele>
        <time>2022-08-12T10:18:58Z</time>
      </trkpt>
      <trkpt lat="42.4599440" lon="-2.4460150">
        <ele>393.6</ele>
        <time>2022-08-12T10:19:02Z</time>
      </trkpt>
      <trkpt lat="42.4598980" lon="-2.4460120">
        <ele>393.6</ele>
        <time>2022-08-12T10:19:05Z</time>
      </trkpt>
      <trkpt lat="42.4599130" lon="-2.4460090">
        <ele>393.4</ele>
        <time>2022-08-12T10:19:06Z</time>
      </trkpt>
      <trkpt lat="42.4600120" lon="-2.4460090">
        <ele>393.4</ele>
        <time>2022-08-12T10:19:12Z</time>
      </trkpt>
      <trkpt lat="42.4600150" lon="-2.4460070">
        <ele>392.6</ele>
        <time>2022-08-12T10:19:40Z</time>
      </trkpt>
      <trkpt lat="42.4600150" lon="-2.4460070">
        <ele>392.6</ele>
        <time>2022-08-12T10:19:41Z</time>
      </trkpt>
      <trkpt lat="42.4600180" lon="-2.4460080">
        <ele>392.6</ele>
        <time>2022-08-12T10:19:42Z</time>
      </trkpt>
      <trkpt lat="42.4601150" lon="-2.4460000">
        <ele>392.6</ele>
        <time>2022-08-12T10:19:45Z</time>
      </trkpt>
      <trkpt lat="42.4601940" lon="-2.4459880">
        <ele>392.6</ele>
        <time>2022-08-12T10:19:47Z</time>
      </trkpt>
      <trkpt lat="42.4604560" lon="-2.4458410">
        <ele>392.4</ele>
        <time>2022-08-12T10:19:50Z</time>
      </trkpt>
      <trkpt lat="42.4605960" lon="-2.4457880">
        <ele>392.4</ele>
        <time>2022-08-12T10:19:52Z</time>
      </trkpt>
      <trkpt lat="42.4607280" lon="-2.4457460">
        <ele>392.4</ele>
        <time>2022-08-12T10:19:54Z</time>
      </trkpt>
      <trkpt lat="42.4609480" lon="-2.4456570">
        <ele>392.2</ele>
        <time>2022-08-12T10:19:58Z</time>
      </trkpt>
      <trkpt lat="42.4610640" lon="-2.4455940">
        <ele>392.2</ele>
        <time>2022-08-12T10:20:00Z</time>
      </trkpt>
      <trkpt lat="42.4611670" lon="-2.4455420">
        <ele>392.2</ele>
        <time>2022-08-12T10:20:03Z</time>
      </trkpt>
      <trkpt lat="42.4611920" lon="-2.4455300">
        <ele>392.2</ele>
        <time>2022-08-12T10:20:05Z</time>
      </trkpt>
      <trkpt lat="42.4611920" lon="-2.4455300">
        <ele>392.2</ele>
        <time>2022-08-12T10:20:07Z</time>
      </trkpt>
      <trkpt lat="42.4612030" lon="-2.4455280">
        <ele>392.2</ele>
        <time>2022-08-12T10:20:08Z</time>
      </trkpt>
      <trkpt lat="42.4612070" lon="-2.4455260">
        <ele>392.0</ele>
        <time>2022-08-12T10:20:10Z</time>
      </trkpt>
      <trkpt lat="42.4613210" lon="-2.4454830">
        <ele>391.8</ele>
        <time>2022-08-12T10:20:15Z</time>
      </trkpt>
      <trkpt lat="42.4613650" lon="-2.4454650">
        <ele>391.8</ele>
        <time>2022-08-12T10:20:16Z</time>
      </trkpt>
      <trkpt lat="42.4615260" lon="-2.4454100">
        <ele>391.8</ele>
        <time>2022-08-12T10:20:19Z</time>
      </trkpt>
      <trkpt lat="42.4616600" lon="-2.4453760">
        <ele>391.8</ele>
        <time>2022-08-12T10:20:21Z</time>
      </trkpt>
      <trkpt lat="42.4617880" lon="-2.4453500">
        <ele>391.8</ele>
        <time>2022-08-12T10:20:23Z</time>
      </trkpt>
      <trkpt lat="42.4618880" lon="-2.4453600">
        <ele>392.0</ele>
        <time>2022-08-12T10:20:25Z</time>
      </trkpt>
      <trkpt lat="42.4620260" lon="-2.4453390">
        <ele>392.2</ele>
        <time>2022-08-12T10:20:27Z</time>
      </trkpt>
      <trkpt lat="42.4620810" lon="-2.4453320">
        <ele>392.2</ele>
        <time>2022-08-12T10:20:28Z</time>
      </trkpt>
      <trkpt lat="42.4621270" lon="-2.4453360">
        <ele>392.2</ele>
        <time>2022-08-12T10:20:29Z</time>
      </trkpt>
      <trkpt lat="42.4622630" lon="-2.4451890">
        <ele>392.4</ele>
        <time>2022-08-12T10:20:32Z</time>
      </trkpt>
      <trkpt lat="42.4622900" lon="-2.4451770">
        <ele>392.2</ele>
        <time>2022-08-12T10:20:35Z</time>
      </trkpt>
      <trkpt lat="42.4622900" lon="-2.4451680">
        <ele>392.0</ele>
        <time>2022-08-12T10:21:15Z</time>
      </trkpt>
      <trkpt lat="42.4623050" lon="-2.4451570">
        <ele>392.0</ele>
        <time>2022-08-12T10:21:16Z</time>
      </trkpt>
      <trkpt lat="42.4623550" lon="-2.4451360">
        <ele>392.0</ele>
        <time>2022-08-12T10:21:18Z</time>
      </trkpt>
      <trkpt lat="42.4624300" lon="-2.4450850">
        <ele>392.0</ele>
        <time>2022-08-12T10:21:21Z</time>
      </trkpt>
      <trkpt lat="42.4624930" lon="-2.4450380">
        <ele>392.0</ele>
        <time>2022-08-12T10:21:23Z</time>
      </trkpt>
      <trkpt lat="42.4625100" lon="-2.4450280">
        <ele>392.0</ele>
        <time>2022-08-12T10:21:24Z</time>
      </trkpt>
      <trkpt lat="42.4625280" lon="-2.4450160">
        <ele>392.0</ele>
        <time>2022-08-12T10:21:25Z</time>
      </trkpt>
      <trkpt lat="42.4625500" lon="-2.4450100">
        <ele>392.0</ele>
        <time>2022-08-12T10:21:26Z</time>
      </trkpt>
      <trkpt lat="42.4625740" lon="-2.4449880">
        <ele>392.0</ele>
        <time>2022-08-12T10:21:27Z</time>
      </trkpt>
      <trkpt lat="42.4625960" lon="-2.4449420">
        <ele>392.0</ele>
        <time>2022-08-12T10:21:28Z</time>
      </trkpt>
      <trkpt lat="42.4626150" lon="-2.4448930">
        <ele>392.0</ele>
        <time>2022-08-12T10:21:29Z</time>
      </trkpt>
      <trkpt lat="42.4626920" lon="-2.4448290">
        <ele>391.8</ele>
        <time>2022-08-12T10:21:31Z</time>
      </trkpt>
      <trkpt lat="42.4627760" lon="-2.4448320">
        <ele>391.6</ele>
        <time>2022-08-12T10:21:33Z</time>
      </trkpt>
      <trkpt lat="42.4628030" lon="-2.4449010">
        <ele>391.6</ele>
        <time>2022-08-12T10:21:34Z</time>
      </trkpt>
      <trkpt lat="42.4628350" lon="-2.4451280">
        <ele>391.6</ele>
        <time>2022-08-12T10:21:38Z</time>
      </trkpt>
      <trkpt lat="42.4628440" lon="-2.4451780">
        <ele>391.4</ele>
        <time>2022-08-12T10:21:41Z</time>
      </trkpt>
      <trkpt lat="42.4628410" lon="-2.4452000">
        <ele>391.4</ele>
        <time>2022-08-12T10:21:42Z</time>
      </trkpt>
      <trkpt lat="42.4628370" lon="-2.4452300">
        <ele>391.4</ele>
        <time>2022-08-12T10:21:43Z</time>
      </trkpt>
      <trkpt lat="42.4628580" lon="-2.4453290">
        <ele>391.4</ele>
        <time>2022-08-12T10:21:45Z</time>
      </trkpt>
      <trkpt lat="42.4628830" lon="-2.4453800">
        <ele>391.4</ele>
        <time>2022-08-12T10:21:46Z</time>
      </trkpt>
      <trkpt lat="42.4629120" lon="-2.4454270">
        <ele>391.4</ele>
        <time>2022-08-12T10:21:47Z</time>
      </trkpt>
      <trkpt lat="42.4629490" lon="-2.4455530">
        <ele>391.4</ele>
        <time>2022-08-12T10:21:49Z</time>
      </trkpt>
      <trkpt lat="42.4630000" lon="-2.4457540">
        <ele>391.4</ele>
        <time>2022-08-12T10:21:52Z</time>
      </trkpt>
      <trkpt lat="42.4630210" lon="-2.4458140">
        <ele>391.4</ele>
        <time>2022-08-12T10:21:53Z</time>
      </trkpt>
      <trkpt lat="42.4630580" lon="-2.4459310">
        <ele>391.4</ele>
        <time>2022-08-12T10:21:55Z</time>
      </trkpt>
      <trkpt lat="42.4630710" lon="-2.4459780">
        <ele>391.4</ele>
        <time>2022-08-12T10:21:56Z</time>
      </trkpt>
      <trkpt lat="42.4631320" lon="-2.4461530">
        <ele>391.4</ele>
        <time>2022-08-12T10:22:00Z</time>
      </trkpt>
      <trkpt lat="42.4631640" lon="-2.4462670">
        <ele>391.0</ele>
        <time>2022-08-12T10:22:04Z</time>
      </trkpt>
      <trkpt lat="42.4631680" lon="-2.4462810">
        <ele>391.0</ele>
        <time>2022-08-12T10:22:05Z</time>
      </trkpt>
      <trkpt lat="42.4632130" lon="-2.4464500">
        <ele>391.0</ele>
        <time>2022-08-12T10:22:11Z</time>
      </trkpt>
      <trkpt lat="42.4632320" lon="-2.4465170">
        <ele>391.0</ele>
        <time>2022-08-12T10:22:14Z</time>
      </trkpt>
      <trkpt lat="42.4632320" lon="-2.4465170">
        <ele>391.0</ele>
        <time>2022-08-12T10:22:15Z</time>
      </trkpt>
      <trkpt lat="42.4632320" lon="-2.4465170">
        <ele>391.0</ele>
        <time>2022-08-12T10:22:16Z</time>
      </trkpt>
      <trkpt lat="42.4632260" lon="-2.4465800">
        <ele>391.0</ele>
        <time>2022-08-12T10:22:19Z</time>
      </trkpt>
      <trkpt lat="42.4632480" lon="-2.4466810">
        <ele>391.0</ele>
        <time>2022-08-12T10:22:21Z</time>
      </trkpt>
      <trkpt lat="42.4632840" lon="-2.4468520">
        <ele>391.0</ele>
        <time>2022-08-12T10:22:24Z</time>
      </trkpt>
      <trkpt lat="42.4633200" lon="-2.4469590">
        <ele>391.0</ele>
        <time>2022-08-12T10:22:26Z</time>
      </trkpt>
      <trkpt lat="42.4633700" lon="-2.4470750">
        <ele>391.0</ele>
        <time>2022-08-12T10:22:28Z</time>
      </trkpt>
      <trkpt lat="42.4634230" lon="-2.4472130">
        <ele>391.0</ele>
        <time>2022-08-12T10:22:30Z</time>
      </trkpt>
      <trkpt lat="42.4635580" lon="-2.4476360">
        <ele>391.6</ele>
        <time>2022-08-12T10:22:36Z</time>
      </trkpt>
      <trkpt lat="42.4636350" lon="-2.4480120">
        <ele>391.6</ele>
        <time>2022-08-12T10:22:41Z</time>
      </trkpt>
      <trkpt lat="42.4636480" lon="-2.4480450">
        <ele>391.6</ele>
        <time>2022-08-12T10:22:42Z</time>
      </trkpt>
      <trkpt lat="42.4636730" lon="-2.4480780">
        <ele>391.6</ele>
        <time>2022-08-12T10:22:43Z</time>
      </trkpt>
      <trkpt lat="42.4636980" lon="-2.4481100">
        <ele>391.4</ele>
        <time>2022-08-12T10:22:44Z</time>
      </trkpt>
      <trkpt lat="42.4637130" lon="-2.4481400">
        <ele>391.4</ele>
        <time>2022-08-12T10:22:45Z</time>
      </trkpt>
      <trkpt lat="42.4637220" lon="-2.4481630">
        <ele>391.4</ele>
        <time>2022-08-12T10:22:46Z</time>
      </trkpt>
      <trkpt lat="42.4637230" lon="-2.4481900">
        <ele>391.4</ele>
        <time>2022-08-12T10:22:48Z</time>
      </trkpt>
      <trkpt lat="42.4637250" lon="-2.4482070">
        <ele>391.4</ele>
        <time>2022-08-12T10:22:51Z</time>
      </trkpt>
      <trkpt lat="42.4637250" lon="-2.4482070">
        <ele>391.4</ele>
        <time>2022-08-12T10:22:52Z</time>
      </trkpt>
      <trkpt lat="42.4637250" lon="-2.4482070">
        <ele>391.4</ele>
        <time>2022-08-12T10:22:53Z</time>
      </trkpt>
      <trkpt lat="42.4637250" lon="-2.4482070">
        <ele>391.6</ele>
        <time>2022-08-12T10:22:54Z</time>
      </trkpt>
      <trkpt lat="42.4619040" lon="-2.4504440">
        <ele>391.7</ele>
        <time>2022-08-13T06:11:15Z</time>
      </trkpt>
      <trkpt lat="42.4619460" lon="-2.4504270">
        <ele>391.6</ele>
        <time>2022-08-13T06:11:16Z</time>
      </trkpt>
      <trkpt lat="42.4619840" lon="-2.4504090">
        <ele>391.5</ele>
        <time>2022-08-13T06:11:17Z</time>
      </trkpt>
      <trkpt lat="42.4620720" lon="-2.4503640">
        <ele>391.4</ele>
        <time>2022-08-13T06:11:19Z</time>
      </trkpt>
      <trkpt lat="42.4621110" lon="-2.4503390">
        <ele>391.4</ele>
        <time>2022-08-13T06:11:20Z</time>
      </trkpt>
      <trkpt lat="42.4621520" lon="-2.4503200">
        <ele>391.4</ele>
        <time>2022-08-13T06:11:21Z</time>
      </trkpt>
      <trkpt lat="42.4622370" lon="-2.4502930">
        <ele>391.3</ele>
        <time>2022-08-13T06:11:23Z</time>
      </trkpt>
      <trkpt lat="42.4623120" lon="-2.4502610">
        <ele>391.2</ele>
        <time>2022-08-13T06:11:25Z</time>
      </trkpt>
      <trkpt lat="42.4625830" lon="-2.4501390">
        <ele>391.0</ele>
        <time>2022-08-13T06:11:30Z</time>
      </trkpt>
      <trkpt lat="42.4627470" lon="-2.4500460">
        <ele>390.9</ele>
        <time>2022-08-13T06:11:34Z</time>
      </trkpt>
      <trkpt lat="42.4628260" lon="-2.4500120">
        <ele>390.9</ele>
        <time>2022-08-13T06:11:36Z</time>
      </trkpt>
      <trkpt lat="42.4628700" lon="-2.4499880">
        <ele>390.9</ele>
        <time>2022-08-13T06:11:37Z</time>
      </trkpt>
      <trkpt lat="42.4629150" lon="-2.4499710">
        <ele>390.9</ele>
        <time>2022-08-13T06:11:38Z</time>
      </trkpt>
      <trkpt lat="42.4630080" lon="-2.4499490">
        <ele>390.9</ele>
        <time>2022-08-13T06:11:40Z</time>
      </trkpt>
      <trkpt lat="42.4630910" lon="-2.4499240">
        <ele>390.9</ele>
        <time>2022-08-13T06:11:42Z</time>
      </trkpt>
      <trkpt lat="42.4631360" lon="-2.4499030">
        <ele>391.0</ele>
        <time>2022-08-13T06:11:43Z</time>
      </trkpt>
      <trkpt lat="42.4632330" lon="-2.4498620">
        <ele>391.0</ele>
        <time>2022-08-13T06:11:45Z</time>
      </trkpt>
      <trkpt lat="42.4634420" lon="-2.4497720">
        <ele>391.2</ele>
        <time>2022-08-13T06:11:50Z</time>
      </trkpt>
      <trkpt lat="42.4635020" lon="-2.4497510">
        <ele>391.3</ele>
        <time>2022-08-13T06:11:52Z</time>
      </trkpt>
      <trkpt lat="42.4635790" lon="-2.4497250">
        <ele>391.4</ele>
        <time>2022-08-13T06:11:55Z</time>
      </trkpt>
      <trkpt lat="42.4635900" lon="-2.4497130">
        <ele>391.5</ele>
        <time>2022-08-13T06:11:56Z</time>
      </trkpt>
      <trkpt lat="42.4636010" lon="-2.4497040">
        <ele>391.5</ele>
        <time>2022-08-13T06:11:57Z</time>
      </trkpt>
      <trkpt lat="42.4636060" lon="-2.4496890">
        <ele>391.5</ele>
        <time>2022-08-13T06:11:59Z</time>
      </trkpt>
      <trkpt lat="42.4638750" lon="-2.4495660">
        <ele>391.8</ele>
        <time>2022-08-13T06:12:40Z</time>
      </trkpt>
      <trkpt lat="42.4638810" lon="-2.4495850">
        <ele>391.7</ele>
        <time>2022-08-13T06:12:41Z</time>
      </trkpt>
      <trkpt lat="42.4638700" lon="-2.4495810">
        <ele>391.7</ele>
        <time>2022-08-13T06:12:42Z</time>
      </trkpt>
      <trkpt lat="42.4638560" lon="-2.4495560">
        <ele>391.7</ele>
        <time>2022-08-13T06:12:43Z</time>
      </trkpt>
      <trkpt lat="42.4638440" lon="-2.4495210">
        <ele>391.7</ele>
        <time>2022-08-13T06:12:44Z</time>
      </trkpt>
      <trkpt lat="42.4637850" lon="-2.4493360">
        <ele>391.7</ele>
        <time>2022-08-13T06:12:48Z</time>
      </trkpt>
      <trkpt lat="42.4637720" lon="-2.4492830">
        <ele>391.7</ele>
        <time>2022-08-13T06:12:49Z</time>
      </trkpt>
      <trkpt lat="42.4637370" lon="-2.4491900">
        <ele>391.6</ele>
        <time>2022-08-13T06:12:51Z</time>
      </trkpt>
      <trkpt lat="42.4636920" lon="-2.4490710">
        <ele>391.6</ele>
        <time>2022-08-13T06:12:53Z</time>
      </trkpt>
      <trkpt lat="42.4636290" lon="-2.4489900">
        <ele>391.5</ele>
        <time>2022-08-13T06:12:55Z</time>
      </trkpt>
      <trkpt lat="42.4636050" lon="-2.4489210">
        <ele>391.5</ele>
        <time>2022-08-13T06:12:56Z</time>
      </trkpt>
      <trkpt lat="42.4635570" lon="-2.4488110">
        <ele>391.5</ele>
        <time>2022-08-13T06:12:58Z</time>
      </trkpt>
      <trkpt lat="42.4635350" lon="-2.4487580">
        <ele>391.4</ele>
        <time>2022-08-13T06:12:59Z</time>
      </trkpt>
      <trkpt lat="42.4634820" lon="-2.4486590">
        <ele>391.4</ele>
        <time>2022-08-13T06:13:01Z</time>
      </trkpt>
      <trkpt lat="42.4634670" lon="-2.4486050">
        <ele>391.4</ele>
        <time>2022-08-13T06:13:02Z</time>
      </trkpt>
      <trkpt lat="42.4634540" lon="-2.4485780">
        <ele>391.4</ele>
        <time>2022-08-13T06:13:03Z</time>
      </trkpt>
      <trkpt lat="42.4634460" lon="-2.4485560">
        <ele>391.4</ele>
        <time>2022-08-13T06:13:04Z</time>
      </trkpt>
      <trkpt lat="42.4634700" lon="-2.4484630">
        <ele>391.3</ele>
        <time>2022-08-13T06:13:17Z</time>
      </trkpt>
      <trkpt lat="42.4634630" lon="-2.4484360">
        <ele>391.3</ele>
        <time>2022-08-13T06:13:18Z</time>
      </trkpt>
      <trkpt lat="42.4634650" lon="-2.4483810">
        <ele>391.2</ele>
        <time>2022-08-13T06:13:19Z</time>
      </trkpt>
      <trkpt lat="42.4634700" lon="-2.4483390">
        <ele>391.2</ele>
        <time>2022-08-13T06:13:20Z</time>
      </trkpt>
      <trkpt lat="42.4634570" lon="-2.4482910">
        <ele>391.0</ele>
        <time>2022-08-13T06:13:21Z</time>
      </trkpt>
      <trkpt lat="42.4634320" lon="-2.4482370">
        <ele>390.8</ele>
        <time>2022-08-13T06:13:22Z</time>
      </trkpt>
      <trkpt lat="42.4633770" lon="-2.4481500">
        <ele>390.8</ele>
        <time>2022-08-13T06:13:24Z</time>
      </trkpt>
      <trkpt lat="42.4633400" lon="-2.4480370">
        <ele>391.1</ele>
        <time>2022-08-13T06:13:26Z</time>
      </trkpt>
      <trkpt lat="42.4633040" lon="-2.4479260">
        <ele>391.2</ele>
        <time>2022-08-13T06:13:28Z</time>
      </trkpt>
      <trkpt lat="42.4632570" lon="-2.4477840">
        <ele>391.3</ele>
        <time>2022-08-13T06:13:30Z</time>
      </trkpt>
      <trkpt lat="42.4632220" lon="-2.4476440">
        <ele>391.5</ele>
        <time>2022-08-13T06:13:32Z</time>
      </trkpt>
      <trkpt lat="42.4631730" lon="-2.4474500">
        <ele>391.6</ele>
        <time>2022-08-13T06:13:35Z</time>
      </trkpt>
      <trkpt lat="42.4631470" lon="-2.4472460">
        <ele>391.7</ele>
        <time>2022-08-13T06:13:38Z</time>
      </trkpt>
      <trkpt lat="42.4632000" lon="-2.4471110">
        <ele>391.6</ele>
        <time>2022-08-13T06:13:40Z</time>
      </trkpt>
      <trkpt lat="42.4632390" lon="-2.4470560">
        <ele>391.6</ele>
        <time>2022-08-13T06:13:41Z</time>
      </trkpt>
      <trkpt lat="42.4632840" lon="-2.4470240">
        <ele>391.4</ele>
        <time>2022-08-13T06:13:42Z</time>
      </trkpt>
      <trkpt lat="42.4633150" lon="-2.4470260">
        <ele>391.4</ele>
        <time>2022-08-13T06:13:43Z</time>
      </trkpt>
      <trkpt lat="42.4633430" lon="-2.4470550">
        <ele>391.5</ele>
        <time>2022-08-13T06:13:44Z</time>
      </trkpt>
      <trkpt lat="42.4633530" lon="-2.4470970">
        <ele>391.5</ele>
        <time>2022-08-13T06:13:45Z</time>
      </trkpt>
      <trkpt lat="42.4633590" lon="-2.4471630">
        <ele>391.6</ele>
        <time>2022-08-13T06:13:46Z</time>
      </trkpt>
      <trkpt lat="42.4633880" lon="-2.4473080">
        <ele>391.8</ele>
        <time>2022-08-13T06:13:48Z</time>
      </trkpt>
      <trkpt lat="42.4634200" lon="-2.4474230">
        <ele>391.7</ele>
        <time>2022-08-13T06:13:50Z</time>
      </trkpt>
      <trkpt lat="42.4634760" lon="-2.4476090">
        <ele>391.7</ele>
        <time>2022-08-13T06:13:53Z</time>
      </trkpt>
      <trkpt lat="42.4635660" lon="-2.4478420">
        <ele>391.5</ele>
        <time>2022-08-13T06:13:58Z</time>
      </trkpt>
      <trkpt lat="42.4636140" lon="-2.4478650">
        <ele>391.5</ele>
        <time>2022-08-13T06:14:00Z</time>
      </trkpt>
      <trkpt lat="42.4636770" lon="-2.4478440">
        <ele>391.0</ele>
        <time>2022-08-13T06:14:02Z</time>
      </trkpt>
      <trkpt lat="42.4637150" lon="-2.4478240">
        <ele>391.0</ele>
        <time>2022-08-13T06:14:03Z</time>
      </trkpt>
      <trkpt lat="42.4637780" lon="-2.4477940">
        <ele>391.0</ele>
        <time>2022-08-13T06:14:05Z</time>
      </trkpt>
      <trkpt lat="42.4638480" lon="-2.4477630">
        <ele>390.9</ele>
        <time>2022-08-13T06:14:07Z</time>
      </trkpt>
      <trkpt lat="42.4640290" lon="-2.4476860">
        <ele>390.8</ele>
        <time>2022-08-13T06:14:11Z</time>
      </trkpt>
      <trkpt lat="42.4641200" lon="-2.4476560">
        <ele>390.7</ele>
        <time>2022-08-13T06:14:13Z</time>
      </trkpt>
      <trkpt lat="42.4642170" lon="-2.4476320">
        <ele>390.6</ele>
        <time>2022-08-13T06:14:16Z</time>
      </trkpt>
      <trkpt lat="42.4642410" lon="-2.4476220">
        <ele>390.5</ele>
        <time>2022-08-13T06:14:17Z</time>
      </trkpt>
      <trkpt lat="42.4642530" lon="-2.4475790">
        <ele>390.5</ele>
        <time>2022-08-13T06:14:19Z</time>
      </trkpt>
      <trkpt lat="42.4642820" lon="-2.4475420">
        <ele>390.5</ele>
        <time>2022-08-13T06:14:22Z</time>
      </trkpt>
      <trkpt lat="42.4643390" lon="-2.4474960">
        <ele>390.5</ele>
        <time>2022-08-13T06:14:24Z</time>
      </trkpt>
      <trkpt lat="42.4643630" lon="-2.4474730">
        <ele>390.6</ele>
        <time>2022-08-13T06:14:25Z</time>
      </trkpt>
      <trkpt lat="42.4643750" lon="-2.4474440">
        <ele>390.6</ele>
        <time>2022-08-13T06:14:26Z</time>
      </trkpt>
      <trkpt lat="42.4643770" lon="-2.4474430">
        <ele>390.6</ele>
        <time>2022-08-13T06:14:30Z</time>
      </trkpt>
      <trkpt lat="42.4644100" lon="-2.4473550">
        <ele>390.6</ele>
        <time>2022-08-13T06:14:39Z</time>
      </trkpt>
      <trkpt lat="42.4644180" lon="-2.4473170">
        <ele>390.6</ele>
        <time>2022-08-13T06:14:40Z</time>
      </trkpt>
      <trkpt lat="42.4644410" lon="-2.4471500">
        <ele>390.6</ele>
        <time>2022-08-13T06:14:43Z</time>
      </trkpt>
      <trkpt lat="42.4644440" lon="-2.4470870">
        <ele>390.6</ele>
        <time>2022-08-13T06:14:44Z</time>
      </trkpt>
      <trkpt lat="42.4644550" lon="-2.4469370">
        <ele>390.7</ele>
        <time>2022-08-13T06:14:46Z</time>
      </trkpt>
      <trkpt lat="42.4644730" lon="-2.4467930">
        <ele>390.8</ele>
        <time>2022-08-13T06:14:48Z</time>
      </trkpt>
      <trkpt lat="42.4644770" lon="-2.4467380">
        <ele>390.7</ele>
        <time>2022-08-13T06:14:49Z</time>
      </trkpt>
      <trkpt lat="42.4645270" lon="-2.4465690">
        <ele>390.6</ele>
        <time>2022-08-13T06:14:51Z</time>
      </trkpt>
      <trkpt lat="42.4645010" lon="-2.4465100">
        <ele>390.5</ele>
        <time>2022-08-13T06:14:52Z</time>
      </trkpt>
      <trkpt lat="42.4644650" lon="-2.4464690">
        <ele>390.5</ele>
        <time>2022-08-13T06:14:53Z</time>
      </trkpt>
      <trkpt lat="42.4643770" lon="-2.4463220">
        <ele>390.4</ele>
        <time>2022-08-13T06:14:55Z</time>
      </trkpt>
      <trkpt lat="42.4643930" lon="-2.4462380">
        <ele>390.3</ele>
        <time>2022-08-13T06:14:56Z</time>
      </trkpt>
      <trkpt lat="42.4643090" lon="-2.4460650">
        <ele>390.2</ele>
        <time>2022-08-13T06:14:58Z</time>
      </trkpt>
      <trkpt lat="42.4642650" lon="-2.4459280">
        <ele>390.1</ele>
        <time>2022-08-13T06:15:00Z</time>
      </trkpt>
      <trkpt lat="42.4642390" lon="-2.4458090">
        <ele>390.0</ele>
        <time>2022-08-13T06:15:02Z</time>
      </trkpt>
      <trkpt lat="42.4642140" lon="-2.4456790">
        <ele>390.0</ele>
        <time>2022-08-13T06:15:04Z</time>
      </trkpt>
      <trkpt lat="42.4642100" lon="-2.4456110">
        <ele>389.9</ele>
        <time>2022-08-13T06:15:05Z</time>
      </trkpt>
      <trkpt lat="42.4641760" lon="-2.4454790">
        <ele>389.9</ele>
        <time>2022-08-13T06:15:07Z</time>
      </trkpt>
      <trkpt lat="42.4641870" lon="-2.4454340">
        <ele>389.9</ele>
        <time>2022-08-13T06:15:08Z</time>
      </trkpt>
      <trkpt lat="42.4641790" lon="-2.4453530">
        <ele>389.9</ele>
        <time>2022-08-13T06:15:10Z</time>
      </trkpt>
      <trkpt lat="42.4640670" lon="-2.4451860">
        <ele>390.0</ele>
        <time>2022-08-13T06:15:13Z</time>
      </trkpt>
      <trkpt lat="42.4640380" lon="-2.4451370">
        <ele>390.1</ele>
        <time>2022-08-13T06:15:14Z</time>
      </trkpt>
      <trkpt lat="42.4640180" lon="-2.4450910">
        <ele>390.1</ele>
        <time>2022-08-13T06:15:15Z</time>
      </trkpt>
      <trkpt lat="42.4640090" lon="-2.4450050">
        <ele>390.1</ele>
        <time>2022-08-13T06:15:17Z</time>
      </trkpt>
      <trkpt lat="42.4640340" lon="-2.4449460">
        <ele>390.2</ele>
        <time>2022-08-13T06:15:19Z</time>
      </trkpt>
      <trkpt lat="42.4640410" lon="-2.4448760">
        <ele>390.2</ele>
        <time>2022-08-13T06:15:34Z</time>
      </trkpt>
      <trkpt lat="42.4640420" lon="-2.4448380">
        <ele>390.2</ele>
        <time>2022-08-13T06:15:35Z</time>
      </trkpt>
      <trkpt lat="42.4640520" lon="-2.4447340">
        <ele>390.1</ele>
        <time>2022-08-13T06:15:37Z</time>
      </trkpt>
      <trkpt lat="42.4640930" lon="-2.4446480">
        <ele>390.0</ele>
        <time>2022-08-13T06:15:39Z</time>
      </trkpt>
      <trkpt lat="42.4641730" lon="-2.4445400">
        <ele>389.8</ele>
        <time>2022-08-13T06:15:41Z</time>
      </trkpt>
      <trkpt lat="42.4642580" lon="-2.4444580">
        <ele>389.8</ele>
        <time>2022-08-13T06:15:43Z</time>
      </trkpt>
      <trkpt lat="42.4643480" lon="-2.4443850">
        <ele>389.7</ele>
        <time>2022-08-13T06:15:45Z</time>
      </trkpt>
      <trkpt lat="42.4645090" lon="-2.4442740">
        <ele>389.6</ele>
        <time>2022-08-13T06:15:48Z</time>
      </trkpt>
      <trkpt lat="42.4646080" lon="-2.4442190">
        <ele>389.6</ele>
        <time>2022-08-13T06:15:50Z</time>
      </trkpt>
      <trkpt lat="42.4647220" lon="-2.4441630">
        <ele>389.6</ele>
        <time>2022-08-13T06:15:53Z</time>
      </trkpt>
      <trkpt lat="42.4647950" lon="-2.4441330">
        <ele>389.6</ele>
        <time>2022-08-13T06:15:55Z</time>
      </trkpt>
      <trkpt lat="42.4648690" lon="-2.4440980">
        <ele>389.6</ele>
        <time>2022-08-13T06:15:59Z</time>
      </trkpt>
      <trkpt lat="42.4649360" lon="-2.4440690">
        <ele>389.6</ele>
        <time>2022-08-13T06:16:01Z</time>
      </trkpt>
      <trkpt lat="42.4649490" lon="-2.4440590">
        <ele>389.6</ele>
        <time>2022-08-13T06:16:02Z</time>
      </trkpt>
      <trkpt lat="42.4649530" lon="-2.4440550">
        <ele>389.6</ele>
        <time>2022-08-13T06:16:03Z</time>
      </trkpt>
      <trkpt lat="42.4649530" lon="-2.4440550">
        <ele>389.6</ele>
        <time>2022-08-13T06:16:04Z</time>
      </trkpt>
      <trkpt lat="42.4649530" lon="-2.4440550">
        <ele>389.6</ele>
        <time>2022-08-13T06:16:06Z</time>
      </trkpt>
      <trkpt lat="42.4649660" lon="-2.4440410">
        <ele>389.6</ele>
        <time>2022-08-13T06:16:08Z</time>
      </trkpt>
      <trkpt lat="42.4649800" lon="-2.4440310">
        <ele>389.6</ele>
        <time>2022-08-13T06:16:09Z</time>
      </trkpt>
      <trkpt lat="42.4650000" lon="-2.4440180">
        <ele>389.6</ele>
        <time>2022-08-13T06:16:10Z</time>
      </trkpt>
      <trkpt lat="42.4650590" lon="-2.4439820">
        <ele>389.6</ele>
        <time>2022-08-13T06:16:12Z</time>
      </trkpt>
      <trkpt lat="42.4650940" lon="-2.4439610">
        <ele>389.6</ele>
        <time>2022-08-13T06:16:13Z</time>
      </trkpt>
      <trkpt lat="42.4651230" lon="-2.4439430">
        <ele>389.6</ele>
        <time>2022-08-13T06:16:14Z</time>
      </trkpt>
      <trkpt lat="42.4651560" lon="-2.4439290">
        <ele>389.6</ele>
        <time>2022-08-13T06:16:16Z</time>
      </trkpt>
      <trkpt lat="42.4651720" lon="-2.4439200">
        <ele>389.5</ele>
        <time>2022-08-13T06:16:17Z</time>
      </trkpt>
      <trkpt lat="42.4651960" lon="-2.4439070">
        <ele>389.5</ele>
        <time>2022-08-13T06:16:18Z</time>
      </trkpt>
      <trkpt lat="42.4652950" lon="-2.4438560">
        <ele>389.4</ele>
        <time>2022-08-13T06:16:20Z</time>
      </trkpt>
      <trkpt lat="42.4654240" lon="-2.4437880">
        <ele>389.3</ele>
        <time>2022-08-13T06:16:22Z</time>
      </trkpt>
      <trkpt lat="42.4657530" lon="-2.4436280">
        <ele>388.8</ele>
        <time>2022-08-13T06:16:27Z</time>
      </trkpt>
      <trkpt lat="42.4659120" lon="-2.4435490">
        <ele>388.6</ele>
        <time>2022-08-13T06:16:30Z</time>
      </trkpt>
      <trkpt lat="42.4659750" lon="-2.4435140">
        <ele>388.6</ele>
        <time>2022-08-13T06:16:31Z</time>
      </trkpt>
      <trkpt lat="42.4660400" lon="-2.4434830">
        <ele>388.5</ele>
        <time>2022-08-13T06:16:32Z</time>
      </trkpt>
      <trkpt lat="42.4661530" lon="-2.4434240">
        <ele>388.4</ele>
        <time>2022-08-13T06:16:35Z</time>
      </trkpt>
      <trkpt lat="42.4662400" lon="-2.4433840">
        <ele>388.3</ele>
        <time>2022-08-13T06:16:37Z</time>
      </trkpt>
      <trkpt lat="42.4663310" lon="-2.4433220">
        <ele>388.1</ele>
        <time>2022-08-13T06:16:39Z</time>
      </trkpt>
      <trkpt lat="42.4663650" lon="-2.4433610">
        <ele>388.0</ele>
        <time>2022-08-13T06:16:41Z</time>
      </trkpt>
      <trkpt lat="42.4663920" lon="-2.4434330">
        <ele>388.2</ele>
        <time>2022-08-13T06:16:43Z</time>
      </trkpt>
      <trkpt lat="42.4664180" lon="-2.4435270">
        <ele>388.4</ele>
        <time>2022-08-13T06:16:45Z</time>
      </trkpt>
      <trkpt lat="42.4664260" lon="-2.4436320">
        <ele>388.3</ele>
        <time>2022-08-13T06:16:47Z</time>
      </trkpt>
      <trkpt lat="42.4664360" lon="-2.4437400">
        <ele>388.1</ele>
        <time>2022-08-13T06:16:49Z</time>
      </trkpt>
      <trkpt lat="42.4664460" lon="-2.4438580">
        <ele>388.0</ele>
        <time>2022-08-13T06:16:51Z</time>
      </trkpt>
      <trkpt lat="42.4664580" lon="-2.4439760">
        <ele>387.9</ele>
        <time>2022-08-13T06:16:53Z</time>
      </trkpt>
      <trkpt lat="42.4664640" lon="-2.4440380">
        <ele>387.8</ele>
        <time>2022-08-13T06:16:54Z</time>
      </trkpt>
      <trkpt lat="42.4664710" lon="-2.4441610">
        <ele>387.6</ele>
        <time>2022-08-13T06:16:56Z</time>
      </trkpt>
      <trkpt lat="42.4664750" lon="-2.4444170">
        <ele>387.5</ele>
        <time>2022-08-13T06:17:00Z</time>
      </trkpt>
      <trkpt lat="42.4664750" lon="-2.4444840">
        <ele>387.4</ele>
        <time>2022-08-13T06:17:01Z</time>
      </trkpt>
      <trkpt lat="42.4664760" lon="-2.4445500">
        <ele>387.4</ele>
        <time>2022-08-13T06:17:02Z</time>
      </trkpt>
      <trkpt lat="42.4664870" lon="-2.4446680">
        <ele>387.4</ele>
        <time>2022-08-13T06:17:04Z</time>
      </trkpt>
      <trkpt lat="42.4664940" lon="-2.4447270">
        <ele>387.4</ele>
        <time>2022-08-13T06:17:05Z</time>
      </trkpt>
      <trkpt lat="42.4665340" lon="-2.4450660">
        <ele>387.3</ele>
        <time>2022-08-13T06:17:11Z</time>
      </trkpt>
      <trkpt lat="42.4665360" lon="-2.4451520">
        <ele>387.3</ele>
        <time>2022-08-13T06:17:13Z</time>
      </trkpt>
      <trkpt lat="42.4665430" lon="-2.4452320">
        <ele>387.3</ele>
        <time>2022-08-13T06:17:15Z</time>
      </trkpt>
      <trkpt lat="42.4665560" lon="-2.4453060">
        <ele>387.3</ele>
        <time>2022-08-13T06:17:17Z</time>
      </trkpt>
      <trkpt lat="42.4665620" lon="-2.4453530">
        <ele>387.3</ele>
        <time>2022-08-13T06:17:18Z</time>
      </trkpt>
      <trkpt lat="42.4665640" lon="-2.4454020">
        <ele>387.3</ele>
        <time>2022-08-13T06:17:19Z</time>
      </trkpt>
      <trkpt lat="42.4665670" lon="-2.4454480">
        <ele>387.3</ele>
        <time>2022-08-13T06:17:20Z</time>
      </trkpt>
      <trkpt lat="42.4665730" lon="-2.4454970">
        <ele>387.3</ele>
        <time>2022-08-13T06:17:21Z</time>
      </trkpt>
      <trkpt lat="42.4665920" lon="-2.4456020">
        <ele>387.3</ele>
        <time>2022-08-13T06:17:23Z</time>
      </trkpt>
      <trkpt lat="42.4665940" lon="-2.4456570">
        <ele>387.3</ele>
        <time>2022-08-13T06:17:24Z</time>
      </trkpt>
      <trkpt lat="42.4666160" lon="-2.4458110">
        <ele>387.1</ele>
        <time>2022-08-13T06:17:27Z</time>
      </trkpt>
      <trkpt lat="42.4666240" lon="-2.4458550">
        <ele>387.0</ele>
        <time>2022-08-13T06:17:28Z</time>
      </trkpt>
      <trkpt lat="42.4666220" lon="-2.4458940">
        <ele>387.0</ele>
        <time>2022-08-13T06:17:29Z</time>
      </trkpt>
      <trkpt lat="42.4666090" lon="-2.4459690">
        <ele>386.8</ele>
        <time>2022-08-13T06:17:31Z</time>
      </trkpt>
      <trkpt lat="42.4666110" lon="-2.4460580">
        <ele>386.7</ele>
        <time>2022-08-13T06:17:33Z</time>
      </trkpt>
      <trkpt lat="42.4666120" lon="-2.4462100">
        <ele>386.3</ele>
        <time>2022-08-13T06:17:37Z</time>
      </trkpt>
      <trkpt lat="42.4665980" lon="-2.4463960">
        <ele>385.6</ele>
        <time>2022-08-13T06:17:42Z</time>
      </trkpt>
      <trkpt lat="42.4665920" lon="-2.4464500">
        <ele>385.4</ele>
        <time>2022-08-13T06:17:43Z</time>
      </trkpt>
      <trkpt lat="42.4665700" lon="-2.4465570">
        <ele>385.0</ele>
        <time>2022-08-13T06:17:45Z</time>
      </trkpt>
      <trkpt lat="42.4665770" lon="-2.4467270">
        <ele>385.0</ele>
        <time>2022-08-13T06:17:48Z</time>
      </trkpt>
      <trkpt lat="42.4665870" lon="-2.4468650">
        <ele>385.2</ele>
        <time>2022-08-13T06:17:51Z</time>
      </trkpt>
      <trkpt lat="42.4665950" lon="-2.4469030">
        <ele>385.3</ele>
        <time>2022-08-13T06:17:52Z</time>
      </trkpt>
      <trkpt lat="42.4665970" lon="-2.4469920">
        <ele>385.3</ele>
        <time>2022-08-13T06:17:54Z</time>
      </trkpt>
      <trkpt lat="42.4666050" lon="-2.4470860">
        <ele>385.3</ele>
        <time>2022-08-13T06:17:56Z</time>
      </trkpt>
      <trkpt lat="42.4666120" lon="-2.4471220">
        <ele>385.4</ele>
        <time>2022-08-13T06:17:57Z</time>
      </trkpt>
      <trkpt lat="42.4666040" lon="-2.4471760">
        <ele>385.4</ele>
        <time>2022-08-13T06:17:58Z</time>
      </trkpt>
      <trkpt lat="42.4665770" lon="-2.4473670">
        <ele>385.5</ele>
        <time>2022-08-13T06:18:00Z</time>
      </trkpt>
      <trkpt lat="42.4665740" lon="-2.4475030">
        <ele>385.6</ele>
        <time>2022-08-13T06:18:02Z</time>
      </trkpt>
      <trkpt lat="42.4665580" lon="-2.4476200">
        <ele>385.8</ele>
        <time>2022-08-13T06:18:04Z</time>
      </trkpt>
      <trkpt lat="42.4665550" lon="-2.4476850">
        <ele>385.9</ele>
        <time>2022-08-13T06:18:05Z</time>
      </trkpt>
      <trkpt lat="42.4665550" lon="-2.4478490">
        <ele>386.0</ele>
        <time>2022-08-13T06:18:07Z</time>
      </trkpt>
      <trkpt lat="42.4665440" lon="-2.4479130">
        <ele>386.1</ele>
        <time>2022-08-13T06:18:08Z</time>
      </trkpt>
      <trkpt lat="42.4665340" lon="-2.4480270">
        <ele>386.2</ele>
        <time>2022-08-13T06:18:10Z</time>
      </trkpt>
      <trkpt lat="42.4665170" lon="-2.4481660">
        <ele>386.4</ele>
        <time>2022-08-13T06:18:12Z</time>
      </trkpt>
      <trkpt lat="42.4665140" lon="-2.4482260">
        <ele>386.4</ele>
        <time>2022-08-13T06:18:13Z</time>
      </trkpt>
      <trkpt lat="42.4664660" lon="-2.4484730">
        <ele>386.7</ele>
        <time>2022-08-13T06:18:16Z</time>
      </trkpt>
      <trkpt lat="42.4664490" lon="-2.4485410">
        <ele>386.8</ele>
        <time>2022-08-13T06:18:17Z</time>
      </trkpt>
      <trkpt lat="42.4664340" lon="-2.4486140">
        <ele>386.9</ele>
        <time>2022-08-13T06:18:18Z</time>
      </trkpt>
      <trkpt lat="42.4664400" lon="-2.4487990">
        <ele>387.2</ele>
        <time>2022-08-13T06:18:21Z</time>
      </trkpt>
      <trkpt lat="42.4664240" lon="-2.4489330">
        <ele>387.4</ele>
        <time>2022-08-13T06:18:23Z</time>
      </trkpt>
      <trkpt lat="42.4664260" lon="-2.4490840">
        <ele>387.7</ele>
        <time>2022-08-13T06:18:26Z</time>
      </trkpt>
      <trkpt lat="42.4664310" lon="-2.4491890">
        <ele>387.9</ele>
        <time>2022-08-13T06:18:28Z</time>
      </trkpt>
      <trkpt lat="42.4663820" lon="-2.4493640">
        <ele>388.5</ele>
        <time>2022-08-13T06:18:31Z</time>
      </trkpt>
      <trkpt lat="42.4663370" lon="-2.4495860">
        <ele>389.1</ele>
        <time>2022-08-13T06:18:35Z</time>
      </trkpt>
      <trkpt lat="42.4663040" lon="-2.4497050">
        <ele>389.5</ele>
        <time>2022-08-13T06:18:37Z</time>
      </trkpt>
      <trkpt lat="42.4662720" lon="-2.4499500">
        <ele>390.1</ele>
        <time>2022-08-13T06:18:42Z</time>
      </trkpt>
      <trkpt lat="42.4662650" lon="-2.4499900">
        <ele>390.2</ele>
        <time>2022-08-13T06:18:43Z</time>
      </trkpt>
      <trkpt lat="42.4662600" lon="-2.4500510">
        <ele>390.3</ele>
        <time>2022-08-13T06:18:45Z</time>
      </trkpt>
      <trkpt lat="42.4662880" lon="-2.4501120">
        <ele>390.4</ele>
        <time>2022-08-13T06:18:48Z</time>
      </trkpt>
      <trkpt lat="42.4662890" lon="-2.4501190">
        <ele>390.3</ele>
        <time>2022-08-13T06:18:49Z</time>
      </trkpt>
      <trkpt lat="42.4663040" lon="-2.4501260">
        <ele>390.2</ele>
        <time>2022-08-13T06:18:50Z</time>
      </trkpt>
      <trkpt lat="42.4664170" lon="-2.4500980">
        <ele>389.9</ele>
        <time>2022-08-13T06:18:53Z</time>
      </trkpt>
      <trkpt lat="42.4665990" lon="-2.4500920">
        <ele>389.4</ele>
        <time>2022-08-13T06:18:57Z</time>
      </trkpt>
      <trkpt lat="42.4667170" lon="-2.4501580">
        <ele>389.1</ele>
        <time>2022-08-13T06:19:00Z</time>
      </trkpt>
      <trkpt lat="42.4667510" lon="-2.4501840">
        <ele>389.1</ele>
        <time>2022-08-13T06:19:01Z</time>
      </trkpt>
      <trkpt lat="42.4669490" lon="-2.4502140">
        <ele>388.8</ele>
        <time>2022-08-13T06:19:07Z</time>
      </trkpt>
      <trkpt lat="42.4670930" lon="-2.4503070">
        <ele>388.6</ele>
        <time>2022-08-13T06:19:11Z</time>
      </trkpt>
      <trkpt lat="42.4671640" lon="-2.4503360">
        <ele>388.5</ele>
        <time>2022-08-13T06:19:13Z</time>
      </trkpt>
      <trkpt lat="42.4672130" lon="-2.4502970">
        <ele>388.2</ele>
        <time>2022-08-13T06:19:15Z</time>
      </trkpt>
      <trkpt lat="42.4672330" lon="-2.4502550">
        <ele>388.1</ele>
        <time>2022-08-13T06:19:16Z</time>
      </trkpt>
      <trkpt lat="42.4672930" lon="-2.4500910">
        <ele>387.8</ele>
        <time>2022-08-13T06:19:19Z</time>
      </trkpt>
      <trkpt lat="42.4673640" lon="-2.4499200">
        <ele>387.3</ele>
        <time>2022-08-13T06:19:22Z</time>
      </trkpt>
      <trkpt lat="42.4674420" lon="-2.4497200">
        <ele>386.7</ele>
        <time>2022-08-13T06:19:26Z</time>
      </trkpt>
      <trkpt lat="42.4674630" lon="-2.4496600">
        <ele>386.6</ele>
        <time>2022-08-13T06:19:28Z</time>
      </trkpt>
      <trkpt lat="42.4674640" lon="-2.4496430">
        <ele>386.5</ele>
        <time>2022-08-13T06:19:29Z</time>
      </trkpt>
      <trkpt lat="42.4674640" lon="-2.4496320">
        <ele>386.5</ele>
        <time>2022-08-13T06:19:30Z</time>
      </trkpt>
      <trkpt lat="42.4674710" lon="-2.4496310">
        <ele>386.5</ele>
        <time>2022-08-13T06:19:39Z</time>
      </trkpt>
      <trkpt lat="42.4674750" lon="-2.4496400">
        <ele>386.5</ele>
        <time>2022-08-13T06:19:40Z</time>
      </trkpt>
      <trkpt lat="42.4674750" lon="-2.4496940">
        <ele>386.4</ele>
        <time>2022-08-13T06:19:43Z</time>
      </trkpt>
      <trkpt lat="42.4674930" lon="-2.4497360">
        <ele>386.3</ele>
        <time>2022-08-13T06:19:45Z</time>
      </trkpt>
      <trkpt lat="42.4675620" lon="-2.4498090">
        <ele>386.0</ele>
        <time>2022-08-13T06:19:48Z</time>
      </trkpt>
      <trkpt lat="42.4676650" lon="-2.4498910">
        <ele>385.4</ele>
        <time>2022-08-13T06:19:51Z</time>
      </trkpt>
      <trkpt lat="42.4677990" lon="-2.4499550">
        <ele>384.5</ele>
        <time>2022-08-13T06:19:54Z</time>
      </trkpt>
      <trkpt lat="42.4678450" lon="-2.4499680">
        <ele>384.2</ele>
        <time>2022-08-13T06:19:55Z</time>
      </trkpt>
      <trkpt lat="42.4679550" lon="-2.4499890">
        <ele>383.1</ele>
        <time>2022-08-13T06:19:57Z</time>
      </trkpt>
      <trkpt lat="42.4680080" lon="-2.4499880">
        <ele>382.6</ele>
        <time>2022-08-13T06:19:58Z</time>
      </trkpt>
      <trkpt lat="42.4680600" lon="-2.4499680">
        <ele>382.1</ele>
        <time>2022-08-13T06:19:59Z</time>
      </trkpt>
      <trkpt lat="42.4681200" lon="-2.4499300">
        <ele>381.5</ele>
        <time>2022-08-13T06:20:00Z</time>
      </trkpt>
      <trkpt lat="42.4681730" lon="-2.4498970">
        <ele>381.0</ele>
        <time>2022-08-13T06:20:01Z</time>
      </trkpt>
      <trkpt lat="42.4682590" lon="-2.4498550">
        <ele>380.2</ele>
        <time>2022-08-13T06:20:03Z</time>
      </trkpt>
      <trkpt lat="42.4683770" lon="-2.4498320">
        <ele>379.2</ele>
        <time>2022-08-13T06:20:05Z</time>
      </trkpt>
      <trkpt lat="42.4684850" lon="-2.4498360">
        <ele>376.4</ele>
        <time>2022-08-13T06:20:07Z</time>
      </trkpt>
      <trkpt lat="42.4685420" lon="-2.4498400">
        <ele>375.2</ele>
        <time>2022-08-13T06:20:08Z</time>
      </trkpt>
      <trkpt lat="42.4685900" lon="-2.4498380">
        <ele>374.8</ele>
        <time>2022-08-13T06:20:09Z</time>
      </trkpt>
      <trkpt lat="42.4687310" lon="-2.4498060">
        <ele>373.9</ele>
        <time>2022-08-13T06:20:12Z</time>
      </trkpt>
      <trkpt lat="42.4687790" lon="-2.4498070">
        <ele>373.5</ele>
        <time>2022-08-13T06:20:13Z</time>
      </trkpt>
      <trkpt lat="42.4688290" lon="-2.4498130">
        <ele>373.2</ele>
        <time>2022-08-13T06:20:14Z</time>
      </trkpt>
      <trkpt lat="42.4688840" lon="-2.4498500">
        <ele>372.9</ele>
        <time>2022-08-13T06:20:15Z</time>
      </trkpt>
      <trkpt lat="42.4689350" lon="-2.4499000">
        <ele>372.6</ele>
        <time>2022-08-13T06:20:16Z</time>
      </trkpt>
      <trkpt lat="42.4689800" lon="-2.4499510">
        <ele>372.5</ele>
        <time>2022-08-13T06:20:17Z</time>
      </trkpt>
      <trkpt lat="42.4690130" lon="-2.4500050">
        <ele>372.5</ele>
        <time>2022-08-13T06:20:18Z</time>
      </trkpt>
      <trkpt lat="42.4690590" lon="-2.4501040">
        <ele>372.5</ele>
        <time>2022-08-13T06:20:20Z</time>
      </trkpt>
      <trkpt lat="42.4690690" lon="-2.4501580">
        <ele>372.5</ele>
        <time>2022-08-13T06:20:21Z</time>
      </trkpt>
      <trkpt lat="42.4690740" lon="-2.4502160">
        <ele>372.5</ele>
        <time>2022-08-13T06:20:22Z</time>
      </trkpt>
      <trkpt lat="42.4690730" lon="-2.4503350">
        <ele>372.5</ele>
        <time>2022-08-13T06:20:24Z</time>
      </trkpt>
      <trkpt lat="42.4690650" lon="-2.4503900">
        <ele>372.5</ele>
        <time>2022-08-13T06:20:25Z</time>
      </trkpt>
      <trkpt lat="42.4690600" lon="-2.4504460">
        <ele>372.5</ele>
        <time>2022-08-13T06:20:26Z</time>
      </trkpt>
      <trkpt lat="42.4690570" lon="-2.4505020">
        <ele>372.5</ele>
        <time>2022-08-13T06:20:27Z</time>
      </trkpt>
      <trkpt lat="42.4690610" lon="-2.4506020">
        <ele>372.6</ele>
        <time>2022-08-13T06:20:29Z</time>
      </trkpt>
      <trkpt lat="42.4690720" lon="-2.4507280">
        <ele>372.5</ele>
        <time>2022-08-13T06:20:31Z</time>
      </trkpt>
      <trkpt lat="42.4690740" lon="-2.4508530">
        <ele>372.5</ele>
        <time>2022-08-13T06:20:33Z</time>
      </trkpt>
      <trkpt lat="42.4690750" lon="-2.4509170">
        <ele>372.5</ele>
        <time>2022-08-13T06:20:34Z</time>
      </trkpt>
      <trkpt lat="42.4690740" lon="-2.4511040">
        <ele>372.5</ele>
        <time>2022-08-13T06:20:37Z</time>
      </trkpt>
      <trkpt lat="42.4690730" lon="-2.4513350">
        <ele>372.6</ele>
        <time>2022-08-13T06:20:41Z</time>
      </trkpt>
      <trkpt lat="42.4690900" lon="-2.4514540">
        <ele>372.6</ele>
        <time>2022-08-13T06:20:43Z</time>
      </trkpt>
      <trkpt lat="42.4691620" lon="-2.4517430">
        <ele>372.7</ele>
        <time>2022-08-13T06:20:48Z</time>
      </trkpt>
      <trkpt lat="42.4692170" lon="-2.4519470">
        <ele>373.0</ele>
        <time>2022-08-13T06:20:52Z</time>
      </trkpt>
      <trkpt lat="42.4692440" lon="-2.4520390">
        <ele>373.1</ele>
        <time>2022-08-13T06:20:54Z</time>
      </trkpt>
      <trkpt lat="42.4692510" lon="-2.4521220">
        <ele>373.3</ele>
        <time>2022-08-13T06:20:56Z</time>
      </trkpt>
      <trkpt lat="42.4692270" lon="-2.4522060">
        <ele>373.6</ele>
        <time>2022-08-13T06:20:58Z</time>
      </trkpt>
      <trkpt lat="42.4692130" lon="-2.4522350">
        <ele>373.7</ele>
        <time>2022-08-13T06:20:59Z</time>
      </trkpt>
      <trkpt lat="42.4691400" lon="-2.4522770">
        <ele>374.0</ele>
        <time>2022-08-13T06:21:02Z</time>
      </trkpt>
      <trkpt lat="42.4690910" lon="-2.4522990">
        <ele>374.3</ele>
        <time>2022-08-13T06:21:04Z</time>
      </trkpt>
      <trkpt lat="42.4690470" lon="-2.4523260">
        <ele>374.5</ele>
        <time>2022-08-13T06:21:06Z</time>
      </trkpt>
      <trkpt lat="42.4690000" lon="-2.4523450">
        <ele>375.2</ele>
        <time>2022-08-13T06:21:08Z</time>
      </trkpt>
      <trkpt lat="42.4689790" lon="-2.4523500">
        <ele>375.2</ele>
        <time>2022-08-13T06:21:09Z</time>
      </trkpt>
      <trkpt lat="42.4689650" lon="-2.4523570">
        <ele>375.2</ele>
        <time>2022-08-13T06:21:10Z</time>
      </trkpt>
      <trkpt lat="42.4689360" lon="-2.4523740">
        <ele>375.2</ele>
        <time>2022-08-13T06:21:12Z</time>
      </trkpt>
      <trkpt lat="42.4689290" lon="-2.4523870">
        <ele>375.2</ele>
        <time>2022-08-13T06:21:13Z</time>
      </trkpt>
      <trkpt lat="42.4689300" lon="-2.4523950">
        <ele>375.2</ele>
        <time>2022-08-13T06:21:14Z</time>
      </trkpt>
      <trkpt lat="42.4689830" lon="-2.4523990">
        <ele>375.3</ele>
        <time>2022-08-13T06:21:18Z</time>
      </trkpt>
      <trkpt lat="42.4690000" lon="-2.4524030">
        <ele>375.3</ele>
        <time>2022-08-13T06:21:19Z</time>
      </trkpt>
      <trkpt lat="42.4690160" lon="-2.4524160">
        <ele>375.4</ele>
        <time>2022-08-13T06:21:20Z</time>
      </trkpt>
      <trkpt lat="42.4690530" lon="-2.4525110">
        <ele>375.6</ele>
        <time>2022-08-13T06:21:23Z</time>
      </trkpt>
      <trkpt lat="42.4690780" lon="-2.4526020">
        <ele>375.7</ele>
        <time>2022-08-13T06:21:25Z</time>
      </trkpt>
      <trkpt lat="42.4691130" lon="-2.4527910">
        <ele>376.4</ele>
        <time>2022-08-13T06:21:29Z</time>
      </trkpt>
      <trkpt lat="42.4691270" lon="-2.4528390">
        <ele>376.5</ele>
        <time>2022-08-13T06:21:30Z</time>
      </trkpt>
      <trkpt lat="42.4692050" lon="-2.4530130">
        <ele>377.2</ele>
        <time>2022-08-13T06:21:34Z</time>
      </trkpt>
      <trkpt lat="42.4692400" lon="-2.4530910">
        <ele>377.5</ele>
        <time>2022-08-13T06:21:36Z</time>
      </trkpt>
      <trkpt lat="42.4692570" lon="-2.4531200">
        <ele>377.6</ele>
        <time>2022-08-13T06:21:37Z</time>
      </trkpt>
      <trkpt lat="42.4693060" lon="-2.4532280">
        <ele>378.0</ele>
        <time>2022-08-13T06:21:40Z</time>
      </trkpt>
      <trkpt lat="42.4693550" lon="-2.4533630">
        <ele>378.4</ele>
        <time>2022-08-13T06:21:43Z</time>
      </trkpt>
      <trkpt lat="42.4694010" lon="-2.4536080">
        <ele>378.9</ele>
        <time>2022-08-13T06:21:48Z</time>
      </trkpt>
      <trkpt lat="42.4694490" lon="-2.4538270">
        <ele>379.3</ele>
        <time>2022-08-13T06:21:53Z</time>
      </trkpt>
      <trkpt lat="42.4694670" lon="-2.4539140">
        <ele>379.3</ele>
        <time>2022-08-13T06:21:55Z</time>
      </trkpt>
      <trkpt lat="42.4694740" lon="-2.4539590">
        <ele>379.4</ele>
        <time>2022-08-13T06:21:56Z</time>
      </trkpt>
      <trkpt lat="42.4694920" lon="-2.4541380">
        <ele>379.5</ele>
        <time>2022-08-13T06:22:00Z</time>
      </trkpt>
      <trkpt lat="42.4695060" lon="-2.4543390">
        <ele>379.4</ele>
        <time>2022-08-13T06:22:04Z</time>
      </trkpt>
      <trkpt lat="42.4695140" lon="-2.4543900">
        <ele>379.4</ele>
        <time>2022-08-13T06:22:05Z</time>
      </trkpt>
      <trkpt lat="42.4695570" lon="-2.4546300">
        <ele>379.2</ele>
        <time>2022-08-13T06:22:09Z</time>
      </trkpt>
      <trkpt lat="42.4696060" lon="-2.4548160">
        <ele>379.0</ele>
        <time>2022-08-13T06:22:12Z</time>
      </trkpt>
      <trkpt lat="42.4696310" lon="-2.4549470">
        <ele>378.8</ele>
        <time>2022-08-13T06:22:14Z</time>
      </trkpt>
      <trkpt lat="42.4696470" lon="-2.4550070">
        <ele>378.7</ele>
        <time>2022-08-13T06:22:15Z</time>
      </trkpt>
      <trkpt lat="42.4696650" lon="-2.4550700">
        <ele>378.7</ele>
        <time>2022-08-13T06:22:16Z</time>
      </trkpt>
      <trkpt lat="42.4697290" lon="-2.4553340">
        <ele>378.3</ele>
        <time>2022-08-13T06:22:20Z</time>
      </trkpt>
      <trkpt lat="42.4697670" lon="-2.4554610">
        <ele>378.1</ele>
        <time>2022-08-13T06:22:22Z</time>
      </trkpt>
      <trkpt lat="42.4697960" lon="-2.4555940">
        <ele>378.0</ele>
        <time>2022-08-13T06:22:24Z</time>
      </trkpt>
      <trkpt lat="42.4698400" lon="-2.4557910">
        <ele>377.9</ele>
        <time>2022-08-13T06:22:27Z</time>
      </trkpt>
      <trkpt lat="42.4699320" lon="-2.4562040">
        <ele>378.1</ele>
        <time>2022-08-13T06:22:34Z</time>
      </trkpt>
      <trkpt lat="42.4699440" lon="-2.4562610">
        <ele>378.0</ele>
        <time>2022-08-13T06:22:35Z</time>
      </trkpt>
      <trkpt lat="42.4699580" lon="-2.4563160">
        <ele>378.0</ele>
        <time>2022-08-13T06:22:36Z</time>
      </trkpt>
      <trkpt lat="42.4700050" lon="-2.4565010">
        <ele>377.7</ele>
        <time>2022-08-13T06:22:39Z</time>
      </trkpt>
      <trkpt lat="42.4700270" lon="-2.4565580">
        <ele>377.5</ele>
        <time>2022-08-13T06:22:40Z</time>
      </trkpt>
      <trkpt lat="42.4700590" lon="-2.4566110">
        <ele>377.4</ele>
        <time>2022-08-13T06:22:41Z</time>
      </trkpt>
      <trkpt lat="42.4701890" lon="-2.4568200">
        <ele>376.8</ele>
        <time>2022-08-13T06:22:45Z</time>
      </trkpt>
      <trkpt lat="42.4702790" lon="-2.4570030">
        <ele>376.5</ele>
        <time>2022-08-13T06:22:48Z</time>
      </trkpt>
      <trkpt lat="42.4703120" lon="-2.4570620">
        <ele>376.4</ele>
        <time>2022-08-13T06:22:49Z</time>
      </trkpt>
      <trkpt lat="42.4703490" lon="-2.4571140">
        <ele>376.3</ele>
        <time>2022-08-13T06:22:50Z</time>
      </trkpt>
      <trkpt lat="42.4703920" lon="-2.4571610">
        <ele>376.2</ele>
        <time>2022-08-13T06:22:51Z</time>
      </trkpt>
      <trkpt lat="42.4704300" lon="-2.4572050">
        <ele>376.2</ele>
        <time>2022-08-13T06:22:52Z</time>
      </trkpt>
      <trkpt lat="42.4705340" lon="-2.4573380">
        <ele>376.2</ele>
        <time>2022-08-13T06:22:55Z</time>
      </trkpt>
      <trkpt lat="42.4705880" lon="-2.4574290">
        <ele>376.3</ele>
        <time>2022-08-13T06:22:57Z</time>
      </trkpt>
      <trkpt lat="42.4706430" lon="-2.4575190">
        <ele>376.4</ele>
        <time>2022-08-13T06:22:59Z</time>
      </trkpt>
      <trkpt lat="42.4706970" lon="-2.4576140">
        <ele>376.5</ele>
        <time>2022-08-13T06:23:01Z</time>
      </trkpt>
      <trkpt lat="42.4708260" lon="-2.4578570">
        <ele>376.7</ele>
        <time>2022-08-13T06:23:06Z</time>
      </trkpt>
      <trkpt lat="42.4709050" lon="-2.4580020">
        <ele>376.8</ele>
        <time>2022-08-13T06:23:09Z</time>
      </trkpt>
      <trkpt lat="42.4709300" lon="-2.4580500">
        <ele>376.8</ele>
        <time>2022-08-13T06:23:10Z</time>
      </trkpt>
      <trkpt lat="42.4710480" lon="-2.4582840">
        <ele>377.0</ele>
        <time>2022-08-13T06:23:15Z</time>
      </trkpt>
      <trkpt lat="42.4711500" lon="-2.4585460">
        <ele>377.2</ele>
        <time>2022-08-13T06:23:21Z</time>
      </trkpt>
      <trkpt lat="42.4713780" lon="-2.4590140">
        <ele>377.1</ele>
        <time>2022-08-13T06:23:30Z</time>
      </trkpt>
      <trkpt lat="42.4716020" lon="-2.4593380">
        <ele>377.2</ele>
        <time>2022-08-13T06:23:37Z</time>
      </trkpt>
      <trkpt lat="42.4716340" lon="-2.4593740">
        <ele>377.2</ele>
        <time>2022-08-13T06:23:38Z</time>
      </trkpt>
      <trkpt lat="42.4716650" lon="-2.4594080">
        <ele>377.3</ele>
        <time>2022-08-13T06:23:39Z</time>
      </trkpt>
      <trkpt lat="42.4717960" lon="-2.4595470">
        <ele>377.3</ele>
        <time>2022-08-13T06:23:43Z</time>
      </trkpt>
      <trkpt lat="42.4718340" lon="-2.4595920">
        <ele>377.2</ele>
        <time>2022-08-13T06:23:44Z</time>
      </trkpt>
      <trkpt lat="42.4719100" lon="-2.4596560">
        <ele>377.1</ele>
        <time>2022-08-13T06:23:46Z</time>
      </trkpt>
      <trkpt lat="42.4720160" lon="-2.4597550">
        <ele>376.9</ele>
        <time>2022-08-13T06:23:49Z</time>
      </trkpt>
      <trkpt lat="42.4721820" lon="-2.4599320">
        <ele>376.6</ele>
        <time>2022-08-13T06:23:55Z</time>
      </trkpt>
      <trkpt lat="42.4722020" lon="-2.4599920">
        <ele>376.6</ele>
        <time>2022-08-13T06:23:57Z</time>
      </trkpt>
      <trkpt lat="42.4722070" lon="-2.4600310">
        <ele>376.5</ele>
        <time>2022-08-13T06:23:59Z</time>
      </trkpt>
      <trkpt lat="42.4722640" lon="-2.4601080">
        <ele>376.4</ele>
        <time>2022-08-13T06:24:02Z</time>
      </trkpt>
      <trkpt lat="42.4723050" lon="-2.4601340">
        <ele>376.4</ele>
        <time>2022-08-13T06:24:04Z</time>
      </trkpt>
      <trkpt lat="42.4724930" lon="-2.4602380">
        <ele>376.3</ele>
        <time>2022-08-13T06:24:10Z</time>
      </trkpt>
      <trkpt lat="42.4726690" lon="-2.4603240">
        <ele>376.3</ele>
        <time>2022-08-13T06:24:15Z</time>
      </trkpt>
      <trkpt lat="42.4727590" lon="-2.4603840">
        <ele>376.3</ele>
        <time>2022-08-13T06:24:18Z</time>
      </trkpt>
      <trkpt lat="42.4727690" lon="-2.4604560">
        <ele>376.5</ele>
        <time>2022-08-13T06:24:20Z</time>
      </trkpt>
      <trkpt lat="42.4726660" lon="-2.4605930">
        <ele>376.9</ele>
        <time>2022-08-13T06:24:25Z</time>
      </trkpt>
      <trkpt lat="42.4726220" lon="-2.4606490">
        <ele>377.1</ele>
        <time>2022-08-13T06:24:27Z</time>
      </trkpt>
      <trkpt lat="42.4725510" lon="-2.4607260">
        <ele>377.5</ele>
        <time>2022-08-13T06:24:30Z</time>
      </trkpt>
      <trkpt lat="42.4724440" lon="-2.4608560">
        <ele>378.0</ele>
        <time>2022-08-13T06:24:35Z</time>
      </trkpt>
      <trkpt lat="42.4723860" lon="-2.4609450">
        <ele>378.3</ele>
        <time>2022-08-13T06:24:38Z</time>
      </trkpt>
      <trkpt lat="42.4723630" lon="-2.4609740">
        <ele>378.4</ele>
        <time>2022-08-13T06:24:39Z</time>
      </trkpt>
      <trkpt lat="42.4723030" lon="-2.4610270">
        <ele>378.6</ele>
        <time>2022-08-13T06:24:41Z</time>
      </trkpt>
      <trkpt lat="42.4722120" lon="-2.4611210">
        <ele>379.0</ele>
        <time>2022-08-13T06:24:44Z</time>
      </trkpt>
      <trkpt lat="42.4721570" lon="-2.4611910">
        <ele>379.3</ele>
        <time>2022-08-13T06:24:46Z</time>
      </trkpt>
      <trkpt lat="42.4721090" lon="-2.4612430">
        <ele>379.4</ele>
        <time>2022-08-13T06:24:48Z</time>
      </trkpt>
      <trkpt lat="42.4720810" lon="-2.4612550">
        <ele>379.4</ele>
        <time>2022-08-13T06:24:49Z</time>
      </trkpt>
      <trkpt lat="42.4720290" lon="-2.4612340">
        <ele>379.7</ele>
        <time>2022-08-13T06:24:51Z</time>
      </trkpt>
      <trkpt lat="42.4719980" lon="-2.4611910">
        <ele>379.8</ele>
        <time>2022-08-13T06:24:53Z</time>
      </trkpt>
      <trkpt lat="42.4719620" lon="-2.4611560">
        <ele>380.0</ele>
        <time>2022-08-13T06:24:55Z</time>
      </trkpt>
      <trkpt lat="42.4719470" lon="-2.4611360">
        <ele>380.1</ele>
        <time>2022-08-13T06:24:56Z</time>
      </trkpt>
      <trkpt lat="42.4719120" lon="-2.4610920">
        <ele>380.3</ele>
        <time>2022-08-13T06:24:58Z</time>
      </trkpt>
      <trkpt lat="42.4718660" lon="-2.4610400">
        <ele>380.6</ele>
        <time>2022-08-13T06:25:00Z</time>
      </trkpt>
      <trkpt lat="42.4718290" lon="-2.4609930">
        <ele>380.9</ele>
        <time>2022-08-13T06:25:02Z</time>
      </trkpt>
      <trkpt lat="42.4718100" lon="-2.4609690">
        <ele>381.1</ele>
        <time>2022-08-13T06:25:03Z</time>
      </trkpt>
      <trkpt lat="42.4717700" lon="-2.4609220">
        <ele>381.4</ele>
        <time>2022-08-13T06:25:05Z</time>
      </trkpt>
      <trkpt lat="42.4717300" lon="-2.4608760">
        <ele>381.8</ele>
        <time>2022-08-13T06:25:07Z</time>
      </trkpt>
      <trkpt lat="42.4716610" lon="-2.4607800">
        <ele>382.5</ele>
        <time>2022-08-13T06:25:11Z</time>
      </trkpt>
      <trkpt lat="42.4716260" lon="-2.4607390">
        <ele>382.9</ele>
        <time>2022-08-13T06:25:13Z</time>
      </trkpt>
      <trkpt lat="42.4715470" lon="-2.4606470">
        <ele>383.8</ele>
        <time>2022-08-13T06:25:18Z</time>
      </trkpt>
      <trkpt lat="42.4714960" lon="-2.4605920">
        <ele>384.3</ele>
        <time>2022-08-13T06:25:21Z</time>
      </trkpt>
      <trkpt lat="42.4714690" lon="-2.4605470">
        <ele>384.7</ele>
        <time>2022-08-13T06:25:23Z</time>
      </trkpt>
      <trkpt lat="42.4714290" lon="-2.4604830">
        <ele>385.3</ele>
        <time>2022-08-13T06:25:25Z</time>
      </trkpt>
      <trkpt lat="42.4713520" lon="-2.4603900">
        <ele>386.3</ele>
        <time>2022-08-13T06:25:29Z</time>
      </trkpt>
      <trkpt lat="42.4713360" lon="-2.4603800">
        <ele>386.4</ele>
        <time>2022-08-13T06:25:30Z</time>
      </trkpt>
      <trkpt lat="42.4713500" lon="-2.4604050">
        <ele>386.6</ele>
        <time>2022-08-13T06:25:33Z</time>
      </trkpt>
      <trkpt lat="42.4713650" lon="-2.4604230">
        <ele>386.7</ele>
        <time>2022-08-13T06:25:34Z</time>
      </trkpt>
      <trkpt lat="42.4714140" lon="-2.4605660">
        <ele>387.2</ele>
        <time>2022-08-13T06:25:38Z</time>
      </trkpt>
      <trkpt lat="42.4714500" lon="-2.4607520">
        <ele>387.4</ele>
        <time>2022-08-13T06:25:43Z</time>
      </trkpt>
      <trkpt lat="42.4714630" lon="-2.4607920">
        <ele>387.4</ele>
        <time>2022-08-13T06:25:44Z</time>
      </trkpt>
      <trkpt lat="42.4715090" lon="-2.4609260">
        <ele>387.5</ele>
        <time>2022-08-13T06:25:47Z</time>
      </trkpt>
      <trkpt lat="42.4715390" lon="-2.4610200">
        <ele>387.5</ele>
        <time>2022-08-13T06:25:49Z</time>
      </trkpt>
      <trkpt lat="42.4715700" lon="-2.4611070">
        <ele>387.6</ele>
        <time>2022-08-13T06:25:51Z</time>
      </trkpt>
      <trkpt lat="42.4715940" lon="-2.4611930">
        <ele>387.6</ele>
        <time>2022-08-13T06:25:53Z</time>
      </trkpt>
      <trkpt lat="42.4716130" lon="-2.4612280">
        <ele>387.6</ele>
        <time>2022-08-13T06:25:54Z</time>
      </trkpt>
      <trkpt lat="42.4716330" lon="-2.4612810">
        <ele>387.7</ele>
        <time>2022-08-13T06:25:56Z</time>
      </trkpt>
      <trkpt lat="42.4716230" lon="-2.4613050">
        <ele>387.7</ele>
        <time>2022-08-13T06:25:57Z</time>
      </trkpt>
      <trkpt lat="42.4715950" lon="-2.4613720">
        <ele>387.8</ele>
        <time>2022-08-13T06:26:00Z</time>
      </trkpt>
      <trkpt lat="42.4715890" lon="-2.4613750">
        <ele>387.8</ele>
        <time>2022-08-13T06:26:02Z</time>
      </trkpt>
      <trkpt lat="42.4715610" lon="-2.4613770">
        <ele>387.8</ele>
        <time>2022-08-13T06:26:06Z</time>
      </trkpt>
      <trkpt lat="42.4715100" lon="-2.4613920">
        <ele>387.9</ele>
        <time>2022-08-13T06:26:07Z</time>
      </trkpt>
      <trkpt lat="42.4714950" lon="-2.4614130">
        <ele>387.9</ele>
        <time>2022-08-13T06:26:09Z</time>
      </trkpt>
      <trkpt lat="42.4714660" lon="-2.4614580">
        <ele>388.0</ele>
        <time>2022-08-13T06:26:10Z</time>
      </trkpt>
      <trkpt lat="42.4714920" lon="-2.4614890">
        <ele>388.0</ele>
        <time>2022-08-13T06:26:13Z</time>
      </trkpt>
      <trkpt lat="42.4714860" lon="-2.4615080">
        <ele>388.1</ele>
        <time>2022-08-13T06:26:15Z</time>
      </trkpt>
      <trkpt lat="42.4714900" lon="-2.4615410">
        <ele>388.1</ele>
        <time>2022-08-13T06:28:16Z</time>
      </trkpt>
      <trkpt lat="42.4714920" lon="-2.4615310">
        <ele>388.1</ele>
        <time>2022-08-13T06:28:17Z</time>
      </trkpt>
      <trkpt lat="42.4714750" lon="-2.4615210">
        <ele>388.1</ele>
        <time>2022-08-13T06:28:18Z</time>
      </trkpt>
      <trkpt lat="42.4714180" lon="-2.4614960">
        <ele>388.2</ele>
        <time>2022-08-13T06:28:20Z</time>
      </trkpt>
      <trkpt lat="42.4713830" lon="-2.4614640">
        <ele>388.3</ele>
        <time>2022-08-13T06:28:22Z</time>
      </trkpt>
      <trkpt lat="42.4713680" lon="-2.4614510">
        <ele>388.3</ele>
        <time>2022-08-13T06:28:23Z</time>
      </trkpt>
      <trkpt lat="42.4712620" lon="-2.4613350">
        <ele>388.3</ele>
        <time>2022-08-13T06:28:27Z</time>
      </trkpt>
      <trkpt lat="42.4712340" lon="-2.4612970">
        <ele>388.3</ele>
        <time>2022-08-13T06:28:28Z</time>
      </trkpt>
      <trkpt lat="42.4711170" lon="-2.4611600">
        <ele>388.4</ele>
        <time>2022-08-13T06:28:33Z</time>
      </trkpt>
      <trkpt lat="42.4710440" lon="-2.4610380">
        <ele>388.5</ele>
        <time>2022-08-13T06:28:37Z</time>
      </trkpt>
      <trkpt lat="42.4710170" lon="-2.4609450">
        <ele>388.6</ele>
        <time>2022-08-13T06:28:39Z</time>
      </trkpt>
      <trkpt lat="42.4709150" lon="-2.4607010">
        <ele>388.9</ele>
        <time>2022-08-13T06:28:45Z</time>
      </trkpt>
      <trkpt lat="42.4709000" lon="-2.4606570">
        <ele>388.9</ele>
        <time>2022-08-13T06:28:46Z</time>
      </trkpt>
      <trkpt lat="42.4708540" lon="-2.4605420">
        <ele>389.1</ele>
        <time>2022-08-13T06:28:49Z</time>
      </trkpt>
      <trkpt lat="42.4707620" lon="-2.4604490">
        <ele>389.2</ele>
        <time>2022-08-13T06:28:52Z</time>
      </trkpt>
      <trkpt lat="42.4707640" lon="-2.4604550">
        <ele>389.2</ele>
        <time>2022-08-13T06:28:54Z</time>
      </trkpt>
      <trkpt lat="42.4707340" lon="-2.4604730">
        <ele>389.2</ele>
        <time>2022-08-13T06:28:55Z</time>
      </trkpt>
      <trkpt lat="42.4706150" lon="-2.4605420">
        <ele>389.1</ele>
        <time>2022-08-13T06:28:58Z</time>
      </trkpt>
      <trkpt lat="42.4705340" lon="-2.4605710">
        <ele>389.0</ele>
        <time>2022-08-13T06:29:00Z</time>
      </trkpt>
      <trkpt lat="42.4703610" lon="-2.4607390">
        <ele>388.9</ele>
        <time>2022-08-13T06:29:04Z</time>
      </trkpt>
      <trkpt lat="42.4703160" lon="-2.4607800">
        <ele>388.9</ele>
        <time>2022-08-13T06:29:05Z</time>
      </trkpt>
      <trkpt lat="42.4702700" lon="-2.4608100">
        <ele>388.9</ele>
        <time>2022-08-13T06:29:06Z</time>
      </trkpt>
      <trkpt lat="42.4701800" lon="-2.4608890">
        <ele>388.8</ele>
        <time>2022-08-13T06:29:08Z</time>
      </trkpt>
      <trkpt lat="42.4700750" lon="-2.4609520">
        <ele>388.7</ele>
        <time>2022-08-13T06:29:10Z</time>
      </trkpt>
      <trkpt lat="42.4700250" lon="-2.4610180">
        <ele>388.7</ele>
        <time>2022-08-13T06:29:11Z</time>
      </trkpt>
      <trkpt lat="42.4699760" lon="-2.4610990">
        <ele>388.6</ele>
        <time>2022-08-13T06:29:12Z</time>
      </trkpt>
      <trkpt lat="42.4699270" lon="-2.4611580">
        <ele>388.5</ele>
        <time>2022-08-13T06:29:13Z</time>
      </trkpt>
      <trkpt lat="42.4698360" lon="-2.4612320">
        <ele>388.5</ele>
        <time>2022-08-13T06:29:15Z</time>
      </trkpt>
      <trkpt lat="42.4696960" lon="-2.4613400">
        <ele>388.5</ele>
        <time>2022-08-13T06:29:18Z</time>
      </trkpt>
      <trkpt lat="42.4696460" lon="-2.4613990">
        <ele>388.5</ele>
        <time>2022-08-13T06:29:19Z</time>
      </trkpt>
      <trkpt lat="42.4696140" lon="-2.4614450">
        <ele>388.5</ele>
        <time>2022-08-13T06:29:20Z</time>
      </trkpt>
      <trkpt lat="42.4695260" lon="-2.4615260">
        <ele>388.5</ele>
        <time>2022-08-13T06:29:22Z</time>
      </trkpt>
      <trkpt lat="42.4694240" lon="-2.4615820">
        <ele>388.5</ele>
        <time>2022-08-13T06:29:24Z</time>
      </trkpt>
      <trkpt lat="42.4692410" lon="-2.4617090">
        <ele>388.6</ele>
        <time>2022-08-13T06:29:28Z</time>
      </trkpt>
      <trkpt lat="42.4691990" lon="-2.4617430">
        <ele>388.6</ele>
        <time>2022-08-13T06:29:29Z</time>
      </trkpt>
      <trkpt lat="42.4691330" lon="-2.4617970">
        <ele>388.6</ele>
        <time>2022-08-13T06:29:31Z</time>
      </trkpt>
      <trkpt lat="42.4689730" lon="-2.4619050">
        <ele>388.7</ele>
        <time>2022-08-13T06:29:35Z</time>
      </trkpt>
      <trkpt lat="42.4689320" lon="-2.4619280">
        <ele>388.7</ele>
        <time>2022-08-13T06:29:36Z</time>
      </trkpt>
      <trkpt lat="42.4688900" lon="-2.4619360">
        <ele>388.8</ele>
        <time>2022-08-13T06:29:37Z</time>
      </trkpt>
      <trkpt lat="42.4688480" lon="-2.4619420">
        <ele>388.8</ele>
        <time>2022-08-13T06:29:38Z</time>
      </trkpt>
      <trkpt lat="42.4687150" lon="-2.4619910">
        <ele>388.9</ele>
        <time>2022-08-13T06:29:41Z</time>
      </trkpt>
      <trkpt lat="42.4686660" lon="-2.4620010">
        <ele>389.0</ele>
        <time>2022-08-13T06:29:42Z</time>
      </trkpt>
      <trkpt lat="42.4686140" lon="-2.4619990">
        <ele>389.1</ele>
        <time>2022-08-13T06:29:43Z</time>
      </trkpt>
      <trkpt lat="42.4685630" lon="-2.4620010">
        <ele>389.1</ele>
        <time>2022-08-13T06:29:44Z</time>
      </trkpt>
      <trkpt lat="42.4685140" lon="-2.4620110">
        <ele>389.1</ele>
        <time>2022-08-13T06:29:45Z</time>
      </trkpt>
      <trkpt lat="42.4684280" lon="-2.4620380">
        <ele>389.2</ele>
        <time>2022-08-13T06:29:47Z</time>
      </trkpt>
      <trkpt lat="42.4683350" lon="-2.4620570">
        <ele>389.3</ele>
        <time>2022-08-13T06:29:49Z</time>
      </trkpt>
      <trkpt lat="42.4682310" lon="-2.4620740">
        <ele>389.5</ele>
        <time>2022-08-13T06:29:51Z</time>
      </trkpt>
      <trkpt lat="42.4680880" lon="-2.4621100">
        <ele>389.6</ele>
        <time>2022-08-13T06:29:54Z</time>
      </trkpt>
      <trkpt lat="42.4678520" lon="-2.4621340">
        <ele>390.0</ele>
        <time>2022-08-13T06:29:59Z</time>
      </trkpt>
      <trkpt lat="42.4678070" lon="-2.4621460">
        <ele>390.1</ele>
        <time>2022-08-13T06:30:00Z</time>
      </trkpt>
      <trkpt lat="42.4677630" lon="-2.4621490">
        <ele>390.2</ele>
        <time>2022-08-13T06:30:01Z</time>
      </trkpt>
      <trkpt lat="42.4676330" lon="-2.4621530">
        <ele>390.5</ele>
        <time>2022-08-13T06:30:04Z</time>
      </trkpt>
      <trkpt lat="42.4675530" lon="-2.4621580">
        <ele>390.6</ele>
        <time>2022-08-13T06:30:06Z</time>
      </trkpt>
      <trkpt lat="42.4674860" lon="-2.4622110">
        <ele>390.7</ele>
        <time>2022-08-13T06:30:08Z</time>
      </trkpt>
      <trkpt lat="42.4674120" lon="-2.4622980">
        <ele>390.9</ele>
        <time>2022-08-13T06:30:10Z</time>
      </trkpt>
      <trkpt lat="42.4673200" lon="-2.4623410">
        <ele>391.1</ele>
        <time>2022-08-13T06:30:12Z</time>
      </trkpt>
      <trkpt lat="42.4672710" lon="-2.4623460">
        <ele>391.2</ele>
        <time>2022-08-13T06:30:13Z</time>
      </trkpt>
      <trkpt lat="42.4670310" lon="-2.4623370">
        <ele>391.4</ele>
        <time>2022-08-13T06:30:18Z</time>
      </trkpt>
      <trkpt lat="42.4669780" lon="-2.4623500">
        <ele>391.4</ele>
        <time>2022-08-13T06:30:19Z</time>
      </trkpt>
      <trkpt lat="42.4669260" lon="-2.4623720">
        <ele>391.5</ele>
        <time>2022-08-13T06:30:20Z</time>
      </trkpt>
      <trkpt lat="42.4666850" lon="-2.4625260">
        <ele>391.5</ele>
        <time>2022-08-13T06:30:25Z</time>
      </trkpt>
      <trkpt lat="42.4665560" lon="-2.4625980">
        <ele>391.6</ele>
        <time>2022-08-13T06:30:28Z</time>
      </trkpt>
      <trkpt lat="42.4664530" lon="-2.4626380">
        <ele>391.6</ele>
        <time>2022-08-13T06:30:30Z</time>
      </trkpt>
      <trkpt lat="42.4664030" lon="-2.4626590">
        <ele>391.7</ele>
        <time>2022-08-13T06:30:31Z</time>
      </trkpt>
      <trkpt lat="42.4661820" lon="-2.4627150">
        <ele>391.8</ele>
        <time>2022-08-13T06:30:36Z</time>
      </trkpt>
      <trkpt lat="42.4661420" lon="-2.4627150">
        <ele>391.8</ele>
        <time>2022-08-13T06:30:37Z</time>
      </trkpt>
      <trkpt lat="42.4661010" lon="-2.4627110">
        <ele>391.8</ele>
        <time>2022-08-13T06:30:38Z</time>
      </trkpt>
      <trkpt lat="42.4659590" lon="-2.4627140">
        <ele>391.9</ele>
        <time>2022-08-13T06:30:41Z</time>
      </trkpt>
      <trkpt lat="42.4658670" lon="-2.4627110">
        <ele>391.9</ele>
        <time>2022-08-13T06:30:43Z</time>
      </trkpt>
      <trkpt lat="42.4658300" lon="-2.4627120">
        <ele>392.0</ele>
        <time>2022-08-13T06:30:44Z</time>
      </trkpt>
      <trkpt lat="42.4657540" lon="-2.4627280">
        <ele>392.0</ele>
        <time>2022-08-13T06:30:46Z</time>
      </trkpt>
      <trkpt lat="42.4657120" lon="-2.4627530">
        <ele>392.0</ele>
        <time>2022-08-13T06:30:47Z</time>
      </trkpt>
      <trkpt lat="42.4656660" lon="-2.4627690">
        <ele>392.1</ele>
        <time>2022-08-13T06:30:48Z</time>
      </trkpt>
      <trkpt lat="42.4655570" lon="-2.4627670">
        <ele>392.2</ele>
        <time>2022-08-13T06:30:50Z</time>
      </trkpt>
      <trkpt lat="42.4653530" lon="-2.4627900">
        <ele>392.3</ele>
        <time>2022-08-13T06:30:54Z</time>
      </trkpt>
      <trkpt lat="42.4653080" lon="-2.4627960">
        <ele>392.3</ele>
        <time>2022-08-13T06:30:55Z</time>
      </trkpt>
      <trkpt lat="42.4652040" lon="-2.4628040">
        <ele>392.4</ele>
        <time>2022-08-13T06:30:57Z</time>
      </trkpt>
      <trkpt lat="42.4651510" lon="-2.4627990">
        <ele>392.4</ele>
        <time>2022-08-13T06:30:58Z</time>
      </trkpt>
      <trkpt lat="42.4647950" lon="-2.4627580">
        <ele>392.5</ele>
        <time>2022-08-13T06:31:04Z</time>
      </trkpt>
      <trkpt lat="42.4647480" lon="-2.4627360">
        <ele>392.5</ele>
        <time>2022-08-13T06:31:05Z</time>
      </trkpt>
      <trkpt lat="42.4646420" lon="-2.4627050">
        <ele>392.5</ele>
        <time>2022-08-13T06:31:07Z</time>
      </trkpt>
      <trkpt lat="42.4645940" lon="-2.4626930">
        <ele>392.5</ele>
        <time>2022-08-13T06:31:08Z</time>
      </trkpt>
      <trkpt lat="42.4643580" lon="-2.4626460">
        <ele>392.7</ele>
        <time>2022-08-13T06:31:13Z</time>
      </trkpt>
      <trkpt lat="42.4642970" lon="-2.4626370">
        <ele>392.7</ele>
        <time>2022-08-13T06:31:14Z</time>
      </trkpt>
      <trkpt lat="42.4642350" lon="-2.4626160">
        <ele>392.8</ele>
        <time>2022-08-13T06:31:15Z</time>
      </trkpt>
      <trkpt lat="42.4640230" lon="-2.4625060">
        <ele>393.1</ele>
        <time>2022-08-13T06:31:20Z</time>
      </trkpt>
      <trkpt lat="42.4639240" lon="-2.4624590">
        <ele>393.2</ele>
        <time>2022-08-13T06:31:22Z</time>
      </trkpt>
      <trkpt lat="42.4638540" lon="-2.4624610">
        <ele>393.3</ele>
        <time>2022-08-13T06:31:24Z</time>
      </trkpt>
      <trkpt lat="42.4638230" lon="-2.4624650">
        <ele>393.4</ele>
        <time>2022-08-13T06:31:25Z</time>
      </trkpt>
      <trkpt lat="42.4637490" lon="-2.4624540">
        <ele>393.5</ele>
        <time>2022-08-13T06:31:27Z</time>
      </trkpt>
      <trkpt lat="42.4636540" lon="-2.4623830">
        <ele>393.8</ele>
        <time>2022-08-13T06:31:29Z</time>
      </trkpt>
      <trkpt lat="42.4635990" lon="-2.4623410">
        <ele>394.0</ele>
        <time>2022-08-13T06:31:30Z</time>
      </trkpt>
      <trkpt lat="42.4635080" lon="-2.4622680">
        <ele>394.3</ele>
        <time>2022-08-13T06:31:32Z</time>
      </trkpt>
      <trkpt lat="42.4634620" lon="-2.4622270">
        <ele>394.4</ele>
        <time>2022-08-13T06:31:34Z</time>
      </trkpt>
      <trkpt lat="42.4634120" lon="-2.4622610">
        <ele>394.7</ele>
        <time>2022-08-13T06:31:36Z</time>
      </trkpt>
      <trkpt lat="42.4633940" lon="-2.4622610">
        <ele>394.9</ele>
        <time>2022-08-13T06:31:37Z</time>
      </trkpt>
      <trkpt lat="42.4633290" lon="-2.4622220">
        <ele>394.9</ele>
        <time>2022-08-13T06:31:38Z</time>
      </trkpt>
      <trkpt lat="42.4632190" lon="-2.4621800">
        <ele>394.8</ele>
        <time>2022-08-13T06:31:41Z</time>
      </trkpt>
      <trkpt lat="42.4629890" lon="-2.4620840">
        <ele>394.5</ele>
        <time>2022-08-13T06:31:45Z</time>
      </trkpt>
      <trkpt lat="42.4628330" lon="-2.4620080">
        <ele>394.4</ele>
        <time>2022-08-13T06:31:48Z</time>
      </trkpt>
      <trkpt lat="42.4627310" lon="-2.4619760">
        <ele>394.4</ele>
        <time>2022-08-13T06:31:50Z</time>
      </trkpt>
      <trkpt lat="42.4625450" lon="-2.4619590">
        <ele>394.3</ele>
        <time>2022-08-13T06:31:54Z</time>
      </trkpt>
      <trkpt lat="42.4624820" lon="-2.4619420">
        <ele>394.3</ele>
        <time>2022-08-13T06:31:56Z</time>
      </trkpt>
      <trkpt lat="42.4624660" lon="-2.4619290">
        <ele>394.3</ele>
        <time>2022-08-13T06:31:57Z</time>
      </trkpt>
      <trkpt lat="42.4624290" lon="-2.4619130">
        <ele>394.3</ele>
        <time>2022-08-13T06:31:58Z</time>
      </trkpt>
      <trkpt lat="42.4623500" lon="-2.4618770">
        <ele>394.3</ele>
        <time>2022-08-13T06:32:00Z</time>
      </trkpt>
      <trkpt lat="42.4622950" lon="-2.4618450">
        <ele>394.3</ele>
        <time>2022-08-13T06:32:01Z</time>
      </trkpt>
      <trkpt lat="42.4622500" lon="-2.4618140">
        <ele>394.3</ele>
        <time>2022-08-13T06:32:02Z</time>
      </trkpt>
      <trkpt lat="42.4622050" lon="-2.4617840">
        <ele>394.3</ele>
        <time>2022-08-13T06:32:03Z</time>
      </trkpt>
      <trkpt lat="42.4621170" lon="-2.4617290">
        <ele>394.3</ele>
        <time>2022-08-13T06:32:05Z</time>
      </trkpt>
      <trkpt lat="42.4620050" lon="-2.4616830">
        <ele>394.4</ele>
        <time>2022-08-13T06:32:07Z</time>
      </trkpt>
      <trkpt lat="42.4619490" lon="-2.4616550">
        <ele>394.4</ele>
        <time>2022-08-13T06:32:08Z</time>
      </trkpt>
      <trkpt lat="42.4618450" lon="-2.4615870">
        <ele>394.4</ele>
        <time>2022-08-13T06:32:10Z</time>
      </trkpt>
      <trkpt lat="42.4617960" lon="-2.4615750">
        <ele>394.4</ele>
        <time>2022-08-13T06:32:11Z</time>
      </trkpt>
      <trkpt lat="42.4617000" lon="-2.4615590">
        <ele>394.5</ele>
        <time>2022-08-13T06:32:13Z</time>
      </trkpt>
      <trkpt lat="42.4615690" lon="-2.4615180">
        <ele>394.5</ele>
        <time>2022-08-13T06:32:16Z</time>
      </trkpt>
      <trkpt lat="42.4613200" lon="-2.4613960">
        <ele>394.6</ele>
        <time>2022-08-13T06:32:21Z</time>
      </trkpt>
      <trkpt lat="42.4612640" lon="-2.4613540">
        <ele>394.6</ele>
        <time>2022-08-13T06:32:22Z</time>
      </trkpt>
      <trkpt lat="42.4611000" lon="-2.4612190">
        <ele>394.6</ele>
        <time>2022-08-13T06:32:26Z</time>
      </trkpt>
      <trkpt lat="42.4610650" lon="-2.4611890">
        <ele>394.6</ele>
        <time>2022-08-13T06:32:27Z</time>
      </trkpt>
      <trkpt lat="42.4610440" lon="-2.4611640">
        <ele>394.6</ele>
        <time>2022-08-13T06:32:28Z</time>
      </trkpt>
      <trkpt lat="42.4609570" lon="-2.4610870">
        <ele>394.6</ele>
        <time>2022-08-13T06:32:30Z</time>
      </trkpt>
      <trkpt lat="42.4608950" lon="-2.4610190">
        <ele>394.7</ele>
        <time>2022-08-13T06:32:32Z</time>
      </trkpt>
      <trkpt lat="42.4607230" lon="-2.4607760">
        <ele>394.7</ele>
        <time>2022-08-13T06:32:38Z</time>
      </trkpt>
      <trkpt lat="42.4606900" lon="-2.4607130">
        <ele>394.7</ele>
        <time>2022-08-13T06:32:40Z</time>
      </trkpt>
      <trkpt lat="42.4606650" lon="-2.4606470">
        <ele>394.8</ele>
        <time>2022-08-13T06:32:42Z</time>
      </trkpt>
      <trkpt lat="42.4606570" lon="-2.4605750">
        <ele>394.8</ele>
        <time>2022-08-13T06:32:44Z</time>
      </trkpt>
      <trkpt lat="42.4606340" lon="-2.4604870">
        <ele>394.8</ele>
        <time>2022-08-13T06:32:46Z</time>
      </trkpt>
      <trkpt lat="42.4605910" lon="-2.4603810">
        <ele>394.8</ele>
        <time>2022-08-13T06:32:48Z</time>
      </trkpt>
      <trkpt lat="42.4605590" lon="-2.4603270">
        <ele>394.8</ele>
        <time>2022-08-13T06:32:49Z</time>
      </trkpt>
      <trkpt lat="42.4605170" lon="-2.4602210">
        <ele>394.8</ele>
        <time>2022-08-13T06:32:51Z</time>
      </trkpt>
      <trkpt lat="42.4605080" lon="-2.4601210">
        <ele>394.9</ele>
        <time>2022-08-13T06:32:53Z</time>
      </trkpt>
      <trkpt lat="42.4604920" lon="-2.4600770">
        <ele>394.9</ele>
        <time>2022-08-13T06:32:54Z</time>
      </trkpt>
      <trkpt lat="42.4604790" lon="-2.4600410">
        <ele>394.9</ele>
        <time>2022-08-13T06:32:55Z</time>
      </trkpt>
      <trkpt lat="42.4604310" lon="-2.4599390">
        <ele>394.9</ele>
        <time>2022-08-13T06:32:57Z</time>
      </trkpt>
      <trkpt lat="42.4603780" lon="-2.4597800">
        <ele>395.0</ele>
        <time>2022-08-13T06:32:59Z</time>
      </trkpt>
      <trkpt lat="42.4603280" lon="-2.4596780">
        <ele>395.1</ele>
        <time>2022-08-13T06:33:01Z</time>
      </trkpt>
      <trkpt lat="42.4603030" lon="-2.4596220">
        <ele>395.1</ele>
        <time>2022-08-13T06:33:02Z</time>
      </trkpt>
      <trkpt lat="42.4602780" lon="-2.4594960">
        <ele>395.2</ele>
        <time>2022-08-13T06:33:04Z</time>
      </trkpt>
      <trkpt lat="42.4602840" lon="-2.4594480">
        <ele>395.2</ele>
        <time>2022-08-13T06:33:05Z</time>
      </trkpt>
      <trkpt lat="42.4603060" lon="-2.4593990">
        <ele>395.1</ele>
        <time>2022-08-13T06:33:06Z</time>
      </trkpt>
      <trkpt lat="42.4603940" lon="-2.4592630">
        <ele>395.1</ele>
        <time>2022-08-13T06:33:09Z</time>
      </trkpt>
      <trkpt lat="42.4602920" lon="-2.4590600">
        <ele>395.0</ele>
        <time>2022-08-13T06:33:11Z</time>
      </trkpt>
      <trkpt lat="42.4602500" lon="-2.4589770">
        <ele>395.0</ele>
        <time>2022-08-13T06:33:12Z</time>
      </trkpt>
      <trkpt lat="42.4601700" lon="-2.4587480">
        <ele>394.9</ele>
        <time>2022-08-13T06:33:15Z</time>
      </trkpt>
      <trkpt lat="42.4601460" lon="-2.4586710">
        <ele>394.8</ele>
        <time>2022-08-13T06:33:16Z</time>
      </trkpt>
      <trkpt lat="42.4600910" lon="-2.4583630">
        <ele>394.6</ele>
        <time>2022-08-13T06:33:20Z</time>
      </trkpt>
      <trkpt lat="42.4600370" lon="-2.4582320">
        <ele>394.5</ele>
        <time>2022-08-13T06:33:22Z</time>
      </trkpt>
      <trkpt lat="42.4600130" lon="-2.4581740">
        <ele>394.5</ele>
        <time>2022-08-13T06:33:23Z</time>
      </trkpt>
      <trkpt lat="42.4599870" lon="-2.4579390">
        <ele>394.5</ele>
        <time>2022-08-13T06:33:26Z</time>
      </trkpt>
      <trkpt lat="42.4599900" lon="-2.4578590">
        <ele>394.5</ele>
        <time>2022-08-13T06:33:27Z</time>
      </trkpt>
      <trkpt lat="42.4599760" lon="-2.4577060">
        <ele>394.5</ele>
        <time>2022-08-13T06:33:29Z</time>
      </trkpt>
      <trkpt lat="42.4599590" lon="-2.4575810">
        <ele>394.5</ele>
        <time>2022-08-13T06:33:31Z</time>
      </trkpt>
      <trkpt lat="42.4599210" lon="-2.4573700">
        <ele>394.4</ele>
        <time>2022-08-13T06:33:34Z</time>
      </trkpt>
      <trkpt lat="42.4598950" lon="-2.4573100">
        <ele>394.4</ele>
        <time>2022-08-13T06:33:35Z</time>
      </trkpt>
      <trkpt lat="42.4598780" lon="-2.4572440">
        <ele>394.4</ele>
        <time>2022-08-13T06:33:36Z</time>
      </trkpt>
      <trkpt lat="42.4598280" lon="-2.4571170">
        <ele>394.3</ele>
        <time>2022-08-13T06:33:38Z</time>
      </trkpt>
      <trkpt lat="42.4598070" lon="-2.4570580">
        <ele>394.3</ele>
        <time>2022-08-13T06:33:39Z</time>
      </trkpt>
      <trkpt lat="42.4597700" lon="-2.4569420">
        <ele>394.3</ele>
        <time>2022-08-13T06:33:41Z</time>
      </trkpt>
      <trkpt lat="42.4597250" lon="-2.4568040">
        <ele>394.3</ele>
        <time>2022-08-13T06:33:43Z</time>
      </trkpt>
      <trkpt lat="42.4596960" lon="-2.4566770">
        <ele>394.4</ele>
        <time>2022-08-13T06:33:45Z</time>
      </trkpt>
      <trkpt lat="42.4596370" lon="-2.4565720">
        <ele>394.4</ele>
        <time>2022-08-13T06:33:47Z</time>
      </trkpt>
      <trkpt lat="42.4596090" lon="-2.4564780">
        <ele>394.5</ele>
        <time>2022-08-13T06:33:49Z</time>
      </trkpt>
      <trkpt lat="42.4596160" lon="-2.4563320">
        <ele>394.6</ele>
        <time>2022-08-13T06:33:51Z</time>
      </trkpt>
      <trkpt lat="42.4596120" lon="-2.4562980">
        <ele>394.6</ele>
        <time>2022-08-13T06:33:52Z</time>
      </trkpt>
      <trkpt lat="42.4595900" lon="-2.4562620">
        <ele>394.6</ele>
        <time>2022-08-13T06:33:54Z</time>
      </trkpt>
      <trkpt lat="42.4595450" lon="-2.4562430">
        <ele>394.6</ele>
        <time>2022-08-13T06:33:56Z</time>
      </trkpt>
      <trkpt lat="42.4594470" lon="-2.4561470">
        <ele>394.8</ele>
        <time>2022-08-13T06:33:58Z</time>
      </trkpt>
      <trkpt lat="42.4594070" lon="-2.4561110">
        <ele>394.9</ele>
        <time>2022-08-13T06:33:59Z</time>
      </trkpt>
      <trkpt lat="42.4593710" lon="-2.4560560">
        <ele>394.9</ele>
        <time>2022-08-13T06:34:00Z</time>
      </trkpt>
      <trkpt lat="42.4593710" lon="-2.4558060">
        <ele>395.0</ele>
        <time>2022-08-13T06:34:02Z</time>
      </trkpt>
      <trkpt lat="42.4593940" lon="-2.4556400">
        <ele>394.9</ele>
        <time>2022-08-13T06:34:05Z</time>
      </trkpt>
      <trkpt lat="42.4594130" lon="-2.4555200">
        <ele>394.8</ele>
        <time>2022-08-13T06:34:07Z</time>
      </trkpt>
      <trkpt lat="42.4593790" lon="-2.4553670">
        <ele>394.6</ele>
        <time>2022-08-13T06:34:09Z</time>
      </trkpt>
      <trkpt lat="42.4593410" lon="-2.4551950">
        <ele>394.4</ele>
        <time>2022-08-13T06:34:11Z</time>
      </trkpt>
      <trkpt lat="42.4593090" lon="-2.4550380">
        <ele>394.3</ele>
        <time>2022-08-13T06:34:13Z</time>
      </trkpt>
      <trkpt lat="42.4592750" lon="-2.4548590">
        <ele>394.1</ele>
        <time>2022-08-13T06:34:15Z</time>
      </trkpt>
      <trkpt lat="42.4592570" lon="-2.4546830">
        <ele>393.9</ele>
        <time>2022-08-13T06:34:16Z</time>
      </trkpt>
      <trkpt lat="42.4592430" lon="-2.4546160">
        <ele>393.8</ele>
        <time>2022-08-13T06:34:18Z</time>
      </trkpt>
      <trkpt lat="42.4592210" lon="-2.4545250">
        <ele>393.7</ele>
        <time>2022-08-13T06:34:19Z</time>
      </trkpt>
      <trkpt lat="42.4591330" lon="-2.4542160">
        <ele>393.4</ele>
        <time>2022-08-13T06:34:23Z</time>
      </trkpt>
      <trkpt lat="42.4591000" lon="-2.4540440">
        <ele>393.3</ele>
        <time>2022-08-13T06:34:25Z</time>
      </trkpt>
      <trkpt lat="42.4590400" lon="-2.4538010">
        <ele>393.2</ele>
        <time>2022-08-13T06:34:28Z</time>
      </trkpt>
      <trkpt lat="42.4589000" lon="-2.4532400">
        <ele>392.8</ele>
        <time>2022-08-13T06:34:35Z</time>
      </trkpt>
      <trkpt lat="42.4588650" lon="-2.4531080">
        <ele>392.8</ele>
        <time>2022-08-13T06:34:36Z</time>
      </trkpt>
      <trkpt lat="42.4588430" lon="-2.4530190">
        <ele>392.7</ele>
        <time>2022-08-13T06:34:37Z</time>
      </trkpt>
      <trkpt lat="42.4588030" lon="-2.4528690">
        <ele>392.6</ele>
        <time>2022-08-13T06:34:40Z</time>
      </trkpt>
      <trkpt lat="42.4587600" lon="-2.4526510">
        <ele>392.7</ele>
        <time>2022-08-13T06:34:43Z</time>
      </trkpt>
      <trkpt lat="42.4586770" lon="-2.4522860">
        <ele>392.7</ele>
        <time>2022-08-13T06:34:47Z</time>
      </trkpt>
      <trkpt lat="42.4586470" lon="-2.4521490">
        <ele>392.6</ele>
        <time>2022-08-13T06:34:49Z</time>
      </trkpt>
      <trkpt lat="42.4585840" lon="-2.4519160">
        <ele>392.6</ele>
        <time>2022-08-13T06:34:52Z</time>
      </trkpt>
      <trkpt lat="42.4585660" lon="-2.4518580">
        <ele>392.6</ele>
        <time>2022-08-13T06:34:54Z</time>
      </trkpt>
      <trkpt lat="42.4585310" lon="-2.4517740">
        <ele>392.6</ele>
        <time>2022-08-13T06:34:55Z</time>
      </trkpt>
      <trkpt lat="42.4584220" lon="-2.4514540">
        <ele>392.6</ele>
        <time>2022-08-13T06:34:59Z</time>
      </trkpt>
      <trkpt lat="42.4584020" lon="-2.4513700">
        <ele>392.6</ele>
        <time>2022-08-13T06:35:00Z</time>
      </trkpt>
      <trkpt lat="42.4583840" lon="-2.4512510">
        <ele>392.7</ele>
        <time>2022-08-13T06:35:02Z</time>
      </trkpt>
      <trkpt lat="42.4583830" lon="-2.4511190">
        <ele>392.7</ele>
        <time>2022-08-13T06:35:04Z</time>
      </trkpt>
      <trkpt lat="42.4583910" lon="-2.4510070">
        <ele>392.8</ele>
        <time>2022-08-13T06:35:06Z</time>
      </trkpt>
      <trkpt lat="42.4583890" lon="-2.4508670">
        <ele>392.9</ele>
        <time>2022-08-13T06:35:10Z</time>
      </trkpt>
      <trkpt lat="42.4583810" lon="-2.4507750">
        <ele>392.9</ele>
        <time>2022-08-13T06:35:12Z</time>
      </trkpt>
      <trkpt lat="42.4583720" lon="-2.4507300">
        <ele>393.0</ele>
        <time>2022-08-13T06:35:16Z</time>
      </trkpt>
      <trkpt lat="42.4583720" lon="-2.4507270">
        <ele>393.0</ele>
        <time>2022-08-13T06:35:17Z</time>
      </trkpt>
      <trkpt lat="42.4583690" lon="-2.4507190">
        <ele>393.0</ele>
        <time>2022-08-13T06:35:18Z</time>
      </trkpt>
      <trkpt lat="42.4583610" lon="-2.4507090">
        <ele>393.0</ele>
        <time>2022-08-13T06:35:19Z</time>
      </trkpt>
      <trkpt lat="42.4583320" lon="-2.4506740">
        <ele>393.0</ele>
        <time>2022-08-13T06:35:37Z</time>
      </trkpt>
      <trkpt lat="42.4583050" lon="-2.4506110">
        <ele>393.1</ele>
        <time>2022-08-13T06:35:39Z</time>
      </trkpt>
      <trkpt lat="42.4582550" lon="-2.4504990">
        <ele>393.1</ele>
        <time>2022-08-13T06:35:42Z</time>
      </trkpt>
      <trkpt lat="42.4582300" lon="-2.4504680">
        <ele>393.2</ele>
        <time>2022-08-13T06:35:44Z</time>
      </trkpt>
      <trkpt lat="42.4581560" lon="-2.4504950">
        <ele>393.3</ele>
        <time>2022-08-13T06:35:46Z</time>
      </trkpt>
      <trkpt lat="42.4581100" lon="-2.4504990">
        <ele>393.4</ele>
        <time>2022-08-13T06:35:47Z</time>
      </trkpt>
      <trkpt lat="42.4580750" lon="-2.4505150">
        <ele>393.4</ele>
        <time>2022-08-13T06:35:48Z</time>
      </trkpt>
      <trkpt lat="42.4580440" lon="-2.4505340">
        <ele>393.5</ele>
        <time>2022-08-13T06:35:49Z</time>
      </trkpt>
      <trkpt lat="42.4580060" lon="-2.4505530">
        <ele>393.5</ele>
        <time>2022-08-13T06:35:50Z</time>
      </trkpt>
      <trkpt lat="42.4579080" lon="-2.4505870">
        <ele>393.6</ele>
        <time>2022-08-13T06:35:52Z</time>
      </trkpt>
      <trkpt lat="42.4578190" lon="-2.4506080">
        <ele>393.7</ele>
        <time>2022-08-13T06:35:54Z</time>
      </trkpt>
      <trkpt lat="42.4577820" lon="-2.4506200">
        <ele>393.8</ele>
        <time>2022-08-13T06:35:55Z</time>
      </trkpt>
      <trkpt lat="42.4576770" lon="-2.4506800">
        <ele>393.9</ele>
        <time>2022-08-13T06:35:57Z</time>
      </trkpt>
      <trkpt lat="42.4576270" lon="-2.4507060">
        <ele>394.0</ele>
        <time>2022-08-13T06:35:59Z</time>
      </trkpt>
      <trkpt lat="42.4574270" lon="-2.4508050">
        <ele>394.2</ele>
        <time>2022-08-13T06:36:02Z</time>
      </trkpt>
      <trkpt lat="42.4571710" lon="-2.4509170">
        <ele>394.2</ele>
        <time>2022-08-13T06:36:07Z</time>
      </trkpt>
      <trkpt lat="42.4568270" lon="-2.4510620">
        <ele>394.1</ele>
        <time>2022-08-13T06:36:14Z</time>
      </trkpt>
      <trkpt lat="42.4567390" lon="-2.4510930">
        <ele>394.1</ele>
        <time>2022-08-13T06:36:16Z</time>
      </trkpt>
      <trkpt lat="42.4565670" lon="-2.4511400">
        <ele>393.9</ele>
        <time>2022-08-13T06:36:21Z</time>
      </trkpt>
      <trkpt lat="42.4565040" lon="-2.4511900">
        <ele>393.9</ele>
        <time>2022-08-13T06:36:23Z</time>
      </trkpt>
      <trkpt lat="42.4564220" lon="-2.4512550">
        <ele>393.8</ele>
        <time>2022-08-13T06:36:25Z</time>
      </trkpt>
      <trkpt lat="42.4564220" lon="-2.4512550">
        <ele>393.8</ele>
        <time>2022-08-13T06:36:26Z</time>
      </trkpt>
      <trkpt lat="42.4563140" lon="-2.4512810">
        <ele>393.7</ele>
        <time>2022-08-13T06:36:27Z</time>
      </trkpt>
      <trkpt lat="42.4562140" lon="-2.4512550">
        <ele>393.5</ele>
        <time>2022-08-13T06:36:29Z</time>
      </trkpt>
      <trkpt lat="42.4561560" lon="-2.4512460">
        <ele>393.5</ele>
        <time>2022-08-13T06:36:30Z</time>
      </trkpt>
      <trkpt lat="42.4560460" lon="-2.4512580">
        <ele>393.4</ele>
        <time>2022-08-13T06:36:32Z</time>
      </trkpt>
      <trkpt lat="42.4559940" lon="-2.4512760">
        <ele>393.4</ele>
        <time>2022-08-13T06:36:33Z</time>
      </trkpt>
      <trkpt lat="42.4558380" lon="-2.4513370">
        <ele>393.5</ele>
        <time>2022-08-13T06:36:36Z</time>
      </trkpt>
      <trkpt lat="42.4554730" lon="-2.4514530">
        <ele>393.7</ele>
        <time>2022-08-13T06:36:43Z</time>
      </trkpt>
      <trkpt lat="42.4552890" lon="-2.4514970">
        <ele>394.0</ele>
        <time>2022-08-13T06:36:47Z</time>
      </trkpt>
      <trkpt lat="42.4552070" lon="-2.4515040">
        <ele>394.1</ele>
        <time>2022-08-13T06:36:49Z</time>
      </trkpt>
      <trkpt lat="42.4551630" lon="-2.4515080">
        <ele>394.2</ele>
        <time>2022-08-13T06:36:50Z</time>
      </trkpt>
      <trkpt lat="42.4550740" lon="-2.4515160">
        <ele>394.3</ele>
        <time>2022-08-13T06:36:52Z</time>
      </trkpt>
      <trkpt lat="42.4549980" lon="-2.4515180">
        <ele>394.5</ele>
        <time>2022-08-13T06:36:54Z</time>
      </trkpt>
      <trkpt lat="42.4549170" lon="-2.4515310">
        <ele>394.7</ele>
        <time>2022-08-13T06:36:56Z</time>
      </trkpt>
      <trkpt lat="42.4547620" lon="-2.4515490">
        <ele>395.1</ele>
        <time>2022-08-13T06:37:00Z</time>
      </trkpt>
      <trkpt lat="42.4546800" lon="-2.4515700">
        <ele>395.2</ele>
        <time>2022-08-13T06:37:02Z</time>
      </trkpt>
      <trkpt lat="42.4546060" lon="-2.4516400">
        <ele>395.5</ele>
        <time>2022-08-13T06:37:04Z</time>
      </trkpt>
      <trkpt lat="42.4545750" lon="-2.4516880">
        <ele>395.6</ele>
        <time>2022-08-13T06:37:05Z</time>
      </trkpt>
      <trkpt lat="42.4544610" lon="-2.4519020">
        <ele>395.8</ele>
        <time>2022-08-13T06:37:10Z</time>
      </trkpt>
      <trkpt lat="42.4543880" lon="-2.4520060">
        <ele>396.0</ele>
        <time>2022-08-13T06:37:11Z</time>
      </trkpt>
      <trkpt lat="42.4543400" lon="-2.4520510">
        <ele>396.0</ele>
        <time>2022-08-13T06:37:12Z</time>
      </trkpt>
      <trkpt lat="42.4542860" lon="-2.4520930">
        <ele>396.1</ele>
        <time>2022-08-13T06:37:13Z</time>
      </trkpt>
      <trkpt lat="42.4541890" lon="-2.4521350">
        <ele>396.1</ele>
        <time>2022-08-13T06:37:15Z</time>
      </trkpt>
      <trkpt lat="42.4540930" lon="-2.4521250">
        <ele>396.2</ele>
        <time>2022-08-13T06:37:17Z</time>
      </trkpt>
      <trkpt lat="42.4539580" lon="-2.4520460">
        <ele>396.2</ele>
        <time>2022-08-13T06:37:20Z</time>
      </trkpt>
      <trkpt lat="42.4539220" lon="-2.4519910">
        <ele>396.2</ele>
        <time>2022-08-13T06:37:21Z</time>
      </trkpt>
      <trkpt lat="42.4538940" lon="-2.4519270">
        <ele>396.2</ele>
        <time>2022-08-13T06:37:22Z</time>
      </trkpt>
      <trkpt lat="42.4538690" lon="-2.4517790">
        <ele>396.0</ele>
        <time>2022-08-13T06:37:24Z</time>
      </trkpt>
      <trkpt lat="42.4538710" lon="-2.4516340">
        <ele>395.9</ele>
        <time>2022-08-13T06:37:26Z</time>
      </trkpt>
      <trkpt lat="42.4538870" lon="-2.4514120">
        <ele>395.9</ele>
        <time>2022-08-13T06:37:29Z</time>
      </trkpt>
      <trkpt lat="42.4538850" lon="-2.4513370">
        <ele>395.9</ele>
        <time>2022-08-13T06:37:30Z</time>
      </trkpt>
      <trkpt lat="42.4538700" lon="-2.4511840">
        <ele>395.9</ele>
        <time>2022-08-13T06:37:32Z</time>
      </trkpt>
      <trkpt lat="42.4538450" lon="-2.4509680">
        <ele>395.9</ele>
        <time>2022-08-13T06:37:35Z</time>
      </trkpt>
      <trkpt lat="42.4538190" lon="-2.4507730">
        <ele>395.9</ele>
        <time>2022-08-13T06:37:38Z</time>
      </trkpt>
      <trkpt lat="42.4537930" lon="-2.4506000">
        <ele>396.0</ele>
        <time>2022-08-13T06:37:41Z</time>
      </trkpt>
      <trkpt lat="42.4537650" lon="-2.4503580">
        <ele>396.0</ele>
        <time>2022-08-13T06:37:45Z</time>
      </trkpt>
      <trkpt lat="42.4537390" lon="-2.4501700">
        <ele>396.0</ele>
        <time>2022-08-13T06:37:48Z</time>
      </trkpt>
      <trkpt lat="42.4537110" lon="-2.4500010">
        <ele>396.0</ele>
        <time>2022-08-13T06:37:51Z</time>
      </trkpt>
      <trkpt lat="42.4537060" lon="-2.4499020">
        <ele>396.0</ele>
        <time>2022-08-13T06:37:53Z</time>
      </trkpt>
      <trkpt lat="42.4536810" lon="-2.4497830">
        <ele>396.0</ele>
        <time>2022-08-13T06:37:56Z</time>
      </trkpt>
      <trkpt lat="42.4536800" lon="-2.4497280">
        <ele>396.0</ele>
        <time>2022-08-13T06:37:57Z</time>
      </trkpt>
      <trkpt lat="42.4536690" lon="-2.4496160">
        <ele>396.0</ele>
        <time>2022-08-13T06:37:59Z</time>
      </trkpt>
      <trkpt lat="42.4536110" lon="-2.4494000">
        <ele>396.0</ele>
        <time>2022-08-13T06:38:03Z</time>
      </trkpt>
      <trkpt lat="42.4535680" lon="-2.4492800">
        <ele>396.0</ele>
        <time>2022-08-13T06:38:06Z</time>
      </trkpt>
      <trkpt lat="42.4535540" lon="-2.4492130">
        <ele>396.1</ele>
        <time>2022-08-13T06:39:38Z</time>
      </trkpt>
      <trkpt lat="42.4535410" lon="-2.4491310">
        <ele>396.1</ele>
        <time>2022-08-13T06:39:40Z</time>
      </trkpt>
      <trkpt lat="42.4535120" lon="-2.4489840">
        <ele>396.2</ele>
        <time>2022-08-13T06:39:44Z</time>
      </trkpt>
      <trkpt lat="42.4534690" lon="-2.4489080">
        <ele>396.4</ele>
        <time>2022-08-13T06:39:46Z</time>
      </trkpt>
      <trkpt lat="42.4534360" lon="-2.4488650">
        <ele>396.5</ele>
        <time>2022-08-13T06:39:47Z</time>
      </trkpt>
      <trkpt lat="42.4533940" lon="-2.4488230">
        <ele>396.6</ele>
        <time>2022-08-13T06:39:48Z</time>
      </trkpt>
      <trkpt lat="42.4533010" lon="-2.4487030">
        <ele>396.7</ele>
        <time>2022-08-13T06:39:50Z</time>
      </trkpt>
      <trkpt lat="42.4532560" lon="-2.4486100">
        <ele>396.7</ele>
        <time>2022-08-13T06:39:51Z</time>
      </trkpt>
      <trkpt lat="42.4532300" lon="-2.4485160">
        <ele>396.7</ele>
        <time>2022-08-13T06:39:52Z</time>
      </trkpt>
      <trkpt lat="42.4532660" lon="-2.4483470">
        <ele>396.7</ele>
        <time>2022-08-13T06:39:54Z</time>
      </trkpt>
      <trkpt lat="42.4532900" lon="-2.4482570">
        <ele>396.6</ele>
        <time>2022-08-13T06:39:55Z</time>
      </trkpt>
      <trkpt lat="42.4533340" lon="-2.4481820">
        <ele>396.6</ele>
        <time>2022-08-13T06:39:56Z</time>
      </trkpt>
      <trkpt lat="42.4533830" lon="-2.4481170">
        <ele>396.6</ele>
        <time>2022-08-13T06:39:57Z</time>
      </trkpt>
      <trkpt lat="42.4534280" lon="-2.4480640">
        <ele>396.6</ele>
        <time>2022-08-13T06:39:58Z</time>
      </trkpt>
      <trkpt lat="42.4535330" lon="-2.4479960">
        <ele>396.7</ele>
        <time>2022-08-13T06:40:00Z</time>
      </trkpt>
      <trkpt lat="42.4536400" lon="-2.4479940">
        <ele>396.7</ele>
        <time>2022-08-13T06:40:02Z</time>
      </trkpt>
      <trkpt lat="42.4536900" lon="-2.4480190">
        <ele>396.7</ele>
        <time>2022-08-13T06:40:03Z</time>
      </trkpt>
      <trkpt lat="42.4537350" lon="-2.4480500">
        <ele>396.7</ele>
        <time>2022-08-13T06:40:04Z</time>
      </trkpt>
      <trkpt lat="42.4538050" lon="-2.4481320">
        <ele>396.7</ele>
        <time>2022-08-13T06:40:06Z</time>
      </trkpt>
      <trkpt lat="42.4538290" lon="-2.4481890">
        <ele>396.7</ele>
        <time>2022-08-13T06:40:07Z</time>
      </trkpt>
      <trkpt lat="42.4538460" lon="-2.4482600">
        <ele>396.7</ele>
        <time>2022-08-13T06:40:08Z</time>
      </trkpt>
      <trkpt lat="42.4538640" lon="-2.4484100">
        <ele>396.7</ele>
        <time>2022-08-13T06:40:10Z</time>
      </trkpt>
      <trkpt lat="42.4538620" lon="-2.4484880">
        <ele>396.7</ele>
        <time>2022-08-13T06:40:11Z</time>
      </trkpt>
      <trkpt lat="42.4538480" lon="-2.4486360">
        <ele>396.7</ele>
        <time>2022-08-13T06:40:13Z</time>
      </trkpt>
      <trkpt lat="42.4538460" lon="-2.4487100">
        <ele>396.6</ele>
        <time>2022-08-13T06:40:14Z</time>
      </trkpt>
      <trkpt lat="42.4538660" lon="-2.4489390">
        <ele>396.5</ele>
        <time>2022-08-13T06:40:17Z</time>
      </trkpt>
      <trkpt lat="42.4539390" lon="-2.4493960">
        <ele>396.5</ele>
        <time>2022-08-13T06:40:24Z</time>
      </trkpt>
      <trkpt lat="42.4539630" lon="-2.4495220">
        <ele>396.5</ele>
        <time>2022-08-13T06:40:26Z</time>
      </trkpt>
      <trkpt lat="42.4539970" lon="-2.4497110">
        <ele>396.5</ele>
        <time>2022-08-13T06:40:29Z</time>
      </trkpt>
      <trkpt lat="42.4540080" lon="-2.4497800">
        <ele>396.5</ele>
        <time>2022-08-13T06:40:30Z</time>
      </trkpt>
      <trkpt lat="42.4540300" lon="-2.4499340">
        <ele>396.4</ele>
        <time>2022-08-13T06:40:32Z</time>
      </trkpt>
      <trkpt lat="42.4540530" lon="-2.4500730">
        <ele>396.4</ele>
        <time>2022-08-13T06:40:34Z</time>
      </trkpt>
      <trkpt lat="42.4541410" lon="-2.4506270">
        <ele>396.4</ele>
        <time>2022-08-13T06:40:41Z</time>
      </trkpt>
      <trkpt lat="42.4542590" lon="-2.4513220">
        <ele>396.3</ele>
        <time>2022-08-13T06:40:50Z</time>
      </trkpt>
      <trkpt lat="42.4543830" lon="-2.4515690">
        <ele>396.3</ele>
        <time>2022-08-13T06:40:54Z</time>
      </trkpt>
      <trkpt lat="42.4544000" lon="-2.4516460">
        <ele>396.1</ele>
        <time>2022-08-13T06:40:55Z</time>
      </trkpt>
      <trkpt lat="42.4544230" lon="-2.4518920">
        <ele>395.9</ele>
        <time>2022-08-13T06:40:58Z</time>
      </trkpt>
      <trkpt lat="42.4544020" lon="-2.4519670">
        <ele>395.9</ele>
        <time>2022-08-13T06:40:59Z</time>
      </trkpt>
      <trkpt lat="42.4543660" lon="-2.4520340">
        <ele>396.0</ele>
        <time>2022-08-13T06:41:00Z</time>
      </trkpt>
      <trkpt lat="42.4542760" lon="-2.4521250">
        <ele>396.1</ele>
        <time>2022-08-13T06:41:02Z</time>
      </trkpt>
      <trkpt lat="42.4541690" lon="-2.4521700">
        <ele>396.2</ele>
        <time>2022-08-13T06:41:04Z</time>
      </trkpt>
      <trkpt lat="42.4541120" lon="-2.4521720">
        <ele>396.2</ele>
        <time>2022-08-13T06:41:05Z</time>
      </trkpt>
      <trkpt lat="42.4540540" lon="-2.4521610">
        <ele>396.2</ele>
        <time>2022-08-13T06:41:06Z</time>
      </trkpt>
      <trkpt lat="42.4538930" lon="-2.4520760">
        <ele>396.2</ele>
        <time>2022-08-13T06:41:09Z</time>
      </trkpt>
      <trkpt lat="42.4538370" lon="-2.4520530">
        <ele>396.2</ele>
        <time>2022-08-13T06:41:10Z</time>
      </trkpt>
      <trkpt lat="42.4537150" lon="-2.4520270">
        <ele>396.2</ele>
        <time>2022-08-13T06:41:12Z</time>
      </trkpt>
      <trkpt lat="42.4536540" lon="-2.4520280">
        <ele>396.2</ele>
        <time>2022-08-13T06:41:13Z</time>
      </trkpt>
      <trkpt lat="42.4534860" lon="-2.4520680">
        <ele>396.0</ele>
        <time>2022-08-13T06:41:16Z</time>
      </trkpt>
      <trkpt lat="42.4533800" lon="-2.4520970">
        <ele>396.0</ele>
        <time>2022-08-13T06:41:18Z</time>
      </trkpt>
      <trkpt lat="42.4533280" lon="-2.4521150">
        <ele>395.9</ele>
        <time>2022-08-13T06:41:19Z</time>
      </trkpt>
      <trkpt lat="42.4532240" lon="-2.4521500">
        <ele>395.8</ele>
        <time>2022-08-13T06:41:21Z</time>
      </trkpt>
      <trkpt lat="42.4531210" lon="-2.4521720">
        <ele>395.7</ele>
        <time>2022-08-13T06:41:23Z</time>
      </trkpt>
      <trkpt lat="42.4529160" lon="-2.4522140">
        <ele>395.6</ele>
        <time>2022-08-13T06:41:27Z</time>
      </trkpt>
      <trkpt lat="42.4524220" lon="-2.4523720">
        <ele>395.7</ele>
        <time>2022-08-13T06:41:37Z</time>
      </trkpt>
      <trkpt lat="42.4522210" lon="-2.4524670">
        <ele>395.8</ele>
        <time>2022-08-13T06:41:41Z</time>
      </trkpt>
      <trkpt lat="42.4520900" lon="-2.4525610">
        <ele>395.7</ele>
        <time>2022-08-13T06:41:44Z</time>
      </trkpt>
      <trkpt lat="42.4520000" lon="-2.4525800">
        <ele>395.6</ele>
        <time>2022-08-13T06:41:46Z</time>
      </trkpt>
      <trkpt lat="42.4519500" lon="-2.4525720">
        <ele>395.5</ele>
        <time>2022-08-13T06:41:47Z</time>
      </trkpt>
      <trkpt lat="42.4517910" lon="-2.4525430">
        <ele>395.7</ele>
        <time>2022-08-13T06:41:50Z</time>
      </trkpt>
      <trkpt lat="42.4516860" lon="-2.4525620">
        <ele>395.9</ele>
        <time>2022-08-13T06:41:52Z</time>
      </trkpt>
      <trkpt lat="42.4515830" lon="-2.4525960">
        <ele>395.9</ele>
        <time>2022-08-13T06:41:54Z</time>
      </trkpt>
      <trkpt lat="42.4514790" lon="-2.4526330">
        <ele>396.0</ele>
        <time>2022-08-13T06:41:56Z</time>
      </trkpt>
      <trkpt lat="42.4512740" lon="-2.4527010">
        <ele>396.1</ele>
        <time>2022-08-13T06:42:00Z</time>
      </trkpt>
      <trkpt lat="42.4510150" lon="-2.4527840">
        <ele>396.3</ele>
        <time>2022-08-13T06:42:05Z</time>
      </trkpt>
      <trkpt lat="42.4509640" lon="-2.4528040">
        <ele>396.4</ele>
        <time>2022-08-13T06:42:06Z</time>
      </trkpt>
      <trkpt lat="42.4508190" lon="-2.4528490">
        <ele>396.6</ele>
        <time>2022-08-13T06:42:09Z</time>
      </trkpt>
      <trkpt lat="42.4505040" lon="-2.4529490">
        <ele>396.9</ele>
        <time>2022-08-13T06:42:15Z</time>
      </trkpt>
      <trkpt lat="42.4504530" lon="-2.4529600">
        <ele>397.0</ele>
        <time>2022-08-13T06:42:16Z</time>
      </trkpt>
      <trkpt lat="42.4504000" lon="-2.4529720">
        <ele>397.0</ele>
        <time>2022-08-13T06:42:17Z</time>
      </trkpt>
      <trkpt lat="42.4499460" lon="-2.4531160">
        <ele>397.5</ele>
        <time>2022-08-13T06:42:26Z</time>
      </trkpt>
      <trkpt lat="42.4498440" lon="-2.4531500">
        <ele>397.6</ele>
        <time>2022-08-13T06:42:28Z</time>
      </trkpt>
      <trkpt lat="42.4496470" lon="-2.4532050">
        <ele>397.9</ele>
        <time>2022-08-13T06:42:32Z</time>
      </trkpt>
      <trkpt lat="42.4493320" lon="-2.4533100">
        <ele>398.6</ele>
        <time>2022-08-13T06:42:39Z</time>
      </trkpt>
      <trkpt lat="42.4493160" lon="-2.4533310">
        <ele>398.6</ele>
        <time>2022-08-13T06:42:40Z</time>
      </trkpt>
      <trkpt lat="42.4493020" lon="-2.4533720">
        <ele>398.6</ele>
        <time>2022-08-13T06:42:41Z</time>
      </trkpt>
      <trkpt lat="42.4492870" lon="-2.4535250">
        <ele>398.6</ele>
        <time>2022-08-13T06:42:43Z</time>
      </trkpt>
      <trkpt lat="42.4493330" lon="-2.4538860">
        <ele>398.6</ele>
        <time>2022-08-13T06:42:48Z</time>
      </trkpt>
      <trkpt lat="42.4493590" lon="-2.4540290">
        <ele>398.6</ele>
        <time>2022-08-13T06:42:50Z</time>
      </trkpt>
      <trkpt lat="42.4493720" lon="-2.4540970">
        <ele>398.6</ele>
        <time>2022-08-13T06:42:51Z</time>
      </trkpt>
      <trkpt lat="42.4494280" lon="-2.4544470">
        <ele>398.6</ele>
        <time>2022-08-13T06:42:56Z</time>
      </trkpt>
      <trkpt lat="42.4494590" lon="-2.4546650">
        <ele>398.6</ele>
        <time>2022-08-13T06:42:59Z</time>
      </trkpt>
      <trkpt lat="42.4494890" lon="-2.4548070">
        <ele>398.6</ele>
        <time>2022-08-13T06:43:01Z</time>
      </trkpt>
      <trkpt lat="42.4495230" lon="-2.4550120">
        <ele>398.6</ele>
        <time>2022-08-13T06:43:04Z</time>
      </trkpt>
      <trkpt lat="42.4495390" lon="-2.4550770">
        <ele>398.6</ele>
        <time>2022-08-13T06:43:05Z</time>
      </trkpt>
      <trkpt lat="42.4495890" lon="-2.4554040">
        <ele>398.7</ele>
        <time>2022-08-13T06:43:10Z</time>
      </trkpt>
      <trkpt lat="42.4496240" lon="-2.4555230">
        <ele>398.8</ele>
        <time>2022-08-13T06:43:12Z</time>
      </trkpt>
      <trkpt lat="42.4496540" lon="-2.4555730">
        <ele>398.8</ele>
        <time>2022-08-13T06:43:13Z</time>
      </trkpt>
      <trkpt lat="42.4497050" lon="-2.4556720">
        <ele>398.7</ele>
        <time>2022-08-13T06:43:15Z</time>
      </trkpt>
      <trkpt lat="42.4497400" lon="-2.4557760">
        <ele>398.7</ele>
        <time>2022-08-13T06:43:17Z</time>
      </trkpt>
      <trkpt lat="42.4497430" lon="-2.4558340">
        <ele>398.7</ele>
        <time>2022-08-13T06:43:18Z</time>
      </trkpt>
      <trkpt lat="42.4496920" lon="-2.4559700">
        <ele>398.8</ele>
        <time>2022-08-13T06:43:21Z</time>
      </trkpt>
      <trkpt lat="42.4496590" lon="-2.4559930">
        <ele>398.8</ele>
        <time>2022-08-13T06:43:22Z</time>
      </trkpt>
      <trkpt lat="42.4495760" lon="-2.4560070">
        <ele>398.9</ele>
        <time>2022-08-13T06:43:24Z</time>
      </trkpt>
      <trkpt lat="42.4492570" lon="-2.4560510">
        <ele>399.1</ele>
        <time>2022-08-13T06:43:32Z</time>
      </trkpt>
      <trkpt lat="42.4491280" lon="-2.4561660">
        <ele>399.3</ele>
        <time>2022-08-13T06:43:36Z</time>
      </trkpt>
      <trkpt lat="42.4489590" lon="-2.4564000">
        <ele>399.5</ele>
        <time>2022-08-13T06:43:42Z</time>
      </trkpt>
      <trkpt lat="42.4488920" lon="-2.4564830">
        <ele>399.6</ele>
        <time>2022-08-13T06:43:44Z</time>
      </trkpt>
      <trkpt lat="42.4487610" lon="-2.4566420">
        <ele>399.8</ele>
        <time>2022-08-13T06:43:48Z</time>
      </trkpt>
      <trkpt lat="42.4486520" lon="-2.4567880">
        <ele>400.0</ele>
        <time>2022-08-13T06:43:51Z</time>
      </trkpt>
      <trkpt lat="42.4486160" lon="-2.4568350">
        <ele>400.0</ele>
        <time>2022-08-13T06:43:52Z</time>
      </trkpt>
      <trkpt lat="42.4484500" lon="-2.4570820">
        <ele>400.3</ele>
        <time>2022-08-13T06:43:57Z</time>
      </trkpt>
      <trkpt lat="42.4483840" lon="-2.4571880">
        <ele>400.4</ele>
        <time>2022-08-13T06:43:59Z</time>
      </trkpt>
      <trkpt lat="42.4480840" lon="-2.4575960">
        <ele>401.1</ele>
        <time>2022-08-13T06:44:08Z</time>
      </trkpt>
      <trkpt lat="42.4480460" lon="-2.4576290">
        <ele>401.2</ele>
        <time>2022-08-13T06:44:09Z</time>
      </trkpt>
      <trkpt lat="42.4478680" lon="-2.4577020">
        <ele>401.7</ele>
        <time>2022-08-13T06:44:13Z</time>
      </trkpt>
      <trkpt lat="42.4477750" lon="-2.4577200">
        <ele>401.8</ele>
        <time>2022-08-13T06:44:15Z</time>
      </trkpt>
      <trkpt lat="42.4475900" lon="-2.4578160">
        <ele>402.1</ele>
        <time>2022-08-13T06:44:19Z</time>
      </trkpt>
      <trkpt lat="42.4473200" lon="-2.4579720">
        <ele>402.4</ele>
        <time>2022-08-13T06:44:25Z</time>
      </trkpt>
      <trkpt lat="42.4471830" lon="-2.4580500">
        <ele>402.5</ele>
        <time>2022-08-13T06:44:28Z</time>
      </trkpt>
      <trkpt lat="42.4466590" lon="-2.4582800">
        <ele>403.1</ele>
        <time>2022-08-13T06:44:39Z</time>
      </trkpt>
      <trkpt lat="42.4461450" lon="-2.4585900">
        <ele>403.7</ele>
        <time>2022-08-13T06:44:51Z</time>
      </trkpt>
      <trkpt lat="42.4460970" lon="-2.4586050">
        <ele>403.8</ele>
        <time>2022-08-13T06:44:52Z</time>
      </trkpt>
      <trkpt lat="42.4460480" lon="-2.4586120">
        <ele>403.8</ele>
        <time>2022-08-13T06:44:53Z</time>
      </trkpt>
      <trkpt lat="42.4458980" lon="-2.4586040">
        <ele>404.0</ele>
        <time>2022-08-13T06:44:56Z</time>
      </trkpt>
      <trkpt lat="42.4454450" lon="-2.4586000">
        <ele>404.5</ele>
        <time>2022-08-13T06:45:05Z</time>
      </trkpt>
      <trkpt lat="42.4449530" lon="-2.4586650">
        <ele>405.0</ele>
        <time>2022-08-13T06:45:15Z</time>
      </trkpt>
      <trkpt lat="42.4448410" lon="-2.4586780">
        <ele>405.1</ele>
        <time>2022-08-13T06:45:17Z</time>
      </trkpt>
      <trkpt lat="42.4445180" lon="-2.4588240">
        <ele>405.4</ele>
        <time>2022-08-13T06:45:24Z</time>
      </trkpt>
      <trkpt lat="42.4444160" lon="-2.4588600">
        <ele>405.6</ele>
        <time>2022-08-13T06:45:26Z</time>
      </trkpt>
      <trkpt lat="42.4442710" lon="-2.4588670">
        <ele>405.8</ele>
        <time>2022-08-13T06:45:29Z</time>
      </trkpt>
      <trkpt lat="42.4438470" lon="-2.4588240">
        <ele>406.2</ele>
        <time>2022-08-13T06:45:38Z</time>
      </trkpt>
      <trkpt lat="42.4435030" lon="-2.4587560">
        <ele>406.6</ele>
        <time>2022-08-13T06:45:46Z</time>
      </trkpt>
      <trkpt lat="42.4434030" lon="-2.4587390">
        <ele>406.8</ele>
        <time>2022-08-13T06:45:47Z</time>
      </trkpt>
      <trkpt lat="42.4430410" lon="-2.4586800">
        <ele>407.1</ele>
        <time>2022-08-13T06:45:54Z</time>
      </trkpt>
      <trkpt lat="42.4428870" lon="-2.4586500">
        <ele>407.2</ele>
        <time>2022-08-13T06:45:57Z</time>
      </trkpt>
      <trkpt lat="42.4426260" lon="-2.4586230">
        <ele>407.4</ele>
        <time>2022-08-13T06:46:02Z</time>
      </trkpt>
      <trkpt lat="42.4424240" lon="-2.4585890">
        <ele>407.6</ele>
        <time>2022-08-13T06:46:06Z</time>
      </trkpt>
      <trkpt lat="42.4419360" lon="-2.4584950">
        <ele>408.1</ele>
        <time>2022-08-13T06:46:16Z</time>
      </trkpt>
      <trkpt lat="42.4415490" lon="-2.4584290">
        <ele>408.6</ele>
        <time>2022-08-13T06:46:24Z</time>
      </trkpt>
      <trkpt lat="42.4414530" lon="-2.4584190">
        <ele>408.7</ele>
        <time>2022-08-13T06:46:26Z</time>
      </trkpt>
      <trkpt lat="42.4410920" lon="-2.4583830">
        <ele>409.3</ele>
        <time>2022-08-13T06:46:34Z</time>
      </trkpt>
      <trkpt lat="42.4410350" lon="-2.4584480">
        <ele>409.5</ele>
        <time>2022-08-13T06:46:36Z</time>
      </trkpt>
      <trkpt lat="42.4410080" lon="-2.4585030">
        <ele>409.6</ele>
        <time>2022-08-13T06:46:37Z</time>
      </trkpt>
      <trkpt lat="42.4409290" lon="-2.4586350">
        <ele>409.8</ele>
        <time>2022-08-13T06:46:40Z</time>
      </trkpt>
      <trkpt lat="42.4408280" lon="-2.4587430">
        <ele>410.0</ele>
        <time>2022-08-13T06:46:43Z</time>
      </trkpt>
      <trkpt lat="42.4406320" lon="-2.4588810">
        <ele>410.4</ele>
        <time>2022-08-13T06:46:48Z</time>
      </trkpt>
      <trkpt lat="42.4405900" lon="-2.4589020">
        <ele>410.5</ele>
        <time>2022-08-13T06:46:49Z</time>
      </trkpt>
      <trkpt lat="42.4405470" lon="-2.4589170">
        <ele>410.5</ele>
        <time>2022-08-13T06:46:50Z</time>
      </trkpt>
      <trkpt lat="42.4403580" lon="-2.4589560">
        <ele>410.9</ele>
        <time>2022-08-13T06:46:54Z</time>
      </trkpt>
      <trkpt lat="42.4402200" lon="-2.4589660">
        <ele>411.1</ele>
        <time>2022-08-13T06:46:57Z</time>
      </trkpt>
      <trkpt lat="42.4399010" lon="-2.4589970">
        <ele>411.7</ele>
        <time>2022-08-13T06:47:04Z</time>
      </trkpt>
      <trkpt lat="42.4397160" lon="-2.4590030">
        <ele>412.0</ele>
        <time>2022-08-13T06:47:08Z</time>
      </trkpt>
      <trkpt lat="42.4393230" lon="-2.4590010">
        <ele>412.8</ele>
        <time>2022-08-13T06:47:17Z</time>
      </trkpt>
      <trkpt lat="42.4392770" lon="-2.4590000">
        <ele>412.9</ele>
        <time>2022-08-13T06:47:18Z</time>
      </trkpt>
      <trkpt lat="42.4389520" lon="-2.4590230">
        <ele>413.3</ele>
        <time>2022-08-13T06:47:25Z</time>
      </trkpt>
      <trkpt lat="42.4388090" lon="-2.4590250">
        <ele>413.4</ele>
        <time>2022-08-13T06:47:28Z</time>
      </trkpt>
      <trkpt lat="42.4386170" lon="-2.4590260">
        <ele>413.6</ele>
        <time>2022-08-13T06:47:32Z</time>
      </trkpt>
      <trkpt lat="42.4383780" lon="-2.4590250">
        <ele>413.9</ele>
        <time>2022-08-13T06:47:37Z</time>
      </trkpt>
      <trkpt lat="42.4382800" lon="-2.4590240">
        <ele>414.0</ele>
        <time>2022-08-13T06:47:39Z</time>
      </trkpt>
      <trkpt lat="42.4379320" lon="-2.4590380">
        <ele>414.3</ele>
        <time>2022-08-13T06:47:46Z</time>
      </trkpt>
      <trkpt lat="42.4376010" lon="-2.4590450">
        <ele>414.6</ele>
        <time>2022-08-13T06:47:53Z</time>
      </trkpt>
      <trkpt lat="42.4373530" lon="-2.4590760">
        <ele>414.7</ele>
        <time>2022-08-13T06:47:58Z</time>
      </trkpt>
      <trkpt lat="42.4372550" lon="-2.4590960">
        <ele>414.8</ele>
        <time>2022-08-13T06:48:00Z</time>
      </trkpt>
      <trkpt lat="42.4371550" lon="-2.4591000">
        <ele>414.9</ele>
        <time>2022-08-13T06:48:02Z</time>
      </trkpt>
      <trkpt lat="42.4369640" lon="-2.4591190">
        <ele>415.1</ele>
        <time>2022-08-13T06:48:06Z</time>
      </trkpt>
      <trkpt lat="42.4369150" lon="-2.4591250">
        <ele>415.1</ele>
        <time>2022-08-13T06:48:07Z</time>
      </trkpt>
      <trkpt lat="42.4365640" lon="-2.4591780">
        <ele>415.3</ele>
        <time>2022-08-13T06:48:14Z</time>
      </trkpt>
      <trkpt lat="42.4364780" lon="-2.4592010">
        <ele>415.4</ele>
        <time>2022-08-13T06:48:16Z</time>
      </trkpt>
      <trkpt lat="42.4363790" lon="-2.4592280">
        <ele>415.4</ele>
        <time>2022-08-13T06:48:18Z</time>
      </trkpt>
      <trkpt lat="42.4362280" lon="-2.4592680">
        <ele>415.5</ele>
        <time>2022-08-13T06:48:21Z</time>
      </trkpt>
      <trkpt lat="42.4361900" lon="-2.4592790">
        <ele>415.5</ele>
        <time>2022-08-13T06:48:22Z</time>
      </trkpt>
      <trkpt lat="42.4359930" lon="-2.4593530">
        <ele>415.7</ele>
        <time>2022-08-13T06:48:26Z</time>
      </trkpt>
      <trkpt lat="42.4359280" lon="-2.4594290">
        <ele>415.8</ele>
        <time>2022-08-13T06:48:28Z</time>
      </trkpt>
      <trkpt lat="42.4358950" lon="-2.4594720">
        <ele>415.8</ele>
        <time>2022-08-13T06:48:29Z</time>
      </trkpt>
      <trkpt lat="42.4358560" lon="-2.4595100">
        <ele>415.8</ele>
        <time>2022-08-13T06:48:30Z</time>
      </trkpt>
      <trkpt lat="42.4358020" lon="-2.4595330">
        <ele>415.8</ele>
        <time>2022-08-13T06:48:31Z</time>
      </trkpt>
      <trkpt lat="42.4357630" lon="-2.4595340">
        <ele>415.8</ele>
        <time>2022-08-13T06:48:32Z</time>
      </trkpt>
      <trkpt lat="42.4357140" lon="-2.4595220">
        <ele>415.9</ele>
        <time>2022-08-13T06:48:33Z</time>
      </trkpt>
      <trkpt lat="42.4355590" lon="-2.4594420">
        <ele>416.0</ele>
        <time>2022-08-13T06:48:36Z</time>
      </trkpt>
      <trkpt lat="42.4354730" lon="-2.4594340">
        <ele>416.1</ele>
        <time>2022-08-13T06:48:38Z</time>
      </trkpt>
      <trkpt lat="42.4353820" lon="-2.4594570">
        <ele>416.2</ele>
        <time>2022-08-13T06:48:40Z</time>
      </trkpt>
      <trkpt lat="42.4353380" lon="-2.4594670">
        <ele>416.3</ele>
        <time>2022-08-13T06:48:41Z</time>
      </trkpt>
      <trkpt lat="42.4352000" lon="-2.4595040">
        <ele>416.5</ele>
        <time>2022-08-13T06:48:44Z</time>
      </trkpt>
      <trkpt lat="42.4351180" lon="-2.4595350">
        <ele>416.6</ele>
        <time>2022-08-13T06:48:46Z</time>
      </trkpt>
      <trkpt lat="42.4349340" lon="-2.4595970">
        <ele>416.9</ele>
        <time>2022-08-13T06:48:50Z</time>
      </trkpt>
      <trkpt lat="42.4345630" lon="-2.4597120">
        <ele>417.6</ele>
        <time>2022-08-13T06:48:58Z</time>
      </trkpt>
      <trkpt lat="42.4343610" lon="-2.4597810">
        <ele>418.4</ele>
        <time>2022-08-13T06:49:03Z</time>
      </trkpt>
      <trkpt lat="42.4342670" lon="-2.4598100">
        <ele>418.7</ele>
        <time>2022-08-13T06:49:05Z</time>
      </trkpt>
      <trkpt lat="42.4340750" lon="-2.4598950">
        <ele>419.5</ele>
        <time>2022-08-13T06:49:10Z</time>
      </trkpt>
      <trkpt lat="42.4339550" lon="-2.4599450">
        <ele>419.8</ele>
        <time>2022-08-13T06:49:13Z</time>
      </trkpt>
      <trkpt lat="42.4337270" lon="-2.4601210">
        <ele>420.3</ele>
        <time>2022-08-13T06:49:19Z</time>
      </trkpt>
      <trkpt lat="42.4336960" lon="-2.4601590">
        <ele>420.4</ele>
        <time>2022-08-13T06:49:20Z</time>
      </trkpt>
      <trkpt lat="42.4335690" lon="-2.4603790">
        <ele>420.5</ele>
        <time>2022-08-13T06:49:25Z</time>
      </trkpt>
      <trkpt lat="42.4335170" lon="-2.4604690">
        <ele>420.5</ele>
        <time>2022-08-13T06:49:27Z</time>
      </trkpt>
      <trkpt lat="42.4334510" lon="-2.4605510">
        <ele>420.5</ele>
        <time>2022-08-13T06:49:29Z</time>
      </trkpt>
      <trkpt lat="42.4333950" lon="-2.4606250">
        <ele>420.5</ele>
        <time>2022-08-13T06:49:31Z</time>
      </trkpt>
      <trkpt lat="42.4333590" lon="-2.4606620">
        <ele>420.5</ele>
        <time>2022-08-13T06:49:32Z</time>
      </trkpt>
      <trkpt lat="42.4332670" lon="-2.4607040">
        <ele>420.5</ele>
        <time>2022-08-13T06:49:34Z</time>
      </trkpt>
      <trkpt lat="42.4330470" lon="-2.4607050">
        <ele>420.5</ele>
        <time>2022-08-13T06:49:38Z</time>
      </trkpt>
      <trkpt lat="42.4329990" lon="-2.4607040">
        <ele>420.5</ele>
        <time>2022-08-13T06:49:39Z</time>
      </trkpt>
      <trkpt lat="42.4327610" lon="-2.4607080">
        <ele>421.0</ele>
        <time>2022-08-13T06:49:43Z</time>
      </trkpt>
      <trkpt lat="42.4324420" lon="-2.4607910">
        <ele>421.8</ele>
        <time>2022-08-13T06:49:50Z</time>
      </trkpt>
      <trkpt lat="42.4324040" lon="-2.4607990">
        <ele>422.0</ele>
        <time>2022-08-13T06:49:51Z</time>
      </trkpt>
      <trkpt lat="42.4322630" lon="-2.4608900">
        <ele>422.8</ele>
        <time>2022-08-13T06:49:56Z</time>
      </trkpt>
      <trkpt lat="42.4322110" lon="-2.4609200">
        <ele>423.1</ele>
        <time>2022-08-13T06:49:58Z</time>
      </trkpt>
      <trkpt lat="42.4321830" lon="-2.4609350">
        <ele>423.3</ele>
        <time>2022-08-13T06:49:59Z</time>
      </trkpt>
      <trkpt lat="42.4321240" lon="-2.4609470">
        <ele>423.7</ele>
        <time>2022-08-13T06:50:01Z</time>
      </trkpt>
      <trkpt lat="42.4320590" lon="-2.4609610">
        <ele>424.1</ele>
        <time>2022-08-13T06:50:03Z</time>
      </trkpt>
      <trkpt lat="42.4320260" lon="-2.4609700">
        <ele>424.3</ele>
        <time>2022-08-13T06:50:04Z</time>
      </trkpt>
      <trkpt lat="42.4319280" lon="-2.4609660">
        <ele>424.8</ele>
        <time>2022-08-13T06:50:07Z</time>
      </trkpt>
      <trkpt lat="42.4318360" lon="-2.4609670">
        <ele>425.1</ele>
        <time>2022-08-13T06:50:10Z</time>
      </trkpt>
      <trkpt lat="42.4316970" lon="-2.4609760">
        <ele>425.5</ele>
        <time>2022-08-13T06:50:14Z</time>
      </trkpt>
      <trkpt lat="42.4315440" lon="-2.4609810">
        <ele>425.7</ele>
        <time>2022-08-13T06:50:18Z</time>
      </trkpt>
      <trkpt lat="42.4313860" lon="-2.4609850">
        <ele>425.8</ele>
        <time>2022-08-13T06:50:22Z</time>
      </trkpt>
      <trkpt lat="42.4311800" lon="-2.4609970">
        <ele>425.8</ele>
        <time>2022-08-13T06:50:27Z</time>
      </trkpt>
      <trkpt lat="42.4310940" lon="-2.4610350">
        <ele>425.7</ele>
        <time>2022-08-13T06:50:29Z</time>
      </trkpt>
      <trkpt lat="42.4310530" lon="-2.4610640">
        <ele>425.6</ele>
        <time>2022-08-13T06:50:30Z</time>
      </trkpt>
      <trkpt lat="42.4308320" lon="-2.4611960">
        <ele>425.1</ele>
        <time>2022-08-13T06:50:35Z</time>
      </trkpt>
      <trkpt lat="42.4307820" lon="-2.4612080">
        <ele>425.0</ele>
        <time>2022-08-13T06:50:36Z</time>
      </trkpt>
      <trkpt lat="42.4307300" lon="-2.4612120">
        <ele>424.9</ele>
        <time>2022-08-13T06:50:37Z</time>
      </trkpt>
      <trkpt lat="42.4306220" lon="-2.4612010">
        <ele>424.7</ele>
        <time>2022-08-13T06:50:39Z</time>
      </trkpt>
      <trkpt lat="42.4305130" lon="-2.4611630">
        <ele>424.5</ele>
        <time>2022-08-13T06:50:41Z</time>
      </trkpt>
      <trkpt lat="42.4301890" lon="-2.4610130">
        <ele>424.4</ele>
        <time>2022-08-13T06:50:47Z</time>
      </trkpt>
      <trkpt lat="42.4300350" lon="-2.4609550">
        <ele>424.4</ele>
        <time>2022-08-13T06:50:50Z</time>
      </trkpt>
      <trkpt lat="42.4299360" lon="-2.4609100">
        <ele>424.5</ele>
        <time>2022-08-13T06:50:52Z</time>
      </trkpt>
      <trkpt lat="42.4298370" lon="-2.4608580">
        <ele>424.6</ele>
        <time>2022-08-13T06:50:54Z</time>
      </trkpt>
      <trkpt lat="42.4296570" lon="-2.4607520">
        <ele>424.9</ele>
        <time>2022-08-13T06:50:58Z</time>
      </trkpt>
      <trkpt lat="42.4294820" lon="-2.4606390">
        <ele>425.2</ele>
        <time>2022-08-13T06:51:02Z</time>
      </trkpt>
      <trkpt lat="42.4292850" lon="-2.4605140">
        <ele>425.7</ele>
        <time>2022-08-13T06:51:07Z</time>
      </trkpt>
      <trkpt lat="42.4292490" lon="-2.4605000">
        <ele>425.9</ele>
        <time>2022-08-13T06:51:08Z</time>
      </trkpt>
      <trkpt lat="42.4291210" lon="-2.4604630">
        <ele>426.3</ele>
        <time>2022-08-13T06:51:12Z</time>
      </trkpt>
      <trkpt lat="42.4290830" lon="-2.4604540">
        <ele>426.4</ele>
        <time>2022-08-13T06:51:14Z</time>
      </trkpt>
      <trkpt lat="42.4290500" lon="-2.4604460">
        <ele>426.6</ele>
        <time>2022-08-13T06:51:16Z</time>
      </trkpt>
      <trkpt lat="42.4290270" lon="-2.4604350">
        <ele>426.7</ele>
        <time>2022-08-13T06:51:18Z</time>
      </trkpt>
      <trkpt lat="42.4290050" lon="-2.4604130">
        <ele>426.7</ele>
        <time>2022-08-13T06:51:20Z</time>
      </trkpt>
      <trkpt lat="42.4289950" lon="-2.4604120">
        <ele>426.5</ele>
        <time>2022-08-13T06:51:22Z</time>
      </trkpt>
      <trkpt lat="42.4289860" lon="-2.4604170">
        <ele>426.6</ele>
        <time>2022-08-13T06:51:24Z</time>
      </trkpt>
      <trkpt lat="42.4289830" lon="-2.4604210">
        <ele>426.6</ele>
        <time>2022-08-13T06:51:25Z</time>
      </trkpt>
      <trkpt lat="42.4289750" lon="-2.4604120">
        <ele>426.6</ele>
        <time>2022-08-13T06:51:27Z</time>
      </trkpt>
      <trkpt lat="42.4289220" lon="-2.4603920">
        <ele>426.9</ele>
        <time>2022-08-13T06:51:30Z</time>
      </trkpt>
      <trkpt lat="42.4289190" lon="-2.4603990">
        <ele>426.9</ele>
        <time>2022-08-13T06:51:32Z</time>
      </trkpt>
      <trkpt lat="42.4288830" lon="-2.4603910">
        <ele>427.1</ele>
        <time>2022-08-13T06:51:56Z</time>
      </trkpt>
      <trkpt lat="42.4288340" lon="-2.4603760">
        <ele>427.3</ele>
        <time>2022-08-13T06:51:57Z</time>
      </trkpt>
      <trkpt lat="42.4287430" lon="-2.4603430">
        <ele>427.6</ele>
        <time>2022-08-13T06:52:00Z</time>
      </trkpt>
      <trkpt lat="42.4286810" lon="-2.4603370">
        <ele>427.9</ele>
        <time>2022-08-13T06:52:02Z</time>
      </trkpt>
      <trkpt lat="42.4286100" lon="-2.4603280">
        <ele>428.2</ele>
        <time>2022-08-13T06:52:05Z</time>
      </trkpt>
      <trkpt lat="42.4285730" lon="-2.4603200">
        <ele>428.4</ele>
        <time>2022-08-13T06:52:07Z</time>
      </trkpt>
      <trkpt lat="42.4285440" lon="-2.4603180">
        <ele>428.5</ele>
        <time>2022-08-13T06:52:09Z</time>
      </trkpt>
      <trkpt lat="42.4284680" lon="-2.4603180">
        <ele>429.0</ele>
        <time>2022-08-13T06:52:12Z</time>
      </trkpt>
      <trkpt lat="42.4284400" lon="-2.4603210">
        <ele>429.2</ele>
        <time>2022-08-13T06:52:13Z</time>
      </trkpt>
      <trkpt lat="42.4284080" lon="-2.4603290">
        <ele>429.4</ele>
        <time>2022-08-13T06:52:14Z</time>
      </trkpt>
      <trkpt lat="42.4283280" lon="-2.4603700">
        <ele>430.1</ele>
        <time>2022-08-13T06:52:17Z</time>
      </trkpt>
      <trkpt lat="42.4282810" lon="-2.4604000">
        <ele>430.6</ele>
        <time>2022-08-13T06:52:19Z</time>
      </trkpt>
      <trkpt lat="42.4282390" lon="-2.4604430">
        <ele>431.0</ele>
        <time>2022-08-13T06:52:21Z</time>
      </trkpt>
      <trkpt lat="42.4282100" lon="-2.4604710">
        <ele>431.4</ele>
        <time>2022-08-13T06:52:23Z</time>
      </trkpt>
      <trkpt lat="42.4281890" lon="-2.4605120">
        <ele>431.7</ele>
        <time>2022-08-13T06:52:25Z</time>
      </trkpt>
      <trkpt lat="42.4281840" lon="-2.4605390">
        <ele>431.9</ele>
        <time>2022-08-13T06:52:26Z</time>
      </trkpt>
      <trkpt lat="42.4281760" lon="-2.4605970">
        <ele>432.9</ele>
        <time>2022-08-13T06:52:28Z</time>
      </trkpt>
      <trkpt lat="42.4281590" lon="-2.4606500">
        <ele>433.0</ele>
        <time>2022-08-13T06:52:30Z</time>
      </trkpt>
      <trkpt lat="42.4281300" lon="-2.4607050">
        <ele>433.3</ele>
        <time>2022-08-13T06:52:32Z</time>
      </trkpt>
      <trkpt lat="42.4280830" lon="-2.4607660">
        <ele>433.7</ele>
        <time>2022-08-13T06:52:35Z</time>
      </trkpt>
      <trkpt lat="42.4280520" lon="-2.4607870">
        <ele>434.0</ele>
        <time>2022-08-13T06:52:37Z</time>
      </trkpt>
      <trkpt lat="42.4280060" lon="-2.4608440">
        <ele>434.4</ele>
        <time>2022-08-13T06:52:40Z</time>
      </trkpt>
      <trkpt lat="42.4279720" lon="-2.4609010">
        <ele>434.8</ele>
        <time>2022-08-13T06:52:42Z</time>
      </trkpt>
      <trkpt lat="42.4279320" lon="-2.4609740">
        <ele>435.1</ele>
        <time>2022-08-13T06:52:45Z</time>
      </trkpt>
      <trkpt lat="42.4278910" lon="-2.4610480">
        <ele>435.3</ele>
        <time>2022-08-13T06:52:48Z</time>
      </trkpt>
      <trkpt lat="42.4278520" lon="-2.4611640">
        <ele>435.6</ele>
        <time>2022-08-13T06:52:51Z</time>
      </trkpt>
      <trkpt lat="42.4278240" lon="-2.4612360">
        <ele>435.8</ele>
        <time>2022-08-13T06:52:53Z</time>
      </trkpt>
      <trkpt lat="42.4278150" lon="-2.4612730">
        <ele>435.9</ele>
        <time>2022-08-13T06:52:54Z</time>
      </trkpt>
      <trkpt lat="42.4277710" lon="-2.4613710">
        <ele>436.0</ele>
        <time>2022-08-13T06:52:57Z</time>
      </trkpt>
      <trkpt lat="42.4277270" lon="-2.4614290">
        <ele>436.1</ele>
        <time>2022-08-13T06:52:59Z</time>
      </trkpt>
      <trkpt lat="42.4276040" lon="-2.4616060">
        <ele>436.4</ele>
        <time>2022-08-13T06:53:04Z</time>
      </trkpt>
      <trkpt lat="42.4275620" lon="-2.4616690">
        <ele>436.5</ele>
        <time>2022-08-13T06:53:06Z</time>
      </trkpt>
      <trkpt lat="42.4275200" lon="-2.4617400">
        <ele>436.6</ele>
        <time>2022-08-13T06:53:08Z</time>
      </trkpt>
      <trkpt lat="42.4274330" lon="-2.4619070">
        <ele>436.8</ele>
        <time>2022-08-13T06:53:12Z</time>
      </trkpt>
      <trkpt lat="42.4273610" lon="-2.4620130">
        <ele>437.0</ele>
        <time>2022-08-13T06:53:15Z</time>
      </trkpt>
      <trkpt lat="42.4272200" lon="-2.4621930">
        <ele>437.3</ele>
        <time>2022-08-13T06:53:18Z</time>
      </trkpt>
      <trkpt lat="42.4272000" lon="-2.4622280">
        <ele>437.4</ele>
        <time>2022-08-13T06:53:19Z</time>
      </trkpt>
      <trkpt lat="42.4270810" lon="-2.4625180">
        <ele>437.9</ele>
        <time>2022-08-13T06:53:25Z</time>
      </trkpt>
      <trkpt lat="42.4270410" lon="-2.4625930">
        <ele>438.1</ele>
        <time>2022-08-13T06:53:26Z</time>
      </trkpt>
      <trkpt lat="42.4270310" lon="-2.4626360">
        <ele>438.1</ele>
        <time>2022-08-13T06:53:27Z</time>
      </trkpt>
      <trkpt lat="42.4270250" lon="-2.4626780">
        <ele>438.2</ele>
        <time>2022-08-13T06:53:28Z</time>
      </trkpt>
      <trkpt lat="42.4270020" lon="-2.4628810">
        <ele>438.6</ele>
        <time>2022-08-13T06:53:33Z</time>
      </trkpt>
      <trkpt lat="42.4269920" lon="-2.4629060">
        <ele>438.7</ele>
        <time>2022-08-13T06:53:34Z</time>
      </trkpt>
      <trkpt lat="42.4269420" lon="-2.4629660">
        <ele>438.8</ele>
        <time>2022-08-13T06:53:37Z</time>
      </trkpt>
      <trkpt lat="42.4269180" lon="-2.4629950">
        <ele>438.9</ele>
        <time>2022-08-13T06:53:38Z</time>
      </trkpt>
      <trkpt lat="42.4268210" lon="-2.4631460">
        <ele>439.1</ele>
        <time>2022-08-13T06:53:42Z</time>
      </trkpt>
      <trkpt lat="42.4267240" lon="-2.4632850">
        <ele>439.4</ele>
        <time>2022-08-13T06:53:45Z</time>
      </trkpt>
      <trkpt lat="42.4266580" lon="-2.4633650">
        <ele>439.5</ele>
        <time>2022-08-13T06:53:46Z</time>
      </trkpt>
      <trkpt lat="42.4264890" lon="-2.4634660">
        <ele>439.9</ele>
        <time>2022-08-13T06:53:50Z</time>
      </trkpt>
      <trkpt lat="42.4262620" lon="-2.4636030">
        <ele>440.4</ele>
        <time>2022-08-13T06:53:56Z</time>
      </trkpt>
      <trkpt lat="42.4262230" lon="-2.4636300">
        <ele>440.6</ele>
        <time>2022-08-13T06:53:57Z</time>
      </trkpt>
      <trkpt lat="42.4260850" lon="-2.4637270">
        <ele>441.2</ele>
        <time>2022-08-13T06:54:01Z</time>
      </trkpt>
      <trkpt lat="42.4259570" lon="-2.4638160">
        <ele>441.8</ele>
        <time>2022-08-13T06:54:06Z</time>
      </trkpt>
      <trkpt lat="42.4258490" lon="-2.4639110">
        <ele>443.2</ele>
        <time>2022-08-13T06:54:10Z</time>
      </trkpt>
      <trkpt lat="42.4257750" lon="-2.4639600">
        <ele>444.1</ele>
        <time>2022-08-13T06:54:12Z</time>
      </trkpt>
      <trkpt lat="42.4255890" lon="-2.4640720">
        <ele>444.3</ele>
        <time>2022-08-13T06:54:18Z</time>
      </trkpt>
      <trkpt lat="42.4255250" lon="-2.4641120">
        <ele>444.7</ele>
        <time>2022-08-13T06:54:20Z</time>
      </trkpt>
      <trkpt lat="42.4253560" lon="-2.4642330">
        <ele>445.8</ele>
        <time>2022-08-13T06:54:25Z</time>
      </trkpt>
      <trkpt lat="42.4253130" lon="-2.4642670">
        <ele>446.1</ele>
        <time>2022-08-13T06:54:27Z</time>
      </trkpt>
      <trkpt lat="42.4253050" lon="-2.4642870">
        <ele>446.2</ele>
        <time>2022-08-13T06:54:28Z</time>
      </trkpt>
      <trkpt lat="42.4252200" lon="-2.4643610">
        <ele>446.9</ele>
        <time>2022-08-13T06:54:31Z</time>
      </trkpt>
      <trkpt lat="42.4251530" lon="-2.4643730">
        <ele>447.4</ele>
        <time>2022-08-13T06:54:33Z</time>
      </trkpt>
      <trkpt lat="42.4249960" lon="-2.4644720">
        <ele>448.6</ele>
        <time>2022-08-13T06:54:37Z</time>
      </trkpt>
      <trkpt lat="42.4249540" lon="-2.4644980">
        <ele>448.9</ele>
        <time>2022-08-13T06:54:38Z</time>
      </trkpt>
      <trkpt lat="42.4249010" lon="-2.4645120">
        <ele>449.2</ele>
        <time>2022-08-13T06:54:40Z</time>
      </trkpt>
      <trkpt lat="42.4248670" lon="-2.4645110">
        <ele>449.3</ele>
        <time>2022-08-13T06:54:44Z</time>
      </trkpt>
      <trkpt lat="42.4247550" lon="-2.4646040">
        <ele>449.5</ele>
        <time>2022-08-13T06:54:49Z</time>
      </trkpt>
      <trkpt lat="42.4247350" lon="-2.4646230">
        <ele>449.6</ele>
        <time>2022-08-13T06:54:50Z</time>
      </trkpt>
      <trkpt lat="42.4246340" lon="-2.4647250">
        <ele>450.4</ele>
        <time>2022-08-13T06:54:55Z</time>
      </trkpt>
      <trkpt lat="42.4245030" lon="-2.4648870">
        <ele>451.4</ele>
        <time>2022-08-13T06:55:01Z</time>
      </trkpt>
      <trkpt lat="42.4243950" lon="-2.4650320">
        <ele>452.3</ele>
        <time>2022-08-13T06:55:06Z</time>
      </trkpt>
      <trkpt lat="42.4243200" lon="-2.4651690">
        <ele>452.9</ele>
        <time>2022-08-13T06:55:10Z</time>
      </trkpt>
      <trkpt lat="42.4242140" lon="-2.4653340">
        <ele>453.6</ele>
        <time>2022-08-13T06:55:15Z</time>
      </trkpt>
      <trkpt lat="42.4241960" lon="-2.4653690">
        <ele>453.7</ele>
        <time>2022-08-13T06:55:16Z</time>
      </trkpt>
      <trkpt lat="42.4240550" lon="-2.4656220">
        <ele>454.6</ele>
        <time>2022-08-13T06:55:23Z</time>
      </trkpt>
      <trkpt lat="42.4240170" lon="-2.4656900">
        <ele>454.9</ele>
        <time>2022-08-13T06:55:25Z</time>
      </trkpt>
      <trkpt lat="42.4238770" lon="-2.4659170">
        <ele>455.8</ele>
        <time>2022-08-13T06:55:32Z</time>
      </trkpt>
      <trkpt lat="42.4238590" lon="-2.4659480">
        <ele>455.9</ele>
        <time>2022-08-13T06:55:33Z</time>
      </trkpt>
      <trkpt lat="42.4237400" lon="-2.4661490">
        <ele>456.7</ele>
        <time>2022-08-13T06:55:39Z</time>
      </trkpt>
      <trkpt lat="42.4236730" lon="-2.4662500">
        <ele>457.1</ele>
        <time>2022-08-13T06:55:42Z</time>
      </trkpt>
      <trkpt lat="42.4235480" lon="-2.4664100">
        <ele>457.8</ele>
        <time>2022-08-13T06:55:47Z</time>
      </trkpt>
      <trkpt lat="42.4234670" lon="-2.4665030">
        <ele>458.1</ele>
        <time>2022-08-13T06:55:50Z</time>
      </trkpt>
      <trkpt lat="42.4233250" lon="-2.4666590">
        <ele>458.5</ele>
        <time>2022-08-13T06:55:55Z</time>
      </trkpt>
      <trkpt lat="42.4231990" lon="-2.4667720">
        <ele>458.7</ele>
        <time>2022-08-13T06:55:59Z</time>
      </trkpt>
      <trkpt lat="42.4230320" lon="-2.4668990">
        <ele>459.0</ele>
        <time>2022-08-13T06:56:04Z</time>
      </trkpt>
      <trkpt lat="42.4228980" lon="-2.4670040">
        <ele>459.3</ele>
        <time>2022-08-13T06:56:08Z</time>
      </trkpt>
      <trkpt lat="42.4228260" lon="-2.4670580">
        <ele>459.4</ele>
        <time>2022-08-13T06:56:10Z</time>
      </trkpt>
      <trkpt lat="42.4225280" lon="-2.4672890">
        <ele>459.7</ele>
        <time>2022-08-13T06:56:18Z</time>
      </trkpt>
      <trkpt lat="42.4221120" lon="-2.4675990">
        <ele>459.8</ele>
        <time>2022-08-13T06:56:29Z</time>
      </trkpt>
      <trkpt lat="42.4219880" lon="-2.4676760">
        <ele>459.8</ele>
        <time>2022-08-13T06:56:32Z</time>
      </trkpt>
      <trkpt lat="42.4218650" lon="-2.4677520">
        <ele>459.9</ele>
        <time>2022-08-13T06:56:35Z</time>
      </trkpt>
      <trkpt lat="42.4217960" lon="-2.4677910">
        <ele>459.8</ele>
        <time>2022-08-13T06:56:37Z</time>
      </trkpt>
      <trkpt lat="42.4217560" lon="-2.4678120">
        <ele>459.8</ele>
        <time>2022-08-13T06:56:38Z</time>
      </trkpt>
      <trkpt lat="42.4217060" lon="-2.4678380">
        <ele>459.8</ele>
        <time>2022-08-13T06:56:39Z</time>
      </trkpt>
      <trkpt lat="42.4216620" lon="-2.4678580">
        <ele>459.8</ele>
        <time>2022-08-13T06:56:40Z</time>
      </trkpt>
      <trkpt lat="42.4215810" lon="-2.4678870">
        <ele>459.8</ele>
        <time>2022-08-13T06:56:42Z</time>
      </trkpt>
      <trkpt lat="42.4214920" lon="-2.4679200">
        <ele>459.8</ele>
        <time>2022-08-13T06:56:44Z</time>
      </trkpt>
      <trkpt lat="42.4214490" lon="-2.4679390">
        <ele>459.8</ele>
        <time>2022-08-13T06:56:45Z</time>
      </trkpt>
      <trkpt lat="42.4213920" lon="-2.4679650">
        <ele>459.7</ele>
        <time>2022-08-13T06:56:46Z</time>
      </trkpt>
      <trkpt lat="42.4212570" lon="-2.4680090">
        <ele>459.7</ele>
        <time>2022-08-13T06:56:49Z</time>
      </trkpt>
      <trkpt lat="42.4211690" lon="-2.4680360">
        <ele>459.7</ele>
        <time>2022-08-13T06:56:51Z</time>
      </trkpt>
      <trkpt lat="42.4210810" lon="-2.4680680">
        <ele>459.7</ele>
        <time>2022-08-13T06:56:53Z</time>
      </trkpt>
      <trkpt lat="42.4210380" lon="-2.4680820">
        <ele>459.7</ele>
        <time>2022-08-13T06:56:54Z</time>
      </trkpt>
      <trkpt lat="42.4209510" lon="-2.4681060">
        <ele>459.7</ele>
        <time>2022-08-13T06:56:56Z</time>
      </trkpt>
      <trkpt lat="42.4208180" lon="-2.4681470">
        <ele>459.7</ele>
        <time>2022-08-13T06:56:59Z</time>
      </trkpt>
      <trkpt lat="42.4206040" lon="-2.4682130">
        <ele>459.8</ele>
        <time>2022-08-13T06:57:04Z</time>
      </trkpt>
      <trkpt lat="42.4204740" lon="-2.4682470">
        <ele>459.8</ele>
        <time>2022-08-13T06:57:07Z</time>
      </trkpt>
      <trkpt lat="42.4202990" lon="-2.4682910">
        <ele>459.9</ele>
        <time>2022-08-13T06:57:11Z</time>
      </trkpt>
      <trkpt lat="42.4202100" lon="-2.4683130">
        <ele>460.0</ele>
        <time>2022-08-13T06:57:13Z</time>
      </trkpt>
      <trkpt lat="42.4200010" lon="-2.4683630">
        <ele>460.2</ele>
        <time>2022-08-13T06:57:18Z</time>
      </trkpt>
      <trkpt lat="42.4199230" lon="-2.4683810">
        <ele>460.3</ele>
        <time>2022-08-13T06:57:20Z</time>
      </trkpt>
      <trkpt lat="42.4197340" lon="-2.4683660">
        <ele>460.6</ele>
        <time>2022-08-13T06:57:25Z</time>
      </trkpt>
      <trkpt lat="42.4196270" lon="-2.4683450">
        <ele>460.7</ele>
        <time>2022-08-13T06:57:28Z</time>
      </trkpt>
      <trkpt lat="42.4194760" lon="-2.4683600">
        <ele>460.9</ele>
        <time>2022-08-13T06:57:32Z</time>
      </trkpt>
      <trkpt lat="42.4192680" lon="-2.4684090">
        <ele>461.2</ele>
        <time>2022-08-13T06:57:37Z</time>
      </trkpt>
      <trkpt lat="42.4190970" lon="-2.4684520">
        <ele>461.6</ele>
        <time>2022-08-13T06:57:41Z</time>
      </trkpt>
      <trkpt lat="42.4188970" lon="-2.4684720">
        <ele>461.8</ele>
        <time>2022-08-13T06:57:46Z</time>
      </trkpt>
      <trkpt lat="42.4187810" lon="-2.4684910">
        <ele>462.0</ele>
        <time>2022-08-13T06:57:49Z</time>
      </trkpt>
      <trkpt lat="42.4184180" lon="-2.4685590">
        <ele>462.4</ele>
        <time>2022-08-13T06:57:57Z</time>
      </trkpt>
      <trkpt lat="42.4183250" lon="-2.4685660">
        <ele>462.5</ele>
        <time>2022-08-13T06:57:59Z</time>
      </trkpt>
      <trkpt lat="42.4182290" lon="-2.4685780">
        <ele>462.5</ele>
        <time>2022-08-13T06:58:01Z</time>
      </trkpt>
      <trkpt lat="42.4181710" lon="-2.4685840">
        <ele>462.5</ele>
        <time>2022-08-13T06:58:02Z</time>
      </trkpt>
      <trkpt lat="42.4179810" lon="-2.4685770">
        <ele>462.5</ele>
        <time>2022-08-13T06:58:06Z</time>
      </trkpt>
      <trkpt lat="42.4176030" lon="-2.4685570">
        <ele>462.6</ele>
        <time>2022-08-13T06:58:14Z</time>
      </trkpt>
      <trkpt lat="42.4175090" lon="-2.4685490">
        <ele>462.6</ele>
        <time>2022-08-13T06:58:16Z</time>
      </trkpt>
      <trkpt lat="42.4169950" lon="-2.4684990">
        <ele>462.6</ele>
        <time>2022-08-13T06:58:27Z</time>
      </trkpt>
      <trkpt lat="42.4168460" lon="-2.4684820">
        <ele>462.6</ele>
        <time>2022-08-13T06:58:30Z</time>
      </trkpt>
      <trkpt lat="42.4165140" lon="-2.4684260">
        <ele>462.7</ele>
        <time>2022-08-13T06:58:37Z</time>
      </trkpt>
      <trkpt lat="42.4163380" lon="-2.4683900">
        <ele>462.8</ele>
        <time>2022-08-13T06:58:41Z</time>
      </trkpt>
      <trkpt lat="42.4161040" lon="-2.4683380">
        <ele>462.9</ele>
        <time>2022-08-13T06:58:46Z</time>
      </trkpt>
      <trkpt lat="42.4160580" lon="-2.4683290">
        <ele>462.9</ele>
        <time>2022-08-13T06:58:47Z</time>
      </trkpt>
      <trkpt lat="42.4156420" lon="-2.4681980">
        <ele>463.0</ele>
        <time>2022-08-13T06:58:56Z</time>
      </trkpt>
      <trkpt lat="42.4152850" lon="-2.4680730">
        <ele>463.2</ele>
        <time>2022-08-13T06:59:04Z</time>
      </trkpt>
      <trkpt lat="42.4149240" lon="-2.4679250">
        <ele>463.1</ele>
        <time>2022-08-13T06:59:12Z</time>
      </trkpt>
      <trkpt lat="42.4146040" lon="-2.4677030">
        <ele>462.9</ele>
        <time>2022-08-13T06:59:19Z</time>
      </trkpt>
      <trkpt lat="42.4145660" lon="-2.4676640">
        <ele>462.9</ele>
        <time>2022-08-13T06:59:20Z</time>
      </trkpt>
      <trkpt lat="42.4144590" lon="-2.4675240">
        <ele>462.6</ele>
        <time>2022-08-13T06:59:23Z</time>
      </trkpt>
      <trkpt lat="42.4143640" lon="-2.4673670">
        <ele>462.2</ele>
        <time>2022-08-13T06:59:26Z</time>
      </trkpt>
      <trkpt lat="42.4142960" lon="-2.4672540">
        <ele>461.7</ele>
        <time>2022-08-13T06:59:28Z</time>
      </trkpt>
      <trkpt lat="42.4141520" lon="-2.4669920">
        <ele>460.1</ele>
        <time>2022-08-13T06:59:32Z</time>
      </trkpt>
      <trkpt lat="42.4140410" lon="-2.4667950">
        <ele>458.8</ele>
        <time>2022-08-13T06:59:35Z</time>
      </trkpt>
      <trkpt lat="42.4140110" lon="-2.4667470">
        <ele>458.5</ele>
        <time>2022-08-13T06:59:36Z</time>
      </trkpt>
      <trkpt lat="42.4139060" lon="-2.4666470">
        <ele>457.9</ele>
        <time>2022-08-13T06:59:38Z</time>
      </trkpt>
      <trkpt lat="42.4137950" lon="-2.4666240">
        <ele>457.6</ele>
        <time>2022-08-13T06:59:40Z</time>
      </trkpt>
      <trkpt lat="42.4137370" lon="-2.4666470">
        <ele>457.4</ele>
        <time>2022-08-13T06:59:41Z</time>
      </trkpt>
      <trkpt lat="42.4136530" lon="-2.4667160">
        <ele>457.2</ele>
        <time>2022-08-13T06:59:43Z</time>
      </trkpt>
      <trkpt lat="42.4136530" lon="-2.4667160">
        <ele>457.2</ele>
        <time>2022-08-13T06:59:47Z</time>
      </trkpt>
      <trkpt lat="42.4136530" lon="-2.4667160">
        <ele>457.2</ele>
        <time>2022-08-13T06:59:48Z</time>
      </trkpt>
      <trkpt lat="42.4134270" lon="-2.4669880">
        <ele>457.7</ele>
        <time>2022-08-13T06:59:49Z</time>
      </trkpt>
      <trkpt lat="42.4133610" lon="-2.4670420">
        <ele>458.2</ele>
        <time>2022-08-13T06:59:51Z</time>
      </trkpt>
      <trkpt lat="42.4132880" lon="-2.4670810">
        <ele>458.7</ele>
        <time>2022-08-13T06:59:54Z</time>
      </trkpt>
      <trkpt lat="42.4132410" lon="-2.4671020">
        <ele>459.0</ele>
        <time>2022-08-13T06:59:56Z</time>
      </trkpt>
      <trkpt lat="42.4131920" lon="-2.4671100">
        <ele>459.3</ele>
        <time>2022-08-13T06:59:58Z</time>
      </trkpt>
      <trkpt lat="42.4131680" lon="-2.4671160">
        <ele>459.4</ele>
        <time>2022-08-13T06:59:59Z</time>
      </trkpt>
      <trkpt lat="42.4131200" lon="-2.4671370">
        <ele>459.7</ele>
        <time>2022-08-13T07:00:01Z</time>
      </trkpt>
      <trkpt lat="42.4130930" lon="-2.4671460">
        <ele>459.8</ele>
        <time>2022-08-13T07:00:02Z</time>
      </trkpt>
      <trkpt lat="42.4130340" lon="-2.4671570">
        <ele>460.0</ele>
        <time>2022-08-13T07:00:04Z</time>
      </trkpt>
      <trkpt lat="42.4129760" lon="-2.4671620">
        <ele>460.2</ele>
        <time>2022-08-13T07:00:06Z</time>
      </trkpt>
      <trkpt lat="42.4127330" lon="-2.4671350">
        <ele>460.5</ele>
        <time>2022-08-13T07:00:13Z</time>
      </trkpt>
      <trkpt lat="42.4124900" lon="-2.4670590">
        <ele>460.6</ele>
        <time>2022-08-13T07:00:19Z</time>
      </trkpt>
      <trkpt lat="42.4121000" lon="-2.4668870">
        <ele>460.6</ele>
        <time>2022-08-13T07:00:29Z</time>
      </trkpt>
      <trkpt lat="42.4119810" lon="-2.4668300">
        <ele>460.6</ele>
        <time>2022-08-13T07:00:32Z</time>
      </trkpt>
      <trkpt lat="42.4118140" lon="-2.4667590">
        <ele>460.6</ele>
        <time>2022-08-13T07:00:36Z</time>
      </trkpt>
      <trkpt lat="42.4114230" lon="-2.4666000">
        <ele>460.8</ele>
        <time>2022-08-13T07:00:45Z</time>
      </trkpt>
      <trkpt lat="42.4113070" lon="-2.4665380">
        <ele>460.8</ele>
        <time>2022-08-13T07:00:48Z</time>
      </trkpt>
      <trkpt lat="42.4112430" lon="-2.4665080">
        <ele>460.9</ele>
        <time>2022-08-13T07:00:50Z</time>
      </trkpt>
      <trkpt lat="42.4111980" lon="-2.4664860">
        <ele>460.9</ele>
        <time>2022-08-13T07:00:51Z</time>
      </trkpt>
      <trkpt lat="42.4111610" lon="-2.4664690">
        <ele>461.0</ele>
        <time>2022-08-13T07:00:52Z</time>
      </trkpt>
      <trkpt lat="42.4109690" lon="-2.4663710">
        <ele>461.1</ele>
        <time>2022-08-13T07:00:57Z</time>
      </trkpt>
      <trkpt lat="42.4109320" lon="-2.4663500">
        <ele>461.1</ele>
        <time>2022-08-13T07:00:58Z</time>
      </trkpt>
      <trkpt lat="42.4106180" lon="-2.4662210">
        <ele>461.5</ele>
        <time>2022-08-13T07:01:06Z</time>
      </trkpt>
      <trkpt lat="42.4104960" lon="-2.4661980">
        <ele>461.7</ele>
        <time>2022-08-13T07:01:09Z</time>
      </trkpt>
      <trkpt lat="42.4101930" lon="-2.4661560">
        <ele>462.2</ele>
        <time>2022-08-13T07:01:17Z</time>
      </trkpt>
      <trkpt lat="42.4100770" lon="-2.4661450">
        <ele>462.3</ele>
        <time>2022-08-13T07:01:20Z</time>
      </trkpt>
      <trkpt lat="42.4099130" lon="-2.4661600">
        <ele>462.2</ele>
        <time>2022-08-13T07:01:24Z</time>
      </trkpt>
      <trkpt lat="42.4096970" lon="-2.4662160">
        <ele>462.1</ele>
        <time>2022-08-13T07:01:29Z</time>
      </trkpt>
      <trkpt lat="42.4095590" lon="-2.4662650">
        <ele>462.1</ele>
        <time>2022-08-13T07:01:32Z</time>
      </trkpt>
      <trkpt lat="42.4093420" lon="-2.4663910">
        <ele>462.1</ele>
        <time>2022-08-13T07:01:37Z</time>
      </trkpt>
      <trkpt lat="42.4092550" lon="-2.4664600">
        <ele>462.2</ele>
        <time>2022-08-13T07:01:39Z</time>
      </trkpt>
      <trkpt lat="42.4088860" lon="-2.4667430">
        <ele>462.3</ele>
        <time>2022-08-13T07:01:48Z</time>
      </trkpt>
      <trkpt lat="42.4086370" lon="-2.4670380">
        <ele>462.6</ele>
        <time>2022-08-13T07:01:55Z</time>
      </trkpt>
      <trkpt lat="42.4083550" lon="-2.4674430">
        <ele>463.2</ele>
        <time>2022-08-13T07:02:04Z</time>
      </trkpt>
      <trkpt lat="42.4080570" lon="-2.4678420">
        <ele>463.9</ele>
        <time>2022-08-13T07:02:13Z</time>
      </trkpt>
      <trkpt lat="42.4079820" lon="-2.4679780">
        <ele>464.2</ele>
        <time>2022-08-13T07:02:16Z</time>
      </trkpt>
      <trkpt lat="42.4079330" lon="-2.4680650">
        <ele>464.4</ele>
        <time>2022-08-13T07:02:18Z</time>
      </trkpt>
      <trkpt lat="42.4078480" lon="-2.4682500">
        <ele>464.8</ele>
        <time>2022-08-13T07:02:22Z</time>
      </trkpt>
      <trkpt lat="42.4078280" lon="-2.4682960">
        <ele>464.9</ele>
        <time>2022-08-13T07:02:23Z</time>
      </trkpt>
      <trkpt lat="42.4077350" lon="-2.4684780">
        <ele>465.2</ele>
        <time>2022-08-13T07:02:27Z</time>
      </trkpt>
      <trkpt lat="42.4076370" lon="-2.4686600">
        <ele>465.6</ele>
        <time>2022-08-13T07:02:31Z</time>
      </trkpt>
      <trkpt lat="42.4074400" lon="-2.4689900">
        <ele>466.2</ele>
        <time>2022-08-13T07:02:38Z</time>
      </trkpt>
      <trkpt lat="42.4074130" lon="-2.4690320">
        <ele>466.3</ele>
        <time>2022-08-13T07:02:39Z</time>
      </trkpt>
      <trkpt lat="42.4073820" lon="-2.4690730">
        <ele>466.4</ele>
        <time>2022-08-13T07:02:40Z</time>
      </trkpt>
      <trkpt lat="42.4071870" lon="-2.4692760">
        <ele>467.0</ele>
        <time>2022-08-13T07:02:46Z</time>
      </trkpt>
      <trkpt lat="42.4071440" lon="-2.4693130">
        <ele>467.1</ele>
        <time>2022-08-13T07:02:47Z</time>
      </trkpt>
      <trkpt lat="42.4070050" lon="-2.4694500">
        <ele>467.6</ele>
        <time>2022-08-13T07:02:51Z</time>
      </trkpt>
      <trkpt lat="42.4069740" lon="-2.4694860">
        <ele>467.7</ele>
        <time>2022-08-13T07:02:52Z</time>
      </trkpt>
      <trkpt lat="42.4068500" lon="-2.4696450">
        <ele>468.0</ele>
        <time>2022-08-13T07:02:56Z</time>
      </trkpt>
      <trkpt lat="42.4067330" lon="-2.4698020">
        <ele>468.4</ele>
        <time>2022-08-13T07:03:00Z</time>
      </trkpt>
      <trkpt lat="42.4067030" lon="-2.4698450">
        <ele>468.5</ele>
        <time>2022-08-13T07:03:01Z</time>
      </trkpt>
      <trkpt lat="42.4065830" lon="-2.4700100">
        <ele>468.8</ele>
        <time>2022-08-13T07:03:05Z</time>
      </trkpt>
      <trkpt lat="42.4064030" lon="-2.4702540">
        <ele>469.3</ele>
        <time>2022-08-13T07:03:11Z</time>
      </trkpt>
      <trkpt lat="42.4063150" lon="-2.4703890">
        <ele>469.5</ele>
        <time>2022-08-13T07:03:14Z</time>
      </trkpt>
      <trkpt lat="42.4060260" lon="-2.4707830">
        <ele>469.9</ele>
        <time>2022-08-13T07:03:23Z</time>
      </trkpt>
      <trkpt lat="42.4059970" lon="-2.4708160">
        <ele>470.0</ele>
        <time>2022-08-13T07:03:24Z</time>
      </trkpt>
      <trkpt lat="42.4058230" lon="-2.4710350">
        <ele>469.9</ele>
        <time>2022-08-13T07:03:29Z</time>
      </trkpt>
      <trkpt lat="42.4057170" lon="-2.4711880">
        <ele>469.7</ele>
        <time>2022-08-13T07:03:32Z</time>
      </trkpt>
      <trkpt lat="42.4056510" lon="-2.4712870">
        <ele>469.6</ele>
        <time>2022-08-13T07:03:34Z</time>
      </trkpt>
      <trkpt lat="42.4055170" lon="-2.4714860">
        <ele>469.4</ele>
        <time>2022-08-13T07:03:38Z</time>
      </trkpt>
      <trkpt lat="42.4054840" lon="-2.4715260">
        <ele>469.3</ele>
        <time>2022-08-13T07:03:39Z</time>
      </trkpt>
      <trkpt lat="42.4054520" lon="-2.4715710">
        <ele>469.3</ele>
        <time>2022-08-13T07:03:40Z</time>
      </trkpt>
      <trkpt lat="42.4052830" lon="-2.4718200">
        <ele>469.0</ele>
        <time>2022-08-13T07:03:45Z</time>
      </trkpt>
      <trkpt lat="42.4051930" lon="-2.4719580">
        <ele>468.8</ele>
        <time>2022-08-13T07:03:48Z</time>
      </trkpt>
      <trkpt lat="42.4051190" lon="-2.4720730">
        <ele>468.7</ele>
        <time>2022-08-13T07:03:50Z</time>
      </trkpt>
      <trkpt lat="42.4050510" lon="-2.4721740">
        <ele>468.7</ele>
        <time>2022-08-13T07:03:52Z</time>
      </trkpt>
      <trkpt lat="42.4048890" lon="-2.4724260">
        <ele>468.6</ele>
        <time>2022-08-13T07:03:57Z</time>
      </trkpt>
      <trkpt lat="42.4047630" lon="-2.4726240">
        <ele>468.5</ele>
        <time>2022-08-13T07:04:01Z</time>
      </trkpt>
      <trkpt lat="42.4046430" lon="-2.4728220">
        <ele>468.5</ele>
        <time>2022-08-13T07:04:05Z</time>
      </trkpt>
      <trkpt lat="42.4044020" lon="-2.4732260">
        <ele>468.5</ele>
        <time>2022-08-13T07:04:13Z</time>
      </trkpt>
      <trkpt lat="42.4043690" lon="-2.4732750">
        <ele>468.5</ele>
        <time>2022-08-13T07:04:14Z</time>
      </trkpt>
      <trkpt lat="42.4041860" lon="-2.4735600">
        <ele>468.6</ele>
        <time>2022-08-13T07:04:20Z</time>
      </trkpt>
      <trkpt lat="42.4041160" lon="-2.4736510">
        <ele>468.6</ele>
        <time>2022-08-13T07:04:22Z</time>
      </trkpt>
      <trkpt lat="42.4040040" lon="-2.4737830">
        <ele>468.7</ele>
        <time>2022-08-13T07:04:25Z</time>
      </trkpt>
      <trkpt lat="42.4037620" lon="-2.4741020">
        <ele>468.9</ele>
        <time>2022-08-13T07:04:32Z</time>
      </trkpt>
      <trkpt lat="42.4036140" lon="-2.4743370">
        <ele>469.3</ele>
        <time>2022-08-13T07:04:37Z</time>
      </trkpt>
      <trkpt lat="42.4035580" lon="-2.4744260">
        <ele>469.5</ele>
        <time>2022-08-13T07:04:39Z</time>
      </trkpt>
      <trkpt lat="42.4034130" lon="-2.4746390">
        <ele>469.9</ele>
        <time>2022-08-13T07:04:44Z</time>
      </trkpt>
      <trkpt lat="42.4031270" lon="-2.4750210">
        <ele>470.9</ele>
        <time>2022-08-13T07:04:54Z</time>
      </trkpt>
      <trkpt lat="42.4030720" lon="-2.4750980">
        <ele>471.1</ele>
        <time>2022-08-13T07:04:56Z</time>
      </trkpt>
      <trkpt lat="42.4030440" lon="-2.4751310">
        <ele>471.3</ele>
        <time>2022-08-13T07:04:57Z</time>
      </trkpt>
      <trkpt lat="42.4030170" lon="-2.4751670">
        <ele>471.4</ele>
        <time>2022-08-13T07:04:58Z</time>
      </trkpt>
      <trkpt lat="42.4029390" lon="-2.4752800">
        <ele>471.6</ele>
        <time>2022-08-13T07:05:01Z</time>
      </trkpt>
      <trkpt lat="42.4027700" lon="-2.4755250">
        <ele>472.1</ele>
        <time>2022-08-13T07:05:07Z</time>
      </trkpt>
      <trkpt lat="42.4026490" lon="-2.4756870">
        <ele>472.5</ele>
        <time>2022-08-13T07:05:11Z</time>
      </trkpt>
      <trkpt lat="42.4025430" lon="-2.4758570">
        <ele>472.9</ele>
        <time>2022-08-13T07:05:15Z</time>
      </trkpt>
      <trkpt lat="42.4025170" lon="-2.4759020">
        <ele>473.0</ele>
        <time>2022-08-13T07:05:16Z</time>
      </trkpt>
      <trkpt lat="42.4024390" lon="-2.4760380">
        <ele>473.2</ele>
        <time>2022-08-13T07:05:19Z</time>
      </trkpt>
      <trkpt lat="42.4022770" lon="-2.4763810">
        <ele>473.4</ele>
        <time>2022-08-13T07:05:26Z</time>
      </trkpt>
      <trkpt lat="42.4022560" lon="-2.4764390">
        <ele>473.4</ele>
        <time>2022-08-13T07:05:27Z</time>
      </trkpt>
      <trkpt lat="42.4021170" lon="-2.4768730">
        <ele>473.4</ele>
        <time>2022-08-13T07:05:34Z</time>
      </trkpt>
      <trkpt lat="42.4020640" lon="-2.4771770">
        <ele>473.4</ele>
        <time>2022-08-13T07:05:39Z</time>
      </trkpt>
      <trkpt lat="42.4020340" lon="-2.4773420">
        <ele>473.5</ele>
        <time>2022-08-13T07:05:42Z</time>
      </trkpt>
      <trkpt lat="42.4019710" lon="-2.4774970">
        <ele>473.5</ele>
        <time>2022-08-13T07:05:45Z</time>
      </trkpt>
      <trkpt lat="42.4019010" lon="-2.4776400">
        <ele>473.5</ele>
        <time>2022-08-13T07:05:48Z</time>
      </trkpt>
      <trkpt lat="42.4016660" lon="-2.4783210">
        <ele>473.7</ele>
        <time>2022-08-13T07:06:00Z</time>
      </trkpt>
      <trkpt lat="42.4015080" lon="-2.4787610">
        <ele>474.2</ele>
        <time>2022-08-13T07:06:08Z</time>
      </trkpt>
      <trkpt lat="42.4012910" lon="-2.4793580">
        <ele>474.9</ele>
        <time>2022-08-13T07:06:19Z</time>
      </trkpt>
      <trkpt lat="42.4012690" lon="-2.4794090">
        <ele>474.9</ele>
        <time>2022-08-13T07:06:20Z</time>
      </trkpt>
      <trkpt lat="42.4010590" lon="-2.4798580">
        <ele>475.6</ele>
        <time>2022-08-13T07:06:29Z</time>
      </trkpt>
      <trkpt lat="42.4009630" lon="-2.4800520">
        <ele>475.9</ele>
        <time>2022-08-13T07:06:33Z</time>
      </trkpt>
      <trkpt lat="42.4008870" lon="-2.4801900">
        <ele>476.1</ele>
        <time>2022-08-13T07:06:36Z</time>
      </trkpt>
      <trkpt lat="42.4008310" lon="-2.4802720">
        <ele>476.2</ele>
        <time>2022-08-13T07:06:38Z</time>
      </trkpt>
      <trkpt lat="42.4006830" lon="-2.4805390">
        <ele>476.0</ele>
        <time>2022-08-13T07:06:44Z</time>
      </trkpt>
      <trkpt lat="42.4006310" lon="-2.4806510">
        <ele>475.8</ele>
        <time>2022-08-13T07:06:46Z</time>
      </trkpt>
      <trkpt lat="42.4005550" lon="-2.4808120">
        <ele>475.5</ele>
        <time>2022-08-13T07:06:49Z</time>
      </trkpt>
      <trkpt lat="42.4004930" lon="-2.4809440">
        <ele>475.3</ele>
        <time>2022-08-13T07:06:51Z</time>
      </trkpt>
      <trkpt lat="42.4004390" lon="-2.4810660">
        <ele>475.1</ele>
        <time>2022-08-13T07:06:53Z</time>
      </trkpt>
      <trkpt lat="42.4004100" lon="-2.4811280">
        <ele>475.0</ele>
        <time>2022-08-13T07:06:54Z</time>
      </trkpt>
      <trkpt lat="42.4003590" lon="-2.4812580">
        <ele>474.8</ele>
        <time>2022-08-13T07:06:56Z</time>
      </trkpt>
      <trkpt lat="42.4002970" lon="-2.4814590">
        <ele>474.7</ele>
        <time>2022-08-13T07:06:59Z</time>
      </trkpt>
      <trkpt lat="42.4002540" lon="-2.4816010">
        <ele>474.7</ele>
        <time>2022-08-13T07:07:01Z</time>
      </trkpt>
      <trkpt lat="42.4001680" lon="-2.4818540">
        <ele>474.7</ele>
        <time>2022-08-13T07:07:05Z</time>
      </trkpt>
      <trkpt lat="42.4001250" lon="-2.4819700">
        <ele>474.7</ele>
        <time>2022-08-13T07:07:07Z</time>
      </trkpt>
      <trkpt lat="42.4001020" lon="-2.4820280">
        <ele>474.7</ele>
        <time>2022-08-13T07:07:08Z</time>
      </trkpt>
      <trkpt lat="42.4000790" lon="-2.4820820">
        <ele>474.8</ele>
        <time>2022-08-13T07:07:09Z</time>
      </trkpt>
      <trkpt lat="42.4000560" lon="-2.4821370">
        <ele>474.8</ele>
        <time>2022-08-13T07:07:10Z</time>
      </trkpt>
      <trkpt lat="42.3999200" lon="-2.4825230">
        <ele>475.1</ele>
        <time>2022-08-13T07:07:17Z</time>
      </trkpt>
      <trkpt lat="42.3997810" lon="-2.4828800">
        <ele>475.4</ele>
        <time>2022-08-13T07:07:24Z</time>
      </trkpt>
      <trkpt lat="42.3997310" lon="-2.4829930">
        <ele>475.4</ele>
        <time>2022-08-13T07:07:26Z</time>
      </trkpt>
      <trkpt lat="42.3997070" lon="-2.4830440">
        <ele>475.5</ele>
        <time>2022-08-13T07:07:27Z</time>
      </trkpt>
      <trkpt lat="42.3995450" lon="-2.4833180">
        <ele>475.5</ele>
        <time>2022-08-13T07:07:33Z</time>
      </trkpt>
      <trkpt lat="42.3994840" lon="-2.4834200">
        <ele>475.6</ele>
        <time>2022-08-13T07:07:35Z</time>
      </trkpt>
      <trkpt lat="42.3993460" lon="-2.4836430">
        <ele>475.7</ele>
        <time>2022-08-13T07:07:40Z</time>
      </trkpt>
      <trkpt lat="42.3993230" lon="-2.4836790">
        <ele>475.7</ele>
        <time>2022-08-13T07:07:41Z</time>
      </trkpt>
      <trkpt lat="42.3992920" lon="-2.4837310">
        <ele>475.7</ele>
        <time>2022-08-13T07:07:42Z</time>
      </trkpt>
      <trkpt lat="42.3992350" lon="-2.4838210">
        <ele>475.8</ele>
        <time>2022-08-13T07:07:44Z</time>
      </trkpt>
      <trkpt lat="42.3992100" lon="-2.4838660">
        <ele>475.8</ele>
        <time>2022-08-13T07:07:45Z</time>
      </trkpt>
      <trkpt lat="42.3991580" lon="-2.4839560">
        <ele>475.9</ele>
        <time>2022-08-13T07:07:47Z</time>
      </trkpt>
      <trkpt lat="42.3989950" lon="-2.4842210">
        <ele>476.0</ele>
        <time>2022-08-13T07:07:53Z</time>
      </trkpt>
      <trkpt lat="42.3988690" lon="-2.4844300">
        <ele>476.2</ele>
        <time>2022-08-13T07:07:58Z</time>
      </trkpt>
      <trkpt lat="42.3988160" lon="-2.4845010">
        <ele>476.2</ele>
        <time>2022-08-13T07:08:00Z</time>
      </trkpt>
      <trkpt lat="42.3986520" lon="-2.4846570">
        <ele>477.2</ele>
        <time>2022-08-13T07:08:06Z</time>
      </trkpt>
      <trkpt lat="42.3986260" lon="-2.4846850">
        <ele>477.4</ele>
        <time>2022-08-13T07:08:07Z</time>
      </trkpt>
      <trkpt lat="42.3985010" lon="-2.4848080">
        <ele>478.7</ele>
        <time>2022-08-13T07:08:12Z</time>
      </trkpt>
      <trkpt lat="42.3984170" lon="-2.4849100">
        <ele>479.8</ele>
        <time>2022-08-13T07:08:16Z</time>
      </trkpt>
      <trkpt lat="42.3983560" lon="-2.4849860">
        <ele>480.7</ele>
        <time>2022-08-13T07:08:19Z</time>
      </trkpt>
      <trkpt lat="42.3983190" lon="-2.4850340">
        <ele>481.2</ele>
        <time>2022-08-13T07:08:21Z</time>
      </trkpt>
      <trkpt lat="42.3982820" lon="-2.4850830">
        <ele>481.8</ele>
        <time>2022-08-13T07:08:23Z</time>
      </trkpt>
      <trkpt lat="42.3982650" lon="-2.4851070">
        <ele>482.1</ele>
        <time>2022-08-13T07:08:24Z</time>
      </trkpt>
      <trkpt lat="42.3982470" lon="-2.4851330">
        <ele>482.4</ele>
        <time>2022-08-13T07:08:25Z</time>
      </trkpt>
      <trkpt lat="42.3981950" lon="-2.4852000">
        <ele>483.2</ele>
        <time>2022-08-13T07:08:28Z</time>
      </trkpt>
      <trkpt lat="42.3981650" lon="-2.4852350">
        <ele>483.6</ele>
        <time>2022-08-13T07:08:30Z</time>
      </trkpt>
      <trkpt lat="42.3981230" lon="-2.4852850">
        <ele>484.3</ele>
        <time>2022-08-13T07:08:32Z</time>
      </trkpt>
      <trkpt lat="42.3980360" lon="-2.4854100">
        <ele>485.8</ele>
        <time>2022-08-13T07:08:37Z</time>
      </trkpt>
      <trkpt lat="42.3979660" lon="-2.4854960">
        <ele>487.1</ele>
        <time>2022-08-13T07:08:41Z</time>
      </trkpt>
      <trkpt lat="42.3978920" lon="-2.4855890">
        <ele>488.4</ele>
        <time>2022-08-13T07:08:45Z</time>
      </trkpt>
      <trkpt lat="42.3978460" lon="-2.4856530">
        <ele>489.3</ele>
        <time>2022-08-13T07:08:48Z</time>
      </trkpt>
      <trkpt lat="42.3978020" lon="-2.4857160">
        <ele>490.3</ele>
        <time>2022-08-13T07:08:51Z</time>
      </trkpt>
      <trkpt lat="42.3977910" lon="-2.4857300">
        <ele>490.5</ele>
        <time>2022-08-13T07:08:52Z</time>
      </trkpt>
      <trkpt lat="42.3977180" lon="-2.4858180">
        <ele>492.0</ele>
        <time>2022-08-13T07:08:57Z</time>
      </trkpt>
      <trkpt lat="42.3976780" lon="-2.4858730">
        <ele>492.9</ele>
        <time>2022-08-13T07:09:00Z</time>
      </trkpt>
      <trkpt lat="42.3976550" lon="-2.4859140">
        <ele>493.5</ele>
        <time>2022-08-13T07:09:02Z</time>
      </trkpt>
      <trkpt lat="42.3976010" lon="-2.4859940">
        <ele>494.7</ele>
        <time>2022-08-13T07:09:06Z</time>
      </trkpt>
      <trkpt lat="42.3975710" lon="-2.4860330">
        <ele>495.3</ele>
        <time>2022-08-13T07:09:08Z</time>
      </trkpt>
      <trkpt lat="42.3975330" lon="-2.4860900">
        <ele>496.1</ele>
        <time>2022-08-13T07:09:11Z</time>
      </trkpt>
      <trkpt lat="42.3974840" lon="-2.4861630">
        <ele>497.0</ele>
        <time>2022-08-13T07:09:15Z</time>
      </trkpt>
      <trkpt lat="42.3974720" lon="-2.4861790">
        <ele>497.2</ele>
        <time>2022-08-13T07:09:16Z</time>
      </trkpt>
      <trkpt lat="42.3974600" lon="-2.4861940">
        <ele>497.4</ele>
        <time>2022-08-13T07:09:17Z</time>
      </trkpt>
      <trkpt lat="42.3974060" lon="-2.4862690">
        <ele>498.3</ele>
        <time>2022-08-13T07:09:21Z</time>
      </trkpt>
      <trkpt lat="42.3973470" lon="-2.4863510">
        <ele>499.3</ele>
        <time>2022-08-13T07:09:26Z</time>
      </trkpt>
      <trkpt lat="42.3973350" lon="-2.4863670">
        <ele>499.5</ele>
        <time>2022-08-13T07:09:27Z</time>
      </trkpt>
      <trkpt lat="42.3972680" lon="-2.4864550">
        <ele>500.5</ele>
        <time>2022-08-13T07:09:32Z</time>
      </trkpt>
      <trkpt lat="42.3972220" lon="-2.4865240">
        <ele>501.4</ele>
        <time>2022-08-13T07:09:36Z</time>
      </trkpt>
      <trkpt lat="42.3971630" lon="-2.4866160">
        <ele>502.5</ele>
        <time>2022-08-13T07:09:41Z</time>
      </trkpt>
      <trkpt lat="42.3971310" lon="-2.4866570">
        <ele>503.0</ele>
        <time>2022-08-13T07:09:44Z</time>
      </trkpt>
      <trkpt lat="42.3970980" lon="-2.4867140">
        <ele>503.7</ele>
        <time>2022-08-13T07:09:47Z</time>
      </trkpt>
      <trkpt lat="42.3970560" lon="-2.4867820">
        <ele>504.6</ele>
        <time>2022-08-13T07:09:51Z</time>
      </trkpt>
      <trkpt lat="42.3970330" lon="-2.4868080">
        <ele>504.9</ele>
        <time>2022-08-13T07:09:53Z</time>
      </trkpt>
      <trkpt lat="42.3970090" lon="-2.4868400">
        <ele>505.4</ele>
        <time>2022-08-13T07:09:55Z</time>
      </trkpt>
      <trkpt lat="42.3969440" lon="-2.4869150">
        <ele>506.5</ele>
        <time>2022-08-13T07:10:00Z</time>
      </trkpt>
      <trkpt lat="42.3969320" lon="-2.4869240">
        <ele>506.6</ele>
        <time>2022-08-13T07:10:01Z</time>
      </trkpt>
      <trkpt lat="42.3968650" lon="-2.4869750">
        <ele>507.5</ele>
        <time>2022-08-13T07:10:05Z</time>
      </trkpt>
      <trkpt lat="42.3967790" lon="-2.4870240">
        <ele>508.6</ele>
        <time>2022-08-13T07:10:10Z</time>
      </trkpt>
      <trkpt lat="42.3967460" lon="-2.4870510">
        <ele>509.0</ele>
        <time>2022-08-13T07:10:12Z</time>
      </trkpt>
      <trkpt lat="42.3966470" lon="-2.4871430">
        <ele>510.5</ele>
        <time>2022-08-13T07:10:19Z</time>
      </trkpt>
      <trkpt lat="42.3966070" lon="-2.4871820">
        <ele>511.1</ele>
        <time>2022-08-13T07:10:22Z</time>
      </trkpt>
      <trkpt lat="42.3965720" lon="-2.4872810">
        <ele>512.0</ele>
        <time>2022-08-13T07:10:26Z</time>
      </trkpt>
      <trkpt lat="42.3965570" lon="-2.4873300">
        <ele>512.5</ele>
        <time>2022-08-13T07:10:28Z</time>
      </trkpt>
      <trkpt lat="42.3965150" lon="-2.4874000">
        <ele>513.3</ele>
        <time>2022-08-13T07:10:32Z</time>
      </trkpt>
      <trkpt lat="42.3964750" lon="-2.4874610">
        <ele>513.9</ele>
        <time>2022-08-13T07:10:35Z</time>
      </trkpt>
      <trkpt lat="42.3964560" lon="-2.4874990">
        <ele>514.2</ele>
        <time>2022-08-13T07:10:37Z</time>
      </trkpt>
      <trkpt lat="42.3964010" lon="-2.4875630">
        <ele>514.9</ele>
        <time>2022-08-13T07:10:41Z</time>
      </trkpt>
      <trkpt lat="42.3963820" lon="-2.4875780">
        <ele>515.1</ele>
        <time>2022-08-13T07:10:42Z</time>
      </trkpt>
      <trkpt lat="42.3963480" lon="-2.4876070">
        <ele>515.4</ele>
        <time>2022-08-13T07:10:44Z</time>
      </trkpt>
      <trkpt lat="42.3963130" lon="-2.4876570">
        <ele>515.7</ele>
        <time>2022-08-13T07:10:47Z</time>
      </trkpt>
      <trkpt lat="42.3962850" lon="-2.4877270">
        <ele>516.1</ele>
        <time>2022-08-13T07:10:50Z</time>
      </trkpt>
      <trkpt lat="42.3962800" lon="-2.4877520">
        <ele>516.2</ele>
        <time>2022-08-13T07:10:51Z</time>
      </trkpt>
      <trkpt lat="42.3962750" lon="-2.4878570">
        <ele>516.6</ele>
        <time>2022-08-13T07:10:55Z</time>
      </trkpt>
      <trkpt lat="42.3962720" lon="-2.4879410">
        <ele>517.1</ele>
        <time>2022-08-13T07:10:58Z</time>
      </trkpt>
      <trkpt lat="42.3962700" lon="-2.4880290">
        <ele>517.5</ele>
        <time>2022-08-13T07:11:01Z</time>
      </trkpt>
      <trkpt lat="42.3962530" lon="-2.4881950">
        <ele>518.6</ele>
        <time>2022-08-13T07:11:07Z</time>
      </trkpt>
      <trkpt lat="42.3962260" lon="-2.4883310">
        <ele>519.3</ele>
        <time>2022-08-13T07:11:12Z</time>
      </trkpt>
      <trkpt lat="42.3961800" lon="-2.4884340">
        <ele>519.9</ele>
        <time>2022-08-13T07:11:16Z</time>
      </trkpt>
      <trkpt lat="42.3961260" lon="-2.4885990">
        <ele>520.6</ele>
        <time>2022-08-13T07:11:22Z</time>
      </trkpt>
      <trkpt lat="42.3961170" lon="-2.4887950">
        <ele>521.5</ele>
        <time>2022-08-13T07:11:29Z</time>
      </trkpt>
      <trkpt lat="42.3961290" lon="-2.4888510">
        <ele>521.7</ele>
        <time>2022-08-13T07:11:31Z</time>
      </trkpt>
      <trkpt lat="42.3961740" lon="-2.4889910">
        <ele>522.4</ele>
        <time>2022-08-13T07:11:37Z</time>
      </trkpt>
      <trkpt lat="42.3961990" lon="-2.4890450">
        <ele>522.6</ele>
        <time>2022-08-13T07:11:40Z</time>
      </trkpt>
      <trkpt lat="42.3962270" lon="-2.4891510">
        <ele>523.0</ele>
        <time>2022-08-13T07:11:44Z</time>
      </trkpt>
      <trkpt lat="42.3962280" lon="-2.4892070">
        <ele>523.1</ele>
        <time>2022-08-13T07:11:46Z</time>
      </trkpt>
      <trkpt lat="42.3962210" lon="-2.4893170">
        <ele>523.5</ele>
        <time>2022-08-13T07:11:50Z</time>
      </trkpt>
      <trkpt lat="42.3962000" lon="-2.4894040">
        <ele>523.7</ele>
        <time>2022-08-13T07:11:53Z</time>
      </trkpt>
      <trkpt lat="42.3961700" lon="-2.4895210">
        <ele>524.1</ele>
        <time>2022-08-13T07:11:57Z</time>
      </trkpt>
      <trkpt lat="42.3961280" lon="-2.4896260">
        <ele>524.3</ele>
        <time>2022-08-13T07:12:01Z</time>
      </trkpt>
      <trkpt lat="42.3959970" lon="-2.4897120">
        <ele>524.8</ele>
        <time>2022-08-13T07:12:07Z</time>
      </trkpt>
      <trkpt lat="42.3958490" lon="-2.4897900">
        <ele>525.1</ele>
        <time>2022-08-13T07:12:14Z</time>
      </trkpt>
      <trkpt lat="42.3958350" lon="-2.4898030">
        <ele>525.1</ele>
        <time>2022-08-13T07:12:15Z</time>
      </trkpt>
      <trkpt lat="42.3957510" lon="-2.4899210">
        <ele>525.2</ele>
        <time>2022-08-13T07:12:21Z</time>
      </trkpt>
      <trkpt lat="42.3957060" lon="-2.4899790">
        <ele>525.2</ele>
        <time>2022-08-13T07:12:24Z</time>
      </trkpt>
      <trkpt lat="42.3956180" lon="-2.4900800">
        <ele>525.1</ele>
        <time>2022-08-13T07:12:29Z</time>
      </trkpt>
      <trkpt lat="42.3955880" lon="-2.4901260">
        <ele>525.1</ele>
        <time>2022-08-13T07:12:31Z</time>
      </trkpt>
      <trkpt lat="42.3955330" lon="-2.4902400">
        <ele>525.2</ele>
        <time>2022-08-13T07:12:35Z</time>
      </trkpt>
      <trkpt lat="42.3954730" lon="-2.4903860">
        <ele>525.3</ele>
        <time>2022-08-13T07:12:40Z</time>
      </trkpt>
      <trkpt lat="42.3954040" lon="-2.4906140">
        <ele>525.2</ele>
        <time>2022-08-13T07:12:46Z</time>
      </trkpt>
      <trkpt lat="42.3953880" lon="-2.4906580">
        <ele>525.2</ele>
        <time>2022-08-13T07:12:47Z</time>
      </trkpt>
      <trkpt lat="42.3953350" lon="-2.4908470">
        <ele>525.1</ele>
        <time>2022-08-13T07:12:51Z</time>
      </trkpt>
      <trkpt lat="42.3953220" lon="-2.4908960">
        <ele>525.0</ele>
        <time>2022-08-13T07:12:52Z</time>
      </trkpt>
      <trkpt lat="42.3952330" lon="-2.4911890">
        <ele>525.0</ele>
        <time>2022-08-13T07:12:58Z</time>
      </trkpt>
      <trkpt lat="42.3951910" lon="-2.4913380">
        <ele>524.9</ele>
        <time>2022-08-13T07:13:01Z</time>
      </trkpt>
      <trkpt lat="42.3951770" lon="-2.4913910">
        <ele>524.9</ele>
        <time>2022-08-13T07:13:02Z</time>
      </trkpt>
      <trkpt lat="42.3951540" lon="-2.4914950">
        <ele>524.9</ele>
        <time>2022-08-13T07:13:04Z</time>
      </trkpt>
      <trkpt lat="42.3951400" lon="-2.4915470">
        <ele>524.9</ele>
        <time>2022-08-13T07:13:05Z</time>
      </trkpt>
      <trkpt lat="42.3951230" lon="-2.4915980">
        <ele>524.9</ele>
        <time>2022-08-13T07:13:06Z</time>
      </trkpt>
      <trkpt lat="42.3950900" lon="-2.4917000">
        <ele>525.0</ele>
        <time>2022-08-13T07:13:08Z</time>
      </trkpt>
      <trkpt lat="42.3950570" lon="-2.4918020">
        <ele>525.0</ele>
        <time>2022-08-13T07:13:10Z</time>
      </trkpt>
      <trkpt lat="42.3950090" lon="-2.4919600">
        <ele>525.0</ele>
        <time>2022-08-13T07:13:13Z</time>
      </trkpt>
      <trkpt lat="42.3949380" lon="-2.4921540">
        <ele>525.1</ele>
        <time>2022-08-13T07:13:17Z</time>
      </trkpt>
      <trkpt lat="42.3949060" lon="-2.4922460">
        <ele>525.1</ele>
        <time>2022-08-13T07:13:19Z</time>
      </trkpt>
      <trkpt lat="42.3948550" lon="-2.4923900">
        <ele>525.1</ele>
        <time>2022-08-13T07:13:22Z</time>
      </trkpt>
      <trkpt lat="42.3948180" lon="-2.4924890">
        <ele>525.1</ele>
        <time>2022-08-13T07:13:24Z</time>
      </trkpt>
      <trkpt lat="42.3947570" lon="-2.4926260">
        <ele>525.1</ele>
        <time>2022-08-13T07:13:27Z</time>
      </trkpt>
      <trkpt lat="42.3946990" lon="-2.4927620">
        <ele>525.1</ele>
        <time>2022-08-13T07:13:30Z</time>
      </trkpt>
      <trkpt lat="42.3945890" lon="-2.4929560">
        <ele>525.2</ele>
        <time>2022-08-13T07:13:35Z</time>
      </trkpt>
      <trkpt lat="42.3943790" lon="-2.4932220">
        <ele>525.4</ele>
        <time>2022-08-13T07:13:42Z</time>
      </trkpt>
      <trkpt lat="42.3943130" lon="-2.4933040">
        <ele>525.5</ele>
        <time>2022-08-13T07:13:44Z</time>
      </trkpt>
      <trkpt lat="42.3939900" lon="-2.4937590">
        <ele>526.2</ele>
        <time>2022-08-13T07:13:55Z</time>
      </trkpt>
      <trkpt lat="42.3938070" lon="-2.4940810">
        <ele>526.7</ele>
        <time>2022-08-13T07:14:02Z</time>
      </trkpt>
      <trkpt lat="42.3936870" lon="-2.4942870">
        <ele>527.3</ele>
        <time>2022-08-13T07:14:07Z</time>
      </trkpt>
      <trkpt lat="42.3935740" lon="-2.4944500">
        <ele>528.0</ele>
        <time>2022-08-13T07:14:12Z</time>
      </trkpt>
      <trkpt lat="42.3935250" lon="-2.4945170">
        <ele>528.3</ele>
        <time>2022-08-13T07:14:14Z</time>
      </trkpt>
      <trkpt lat="42.3934330" lon="-2.4946670">
        <ele>528.8</ele>
        <time>2022-08-13T07:14:18Z</time>
      </trkpt>
      <trkpt lat="42.3933480" lon="-2.4948150">
        <ele>529.4</ele>
        <time>2022-08-13T07:14:22Z</time>
      </trkpt>
      <trkpt lat="42.3932830" lon="-2.4949350">
        <ele>529.8</ele>
        <time>2022-08-13T07:14:25Z</time>
      </trkpt>
      <trkpt lat="42.3931100" lon="-2.4953090">
        <ele>530.5</ele>
        <time>2022-08-13T07:14:33Z</time>
      </trkpt>
      <trkpt lat="42.3930880" lon="-2.4953600">
        <ele>530.6</ele>
        <time>2022-08-13T07:14:34Z</time>
      </trkpt>
      <trkpt lat="42.3928650" lon="-2.4958490">
        <ele>531.1</ele>
        <time>2022-08-13T07:14:44Z</time>
      </trkpt>
      <trkpt lat="42.3926610" lon="-2.4962340">
        <ele>531.4</ele>
        <time>2022-08-13T07:14:52Z</time>
      </trkpt>
      <trkpt lat="42.3926370" lon="-2.4962740">
        <ele>531.4</ele>
        <time>2022-08-13T07:14:53Z</time>
      </trkpt>
      <trkpt lat="42.3923760" lon="-2.4967090">
        <ele>531.7</ele>
        <time>2022-08-13T07:15:02Z</time>
      </trkpt>
      <trkpt lat="42.3922020" lon="-2.4970590">
        <ele>531.9</ele>
        <time>2022-08-13T07:15:09Z</time>
      </trkpt>
      <trkpt lat="42.3921860" lon="-2.4971010">
        <ele>531.9</ele>
        <time>2022-08-13T07:15:10Z</time>
      </trkpt>
      <trkpt lat="42.3921400" lon="-2.4972200">
        <ele>531.9</ele>
        <time>2022-08-13T07:15:12Z</time>
      </trkpt>
      <trkpt lat="42.3920360" lon="-2.4974930">
        <ele>531.9</ele>
        <time>2022-08-13T07:15:17Z</time>
      </trkpt>
      <trkpt lat="42.3919840" lon="-2.4975910">
        <ele>531.9</ele>
        <time>2022-08-13T07:15:19Z</time>
      </trkpt>
      <trkpt lat="42.3918200" lon="-2.4978080">
        <ele>531.9</ele>
        <time>2022-08-13T07:15:24Z</time>
      </trkpt>
      <trkpt lat="42.3917430" lon="-2.4978840">
        <ele>531.8</ele>
        <time>2022-08-13T07:15:26Z</time>
      </trkpt>
      <trkpt lat="42.3913890" lon="-2.4982730">
        <ele>531.5</ele>
        <time>2022-08-13T07:15:35Z</time>
      </trkpt>
      <trkpt lat="42.3913500" lon="-2.4983150">
        <ele>531.5</ele>
        <time>2022-08-13T07:15:36Z</time>
      </trkpt>
      <trkpt lat="42.3912750" lon="-2.4983950">
        <ele>531.5</ele>
        <time>2022-08-13T07:15:38Z</time>
      </trkpt>
      <trkpt lat="42.3910530" lon="-2.4986550">
        <ele>531.5</ele>
        <time>2022-08-13T07:15:44Z</time>
      </trkpt>
      <trkpt lat="42.3907460" lon="-2.4990310">
        <ele>531.8</ele>
        <time>2022-08-13T07:15:53Z</time>
      </trkpt>
      <trkpt lat="42.3904380" lon="-2.4994540">
        <ele>532.1</ele>
        <time>2022-08-13T07:16:02Z</time>
      </trkpt>
      <trkpt lat="42.3900610" lon="-2.4999840">
        <ele>532.4</ele>
        <time>2022-08-13T07:16:14Z</time>
      </trkpt>
      <trkpt lat="42.3898640" lon="-2.5002150">
        <ele>532.7</ele>
        <time>2022-08-13T07:16:20Z</time>
      </trkpt>
      <trkpt lat="42.3897560" lon="-2.5003300">
        <ele>532.8</ele>
        <time>2022-08-13T07:16:23Z</time>
      </trkpt>
      <trkpt lat="42.3896230" lon="-2.5004860">
        <ele>533.0</ele>
        <time>2022-08-13T07:16:27Z</time>
      </trkpt>
      <trkpt lat="42.3895460" lon="-2.5006260">
        <ele>533.0</ele>
        <time>2022-08-13T07:16:30Z</time>
      </trkpt>
      <trkpt lat="42.3894770" lon="-2.5007790">
        <ele>533.1</ele>
        <time>2022-08-13T07:16:33Z</time>
      </trkpt>
      <trkpt lat="42.3893120" lon="-2.5011480">
        <ele>533.3</ele>
        <time>2022-08-13T07:16:40Z</time>
      </trkpt>
      <trkpt lat="42.3891180" lon="-2.5015400">
        <ele>533.6</ele>
        <time>2022-08-13T07:16:48Z</time>
      </trkpt>
      <trkpt lat="42.3889100" lon="-2.5019100">
        <ele>534.1</ele>
        <time>2022-08-13T07:16:56Z</time>
      </trkpt>
      <trkpt lat="42.3888220" lon="-2.5020340">
        <ele>534.3</ele>
        <time>2022-08-13T07:16:59Z</time>
      </trkpt>
      <trkpt lat="42.3887650" lon="-2.5021150">
        <ele>534.4</ele>
        <time>2022-08-13T07:17:01Z</time>
      </trkpt>
      <trkpt lat="42.3886740" lon="-2.5022440">
        <ele>534.6</ele>
        <time>2022-08-13T07:17:04Z</time>
      </trkpt>
      <trkpt lat="42.3884840" lon="-2.5025000">
        <ele>534.9</ele>
        <time>2022-08-13T07:17:10Z</time>
      </trkpt>
      <trkpt lat="42.3884530" lon="-2.5025410">
        <ele>534.9</ele>
        <time>2022-08-13T07:17:11Z</time>
      </trkpt>
      <trkpt lat="42.3883870" lon="-2.5026260">
        <ele>535.0</ele>
        <time>2022-08-13T07:17:13Z</time>
      </trkpt>
      <trkpt lat="42.3880050" lon="-2.5030040">
        <ele>535.4</ele>
        <time>2022-08-13T07:17:24Z</time>
      </trkpt>
      <trkpt lat="42.3878550" lon="-2.5031160">
        <ele>535.5</ele>
        <time>2022-08-13T07:17:28Z</time>
      </trkpt>
      <trkpt lat="42.3877890" lon="-2.5031980">
        <ele>535.5</ele>
        <time>2022-08-13T07:17:30Z</time>
      </trkpt>
      <trkpt lat="42.3877610" lon="-2.5032460">
        <ele>535.6</ele>
        <time>2022-08-13T07:17:31Z</time>
      </trkpt>
      <trkpt lat="42.3875240" lon="-2.5037040">
        <ele>535.6</ele>
        <time>2022-08-13T07:17:40Z</time>
      </trkpt>
      <trkpt lat="42.3872870" lon="-2.5041230">
        <ele>535.8</ele>
        <time>2022-08-13T07:17:49Z</time>
      </trkpt>
      <trkpt lat="42.3871590" lon="-2.5043580">
        <ele>536.0</ele>
        <time>2022-08-13T07:17:54Z</time>
      </trkpt>
      <trkpt lat="42.3870430" lon="-2.5045300">
        <ele>536.1</ele>
        <time>2022-08-13T07:17:58Z</time>
      </trkpt>
      <trkpt lat="42.3868430" lon="-2.5048590">
        <ele>536.3</ele>
        <time>2022-08-13T07:18:05Z</time>
      </trkpt>
      <trkpt lat="42.3865370" lon="-2.5052000">
        <ele>536.6</ele>
        <time>2022-08-13T07:18:14Z</time>
      </trkpt>
      <trkpt lat="42.3863300" lon="-2.5054450">
        <ele>537.0</ele>
        <time>2022-08-13T07:18:20Z</time>
      </trkpt>
      <trkpt lat="42.3861590" lon="-2.5056320">
        <ele>537.4</ele>
        <time>2022-08-13T07:18:25Z</time>
      </trkpt>
      <trkpt lat="42.3858740" lon="-2.5060050">
        <ele>538.0</ele>
        <time>2022-08-13T07:18:34Z</time>
      </trkpt>
      <trkpt lat="42.3857830" lon="-2.5061270">
        <ele>538.2</ele>
        <time>2022-08-13T07:18:37Z</time>
      </trkpt>
      <trkpt lat="42.3854790" lon="-2.5065400">
        <ele>539.1</ele>
        <time>2022-08-13T07:18:47Z</time>
      </trkpt>
      <trkpt lat="42.3854210" lon="-2.5066090">
        <ele>539.2</ele>
        <time>2022-08-13T07:18:49Z</time>
      </trkpt>
      <trkpt lat="42.3851330" lon="-2.5068160">
        <ele>539.9</ele>
        <time>2022-08-13T07:18:57Z</time>
      </trkpt>
      <trkpt lat="42.3850240" lon="-2.5068850">
        <ele>540.2</ele>
        <time>2022-08-13T07:19:00Z</time>
      </trkpt>
      <trkpt lat="42.3848460" lon="-2.5070090">
        <ele>540.8</ele>
        <time>2022-08-13T07:19:05Z</time>
      </trkpt>
      <trkpt lat="42.3847470" lon="-2.5070780">
        <ele>541.1</ele>
        <time>2022-08-13T07:19:08Z</time>
      </trkpt>
      <trkpt lat="42.3846090" lon="-2.5071770">
        <ele>541.6</ele>
        <time>2022-08-13T07:19:12Z</time>
      </trkpt>
      <trkpt lat="42.3843970" lon="-2.5073350">
        <ele>542.4</ele>
        <time>2022-08-13T07:19:18Z</time>
      </trkpt>
      <trkpt lat="42.3842610" lon="-2.5074340">
        <ele>542.9</ele>
        <time>2022-08-13T07:19:22Z</time>
      </trkpt>
      <trkpt lat="42.3841200" lon="-2.5075210">
        <ele>543.4</ele>
        <time>2022-08-13T07:19:26Z</time>
      </trkpt>
      <trkpt lat="42.3839850" lon="-2.5076150">
        <ele>543.9</ele>
        <time>2022-08-13T07:19:30Z</time>
      </trkpt>
      <trkpt lat="42.3838170" lon="-2.5077440">
        <ele>544.6</ele>
        <time>2022-08-13T07:19:35Z</time>
      </trkpt>
      <trkpt lat="42.3836820" lon="-2.5078400">
        <ele>545.1</ele>
        <time>2022-08-13T07:19:39Z</time>
      </trkpt>
      <trkpt lat="42.3835170" lon="-2.5079680">
        <ele>545.8</ele>
        <time>2022-08-13T07:19:44Z</time>
      </trkpt>
      <trkpt lat="42.3833820" lon="-2.5080450">
        <ele>546.4</ele>
        <time>2022-08-13T07:19:48Z</time>
      </trkpt>
      <trkpt lat="42.3832560" lon="-2.5081130">
        <ele>546.8</ele>
        <time>2022-08-13T07:19:52Z</time>
      </trkpt>
      <trkpt lat="42.3829970" lon="-2.5082740">
        <ele>547.6</ele>
        <time>2022-08-13T07:20:00Z</time>
      </trkpt>
      <trkpt lat="42.3828160" lon="-2.5083950">
        <ele>548.3</ele>
        <time>2022-08-13T07:20:06Z</time>
      </trkpt>
      <trkpt lat="42.3827180" lon="-2.5084530">
        <ele>548.7</ele>
        <time>2022-08-13T07:20:09Z</time>
      </trkpt>
      <trkpt lat="42.3826840" lon="-2.5084700">
        <ele>548.8</ele>
        <time>2022-08-13T07:20:10Z</time>
      </trkpt>
      <trkpt lat="42.3824660" lon="-2.5085810">
        <ele>549.6</ele>
        <time>2022-08-13T07:20:17Z</time>
      </trkpt>
      <trkpt lat="42.3824300" lon="-2.5086010">
        <ele>549.8</ele>
        <time>2022-08-13T07:20:18Z</time>
      </trkpt>
      <trkpt lat="42.3822460" lon="-2.5087310">
        <ele>550.6</ele>
        <time>2022-08-13T07:20:25Z</time>
      </trkpt>
      <trkpt lat="42.3821650" lon="-2.5088000">
        <ele>551.1</ele>
        <time>2022-08-13T07:20:28Z</time>
      </trkpt>
      <trkpt lat="42.3820720" lon="-2.5089030">
        <ele>551.6</ele>
        <time>2022-08-13T07:20:32Z</time>
      </trkpt>
      <trkpt lat="42.3820270" lon="-2.5089440">
        <ele>551.9</ele>
        <time>2022-08-13T07:20:34Z</time>
      </trkpt>
      <trkpt lat="42.3818390" lon="-2.5091060">
        <ele>552.8</ele>
        <time>2022-08-13T07:20:41Z</time>
      </trkpt>
      <trkpt lat="42.3817400" lon="-2.5091890">
        <ele>553.4</ele>
        <time>2022-08-13T07:20:45Z</time>
      </trkpt>
      <trkpt lat="42.3816620" lon="-2.5092490">
        <ele>553.8</ele>
        <time>2022-08-13T07:20:48Z</time>
      </trkpt>
      <trkpt lat="42.3814750" lon="-2.5093960">
        <ele>554.8</ele>
        <time>2022-08-13T07:20:56Z</time>
      </trkpt>
      <trkpt lat="42.3812110" lon="-2.5096170">
        <ele>556.3</ele>
        <time>2022-08-13T07:21:07Z</time>
      </trkpt>
      <trkpt lat="42.3811820" lon="-2.5096410">
        <ele>556.4</ele>
        <time>2022-08-13T07:21:08Z</time>
      </trkpt>
      <trkpt lat="42.3810450" lon="-2.5097590">
        <ele>557.2</ele>
        <time>2022-08-13T07:21:14Z</time>
      </trkpt>
      <trkpt lat="42.3809750" lon="-2.5098110">
        <ele>557.6</ele>
        <time>2022-08-13T07:21:17Z</time>
      </trkpt>
      <trkpt lat="42.3808390" lon="-2.5098950">
        <ele>558.3</ele>
        <time>2022-08-13T07:21:22Z</time>
      </trkpt>
      <trkpt lat="42.3807360" lon="-2.5099640">
        <ele>558.9</ele>
        <time>2022-08-13T07:21:26Z</time>
      </trkpt>
      <trkpt lat="42.3806090" lon="-2.5100400">
        <ele>559.6</ele>
        <time>2022-08-13T07:21:31Z</time>
      </trkpt>
      <trkpt lat="42.3804850" lon="-2.5101070">
        <ele>560.2</ele>
        <time>2022-08-13T07:21:36Z</time>
      </trkpt>
      <trkpt lat="42.3804580" lon="-2.5101230">
        <ele>560.4</ele>
        <time>2022-08-13T07:21:37Z</time>
      </trkpt>
      <trkpt lat="42.3802750" lon="-2.5102110">
        <ele>561.3</ele>
        <time>2022-08-13T07:21:44Z</time>
      </trkpt>
      <trkpt lat="42.3802210" lon="-2.5102420">
        <ele>561.6</ele>
        <time>2022-08-13T07:21:46Z</time>
      </trkpt>
      <trkpt lat="42.3800280" lon="-2.5103360">
        <ele>562.6</ele>
        <time>2022-08-13T07:21:53Z</time>
      </trkpt>
      <trkpt lat="42.3798880" lon="-2.5104070">
        <ele>563.4</ele>
        <time>2022-08-13T07:21:58Z</time>
      </trkpt>
      <trkpt lat="42.3797470" lon="-2.5104560">
        <ele>564.1</ele>
        <time>2022-08-13T07:22:03Z</time>
      </trkpt>
      <trkpt lat="42.3796110" lon="-2.5105180">
        <ele>564.8</ele>
        <time>2022-08-13T07:22:08Z</time>
      </trkpt>
      <trkpt lat="42.3795850" lon="-2.5105330">
        <ele>564.9</ele>
        <time>2022-08-13T07:22:09Z</time>
      </trkpt>
      <trkpt lat="42.3793790" lon="-2.5106690">
        <ele>565.9</ele>
        <time>2022-08-13T07:22:17Z</time>
      </trkpt>
      <trkpt lat="42.3793320" lon="-2.5107020">
        <ele>566.2</ele>
        <time>2022-08-13T07:22:19Z</time>
      </trkpt>
      <trkpt lat="42.3790720" lon="-2.5108340">
        <ele>567.3</ele>
        <time>2022-08-13T07:22:28Z</time>
      </trkpt>
      <trkpt lat="42.3788160" lon="-2.5109400">
        <ele>568.3</ele>
        <time>2022-08-13T07:22:37Z</time>
      </trkpt>
      <trkpt lat="42.3787570" lon="-2.5109570">
        <ele>568.5</ele>
        <time>2022-08-13T07:22:39Z</time>
      </trkpt>
      <trkpt lat="42.3785510" lon="-2.5110230">
        <ele>569.3</ele>
        <time>2022-08-13T07:22:46Z</time>
      </trkpt>
      <trkpt lat="42.3784360" lon="-2.5110560">
        <ele>569.7</ele>
        <time>2022-08-13T07:22:50Z</time>
      </trkpt>
      <trkpt lat="42.3781580" lon="-2.5111580">
        <ele>570.9</ele>
        <time>2022-08-13T07:23:00Z</time>
      </trkpt>
      <trkpt lat="42.3780990" lon="-2.5111740">
        <ele>571.1</ele>
        <time>2022-08-13T07:23:02Z</time>
      </trkpt>
      <trkpt lat="42.3779070" lon="-2.5111920">
        <ele>571.7</ele>
        <time>2022-08-13T07:23:09Z</time>
      </trkpt>
      <trkpt lat="42.3777650" lon="-2.5112010">
        <ele>572.0</ele>
        <time>2022-08-13T07:23:14Z</time>
      </trkpt>
      <trkpt lat="42.3776530" lon="-2.5112360">
        <ele>572.4</ele>
        <time>2022-08-13T07:23:18Z</time>
      </trkpt>
      <trkpt lat="42.3774370" lon="-2.5113340">
        <ele>573.6</ele>
        <time>2022-08-13T07:23:26Z</time>
      </trkpt>
      <trkpt lat="42.3773090" lon="-2.5113970">
        <ele>574.4</ele>
        <time>2022-08-13T07:23:31Z</time>
      </trkpt>
      <trkpt lat="42.3772840" lon="-2.5114100">
        <ele>574.5</ele>
        <time>2022-08-13T07:23:32Z</time>
      </trkpt>
      <trkpt lat="42.3771200" lon="-2.5115030">
        <ele>575.7</ele>
        <time>2022-08-13T07:23:39Z</time>
      </trkpt>
      <trkpt lat="42.3770940" lon="-2.5115170">
        <ele>575.9</ele>
        <time>2022-08-13T07:23:40Z</time>
      </trkpt>
      <trkpt lat="42.3769500" lon="-2.5115930">
        <ele>576.9</ele>
        <time>2022-08-13T07:23:46Z</time>
      </trkpt>
      <trkpt lat="42.3768430" lon="-2.5116570">
        <ele>577.6</ele>
        <time>2022-08-13T07:23:50Z</time>
      </trkpt>
      <trkpt lat="42.3767590" lon="-2.5117040">
        <ele>578.0</ele>
        <time>2022-08-13T07:23:53Z</time>
      </trkpt>
      <trkpt lat="42.3766390" lon="-2.5117780">
        <ele>578.7</ele>
        <time>2022-08-13T07:23:58Z</time>
      </trkpt>
      <trkpt lat="42.3764850" lon="-2.5118710">
        <ele>579.6</ele>
        <time>2022-08-13T07:24:04Z</time>
      </trkpt>
      <trkpt lat="42.3764210" lon="-2.5119240">
        <ele>580.1</ele>
        <time>2022-08-13T07:24:07Z</time>
      </trkpt>
      <trkpt lat="42.3763620" lon="-2.5119810">
        <ele>580.5</ele>
        <time>2022-08-13T07:24:10Z</time>
      </trkpt>
      <trkpt lat="42.3762650" lon="-2.5120680">
        <ele>581.3</ele>
        <time>2022-08-13T07:24:15Z</time>
      </trkpt>
      <trkpt lat="42.3761850" lon="-2.5121450">
        <ele>582.0</ele>
        <time>2022-08-13T07:24:19Z</time>
      </trkpt>
      <trkpt lat="42.3760600" lon="-2.5122270">
        <ele>583.0</ele>
        <time>2022-08-13T07:24:25Z</time>
      </trkpt>
      <trkpt lat="42.3758640" lon="-2.5123000">
        <ele>584.4</ele>
        <time>2022-08-13T07:24:33Z</time>
      </trkpt>
      <trkpt lat="42.3758160" lon="-2.5123120">
        <ele>584.8</ele>
        <time>2022-08-13T07:24:35Z</time>
      </trkpt>
      <trkpt lat="42.3757040" lon="-2.5123280">
        <ele>585.6</ele>
        <time>2022-08-13T07:24:40Z</time>
      </trkpt>
      <trkpt lat="42.3755630" lon="-2.5123510">
        <ele>586.6</ele>
        <time>2022-08-13T07:24:45Z</time>
      </trkpt>
      <trkpt lat="42.3753780" lon="-2.5124020">
        <ele>587.8</ele>
        <time>2022-08-13T07:24:52Z</time>
      </trkpt>
      <trkpt lat="42.3753010" lon="-2.5124100">
        <ele>588.2</ele>
        <time>2022-08-13T07:24:55Z</time>
      </trkpt>
      <trkpt lat="42.3751990" lon="-2.5124270">
        <ele>588.7</ele>
        <time>2022-08-13T07:24:59Z</time>
      </trkpt>
      <trkpt lat="42.3751190" lon="-2.5124370">
        <ele>589.1</ele>
        <time>2022-08-13T07:25:02Z</time>
      </trkpt>
      <trkpt lat="42.3748750" lon="-2.5124870">
        <ele>590.0</ele>
        <time>2022-08-13T07:25:11Z</time>
      </trkpt>
      <trkpt lat="42.3747900" lon="-2.5125180">
        <ele>590.4</ele>
        <time>2022-08-13T07:25:14Z</time>
      </trkpt>
      <trkpt lat="42.3747120" lon="-2.5125510">
        <ele>590.6</ele>
        <time>2022-08-13T07:25:17Z</time>
      </trkpt>
      <trkpt lat="42.3746110" lon="-2.5126050">
        <ele>591.0</ele>
        <time>2022-08-13T07:25:21Z</time>
      </trkpt>
      <trkpt lat="42.3744850" lon="-2.5126940">
        <ele>591.6</ele>
        <time>2022-08-13T07:25:27Z</time>
      </trkpt>
      <trkpt lat="42.3744470" lon="-2.5127270">
        <ele>591.7</ele>
        <time>2022-08-13T07:27:05Z</time>
      </trkpt>
      <trkpt lat="42.3743450" lon="-2.5127910">
        <ele>592.1</ele>
        <time>2022-08-13T07:27:09Z</time>
      </trkpt>
      <trkpt lat="42.3742630" lon="-2.5128290">
        <ele>592.4</ele>
        <time>2022-08-13T07:27:12Z</time>
      </trkpt>
      <trkpt lat="42.3741940" lon="-2.5128550">
        <ele>592.6</ele>
        <time>2022-08-13T07:27:15Z</time>
      </trkpt>
      <trkpt lat="42.3741200" lon="-2.5128760">
        <ele>592.8</ele>
        <time>2022-08-13T07:27:18Z</time>
      </trkpt>
      <trkpt lat="42.3739110" lon="-2.5129030">
        <ele>593.5</ele>
        <time>2022-08-13T07:27:26Z</time>
      </trkpt>
      <trkpt lat="42.3738850" lon="-2.5129090">
        <ele>593.6</ele>
        <time>2022-08-13T07:27:27Z</time>
      </trkpt>
      <trkpt lat="42.3737740" lon="-2.5129320">
        <ele>594.0</ele>
        <time>2022-08-13T07:27:31Z</time>
      </trkpt>
      <trkpt lat="42.3737190" lon="-2.5129420">
        <ele>594.2</ele>
        <time>2022-08-13T07:27:33Z</time>
      </trkpt>
      <trkpt lat="42.3736630" lon="-2.5129520">
        <ele>594.4</ele>
        <time>2022-08-13T07:27:35Z</time>
      </trkpt>
      <trkpt lat="42.3735830" lon="-2.5129700">
        <ele>594.7</ele>
        <time>2022-08-13T07:27:38Z</time>
      </trkpt>
      <trkpt lat="42.3734720" lon="-2.5130110">
        <ele>595.1</ele>
        <time>2022-08-13T07:27:42Z</time>
      </trkpt>
      <trkpt lat="42.3733870" lon="-2.5130380">
        <ele>595.5</ele>
        <time>2022-08-13T07:27:45Z</time>
      </trkpt>
      <trkpt lat="42.3733060" lon="-2.5130670">
        <ele>595.7</ele>
        <time>2022-08-13T07:27:48Z</time>
      </trkpt>
      <trkpt lat="42.3731380" lon="-2.5131430">
        <ele>596.3</ele>
        <time>2022-08-13T07:27:54Z</time>
      </trkpt>
      <trkpt lat="42.3731120" lon="-2.5131550">
        <ele>596.4</ele>
        <time>2022-08-13T07:27:55Z</time>
      </trkpt>
      <trkpt lat="42.3729810" lon="-2.5132220">
        <ele>596.9</ele>
        <time>2022-08-13T07:28:00Z</time>
      </trkpt>
      <trkpt lat="42.3728970" lon="-2.5132370">
        <ele>597.1</ele>
        <time>2022-08-13T07:28:03Z</time>
      </trkpt>
      <trkpt lat="42.3727160" lon="-2.5132390">
        <ele>597.6</ele>
        <time>2022-08-13T07:28:10Z</time>
      </trkpt>
      <trkpt lat="42.3726150" lon="-2.5133580">
        <ele>598.1</ele>
        <time>2022-08-13T07:28:15Z</time>
      </trkpt>
      <trkpt lat="42.3725240" lon="-2.5135700">
        <ele>598.7</ele>
        <time>2022-08-13T07:28:22Z</time>
      </trkpt>
      <trkpt lat="42.3724880" lon="-2.5136170">
        <ele>599.0</ele>
        <time>2022-08-13T07:28:24Z</time>
      </trkpt>
      <trkpt lat="42.3724170" lon="-2.5136550">
        <ele>599.3</ele>
        <time>2022-08-13T07:28:27Z</time>
      </trkpt>
      <trkpt lat="42.3722030" lon="-2.5137860">
        <ele>600.2</ele>
        <time>2022-08-13T07:28:36Z</time>
      </trkpt>
      <trkpt lat="42.3721790" lon="-2.5138020">
        <ele>600.4</ele>
        <time>2022-08-13T07:28:37Z</time>
      </trkpt>
      <trkpt lat="42.3721350" lon="-2.5138350">
        <ele>600.6</ele>
        <time>2022-08-13T07:28:39Z</time>
      </trkpt>
      <trkpt lat="42.3720880" lon="-2.5138680">
        <ele>600.8</ele>
        <time>2022-08-13T07:28:41Z</time>
      </trkpt>
      <trkpt lat="42.3719070" lon="-2.5139980">
        <ele>601.7</ele>
        <time>2022-08-13T07:28:49Z</time>
      </trkpt>
      <trkpt lat="42.3718620" lon="-2.5140400">
        <ele>601.9</ele>
        <time>2022-08-13T07:28:51Z</time>
      </trkpt>
      <trkpt lat="42.3717490" lon="-2.5141330">
        <ele>602.5</ele>
        <time>2022-08-13T07:28:56Z</time>
      </trkpt>
      <trkpt lat="42.3717060" lon="-2.5141680">
        <ele>602.7</ele>
        <time>2022-08-13T07:28:58Z</time>
      </trkpt>
      <trkpt lat="42.3716170" lon="-2.5142400">
        <ele>603.1</ele>
        <time>2022-08-13T07:29:02Z</time>
      </trkpt>
      <trkpt lat="42.3714700" lon="-2.5143390">
        <ele>603.7</ele>
        <time>2022-08-13T07:29:08Z</time>
      </trkpt>
      <trkpt lat="42.3714440" lon="-2.5143520">
        <ele>603.8</ele>
        <time>2022-08-13T07:29:09Z</time>
      </trkpt>
      <trkpt lat="42.3712610" lon="-2.5144570">
        <ele>604.4</ele>
        <time>2022-08-13T07:29:16Z</time>
      </trkpt>
      <trkpt lat="42.3711820" lon="-2.5144980">
        <ele>604.7</ele>
        <time>2022-08-13T07:29:19Z</time>
      </trkpt>
      <trkpt lat="42.3710110" lon="-2.5146110">
        <ele>605.3</ele>
        <time>2022-08-13T07:29:26Z</time>
      </trkpt>
      <trkpt lat="42.3708120" lon="-2.5147440">
        <ele>606.0</ele>
        <time>2022-08-13T07:29:34Z</time>
      </trkpt>
      <trkpt lat="42.3705480" lon="-2.5148930">
        <ele>606.9</ele>
        <time>2022-08-13T07:29:44Z</time>
      </trkpt>
      <trkpt lat="42.3703240" lon="-2.5149690">
        <ele>607.6</ele>
        <time>2022-08-13T07:29:52Z</time>
      </trkpt>
      <trkpt lat="42.3702420" lon="-2.5149860">
        <ele>607.9</ele>
        <time>2022-08-13T07:29:55Z</time>
      </trkpt>
      <trkpt lat="42.3700060" lon="-2.5150040">
        <ele>608.8</ele>
        <time>2022-08-13T07:30:04Z</time>
      </trkpt>
      <trkpt lat="42.3699000" lon="-2.5150180">
        <ele>609.2</ele>
        <time>2022-08-13T07:30:08Z</time>
      </trkpt>
      <trkpt lat="42.3696970" lon="-2.5150420">
        <ele>610.1</ele>
        <time>2022-08-13T07:30:16Z</time>
      </trkpt>
      <trkpt lat="42.3694310" lon="-2.5150640">
        <ele>611.1</ele>
        <time>2022-08-13T07:30:26Z</time>
      </trkpt>
      <trkpt lat="42.3693490" lon="-2.5150760">
        <ele>611.4</ele>
        <time>2022-08-13T07:30:29Z</time>
      </trkpt>
      <trkpt lat="42.3691280" lon="-2.5151420">
        <ele>612.1</ele>
        <time>2022-08-13T07:30:37Z</time>
      </trkpt>
      <trkpt lat="42.3690530" lon="-2.5151900">
        <ele>612.3</ele>
        <time>2022-08-13T07:30:40Z</time>
      </trkpt>
      <trkpt lat="42.3689380" lon="-2.5153020">
        <ele>612.6</ele>
        <time>2022-08-13T07:30:45Z</time>
      </trkpt>
      <trkpt lat="42.3687560" lon="-2.5154270">
        <ele>613.1</ele>
        <time>2022-08-13T07:30:52Z</time>
      </trkpt>
      <trkpt lat="42.3687230" lon="-2.5154330">
        <ele>613.2</ele>
        <time>2022-08-13T07:30:53Z</time>
      </trkpt>
      <trkpt lat="42.3684400" lon="-2.5154330">
        <ele>613.7</ele>
        <time>2022-08-13T07:31:02Z</time>
      </trkpt>
      <trkpt lat="42.3683260" lon="-2.5154080">
        <ele>613.9</ele>
        <time>2022-08-13T07:31:06Z</time>
      </trkpt>
      <trkpt lat="42.3680570" lon="-2.5153420">
        <ele>614.6</ele>
        <time>2022-08-13T07:31:15Z</time>
      </trkpt>
      <trkpt lat="42.3679990" lon="-2.5153240">
        <ele>614.7</ele>
        <time>2022-08-13T07:31:17Z</time>
      </trkpt>
      <trkpt lat="42.3677240" lon="-2.5152670">
        <ele>615.4</ele>
        <time>2022-08-13T07:31:26Z</time>
      </trkpt>
      <trkpt lat="42.3675050" lon="-2.5152710">
        <ele>615.8</ele>
        <time>2022-08-13T07:31:33Z</time>
      </trkpt>
      <trkpt lat="42.3674420" lon="-2.5152850">
        <ele>615.9</ele>
        <time>2022-08-13T07:31:35Z</time>
      </trkpt>
      <trkpt lat="42.3672820" lon="-2.5153320">
        <ele>616.2</ele>
        <time>2022-08-13T07:31:40Z</time>
      </trkpt>
      <trkpt lat="42.3671310" lon="-2.5154020">
        <ele>616.5</ele>
        <time>2022-08-13T07:31:45Z</time>
      </trkpt>
      <trkpt lat="42.3671000" lon="-2.5154150">
        <ele>616.6</ele>
        <time>2022-08-13T07:31:46Z</time>
      </trkpt>
      <trkpt lat="42.3669850" lon="-2.5154580">
        <ele>617.0</ele>
        <time>2022-08-13T07:31:51Z</time>
      </trkpt>
      <trkpt lat="42.3667870" lon="-2.5155530">
        <ele>617.5</ele>
        <time>2022-08-13T07:31:59Z</time>
      </trkpt>
      <trkpt lat="42.3666770" lon="-2.5156230">
        <ele>617.6</ele>
        <time>2022-08-13T07:32:03Z</time>
      </trkpt>
      <trkpt lat="42.3665880" lon="-2.5156730">
        <ele>617.7</ele>
        <time>2022-08-13T07:32:07Z</time>
      </trkpt>
      <trkpt lat="42.3665700" lon="-2.5156830">
        <ele>617.7</ele>
        <time>2022-08-13T07:32:08Z</time>
      </trkpt>
      <trkpt lat="42.3665410" lon="-2.5156910">
        <ele>617.8</ele>
        <time>2022-08-13T07:32:10Z</time>
      </trkpt>
      <trkpt lat="42.3665300" lon="-2.5156950">
        <ele>617.8</ele>
        <time>2022-08-13T07:32:11Z</time>
      </trkpt>
      <trkpt lat="42.3664690" lon="-2.5157340">
        <ele>617.9</ele>
        <time>2022-08-13T07:33:11Z</time>
      </trkpt>
      <trkpt lat="42.3664480" lon="-2.5157480">
        <ele>617.9</ele>
        <time>2022-08-13T07:33:12Z</time>
      </trkpt>
      <trkpt lat="42.3664070" lon="-2.5157750">
        <ele>618.0</ele>
        <time>2022-08-13T07:33:14Z</time>
      </trkpt>
      <trkpt lat="42.3663390" lon="-2.5158220">
        <ele>618.1</ele>
        <time>2022-08-13T07:33:17Z</time>
      </trkpt>
      <trkpt lat="42.3662920" lon="-2.5158540">
        <ele>618.2</ele>
        <time>2022-08-13T07:33:19Z</time>
      </trkpt>
      <trkpt lat="42.3661780" lon="-2.5159370">
        <ele>618.4</ele>
        <time>2022-08-13T07:33:24Z</time>
      </trkpt>
      <trkpt lat="42.3660790" lon="-2.5160100">
        <ele>618.5</ele>
        <time>2022-08-13T07:33:28Z</time>
      </trkpt>
      <trkpt lat="42.3660340" lon="-2.5160490">
        <ele>618.6</ele>
        <time>2022-08-13T07:33:30Z</time>
      </trkpt>
      <trkpt lat="42.3659370" lon="-2.5161180">
        <ele>618.8</ele>
        <time>2022-08-13T07:33:34Z</time>
      </trkpt>
      <trkpt lat="42.3658540" lon="-2.5161730">
        <ele>618.9</ele>
        <time>2022-08-13T07:33:37Z</time>
      </trkpt>
      <trkpt lat="42.3656100" lon="-2.5163490">
        <ele>619.4</ele>
        <time>2022-08-13T07:33:47Z</time>
      </trkpt>
      <trkpt lat="42.3655160" lon="-2.5164240">
        <ele>619.5</ele>
        <time>2022-08-13T07:33:51Z</time>
      </trkpt>
      <trkpt lat="42.3654180" lon="-2.5165050">
        <ele>619.7</ele>
        <time>2022-08-13T07:33:55Z</time>
      </trkpt>
      <trkpt lat="42.3651850" lon="-2.5167090">
        <ele>620.0</ele>
        <time>2022-08-13T07:34:04Z</time>
      </trkpt>
      <trkpt lat="42.3651300" lon="-2.5167550">
        <ele>620.1</ele>
        <time>2022-08-13T07:34:06Z</time>
      </trkpt>
      <trkpt lat="42.3649330" lon="-2.5169170">
        <ele>620.4</ele>
        <time>2022-08-13T07:34:13Z</time>
      </trkpt>
      <trkpt lat="42.3646420" lon="-2.5171360">
        <ele>620.8</ele>
        <time>2022-08-13T07:34:23Z</time>
      </trkpt>
      <trkpt lat="42.3644640" lon="-2.5172430">
        <ele>621.0</ele>
        <time>2022-08-13T07:34:29Z</time>
      </trkpt>
      <trkpt lat="42.3643420" lon="-2.5173060">
        <ele>621.1</ele>
        <time>2022-08-13T07:34:33Z</time>
      </trkpt>
      <trkpt lat="42.3642840" lon="-2.5173430">
        <ele>621.2</ele>
        <time>2022-08-13T07:34:35Z</time>
      </trkpt>
      <trkpt lat="42.3641970" lon="-2.5174040">
        <ele>621.3</ele>
        <time>2022-08-13T07:34:38Z</time>
      </trkpt>
      <trkpt lat="42.3640490" lon="-2.5175150">
        <ele>621.4</ele>
        <time>2022-08-13T07:34:43Z</time>
      </trkpt>
      <trkpt lat="42.3637870" lon="-2.5177010">
        <ele>621.7</ele>
        <time>2022-08-13T07:34:52Z</time>
      </trkpt>
      <trkpt lat="42.3636350" lon="-2.5177890">
        <ele>621.9</ele>
        <time>2022-08-13T07:34:57Z</time>
      </trkpt>
      <trkpt lat="42.3634910" lon="-2.5178600">
        <ele>622.2</ele>
        <time>2022-08-13T07:35:02Z</time>
      </trkpt>
      <trkpt lat="42.3631950" lon="-2.5180000">
        <ele>622.7</ele>
        <time>2022-08-13T07:35:11Z</time>
      </trkpt>
      <trkpt lat="42.3630640" lon="-2.5180590">
        <ele>622.9</ele>
        <time>2022-08-13T07:35:15Z</time>
      </trkpt>
      <trkpt lat="42.3629330" lon="-2.5181100">
        <ele>623.2</ele>
        <time>2022-08-13T07:35:19Z</time>
      </trkpt>
      <trkpt lat="42.3628020" lon="-2.5181660">
        <ele>623.5</ele>
        <time>2022-08-13T07:35:23Z</time>
      </trkpt>
      <trkpt lat="42.3625830" lon="-2.5182630">
        <ele>624.0</ele>
        <time>2022-08-13T07:35:30Z</time>
      </trkpt>
      <trkpt lat="42.3624550" lon="-2.5183060">
        <ele>624.4</ele>
        <time>2022-08-13T07:35:34Z</time>
      </trkpt>
      <trkpt lat="42.3622710" lon="-2.5183790">
        <ele>624.9</ele>
        <time>2022-08-13T07:35:40Z</time>
      </trkpt>
      <trkpt lat="42.3621540" lon="-2.5184260">
        <ele>625.3</ele>
        <time>2022-08-13T07:35:44Z</time>
      </trkpt>
      <trkpt lat="42.3621250" lon="-2.5184410">
        <ele>625.4</ele>
        <time>2022-08-13T07:35:45Z</time>
      </trkpt>
      <trkpt lat="42.3618880" lon="-2.5185490">
        <ele>626.1</ele>
        <time>2022-08-13T07:35:53Z</time>
      </trkpt>
      <trkpt lat="42.3617730" lon="-2.5186080">
        <ele>626.5</ele>
        <time>2022-08-13T07:35:57Z</time>
      </trkpt>
      <trkpt lat="42.3616970" lon="-2.5186480">
        <ele>626.7</ele>
        <time>2022-08-13T07:36:00Z</time>
      </trkpt>
      <trkpt lat="42.3615810" lon="-2.5186990">
        <ele>627.1</ele>
        <time>2022-08-13T07:36:04Z</time>
      </trkpt>
      <trkpt lat="42.3614660" lon="-2.5187490">
        <ele>627.5</ele>
        <time>2022-08-13T07:36:08Z</time>
      </trkpt>
      <trkpt lat="42.3611950" lon="-2.5188250">
        <ele>628.4</ele>
        <time>2022-08-13T07:36:17Z</time>
      </trkpt>
      <trkpt lat="42.3611550" lon="-2.5188310">
        <ele>628.5</ele>
        <time>2022-08-13T07:36:18Z</time>
      </trkpt>
      <trkpt lat="42.3609080" lon="-2.5188820">
        <ele>629.4</ele>
        <time>2022-08-13T07:36:27Z</time>
      </trkpt>
      <trkpt lat="42.3608860" lon="-2.5188950">
        <ele>629.5</ele>
        <time>2022-08-13T07:36:28Z</time>
      </trkpt>
      <trkpt lat="42.3607730" lon="-2.5189450">
        <ele>629.8</ele>
        <time>2022-08-13T07:36:32Z</time>
      </trkpt>
      <trkpt lat="42.3606860" lon="-2.5189890">
        <ele>630.1</ele>
        <time>2022-08-13T07:36:35Z</time>
      </trkpt>
      <trkpt lat="42.3605170" lon="-2.5190870">
        <ele>630.6</ele>
        <time>2022-08-13T07:36:41Z</time>
      </trkpt>
      <trkpt lat="42.3603820" lon="-2.5191640">
        <ele>631.1</ele>
        <time>2022-08-13T07:36:46Z</time>
      </trkpt>
      <trkpt lat="42.3602280" lon="-2.5192600">
        <ele>631.8</ele>
        <time>2022-08-13T07:36:52Z</time>
      </trkpt>
      <trkpt lat="42.3601030" lon="-2.5193340">
        <ele>632.4</ele>
        <time>2022-08-13T07:36:57Z</time>
      </trkpt>
      <trkpt lat="42.3600560" lon="-2.5193630">
        <ele>632.6</ele>
        <time>2022-08-13T07:36:59Z</time>
      </trkpt>
      <trkpt lat="42.3599060" lon="-2.5194390">
        <ele>633.4</ele>
        <time>2022-08-13T07:37:05Z</time>
      </trkpt>
      <trkpt lat="42.3598850" lon="-2.5194500">
        <ele>633.5</ele>
        <time>2022-08-13T07:37:06Z</time>
      </trkpt>
      <trkpt lat="42.3598130" lon="-2.5195000">
        <ele>633.9</ele>
        <time>2022-08-13T07:37:09Z</time>
      </trkpt>
      <trkpt lat="42.3597170" lon="-2.5195790">
        <ele>634.5</ele>
        <time>2022-08-13T07:37:13Z</time>
      </trkpt>
      <trkpt lat="42.3596240" lon="-2.5196540">
        <ele>635.1</ele>
        <time>2022-08-13T07:37:17Z</time>
      </trkpt>
      <trkpt lat="42.3594800" lon="-2.5197650">
        <ele>635.9</ele>
        <time>2022-08-13T07:37:23Z</time>
      </trkpt>
      <trkpt lat="42.3592690" lon="-2.5199250">
        <ele>637.1</ele>
        <time>2022-08-13T07:37:32Z</time>
      </trkpt>
      <trkpt lat="42.3592440" lon="-2.5199420">
        <ele>637.2</ele>
        <time>2022-08-13T07:37:33Z</time>
      </trkpt>
      <trkpt lat="42.3590790" lon="-2.5200680">
        <ele>638.1</ele>
        <time>2022-08-13T07:37:40Z</time>
      </trkpt>
      <trkpt lat="42.3590560" lon="-2.5200880">
        <ele>638.2</ele>
        <time>2022-08-13T07:37:41Z</time>
      </trkpt>
      <trkpt lat="42.3589230" lon="-2.5202000">
        <ele>638.9</ele>
        <time>2022-08-13T07:37:47Z</time>
      </trkpt>
      <trkpt lat="42.3588170" lon="-2.5202600">
        <ele>639.3</ele>
        <time>2022-08-13T07:37:51Z</time>
      </trkpt>
      <trkpt lat="42.3586770" lon="-2.5203510">
        <ele>639.8</ele>
        <time>2022-08-13T07:37:56Z</time>
      </trkpt>
      <trkpt lat="42.3584650" lon="-2.5205260">
        <ele>640.5</ele>
        <time>2022-08-13T07:38:05Z</time>
      </trkpt>
      <trkpt lat="42.3583180" lon="-2.5206690">
        <ele>641.1</ele>
        <time>2022-08-13T07:38:12Z</time>
      </trkpt>
      <trkpt lat="42.3583010" lon="-2.5206900">
        <ele>641.2</ele>
        <time>2022-08-13T07:38:13Z</time>
      </trkpt>
      <trkpt lat="42.3582810" lon="-2.5207140">
        <ele>641.4</ele>
        <time>2022-08-13T07:38:14Z</time>
      </trkpt>
      <trkpt lat="42.3581430" lon="-2.5208660">
        <ele>642.3</ele>
        <time>2022-08-13T07:38:21Z</time>
      </trkpt>
      <trkpt lat="42.3581240" lon="-2.5208870">
        <ele>642.4</ele>
        <time>2022-08-13T07:38:22Z</time>
      </trkpt>
      <trkpt lat="42.3579630" lon="-2.5210170">
        <ele>643.4</ele>
        <time>2022-08-13T07:38:29Z</time>
      </trkpt>
      <trkpt lat="42.3579390" lon="-2.5210340">
        <ele>643.5</ele>
        <time>2022-08-13T07:38:30Z</time>
      </trkpt>
      <trkpt lat="42.3577600" lon="-2.5211580">
        <ele>644.7</ele>
        <time>2022-08-13T07:38:38Z</time>
      </trkpt>
      <trkpt lat="42.3576140" lon="-2.5212680">
        <ele>645.6</ele>
        <time>2022-08-13T07:38:44Z</time>
      </trkpt>
      <trkpt lat="42.3575660" lon="-2.5213040">
        <ele>645.9</ele>
        <time>2022-08-13T07:38:46Z</time>
      </trkpt>
      <trkpt lat="42.3573760" lon="-2.5214400">
        <ele>647.0</ele>
        <time>2022-08-13T07:38:54Z</time>
      </trkpt>
      <trkpt lat="42.3573280" lon="-2.5214800">
        <ele>647.3</ele>
        <time>2022-08-13T07:38:56Z</time>
      </trkpt>
      <trkpt lat="42.3571100" lon="-2.5216280">
        <ele>648.4</ele>
        <time>2022-08-13T07:39:05Z</time>
      </trkpt>
      <trkpt lat="42.3570650" lon="-2.5216590">
        <ele>648.7</ele>
        <time>2022-08-13T07:39:07Z</time>
      </trkpt>
      <trkpt lat="42.3569250" lon="-2.5217410">
        <ele>649.5</ele>
        <time>2022-08-13T07:39:13Z</time>
      </trkpt>
      <trkpt lat="42.3568260" lon="-2.5217930">
        <ele>650.0</ele>
        <time>2022-08-13T07:39:17Z</time>
      </trkpt>
      <trkpt lat="42.3567760" lon="-2.5218180">
        <ele>650.3</ele>
        <time>2022-08-13T07:39:19Z</time>
      </trkpt>
      <trkpt lat="42.3566080" lon="-2.5219180">
        <ele>651.4</ele>
        <time>2022-08-13T07:39:26Z</time>
      </trkpt>
      <trkpt lat="42.3565400" lon="-2.5219700">
        <ele>651.8</ele>
        <time>2022-08-13T07:39:29Z</time>
      </trkpt>
      <trkpt lat="42.3564520" lon="-2.5220350">
        <ele>652.4</ele>
        <time>2022-08-13T07:39:33Z</time>
      </trkpt>
      <trkpt lat="42.3562950" lon="-2.5221590">
        <ele>653.2</ele>
        <time>2022-08-13T07:39:40Z</time>
      </trkpt>
      <trkpt lat="42.3562720" lon="-2.5221720">
        <ele>653.3</ele>
        <time>2022-08-13T07:39:41Z</time>
      </trkpt>
      <trkpt lat="42.3560880" lon="-2.5223230">
        <ele>654.3</ele>
        <time>2022-08-13T07:39:50Z</time>
      </trkpt>
      <trkpt lat="42.3560510" lon="-2.5223750">
        <ele>654.6</ele>
        <time>2022-08-13T07:39:52Z</time>
      </trkpt>
      <trkpt lat="42.3559420" lon="-2.5225650">
        <ele>655.4</ele>
        <time>2022-08-13T07:39:59Z</time>
      </trkpt>
      <trkpt lat="42.3558690" lon="-2.5227210">
        <ele>656.0</ele>
        <time>2022-08-13T07:40:04Z</time>
      </trkpt>
      <trkpt lat="42.3558240" lon="-2.5228120">
        <ele>656.4</ele>
        <time>2022-08-13T07:40:07Z</time>
      </trkpt>
      <trkpt lat="42.3557490" lon="-2.5229790">
        <ele>657.3</ele>
        <time>2022-08-13T07:40:13Z</time>
      </trkpt>
      <trkpt lat="42.3557150" lon="-2.5230580">
        <ele>657.7</ele>
        <time>2022-08-13T07:40:16Z</time>
      </trkpt>
      <trkpt lat="42.3556460" lon="-2.5232130">
        <ele>658.6</ele>
        <time>2022-08-13T07:40:22Z</time>
      </trkpt>
      <trkpt lat="42.3556210" lon="-2.5232640">
        <ele>658.9</ele>
        <time>2022-08-13T07:40:24Z</time>
      </trkpt>
      <trkpt lat="42.3555750" lon="-2.5233680">
        <ele>659.5</ele>
        <time>2022-08-13T07:40:28Z</time>
      </trkpt>
      <trkpt lat="42.3554970" lon="-2.5235250">
        <ele>660.6</ele>
        <time>2022-08-13T07:40:34Z</time>
      </trkpt>
      <trkpt lat="42.3554020" lon="-2.5237090">
        <ele>661.7</ele>
        <time>2022-08-13T07:40:41Z</time>
      </trkpt>
      <trkpt lat="42.3553790" lon="-2.5237650">
        <ele>662.1</ele>
        <time>2022-08-13T07:40:43Z</time>
      </trkpt>
      <trkpt lat="42.3553160" lon="-2.5239150">
        <ele>663.0</ele>
        <time>2022-08-13T07:40:49Z</time>
      </trkpt>
      <trkpt lat="42.3552650" lon="-2.5240130">
        <ele>663.6</ele>
        <time>2022-08-13T07:40:53Z</time>
      </trkpt>
      <trkpt lat="42.3552060" lon="-2.5241430">
        <ele>664.5</ele>
        <time>2022-08-13T07:40:58Z</time>
      </trkpt>
      <trkpt lat="42.3551850" lon="-2.5241900">
        <ele>664.8</ele>
        <time>2022-08-13T07:41:00Z</time>
      </trkpt>
      <trkpt lat="42.3551180" lon="-2.5243500">
        <ele>665.9</ele>
        <time>2022-08-13T07:41:06Z</time>
      </trkpt>
      <trkpt lat="42.3550860" lon="-2.5244180">
        <ele>666.4</ele>
        <time>2022-08-13T07:41:09Z</time>
      </trkpt>
      <trkpt lat="42.3550390" lon="-2.5245340">
        <ele>667.1</ele>
        <time>2022-08-13T07:41:14Z</time>
      </trkpt>
      <trkpt lat="42.3550160" lon="-2.5246010">
        <ele>667.5</ele>
        <time>2022-08-13T07:41:17Z</time>
      </trkpt>
      <trkpt lat="42.3549840" lon="-2.5246680">
        <ele>667.9</ele>
        <time>2022-08-13T07:41:20Z</time>
      </trkpt>
      <trkpt lat="42.3549200" lon="-2.5247960">
        <ele>668.7</ele>
        <time>2022-08-13T07:41:25Z</time>
      </trkpt>
      <trkpt lat="42.3548970" lon="-2.5248400">
        <ele>669.0</ele>
        <time>2022-08-13T07:41:27Z</time>
      </trkpt>
      <trkpt lat="42.3548040" lon="-2.5250330">
        <ele>670.0</ele>
        <time>2022-08-13T07:41:35Z</time>
      </trkpt>
      <trkpt lat="42.3547660" lon="-2.5251130">
        <ele>670.3</ele>
        <time>2022-08-13T07:41:38Z</time>
      </trkpt>
      <trkpt lat="42.3546840" lon="-2.5252710">
        <ele>671.0</ele>
        <time>2022-08-13T07:41:44Z</time>
      </trkpt>
      <trkpt lat="42.3546460" lon="-2.5253510">
        <ele>671.3</ele>
        <time>2022-08-13T07:41:47Z</time>
      </trkpt>
      <trkpt lat="42.3545290" lon="-2.5255830">
        <ele>672.2</ele>
        <time>2022-08-13T07:41:55Z</time>
      </trkpt>
      <trkpt lat="42.3544550" lon="-2.5257280">
        <ele>672.7</ele>
        <time>2022-08-13T07:42:00Z</time>
      </trkpt>
      <trkpt lat="42.3544100" lon="-2.5258330">
        <ele>673.0</ele>
        <time>2022-08-13T07:42:03Z</time>
      </trkpt>
      <trkpt lat="42.3543950" lon="-2.5258630">
        <ele>673.0</ele>
        <time>2022-08-13T07:42:04Z</time>
      </trkpt>
      <trkpt lat="42.3542720" lon="-2.5261230">
        <ele>673.6</ele>
        <time>2022-08-13T07:42:12Z</time>
      </trkpt>
      <trkpt lat="42.3542560" lon="-2.5261510">
        <ele>673.7</ele>
        <time>2022-08-13T07:42:13Z</time>
      </trkpt>
      <trkpt lat="42.3541820" lon="-2.5262890">
        <ele>674.0</ele>
        <time>2022-08-13T07:42:18Z</time>
      </trkpt>
      <trkpt lat="42.3541320" lon="-2.5263720">
        <ele>674.2</ele>
        <time>2022-08-13T07:42:21Z</time>
      </trkpt>
      <trkpt lat="42.3540740" lon="-2.5264930">
        <ele>674.4</ele>
        <time>2022-08-13T07:42:25Z</time>
      </trkpt>
      <trkpt lat="42.3540400" lon="-2.5265490">
        <ele>674.6</ele>
        <time>2022-08-13T07:42:27Z</time>
      </trkpt>
      <trkpt lat="42.3539700" lon="-2.5266550">
        <ele>674.9</ele>
        <time>2022-08-13T07:42:31Z</time>
      </trkpt>
      <trkpt lat="42.3539220" lon="-2.5267510">
        <ele>675.2</ele>
        <time>2022-08-13T07:42:34Z</time>
      </trkpt>
      <trkpt lat="42.3538860" lon="-2.5268670">
        <ele>675.5</ele>
        <time>2022-08-13T07:42:38Z</time>
      </trkpt>
      <trkpt lat="42.3538630" lon="-2.5269410">
        <ele>675.7</ele>
        <time>2022-08-13T07:42:41Z</time>
      </trkpt>
      <trkpt lat="42.3538120" lon="-2.5270340">
        <ele>675.9</ele>
        <time>2022-08-13T07:42:44Z</time>
      </trkpt>
      <trkpt lat="42.3537000" lon="-2.5272120">
        <ele>676.4</ele>
        <time>2022-08-13T07:42:50Z</time>
      </trkpt>
      <trkpt lat="42.3536670" lon="-2.5272770">
        <ele>676.5</ele>
        <time>2022-08-13T07:42:52Z</time>
      </trkpt>
      <trkpt lat="42.3534690" lon="-2.5276670">
        <ele>677.3</ele>
        <time>2022-08-13T07:43:03Z</time>
      </trkpt>
      <trkpt lat="42.3533750" lon="-2.5278640">
        <ele>677.9</ele>
        <time>2022-08-13T07:43:10Z</time>
      </trkpt>
      <trkpt lat="42.3533120" lon="-2.5279670">
        <ele>678.3</ele>
        <time>2022-08-13T07:43:15Z</time>
      </trkpt>
      <trkpt lat="42.3532670" lon="-2.5280080">
        <ele>678.4</ele>
        <time>2022-08-13T07:43:17Z</time>
      </trkpt>
      <trkpt lat="42.3531790" lon="-2.5280620">
        <ele>678.3</ele>
        <time>2022-08-13T07:43:20Z</time>
      </trkpt>
      <trkpt lat="42.3529300" lon="-2.5281160">
        <ele>677.9</ele>
        <time>2022-08-13T07:43:27Z</time>
      </trkpt>
      <trkpt lat="42.3528250" lon="-2.5281380">
        <ele>677.8</ele>
        <time>2022-08-13T07:43:30Z</time>
      </trkpt>
      <trkpt lat="42.3527540" lon="-2.5281520">
        <ele>677.8</ele>
        <time>2022-08-13T07:43:32Z</time>
      </trkpt>
      <trkpt lat="42.3525860" lon="-2.5281850">
        <ele>677.8</ele>
        <time>2022-08-13T07:43:37Z</time>
      </trkpt>
      <trkpt lat="42.3521850" lon="-2.5282840">
        <ele>678.3</ele>
        <time>2022-08-13T07:43:48Z</time>
      </trkpt>
      <trkpt lat="42.3521190" lon="-2.5283020">
        <ele>678.5</ele>
        <time>2022-08-13T07:43:50Z</time>
      </trkpt>
      <trkpt lat="42.3518510" lon="-2.5283880">
        <ele>679.5</ele>
        <time>2022-08-13T07:43:58Z</time>
      </trkpt>
      <trkpt lat="42.3517890" lon="-2.5284100">
        <ele>679.8</ele>
        <time>2022-08-13T07:44:00Z</time>
      </trkpt>
      <trkpt lat="42.3516950" lon="-2.5284450">
        <ele>680.3</ele>
        <time>2022-08-13T07:44:03Z</time>
      </trkpt>
      <trkpt lat="42.3515480" lon="-2.5284990">
        <ele>681.1</ele>
        <time>2022-08-13T07:44:08Z</time>
      </trkpt>
      <trkpt lat="42.3515200" lon="-2.5285090">
        <ele>681.3</ele>
        <time>2022-08-13T07:44:09Z</time>
      </trkpt>
      <trkpt lat="42.3513700" lon="-2.5285690">
        <ele>682.4</ele>
        <time>2022-08-13T07:44:14Z</time>
      </trkpt>
      <trkpt lat="42.3512260" lon="-2.5286240">
        <ele>683.5</ele>
        <time>2022-08-13T07:44:19Z</time>
      </trkpt>
      <trkpt lat="42.3511140" lon="-2.5286760">
        <ele>684.3</ele>
        <time>2022-08-13T07:44:23Z</time>
      </trkpt>
      <trkpt lat="42.3510880" lon="-2.5286840">
        <ele>684.5</ele>
        <time>2022-08-13T07:44:24Z</time>
      </trkpt>
      <trkpt lat="42.3510120" lon="-2.5287140">
        <ele>685.1</ele>
        <time>2022-08-13T07:44:27Z</time>
      </trkpt>
      <trkpt lat="42.3509060" lon="-2.5287590">
        <ele>685.9</ele>
        <time>2022-08-13T07:44:31Z</time>
      </trkpt>
      <trkpt lat="42.3508060" lon="-2.5287930">
        <ele>686.7</ele>
        <time>2022-08-13T07:44:35Z</time>
      </trkpt>
      <trkpt lat="42.3507760" lon="-2.5288030">
        <ele>686.9</ele>
        <time>2022-08-13T07:44:36Z</time>
      </trkpt>
      <trkpt lat="42.3507240" lon="-2.5288220">
        <ele>687.4</ele>
        <time>2022-08-13T07:44:38Z</time>
      </trkpt>
      <trkpt lat="42.3505670" lon="-2.5288830">
        <ele>688.6</ele>
        <time>2022-08-13T07:44:44Z</time>
      </trkpt>
      <trkpt lat="42.3505410" lon="-2.5288920">
        <ele>688.8</ele>
        <time>2022-08-13T07:44:45Z</time>
      </trkpt>
      <trkpt lat="42.3504910" lon="-2.5289090">
        <ele>689.1</ele>
        <time>2022-08-13T07:44:47Z</time>
      </trkpt>
      <trkpt lat="42.3504140" lon="-2.5289350">
        <ele>689.7</ele>
        <time>2022-08-13T07:44:50Z</time>
      </trkpt>
      <trkpt lat="42.3502570" lon="-2.5289820">
        <ele>690.7</ele>
        <time>2022-08-13T07:44:56Z</time>
      </trkpt>
      <trkpt lat="42.3502300" lon="-2.5289900">
        <ele>690.9</ele>
        <time>2022-08-13T07:44:57Z</time>
      </trkpt>
      <trkpt lat="42.3500550" lon="-2.5290370">
        <ele>692.0</ele>
        <time>2022-08-13T07:45:04Z</time>
      </trkpt>
      <trkpt lat="42.3500290" lon="-2.5290450">
        <ele>692.2</ele>
        <time>2022-08-13T07:45:05Z</time>
      </trkpt>
      <trkpt lat="42.3498690" lon="-2.5290890">
        <ele>693.1</ele>
        <time>2022-08-13T07:45:11Z</time>
      </trkpt>
      <trkpt lat="42.3497660" lon="-2.5291180">
        <ele>693.7</ele>
        <time>2022-08-13T07:45:15Z</time>
      </trkpt>
      <trkpt lat="42.3496460" lon="-2.5291480">
        <ele>694.4</ele>
        <time>2022-08-13T07:45:20Z</time>
      </trkpt>
      <trkpt lat="42.3494880" lon="-2.5291960">
        <ele>695.4</ele>
        <time>2022-08-13T07:45:26Z</time>
      </trkpt>
      <trkpt lat="42.3494660" lon="-2.5292000">
        <ele>695.5</ele>
        <time>2022-08-13T07:45:27Z</time>
      </trkpt>
      <trkpt lat="42.3492380" lon="-2.5292590">
        <ele>696.9</ele>
        <time>2022-08-13T07:45:36Z</time>
      </trkpt>
      <trkpt lat="42.3492120" lon="-2.5292660">
        <ele>697.0</ele>
        <time>2022-08-13T07:45:37Z</time>
      </trkpt>
      <trkpt lat="42.3489820" lon="-2.5293300">
        <ele>698.3</ele>
        <time>2022-08-13T07:45:46Z</time>
      </trkpt>
      <trkpt lat="42.3489550" lon="-2.5293370">
        <ele>698.5</ele>
        <time>2022-08-13T07:45:47Z</time>
      </trkpt>
      <trkpt lat="42.3488000" lon="-2.5293830">
        <ele>699.5</ele>
        <time>2022-08-13T07:45:53Z</time>
      </trkpt>
      <trkpt lat="42.3486720" lon="-2.5294160">
        <ele>700.2</ele>
        <time>2022-08-13T07:45:58Z</time>
      </trkpt>
      <trkpt lat="42.3486190" lon="-2.5294280">
        <ele>700.5</ele>
        <time>2022-08-13T07:46:00Z</time>
      </trkpt>
      <trkpt lat="42.3484870" lon="-2.5294640">
        <ele>701.2</ele>
        <time>2022-08-13T07:46:05Z</time>
      </trkpt>
      <trkpt lat="42.3484070" lon="-2.5294850">
        <ele>701.7</ele>
        <time>2022-08-13T07:46:08Z</time>
      </trkpt>
      <trkpt lat="42.3483800" lon="-2.5294930">
        <ele>701.9</ele>
        <time>2022-08-13T07:46:09Z</time>
      </trkpt>
      <trkpt lat="42.3482190" lon="-2.5295350">
        <ele>702.8</ele>
        <time>2022-08-13T07:46:15Z</time>
      </trkpt>
      <trkpt lat="42.3481390" lon="-2.5295570">
        <ele>703.2</ele>
        <time>2022-08-13T07:46:18Z</time>
      </trkpt>
      <trkpt lat="42.3479760" lon="-2.5296080">
        <ele>703.7</ele>
        <time>2022-08-13T07:46:24Z</time>
      </trkpt>
      <trkpt lat="42.3477810" lon="-2.5296620">
        <ele>704.7</ele>
        <time>2022-08-13T07:46:31Z</time>
      </trkpt>
      <trkpt lat="42.3477520" lon="-2.5296700">
        <ele>704.8</ele>
        <time>2022-08-13T07:46:32Z</time>
      </trkpt>
      <trkpt lat="42.3475860" lon="-2.5297170">
        <ele>705.6</ele>
        <time>2022-08-13T07:46:38Z</time>
      </trkpt>
      <trkpt lat="42.3474120" lon="-2.5297530">
        <ele>706.3</ele>
        <time>2022-08-13T07:46:44Z</time>
      </trkpt>
      <trkpt lat="42.3473830" lon="-2.5297620">
        <ele>706.4</ele>
        <time>2022-08-13T07:46:45Z</time>
      </trkpt>
      <trkpt lat="42.3470850" lon="-2.5298440">
        <ele>707.4</ele>
        <time>2022-08-13T07:46:55Z</time>
      </trkpt>
      <trkpt lat="42.3467210" lon="-2.5299030">
        <ele>708.4</ele>
        <time>2022-08-13T07:47:07Z</time>
      </trkpt>
      <trkpt lat="42.3466900" lon="-2.5299050">
        <ele>708.4</ele>
        <time>2022-08-13T07:47:08Z</time>
      </trkpt>
      <trkpt lat="42.3464750" lon="-2.5299060">
        <ele>708.6</ele>
        <time>2022-08-13T07:47:14Z</time>
      </trkpt>
      <trkpt lat="42.3463280" lon="-2.5298890">
        <ele>708.8</ele>
        <time>2022-08-13T07:47:18Z</time>
      </trkpt>
      <trkpt lat="42.3461610" lon="-2.5298760">
        <ele>708.9</ele>
        <time>2022-08-13T07:47:23Z</time>
      </trkpt>
      <trkpt lat="42.3459540" lon="-2.5298460">
        <ele>709.0</ele>
        <time>2022-08-13T07:47:29Z</time>
      </trkpt>
      <trkpt lat="42.3458840" lon="-2.5298320">
        <ele>709.0</ele>
        <time>2022-08-13T07:47:31Z</time>
      </trkpt>
      <trkpt lat="42.3458140" lon="-2.5298210">
        <ele>709.0</ele>
        <time>2022-08-13T07:47:33Z</time>
      </trkpt>
      <trkpt lat="42.3456330" lon="-2.5297840">
        <ele>709.2</ele>
        <time>2022-08-13T07:47:38Z</time>
      </trkpt>
      <trkpt lat="42.3455960" lon="-2.5297770">
        <ele>709.2</ele>
        <time>2022-08-13T07:47:39Z</time>
      </trkpt>
      <trkpt lat="42.3453820" lon="-2.5297400">
        <ele>709.4</ele>
        <time>2022-08-13T07:47:45Z</time>
      </trkpt>
      <trkpt lat="42.3451600" lon="-2.5297110">
        <ele>709.7</ele>
        <time>2022-08-13T07:47:51Z</time>
      </trkpt>
      <trkpt lat="42.3449100" lon="-2.5296700">
        <ele>710.1</ele>
        <time>2022-08-13T07:47:58Z</time>
      </trkpt>
      <trkpt lat="42.3448730" lon="-2.5296640">
        <ele>710.1</ele>
        <time>2022-08-13T07:47:59Z</time>
      </trkpt>
      <trkpt lat="42.3445830" lon="-2.5296150">
        <ele>710.6</ele>
        <time>2022-08-13T07:48:07Z</time>
      </trkpt>
      <trkpt lat="42.3445110" lon="-2.5296020">
        <ele>710.7</ele>
        <time>2022-08-13T07:48:09Z</time>
      </trkpt>
      <trkpt lat="42.3444060" lon="-2.5295810">
        <ele>710.8</ele>
        <time>2022-08-13T07:48:12Z</time>
      </trkpt>
      <trkpt lat="42.3441660" lon="-2.5294990">
        <ele>710.9</ele>
        <time>2022-08-13T07:48:19Z</time>
      </trkpt>
      <trkpt lat="42.3440200" lon="-2.5293590">
        <ele>710.8</ele>
        <time>2022-08-13T07:48:24Z</time>
      </trkpt>
      <trkpt lat="42.3439860" lon="-2.5293210">
        <ele>710.8</ele>
        <time>2022-08-13T07:48:25Z</time>
      </trkpt>
      <trkpt lat="42.3438990" lon="-2.5292200">
        <ele>711.0</ele>
        <time>2022-08-13T07:48:28Z</time>
      </trkpt>
      <trkpt lat="42.3438380" lon="-2.5291710">
        <ele>711.1</ele>
        <time>2022-08-13T07:48:30Z</time>
      </trkpt>
      <trkpt lat="42.3437590" lon="-2.5291110">
        <ele>711.3</ele>
        <time>2022-08-13T07:48:32Z</time>
      </trkpt>
      <trkpt lat="42.3436750" lon="-2.5290320">
        <ele>711.5</ele>
        <time>2022-08-13T07:48:35Z</time>
      </trkpt>
      <trkpt lat="42.3435470" lon="-2.5289440">
        <ele>711.9</ele>
        <time>2022-08-13T07:48:39Z</time>
      </trkpt>
      <trkpt lat="42.3435160" lon="-2.5289350">
        <ele>711.9</ele>
        <time>2022-08-13T07:48:40Z</time>
      </trkpt>
      <trkpt lat="42.3434000" lon="-2.5288780">
        <ele>712.2</ele>
        <time>2022-08-13T07:48:44Z</time>
      </trkpt>
      <trkpt lat="42.3433770" lon="-2.5288530">
        <ele>712.2</ele>
        <time>2022-08-13T07:48:45Z</time>
      </trkpt>
      <trkpt lat="42.3433520" lon="-2.5288260">
        <ele>712.9</ele>
        <time>2022-08-13T07:48:46Z</time>
      </trkpt>
      <trkpt lat="42.3431860" lon="-2.5286990">
        <ele>713.1</ele>
        <time>2022-08-13T07:48:52Z</time>
      </trkpt>
      <trkpt lat="42.3431050" lon="-2.5286210">
        <ele>713.3</ele>
        <time>2022-08-13T07:48:56Z</time>
      </trkpt>
      <trkpt lat="42.3430780" lon="-2.5286040">
        <ele>713.3</ele>
        <time>2022-08-13T07:48:57Z</time>
      </trkpt>
      <trkpt lat="42.3430240" lon="-2.5285620">
        <ele>713.5</ele>
        <time>2022-08-13T07:48:59Z</time>
      </trkpt>
      <trkpt lat="42.3429730" lon="-2.5285280">
        <ele>713.6</ele>
        <time>2022-08-13T07:49:01Z</time>
      </trkpt>
      <trkpt lat="42.3429480" lon="-2.5285180">
        <ele>713.7</ele>
        <time>2022-08-13T07:49:02Z</time>
      </trkpt>
      <trkpt lat="42.3428850" lon="-2.5284820">
        <ele>713.9</ele>
        <time>2022-08-13T07:49:06Z</time>
      </trkpt>
      <trkpt lat="42.3428090" lon="-2.5284100">
        <ele>714.2</ele>
        <time>2022-08-13T07:49:09Z</time>
      </trkpt>
      <trkpt lat="42.3427960" lon="-2.5283690">
        <ele>714.3</ele>
        <time>2022-08-13T07:49:10Z</time>
      </trkpt>
      <trkpt lat="42.3427900" lon="-2.5282200">
        <ele>715.0</ele>
        <time>2022-08-13T07:49:13Z</time>
      </trkpt>
      <trkpt lat="42.3427420" lon="-2.5281900">
        <ele>715.2</ele>
        <time>2022-08-13T07:49:15Z</time>
      </trkpt>
      <trkpt lat="42.3427100" lon="-2.5281980">
        <ele>715.3</ele>
        <time>2022-08-13T07:49:16Z</time>
      </trkpt>
      <trkpt lat="42.3426690" lon="-2.5281850">
        <ele>716.8</ele>
        <time>2022-08-13T07:49:19Z</time>
      </trkpt>
      <trkpt lat="42.3426550" lon="-2.5281960">
        <ele>717.0</ele>
        <time>2022-08-13T07:49:21Z</time>
      </trkpt>
      <trkpt lat="42.3425870" lon="-2.5282180">
        <ele>717.7</ele>
        <time>2022-08-13T07:49:23Z</time>
      </trkpt>
      <trkpt lat="42.3425260" lon="-2.5282500">
        <ele>719.2</ele>
        <time>2022-08-13T07:49:25Z</time>
      </trkpt>
      <trkpt lat="42.3424990" lon="-2.5282780">
        <ele>719.3</ele>
        <time>2022-08-13T07:49:26Z</time>
      </trkpt>
      <trkpt lat="42.3424920" lon="-2.5282860">
        <ele>719.3</ele>
        <time>2022-08-13T07:49:28Z</time>
      </trkpt>
      <trkpt lat="42.3424670" lon="-2.5282910">
        <ele>719.4</ele>
        <time>2022-08-13T07:49:31Z</time>
      </trkpt>
      <trkpt lat="42.3424440" lon="-2.5283000">
        <ele>719.5</ele>
        <time>2022-08-13T07:49:32Z</time>
      </trkpt>
      <trkpt lat="42.3424100" lon="-2.5283020">
        <ele>719.5</ele>
        <time>2022-08-13T07:49:33Z</time>
      </trkpt>
      <trkpt lat="42.3423600" lon="-2.5283290">
        <ele>719.5</ele>
        <time>2022-08-13T07:49:36Z</time>
      </trkpt>
      <trkpt lat="42.3423370" lon="-2.5283420">
        <ele>719.4</ele>
        <time>2022-08-13T07:49:38Z</time>
      </trkpt>
      <trkpt lat="42.3423370" lon="-2.5283420">
        <ele>719.4</ele>
        <time>2022-08-13T07:49:39Z</time>
      </trkpt>
      <trkpt lat="42.3423360" lon="-2.5283280">
        <ele>719.4</ele>
        <time>2022-08-13T08:03:52Z</time>
      </trkpt>
      <trkpt lat="42.3423660" lon="-2.5283290">
        <ele>719.4</ele>
        <time>2022-08-13T08:03:53Z</time>
      </trkpt>
      <trkpt lat="42.3424130" lon="-2.5283170">
        <ele>719.4</ele>
        <time>2022-08-13T08:03:54Z</time>
      </trkpt>
      <trkpt lat="42.3424330" lon="-2.5283090">
        <ele>719.4</ele>
        <time>2022-08-13T08:03:55Z</time>
      </trkpt>
      <trkpt lat="42.3424540" lon="-2.5283010">
        <ele>719.3</ele>
        <time>2022-08-13T08:03:56Z</time>
      </trkpt>
      <trkpt lat="42.3424750" lon="-2.5282780">
        <ele>719.3</ele>
        <time>2022-08-13T08:03:57Z</time>
      </trkpt>
      <trkpt lat="42.3425360" lon="-2.5281860">
        <ele>718.2</ele>
        <time>2022-08-13T08:04:00Z</time>
      </trkpt>
      <trkpt lat="42.3425850" lon="-2.5281280">
        <ele>716.9</ele>
        <time>2022-08-13T08:04:02Z</time>
      </trkpt>
      <trkpt lat="42.3426500" lon="-2.5281150">
        <ele>716.3</ele>
        <time>2022-08-13T08:04:04Z</time>
      </trkpt>
      <trkpt lat="42.3427050" lon="-2.5281350">
        <ele>715.4</ele>
        <time>2022-08-13T08:04:06Z</time>
      </trkpt>
      <trkpt lat="42.3427600" lon="-2.5281380">
        <ele>714.7</ele>
        <time>2022-08-13T08:04:08Z</time>
      </trkpt>
      <trkpt lat="42.3428300" lon="-2.5281370">
        <ele>714.1</ele>
        <time>2022-08-13T08:04:10Z</time>
      </trkpt>
      <trkpt lat="42.3428830" lon="-2.5281560">
        <ele>713.6</ele>
        <time>2022-08-13T08:04:12Z</time>
      </trkpt>
      <trkpt lat="42.3429390" lon="-2.5281850">
        <ele>713.1</ele>
        <time>2022-08-13T08:04:14Z</time>
      </trkpt>
      <trkpt lat="42.3430030" lon="-2.5281990">
        <ele>712.6</ele>
        <time>2022-08-13T08:04:16Z</time>
      </trkpt>
      <trkpt lat="42.3430270" lon="-2.5282000">
        <ele>712.4</ele>
        <time>2022-08-13T08:04:17Z</time>
      </trkpt>
      <trkpt lat="42.3430450" lon="-2.5282070">
        <ele>712.3</ele>
        <time>2022-08-13T08:04:18Z</time>
      </trkpt>
      <trkpt lat="42.3430620" lon="-2.5282120">
        <ele>712.2</ele>
        <time>2022-08-13T08:04:20Z</time>
      </trkpt>
      <trkpt lat="42.3430880" lon="-2.5282220">
        <ele>712.0</ele>
        <time>2022-08-13T08:04:21Z</time>
      </trkpt>
      <trkpt lat="42.3431490" lon="-2.5282480">
        <ele>711.6</ele>
        <time>2022-08-13T08:04:24Z</time>
      </trkpt>
      <trkpt lat="42.3431770" lon="-2.5282660">
        <ele>711.4</ele>
        <time>2022-08-13T08:04:26Z</time>
      </trkpt>
      <trkpt lat="42.3431990" lon="-2.5282820">
        <ele>711.2</ele>
        <time>2022-08-13T08:04:27Z</time>
      </trkpt>
      <trkpt lat="42.3432040" lon="-2.5282850">
        <ele>711.2</ele>
        <time>2022-08-13T08:04:28Z</time>
      </trkpt>
      <trkpt lat="42.3432180" lon="-2.5282940">
        <ele>711.1</ele>
        <time>2022-08-13T08:04:29Z</time>
      </trkpt>
      <trkpt lat="42.3432450" lon="-2.5283230">
        <ele>710.9</ele>
        <time>2022-08-13T08:04:31Z</time>
      </trkpt>
      <trkpt lat="42.3432590" lon="-2.5283450">
        <ele>710.7</ele>
        <time>2022-08-13T08:04:32Z</time>
      </trkpt>
      <trkpt lat="42.3432860" lon="-2.5283820">
        <ele>710.6</ele>
        <time>2022-08-13T08:04:33Z</time>
      </trkpt>
      <trkpt lat="42.3433360" lon="-2.5284710">
        <ele>710.7</ele>
        <time>2022-08-13T08:04:35Z</time>
      </trkpt>
      <trkpt lat="42.3433680" lon="-2.5285040">
        <ele>710.7</ele>
        <time>2022-08-13T08:04:36Z</time>
      </trkpt>
      <trkpt lat="42.3433980" lon="-2.5285250">
        <ele>710.7</ele>
        <time>2022-08-13T08:04:37Z</time>
      </trkpt>
      <trkpt lat="42.3434160" lon="-2.5285020">
        <ele>710.7</ele>
        <time>2022-08-13T08:04:38Z</time>
      </trkpt>
      <trkpt lat="42.3434510" lon="-2.5285060">
        <ele>710.7</ele>
        <time>2022-08-13T08:04:41Z</time>
      </trkpt>
      <trkpt lat="42.3434480" lon="-2.5285290">
        <ele>710.7</ele>
        <time>2022-08-13T08:04:42Z</time>
      </trkpt>
      <trkpt lat="42.3434530" lon="-2.5285490">
        <ele>710.8</ele>
        <time>2022-08-13T08:04:43Z</time>
      </trkpt>
      <trkpt lat="42.3434550" lon="-2.5285800">
        <ele>710.9</ele>
        <time>2022-08-13T08:04:44Z</time>
      </trkpt>
      <trkpt lat="42.3434540" lon="-2.5286130">
        <ele>711.0</ele>
        <time>2022-08-13T08:04:46Z</time>
      </trkpt>
      <trkpt lat="42.3434330" lon="-2.5286370">
        <ele>711.2</ele>
        <time>2022-08-13T08:04:48Z</time>
      </trkpt>
      <trkpt lat="42.3434230" lon="-2.5286510">
        <ele>711.3</ele>
        <time>2022-08-13T08:04:49Z</time>
      </trkpt>
      <trkpt lat="42.3433390" lon="-2.5287450">
        <ele>712.2</ele>
        <time>2022-08-13T08:04:56Z</time>
      </trkpt>
      <trkpt lat="42.3432970" lon="-2.5287980">
        <ele>712.6</ele>
        <time>2022-08-13T08:05:00Z</time>
      </trkpt>
      <trkpt lat="42.3432620" lon="-2.5288260">
        <ele>712.9</ele>
        <time>2022-08-13T08:05:02Z</time>
      </trkpt>
      <trkpt lat="42.3432320" lon="-2.5288440">
        <ele>713.1</ele>
        <time>2022-08-13T08:05:04Z</time>
      </trkpt>
      <trkpt lat="42.3431260" lon="-2.5288930">
        <ele>713.5</ele>
        <time>2022-08-13T08:05:10Z</time>
      </trkpt>
      <trkpt lat="42.3430810" lon="-2.5288880">
        <ele>713.7</ele>
        <time>2022-08-13T08:05:12Z</time>
      </trkpt>
      <trkpt lat="42.3430440" lon="-2.5288910">
        <ele>713.9</ele>
        <time>2022-08-13T08:05:14Z</time>
      </trkpt>
      <trkpt lat="42.3429940" lon="-2.5289040">
        <ele>714.1</ele>
        <time>2022-08-13T08:05:17Z</time>
      </trkpt>
      <trkpt lat="42.3429800" lon="-2.5289080">
        <ele>714.1</ele>
        <time>2022-08-13T08:05:18Z</time>
      </trkpt>
      <trkpt lat="42.3429280" lon="-2.5289360">
        <ele>714.5</ele>
        <time>2022-08-13T08:05:21Z</time>
      </trkpt>
      <trkpt lat="42.3428350" lon="-2.5290090">
        <ele>715.4</ele>
        <time>2022-08-13T08:05:27Z</time>
      </trkpt>
      <trkpt lat="42.3428020" lon="-2.5290310">
        <ele>715.7</ele>
        <time>2022-08-13T08:05:29Z</time>
      </trkpt>
      <trkpt lat="42.3427440" lon="-2.5290590">
        <ele>716.2</ele>
        <time>2022-08-13T08:05:32Z</time>
      </trkpt>
      <trkpt lat="42.3426730" lon="-2.5290910">
        <ele>716.8</ele>
        <time>2022-08-13T08:05:36Z</time>
      </trkpt>
      <trkpt lat="42.3425260" lon="-2.5291610">
        <ele>718.1</ele>
        <time>2022-08-13T08:05:45Z</time>
      </trkpt>
      <trkpt lat="42.3424700" lon="-2.5291700">
        <ele>718.6</ele>
        <time>2022-08-13T08:05:48Z</time>
      </trkpt>
      <trkpt lat="42.3424270" lon="-2.5291770">
        <ele>719.1</ele>
        <time>2022-08-13T08:05:51Z</time>
      </trkpt>
      <trkpt lat="42.3424190" lon="-2.5291870">
        <ele>719.2</ele>
        <time>2022-08-13T08:05:52Z</time>
      </trkpt>
      <trkpt lat="42.3424080" lon="-2.5291940">
        <ele>719.3</ele>
        <time>2022-08-13T08:05:53Z</time>
      </trkpt>
      <trkpt lat="42.3423970" lon="-2.5291990">
        <ele>719.4</ele>
        <time>2022-08-13T08:05:54Z</time>
      </trkpt>
      <trkpt lat="42.3423910" lon="-2.5292130">
        <ele>719.5</ele>
        <time>2022-08-13T08:05:55Z</time>
      </trkpt>
      <trkpt lat="42.3423810" lon="-2.5292430">
        <ele>719.7</ele>
        <time>2022-08-13T08:05:56Z</time>
      </trkpt>
      <trkpt lat="42.3423090" lon="-2.5294390">
        <ele>721.1</ele>
        <time>2022-08-13T08:06:04Z</time>
      </trkpt>
      <trkpt lat="42.3422800" lon="-2.5295050">
        <ele>721.5</ele>
        <time>2022-08-13T08:06:06Z</time>
      </trkpt>
      <trkpt lat="42.3422350" lon="-2.5296220">
        <ele>722.3</ele>
        <time>2022-08-13T08:06:11Z</time>
      </trkpt>
      <trkpt lat="42.3422190" lon="-2.5296590">
        <ele>722.5</ele>
        <time>2022-08-13T08:06:13Z</time>
      </trkpt>
      <trkpt lat="42.3421960" lon="-2.5297680">
        <ele>723.2</ele>
        <time>2022-08-13T08:06:18Z</time>
      </trkpt>
      <trkpt lat="42.3421580" lon="-2.5298610">
        <ele>723.8</ele>
        <time>2022-08-13T08:06:22Z</time>
      </trkpt>
      <trkpt lat="42.3421470" lon="-2.5298860">
        <ele>724.0</ele>
        <time>2022-08-13T08:06:23Z</time>
      </trkpt>
      <trkpt lat="42.3421180" lon="-2.5300190">
        <ele>724.7</ele>
        <time>2022-08-13T08:06:29Z</time>
      </trkpt>
      <trkpt lat="42.3420750" lon="-2.5302280">
        <ele>725.9</ele>
        <time>2022-08-13T08:06:38Z</time>
      </trkpt>
      <trkpt lat="42.3420660" lon="-2.5302510">
        <ele>726.0</ele>
        <time>2022-08-13T08:06:39Z</time>
      </trkpt>
      <trkpt lat="42.3420220" lon="-2.5303610">
        <ele>726.7</ele>
        <time>2022-08-13T08:06:44Z</time>
      </trkpt>
      <trkpt lat="42.3420150" lon="-2.5303940">
        <ele>726.9</ele>
        <time>2022-08-13T08:06:46Z</time>
      </trkpt>
      <trkpt lat="42.3420270" lon="-2.5304180">
        <ele>727.0</ele>
        <time>2022-08-13T08:06:48Z</time>
      </trkpt>
      <trkpt lat="42.3420170" lon="-2.5304600">
        <ele>727.3</ele>
        <time>2022-08-13T08:06:51Z</time>
      </trkpt>
      <trkpt lat="42.3419380" lon="-2.5305620">
        <ele>728.2</ele>
        <time>2022-08-13T08:06:58Z</time>
      </trkpt>
      <trkpt lat="42.3419280" lon="-2.5305770">
        <ele>728.3</ele>
        <time>2022-08-13T08:06:59Z</time>
      </trkpt>
      <trkpt lat="42.3418430" lon="-2.5306490">
        <ele>729.6</ele>
        <time>2022-08-13T08:07:03Z</time>
      </trkpt>
      <trkpt lat="42.3418220" lon="-2.5307260">
        <ele>729.9</ele>
        <time>2022-08-13T08:07:06Z</time>
      </trkpt>
      <trkpt lat="42.3418140" lon="-2.5307750">
        <ele>730.0</ele>
        <time>2022-08-13T08:07:08Z</time>
      </trkpt>
      <trkpt lat="42.3417890" lon="-2.5308800">
        <ele>730.4</ele>
        <time>2022-08-13T08:07:12Z</time>
      </trkpt>
      <trkpt lat="42.3417520" lon="-2.5309390">
        <ele>730.9</ele>
        <time>2022-08-13T08:07:15Z</time>
      </trkpt>
      <trkpt lat="42.3417000" lon="-2.5310180">
        <ele>731.5</ele>
        <time>2022-08-13T08:07:19Z</time>
      </trkpt>
      <trkpt lat="42.3416320" lon="-2.5311530">
        <ele>732.5</ele>
        <time>2022-08-13T08:07:25Z</time>
      </trkpt>
      <trkpt lat="42.3415990" lon="-2.5312420">
        <ele>733.1</ele>
        <time>2022-08-13T08:07:29Z</time>
      </trkpt>
      <trkpt lat="42.3415840" lon="-2.5313060">
        <ele>733.5</ele>
        <time>2022-08-13T08:07:32Z</time>
      </trkpt>
      <trkpt lat="42.3415630" lon="-2.5313580">
        <ele>733.9</ele>
        <time>2022-08-13T08:07:35Z</time>
      </trkpt>
      <trkpt lat="42.3415150" lon="-2.5314880">
        <ele>734.9</ele>
        <time>2022-08-13T08:07:41Z</time>
      </trkpt>
      <trkpt lat="42.3414890" lon="-2.5315530">
        <ele>735.4</ele>
        <time>2022-08-13T08:07:44Z</time>
      </trkpt>
      <trkpt lat="42.3414480" lon="-2.5316630">
        <ele>736.2</ele>
        <time>2022-08-13T08:07:49Z</time>
      </trkpt>
      <trkpt lat="42.3414260" lon="-2.5316940">
        <ele>736.5</ele>
        <time>2022-08-13T08:07:51Z</time>
      </trkpt>
      <trkpt lat="42.3413900" lon="-2.5317490">
        <ele>737.0</ele>
        <time>2022-08-13T08:07:54Z</time>
      </trkpt>
      <trkpt lat="42.3413720" lon="-2.5317920">
        <ele>737.4</ele>
        <time>2022-08-13T08:07:56Z</time>
      </trkpt>
      <trkpt lat="42.3413430" lon="-2.5318540">
        <ele>737.9</ele>
        <time>2022-08-13T08:07:59Z</time>
      </trkpt>
      <trkpt lat="42.3413340" lon="-2.5318740">
        <ele>738.1</ele>
        <time>2022-08-13T08:08:00Z</time>
      </trkpt>
      <trkpt lat="42.3412860" lon="-2.5319740">
        <ele>739.0</ele>
        <time>2022-08-13T08:08:05Z</time>
      </trkpt>
      <trkpt lat="42.3412740" lon="-2.5320150">
        <ele>739.3</ele>
        <time>2022-08-13T08:08:07Z</time>
      </trkpt>
      <trkpt lat="42.3412110" lon="-2.5322070">
        <ele>740.9</ele>
        <time>2022-08-13T08:08:16Z</time>
      </trkpt>
      <trkpt lat="42.3411900" lon="-2.5324210">
        <ele>742.3</ele>
        <time>2022-08-13T08:08:26Z</time>
      </trkpt>
      <trkpt lat="42.3411880" lon="-2.5325390">
        <ele>743.0</ele>
        <time>2022-08-13T08:08:32Z</time>
      </trkpt>
      <trkpt lat="42.3412000" lon="-2.5325760">
        <ele>743.3</ele>
        <time>2022-08-13T08:08:34Z</time>
      </trkpt>
      <trkpt lat="42.3412510" lon="-2.5326970">
        <ele>744.2</ele>
        <time>2022-08-13T08:08:40Z</time>
      </trkpt>
      <trkpt lat="42.3412610" lon="-2.5327180">
        <ele>744.1</ele>
        <time>2022-08-13T08:08:41Z</time>
      </trkpt>
      <trkpt lat="42.3413030" lon="-2.5327820">
        <ele>743.9</ele>
        <time>2022-08-13T08:08:46Z</time>
      </trkpt>
      <trkpt lat="42.3412850" lon="-2.5327550">
        <ele>743.8</ele>
        <time>2022-08-13T08:09:35Z</time>
      </trkpt>
      <trkpt lat="42.3412770" lon="-2.5327360">
        <ele>743.7</ele>
        <time>2022-08-13T08:09:36Z</time>
      </trkpt>
      <trkpt lat="42.3412120" lon="-2.5325550">
        <ele>743.1</ele>
        <time>2022-08-13T08:09:41Z</time>
      </trkpt>
      <trkpt lat="42.3411940" lon="-2.5324160">
        <ele>742.3</ele>
        <time>2022-08-13T08:09:43Z</time>
      </trkpt>
      <trkpt lat="42.3411970" lon="-2.5323340">
        <ele>741.7</ele>
        <time>2022-08-13T08:09:44Z</time>
      </trkpt>
      <trkpt lat="42.3412110" lon="-2.5322510">
        <ele>741.1</ele>
        <time>2022-08-13T08:09:45Z</time>
      </trkpt>
      <trkpt lat="42.3412320" lon="-2.5321700">
        <ele>740.5</ele>
        <time>2022-08-13T08:09:46Z</time>
      </trkpt>
      <trkpt lat="42.3412790" lon="-2.5320250">
        <ele>739.4</ele>
        <time>2022-08-13T08:09:48Z</time>
      </trkpt>
      <trkpt lat="42.3413220" lon="-2.5319120">
        <ele>738.4</ele>
        <time>2022-08-13T08:09:50Z</time>
      </trkpt>
      <trkpt lat="42.3413750" lon="-2.5317890">
        <ele>737.3</ele>
        <time>2022-08-13T08:09:53Z</time>
      </trkpt>
      <trkpt lat="42.3414030" lon="-2.5317280">
        <ele>736.8</ele>
        <time>2022-08-13T08:09:55Z</time>
      </trkpt>
      <trkpt lat="42.3414350" lon="-2.5316730">
        <ele>736.3</ele>
        <time>2022-08-13T08:09:57Z</time>
      </trkpt>
      <trkpt lat="42.3414700" lon="-2.5315900">
        <ele>735.7</ele>
        <time>2022-08-13T08:09:59Z</time>
      </trkpt>
      <trkpt lat="42.3414890" lon="-2.5315380">
        <ele>735.3</ele>
        <time>2022-08-13T08:10:00Z</time>
      </trkpt>
      <trkpt lat="42.3415090" lon="-2.5314780">
        <ele>734.8</ele>
        <time>2022-08-13T08:10:01Z</time>
      </trkpt>
      <trkpt lat="42.3415730" lon="-2.5312600">
        <ele>733.3</ele>
        <time>2022-08-13T08:10:04Z</time>
      </trkpt>
      <trkpt lat="42.3416250" lon="-2.5311160">
        <ele>732.2</ele>
        <time>2022-08-13T08:10:06Z</time>
      </trkpt>
      <trkpt lat="42.3416770" lon="-2.5310010">
        <ele>731.4</ele>
        <time>2022-08-13T08:10:08Z</time>
      </trkpt>
      <trkpt lat="42.3417350" lon="-2.5308630">
        <ele>730.4</ele>
        <time>2022-08-13T08:10:11Z</time>
      </trkpt>
      <trkpt lat="42.3417550" lon="-2.5307810">
        <ele>730.1</ele>
        <time>2022-08-13T08:10:13Z</time>
      </trkpt>
      <trkpt lat="42.3417680" lon="-2.5306780">
        <ele>729.5</ele>
        <time>2022-08-13T08:10:16Z</time>
      </trkpt>
      <trkpt lat="42.3417380" lon="-2.5306380">
        <ele>729.7</ele>
        <time>2022-08-13T08:10:18Z</time>
      </trkpt>
      <trkpt lat="42.3417130" lon="-2.5306250">
        <ele>729.7</ele>
        <time>2022-08-13T08:10:19Z</time>
      </trkpt>
      <trkpt lat="42.3416960" lon="-2.5306220">
        <ele>729.8</ele>
        <time>2022-08-13T08:10:20Z</time>
      </trkpt>
      <trkpt lat="42.3416740" lon="-2.5306240">
        <ele>729.9</ele>
        <time>2022-08-13T08:10:21Z</time>
      </trkpt>
      <trkpt lat="42.3416560" lon="-2.5306370">
        <ele>730.1</ele>
        <time>2022-08-13T08:10:22Z</time>
      </trkpt>
      <trkpt lat="42.3416320" lon="-2.5306710">
        <ele>730.3</ele>
        <time>2022-08-13T08:10:24Z</time>
      </trkpt>
      <trkpt lat="42.3416140" lon="-2.5307050">
        <ele>730.5</ele>
        <time>2022-08-13T08:10:26Z</time>
      </trkpt>
      <trkpt lat="42.3415730" lon="-2.5307630">
        <ele>730.9</ele>
        <time>2022-08-13T08:10:29Z</time>
      </trkpt>
      <trkpt lat="42.3415310" lon="-2.5308380">
        <ele>731.3</ele>
        <time>2022-08-13T08:10:32Z</time>
      </trkpt>
      <trkpt lat="42.3415040" lon="-2.5309210">
        <ele>731.8</ele>
        <time>2022-08-13T08:10:35Z</time>
      </trkpt>
      <trkpt lat="42.3414840" lon="-2.5309730">
        <ele>732.1</ele>
        <time>2022-08-13T08:10:37Z</time>
      </trkpt>
      <trkpt lat="42.3414400" lon="-2.5310500">
        <ele>732.6</ele>
        <time>2022-08-13T08:10:40Z</time>
      </trkpt>
      <trkpt lat="42.3414260" lon="-2.5311090">
        <ele>733.0</ele>
        <time>2022-08-13T08:10:42Z</time>
      </trkpt>
      <trkpt lat="42.3414190" lon="-2.5311370">
        <ele>733.1</ele>
        <time>2022-08-13T08:10:43Z</time>
      </trkpt>
      <trkpt lat="42.3414120" lon="-2.5311680">
        <ele>733.3</ele>
        <time>2022-08-13T08:10:44Z</time>
      </trkpt>
      <trkpt lat="42.3413970" lon="-2.5312300">
        <ele>733.8</ele>
        <time>2022-08-13T08:10:46Z</time>
      </trkpt>
      <trkpt lat="42.3413930" lon="-2.5312830">
        <ele>734.1</ele>
        <time>2022-08-13T08:10:48Z</time>
      </trkpt>
      <trkpt lat="42.3413810" lon="-2.5313450">
        <ele>734.5</ele>
        <time>2022-08-13T08:10:50Z</time>
      </trkpt>
      <trkpt lat="42.3413620" lon="-2.5314280">
        <ele>735.0</ele>
        <time>2022-08-13T08:10:53Z</time>
      </trkpt>
      <trkpt lat="42.3413280" lon="-2.5315050">
        <ele>735.6</ele>
        <time>2022-08-13T08:10:56Z</time>
      </trkpt>
      <trkpt lat="42.3412830" lon="-2.5315670">
        <ele>736.1</ele>
        <time>2022-08-13T08:10:59Z</time>
      </trkpt>
      <trkpt lat="42.3411990" lon="-2.5316910">
        <ele>736.5</ele>
        <time>2022-08-13T08:11:05Z</time>
      </trkpt>
      <trkpt lat="42.3411720" lon="-2.5317320">
        <ele>736.6</ele>
        <time>2022-08-13T08:11:07Z</time>
      </trkpt>
      <trkpt lat="42.3411000" lon="-2.5318260">
        <ele>737.2</ele>
        <time>2022-08-13T08:11:12Z</time>
      </trkpt>
      <trkpt lat="42.3410550" lon="-2.5318760">
        <ele>737.7</ele>
        <time>2022-08-13T08:11:15Z</time>
      </trkpt>
      <trkpt lat="42.3410050" lon="-2.5319430">
        <ele>738.3</ele>
        <time>2022-08-13T08:11:19Z</time>
      </trkpt>
      <trkpt lat="42.3409370" lon="-2.5320030">
        <ele>739.2</ele>
        <time>2022-08-13T08:11:24Z</time>
      </trkpt>
      <trkpt lat="42.3408740" lon="-2.5320720">
        <ele>740.1</ele>
        <time>2022-08-13T08:11:29Z</time>
      </trkpt>
      <trkpt lat="42.3407950" lon="-2.5321580">
        <ele>741.3</ele>
        <time>2022-08-13T08:11:35Z</time>
      </trkpt>
      <trkpt lat="42.3407190" lon="-2.5322570">
        <ele>742.6</ele>
        <time>2022-08-13T08:11:41Z</time>
      </trkpt>
      <trkpt lat="42.3406780" lon="-2.5323030">
        <ele>743.2</ele>
        <time>2022-08-13T08:11:44Z</time>
      </trkpt>
      <trkpt lat="42.3406300" lon="-2.5323740">
        <ele>744.1</ele>
        <time>2022-08-13T08:11:48Z</time>
      </trkpt>
      <trkpt lat="42.3405870" lon="-2.5324390">
        <ele>744.8</ele>
        <time>2022-08-13T08:11:52Z</time>
      </trkpt>
      <trkpt lat="42.3405390" lon="-2.5325210">
        <ele>745.7</ele>
        <time>2022-08-13T08:11:57Z</time>
      </trkpt>
      <trkpt lat="42.3405070" lon="-2.5325790">
        <ele>746.3</ele>
        <time>2022-08-13T08:12:00Z</time>
      </trkpt>
      <trkpt lat="42.3404710" lon="-2.5326420">
        <ele>746.9</ele>
        <time>2022-08-13T08:12:03Z</time>
      </trkpt>
      <trkpt lat="42.3404000" lon="-2.5327530">
        <ele>747.9</ele>
        <time>2022-08-13T08:12:09Z</time>
      </trkpt>
      <trkpt lat="42.3403690" lon="-2.5328100">
        <ele>748.3</ele>
        <time>2022-08-13T08:12:12Z</time>
      </trkpt>
      <trkpt lat="42.3402900" lon="-2.5329820">
        <ele>749.4</ele>
        <time>2022-08-13T08:12:20Z</time>
      </trkpt>
      <trkpt lat="42.3402800" lon="-2.5330040">
        <ele>749.6</ele>
        <time>2022-08-13T08:12:21Z</time>
      </trkpt>
      <trkpt lat="42.3402410" lon="-2.5331170">
        <ele>750.2</ele>
        <time>2022-08-13T08:12:26Z</time>
      </trkpt>
      <trkpt lat="42.3402280" lon="-2.5331630">
        <ele>750.5</ele>
        <time>2022-08-13T08:12:28Z</time>
      </trkpt>
      <trkpt lat="42.3401930" lon="-2.5332970">
        <ele>751.3</ele>
        <time>2022-08-13T08:12:35Z</time>
      </trkpt>
      <trkpt lat="42.3401770" lon="-2.5333620">
        <ele>751.8</ele>
        <time>2022-08-13T08:12:38Z</time>
      </trkpt>
      <trkpt lat="42.3401590" lon="-2.5334380">
        <ele>752.4</ele>
        <time>2022-08-13T08:12:42Z</time>
      </trkpt>
      <trkpt lat="42.3401380" lon="-2.5335540">
        <ele>753.3</ele>
        <time>2022-08-13T08:12:48Z</time>
      </trkpt>
      <trkpt lat="42.3401020" lon="-2.5337030">
        <ele>754.6</ele>
        <time>2022-08-13T08:12:55Z</time>
      </trkpt>
      <trkpt lat="42.3400930" lon="-2.5337620">
        <ele>755.2</ele>
        <time>2022-08-13T08:12:58Z</time>
      </trkpt>
      <trkpt lat="42.3400610" lon="-2.5338910">
        <ele>756.4</ele>
        <time>2022-08-13T08:13:04Z</time>
      </trkpt>
      <trkpt lat="42.3400230" lon="-2.5339820">
        <ele>757.4</ele>
        <time>2022-08-13T08:13:09Z</time>
      </trkpt>
      <trkpt lat="42.3400140" lon="-2.5340010">
        <ele>757.6</ele>
        <time>2022-08-13T08:13:10Z</time>
      </trkpt>
      <trkpt lat="42.3399530" lon="-2.5341420">
        <ele>759.1</ele>
        <time>2022-08-13T08:13:17Z</time>
      </trkpt>
      <trkpt lat="42.3399340" lon="-2.5342010">
        <ele>759.7</ele>
        <time>2022-08-13T08:13:20Z</time>
      </trkpt>
      <trkpt lat="42.3399060" lon="-2.5342570">
        <ele>760.3</ele>
        <time>2022-08-13T08:13:23Z</time>
      </trkpt>
      <trkpt lat="42.3398390" lon="-2.5343840">
        <ele>761.6</ele>
        <time>2022-08-13T08:13:30Z</time>
      </trkpt>
      <trkpt lat="42.3397870" lon="-2.5344690">
        <ele>762.5</ele>
        <time>2022-08-13T08:13:35Z</time>
      </trkpt>
      <trkpt lat="42.3397350" lon="-2.5345530">
        <ele>763.5</ele>
        <time>2022-08-13T08:13:40Z</time>
      </trkpt>
      <trkpt lat="42.3397270" lon="-2.5345650">
        <ele>763.6</ele>
        <time>2022-08-13T08:13:41Z</time>
      </trkpt>
      <trkpt lat="42.3396530" lon="-2.5347060">
        <ele>765.0</ele>
        <time>2022-08-13T08:13:49Z</time>
      </trkpt>
      <trkpt lat="42.3396360" lon="-2.5347430">
        <ele>765.4</ele>
        <time>2022-08-13T08:13:51Z</time>
      </trkpt>
      <trkpt lat="42.3396010" lon="-2.5348390">
        <ele>766.3</ele>
        <time>2022-08-13T08:13:56Z</time>
      </trkpt>
      <trkpt lat="42.3395880" lon="-2.5348990">
        <ele>766.8</ele>
        <time>2022-08-13T08:13:59Z</time>
      </trkpt>
      <trkpt lat="42.3395760" lon="-2.5349630">
        <ele>767.3</ele>
        <time>2022-08-13T08:14:02Z</time>
      </trkpt>
      <trkpt lat="42.3395660" lon="-2.5350970">
        <ele>768.4</ele>
        <time>2022-08-13T08:14:08Z</time>
      </trkpt>
      <trkpt lat="42.3395670" lon="-2.5351190">
        <ele>769.9</ele>
        <time>2022-08-13T08:14:09Z</time>
      </trkpt>
      <trkpt lat="42.3395640" lon="-2.5351780">
        <ele>770.3</ele>
        <time>2022-08-13T08:14:13Z</time>
      </trkpt>
      <trkpt lat="42.3395620" lon="-2.5351630">
        <ele>770.4</ele>
        <time>2022-08-13T08:14:21Z</time>
      </trkpt>
      <trkpt lat="42.3395640" lon="-2.5351450">
        <ele>770.5</ele>
        <time>2022-08-13T08:14:22Z</time>
      </trkpt>
      <trkpt lat="42.3395810" lon="-2.5350420">
        <ele>771.2</ele>
        <time>2022-08-13T08:14:26Z</time>
      </trkpt>
      <trkpt lat="42.3395840" lon="-2.5349780">
        <ele>771.6</ele>
        <time>2022-08-13T08:14:28Z</time>
      </trkpt>
      <trkpt lat="42.3395540" lon="-2.5348910">
        <ele>772.3</ele>
        <time>2022-08-13T08:14:32Z</time>
      </trkpt>
      <trkpt lat="42.3395290" lon="-2.5348790">
        <ele>772.6</ele>
        <time>2022-08-13T08:14:34Z</time>
      </trkpt>
      <trkpt lat="42.3395060" lon="-2.5348940">
        <ele>772.9</ele>
        <time>2022-08-13T08:14:36Z</time>
      </trkpt>
      <trkpt lat="42.3394050" lon="-2.5350370">
        <ele>774.4</ele>
        <time>2022-08-13T08:14:45Z</time>
      </trkpt>
      <trkpt lat="42.3393820" lon="-2.5350730">
        <ele>774.7</ele>
        <time>2022-08-13T08:14:47Z</time>
      </trkpt>
      <trkpt lat="42.3393270" lon="-2.5351740">
        <ele>775.6</ele>
        <time>2022-08-13T08:14:52Z</time>
      </trkpt>
      <trkpt lat="42.3393140" lon="-2.5352080">
        <ele>775.9</ele>
        <time>2022-08-13T08:14:54Z</time>
      </trkpt>
      <trkpt lat="42.3392750" lon="-2.5353090">
        <ele>776.6</ele>
        <time>2022-08-13T08:14:59Z</time>
      </trkpt>
      <trkpt lat="42.3392440" lon="-2.5354060">
        <ele>777.2</ele>
        <time>2022-08-13T08:15:04Z</time>
      </trkpt>
      <trkpt lat="42.3392140" lon="-2.5354670">
        <ele>777.6</ele>
        <time>2022-08-13T08:15:07Z</time>
      </trkpt>
      <trkpt lat="42.3391780" lon="-2.5355320">
        <ele>778.1</ele>
        <time>2022-08-13T08:15:10Z</time>
      </trkpt>
      <trkpt lat="42.3391390" lon="-2.5356280">
        <ele>778.7</ele>
        <time>2022-08-13T08:15:15Z</time>
      </trkpt>
      <trkpt lat="42.3391320" lon="-2.5356520">
        <ele>778.9</ele>
        <time>2022-08-13T08:15:16Z</time>
      </trkpt>
      <trkpt lat="42.3391130" lon="-2.5357650">
        <ele>779.6</ele>
        <time>2022-08-13T08:15:21Z</time>
      </trkpt>
      <trkpt lat="42.3390990" lon="-2.5358040">
        <ele>779.9</ele>
        <time>2022-08-13T08:15:23Z</time>
      </trkpt>
      <trkpt lat="42.3390480" lon="-2.5359540">
        <ele>781.0</ele>
        <time>2022-08-13T08:15:30Z</time>
      </trkpt>
      <trkpt lat="42.3390360" lon="-2.5359990">
        <ele>781.3</ele>
        <time>2022-08-13T08:15:32Z</time>
      </trkpt>
      <trkpt lat="42.3389940" lon="-2.5361310">
        <ele>782.3</ele>
        <time>2022-08-13T08:15:38Z</time>
      </trkpt>
      <trkpt lat="42.3389770" lon="-2.5361740">
        <ele>782.7</ele>
        <time>2022-08-13T08:15:40Z</time>
      </trkpt>
      <trkpt lat="42.3389410" lon="-2.5362930">
        <ele>783.6</ele>
        <time>2022-08-13T08:15:46Z</time>
      </trkpt>
      <trkpt lat="42.3389310" lon="-2.5363270">
        <ele>783.8</ele>
        <time>2022-08-13T08:15:48Z</time>
      </trkpt>
      <trkpt lat="42.3388900" lon="-2.5364280">
        <ele>784.6</ele>
        <time>2022-08-13T08:15:53Z</time>
      </trkpt>
      <trkpt lat="42.3388830" lon="-2.5364500">
        <ele>784.8</ele>
        <time>2022-08-13T08:15:54Z</time>
      </trkpt>
      <trkpt lat="42.3388340" lon="-2.5365950">
        <ele>785.8</ele>
        <time>2022-08-13T08:16:01Z</time>
      </trkpt>
      <trkpt lat="42.3388280" lon="-2.5366230">
        <ele>786.0</ele>
        <time>2022-08-13T08:16:02Z</time>
      </trkpt>
      <trkpt lat="42.3387880" lon="-2.5367550">
        <ele>786.9</ele>
        <time>2022-08-13T08:16:08Z</time>
      </trkpt>
      <trkpt lat="42.3387790" lon="-2.5367780">
        <ele>787.1</ele>
        <time>2022-08-13T08:16:09Z</time>
      </trkpt>
      <trkpt lat="42.3387720" lon="-2.5368010">
        <ele>787.3</ele>
        <time>2022-08-13T08:16:10Z</time>
      </trkpt>
      <trkpt lat="42.3387410" lon="-2.5369040">
        <ele>788.1</ele>
        <time>2022-08-13T08:16:15Z</time>
      </trkpt>
      <trkpt lat="42.3387160" lon="-2.5369860">
        <ele>788.7</ele>
        <time>2022-08-13T08:16:19Z</time>
      </trkpt>
      <trkpt lat="42.3386960" lon="-2.5370520">
        <ele>789.3</ele>
        <time>2022-08-13T08:16:22Z</time>
      </trkpt>
      <trkpt lat="42.3386640" lon="-2.5372060">
        <ele>790.4</ele>
        <time>2022-08-13T08:16:29Z</time>
      </trkpt>
      <trkpt lat="42.3386630" lon="-2.5372220">
        <ele>790.6</ele>
        <time>2022-08-13T08:16:30Z</time>
      </trkpt>
      <trkpt lat="42.3386430" lon="-2.5373090">
        <ele>791.2</ele>
        <time>2022-08-13T08:16:34Z</time>
      </trkpt>
      <trkpt lat="42.3386280" lon="-2.5373760">
        <ele>791.8</ele>
        <time>2022-08-13T08:16:37Z</time>
      </trkpt>
      <trkpt lat="42.3386160" lon="-2.5374240">
        <ele>792.1</ele>
        <time>2022-08-13T08:16:39Z</time>
      </trkpt>
      <trkpt lat="42.3385960" lon="-2.5375130">
        <ele>792.8</ele>
        <time>2022-08-13T08:16:43Z</time>
      </trkpt>
      <trkpt lat="42.3385940" lon="-2.5375590">
        <ele>793.2</ele>
        <time>2022-08-13T08:16:45Z</time>
      </trkpt>
      <trkpt lat="42.3385840" lon="-2.5377010">
        <ele>794.3</ele>
        <time>2022-08-13T08:16:52Z</time>
      </trkpt>
      <trkpt lat="42.3385820" lon="-2.5377210">
        <ele>794.5</ele>
        <time>2022-08-13T08:16:53Z</time>
      </trkpt>
      <trkpt lat="42.3385670" lon="-2.5378220">
        <ele>795.3</ele>
        <time>2022-08-13T08:16:58Z</time>
      </trkpt>
      <trkpt lat="42.3385540" lon="-2.5379260">
        <ele>796.1</ele>
        <time>2022-08-13T08:17:03Z</time>
      </trkpt>
      <trkpt lat="42.3385500" lon="-2.5379450">
        <ele>796.2</ele>
        <time>2022-08-13T08:17:04Z</time>
      </trkpt>
      <trkpt lat="42.3385310" lon="-2.5380370">
        <ele>797.0</ele>
        <time>2022-08-13T08:17:09Z</time>
      </trkpt>
      <trkpt lat="42.3385130" lon="-2.5380950">
        <ele>797.4</ele>
        <time>2022-08-13T08:17:12Z</time>
      </trkpt>
      <trkpt lat="42.3384690" lon="-2.5382040">
        <ele>798.3</ele>
        <time>2022-08-13T08:17:18Z</time>
      </trkpt>
      <trkpt lat="42.3384530" lon="-2.5382450">
        <ele>798.6</ele>
        <time>2022-08-13T08:17:20Z</time>
      </trkpt>
      <trkpt lat="42.3384050" lon="-2.5383630">
        <ele>799.6</ele>
        <time>2022-08-13T08:17:26Z</time>
      </trkpt>
      <trkpt lat="42.3383990" lon="-2.5383830">
        <ele>799.7</ele>
        <time>2022-08-13T08:17:27Z</time>
      </trkpt>
      <trkpt lat="42.3383620" lon="-2.5384880">
        <ele>800.6</ele>
        <time>2022-08-13T08:17:33Z</time>
      </trkpt>
      <trkpt lat="42.3383240" lon="-2.5386070">
        <ele>801.5</ele>
        <time>2022-08-13T08:17:39Z</time>
      </trkpt>
      <trkpt lat="42.3382950" lon="-2.5387510">
        <ele>802.6</ele>
        <time>2022-08-13T08:17:46Z</time>
      </trkpt>
      <trkpt lat="42.3382940" lon="-2.5387680">
        <ele>802.7</ele>
        <time>2022-08-13T08:17:47Z</time>
      </trkpt>
      <trkpt lat="42.3382970" lon="-2.5388860">
        <ele>803.5</ele>
        <time>2022-08-13T08:17:53Z</time>
      </trkpt>
      <trkpt lat="42.3383040" lon="-2.5389890">
        <ele>804.3</ele>
        <time>2022-08-13T08:17:58Z</time>
      </trkpt>
      <trkpt lat="42.3383050" lon="-2.5390260">
        <ele>804.5</ele>
        <time>2022-08-13T08:18:00Z</time>
      </trkpt>
      <trkpt lat="42.3383000" lon="-2.5391710">
        <ele>805.6</ele>
        <time>2022-08-13T08:18:07Z</time>
      </trkpt>
      <trkpt lat="42.3382940" lon="-2.5392140">
        <ele>805.9</ele>
        <time>2022-08-13T08:18:09Z</time>
      </trkpt>
      <trkpt lat="42.3382620" lon="-2.5393090">
        <ele>806.5</ele>
        <time>2022-08-13T08:18:14Z</time>
      </trkpt>
      <trkpt lat="42.3382440" lon="-2.5393610">
        <ele>806.9</ele>
        <time>2022-08-13T08:18:17Z</time>
      </trkpt>
      <trkpt lat="42.3382140" lon="-2.5395120">
        <ele>807.8</ele>
        <time>2022-08-13T08:18:24Z</time>
      </trkpt>
      <trkpt lat="42.3382160" lon="-2.5395330">
        <ele>808.0</ele>
        <time>2022-08-13T08:18:25Z</time>
      </trkpt>
      <trkpt lat="42.3382370" lon="-2.5396460">
        <ele>808.7</ele>
        <time>2022-08-13T08:18:31Z</time>
      </trkpt>
      <trkpt lat="42.3382410" lon="-2.5396990">
        <ele>809.1</ele>
        <time>2022-08-13T08:18:34Z</time>
      </trkpt>
      <trkpt lat="42.3382420" lon="-2.5397380">
        <ele>809.4</ele>
        <time>2022-08-13T08:18:36Z</time>
      </trkpt>
      <trkpt lat="42.3382420" lon="-2.5397580">
        <ele>809.6</ele>
        <time>2022-08-13T08:18:37Z</time>
      </trkpt>
      <trkpt lat="42.3382390" lon="-2.5398860">
        <ele>810.6</ele>
        <time>2022-08-13T08:18:43Z</time>
      </trkpt>
      <trkpt lat="42.3382330" lon="-2.5399440">
        <ele>811.1</ele>
        <time>2022-08-13T08:18:46Z</time>
      </trkpt>
      <trkpt lat="42.3382220" lon="-2.5400010">
        <ele>811.6</ele>
        <time>2022-08-13T08:18:49Z</time>
      </trkpt>
      <trkpt lat="42.3381950" lon="-2.5401130">
        <ele>812.5</ele>
        <time>2022-08-13T08:18:55Z</time>
      </trkpt>
      <trkpt lat="42.3381800" lon="-2.5403180">
        <ele>813.8</ele>
        <time>2022-08-13T08:19:05Z</time>
      </trkpt>
      <trkpt lat="42.3381800" lon="-2.5403400">
        <ele>813.9</ele>
        <time>2022-08-13T08:19:06Z</time>
      </trkpt>
      <trkpt lat="42.3381680" lon="-2.5405040">
        <ele>814.9</ele>
        <time>2022-08-13T08:19:14Z</time>
      </trkpt>
      <trkpt lat="42.3381630" lon="-2.5405440">
        <ele>815.1</ele>
        <time>2022-08-13T08:19:16Z</time>
      </trkpt>
      <trkpt lat="42.3381460" lon="-2.5406660">
        <ele>815.9</ele>
        <time>2022-08-13T08:19:22Z</time>
      </trkpt>
      <trkpt lat="42.3381160" lon="-2.5408310">
        <ele>817.0</ele>
        <time>2022-08-13T08:19:30Z</time>
      </trkpt>
      <trkpt lat="42.3381100" lon="-2.5408780">
        <ele>817.3</ele>
        <time>2022-08-13T08:19:32Z</time>
      </trkpt>
      <trkpt lat="42.3381070" lon="-2.5409360">
        <ele>817.8</ele>
        <time>2022-08-13T08:19:35Z</time>
      </trkpt>
      <trkpt lat="42.3381250" lon="-2.5410570">
        <ele>818.7</ele>
        <time>2022-08-13T08:19:41Z</time>
      </trkpt>
      <trkpt lat="42.3381940" lon="-2.5412130">
        <ele>820.0</ele>
        <time>2022-08-13T08:19:49Z</time>
      </trkpt>
      <trkpt lat="42.3382040" lon="-2.5412550">
        <ele>820.3</ele>
        <time>2022-08-13T08:19:51Z</time>
      </trkpt>
      <trkpt lat="42.3382100" lon="-2.5413590">
        <ele>821.1</ele>
        <time>2022-08-13T08:19:56Z</time>
      </trkpt>
      <trkpt lat="42.3382150" lon="-2.5414430">
        <ele>821.8</ele>
        <time>2022-08-13T08:20:00Z</time>
      </trkpt>
      <trkpt lat="42.3382210" lon="-2.5415470">
        <ele>822.7</ele>
        <time>2022-08-13T08:20:05Z</time>
      </trkpt>
      <trkpt lat="42.3382220" lon="-2.5415650">
        <ele>822.8</ele>
        <time>2022-08-13T08:20:06Z</time>
      </trkpt>
      <trkpt lat="42.3382240" lon="-2.5415990">
        <ele>823.2</ele>
        <time>2022-08-13T08:20:08Z</time>
      </trkpt>
      <trkpt lat="42.3382370" lon="-2.5416810">
        <ele>823.9</ele>
        <time>2022-08-13T08:20:12Z</time>
      </trkpt>
      <trkpt lat="42.3382480" lon="-2.5417840">
        <ele>824.8</ele>
        <time>2022-08-13T08:20:17Z</time>
      </trkpt>
      <trkpt lat="42.3382520" lon="-2.5418270">
        <ele>825.2</ele>
        <time>2022-08-13T08:20:19Z</time>
      </trkpt>
      <trkpt lat="42.3382550" lon="-2.5418750">
        <ele>825.7</ele>
        <time>2022-08-13T08:20:22Z</time>
      </trkpt>
      <trkpt lat="42.3382710" lon="-2.5420330">
        <ele>827.1</ele>
        <time>2022-08-13T08:20:30Z</time>
      </trkpt>
      <trkpt lat="42.3382740" lon="-2.5420500">
        <ele>827.3</ele>
        <time>2022-08-13T08:20:31Z</time>
      </trkpt>
      <trkpt lat="42.3382820" lon="-2.5421320">
        <ele>828.1</ele>
        <time>2022-08-13T08:20:35Z</time>
      </trkpt>
      <trkpt lat="42.3382870" lon="-2.5421730">
        <ele>828.5</ele>
        <time>2022-08-13T08:20:37Z</time>
      </trkpt>
      <trkpt lat="42.3382880" lon="-2.5421890">
        <ele>828.7</ele>
        <time>2022-08-13T08:20:38Z</time>
      </trkpt>
      <trkpt lat="42.3382840" lon="-2.5422610">
        <ele>829.4</ele>
        <time>2022-08-13T08:20:42Z</time>
      </trkpt>
      <trkpt lat="42.3382830" lon="-2.5422970">
        <ele>829.7</ele>
        <time>2022-08-13T08:20:44Z</time>
      </trkpt>
      <trkpt lat="42.3382880" lon="-2.5424110">
        <ele>830.8</ele>
        <time>2022-08-13T08:20:50Z</time>
      </trkpt>
      <trkpt lat="42.3382870" lon="-2.5424320">
        <ele>831.0</ele>
        <time>2022-08-13T08:20:51Z</time>
      </trkpt>
      <trkpt lat="42.3382830" lon="-2.5425260">
        <ele>831.9</ele>
        <time>2022-08-13T08:20:56Z</time>
      </trkpt>
      <trkpt lat="42.3382990" lon="-2.5426590">
        <ele>833.0</ele>
        <time>2022-08-13T08:21:03Z</time>
      </trkpt>
      <trkpt lat="42.3383020" lon="-2.5426750">
        <ele>833.2</ele>
        <time>2022-08-13T08:21:04Z</time>
      </trkpt>
      <trkpt lat="42.3383130" lon="-2.5428020">
        <ele>834.3</ele>
        <time>2022-08-13T08:21:11Z</time>
      </trkpt>
      <trkpt lat="42.3383130" lon="-2.5428190">
        <ele>834.5</ele>
        <time>2022-08-13T08:21:12Z</time>
      </trkpt>
      <trkpt lat="42.3383150" lon="-2.5428590">
        <ele>834.8</ele>
        <time>2022-08-13T08:22:19Z</time>
      </trkpt>
      <trkpt lat="42.3383160" lon="-2.5428720">
        <ele>835.0</ele>
        <time>2022-08-13T08:22:20Z</time>
      </trkpt>
      <trkpt lat="42.3383150" lon="-2.5429260">
        <ele>835.5</ele>
        <time>2022-08-13T08:22:24Z</time>
      </trkpt>
      <trkpt lat="42.3383120" lon="-2.5429520">
        <ele>835.7</ele>
        <time>2022-08-13T08:22:26Z</time>
      </trkpt>
      <trkpt lat="42.3383100" lon="-2.5430600">
        <ele>836.7</ele>
        <time>2022-08-13T08:22:34Z</time>
      </trkpt>
      <trkpt lat="42.3383090" lon="-2.5430730">
        <ele>836.8</ele>
        <time>2022-08-13T08:22:35Z</time>
      </trkpt>
      <trkpt lat="42.3383140" lon="-2.5431090">
        <ele>837.1</ele>
        <time>2022-08-13T08:22:38Z</time>
      </trkpt>
      <trkpt lat="42.3383170" lon="-2.5431810">
        <ele>837.8</ele>
        <time>2022-08-13T08:22:43Z</time>
      </trkpt>
      <trkpt lat="42.3383220" lon="-2.5432360">
        <ele>838.2</ele>
        <time>2022-08-13T08:22:47Z</time>
      </trkpt>
      <trkpt lat="42.3383230" lon="-2.5432930">
        <ele>838.7</ele>
        <time>2022-08-13T08:22:52Z</time>
      </trkpt>
      <trkpt lat="42.3383330" lon="-2.5433870">
        <ele>839.5</ele>
        <time>2022-08-13T08:23:00Z</time>
      </trkpt>
      <trkpt lat="42.3383380" lon="-2.5434270">
        <ele>839.9</ele>
        <time>2022-08-13T08:23:03Z</time>
      </trkpt>
      <trkpt lat="42.3383380" lon="-2.5434520">
        <ele>840.1</ele>
        <time>2022-08-13T08:23:05Z</time>
      </trkpt>
      <trkpt lat="42.3383390" lon="-2.5434890">
        <ele>840.4</ele>
        <time>2022-08-13T08:23:08Z</time>
      </trkpt>
      <trkpt lat="42.3383440" lon="-2.5435290">
        <ele>840.7</ele>
        <time>2022-08-13T08:23:11Z</time>
      </trkpt>
      <trkpt lat="42.3383510" lon="-2.5436110">
        <ele>841.4</ele>
        <time>2022-08-13T08:23:18Z</time>
      </trkpt>
      <trkpt lat="42.3383510" lon="-2.5436350">
        <ele>841.6</ele>
        <time>2022-08-13T08:23:20Z</time>
      </trkpt>
      <trkpt lat="42.3383560" lon="-2.5437240">
        <ele>842.4</ele>
        <time>2022-08-13T08:23:27Z</time>
      </trkpt>
      <trkpt lat="42.3383550" lon="-2.5437380">
        <ele>842.5</ele>
        <time>2022-08-13T08:23:28Z</time>
      </trkpt>
      <trkpt lat="42.3383540" lon="-2.5437500">
        <ele>842.6</ele>
        <time>2022-08-13T08:23:29Z</time>
      </trkpt>
      <trkpt lat="42.3383530" lon="-2.5437870">
        <ele>842.9</ele>
        <time>2022-08-13T08:23:32Z</time>
      </trkpt>
      <trkpt lat="42.3383520" lon="-2.5438210">
        <ele>843.2</ele>
        <time>2022-08-13T08:23:35Z</time>
      </trkpt>
      <trkpt lat="42.3383460" lon="-2.5439120">
        <ele>844.0</ele>
        <time>2022-08-13T08:23:43Z</time>
      </trkpt>
      <trkpt lat="42.3383450" lon="-2.5439240">
        <ele>844.1</ele>
        <time>2022-08-13T08:23:44Z</time>
      </trkpt>
      <trkpt lat="42.3383290" lon="-2.5440170">
        <ele>845.0</ele>
        <time>2022-08-13T08:23:53Z</time>
      </trkpt>
      <trkpt lat="42.3383190" lon="-2.5441030">
        <ele>845.9</ele>
        <time>2022-08-13T08:24:01Z</time>
      </trkpt>
      <trkpt lat="42.3383160" lon="-2.5441130">
        <ele>846.0</ele>
        <time>2022-08-13T08:24:02Z</time>
      </trkpt>
      <trkpt lat="42.3383200" lon="-2.5442030">
        <ele>846.8</ele>
        <time>2022-08-13T08:24:10Z</time>
      </trkpt>
      <trkpt lat="42.3383160" lon="-2.5442360">
        <ele>847.1</ele>
        <time>2022-08-13T08:24:13Z</time>
      </trkpt>
      <trkpt lat="42.3383250" lon="-2.5443130">
        <ele>847.8</ele>
        <time>2022-08-13T08:24:20Z</time>
      </trkpt>
      <trkpt lat="42.3383320" lon="-2.5443660">
        <ele>848.3</ele>
        <time>2022-08-13T08:24:25Z</time>
      </trkpt>
      <trkpt lat="42.3383330" lon="-2.5444280">
        <ele>848.9</ele>
        <time>2022-08-13T08:24:30Z</time>
      </trkpt>
      <trkpt lat="42.3383340" lon="-2.5444330">
        <ele>848.9</ele>
        <time>2022-08-13T08:24:31Z</time>
      </trkpt>
      <trkpt lat="42.3383290" lon="-2.5444470">
        <ele>849.0</ele>
        <time>2022-08-13T08:24:40Z</time>
      </trkpt>
      <trkpt lat="42.3383290" lon="-2.5444710">
        <ele>849.2</ele>
        <time>2022-08-13T08:24:42Z</time>
      </trkpt>
      <trkpt lat="42.3383250" lon="-2.5445600">
        <ele>850.0</ele>
        <time>2022-08-13T08:24:49Z</time>
      </trkpt>
      <trkpt lat="42.3383220" lon="-2.5445990">
        <ele>850.3</ele>
        <time>2022-08-13T08:24:52Z</time>
      </trkpt>
      <trkpt lat="42.3383180" lon="-2.5446510">
        <ele>850.8</ele>
        <time>2022-08-13T08:24:56Z</time>
      </trkpt>
      <trkpt lat="42.3383160" lon="-2.5446770">
        <ele>851.0</ele>
        <time>2022-08-13T08:24:58Z</time>
      </trkpt>
      <trkpt lat="42.3383140" lon="-2.5447830">
        <ele>851.9</ele>
        <time>2022-08-13T08:25:06Z</time>
      </trkpt>
      <trkpt lat="42.3383150" lon="-2.5447940">
        <ele>851.9</ele>
        <time>2022-08-13T08:25:07Z</time>
      </trkpt>
      <trkpt lat="42.3383160" lon="-2.5448500">
        <ele>852.4</ele>
        <time>2022-08-13T08:25:12Z</time>
      </trkpt>
      <trkpt lat="42.3383140" lon="-2.5448610">
        <ele>852.5</ele>
        <time>2022-08-13T08:25:13Z</time>
      </trkpt>
      <trkpt lat="42.3383080" lon="-2.5449200">
        <ele>853.0</ele>
        <time>2022-08-13T08:25:19Z</time>
      </trkpt>
      <trkpt lat="42.3383080" lon="-2.5449200">
        <ele>853.0</ele>
        <time>2022-08-13T08:25:23Z</time>
      </trkpt>
      <trkpt lat="42.3383080" lon="-2.5449200">
        <ele>853.0</ele>
        <time>2022-08-13T08:25:24Z</time>
      </trkpt>
      <trkpt lat="42.3383060" lon="-2.5449250">
        <ele>853.1</ele>
        <time>2022-08-13T08:25:25Z</time>
      </trkpt>
      <trkpt lat="42.3383260" lon="-2.5450040">
        <ele>853.8</ele>
        <time>2022-08-13T08:25:33Z</time>
      </trkpt>
      <trkpt lat="42.3383270" lon="-2.5450100">
        <ele>853.9</ele>
        <time>2022-08-13T08:25:34Z</time>
      </trkpt>
      <trkpt lat="42.3383300" lon="-2.5450170">
        <ele>854.0</ele>
        <time>2022-08-13T08:25:35Z</time>
      </trkpt>
      <trkpt lat="42.3383310" lon="-2.5450200">
        <ele>854.0</ele>
        <time>2022-08-13T08:25:36Z</time>
      </trkpt>
      <trkpt lat="42.3383280" lon="-2.5450360">
        <ele>854.1</ele>
        <time>2022-08-13T08:27:14Z</time>
      </trkpt>
      <trkpt lat="42.3383300" lon="-2.5450510">
        <ele>854.3</ele>
        <time>2022-08-13T08:27:15Z</time>
      </trkpt>
      <trkpt lat="42.3383320" lon="-2.5450940">
        <ele>854.7</ele>
        <time>2022-08-13T08:27:17Z</time>
      </trkpt>
      <trkpt lat="42.3383290" lon="-2.5451180">
        <ele>854.9</ele>
        <time>2022-08-13T08:27:18Z</time>
      </trkpt>
      <trkpt lat="42.3383270" lon="-2.5451660">
        <ele>855.3</ele>
        <time>2022-08-13T08:27:20Z</time>
      </trkpt>
      <trkpt lat="42.3383200" lon="-2.5452120">
        <ele>855.7</ele>
        <time>2022-08-13T08:27:22Z</time>
      </trkpt>
      <trkpt lat="42.3383060" lon="-2.5452670">
        <ele>856.2</ele>
        <time>2022-08-13T08:27:25Z</time>
      </trkpt>
      <trkpt lat="42.3382990" lon="-2.5453060">
        <ele>856.6</ele>
        <time>2022-08-13T08:27:27Z</time>
      </trkpt>
      <trkpt lat="42.3382870" lon="-2.5453600">
        <ele>857.1</ele>
        <time>2022-08-13T08:27:30Z</time>
      </trkpt>
      <trkpt lat="42.3382750" lon="-2.5454160">
        <ele>857.6</ele>
        <time>2022-08-13T08:27:33Z</time>
      </trkpt>
      <trkpt lat="42.3382530" lon="-2.5454830">
        <ele>858.2</ele>
        <time>2022-08-13T08:27:37Z</time>
      </trkpt>
      <trkpt lat="42.3382480" lon="-2.5455030">
        <ele>858.4</ele>
        <time>2022-08-13T08:27:38Z</time>
      </trkpt>
      <trkpt lat="42.3382440" lon="-2.5455230">
        <ele>858.6</ele>
        <time>2022-08-13T08:27:39Z</time>
      </trkpt>
      <trkpt lat="42.3382290" lon="-2.5455960">
        <ele>859.2</ele>
        <time>2022-08-13T08:27:43Z</time>
      </trkpt>
      <trkpt lat="42.3382180" lon="-2.5456520">
        <ele>859.7</ele>
        <time>2022-08-13T08:27:46Z</time>
      </trkpt>
      <trkpt lat="42.3382140" lon="-2.5456700">
        <ele>859.9</ele>
        <time>2022-08-13T08:27:47Z</time>
      </trkpt>
      <trkpt lat="42.3382080" lon="-2.5457800">
        <ele>860.9</ele>
        <time>2022-08-13T08:27:53Z</time>
      </trkpt>
      <trkpt lat="42.3382060" lon="-2.5458370">
        <ele>861.5</ele>
        <time>2022-08-13T08:27:56Z</time>
      </trkpt>
      <trkpt lat="42.3382000" lon="-2.5459070">
        <ele>862.2</ele>
        <time>2022-08-13T08:28:00Z</time>
      </trkpt>
      <trkpt lat="42.3381890" lon="-2.5459950">
        <ele>863.1</ele>
        <time>2022-08-13T08:28:05Z</time>
      </trkpt>
      <trkpt lat="42.3381800" lon="-2.5460440">
        <ele>863.5</ele>
        <time>2022-08-13T08:28:08Z</time>
      </trkpt>
      <trkpt lat="42.3381740" lon="-2.5461100">
        <ele>864.2</ele>
        <time>2022-08-13T08:28:12Z</time>
      </trkpt>
      <trkpt lat="42.3381650" lon="-2.5461560">
        <ele>864.7</ele>
        <time>2022-08-13T08:28:15Z</time>
      </trkpt>
      <trkpt lat="42.3381580" lon="-2.5461980">
        <ele>865.1</ele>
        <time>2022-08-13T08:28:18Z</time>
      </trkpt>
      <trkpt lat="42.3381270" lon="-2.5462370">
        <ele>865.5</ele>
        <time>2022-08-13T08:28:29Z</time>
      </trkpt>
      <trkpt lat="42.3381250" lon="-2.5462400">
        <ele>865.6</ele>
        <time>2022-08-13T08:28:30Z</time>
      </trkpt>
      <trkpt lat="42.3381200" lon="-2.5462720">
        <ele>865.8</ele>
        <time>2022-08-13T08:28:34Z</time>
      </trkpt>
      <trkpt lat="42.3380960" lon="-2.5462860">
        <ele>866.1</ele>
        <time>2022-08-13T08:29:12Z</time>
      </trkpt>
      <trkpt lat="42.3380950" lon="-2.5463050">
        <ele>866.3</ele>
        <time>2022-08-13T08:29:13Z</time>
      </trkpt>
      <trkpt lat="42.3380930" lon="-2.5463270">
        <ele>866.5</ele>
        <time>2022-08-13T08:29:14Z</time>
      </trkpt>
      <trkpt lat="42.3380460" lon="-2.5465030">
        <ele>868.0</ele>
        <time>2022-08-13T08:29:23Z</time>
      </trkpt>
      <trkpt lat="42.3380300" lon="-2.5465520">
        <ele>868.4</ele>
        <time>2022-08-13T08:29:26Z</time>
      </trkpt>
      <trkpt lat="42.3379920" lon="-2.5466550">
        <ele>869.4</ele>
        <time>2022-08-13T08:29:32Z</time>
      </trkpt>
      <trkpt lat="42.3379520" lon="-2.5467960">
        <ele>870.7</ele>
        <time>2022-08-13T08:29:40Z</time>
      </trkpt>
      <trkpt lat="42.3379440" lon="-2.5468320">
        <ele>871.0</ele>
        <time>2022-08-13T08:29:42Z</time>
      </trkpt>
      <trkpt lat="42.3379220" lon="-2.5469150">
        <ele>871.8</ele>
        <time>2022-08-13T08:29:47Z</time>
      </trkpt>
      <trkpt lat="42.3379170" lon="-2.5469460">
        <ele>872.0</ele>
        <time>2022-08-13T08:29:49Z</time>
      </trkpt>
      <trkpt lat="42.3378800" lon="-2.5470490">
        <ele>873.0</ele>
        <time>2022-08-13T08:29:55Z</time>
      </trkpt>
      <trkpt lat="42.3378600" lon="-2.5471010">
        <ele>873.6</ele>
        <time>2022-08-13T08:29:58Z</time>
      </trkpt>
      <trkpt lat="42.3378420" lon="-2.5471600">
        <ele>874.1</ele>
        <time>2022-08-13T08:30:02Z</time>
      </trkpt>
      <trkpt lat="42.3378050" lon="-2.5472390">
        <ele>875.1</ele>
        <time>2022-08-13T08:30:07Z</time>
      </trkpt>
      <trkpt lat="42.3377730" lon="-2.5473080">
        <ele>875.9</ele>
        <time>2022-08-13T08:30:12Z</time>
      </trkpt>
      <trkpt lat="42.3377620" lon="-2.5473390">
        <ele>876.2</ele>
        <time>2022-08-13T08:30:14Z</time>
      </trkpt>
      <trkpt lat="42.3377310" lon="-2.5474080">
        <ele>877.1</ele>
        <time>2022-08-13T08:30:19Z</time>
      </trkpt>
      <trkpt lat="42.3377260" lon="-2.5474240">
        <ele>877.2</ele>
        <time>2022-08-13T08:30:20Z</time>
      </trkpt>
      <trkpt lat="42.3376820" lon="-2.5475130">
        <ele>878.3</ele>
        <time>2022-08-13T08:30:27Z</time>
      </trkpt>
      <trkpt lat="42.3376630" lon="-2.5475530">
        <ele>878.8</ele>
        <time>2022-08-13T08:30:30Z</time>
      </trkpt>
      <trkpt lat="42.3376470" lon="-2.5475950">
        <ele>879.3</ele>
        <time>2022-08-13T08:30:33Z</time>
      </trkpt>
      <trkpt lat="42.3376370" lon="-2.5476600">
        <ele>879.9</ele>
        <time>2022-08-13T08:30:37Z</time>
      </trkpt>
      <trkpt lat="42.3376320" lon="-2.5476750">
        <ele>880.1</ele>
        <time>2022-08-13T08:30:38Z</time>
      </trkpt>
      <trkpt lat="42.3376200" lon="-2.5477070">
        <ele>880.4</ele>
        <time>2022-08-13T08:30:40Z</time>
      </trkpt>
      <trkpt lat="42.3375990" lon="-2.5477660">
        <ele>881.1</ele>
        <time>2022-08-13T08:30:44Z</time>
      </trkpt>
      <trkpt lat="42.3375960" lon="-2.5477980">
        <ele>881.4</ele>
        <time>2022-08-13T08:30:46Z</time>
      </trkpt>
      <trkpt lat="42.3375920" lon="-2.5478120">
        <ele>881.5</ele>
        <time>2022-08-13T08:30:47Z</time>
      </trkpt>
      <trkpt lat="42.3375590" lon="-2.5479080">
        <ele>882.5</ele>
        <time>2022-08-13T08:30:53Z</time>
      </trkpt>
      <trkpt lat="42.3375460" lon="-2.5479540">
        <ele>883.0</ele>
        <time>2022-08-13T08:30:56Z</time>
      </trkpt>
      <trkpt lat="42.3375290" lon="-2.5479950">
        <ele>883.5</ele>
        <time>2022-08-13T08:30:59Z</time>
      </trkpt>
      <trkpt lat="42.3375220" lon="-2.5480090">
        <ele>883.6</ele>
        <time>2022-08-13T08:31:00Z</time>
      </trkpt>
      <trkpt lat="42.3375050" lon="-2.5480490">
        <ele>884.1</ele>
        <time>2022-08-13T08:31:03Z</time>
      </trkpt>
      <trkpt lat="42.3374880" lon="-2.5481210">
        <ele>884.8</ele>
        <time>2022-08-13T08:31:08Z</time>
      </trkpt>
      <trkpt lat="42.3374870" lon="-2.5481350">
        <ele>884.9</ele>
        <time>2022-08-13T08:31:09Z</time>
      </trkpt>
      <trkpt lat="42.3374770" lon="-2.5481630">
        <ele>885.2</ele>
        <time>2022-08-13T08:31:11Z</time>
      </trkpt>
      <trkpt lat="42.3374630" lon="-2.5482050">
        <ele>885.7</ele>
        <time>2022-08-13T08:31:14Z</time>
      </trkpt>
      <trkpt lat="42.3374470" lon="-2.5483060">
        <ele>886.7</ele>
        <time>2022-08-13T08:31:20Z</time>
      </trkpt>
      <trkpt lat="42.3374420" lon="-2.5483210">
        <ele>886.8</ele>
        <time>2022-08-13T08:31:21Z</time>
      </trkpt>
      <trkpt lat="42.3374240" lon="-2.5484200">
        <ele>887.9</ele>
        <time>2022-08-13T08:31:27Z</time>
      </trkpt>
      <trkpt lat="42.3374190" lon="-2.5484480">
        <ele>888.2</ele>
        <time>2022-08-13T08:31:29Z</time>
      </trkpt>
      <trkpt lat="42.3374050" lon="-2.5485410">
        <ele>889.1</ele>
        <time>2022-08-13T08:31:35Z</time>
      </trkpt>
      <trkpt lat="42.3373900" lon="-2.5486180">
        <ele>890.0</ele>
        <time>2022-08-13T08:31:40Z</time>
      </trkpt>
      <trkpt lat="42.3373810" lon="-2.5486790">
        <ele>890.6</ele>
        <time>2022-08-13T08:31:44Z</time>
      </trkpt>
      <trkpt lat="42.3373780" lon="-2.5487380">
        <ele>891.2</ele>
        <time>2022-08-13T08:31:48Z</time>
      </trkpt>
      <trkpt lat="42.3373740" lon="-2.5487860">
        <ele>891.7</ele>
        <time>2022-08-13T08:31:51Z</time>
      </trkpt>
      <trkpt lat="42.3373710" lon="-2.5488230">
        <ele>892.1</ele>
        <time>2022-08-13T08:31:53Z</time>
      </trkpt>
      <trkpt lat="42.3373650" lon="-2.5488930">
        <ele>892.8</ele>
        <time>2022-08-13T08:31:58Z</time>
      </trkpt>
      <trkpt lat="42.3373490" lon="-2.5489690">
        <ele>893.6</ele>
        <time>2022-08-13T08:32:03Z</time>
      </trkpt>
      <trkpt lat="42.3373410" lon="-2.5490130">
        <ele>894.0</ele>
        <time>2022-08-13T08:32:06Z</time>
      </trkpt>
      <trkpt lat="42.3373270" lon="-2.5490900">
        <ele>894.8</ele>
        <time>2022-08-13T08:32:11Z</time>
      </trkpt>
      <trkpt lat="42.3373240" lon="-2.5491870">
        <ele>895.7</ele>
        <time>2022-08-13T08:32:17Z</time>
      </trkpt>
      <trkpt lat="42.3373230" lon="-2.5492190">
        <ele>896.1</ele>
        <time>2022-08-13T08:32:19Z</time>
      </trkpt>
      <trkpt lat="42.3373190" lon="-2.5493050">
        <ele>896.9</ele>
        <time>2022-08-13T08:32:25Z</time>
      </trkpt>
      <trkpt lat="42.3373110" lon="-2.5493340">
        <ele>897.2</ele>
        <time>2022-08-13T08:32:27Z</time>
      </trkpt>
      <trkpt lat="42.3373090" lon="-2.5493480">
        <ele>897.4</ele>
        <time>2022-08-13T08:32:28Z</time>
      </trkpt>
      <trkpt lat="42.3372980" lon="-2.5494030">
        <ele>897.9</ele>
        <time>2022-08-13T08:32:32Z</time>
      </trkpt>
      <trkpt lat="42.3372910" lon="-2.5494390">
        <ele>898.3</ele>
        <time>2022-08-13T08:32:34Z</time>
      </trkpt>
      <trkpt lat="42.3372810" lon="-2.5495560">
        <ele>899.5</ele>
        <time>2022-08-13T08:32:41Z</time>
      </trkpt>
      <trkpt lat="42.3372730" lon="-2.5495830">
        <ele>899.8</ele>
        <time>2022-08-13T08:32:43Z</time>
      </trkpt>
      <trkpt lat="42.3372640" lon="-2.5496660">
        <ele>900.7</ele>
        <time>2022-08-13T08:32:48Z</time>
      </trkpt>
      <trkpt lat="42.3372600" lon="-2.5497320">
        <ele>901.4</ele>
        <time>2022-08-13T08:32:52Z</time>
      </trkpt>
      <trkpt lat="42.3372560" lon="-2.5497760">
        <ele>901.8</ele>
        <time>2022-08-13T08:32:55Z</time>
      </trkpt>
      <trkpt lat="42.3372490" lon="-2.5498480">
        <ele>902.6</ele>
        <time>2022-08-13T08:33:00Z</time>
      </trkpt>
      <trkpt lat="42.3372410" lon="-2.5499060">
        <ele>903.3</ele>
        <time>2022-08-13T08:33:04Z</time>
      </trkpt>
      <trkpt lat="42.3372360" lon="-2.5499340">
        <ele>903.6</ele>
        <time>2022-08-13T08:33:06Z</time>
      </trkpt>
      <trkpt lat="42.3372380" lon="-2.5499660">
        <ele>903.9</ele>
        <time>2022-08-13T08:33:08Z</time>
      </trkpt>
      <trkpt lat="42.3372370" lon="-2.5499780">
        <ele>904.0</ele>
        <time>2022-08-13T08:33:09Z</time>
      </trkpt>
      <trkpt lat="42.3372180" lon="-2.5500500">
        <ele>904.9</ele>
        <time>2022-08-13T08:33:14Z</time>
      </trkpt>
      <trkpt lat="42.3372170" lon="-2.5501260">
        <ele>905.7</ele>
        <time>2022-08-13T08:33:19Z</time>
      </trkpt>
      <trkpt lat="42.3372130" lon="-2.5501900">
        <ele>906.4</ele>
        <time>2022-08-13T08:33:23Z</time>
      </trkpt>
      <trkpt lat="42.3372070" lon="-2.5502640">
        <ele>907.1</ele>
        <time>2022-08-13T08:33:28Z</time>
      </trkpt>
      <trkpt lat="42.3372040" lon="-2.5502810">
        <ele>907.3</ele>
        <time>2022-08-13T08:33:29Z</time>
      </trkpt>
      <trkpt lat="42.3371880" lon="-2.5503650">
        <ele>908.2</ele>
        <time>2022-08-13T08:33:34Z</time>
      </trkpt>
      <trkpt lat="42.3371870" lon="-2.5503950">
        <ele>908.5</ele>
        <time>2022-08-13T08:33:36Z</time>
      </trkpt>
      <trkpt lat="42.3371750" lon="-2.5505090">
        <ele>909.6</ele>
        <time>2022-08-13T08:33:43Z</time>
      </trkpt>
      <trkpt lat="42.3371720" lon="-2.5505250">
        <ele>909.8</ele>
        <time>2022-08-13T08:33:44Z</time>
      </trkpt>
      <trkpt lat="42.3371620" lon="-2.5506100">
        <ele>910.6</ele>
        <time>2022-08-13T08:33:50Z</time>
      </trkpt>
      <trkpt lat="42.3371470" lon="-2.5506670">
        <ele>911.1</ele>
        <time>2022-08-13T08:33:54Z</time>
      </trkpt>
      <trkpt lat="42.3371390" lon="-2.5507450">
        <ele>911.9</ele>
        <time>2022-08-13T08:33:59Z</time>
      </trkpt>
      <trkpt lat="42.3371320" lon="-2.5508310">
        <ele>912.8</ele>
        <time>2022-08-13T08:34:04Z</time>
      </trkpt>
      <trkpt lat="42.3371310" lon="-2.5508450">
        <ele>912.9</ele>
        <time>2022-08-13T08:34:05Z</time>
      </trkpt>
      <trkpt lat="42.3371090" lon="-2.5509390">
        <ele>913.9</ele>
        <time>2022-08-13T08:34:11Z</time>
      </trkpt>
      <trkpt lat="42.3371050" lon="-2.5509590">
        <ele>914.1</ele>
        <time>2022-08-13T08:34:12Z</time>
      </trkpt>
      <trkpt lat="42.3371040" lon="-2.5509700">
        <ele>914.3</ele>
        <time>2022-08-13T08:34:13Z</time>
      </trkpt>
      <trkpt lat="42.3370940" lon="-2.5510400">
        <ele>915.0</ele>
        <time>2022-08-13T08:34:18Z</time>
      </trkpt>
      <trkpt lat="42.3370830" lon="-2.5511010">
        <ele>915.7</ele>
        <time>2022-08-13T08:34:22Z</time>
      </trkpt>
      <trkpt lat="42.3370720" lon="-2.5511450">
        <ele>916.2</ele>
        <time>2022-08-13T08:34:25Z</time>
      </trkpt>
      <trkpt lat="42.3370700" lon="-2.5511640">
        <ele>916.4</ele>
        <time>2022-08-13T08:34:26Z</time>
      </trkpt>
      <trkpt lat="42.3370680" lon="-2.5512350">
        <ele>917.1</ele>
        <time>2022-08-13T08:34:31Z</time>
      </trkpt>
      <trkpt lat="42.3370650" lon="-2.5512480">
        <ele>917.2</ele>
        <time>2022-08-13T08:34:32Z</time>
      </trkpt>
      <trkpt lat="42.3370590" lon="-2.5513010">
        <ele>917.8</ele>
        <time>2022-08-13T08:34:36Z</time>
      </trkpt>
      <trkpt lat="42.3370590" lon="-2.5513290">
        <ele>918.1</ele>
        <time>2022-08-13T08:34:38Z</time>
      </trkpt>
      <trkpt lat="42.3370540" lon="-2.5513740">
        <ele>918.6</ele>
        <time>2022-08-13T08:34:41Z</time>
      </trkpt>
      <trkpt lat="42.3370530" lon="-2.5514480">
        <ele>919.3</ele>
        <time>2022-08-13T08:34:46Z</time>
      </trkpt>
      <trkpt lat="42.3370580" lon="-2.5514960">
        <ele>919.8</ele>
        <time>2022-08-13T08:34:49Z</time>
      </trkpt>
      <trkpt lat="42.3370510" lon="-2.5515730">
        <ele>920.6</ele>
        <time>2022-08-13T08:34:54Z</time>
      </trkpt>
      <trkpt lat="42.3370500" lon="-2.5516240">
        <ele>921.2</ele>
        <time>2022-08-13T08:34:57Z</time>
      </trkpt>
      <trkpt lat="42.3370440" lon="-2.5516720">
        <ele>921.7</ele>
        <time>2022-08-13T08:35:00Z</time>
      </trkpt>
      <trkpt lat="42.3370390" lon="-2.5517610">
        <ele>922.6</ele>
        <time>2022-08-13T08:35:05Z</time>
      </trkpt>
      <trkpt lat="42.3370420" lon="-2.5517960">
        <ele>923.0</ele>
        <time>2022-08-13T08:35:07Z</time>
      </trkpt>
      <trkpt lat="42.3370440" lon="-2.5518130">
        <ele>923.2</ele>
        <time>2022-08-13T08:35:08Z</time>
      </trkpt>
      <trkpt lat="42.3370390" lon="-2.5519000">
        <ele>924.1</ele>
        <time>2022-08-13T08:35:13Z</time>
      </trkpt>
      <trkpt lat="42.3370360" lon="-2.5519160">
        <ele>924.3</ele>
        <time>2022-08-13T08:35:14Z</time>
      </trkpt>
      <trkpt lat="42.3370320" lon="-2.5519730">
        <ele>924.9</ele>
        <time>2022-08-13T08:35:18Z</time>
      </trkpt>
      <trkpt lat="42.3370330" lon="-2.5519860">
        <ele>925.0</ele>
        <time>2022-08-13T08:35:19Z</time>
      </trkpt>
      <trkpt lat="42.3370330" lon="-2.5520130">
        <ele>925.3</ele>
        <time>2022-08-13T08:35:21Z</time>
      </trkpt>
      <trkpt lat="42.3370360" lon="-2.5520230">
        <ele>925.4</ele>
        <time>2022-08-13T08:37:28Z</time>
      </trkpt>
      <trkpt lat="42.3370360" lon="-2.5520250">
        <ele>925.5</ele>
        <time>2022-08-13T08:37:32Z</time>
      </trkpt>
      <trkpt lat="42.3370360" lon="-2.5520250">
        <ele>925.5</ele>
        <time>2022-08-13T08:37:35Z</time>
      </trkpt>
      <trkpt lat="42.3370360" lon="-2.5520250">
        <ele>925.5</ele>
        <time>2022-08-13T08:37:36Z</time>
      </trkpt>
      <trkpt lat="42.3370360" lon="-2.5520250">
        <ele>925.5</ele>
        <time>2022-08-13T08:37:40Z</time>
      </trkpt>
      <trkpt lat="42.3370300" lon="-2.5521350">
        <ele>926.6</ele>
        <time>2022-08-13T08:37:48Z</time>
      </trkpt>
      <trkpt lat="42.3370190" lon="-2.5522250">
        <ele>927.6</ele>
        <time>2022-08-13T08:37:53Z</time>
      </trkpt>
      <trkpt lat="42.3370150" lon="-2.5522560">
        <ele>927.9</ele>
        <time>2022-08-13T08:37:56Z</time>
      </trkpt>
      <trkpt lat="42.3370140" lon="-2.5523030">
        <ele>928.4</ele>
        <time>2022-08-13T08:38:00Z</time>
      </trkpt>
      <trkpt lat="42.3370150" lon="-2.5523240">
        <ele>928.6</ele>
        <time>2022-08-13T08:38:02Z</time>
      </trkpt>
      <trkpt lat="42.3370120" lon="-2.5523340">
        <ele>928.7</ele>
        <time>2022-08-13T08:38:03Z</time>
      </trkpt>
      <trkpt lat="42.3370100" lon="-2.5523470">
        <ele>928.9</ele>
        <time>2022-08-13T08:38:21Z</time>
      </trkpt>
      <trkpt lat="42.3370100" lon="-2.5523470">
        <ele>928.9</ele>
        <time>2022-08-13T08:38:24Z</time>
      </trkpt>
      <trkpt lat="42.3369970" lon="-2.5523890">
        <ele>929.3</ele>
        <time>2022-08-13T08:38:45Z</time>
      </trkpt>
      <trkpt lat="42.3369970" lon="-2.5523890">
        <ele>929.3</ele>
        <time>2022-08-13T08:38:47Z</time>
      </trkpt>
      <trkpt lat="42.3369790" lon="-2.5524850">
        <ele>930.4</ele>
        <time>2022-08-13T08:38:56Z</time>
      </trkpt>
      <trkpt lat="42.3369760" lon="-2.5525660">
        <ele>931.2</ele>
        <time>2022-08-13T08:39:00Z</time>
      </trkpt>
      <trkpt lat="42.3369710" lon="-2.5526000">
        <ele>931.6</ele>
        <time>2022-08-13T08:39:02Z</time>
      </trkpt>
      <trkpt lat="42.3369620" lon="-2.5527030">
        <ele>932.7</ele>
        <time>2022-08-13T08:39:11Z</time>
      </trkpt>
      <trkpt lat="42.3369580" lon="-2.5527130">
        <ele>932.8</ele>
        <time>2022-08-13T08:39:12Z</time>
      </trkpt>
      <trkpt lat="42.3369490" lon="-2.5527560">
        <ele>933.2</ele>
        <time>2022-08-13T08:39:16Z</time>
      </trkpt>
      <trkpt lat="42.3369280" lon="-2.5528040">
        <ele>933.8</ele>
        <time>2022-08-13T08:39:21Z</time>
      </trkpt>
      <trkpt lat="42.3369220" lon="-2.5528650">
        <ele>934.5</ele>
        <time>2022-08-13T08:39:27Z</time>
      </trkpt>
      <trkpt lat="42.3369220" lon="-2.5528750">
        <ele>934.6</ele>
        <time>2022-08-13T08:39:28Z</time>
      </trkpt>
      <trkpt lat="42.3369030" lon="-2.5529280">
        <ele>935.2</ele>
        <time>2022-08-13T08:39:33Z</time>
      </trkpt>
      <trkpt lat="42.3368990" lon="-2.5529510">
        <ele>935.4</ele>
        <time>2022-08-13T08:39:35Z</time>
      </trkpt>
      <trkpt lat="42.3368960" lon="-2.5529630">
        <ele>935.5</ele>
        <time>2022-08-13T08:39:36Z</time>
      </trkpt>
      <trkpt lat="42.3368760" lon="-2.5530290">
        <ele>936.3</ele>
        <time>2022-08-13T08:39:43Z</time>
      </trkpt>
      <trkpt lat="42.3368720" lon="-2.5530540">
        <ele>936.5</ele>
        <time>2022-08-13T08:39:45Z</time>
      </trkpt>
      <trkpt lat="42.3368620" lon="-2.5531260">
        <ele>937.3</ele>
        <time>2022-08-13T08:39:52Z</time>
      </trkpt>
      <trkpt lat="42.3368550" lon="-2.5531730">
        <ele>937.8</ele>
        <time>2022-08-13T08:39:56Z</time>
      </trkpt>
      <trkpt lat="42.3368420" lon="-2.5532720">
        <ele>938.8</ele>
        <time>2022-08-13T08:40:05Z</time>
      </trkpt>
      <trkpt lat="42.3368390" lon="-2.5533230">
        <ele>939.4</ele>
        <time>2022-08-13T08:40:10Z</time>
      </trkpt>
      <trkpt lat="42.3368340" lon="-2.5533610">
        <ele>939.7</ele>
        <time>2022-08-13T08:40:14Z</time>
      </trkpt>
      <trkpt lat="42.3368300" lon="-2.5534050">
        <ele>940.2</ele>
        <time>2022-08-13T08:40:18Z</time>
      </trkpt>
      <trkpt lat="42.3368290" lon="-2.5534190">
        <ele>940.3</ele>
        <time>2022-08-13T08:40:20Z</time>
      </trkpt>
      <trkpt lat="42.3368230" lon="-2.5534380">
        <ele>940.5</ele>
        <time>2022-08-13T08:40:22Z</time>
      </trkpt>
      <trkpt lat="42.3368220" lon="-2.5534840">
        <ele>941.0</ele>
        <time>2022-08-13T08:40:28Z</time>
      </trkpt>
      <trkpt lat="42.3368220" lon="-2.5534840">
        <ele>941.0</ele>
        <time>2022-08-13T08:43:34Z</time>
      </trkpt>
      <trkpt lat="42.3368210" lon="-2.5534870">
        <ele>941.0</ele>
        <time>2022-08-13T08:43:35Z</time>
      </trkpt>
      <trkpt lat="42.3368160" lon="-2.5535330">
        <ele>941.5</ele>
        <time>2022-08-13T08:43:38Z</time>
      </trkpt>
      <trkpt lat="42.3368160" lon="-2.5536010">
        <ele>942.1</ele>
        <time>2022-08-13T08:43:42Z</time>
      </trkpt>
      <trkpt lat="42.3368160" lon="-2.5536320">
        <ele>942.5</ele>
        <time>2022-08-13T08:43:44Z</time>
      </trkpt>
      <trkpt lat="42.3368160" lon="-2.5536430">
        <ele>942.6</ele>
        <time>2022-08-13T08:43:45Z</time>
      </trkpt>
      <trkpt lat="42.3368170" lon="-2.5536600">
        <ele>942.7</ele>
        <time>2022-08-13T08:43:46Z</time>
      </trkpt>
      <trkpt lat="42.3368030" lon="-2.5537060">
        <ele>943.2</ele>
        <time>2022-08-13T08:43:50Z</time>
      </trkpt>
      <trkpt lat="42.3367990" lon="-2.5537320">
        <ele>943.5</ele>
        <time>2022-08-13T08:43:52Z</time>
      </trkpt>
      <trkpt lat="42.3367980" lon="-2.5537610">
        <ele>943.8</ele>
        <time>2022-08-13T08:43:54Z</time>
      </trkpt>
      <trkpt lat="42.3368010" lon="-2.5538090">
        <ele>944.3</ele>
        <time>2022-08-13T08:43:58Z</time>
      </trkpt>
      <trkpt lat="42.3367950" lon="-2.5538280">
        <ele>944.5</ele>
        <time>2022-08-13T08:44:00Z</time>
      </trkpt>
      <trkpt lat="42.3367870" lon="-2.5538560">
        <ele>944.8</ele>
        <time>2022-08-13T08:44:03Z</time>
      </trkpt>
      <trkpt lat="42.3367750" lon="-2.5539040">
        <ele>945.3</ele>
        <time>2022-08-13T08:44:08Z</time>
      </trkpt>
      <trkpt lat="42.3367740" lon="-2.5539100">
        <ele>945.4</ele>
        <time>2022-08-13T08:44:09Z</time>
      </trkpt>
      <trkpt lat="42.3367690" lon="-2.5539120">
        <ele>945.5</ele>
        <time>2022-08-13T08:44:10Z</time>
      </trkpt>
      <trkpt lat="42.3367600" lon="-2.5539280">
        <ele>945.7</ele>
        <time>2022-08-13T08:44:12Z</time>
      </trkpt>
      <trkpt lat="42.3367580" lon="-2.5539350">
        <ele>945.8</ele>
        <time>2022-08-13T08:44:25Z</time>
      </trkpt>
      <trkpt lat="42.3367450" lon="-2.5539670">
        <ele>946.2</ele>
        <time>2022-08-13T08:44:28Z</time>
      </trkpt>
      <trkpt lat="42.3367030" lon="-2.5540480">
        <ele>947.4</ele>
        <time>2022-08-13T08:44:36Z</time>
      </trkpt>
      <trkpt lat="42.3366940" lon="-2.5540660">
        <ele>947.6</ele>
        <time>2022-08-13T08:44:38Z</time>
      </trkpt>
      <trkpt lat="42.3366610" lon="-2.5541260">
        <ele>948.6</ele>
        <time>2022-08-13T08:44:45Z</time>
      </trkpt>
      <trkpt lat="42.3366120" lon="-2.5541790">
        <ele>949.6</ele>
        <time>2022-08-13T08:44:52Z</time>
      </trkpt>
      <trkpt lat="42.3366060" lon="-2.5541880">
        <ele>949.8</ele>
        <time>2022-08-13T08:44:53Z</time>
      </trkpt>
      <trkpt lat="42.3365840" lon="-2.5542830">
        <ele>951.0</ele>
        <time>2022-08-13T08:45:02Z</time>
      </trkpt>
      <trkpt lat="42.3365800" lon="-2.5543050">
        <ele>951.3</ele>
        <time>2022-08-13T08:45:05Z</time>
      </trkpt>
      <trkpt lat="42.3365730" lon="-2.5543500">
        <ele>951.9</ele>
        <time>2022-08-13T08:45:10Z</time>
      </trkpt>
      <trkpt lat="42.3365500" lon="-2.5544080">
        <ele>952.7</ele>
        <time>2022-08-13T08:45:16Z</time>
      </trkpt>
      <trkpt lat="42.3365450" lon="-2.5544390">
        <ele>953.0</ele>
        <time>2022-08-13T08:45:19Z</time>
      </trkpt>
      <trkpt lat="42.3365310" lon="-2.5545050">
        <ele>953.8</ele>
        <time>2022-08-13T08:45:25Z</time>
      </trkpt>
      <trkpt lat="42.3365290" lon="-2.5545160">
        <ele>954.0</ele>
        <time>2022-08-13T08:45:26Z</time>
      </trkpt>
      <trkpt lat="42.3365240" lon="-2.5545360">
        <ele>954.2</ele>
        <time>2022-08-13T08:45:28Z</time>
      </trkpt>
      <trkpt lat="42.3365090" lon="-2.5545810">
        <ele>954.8</ele>
        <time>2022-08-13T08:45:33Z</time>
      </trkpt>
      <trkpt lat="42.3365010" lon="-2.5545960">
        <ele>955.0</ele>
        <time>2022-08-13T08:45:35Z</time>
      </trkpt>
      <trkpt lat="42.3364980" lon="-2.5546400">
        <ele>955.5</ele>
        <time>2022-08-13T08:45:40Z</time>
      </trkpt>
      <trkpt lat="42.3364940" lon="-2.5547090">
        <ele>956.3</ele>
        <time>2022-08-13T08:45:48Z</time>
      </trkpt>
      <trkpt lat="42.3364920" lon="-2.5547280">
        <ele>956.5</ele>
        <time>2022-08-13T08:45:50Z</time>
      </trkpt>
      <trkpt lat="42.3364840" lon="-2.5548060">
        <ele>957.4</ele>
        <time>2022-08-13T08:45:58Z</time>
      </trkpt>
      <trkpt lat="42.3364790" lon="-2.5548420">
        <ele>957.8</ele>
        <time>2022-08-13T08:46:02Z</time>
      </trkpt>
      <trkpt lat="42.3364630" lon="-2.5549070">
        <ele>958.6</ele>
        <time>2022-08-13T08:46:09Z</time>
      </trkpt>
      <trkpt lat="42.3364550" lon="-2.5549210">
        <ele>958.8</ele>
        <time>2022-08-13T08:46:11Z</time>
      </trkpt>
      <trkpt lat="42.3364470" lon="-2.5549320">
        <ele>959.0</ele>
        <time>2022-08-13T08:46:13Z</time>
      </trkpt>
      <trkpt lat="42.3364380" lon="-2.5549740">
        <ele>959.5</ele>
        <time>2022-08-13T08:46:17Z</time>
      </trkpt>
      <trkpt lat="42.3364350" lon="-2.5550040">
        <ele>959.9</ele>
        <time>2022-08-13T08:46:20Z</time>
      </trkpt>
      <trkpt lat="42.3364230" lon="-2.5550690">
        <ele>960.7</ele>
        <time>2022-08-13T08:46:26Z</time>
      </trkpt>
      <trkpt lat="42.3364210" lon="-2.5550880">
        <ele>960.9</ele>
        <time>2022-08-13T08:46:28Z</time>
      </trkpt>
      <trkpt lat="42.3364030" lon="-2.5551420">
        <ele>961.6</ele>
        <time>2022-08-13T08:46:34Z</time>
      </trkpt>
      <trkpt lat="42.3363950" lon="-2.5551660">
        <ele>961.9</ele>
        <time>2022-08-13T08:46:37Z</time>
      </trkpt>
      <trkpt lat="42.3363900" lon="-2.5552120">
        <ele>962.4</ele>
        <time>2022-08-13T08:46:42Z</time>
      </trkpt>
      <trkpt lat="42.3363840" lon="-2.5552660">
        <ele>963.1</ele>
        <time>2022-08-13T08:46:47Z</time>
      </trkpt>
      <trkpt lat="42.3363660" lon="-2.5552980">
        <ele>963.6</ele>
        <time>2022-08-13T08:46:51Z</time>
      </trkpt>
      <trkpt lat="42.3363630" lon="-2.5553510">
        <ele>964.2</ele>
        <time>2022-08-13T08:46:56Z</time>
      </trkpt>
      <trkpt lat="42.3363610" lon="-2.5554150">
        <ele>964.9</ele>
        <time>2022-08-13T08:47:02Z</time>
      </trkpt>
      <trkpt lat="42.3363600" lon="-2.5554550">
        <ele>965.4</ele>
        <time>2022-08-13T08:47:06Z</time>
      </trkpt>
      <trkpt lat="42.3363540" lon="-2.5555030">
        <ele>965.9</ele>
        <time>2022-08-13T08:47:10Z</time>
      </trkpt>
      <trkpt lat="42.3363530" lon="-2.5555110">
        <ele>966.0</ele>
        <time>2022-08-13T08:47:11Z</time>
      </trkpt>
      <trkpt lat="42.3363390" lon="-2.5555610">
        <ele>966.6</ele>
        <time>2022-08-13T08:47:16Z</time>
      </trkpt>
      <trkpt lat="42.3363350" lon="-2.5555960">
        <ele>967.0</ele>
        <time>2022-08-13T08:47:19Z</time>
      </trkpt>
      <trkpt lat="42.3363270" lon="-2.5556550">
        <ele>967.7</ele>
        <time>2022-08-13T08:47:25Z</time>
      </trkpt>
      <trkpt lat="42.3363200" lon="-2.5556670">
        <ele>967.8</ele>
        <time>2022-08-13T08:47:27Z</time>
      </trkpt>
      <trkpt lat="42.3362930" lon="-2.5557210">
        <ele>968.5</ele>
        <time>2022-08-13T08:47:35Z</time>
      </trkpt>
      <trkpt lat="42.3362900" lon="-2.5557320">
        <ele>968.7</ele>
        <time>2022-08-13T08:47:58Z</time>
      </trkpt>
      <trkpt lat="42.3362600" lon="-2.5557840">
        <ele>969.4</ele>
        <time>2022-08-13T08:48:08Z</time>
      </trkpt>
      <trkpt lat="42.3362510" lon="-2.5558000">
        <ele>969.6</ele>
        <time>2022-08-13T08:48:09Z</time>
      </trkpt>
      <trkpt lat="42.3361720" lon="-2.5558910">
        <ele>971.1</ele>
        <time>2022-08-13T08:48:17Z</time>
      </trkpt>
      <trkpt lat="42.3361600" lon="-2.5559050">
        <ele>971.3</ele>
        <time>2022-08-13T08:48:19Z</time>
      </trkpt>
      <trkpt lat="42.3361570" lon="-2.5559100">
        <ele>971.4</ele>
        <time>2022-08-13T08:48:20Z</time>
      </trkpt>
      <trkpt lat="42.3360960" lon="-2.5559460">
        <ele>972.3</ele>
        <time>2022-08-13T08:48:28Z</time>
      </trkpt>
      <trkpt lat="42.3360900" lon="-2.5559490">
        <ele>972.4</ele>
        <time>2022-08-13T08:48:29Z</time>
      </trkpt>
      <trkpt lat="42.3360770" lon="-2.5559540">
        <ele>972.6</ele>
        <time>2022-08-13T08:48:31Z</time>
      </trkpt>
      <trkpt lat="42.3360770" lon="-2.5559540">
        <ele>972.6</ele>
        <time>2022-08-13T08:49:00Z</time>
      </trkpt>
      <trkpt lat="42.3360730" lon="-2.5559570">
        <ele>972.6</ele>
        <time>2022-08-13T08:49:03Z</time>
      </trkpt>
      <trkpt lat="42.3360730" lon="-2.5559570">
        <ele>972.6</ele>
        <time>2022-08-13T08:49:06Z</time>
      </trkpt>
      <trkpt lat="42.3360720" lon="-2.5559570">
        <ele>972.6</ele>
        <time>2022-08-13T08:49:10Z</time>
      </trkpt>
      <trkpt lat="42.3360670" lon="-2.5559590">
        <ele>972.7</ele>
        <time>2022-08-13T08:49:12Z</time>
      </trkpt>
      <trkpt lat="42.3360630" lon="-2.5559620">
        <ele>972.7</ele>
        <time>2022-08-13T08:49:13Z</time>
      </trkpt>
      <trkpt lat="42.3360500" lon="-2.5559700">
        <ele>972.9</ele>
        <time>2022-08-13T08:49:16Z</time>
      </trkpt>
      <trkpt lat="42.3359910" lon="-2.5560040">
        <ele>973.7</ele>
        <time>2022-08-13T08:49:54Z</time>
      </trkpt>
      <trkpt lat="42.3359360" lon="-2.5560330">
        <ele>974.3</ele>
        <time>2022-08-13T08:49:58Z</time>
      </trkpt>
      <trkpt lat="42.3359290" lon="-2.5560360">
        <ele>974.4</ele>
        <time>2022-08-13T08:49:59Z</time>
      </trkpt>
      <trkpt lat="42.3358680" lon="-2.5560740">
        <ele>975.1</ele>
        <time>2022-08-13T08:50:11Z</time>
      </trkpt>
      <trkpt lat="42.3357900" lon="-2.5561170">
        <ele>976.1</ele>
        <time>2022-08-13T08:50:16Z</time>
      </trkpt>
      <trkpt lat="42.3357770" lon="-2.5561330">
        <ele>976.2</ele>
        <time>2022-08-13T08:50:17Z</time>
      </trkpt>
      <trkpt lat="42.3356620" lon="-2.5561650">
        <ele>977.5</ele>
        <time>2022-08-13T08:50:24Z</time>
      </trkpt>
      <trkpt lat="42.3355530" lon="-2.5562180">
        <ele>978.7</ele>
        <time>2022-08-13T08:50:33Z</time>
      </trkpt>
      <trkpt lat="42.3355370" lon="-2.5562360">
        <ele>978.9</ele>
        <time>2022-08-13T08:50:35Z</time>
      </trkpt>
      <trkpt lat="42.3354630" lon="-2.5562860">
        <ele>979.8</ele>
        <time>2022-08-13T08:50:42Z</time>
      </trkpt>
      <trkpt lat="42.3354520" lon="-2.5562940">
        <ele>979.9</ele>
        <time>2022-08-13T08:50:43Z</time>
      </trkpt>
      <trkpt lat="42.3353500" lon="-2.5563490">
        <ele>981.0</ele>
        <time>2022-08-13T08:50:51Z</time>
      </trkpt>
      <trkpt lat="42.3353380" lon="-2.5563560">
        <ele>981.1</ele>
        <time>2022-08-13T08:50:52Z</time>
      </trkpt>
      <trkpt lat="42.3352980" lon="-2.5563770">
        <ele>981.5</ele>
        <time>2022-08-13T08:50:56Z</time>
      </trkpt>
      <trkpt lat="42.3352720" lon="-2.5564020">
        <ele>981.9</ele>
        <time>2022-08-13T08:50:59Z</time>
      </trkpt>
      <trkpt lat="42.3352610" lon="-2.5564190">
        <ele>982.1</ele>
        <time>2022-08-13T08:51:01Z</time>
      </trkpt>
      <trkpt lat="42.3352150" lon="-2.5564600">
        <ele>982.6</ele>
        <time>2022-08-13T08:51:06Z</time>
      </trkpt>
      <trkpt lat="42.3351680" lon="-2.5564990">
        <ele>983.3</ele>
        <time>2022-08-13T08:51:10Z</time>
      </trkpt>
      <trkpt lat="42.3351540" lon="-2.5565120">
        <ele>983.5</ele>
        <time>2022-08-13T08:51:12Z</time>
      </trkpt>
      <trkpt lat="42.3351220" lon="-2.5565610">
        <ele>984.0</ele>
        <time>2022-08-13T08:51:16Z</time>
      </trkpt>
      <trkpt lat="42.3351190" lon="-2.5565790">
        <ele>984.2</ele>
        <time>2022-08-13T08:51:17Z</time>
      </trkpt>
      <trkpt lat="42.3351130" lon="-2.5565980">
        <ele>984.4</ele>
        <time>2022-08-13T08:51:18Z</time>
      </trkpt>
      <trkpt lat="42.3350980" lon="-2.5567020">
        <ele>985.3</ele>
        <time>2022-08-13T08:51:24Z</time>
      </trkpt>
      <trkpt lat="42.3351510" lon="-2.5567900">
        <ele>986.4</ele>
        <time>2022-08-13T08:51:31Z</time>
      </trkpt>
      <trkpt lat="42.3351660" lon="-2.5568070">
        <ele>986.6</ele>
        <time>2022-08-13T08:51:32Z</time>
      </trkpt>
      <trkpt lat="42.3352280" lon="-2.5568720">
        <ele>987.6</ele>
        <time>2022-08-13T08:51:39Z</time>
      </trkpt>
      <trkpt lat="42.3352900" lon="-2.5569380">
        <ele>988.6</ele>
        <time>2022-08-13T08:51:46Z</time>
      </trkpt>
      <trkpt lat="42.3353000" lon="-2.5569520">
        <ele>988.7</ele>
        <time>2022-08-13T08:51:47Z</time>
      </trkpt>
      <trkpt lat="42.3353440" lon="-2.5570200">
        <ele>989.6</ele>
        <time>2022-08-13T08:51:52Z</time>
      </trkpt>
      <trkpt lat="42.3353840" lon="-2.5570550">
        <ele>990.1</ele>
        <time>2022-08-13T08:51:56Z</time>
      </trkpt>
      <trkpt lat="42.3354560" lon="-2.5571690">
        <ele>991.2</ele>
        <time>2022-08-13T08:52:04Z</time>
      </trkpt>
      <trkpt lat="42.3354710" lon="-2.5572030">
        <ele>991.5</ele>
        <time>2022-08-13T08:52:06Z</time>
      </trkpt>
      <trkpt lat="42.3355150" lon="-2.5572810">
        <ele>992.1</ele>
        <time>2022-08-13T08:52:11Z</time>
      </trkpt>
      <trkpt lat="42.3355410" lon="-2.5573250">
        <ele>992.4</ele>
        <time>2022-08-13T08:52:14Z</time>
      </trkpt>
      <trkpt lat="42.3355560" lon="-2.5573580">
        <ele>992.6</ele>
        <time>2022-08-13T08:52:16Z</time>
      </trkpt>
      <trkpt lat="42.3356350" lon="-2.5574880">
        <ele>993.5</ele>
        <time>2022-08-13T08:52:23Z</time>
      </trkpt>
      <trkpt lat="42.3356980" lon="-2.5575870">
        <ele>994.0</ele>
        <time>2022-08-13T08:52:29Z</time>
      </trkpt>
      <trkpt lat="42.3357270" lon="-2.5576430">
        <ele>994.2</ele>
        <time>2022-08-13T08:52:32Z</time>
      </trkpt>
      <trkpt lat="42.3357720" lon="-2.5577260">
        <ele>994.5</ele>
        <time>2022-08-13T08:52:36Z</time>
      </trkpt>
      <trkpt lat="42.3358290" lon="-2.5578120">
        <ele>994.8</ele>
        <time>2022-08-13T08:52:41Z</time>
      </trkpt>
      <trkpt lat="42.3358880" lon="-2.5578590">
        <ele>995.4</ele>
        <time>2022-08-13T08:52:46Z</time>
      </trkpt>
      <trkpt lat="42.3359140" lon="-2.5578800">
        <ele>995.6</ele>
        <time>2022-08-13T08:52:48Z</time>
      </trkpt>
      <trkpt lat="42.3359680" lon="-2.5579040">
        <ele>996.2</ele>
        <time>2022-08-13T08:52:52Z</time>
      </trkpt>
      <trkpt lat="42.3359950" lon="-2.5579090">
        <ele>996.5</ele>
        <time>2022-08-13T08:52:54Z</time>
      </trkpt>
      <trkpt lat="42.3360120" lon="-2.5579090">
        <ele>996.7</ele>
        <time>2022-08-13T08:52:55Z</time>
      </trkpt>
      <trkpt lat="42.3360950" lon="-2.5579100">
        <ele>997.8</ele>
        <time>2022-08-13T08:53:01Z</time>
      </trkpt>
      <trkpt lat="42.3361350" lon="-2.5579140">
        <ele>998.3</ele>
        <time>2022-08-13T08:53:04Z</time>
      </trkpt>
      <trkpt lat="42.3361530" lon="-2.5579120">
        <ele>998.6</ele>
        <time>2022-08-13T08:53:07Z</time>
      </trkpt>
      <trkpt lat="42.3362190" lon="-2.5579240">
        <ele>999.5</ele>
        <time>2022-08-13T08:53:12Z</time>
      </trkpt>
      <trkpt lat="42.3362710" lon="-2.5579490">
        <ele>1000.3</ele>
        <time>2022-08-13T08:53:16Z</time>
      </trkpt>
      <trkpt lat="42.3362830" lon="-2.5579630">
        <ele>1000.5</ele>
        <time>2022-08-13T08:53:17Z</time>
      </trkpt>
      <trkpt lat="42.3363000" lon="-2.5579960">
        <ele>1001.0</ele>
        <time>2022-08-13T08:53:19Z</time>
      </trkpt>
      <trkpt lat="42.3363080" lon="-2.5580440">
        <ele>1001.5</ele>
        <time>2022-08-13T08:53:22Z</time>
      </trkpt>
      <trkpt lat="42.3362990" lon="-2.5581460">
        <ele>1002.5</ele>
        <time>2022-08-13T08:53:28Z</time>
      </trkpt>
      <trkpt lat="42.3362930" lon="-2.5581600">
        <ele>1002.7</ele>
        <time>2022-08-13T08:53:29Z</time>
      </trkpt>
      <trkpt lat="42.3362880" lon="-2.5581720">
        <ele>1002.8</ele>
        <time>2022-08-13T08:53:30Z</time>
      </trkpt>
      <trkpt lat="42.3362640" lon="-2.5582220">
        <ele>1003.4</ele>
        <time>2022-08-13T08:53:34Z</time>
      </trkpt>
      <trkpt lat="42.3362300" lon="-2.5582720">
        <ele>1004.0</ele>
        <time>2022-08-13T08:53:38Z</time>
      </trkpt>
      <trkpt lat="42.3362060" lon="-2.5583240">
        <ele>1004.5</ele>
        <time>2022-08-13T08:53:41Z</time>
      </trkpt>
      <trkpt lat="42.3361970" lon="-2.5583730">
        <ele>1005.0</ele>
        <time>2022-08-13T08:53:44Z</time>
      </trkpt>
      <trkpt lat="42.3361890" lon="-2.5583830">
        <ele>1005.1</ele>
        <time>2022-08-13T08:53:45Z</time>
      </trkpt>
      <trkpt lat="42.3361750" lon="-2.5584050">
        <ele>1005.3</ele>
        <time>2022-08-13T08:53:47Z</time>
      </trkpt>
      <trkpt lat="42.3361660" lon="-2.5584350">
        <ele>1005.6</ele>
        <time>2022-08-13T08:53:49Z</time>
      </trkpt>
      <trkpt lat="42.3361600" lon="-2.5584610">
        <ele>1005.8</ele>
        <time>2022-08-13T08:53:51Z</time>
      </trkpt>
      <trkpt lat="42.3361380" lon="-2.5585330">
        <ele>1006.4</ele>
        <time>2022-08-13T08:53:56Z</time>
      </trkpt>
      <trkpt lat="42.3361050" lon="-2.5585810">
        <ele>1007.0</ele>
        <time>2022-08-13T08:54:00Z</time>
      </trkpt>
      <trkpt lat="42.3360600" lon="-2.5586370">
        <ele>1007.6</ele>
        <time>2022-08-13T08:54:05Z</time>
      </trkpt>
      <trkpt lat="42.3360290" lon="-2.5586650">
        <ele>1008.1</ele>
        <time>2022-08-13T08:54:08Z</time>
      </trkpt>
      <trkpt lat="42.3359710" lon="-2.5587410">
        <ele>1009.0</ele>
        <time>2022-08-13T08:54:15Z</time>
      </trkpt>
      <trkpt lat="42.3359050" lon="-2.5588220">
        <ele>1010.1</ele>
        <time>2022-08-13T08:54:24Z</time>
      </trkpt>
      <trkpt lat="42.3358410" lon="-2.5588980">
        <ele>1011.2</ele>
        <time>2022-08-13T08:54:31Z</time>
      </trkpt>
      <trkpt lat="42.3358290" lon="-2.5589180">
        <ele>1011.4</ele>
        <time>2022-08-13T08:54:33Z</time>
      </trkpt>
      <trkpt lat="42.3358160" lon="-2.5589410">
        <ele>1011.7</ele>
        <time>2022-08-13T08:54:35Z</time>
      </trkpt>
      <trkpt lat="42.3357780" lon="-2.5589760">
        <ele>1012.3</ele>
        <time>2022-08-13T08:54:39Z</time>
      </trkpt>
      <trkpt lat="42.3357690" lon="-2.5589990">
        <ele>1012.5</ele>
        <time>2022-08-13T08:54:41Z</time>
      </trkpt>
      <trkpt lat="42.3357420" lon="-2.5590410">
        <ele>1013.1</ele>
        <time>2022-08-13T08:54:45Z</time>
      </trkpt>
      <trkpt lat="42.3357030" lon="-2.5591040">
        <ele>1013.8</ele>
        <time>2022-08-13T08:54:49Z</time>
      </trkpt>
      <trkpt lat="42.3356640" lon="-2.5591850">
        <ele>1014.5</ele>
        <time>2022-08-13T08:54:54Z</time>
      </trkpt>
      <trkpt lat="42.3356310" lon="-2.5592220">
        <ele>1014.9</ele>
        <time>2022-08-13T08:54:57Z</time>
      </trkpt>
      <trkpt lat="42.3355220" lon="-2.5592030">
        <ele>1015.5</ele>
        <time>2022-08-13T08:55:04Z</time>
      </trkpt>
      <trkpt lat="42.3354310" lon="-2.5591030">
        <ele>1016.0</ele>
        <time>2022-08-13T08:55:12Z</time>
      </trkpt>
      <trkpt lat="42.3353250" lon="-2.5589680">
        <ele>1016.5</ele>
        <time>2022-08-13T08:55:19Z</time>
      </trkpt>
      <trkpt lat="42.3353090" lon="-2.5589330">
        <ele>1016.6</ele>
        <time>2022-08-13T08:55:21Z</time>
      </trkpt>
      <trkpt lat="42.3352840" lon="-2.5589090">
        <ele>1016.7</ele>
        <time>2022-08-13T08:55:23Z</time>
      </trkpt>
      <trkpt lat="42.3352330" lon="-2.5588820">
        <ele>1016.9</ele>
        <time>2022-08-13T08:55:27Z</time>
      </trkpt>
      <trkpt lat="42.3352160" lon="-2.5588750">
        <ele>1016.9</ele>
        <time>2022-08-13T08:55:28Z</time>
      </trkpt>
      <trkpt lat="42.3351490" lon="-2.5588700">
        <ele>1017.3</ele>
        <time>2022-08-13T08:55:33Z</time>
      </trkpt>
      <trkpt lat="42.3350980" lon="-2.5588880">
        <ele>1017.6</ele>
        <time>2022-08-13T08:55:36Z</time>
      </trkpt>
      <trkpt lat="42.3350130" lon="-2.5589420">
        <ele>1018.5</ele>
        <time>2022-08-13T08:55:41Z</time>
      </trkpt>
      <trkpt lat="42.3350070" lon="-2.5589540">
        <ele>1018.6</ele>
        <time>2022-08-13T08:55:42Z</time>
      </trkpt>
      <trkpt lat="42.3349950" lon="-2.5589650">
        <ele>1018.8</ele>
        <time>2022-08-13T08:55:43Z</time>
      </trkpt>
      <trkpt lat="42.3349880" lon="-2.5589720">
        <ele>1018.9</ele>
        <time>2022-08-13T08:55:44Z</time>
      </trkpt>
      <trkpt lat="42.3349650" lon="-2.5590180">
        <ele>1019.5</ele>
        <time>2022-08-13T08:55:47Z</time>
      </trkpt>
      <trkpt lat="42.3349610" lon="-2.5590330">
        <ele>1019.7</ele>
        <time>2022-08-13T08:55:48Z</time>
      </trkpt>
      <trkpt lat="42.3349560" lon="-2.5590680">
        <ele>1020.1</ele>
        <time>2022-08-13T08:55:50Z</time>
      </trkpt>
      <trkpt lat="42.3349540" lon="-2.5591340">
        <ele>1020.8</ele>
        <time>2022-08-13T08:55:54Z</time>
      </trkpt>
      <trkpt lat="42.3349560" lon="-2.5592530">
        <ele>1022.3</ele>
        <time>2022-08-13T08:56:00Z</time>
      </trkpt>
      <trkpt lat="42.3349530" lon="-2.5592660">
        <ele>1022.5</ele>
        <time>2022-08-13T08:56:01Z</time>
      </trkpt>
      <trkpt lat="42.3349360" lon="-2.5593350">
        <ele>1023.3</ele>
        <time>2022-08-13T08:56:06Z</time>
      </trkpt>
      <trkpt lat="42.3349500" lon="-2.5593440">
        <ele>1023.5</ele>
        <time>2022-08-13T09:01:23Z</time>
      </trkpt>
      <trkpt lat="42.3349550" lon="-2.5593600">
        <ele>1023.6</ele>
        <time>2022-08-13T09:01:24Z</time>
      </trkpt>
      <trkpt lat="42.3349830" lon="-2.5594610">
        <ele>1024.7</ele>
        <time>2022-08-13T09:01:32Z</time>
      </trkpt>
      <trkpt lat="42.3349910" lon="-2.5595260">
        <ele>1025.3</ele>
        <time>2022-08-13T09:01:37Z</time>
      </trkpt>
      <trkpt lat="42.3349970" lon="-2.5595510">
        <ele>1025.5</ele>
        <time>2022-08-13T09:01:39Z</time>
      </trkpt>
      <trkpt lat="42.3350010" lon="-2.5595650">
        <ele>1025.6</ele>
        <time>2022-08-13T09:01:40Z</time>
      </trkpt>
      <trkpt lat="42.3350110" lon="-2.5596020">
        <ele>1026.0</ele>
        <time>2022-08-13T09:01:43Z</time>
      </trkpt>
      <trkpt lat="42.3350150" lon="-2.5596130">
        <ele>1026.1</ele>
        <time>2022-08-13T09:01:44Z</time>
      </trkpt>
      <trkpt lat="42.3350200" lon="-2.5596500">
        <ele>1026.4</ele>
        <time>2022-08-13T09:01:49Z</time>
      </trkpt>
      <trkpt lat="42.3350250" lon="-2.5597060">
        <ele>1026.9</ele>
        <time>2022-08-13T09:01:55Z</time>
      </trkpt>
      <trkpt lat="42.3350240" lon="-2.5597240">
        <ele>1027.0</ele>
        <time>2022-08-13T09:01:58Z</time>
      </trkpt>
      <trkpt lat="42.3350430" lon="-2.5597900">
        <ele>1027.6</ele>
        <time>2022-08-13T09:02:05Z</time>
      </trkpt>
      <trkpt lat="42.3350440" lon="-2.5597990">
        <ele>1027.7</ele>
        <time>2022-08-13T09:02:06Z</time>
      </trkpt>
      <trkpt lat="42.3350590" lon="-2.5598600">
        <ele>1028.3</ele>
        <time>2022-08-13T09:02:12Z</time>
      </trkpt>
      <trkpt lat="42.3350610" lon="-2.5598710">
        <ele>1028.4</ele>
        <time>2022-08-13T09:02:13Z</time>
      </trkpt>
      <trkpt lat="42.3350730" lon="-2.5599170">
        <ele>1028.9</ele>
        <time>2022-08-13T09:02:17Z</time>
      </trkpt>
      <trkpt lat="42.3350800" lon="-2.5599550">
        <ele>1029.2</ele>
        <time>2022-08-13T09:02:21Z</time>
      </trkpt>
      <trkpt lat="42.3350830" lon="-2.5600150">
        <ele>1029.8</ele>
        <time>2022-08-13T09:02:27Z</time>
      </trkpt>
      <trkpt lat="42.3350900" lon="-2.5600400">
        <ele>1030.1</ele>
        <time>2022-08-13T09:02:30Z</time>
      </trkpt>
      <trkpt lat="42.3351010" lon="-2.5600640">
        <ele>1030.4</ele>
        <time>2022-08-13T09:02:39Z</time>
      </trkpt>
      <trkpt lat="42.3351130" lon="-2.5600990">
        <ele>1030.8</ele>
        <time>2022-08-13T09:02:42Z</time>
      </trkpt>
      <trkpt lat="42.3351180" lon="-2.5601240">
        <ele>1031.1</ele>
        <time>2022-08-13T09:02:45Z</time>
      </trkpt>
      <trkpt lat="42.3351310" lon="-2.5601740">
        <ele>1031.7</ele>
        <time>2022-08-13T09:02:50Z</time>
      </trkpt>
      <trkpt lat="42.3351410" lon="-2.5601920">
        <ele>1031.9</ele>
        <time>2022-08-13T09:02:52Z</time>
      </trkpt>
      <trkpt lat="42.3351460" lon="-2.5602010">
        <ele>1032.1</ele>
        <time>2022-08-13T09:02:53Z</time>
      </trkpt>
      <trkpt lat="42.3351570" lon="-2.5602470">
        <ele>1032.6</ele>
        <time>2022-08-13T09:02:57Z</time>
      </trkpt>
      <trkpt lat="42.3351600" lon="-2.5602570">
        <ele>1032.7</ele>
        <time>2022-08-13T09:02:59Z</time>
      </trkpt>
      <trkpt lat="42.3351670" lon="-2.5602860">
        <ele>1033.1</ele>
        <time>2022-08-13T09:03:03Z</time>
      </trkpt>
      <trkpt lat="42.3351760" lon="-2.5603380">
        <ele>1033.7</ele>
        <time>2022-08-13T09:03:08Z</time>
      </trkpt>
      <trkpt lat="42.3351900" lon="-2.5603760">
        <ele>1034.2</ele>
        <time>2022-08-13T09:03:13Z</time>
      </trkpt>
      <trkpt lat="42.3351960" lon="-2.5603980">
        <ele>1034.5</ele>
        <time>2022-08-13T09:03:15Z</time>
      </trkpt>
      <trkpt lat="42.3352070" lon="-2.5604790">
        <ele>1035.4</ele>
        <time>2022-08-13T09:03:23Z</time>
      </trkpt>
      <trkpt lat="42.3352060" lon="-2.5605580">
        <ele>1036.3</ele>
        <time>2022-08-13T09:03:31Z</time>
      </trkpt>
      <trkpt lat="42.3352170" lon="-2.5606190">
        <ele>1037.0</ele>
        <time>2022-08-13T09:03:36Z</time>
      </trkpt>
      <trkpt lat="42.3352190" lon="-2.5606300">
        <ele>1037.1</ele>
        <time>2022-08-13T09:03:37Z</time>
      </trkpt>
      <trkpt lat="42.3352160" lon="-2.5607060">
        <ele>1037.9</ele>
        <time>2022-08-13T09:03:45Z</time>
      </trkpt>
      <trkpt lat="42.3352230" lon="-2.5607320">
        <ele>1038.2</ele>
        <time>2022-08-13T09:03:47Z</time>
      </trkpt>
      <trkpt lat="42.3352270" lon="-2.5607930">
        <ele>1038.9</ele>
        <time>2022-08-13T09:03:53Z</time>
      </trkpt>
      <trkpt lat="42.3352260" lon="-2.5608000">
        <ele>1039.0</ele>
        <time>2022-08-13T09:03:55Z</time>
      </trkpt>
      <trkpt lat="42.3352240" lon="-2.5608550">
        <ele>1039.7</ele>
        <time>2022-08-13T09:04:01Z</time>
      </trkpt>
      <trkpt lat="42.3352220" lon="-2.5608890">
        <ele>1040.1</ele>
        <time>2022-08-13T09:04:04Z</time>
      </trkpt>
      <trkpt lat="42.3352190" lon="-2.5609290">
        <ele>1040.6</ele>
        <time>2022-08-13T09:04:08Z</time>
      </trkpt>
      <trkpt lat="42.3352220" lon="-2.5609390">
        <ele>1040.7</ele>
        <time>2022-08-13T09:04:09Z</time>
      </trkpt>
      <trkpt lat="42.3352340" lon="-2.5609870">
        <ele>1041.3</ele>
        <time>2022-08-13T09:04:15Z</time>
      </trkpt>
      <trkpt lat="42.3352340" lon="-2.5609870">
        <ele>1041.3</ele>
        <time>2022-08-13T09:04:19Z</time>
      </trkpt>
      <trkpt lat="42.3352340" lon="-2.5609870">
        <ele>1041.3</ele>
        <time>2022-08-13T09:04:21Z</time>
      </trkpt>
      <trkpt lat="42.3352340" lon="-2.5609870">
        <ele>1041.3</ele>
        <time>2022-08-13T09:04:23Z</time>
      </trkpt>
      <trkpt lat="42.3352340" lon="-2.5610300">
        <ele>1041.8</ele>
        <time>2022-08-13T09:04:28Z</time>
      </trkpt>
      <trkpt lat="42.3352040" lon="-2.5611360">
        <ele>1043.2</ele>
        <time>2022-08-13T09:04:34Z</time>
      </trkpt>
      <trkpt lat="42.3351890" lon="-2.5612060">
        <ele>1044.0</ele>
        <time>2022-08-13T09:04:38Z</time>
      </trkpt>
      <trkpt lat="42.3351970" lon="-2.5612850">
        <ele>1045.0</ele>
        <time>2022-08-13T09:04:44Z</time>
      </trkpt>
      <trkpt lat="42.3351980" lon="-2.5612970">
        <ele>1045.1</ele>
        <time>2022-08-13T09:04:46Z</time>
      </trkpt>
      <trkpt lat="42.3352080" lon="-2.5613440">
        <ele>1045.6</ele>
        <time>2022-08-13T09:04:52Z</time>
      </trkpt>
      <trkpt lat="42.3352140" lon="-2.5613770">
        <ele>1046.0</ele>
        <time>2022-08-13T09:04:56Z</time>
      </trkpt>
      <trkpt lat="42.3352260" lon="-2.5614450">
        <ele>1046.8</ele>
        <time>2022-08-13T09:05:02Z</time>
      </trkpt>
      <trkpt lat="42.3352320" lon="-2.5614920">
        <ele>1047.3</ele>
        <time>2022-08-13T09:05:06Z</time>
      </trkpt>
      <trkpt lat="42.3352410" lon="-2.5615380">
        <ele>1047.8</ele>
        <time>2022-08-13T09:05:10Z</time>
      </trkpt>
      <trkpt lat="42.3352580" lon="-2.5615660">
        <ele>1048.2</ele>
        <time>2022-08-13T09:05:14Z</time>
      </trkpt>
      <trkpt lat="42.3352960" lon="-2.5615940">
        <ele>1048.8</ele>
        <time>2022-08-13T09:05:20Z</time>
      </trkpt>
      <trkpt lat="42.3353120" lon="-2.5616060">
        <ele>1049.1</ele>
        <time>2022-08-13T09:05:22Z</time>
      </trkpt>
      <trkpt lat="42.3353700" lon="-2.5616120">
        <ele>1049.8</ele>
        <time>2022-08-13T09:05:27Z</time>
      </trkpt>
      <trkpt lat="42.3354180" lon="-2.5616040">
        <ele>1050.4</ele>
        <time>2022-08-13T09:05:32Z</time>
      </trkpt>
      <trkpt lat="42.3354400" lon="-2.5615860">
        <ele>1050.6</ele>
        <time>2022-08-13T09:05:36Z</time>
      </trkpt>
      <trkpt lat="42.3354480" lon="-2.5615760">
        <ele>1050.7</ele>
        <time>2022-08-13T09:05:37Z</time>
      </trkpt>
      <trkpt lat="42.3354680" lon="-2.5615590">
        <ele>1050.9</ele>
        <time>2022-08-13T09:05:40Z</time>
      </trkpt>
      <trkpt lat="42.3354720" lon="-2.5615510">
        <ele>1051.0</ele>
        <time>2022-08-13T09:05:45Z</time>
      </trkpt>
      <trkpt lat="42.3354970" lon="-2.5615280">
        <ele>1051.2</ele>
        <time>2022-08-13T09:05:47Z</time>
      </trkpt>
      <trkpt lat="42.3355700" lon="-2.5614440">
        <ele>1051.8</ele>
        <time>2022-08-13T09:05:54Z</time>
      </trkpt>
      <trkpt lat="42.3356230" lon="-2.5614040">
        <ele>1052.1</ele>
        <time>2022-08-13T09:06:00Z</time>
      </trkpt>
      <trkpt lat="42.3356320" lon="-2.5613990">
        <ele>1052.1</ele>
        <time>2022-08-13T09:06:01Z</time>
      </trkpt>
      <trkpt lat="42.3357080" lon="-2.5613790">
        <ele>1052.5</ele>
        <time>2022-08-13T09:06:07Z</time>
      </trkpt>
      <trkpt lat="42.3357190" lon="-2.5613810">
        <ele>1052.5</ele>
        <time>2022-08-13T09:06:08Z</time>
      </trkpt>
      <trkpt lat="42.3357430" lon="-2.5613950">
        <ele>1052.6</ele>
        <time>2022-08-13T09:06:10Z</time>
      </trkpt>
      <trkpt lat="42.3358280" lon="-2.5614450">
        <ele>1053.1</ele>
        <time>2022-08-13T09:06:17Z</time>
      </trkpt>
      <trkpt lat="42.3358400" lon="-2.5614560">
        <ele>1053.2</ele>
        <time>2022-08-13T09:06:18Z</time>
      </trkpt>
      <trkpt lat="42.3359700" lon="-2.5616130">
        <ele>1054.1</ele>
        <time>2022-08-13T09:06:29Z</time>
      </trkpt>
      <trkpt lat="42.3359960" lon="-2.5616730">
        <ele>1054.3</ele>
        <time>2022-08-13T09:06:32Z</time>
      </trkpt>
      <trkpt lat="42.3360300" lon="-2.5617560">
        <ele>1054.6</ele>
        <time>2022-08-13T09:06:36Z</time>
      </trkpt>
      <trkpt lat="42.3360570" lon="-2.5618200">
        <ele>1054.8</ele>
        <time>2022-08-13T09:06:39Z</time>
      </trkpt>
      <trkpt lat="42.3360810" lon="-2.5619030">
        <ele>1055.1</ele>
        <time>2022-08-13T09:06:43Z</time>
      </trkpt>
      <trkpt lat="42.3361020" lon="-2.5619540">
        <ele>1055.3</ele>
        <time>2022-08-13T09:06:46Z</time>
      </trkpt>
      <trkpt lat="42.3361130" lon="-2.5619820">
        <ele>1055.5</ele>
        <time>2022-08-13T09:06:48Z</time>
      </trkpt>
      <trkpt lat="42.3361470" lon="-2.5621320">
        <ele>1056.0</ele>
        <time>2022-08-13T09:06:54Z</time>
      </trkpt>
      <trkpt lat="42.3361720" lon="-2.5621740">
        <ele>1056.2</ele>
        <time>2022-08-13T09:06:57Z</time>
      </trkpt>
      <trkpt lat="42.3361800" lon="-2.5621870">
        <ele>1056.3</ele>
        <time>2022-08-13T09:06:58Z</time>
      </trkpt>
      <trkpt lat="42.3361800" lon="-2.5622250">
        <ele>1056.4</ele>
        <time>2022-08-13T09:07:00Z</time>
      </trkpt>
      <trkpt lat="42.3361860" lon="-2.5622710">
        <ele>1056.6</ele>
        <time>2022-08-13T09:07:02Z</time>
      </trkpt>
      <trkpt lat="42.3362220" lon="-2.5623650">
        <ele>1057.1</ele>
        <time>2022-08-13T09:07:08Z</time>
      </trkpt>
      <trkpt lat="42.3362220" lon="-2.5623780">
        <ele>1057.2</ele>
        <time>2022-08-13T09:07:09Z</time>
      </trkpt>
      <trkpt lat="42.3362410" lon="-2.5625000">
        <ele>1057.7</ele>
        <time>2022-08-13T09:07:15Z</time>
      </trkpt>
      <trkpt lat="42.3362430" lon="-2.5625170">
        <ele>1057.7</ele>
        <time>2022-08-13T09:07:16Z</time>
      </trkpt>
      <trkpt lat="42.3362520" lon="-2.5625730">
        <ele>1057.9</ele>
        <time>2022-08-13T09:07:19Z</time>
      </trkpt>
      <trkpt lat="42.3362510" lon="-2.5625920">
        <ele>1058.0</ele>
        <time>2022-08-13T09:07:20Z</time>
      </trkpt>
      <trkpt lat="42.3362320" lon="-2.5626740">
        <ele>1058.3</ele>
        <time>2022-08-13T09:07:25Z</time>
      </trkpt>
      <trkpt lat="42.3362290" lon="-2.5627040">
        <ele>1058.4</ele>
        <time>2022-08-13T09:07:27Z</time>
      </trkpt>
      <trkpt lat="42.3362330" lon="-2.5627200">
        <ele>1058.5</ele>
        <time>2022-08-13T09:07:28Z</time>
      </trkpt>
      <trkpt lat="42.3362380" lon="-2.5627340">
        <ele>1058.5</ele>
        <time>2022-08-13T09:07:29Z</time>
      </trkpt>
      <trkpt lat="42.3362450" lon="-2.5627460">
        <ele>1058.6</ele>
        <time>2022-08-13T09:07:30Z</time>
      </trkpt>
      <trkpt lat="42.3363540" lon="-2.5629060">
        <ele>1059.4</ele>
        <time>2022-08-13T09:07:39Z</time>
      </trkpt>
      <trkpt lat="42.3363590" lon="-2.5629220">
        <ele>1059.5</ele>
        <time>2022-08-13T09:07:40Z</time>
      </trkpt>
      <trkpt lat="42.3364570" lon="-2.5630490">
        <ele>1060.2</ele>
        <time>2022-08-13T09:07:47Z</time>
      </trkpt>
      <trkpt lat="42.3364720" lon="-2.5630720">
        <ele>1060.4</ele>
        <time>2022-08-13T09:07:48Z</time>
      </trkpt>
      <trkpt lat="42.3365440" lon="-2.5632250">
        <ele>1061.2</ele>
        <time>2022-08-13T09:07:55Z</time>
      </trkpt>
      <trkpt lat="42.3365600" lon="-2.5632440">
        <ele>1061.3</ele>
        <time>2022-08-13T09:07:56Z</time>
      </trkpt>
      <trkpt lat="42.3365950" lon="-2.5633010">
        <ele>1061.6</ele>
        <time>2022-08-13T09:07:59Z</time>
      </trkpt>
      <trkpt lat="42.3366290" lon="-2.5633350">
        <ele>1061.9</ele>
        <time>2022-08-13T09:08:02Z</time>
      </trkpt>
      <trkpt lat="42.3366580" lon="-2.5633730">
        <ele>1062.2</ele>
        <time>2022-08-13T09:08:05Z</time>
      </trkpt>
      <trkpt lat="42.3366850" lon="-2.5633970">
        <ele>1062.4</ele>
        <time>2022-08-13T09:08:07Z</time>
      </trkpt>
      <trkpt lat="42.3367090" lon="-2.5634210">
        <ele>1062.6</ele>
        <time>2022-08-13T09:08:09Z</time>
      </trkpt>
      <trkpt lat="42.3367280" lon="-2.5634660">
        <ele>1062.9</ele>
        <time>2022-08-13T09:08:12Z</time>
      </trkpt>
      <trkpt lat="42.3367390" lon="-2.5634740">
        <ele>1063.0</ele>
        <time>2022-08-13T09:08:13Z</time>
      </trkpt>
      <trkpt lat="42.3368070" lon="-2.5635950">
        <ele>1063.7</ele>
        <time>2022-08-13T09:08:18Z</time>
      </trkpt>
      <trkpt lat="42.3368420" lon="-2.5636440">
        <ele>1064.1</ele>
        <time>2022-08-13T09:08:21Z</time>
      </trkpt>
      <trkpt lat="42.3368630" lon="-2.5636740">
        <ele>1064.3</ele>
        <time>2022-08-13T09:08:23Z</time>
      </trkpt>
      <trkpt lat="42.3368820" lon="-2.5636970">
        <ele>1064.5</ele>
        <time>2022-08-13T09:08:25Z</time>
      </trkpt>
      <trkpt lat="42.3369100" lon="-2.5637310">
        <ele>1064.7</ele>
        <time>2022-08-13T09:08:28Z</time>
      </trkpt>
      <trkpt lat="42.3369390" lon="-2.5637550">
        <ele>1065.0</ele>
        <time>2022-08-13T09:08:31Z</time>
      </trkpt>
      <trkpt lat="42.3369510" lon="-2.5637640">
        <ele>1065.0</ele>
        <time>2022-08-13T09:08:32Z</time>
      </trkpt>
      <trkpt lat="42.3369820" lon="-2.5637830">
        <ele>1065.3</ele>
        <time>2022-08-13T09:08:34Z</time>
      </trkpt>
      <trkpt lat="42.3369960" lon="-2.5637980">
        <ele>1065.4</ele>
        <time>2022-08-13T09:08:35Z</time>
      </trkpt>
      <trkpt lat="42.3370040" lon="-2.5638070">
        <ele>1065.4</ele>
        <time>2022-08-13T09:08:36Z</time>
      </trkpt>
      <trkpt lat="42.3370150" lon="-2.5638150">
        <ele>1065.5</ele>
        <time>2022-08-13T09:08:37Z</time>
      </trkpt>
      <trkpt lat="42.3371110" lon="-2.5639050">
        <ele>1066.3</ele>
        <time>2022-08-13T09:08:44Z</time>
      </trkpt>
      <trkpt lat="42.3371250" lon="-2.5639120">
        <ele>1066.4</ele>
        <time>2022-08-13T09:08:45Z</time>
      </trkpt>
      <trkpt lat="42.3371900" lon="-2.5639990">
        <ele>1067.1</ele>
        <time>2022-08-13T09:08:50Z</time>
      </trkpt>
      <trkpt lat="42.3372160" lon="-2.5640120">
        <ele>1067.2</ele>
        <time>2022-08-13T09:08:52Z</time>
      </trkpt>
      <trkpt lat="42.3372350" lon="-2.5640360">
        <ele>1067.4</ele>
        <time>2022-08-13T09:08:54Z</time>
      </trkpt>
      <trkpt lat="42.3372610" lon="-2.5640710">
        <ele>1067.7</ele>
        <time>2022-08-13T09:08:56Z</time>
      </trkpt>
      <trkpt lat="42.3372990" lon="-2.5641450">
        <ele>1068.2</ele>
        <time>2022-08-13T09:09:00Z</time>
      </trkpt>
      <trkpt lat="42.3373100" lon="-2.5641670">
        <ele>1068.3</ele>
        <time>2022-08-13T09:09:03Z</time>
      </trkpt>
      <trkpt lat="42.3373650" lon="-2.5642730">
        <ele>1069.0</ele>
        <time>2022-08-13T09:09:07Z</time>
      </trkpt>
      <trkpt lat="42.3373760" lon="-2.5642970">
        <ele>1069.1</ele>
        <time>2022-08-13T09:09:09Z</time>
      </trkpt>
      <trkpt lat="42.3373970" lon="-2.5643220">
        <ele>1069.3</ele>
        <time>2022-08-13T09:09:11Z</time>
      </trkpt>
      <trkpt lat="42.3374270" lon="-2.5643810">
        <ele>1069.8</ele>
        <time>2022-08-13T09:09:16Z</time>
      </trkpt>
      <trkpt lat="42.3374330" lon="-2.5644060">
        <ele>1069.9</ele>
        <time>2022-08-13T09:09:17Z</time>
      </trkpt>
      <trkpt lat="42.3374590" lon="-2.5644510">
        <ele>1070.3</ele>
        <time>2022-08-13T09:09:19Z</time>
      </trkpt>
      <trkpt lat="42.3374780" lon="-2.5644680">
        <ele>1070.5</ele>
        <time>2022-08-13T09:09:20Z</time>
      </trkpt>
      <trkpt lat="42.3375250" lon="-2.5644940">
        <ele>1070.9</ele>
        <time>2022-08-13T09:09:23Z</time>
      </trkpt>
      <trkpt lat="42.3375370" lon="-2.5645080">
        <ele>1071.1</ele>
        <time>2022-08-13T09:09:24Z</time>
      </trkpt>
      <trkpt lat="42.3375810" lon="-2.5645540">
        <ele>1071.5</ele>
        <time>2022-08-13T09:09:27Z</time>
      </trkpt>
      <trkpt lat="42.3376020" lon="-2.5645820">
        <ele>1071.8</ele>
        <time>2022-08-13T09:09:29Z</time>
      </trkpt>
      <trkpt lat="42.3376620" lon="-2.5646700">
        <ele>1072.6</ele>
        <time>2022-08-13T09:09:34Z</time>
      </trkpt>
      <trkpt lat="42.3376930" lon="-2.5647050">
        <ele>1072.9</ele>
        <time>2022-08-13T09:09:36Z</time>
      </trkpt>
      <trkpt lat="42.3377550" lon="-2.5647570">
        <ele>1073.5</ele>
        <time>2022-08-13T09:09:41Z</time>
      </trkpt>
      <trkpt lat="42.3377660" lon="-2.5647740">
        <ele>1073.6</ele>
        <time>2022-08-13T09:09:43Z</time>
      </trkpt>
      <trkpt lat="42.3377950" lon="-2.5647980">
        <ele>1073.9</ele>
        <time>2022-08-13T09:09:45Z</time>
      </trkpt>
      <trkpt lat="42.3378580" lon="-2.5648350">
        <ele>1074.4</ele>
        <time>2022-08-13T09:09:49Z</time>
      </trkpt>
      <trkpt lat="42.3378720" lon="-2.5648410">
        <ele>1074.5</ele>
        <time>2022-08-13T09:09:50Z</time>
      </trkpt>
      <trkpt lat="42.3379710" lon="-2.5649300">
        <ele>1075.4</ele>
        <time>2022-08-13T09:09:56Z</time>
      </trkpt>
      <trkpt lat="42.3380150" lon="-2.5649410">
        <ele>1075.8</ele>
        <time>2022-08-13T09:09:59Z</time>
      </trkpt>
      <trkpt lat="42.3380250" lon="-2.5649540">
        <ele>1075.9</ele>
        <time>2022-08-13T09:10:00Z</time>
      </trkpt>
      <trkpt lat="42.3380440" lon="-2.5649740">
        <ele>1076.0</ele>
        <time>2022-08-13T09:10:02Z</time>
      </trkpt>
      <trkpt lat="42.3380560" lon="-2.5649860">
        <ele>1076.2</ele>
        <time>2022-08-13T09:10:03Z</time>
      </trkpt>
      <trkpt lat="42.3381220" lon="-2.5650730">
        <ele>1076.9</ele>
        <time>2022-08-13T09:10:08Z</time>
      </trkpt>
      <trkpt lat="42.3381690" lon="-2.5651830">
        <ele>1077.6</ele>
        <time>2022-08-13T09:10:14Z</time>
      </trkpt>
      <trkpt lat="42.3381700" lon="-2.5651970">
        <ele>1077.7</ele>
        <time>2022-08-13T09:10:15Z</time>
      </trkpt>
      <trkpt lat="42.3381750" lon="-2.5652140">
        <ele>1077.8</ele>
        <time>2022-08-13T09:10:16Z</time>
      </trkpt>
      <trkpt lat="42.3381820" lon="-2.5652370">
        <ele>1077.9</ele>
        <time>2022-08-13T09:10:17Z</time>
      </trkpt>
      <trkpt lat="42.3381980" lon="-2.5653220">
        <ele>1078.4</ele>
        <time>2022-08-13T09:10:20Z</time>
      </trkpt>
      <trkpt lat="42.3381730" lon="-2.5654290">
        <ele>1079.1</ele>
        <time>2022-08-13T09:10:25Z</time>
      </trkpt>
      <trkpt lat="42.3381630" lon="-2.5654690">
        <ele>1079.4</ele>
        <time>2022-08-13T09:10:27Z</time>
      </trkpt>
      <trkpt lat="42.3381500" lon="-2.5655750">
        <ele>1080.1</ele>
        <time>2022-08-13T09:10:32Z</time>
      </trkpt>
      <trkpt lat="42.3381440" lon="-2.5656220">
        <ele>1080.4</ele>
        <time>2022-08-13T09:10:35Z</time>
      </trkpt>
      <trkpt lat="42.3381440" lon="-2.5656380">
        <ele>1080.5</ele>
        <time>2022-08-13T09:10:36Z</time>
      </trkpt>
      <trkpt lat="42.3381540" lon="-2.5657180">
        <ele>1081.1</ele>
        <time>2022-08-13T09:10:40Z</time>
      </trkpt>
      <trkpt lat="42.3381530" lon="-2.5657340">
        <ele>1081.2</ele>
        <time>2022-08-13T09:10:41Z</time>
      </trkpt>
      <trkpt lat="42.3381530" lon="-2.5657520">
        <ele>1081.3</ele>
        <time>2022-08-13T09:10:42Z</time>
      </trkpt>
      <trkpt lat="42.3381490" lon="-2.5657670">
        <ele>1081.4</ele>
        <time>2022-08-13T09:10:43Z</time>
      </trkpt>
      <trkpt lat="42.3381450" lon="-2.5657940">
        <ele>1081.6</ele>
        <time>2022-08-13T09:10:45Z</time>
      </trkpt>
      <trkpt lat="42.3381470" lon="-2.5658090">
        <ele>1081.7</ele>
        <time>2022-08-13T09:10:46Z</time>
      </trkpt>
      <trkpt lat="42.3381520" lon="-2.5658460">
        <ele>1082.0</ele>
        <time>2022-08-13T09:11:13Z</time>
      </trkpt>
      <trkpt lat="42.3381530" lon="-2.5658460">
        <ele>1082.0</ele>
        <time>2022-08-13T09:11:14Z</time>
      </trkpt>
      <trkpt lat="42.3381800" lon="-2.5659410">
        <ele>1082.7</ele>
        <time>2022-08-13T09:11:55Z</time>
      </trkpt>
      <trkpt lat="42.3381800" lon="-2.5659410">
        <ele>1082.7</ele>
        <time>2022-08-13T09:11:56Z</time>
      </trkpt>
      <trkpt lat="42.3381830" lon="-2.5659490">
        <ele>1082.8</ele>
        <time>2022-08-13T09:11:57Z</time>
      </trkpt>
      <trkpt lat="42.3382260" lon="-2.5660210">
        <ele>1083.4</ele>
        <time>2022-08-13T09:12:00Z</time>
      </trkpt>
      <trkpt lat="42.3382540" lon="-2.5660710">
        <ele>1083.9</ele>
        <time>2022-08-13T09:12:02Z</time>
      </trkpt>
      <trkpt lat="42.3382630" lon="-2.5660970">
        <ele>1084.1</ele>
        <time>2022-08-13T09:12:03Z</time>
      </trkpt>
      <trkpt lat="42.3382890" lon="-2.5661780">
        <ele>1084.7</ele>
        <time>2022-08-13T09:12:06Z</time>
      </trkpt>
      <trkpt lat="42.3383150" lon="-2.5662350">
        <ele>1085.1</ele>
        <time>2022-08-13T09:12:09Z</time>
      </trkpt>
      <trkpt lat="42.3383520" lon="-2.5663470">
        <ele>1086.0</ele>
        <time>2022-08-13T09:12:14Z</time>
      </trkpt>
      <trkpt lat="42.3383700" lon="-2.5663650">
        <ele>1086.2</ele>
        <time>2022-08-13T09:12:15Z</time>
      </trkpt>
      <trkpt lat="42.3384610" lon="-2.5664510">
        <ele>1087.2</ele>
        <time>2022-08-13T09:12:19Z</time>
      </trkpt>
      <trkpt lat="42.3384750" lon="-2.5664780">
        <ele>1087.4</ele>
        <time>2022-08-13T09:12:20Z</time>
      </trkpt>
      <trkpt lat="42.3384800" lon="-2.5665060">
        <ele>1087.6</ele>
        <time>2022-08-13T09:12:21Z</time>
      </trkpt>
      <trkpt lat="42.3384840" lon="-2.5665540">
        <ele>1088.0</ele>
        <time>2022-08-13T09:12:24Z</time>
      </trkpt>
      <trkpt lat="42.3385120" lon="-2.5666100">
        <ele>1088.5</ele>
        <time>2022-08-13T09:12:27Z</time>
      </trkpt>
      <trkpt lat="42.3385090" lon="-2.5666550">
        <ele>1088.8</ele>
        <time>2022-08-13T09:12:29Z</time>
      </trkpt>
      <trkpt lat="42.3385090" lon="-2.5666590">
        <ele>1088.8</ele>
        <time>2022-08-13T09:12:30Z</time>
      </trkpt>
      <trkpt lat="42.3385060" lon="-2.5667050">
        <ele>1089.1</ele>
        <time>2022-08-13T09:12:32Z</time>
      </trkpt>
      <trkpt lat="42.3385670" lon="-2.5667780">
        <ele>1089.9</ele>
        <time>2022-08-13T09:12:38Z</time>
      </trkpt>
      <trkpt lat="42.3385750" lon="-2.5668650">
        <ele>1090.5</ele>
        <time>2022-08-13T09:12:45Z</time>
      </trkpt>
      <trkpt lat="42.3385800" lon="-2.5668850">
        <ele>1090.7</ele>
        <time>2022-08-13T09:12:46Z</time>
      </trkpt>
      <trkpt lat="42.3385850" lon="-2.5669030">
        <ele>1090.8</ele>
        <time>2022-08-13T09:12:47Z</time>
      </trkpt>
      <trkpt lat="42.3385920" lon="-2.5669730">
        <ele>1091.3</ele>
        <time>2022-08-13T09:12:51Z</time>
      </trkpt>
      <trkpt lat="42.3386110" lon="-2.5670740">
        <ele>1092.0</ele>
        <time>2022-08-13T09:12:57Z</time>
      </trkpt>
      <trkpt lat="42.3386340" lon="-2.5671660">
        <ele>1092.6</ele>
        <time>2022-08-13T09:13:02Z</time>
      </trkpt>
      <trkpt lat="42.3386340" lon="-2.5671980">
        <ele>1092.8</ele>
        <time>2022-08-13T09:13:04Z</time>
      </trkpt>
      <trkpt lat="42.3386410" lon="-2.5672320">
        <ele>1093.1</ele>
        <time>2022-08-13T09:13:06Z</time>
      </trkpt>
      <trkpt lat="42.3386430" lon="-2.5672540">
        <ele>1093.2</ele>
        <time>2022-08-13T09:13:07Z</time>
      </trkpt>
      <trkpt lat="42.3386490" lon="-2.5672710">
        <ele>1093.4</ele>
        <time>2022-08-13T09:13:08Z</time>
      </trkpt>
      <trkpt lat="42.3386740" lon="-2.5673870">
        <ele>1094.2</ele>
        <time>2022-08-13T09:13:15Z</time>
      </trkpt>
      <trkpt lat="42.3386820" lon="-2.5674030">
        <ele>1094.3</ele>
        <time>2022-08-13T09:13:16Z</time>
      </trkpt>
      <trkpt lat="42.3386940" lon="-2.5674360">
        <ele>1094.5</ele>
        <time>2022-08-13T09:13:18Z</time>
      </trkpt>
      <trkpt lat="42.3386940" lon="-2.5674710">
        <ele>1094.8</ele>
        <time>2022-08-13T09:13:20Z</time>
      </trkpt>
      <trkpt lat="42.3386900" lon="-2.5674880">
        <ele>1094.9</ele>
        <time>2022-08-13T09:13:21Z</time>
      </trkpt>
      <trkpt lat="42.3386970" lon="-2.5675910">
        <ele>1095.6</ele>
        <time>2022-08-13T09:13:27Z</time>
      </trkpt>
      <trkpt lat="42.3387080" lon="-2.5676190">
        <ele>1095.8</ele>
        <time>2022-08-13T09:13:29Z</time>
      </trkpt>
      <trkpt lat="42.3387250" lon="-2.5676820">
        <ele>1096.2</ele>
        <time>2022-08-13T09:13:34Z</time>
      </trkpt>
      <trkpt lat="42.3387360" lon="-2.5677050">
        <ele>1096.4</ele>
        <time>2022-08-13T09:13:36Z</time>
      </trkpt>
      <trkpt lat="42.3387380" lon="-2.5677230">
        <ele>1096.6</ele>
        <time>2022-08-13T09:13:37Z</time>
      </trkpt>
      <trkpt lat="42.3387410" lon="-2.5677950">
        <ele>1097.1</ele>
        <time>2022-08-13T09:13:41Z</time>
      </trkpt>
      <trkpt lat="42.3387520" lon="-2.5678280">
        <ele>1097.4</ele>
        <time>2022-08-13T09:13:43Z</time>
      </trkpt>
      <trkpt lat="42.3387560" lon="-2.5678460">
        <ele>1097.6</ele>
        <time>2022-08-13T09:13:44Z</time>
      </trkpt>
      <trkpt lat="42.3387540" lon="-2.5679400">
        <ele>1098.3</ele>
        <time>2022-08-13T09:13:50Z</time>
      </trkpt>
      <trkpt lat="42.3387560" lon="-2.5679580">
        <ele>1098.5</ele>
        <time>2022-08-13T09:13:51Z</time>
      </trkpt>
      <trkpt lat="42.3387590" lon="-2.5680100">
        <ele>1098.9</ele>
        <time>2022-08-13T09:13:54Z</time>
      </trkpt>
      <trkpt lat="42.3387710" lon="-2.5680940">
        <ele>1099.7</ele>
        <time>2022-08-13T09:13:58Z</time>
      </trkpt>
      <trkpt lat="42.3387740" lon="-2.5681290">
        <ele>1099.9</ele>
        <time>2022-08-13T09:14:00Z</time>
      </trkpt>
      <trkpt lat="42.3387730" lon="-2.5681660">
        <ele>1100.2</ele>
        <time>2022-08-13T09:14:02Z</time>
      </trkpt>
      <trkpt lat="42.3387750" lon="-2.5681810">
        <ele>1100.3</ele>
        <time>2022-08-13T09:14:03Z</time>
      </trkpt>
      <trkpt lat="42.3387760" lon="-2.5681950">
        <ele>1100.5</ele>
        <time>2022-08-13T09:14:04Z</time>
      </trkpt>
      <trkpt lat="42.3387780" lon="-2.5682080">
        <ele>1100.6</ele>
        <time>2022-08-13T09:14:05Z</time>
      </trkpt>
      <trkpt lat="42.3387760" lon="-2.5682620">
        <ele>1101.0</ele>
        <time>2022-08-13T09:14:09Z</time>
      </trkpt>
      <trkpt lat="42.3387810" lon="-2.5682910">
        <ele>1101.2</ele>
        <time>2022-08-13T09:14:11Z</time>
      </trkpt>
      <trkpt lat="42.3387830" lon="-2.5683310">
        <ele>1101.5</ele>
        <time>2022-08-13T09:14:14Z</time>
      </trkpt>
      <trkpt lat="42.3387800" lon="-2.5683610">
        <ele>1101.7</ele>
        <time>2022-08-13T09:14:16Z</time>
      </trkpt>
      <trkpt lat="42.3387620" lon="-2.5684430">
        <ele>1102.3</ele>
        <time>2022-08-13T09:14:22Z</time>
      </trkpt>
      <trkpt lat="42.3387510" lon="-2.5684820">
        <ele>1102.6</ele>
        <time>2022-08-13T09:14:25Z</time>
      </trkpt>
      <trkpt lat="42.3387490" lon="-2.5685200">
        <ele>1102.9</ele>
        <time>2022-08-13T09:14:27Z</time>
      </trkpt>
      <trkpt lat="42.3387380" lon="-2.5685920">
        <ele>1103.4</ele>
        <time>2022-08-13T09:14:31Z</time>
      </trkpt>
      <trkpt lat="42.3387400" lon="-2.5686620">
        <ele>1103.8</ele>
        <time>2022-08-13T09:14:34Z</time>
      </trkpt>
      <trkpt lat="42.3387380" lon="-2.5686990">
        <ele>1104.1</ele>
        <time>2022-08-13T09:14:36Z</time>
      </trkpt>
      <trkpt lat="42.3387320" lon="-2.5687320">
        <ele>1104.3</ele>
        <time>2022-08-13T09:14:38Z</time>
      </trkpt>
      <trkpt lat="42.3387250" lon="-2.5687930">
        <ele>1104.8</ele>
        <time>2022-08-13T09:14:41Z</time>
      </trkpt>
      <trkpt lat="42.3387150" lon="-2.5688050">
        <ele>1104.9</ele>
        <time>2022-08-13T09:14:42Z</time>
      </trkpt>
      <trkpt lat="42.3387190" lon="-2.5689300">
        <ele>1105.8</ele>
        <time>2022-08-13T09:14:47Z</time>
      </trkpt>
      <trkpt lat="42.3386810" lon="-2.5690000">
        <ele>1106.4</ele>
        <time>2022-08-13T09:14:50Z</time>
      </trkpt>
      <trkpt lat="42.3386720" lon="-2.5690330">
        <ele>1106.7</ele>
        <time>2022-08-13T09:14:52Z</time>
      </trkpt>
      <trkpt lat="42.3386690" lon="-2.5691070">
        <ele>1107.4</ele>
        <time>2022-08-13T09:14:55Z</time>
      </trkpt>
      <trkpt lat="42.3386800" lon="-2.5691350">
        <ele>1107.6</ele>
        <time>2022-08-13T09:14:57Z</time>
      </trkpt>
      <trkpt lat="42.3386780" lon="-2.5691480">
        <ele>1107.7</ele>
        <time>2022-08-13T09:14:58Z</time>
      </trkpt>
      <trkpt lat="42.3386750" lon="-2.5691640">
        <ele>1107.9</ele>
        <time>2022-08-13T09:14:59Z</time>
      </trkpt>
      <trkpt lat="42.3386630" lon="-2.5692340">
        <ele>1108.5</ele>
        <time>2022-08-13T09:15:04Z</time>
      </trkpt>
      <trkpt lat="42.3386580" lon="-2.5692830">
        <ele>1109.0</ele>
        <time>2022-08-13T09:15:07Z</time>
      </trkpt>
      <trkpt lat="42.3386670" lon="-2.5693160">
        <ele>1109.3</ele>
        <time>2022-08-13T09:15:09Z</time>
      </trkpt>
      <trkpt lat="42.3386680" lon="-2.5693450">
        <ele>1109.6</ele>
        <time>2022-08-13T09:15:11Z</time>
      </trkpt>
      <trkpt lat="42.3386630" lon="-2.5693870">
        <ele>1109.9</ele>
        <time>2022-08-13T09:15:14Z</time>
      </trkpt>
      <trkpt lat="42.3386540" lon="-2.5694120">
        <ele>1110.2</ele>
        <time>2022-08-13T09:15:16Z</time>
      </trkpt>
      <trkpt lat="42.3386420" lon="-2.5694550">
        <ele>1110.6</ele>
        <time>2022-08-13T09:15:19Z</time>
      </trkpt>
      <trkpt lat="42.3386390" lon="-2.5694920">
        <ele>1111.0</ele>
        <time>2022-08-13T09:15:21Z</time>
      </trkpt>
      <trkpt lat="42.3386450" lon="-2.5695120">
        <ele>1111.2</ele>
        <time>2022-08-13T09:15:22Z</time>
      </trkpt>
      <trkpt lat="42.3386450" lon="-2.5695190">
        <ele>1111.2</ele>
        <time>2022-08-13T09:15:45Z</time>
      </trkpt>
      <trkpt lat="42.3386590" lon="-2.5696250">
        <ele>1112.2</ele>
        <time>2022-08-13T09:15:53Z</time>
      </trkpt>
      <trkpt lat="42.3386720" lon="-2.5696660">
        <ele>1112.6</ele>
        <time>2022-08-13T09:15:57Z</time>
      </trkpt>
      <trkpt lat="42.3386530" lon="-2.5696990">
        <ele>1113.0</ele>
        <time>2022-08-13T09:16:00Z</time>
      </trkpt>
      <trkpt lat="42.3386490" lon="-2.5697110">
        <ele>1113.1</ele>
        <time>2022-08-13T09:16:01Z</time>
      </trkpt>
      <trkpt lat="42.3386460" lon="-2.5697690">
        <ele>1113.7</ele>
        <time>2022-08-13T09:16:08Z</time>
      </trkpt>
      <trkpt lat="42.3386490" lon="-2.5697860">
        <ele>1113.9</ele>
        <time>2022-08-13T09:16:10Z</time>
      </trkpt>
      <trkpt lat="42.3386360" lon="-2.5698180">
        <ele>1114.3</ele>
        <time>2022-08-13T09:16:15Z</time>
      </trkpt>
      <trkpt lat="42.3386290" lon="-2.5698250">
        <ele>1114.4</ele>
        <time>2022-08-13T09:16:16Z</time>
      </trkpt>
      <trkpt lat="42.3386280" lon="-2.5698290">
        <ele>1114.4</ele>
        <time>2022-08-13T09:16:18Z</time>
      </trkpt>
      <trkpt lat="42.3386270" lon="-2.5698310">
        <ele>1114.4</ele>
        <time>2022-08-13T09:16:20Z</time>
      </trkpt>
      <trkpt lat="42.3386260" lon="-2.5698360">
        <ele>1114.5</ele>
        <time>2022-08-13T09:16:26Z</time>
      </trkpt>
      <trkpt lat="42.3386260" lon="-2.5698360">
        <ele>1114.5</ele>
        <time>2022-08-13T09:16:27Z</time>
      </trkpt>
      <trkpt lat="42.3386260" lon="-2.5698360">
        <ele>1114.5</ele>
        <time>2022-08-13T09:16:29Z</time>
      </trkpt>
      <trkpt lat="42.3386260" lon="-2.5698360">
        <ele>1114.5</ele>
        <time>2022-08-13T09:16:35Z</time>
      </trkpt>
      <trkpt lat="42.3385660" lon="-2.5698750">
        <ele>1115.5</ele>
        <time>2022-08-13T09:16:40Z</time>
      </trkpt>
      <trkpt lat="42.3385310" lon="-2.5698820">
        <ele>1116.1</ele>
        <time>2022-08-13T09:16:45Z</time>
      </trkpt>
      <trkpt lat="42.3385100" lon="-2.5698820">
        <ele>1116.4</ele>
        <time>2022-08-13T09:17:22Z</time>
      </trkpt>
      <trkpt lat="42.3385000" lon="-2.5698800">
        <ele>1116.6</ele>
        <time>2022-08-13T09:17:23Z</time>
      </trkpt>
      <trkpt lat="42.3384800" lon="-2.5698750">
        <ele>1116.9</ele>
        <time>2022-08-13T09:17:25Z</time>
      </trkpt>
      <trkpt lat="42.3384700" lon="-2.5698750">
        <ele>1117.1</ele>
        <time>2022-08-13T09:17:26Z</time>
      </trkpt>
      <trkpt lat="42.3384150" lon="-2.5698550">
        <ele>1117.9</ele>
        <time>2022-08-13T09:17:32Z</time>
      </trkpt>
      <trkpt lat="42.3384020" lon="-2.5698350">
        <ele>1118.2</ele>
        <time>2022-08-13T09:17:34Z</time>
      </trkpt>
      <trkpt lat="42.3383840" lon="-2.5697980">
        <ele>1118.6</ele>
        <time>2022-08-13T09:17:37Z</time>
      </trkpt>
      <trkpt lat="42.3383810" lon="-2.5697850">
        <ele>1118.8</ele>
        <time>2022-08-13T09:17:38Z</time>
      </trkpt>
      <trkpt lat="42.3383760" lon="-2.5697450">
        <ele>1119.1</ele>
        <time>2022-08-13T09:17:43Z</time>
      </trkpt>
      <trkpt lat="42.3383750" lon="-2.5696890">
        <ele>1119.5</ele>
        <time>2022-08-13T09:17:48Z</time>
      </trkpt>
      <trkpt lat="42.3383700" lon="-2.5696180">
        <ele>1119.9</ele>
        <time>2022-08-13T09:17:53Z</time>
      </trkpt>
      <trkpt lat="42.3383770" lon="-2.5695840">
        <ele>1120.1</ele>
        <time>2022-08-13T09:17:55Z</time>
      </trkpt>
      <trkpt lat="42.3383850" lon="-2.5695510">
        <ele>1120.3</ele>
        <time>2022-08-13T09:17:57Z</time>
      </trkpt>
      <trkpt lat="42.3383830" lon="-2.5695360">
        <ele>1120.4</ele>
        <time>2022-08-13T09:17:58Z</time>
      </trkpt>
      <trkpt lat="42.3383790" lon="-2.5694950">
        <ele>1120.6</ele>
        <time>2022-08-13T09:18:01Z</time>
      </trkpt>
      <trkpt lat="42.3383750" lon="-2.5694510">
        <ele>1120.8</ele>
        <time>2022-08-13T09:18:04Z</time>
      </trkpt>
      <trkpt lat="42.3383740" lon="-2.5694230">
        <ele>1120.9</ele>
        <time>2022-08-13T09:18:06Z</time>
      </trkpt>
      <trkpt lat="42.3383770" lon="-2.5694110">
        <ele>1121.0</ele>
        <time>2022-08-13T09:18:07Z</time>
      </trkpt>
      <trkpt lat="42.3383750" lon="-2.5693890">
        <ele>1121.1</ele>
        <time>2022-08-13T09:18:09Z</time>
      </trkpt>
      <trkpt lat="42.3383660" lon="-2.5693310">
        <ele>1121.3</ele>
        <time>2022-08-13T09:18:14Z</time>
      </trkpt>
      <trkpt lat="42.3383750" lon="-2.5691930">
        <ele>1121.9</ele>
        <time>2022-08-13T09:18:22Z</time>
      </trkpt>
      <trkpt lat="42.3383790" lon="-2.5691760">
        <ele>1121.9</ele>
        <time>2022-08-13T09:18:23Z</time>
      </trkpt>
      <trkpt lat="42.3383670" lon="-2.5691490">
        <ele>1122.1</ele>
        <time>2022-08-13T09:18:25Z</time>
      </trkpt>
      <trkpt lat="42.3383680" lon="-2.5691380">
        <ele>1122.1</ele>
        <time>2022-08-13T09:18:26Z</time>
      </trkpt>
      <trkpt lat="42.3383640" lon="-2.5691090">
        <ele>1122.2</ele>
        <time>2022-08-13T09:18:28Z</time>
      </trkpt>
      <trkpt lat="42.3383520" lon="-2.5690860">
        <ele>1122.3</ele>
        <time>2022-08-13T09:18:30Z</time>
      </trkpt>
      <trkpt lat="42.3383460" lon="-2.5690650">
        <ele>1122.4</ele>
        <time>2022-08-13T09:18:32Z</time>
      </trkpt>
      <trkpt lat="42.3383450" lon="-2.5690540">
        <ele>1122.5</ele>
        <time>2022-08-13T09:18:33Z</time>
      </trkpt>
      <trkpt lat="42.3382930" lon="-2.5689510">
        <ele>1123.0</ele>
        <time>2022-08-13T09:18:41Z</time>
      </trkpt>
      <trkpt lat="42.3382490" lon="-2.5688790">
        <ele>1123.5</ele>
        <time>2022-08-13T09:18:47Z</time>
      </trkpt>
      <trkpt lat="42.3382380" lon="-2.5688550">
        <ele>1123.6</ele>
        <time>2022-08-13T09:18:49Z</time>
      </trkpt>
      <trkpt lat="42.3381990" lon="-2.5688030">
        <ele>1124.0</ele>
        <time>2022-08-13T09:18:53Z</time>
      </trkpt>
      <trkpt lat="42.3381770" lon="-2.5687530">
        <ele>1124.3</ele>
        <time>2022-08-13T09:18:58Z</time>
      </trkpt>
      <trkpt lat="42.3381680" lon="-2.5686560">
        <ele>1124.9</ele>
        <time>2022-08-13T09:19:04Z</time>
      </trkpt>
      <trkpt lat="42.3381690" lon="-2.5686140">
        <ele>1125.1</ele>
        <time>2022-08-13T09:19:06Z</time>
      </trkpt>
      <trkpt lat="42.3381600" lon="-2.5685830">
        <ele>1125.3</ele>
        <time>2022-08-13T09:19:08Z</time>
      </trkpt>
      <trkpt lat="42.3381660" lon="-2.5685550">
        <ele>1125.4</ele>
        <time>2022-08-13T09:19:10Z</time>
      </trkpt>
      <trkpt lat="42.3381540" lon="-2.5685380">
        <ele>1125.5</ele>
        <time>2022-08-13T09:19:11Z</time>
      </trkpt>
      <trkpt lat="42.3381410" lon="-2.5684930">
        <ele>1125.8</ele>
        <time>2022-08-13T09:19:14Z</time>
      </trkpt>
      <trkpt lat="42.3381420" lon="-2.5684690">
        <ele>1125.9</ele>
        <time>2022-08-13T09:19:16Z</time>
      </trkpt>
      <trkpt lat="42.3381360" lon="-2.5684400">
        <ele>1126.0</ele>
        <time>2022-08-13T09:19:18Z</time>
      </trkpt>
      <trkpt lat="42.3381260" lon="-2.5683980">
        <ele>1126.2</ele>
        <time>2022-08-13T09:19:21Z</time>
      </trkpt>
      <trkpt lat="42.3381240" lon="-2.5683910">
        <ele>1126.2</ele>
        <time>2022-08-13T09:19:22Z</time>
      </trkpt>
      <trkpt lat="42.3381210" lon="-2.5683760">
        <ele>1126.3</ele>
        <time>2022-08-13T09:19:23Z</time>
      </trkpt>
      <trkpt lat="42.3381130" lon="-2.5683530">
        <ele>1126.4</ele>
        <time>2022-08-13T09:19:25Z</time>
      </trkpt>
      <trkpt lat="42.3380990" lon="-2.5683060">
        <ele>1126.6</ele>
        <time>2022-08-13T09:19:28Z</time>
      </trkpt>
      <trkpt lat="42.3380720" lon="-2.5681910">
        <ele>1127.0</ele>
        <time>2022-08-13T09:19:36Z</time>
      </trkpt>
      <trkpt lat="42.3380560" lon="-2.5681500">
        <ele>1127.2</ele>
        <time>2022-08-13T09:19:39Z</time>
      </trkpt>
      <trkpt lat="42.3380320" lon="-2.5681060">
        <ele>1127.4</ele>
        <time>2022-08-13T09:19:43Z</time>
      </trkpt>
      <trkpt lat="42.3379890" lon="-2.5679690">
        <ele>1128.0</ele>
        <time>2022-08-13T09:19:53Z</time>
      </trkpt>
      <trkpt lat="42.3379680" lon="-2.5679350">
        <ele>1128.2</ele>
        <time>2022-08-13T09:19:56Z</time>
      </trkpt>
      <trkpt lat="42.3379430" lon="-2.5679020">
        <ele>1128.4</ele>
        <time>2022-08-13T09:19:59Z</time>
      </trkpt>
      <trkpt lat="42.3379400" lon="-2.5678920">
        <ele>1128.5</ele>
        <time>2022-08-13T09:20:00Z</time>
      </trkpt>
      <trkpt lat="42.3379090" lon="-2.5678140">
        <ele>1128.9</ele>
        <time>2022-08-13T09:20:06Z</time>
      </trkpt>
      <trkpt lat="42.3378900" lon="-2.5677540">
        <ele>1129.2</ele>
        <time>2022-08-13T09:20:11Z</time>
      </trkpt>
      <trkpt lat="42.3378700" lon="-2.5677280">
        <ele>1129.4</ele>
        <time>2022-08-13T09:20:14Z</time>
      </trkpt>
      <trkpt lat="42.3378210" lon="-2.5676190">
        <ele>1130.1</ele>
        <time>2022-08-13T09:20:23Z</time>
      </trkpt>
      <trkpt lat="42.3378040" lon="-2.5675910">
        <ele>1130.3</ele>
        <time>2022-08-13T09:20:26Z</time>
      </trkpt>
      <trkpt lat="42.3377960" lon="-2.5675640">
        <ele>1130.5</ele>
        <time>2022-08-13T09:20:28Z</time>
      </trkpt>
      <trkpt lat="42.3377590" lon="-2.5674840">
        <ele>1131.1</ele>
        <time>2022-08-13T09:20:34Z</time>
      </trkpt>
      <trkpt lat="42.3377480" lon="-2.5674730">
        <ele>1131.2</ele>
        <time>2022-08-13T09:20:35Z</time>
      </trkpt>
      <trkpt lat="42.3377080" lon="-2.5674050">
        <ele>1131.7</ele>
        <time>2022-08-13T09:20:41Z</time>
      </trkpt>
      <trkpt lat="42.3376980" lon="-2.5673960">
        <ele>1131.9</ele>
        <time>2022-08-13T09:20:42Z</time>
      </trkpt>
      <trkpt lat="42.3376470" lon="-2.5673290">
        <ele>1132.5</ele>
        <time>2022-08-13T09:20:48Z</time>
      </trkpt>
      <trkpt lat="42.3376490" lon="-2.5673100">
        <ele>1132.6</ele>
        <time>2022-08-13T09:20:49Z</time>
      </trkpt>
      <trkpt lat="42.3376220" lon="-2.5672860">
        <ele>1132.9</ele>
        <time>2022-08-13T09:20:51Z</time>
      </trkpt>
      <trkpt lat="42.3376190" lon="-2.5672700">
        <ele>1133.0</ele>
        <time>2022-08-13T09:20:52Z</time>
      </trkpt>
      <trkpt lat="42.3375930" lon="-2.5672360">
        <ele>1133.3</ele>
        <time>2022-08-13T09:20:55Z</time>
      </trkpt>
      <trkpt lat="42.3375720" lon="-2.5671410">
        <ele>1133.9</ele>
        <time>2022-08-13T09:21:03Z</time>
      </trkpt>
      <trkpt lat="42.3375710" lon="-2.5671260">
        <ele>1134.0</ele>
        <time>2022-08-13T09:21:04Z</time>
      </trkpt>
      <trkpt lat="42.3375660" lon="-2.5671130">
        <ele>1134.0</ele>
        <time>2022-08-13T09:21:05Z</time>
      </trkpt>
      <trkpt lat="42.3375530" lon="-2.5670790">
        <ele>1134.2</ele>
        <time>2022-08-13T09:21:08Z</time>
      </trkpt>
      <trkpt lat="42.3375150" lon="-2.5670180">
        <ele>1134.6</ele>
        <time>2022-08-13T09:21:13Z</time>
      </trkpt>
      <trkpt lat="42.3374990" lon="-2.5669990">
        <ele>1134.7</ele>
        <time>2022-08-13T09:21:15Z</time>
      </trkpt>
      <trkpt lat="42.3374560" lon="-2.5669170">
        <ele>1135.2</ele>
        <time>2022-08-13T09:21:23Z</time>
      </trkpt>
      <trkpt lat="42.3374220" lon="-2.5668480">
        <ele>1135.6</ele>
        <time>2022-08-13T09:21:29Z</time>
      </trkpt>
      <trkpt lat="42.3373890" lon="-2.5667980">
        <ele>1135.9</ele>
        <time>2022-08-13T09:21:34Z</time>
      </trkpt>
      <trkpt lat="42.3373780" lon="-2.5667840">
        <ele>1136.0</ele>
        <time>2022-08-13T09:21:35Z</time>
      </trkpt>
      <trkpt lat="42.3373270" lon="-2.5667270">
        <ele>1136.5</ele>
        <time>2022-08-13T09:21:43Z</time>
      </trkpt>
      <trkpt lat="42.3372690" lon="-2.5666940">
        <ele>1137.0</ele>
        <time>2022-08-13T09:21:48Z</time>
      </trkpt>
      <trkpt lat="42.3372650" lon="-2.5666700">
        <ele>1137.1</ele>
        <time>2022-08-13T09:21:50Z</time>
      </trkpt>
      <trkpt lat="42.3372400" lon="-2.5666150">
        <ele>1137.6</ele>
        <time>2022-08-13T09:21:55Z</time>
      </trkpt>
      <trkpt lat="42.3372360" lon="-2.5666060">
        <ele>1137.7</ele>
        <time>2022-08-13T09:22:03Z</time>
      </trkpt>
      <trkpt lat="42.3372110" lon="-2.5665790">
        <ele>1138.0</ele>
        <time>2022-08-13T09:22:06Z</time>
      </trkpt>
      <trkpt lat="42.3371750" lon="-2.5665230">
        <ele>1138.5</ele>
        <time>2022-08-13T09:22:13Z</time>
      </trkpt>
      <trkpt lat="42.3371750" lon="-2.5665230">
        <ele>1138.5</ele>
        <time>2022-08-13T09:22:14Z</time>
      </trkpt>
      <trkpt lat="42.3371750" lon="-2.5665230">
        <ele>1138.5</ele>
        <time>2022-08-13T09:23:00Z</time>
      </trkpt>
      <trkpt lat="42.3371750" lon="-2.5665230">
        <ele>1138.5</ele>
        <time>2022-08-13T09:23:01Z</time>
      </trkpt>
      <trkpt lat="42.3371540" lon="-2.5665050">
        <ele>1138.7</ele>
        <time>2022-08-13T09:23:04Z</time>
      </trkpt>
      <trkpt lat="42.3370800" lon="-2.5664460">
        <ele>1139.6</ele>
        <time>2022-08-13T09:23:13Z</time>
      </trkpt>
      <trkpt lat="42.3370520" lon="-2.5664210">
        <ele>1139.9</ele>
        <time>2022-08-13T09:23:16Z</time>
      </trkpt>
      <trkpt lat="42.3370390" lon="-2.5663990">
        <ele>1140.0</ele>
        <time>2022-08-13T09:23:18Z</time>
      </trkpt>
      <trkpt lat="42.3370120" lon="-2.5663600">
        <ele>1140.3</ele>
        <time>2022-08-13T09:23:21Z</time>
      </trkpt>
      <trkpt lat="42.3369870" lon="-2.5663380">
        <ele>1140.6</ele>
        <time>2022-08-13T09:23:24Z</time>
      </trkpt>
      <trkpt lat="42.3369740" lon="-2.5663310">
        <ele>1140.7</ele>
        <time>2022-08-13T09:23:25Z</time>
      </trkpt>
      <trkpt lat="42.3369160" lon="-2.5662890">
        <ele>1141.2</ele>
        <time>2022-08-13T09:23:30Z</time>
      </trkpt>
      <trkpt lat="42.3368900" lon="-2.5662710">
        <ele>1141.4</ele>
        <time>2022-08-13T09:23:33Z</time>
      </trkpt>
      <trkpt lat="42.3368190" lon="-2.5662360">
        <ele>1142.0</ele>
        <time>2022-08-13T09:23:38Z</time>
      </trkpt>
      <trkpt lat="42.3368120" lon="-2.5662240">
        <ele>1142.1</ele>
        <time>2022-08-13T09:23:40Z</time>
      </trkpt>
      <trkpt lat="42.3366800" lon="-2.5661220">
        <ele>1143.2</ele>
        <time>2022-08-13T09:23:49Z</time>
      </trkpt>
      <trkpt lat="42.3366310" lon="-2.5660450">
        <ele>1143.8</ele>
        <time>2022-08-13T09:23:56Z</time>
      </trkpt>
      <trkpt lat="42.3366280" lon="-2.5660380">
        <ele>1143.8</ele>
        <time>2022-08-13T09:23:57Z</time>
      </trkpt>
      <trkpt lat="42.3366280" lon="-2.5660330">
        <ele>1143.9</ele>
        <time>2022-08-13T09:23:58Z</time>
      </trkpt>
      <trkpt lat="42.3365890" lon="-2.5660140">
        <ele>1144.2</ele>
        <time>2022-08-13T09:24:04Z</time>
      </trkpt>
      <trkpt lat="42.3365790" lon="-2.5660170">
        <ele>1144.3</ele>
        <time>2022-08-13T09:24:05Z</time>
      </trkpt>
      <trkpt lat="42.3365530" lon="-2.5660540">
        <ele>1144.7</ele>
        <time>2022-08-13T09:24:09Z</time>
      </trkpt>
      <trkpt lat="42.3365590" lon="-2.5660590">
        <ele>1144.8</ele>
        <time>2022-08-13T09:24:10Z</time>
      </trkpt>
      <trkpt lat="42.3365530" lon="-2.5660800">
        <ele>1145.0</ele>
        <time>2022-08-13T09:24:14Z</time>
      </trkpt>
      <trkpt lat="42.3365530" lon="-2.5661040">
        <ele>1145.2</ele>
        <time>2022-08-13T09:24:17Z</time>
      </trkpt>
      <trkpt lat="42.3365580" lon="-2.5661290">
        <ele>1145.5</ele>
        <time>2022-08-13T09:24:21Z</time>
      </trkpt>
      <trkpt lat="42.3365580" lon="-2.5661290">
        <ele>1145.5</ele>
        <time>2022-08-13T09:24:22Z</time>
      </trkpt>
      <trkpt lat="42.3365590" lon="-2.5661310">
        <ele>1145.5</ele>
        <time>2022-08-13T09:24:23Z</time>
      </trkpt>
      <trkpt lat="42.3365650" lon="-2.5661630">
        <ele>1145.8</ele>
        <time>2022-08-13T09:24:29Z</time>
      </trkpt>
      <trkpt lat="42.3365750" lon="-2.5661790">
        <ele>1146.0</ele>
        <time>2022-08-13T09:24:30Z</time>
      </trkpt>
      <trkpt lat="42.3366140" lon="-2.5662700">
        <ele>1147.2</ele>
        <time>2022-08-13T09:24:36Z</time>
      </trkpt>
      <trkpt lat="42.3366200" lon="-2.5663060">
        <ele>1147.6</ele>
        <time>2022-08-13T09:24:38Z</time>
      </trkpt>
      <trkpt lat="42.3366410" lon="-2.5663630">
        <ele>1148.4</ele>
        <time>2022-08-13T09:24:44Z</time>
      </trkpt>
      <trkpt lat="42.3366470" lon="-2.5663880">
        <ele>1148.7</ele>
        <time>2022-08-13T09:24:46Z</time>
      </trkpt>
      <trkpt lat="42.3366660" lon="-2.5664050">
        <ele>1149.0</ele>
        <time>2022-08-13T09:24:48Z</time>
      </trkpt>
      <trkpt lat="42.3366800" lon="-2.5664270">
        <ele>1149.3</ele>
        <time>2022-08-13T09:24:51Z</time>
      </trkpt>
      <trkpt lat="42.3367010" lon="-2.5664860">
        <ele>1149.9</ele>
        <time>2022-08-13T09:24:57Z</time>
      </trkpt>
      <trkpt lat="42.3367240" lon="-2.5665320">
        <ele>1150.4</ele>
        <time>2022-08-13T09:25:01Z</time>
      </trkpt>
      <trkpt lat="42.3367300" lon="-2.5665840">
        <ele>1150.9</ele>
        <time>2022-08-13T09:25:05Z</time>
      </trkpt>
      <trkpt lat="42.3367420" lon="-2.5666200">
        <ele>1151.1</ele>
        <time>2022-08-13T09:25:08Z</time>
      </trkpt>
      <trkpt lat="42.3367570" lon="-2.5666720">
        <ele>1151.6</ele>
        <time>2022-08-13T09:25:12Z</time>
      </trkpt>
      <trkpt lat="42.3367590" lon="-2.5666810">
        <ele>1151.6</ele>
        <time>2022-08-13T09:25:13Z</time>
      </trkpt>
      <trkpt lat="42.3367730" lon="-2.5667510">
        <ele>1152.1</ele>
        <time>2022-08-13T09:25:17Z</time>
      </trkpt>
      <trkpt lat="42.3367830" lon="-2.5667810">
        <ele>1152.3</ele>
        <time>2022-08-13T09:25:19Z</time>
      </trkpt>
      <trkpt lat="42.3367900" lon="-2.5668030">
        <ele>1152.5</ele>
        <time>2022-08-13T09:25:21Z</time>
      </trkpt>
      <trkpt lat="42.3367980" lon="-2.5668450">
        <ele>1152.7</ele>
        <time>2022-08-13T09:25:24Z</time>
      </trkpt>
      <trkpt lat="42.3367980" lon="-2.5668680">
        <ele>1152.8</ele>
        <time>2022-08-13T09:25:26Z</time>
      </trkpt>
      <trkpt lat="42.3368020" lon="-2.5668910">
        <ele>1153.0</ele>
        <time>2022-08-13T09:25:28Z</time>
      </trkpt>
      <trkpt lat="42.3368010" lon="-2.5669030">
        <ele>1153.0</ele>
        <time>2022-08-13T09:25:29Z</time>
      </trkpt>
      <trkpt lat="42.3368080" lon="-2.5669250">
        <ele>1153.1</ele>
        <time>2022-08-13T09:25:31Z</time>
      </trkpt>
      <trkpt lat="42.3368230" lon="-2.5669520">
        <ele>1153.3</ele>
        <time>2022-08-13T09:25:34Z</time>
      </trkpt>
      <trkpt lat="42.3368180" lon="-2.5669770">
        <ele>1153.4</ele>
        <time>2022-08-13T09:25:35Z</time>
      </trkpt>
      <trkpt lat="42.3368330" lon="-2.5670430">
        <ele>1153.7</ele>
        <time>2022-08-13T09:25:40Z</time>
      </trkpt>
      <trkpt lat="42.3368450" lon="-2.5670610">
        <ele>1153.8</ele>
        <time>2022-08-13T09:25:42Z</time>
      </trkpt>
      <trkpt lat="42.3368550" lon="-2.5670680">
        <ele>1153.9</ele>
        <time>2022-08-13T09:25:43Z</time>
      </trkpt>
      <trkpt lat="42.3368560" lon="-2.5670800">
        <ele>1153.9</ele>
        <time>2022-08-13T09:25:44Z</time>
      </trkpt>
      <trkpt lat="42.3368740" lon="-2.5671740">
        <ele>1154.3</ele>
        <time>2022-08-13T09:25:50Z</time>
      </trkpt>
      <trkpt lat="42.3368820" lon="-2.5671970">
        <ele>1154.4</ele>
        <time>2022-08-13T09:25:52Z</time>
      </trkpt>
      <trkpt lat="42.3369020" lon="-2.5672260">
        <ele>1154.5</ele>
        <time>2022-08-13T09:25:55Z</time>
      </trkpt>
      <trkpt lat="42.3369190" lon="-2.5672560">
        <ele>1154.6</ele>
        <time>2022-08-13T09:25:58Z</time>
      </trkpt>
      <trkpt lat="42.3369440" lon="-2.5673090">
        <ele>1154.7</ele>
        <time>2022-08-13T09:26:02Z</time>
      </trkpt>
      <trkpt lat="42.3369580" lon="-2.5673360">
        <ele>1154.7</ele>
        <time>2022-08-13T09:26:04Z</time>
      </trkpt>
      <trkpt lat="42.3369650" lon="-2.5673480">
        <ele>1154.8</ele>
        <time>2022-08-13T09:26:07Z</time>
      </trkpt>
      <trkpt lat="42.3370190" lon="-2.5677530">
        <ele>1155.4</ele>
        <time>2022-08-13T09:39:53Z</time>
      </trkpt>
      <trkpt lat="42.3370230" lon="-2.5677600">
        <ele>1155.4</ele>
        <time>2022-08-13T09:39:54Z</time>
      </trkpt>
      <trkpt lat="42.3370310" lon="-2.5677650">
        <ele>1155.5</ele>
        <time>2022-08-13T09:39:55Z</time>
      </trkpt>
      <trkpt lat="42.3370340" lon="-2.5677770">
        <ele>1155.5</ele>
        <time>2022-08-13T09:39:56Z</time>
      </trkpt>
      <trkpt lat="42.3370450" lon="-2.5677940">
        <ele>1155.5</ele>
        <time>2022-08-13T09:39:58Z</time>
      </trkpt>
      <trkpt lat="42.3370570" lon="-2.5678060">
        <ele>1155.6</ele>
        <time>2022-08-13T09:40:13Z</time>
      </trkpt>
      <trkpt lat="42.3370690" lon="-2.5678560">
        <ele>1155.7</ele>
        <time>2022-08-13T09:40:15Z</time>
      </trkpt>
      <trkpt lat="42.3370860" lon="-2.5679020">
        <ele>1155.8</ele>
        <time>2022-08-13T09:40:17Z</time>
      </trkpt>
      <trkpt lat="42.3371170" lon="-2.5680180">
        <ele>1156.2</ele>
        <time>2022-08-13T09:40:21Z</time>
      </trkpt>
      <trkpt lat="42.3371220" lon="-2.5680410">
        <ele>1156.2</ele>
        <time>2022-08-13T09:40:22Z</time>
      </trkpt>
      <trkpt lat="42.3371290" lon="-2.5680850">
        <ele>1156.4</ele>
        <time>2022-08-13T09:40:24Z</time>
      </trkpt>
      <trkpt lat="42.3371320" lon="-2.5681280">
        <ele>1156.5</ele>
        <time>2022-08-13T09:40:26Z</time>
      </trkpt>
      <trkpt lat="42.3371430" lon="-2.5682930">
        <ele>1156.8</ele>
        <time>2022-08-13T09:40:32Z</time>
      </trkpt>
      <trkpt lat="42.3371640" lon="-2.5683360">
        <ele>1156.9</ele>
        <time>2022-08-13T09:40:34Z</time>
      </trkpt>
      <trkpt lat="42.3371780" lon="-2.5684010">
        <ele>1156.9</ele>
        <time>2022-08-13T09:40:36Z</time>
      </trkpt>
      <trkpt lat="42.3371810" lon="-2.5684220">
        <ele>1157.0</ele>
        <time>2022-08-13T09:40:37Z</time>
      </trkpt>
      <trkpt lat="42.3371720" lon="-2.5684930">
        <ele>1157.2</ele>
        <time>2022-08-13T09:40:41Z</time>
      </trkpt>
      <trkpt lat="42.3371710" lon="-2.5685090">
        <ele>1157.2</ele>
        <time>2022-08-13T09:40:42Z</time>
      </trkpt>
      <trkpt lat="42.3371700" lon="-2.5685240">
        <ele>1157.2</ele>
        <time>2022-08-13T09:40:43Z</time>
      </trkpt>
      <trkpt lat="42.3371740" lon="-2.5685420">
        <ele>1157.3</ele>
        <time>2022-08-13T09:40:44Z</time>
      </trkpt>
      <trkpt lat="42.3371810" lon="-2.5686060">
        <ele>1157.5</ele>
        <time>2022-08-13T09:40:47Z</time>
      </trkpt>
      <trkpt lat="42.3371840" lon="-2.5687150">
        <ele>1157.8</ele>
        <time>2022-08-13T09:40:52Z</time>
      </trkpt>
      <trkpt lat="42.3371840" lon="-2.5687880">
        <ele>1158.0</ele>
        <time>2022-08-13T09:40:56Z</time>
      </trkpt>
      <trkpt lat="42.3371930" lon="-2.5688620">
        <ele>1158.2</ele>
        <time>2022-08-13T09:41:00Z</time>
      </trkpt>
      <trkpt lat="42.3371970" lon="-2.5689490">
        <ele>1158.5</ele>
        <time>2022-08-13T09:41:03Z</time>
      </trkpt>
      <trkpt lat="42.3372030" lon="-2.5689930">
        <ele>1158.6</ele>
        <time>2022-08-13T09:41:05Z</time>
      </trkpt>
      <trkpt lat="42.3372020" lon="-2.5690120">
        <ele>1158.7</ele>
        <time>2022-08-13T09:41:06Z</time>
      </trkpt>
      <trkpt lat="42.3371990" lon="-2.5690540">
        <ele>1158.8</ele>
        <time>2022-08-13T09:41:08Z</time>
      </trkpt>
      <trkpt lat="42.3371830" lon="-2.5690990">
        <ele>1159.0</ele>
        <time>2022-08-13T09:41:12Z</time>
      </trkpt>
      <trkpt lat="42.3371670" lon="-2.5691280">
        <ele>1159.1</ele>
        <time>2022-08-13T09:41:13Z</time>
      </trkpt>
      <trkpt lat="42.3371400" lon="-2.5691640">
        <ele>1159.3</ele>
        <time>2022-08-13T09:41:14Z</time>
      </trkpt>
      <trkpt lat="42.3371040" lon="-2.5692060">
        <ele>1159.6</ele>
        <time>2022-08-13T09:41:16Z</time>
      </trkpt>
      <trkpt lat="42.3370750" lon="-2.5692070">
        <ele>1159.8</ele>
        <time>2022-08-13T09:41:18Z</time>
      </trkpt>
      <trkpt lat="42.3370580" lon="-2.5691810">
        <ele>1160.0</ele>
        <time>2022-08-13T09:41:20Z</time>
      </trkpt>
      <trkpt lat="42.3370530" lon="-2.5691450">
        <ele>1160.2</ele>
        <time>2022-08-13T09:41:23Z</time>
      </trkpt>
      <trkpt lat="42.3370420" lon="-2.5691350">
        <ele>1160.2</ele>
        <time>2022-08-13T09:41:24Z</time>
      </trkpt>
      <trkpt lat="42.3370210" lon="-2.5691020">
        <ele>1160.5</ele>
        <time>2022-08-13T09:41:26Z</time>
      </trkpt>
      <trkpt lat="42.3370140" lon="-2.5690640">
        <ele>1160.7</ele>
        <time>2022-08-13T09:41:28Z</time>
      </trkpt>
      <trkpt lat="42.3370150" lon="-2.5690500">
        <ele>1160.7</ele>
        <time>2022-08-13T09:41:29Z</time>
      </trkpt>
      <trkpt lat="42.3370110" lon="-2.5690150">
        <ele>1160.9</ele>
        <time>2022-08-13T09:41:31Z</time>
      </trkpt>
      <trkpt lat="42.3370060" lon="-2.5689590">
        <ele>1161.1</ele>
        <time>2022-08-13T09:41:34Z</time>
      </trkpt>
      <trkpt lat="42.3370060" lon="-2.5689390">
        <ele>1161.2</ele>
        <time>2022-08-13T09:41:35Z</time>
      </trkpt>
      <trkpt lat="42.3370180" lon="-2.5688530">
        <ele>1161.5</ele>
        <time>2022-08-13T09:41:39Z</time>
      </trkpt>
      <trkpt lat="42.3370310" lon="-2.5688050">
        <ele>1161.6</ele>
        <time>2022-08-13T09:41:41Z</time>
      </trkpt>
      <trkpt lat="42.3370430" lon="-2.5686790">
        <ele>1161.9</ele>
        <time>2022-08-13T09:41:46Z</time>
      </trkpt>
      <trkpt lat="42.3370380" lon="-2.5686230">
        <ele>1162.0</ele>
        <time>2022-08-13T09:41:48Z</time>
      </trkpt>
      <trkpt lat="42.3370130" lon="-2.5686020">
        <ele>1162.1</ele>
        <time>2022-08-13T09:41:49Z</time>
      </trkpt>
      <trkpt lat="42.3369710" lon="-2.5685630">
        <ele>1162.3</ele>
        <time>2022-08-13T09:41:51Z</time>
      </trkpt>
      <trkpt lat="42.3369610" lon="-2.5685280">
        <ele>1162.4</ele>
        <time>2022-08-13T09:41:53Z</time>
      </trkpt>
      <trkpt lat="42.3369190" lon="-2.5684890">
        <ele>1162.6</ele>
        <time>2022-08-13T09:41:55Z</time>
      </trkpt>
      <trkpt lat="42.3369250" lon="-2.5684280">
        <ele>1162.8</ele>
        <time>2022-08-13T09:41:58Z</time>
      </trkpt>
      <trkpt lat="42.3369100" lon="-2.5683340">
        <ele>1163.2</ele>
        <time>2022-08-13T09:42:01Z</time>
      </trkpt>
      <trkpt lat="42.3368410" lon="-2.5682070">
        <ele>1164.0</ele>
        <time>2022-08-13T09:42:07Z</time>
      </trkpt>
      <trkpt lat="42.3368260" lon="-2.5681850">
        <ele>1164.1</ele>
        <time>2022-08-13T09:42:08Z</time>
      </trkpt>
      <trkpt lat="42.3368170" lon="-2.5681740">
        <ele>1164.2</ele>
        <time>2022-08-13T09:42:09Z</time>
      </trkpt>
      <trkpt lat="42.3367990" lon="-2.5681520">
        <ele>1164.4</ele>
        <time>2022-08-13T09:42:11Z</time>
      </trkpt>
      <trkpt lat="42.3367540" lon="-2.5681280">
        <ele>1164.8</ele>
        <time>2022-08-13T09:42:14Z</time>
      </trkpt>
      <trkpt lat="42.3367030" lon="-2.5680800">
        <ele>1165.4</ele>
        <time>2022-08-13T09:42:18Z</time>
      </trkpt>
      <trkpt lat="42.3366800" lon="-2.5680540">
        <ele>1165.7</ele>
        <time>2022-08-13T09:42:20Z</time>
      </trkpt>
      <trkpt lat="42.3366270" lon="-2.5679660">
        <ele>1166.6</ele>
        <time>2022-08-13T09:42:25Z</time>
      </trkpt>
      <trkpt lat="42.3366090" lon="-2.5679420">
        <ele>1166.8</ele>
        <time>2022-08-13T09:42:27Z</time>
      </trkpt>
      <trkpt lat="42.3365960" lon="-2.5679020">
        <ele>1167.1</ele>
        <time>2022-08-13T09:42:29Z</time>
      </trkpt>
      <trkpt lat="42.3365670" lon="-2.5678220">
        <ele>1167.8</ele>
        <time>2022-08-13T09:42:33Z</time>
      </trkpt>
      <trkpt lat="42.3365540" lon="-2.5677870">
        <ele>1168.0</ele>
        <time>2022-08-13T09:42:35Z</time>
      </trkpt>
      <trkpt lat="42.3365450" lon="-2.5677520">
        <ele>1168.3</ele>
        <time>2022-08-13T09:42:37Z</time>
      </trkpt>
      <trkpt lat="42.3365390" lon="-2.5677070">
        <ele>1168.6</ele>
        <time>2022-08-13T09:42:39Z</time>
      </trkpt>
      <trkpt lat="42.3364860" lon="-2.5675950">
        <ele>1169.4</ele>
        <time>2022-08-13T09:42:44Z</time>
      </trkpt>
      <trkpt lat="42.3364840" lon="-2.5675760">
        <ele>1169.5</ele>
        <time>2022-08-13T09:42:45Z</time>
      </trkpt>
      <trkpt lat="42.3364100" lon="-2.5674900">
        <ele>1170.3</ele>
        <time>2022-08-13T09:42:49Z</time>
      </trkpt>
      <trkpt lat="42.3363900" lon="-2.5674410">
        <ele>1170.6</ele>
        <time>2022-08-13T09:42:51Z</time>
      </trkpt>
      <trkpt lat="42.3363650" lon="-2.5674320">
        <ele>1170.8</ele>
        <time>2022-08-13T09:42:52Z</time>
      </trkpt>
      <trkpt lat="42.3363690" lon="-2.5674080">
        <ele>1171.0</ele>
        <time>2022-08-13T09:42:53Z</time>
      </trkpt>
      <trkpt lat="42.3363440" lon="-2.5673440">
        <ele>1171.4</ele>
        <time>2022-08-13T09:42:57Z</time>
      </trkpt>
      <trkpt lat="42.3363320" lon="-2.5673050">
        <ele>1171.6</ele>
        <time>2022-08-13T09:42:59Z</time>
      </trkpt>
      <trkpt lat="42.3363200" lon="-2.5672940">
        <ele>1171.7</ele>
        <time>2022-08-13T09:43:00Z</time>
      </trkpt>
      <trkpt lat="42.3362850" lon="-2.5672610">
        <ele>1172.1</ele>
        <time>2022-08-13T09:43:03Z</time>
      </trkpt>
      <trkpt lat="42.3362010" lon="-2.5672090">
        <ele>1172.8</ele>
        <time>2022-08-13T09:43:09Z</time>
      </trkpt>
      <trkpt lat="42.3361930" lon="-2.5671950">
        <ele>1172.9</ele>
        <time>2022-08-13T09:43:10Z</time>
      </trkpt>
      <trkpt lat="42.3361360" lon="-2.5671210">
        <ele>1173.5</ele>
        <time>2022-08-13T09:43:16Z</time>
      </trkpt>
      <trkpt lat="42.3361190" lon="-2.5670930">
        <ele>1173.7</ele>
        <time>2022-08-13T09:43:18Z</time>
      </trkpt>
      <trkpt lat="42.3361010" lon="-2.5670630">
        <ele>1174.0</ele>
        <time>2022-08-13T09:43:20Z</time>
      </trkpt>
      <trkpt lat="42.3361010" lon="-2.5670400">
        <ele>1174.1</ele>
        <time>2022-08-13T09:43:22Z</time>
      </trkpt>
      <trkpt lat="42.3360830" lon="-2.5669710">
        <ele>1174.5</ele>
        <time>2022-08-13T09:43:26Z</time>
      </trkpt>
      <trkpt lat="42.3360660" lon="-2.5669520">
        <ele>1174.7</ele>
        <time>2022-08-13T09:43:27Z</time>
      </trkpt>
      <trkpt lat="42.3360030" lon="-2.5668450">
        <ele>1175.6</ele>
        <time>2022-08-13T09:43:33Z</time>
      </trkpt>
      <trkpt lat="42.3359950" lon="-2.5668300">
        <ele>1175.7</ele>
        <time>2022-08-13T09:43:34Z</time>
      </trkpt>
      <trkpt lat="42.3359880" lon="-2.5668020">
        <ele>1175.9</ele>
        <time>2022-08-13T09:43:36Z</time>
      </trkpt>
      <trkpt lat="42.3359880" lon="-2.5668020">
        <ele>1175.9</ele>
        <time>2022-08-13T09:43:37Z</time>
      </trkpt>
      <trkpt lat="42.3359450" lon="-2.5667480">
        <ele>1176.5</ele>
        <time>2022-08-13T09:43:39Z</time>
      </trkpt>
      <trkpt lat="42.3359140" lon="-2.5667240">
        <ele>1176.8</ele>
        <time>2022-08-13T09:43:41Z</time>
      </trkpt>
      <trkpt lat="42.3358680" lon="-2.5666860">
        <ele>1177.3</ele>
        <time>2022-08-13T09:43:44Z</time>
      </trkpt>
      <trkpt lat="42.3358160" lon="-2.5666550">
        <ele>1177.9</ele>
        <time>2022-08-13T09:43:48Z</time>
      </trkpt>
      <trkpt lat="42.3357950" lon="-2.5666440">
        <ele>1178.2</ele>
        <time>2022-08-13T09:43:50Z</time>
      </trkpt>
      <trkpt lat="42.3357810" lon="-2.5666280">
        <ele>1178.4</ele>
        <time>2022-08-13T09:43:52Z</time>
      </trkpt>
      <trkpt lat="42.3357720" lon="-2.5666230">
        <ele>1178.5</ele>
        <time>2022-08-13T09:43:53Z</time>
      </trkpt>
      <trkpt lat="42.3357570" lon="-2.5666140">
        <ele>1178.7</ele>
        <time>2022-08-13T09:43:55Z</time>
      </trkpt>
      <trkpt lat="42.3357150" lon="-2.5666050">
        <ele>1179.3</ele>
        <time>2022-08-13T09:44:00Z</time>
      </trkpt>
      <trkpt lat="42.3356870" lon="-2.5666090">
        <ele>1179.7</ele>
        <time>2022-08-13T09:44:02Z</time>
      </trkpt>
      <trkpt lat="42.3356640" lon="-2.5666120">
        <ele>1180.0</ele>
        <time>2022-08-13T09:44:04Z</time>
      </trkpt>
      <trkpt lat="42.3356640" lon="-2.5666120">
        <ele>1180.0</ele>
        <time>2022-08-13T09:44:05Z</time>
      </trkpt>
      <trkpt lat="42.3356640" lon="-2.5666120">
        <ele>1180.0</ele>
        <time>2022-08-13T09:44:22Z</time>
      </trkpt>
      <trkpt lat="42.3356570" lon="-2.5666140">
        <ele>1180.1</ele>
        <time>2022-08-13T09:44:24Z</time>
      </trkpt>
      <trkpt lat="42.3356390" lon="-2.5666220">
        <ele>1180.4</ele>
        <time>2022-08-13T09:44:29Z</time>
      </trkpt>
      <trkpt lat="42.3356310" lon="-2.5666550">
        <ele>1180.8</ele>
        <time>2022-08-13T09:44:30Z</time>
      </trkpt>
      <trkpt lat="42.3356120" lon="-2.5666890">
        <ele>1181.2</ele>
        <time>2022-08-13T09:44:34Z</time>
      </trkpt>
      <trkpt lat="42.3355900" lon="-2.5667160">
        <ele>1181.7</ele>
        <time>2022-08-13T09:44:36Z</time>
      </trkpt>
      <trkpt lat="42.3355830" lon="-2.5667230">
        <ele>1181.8</ele>
        <time>2022-08-13T09:44:37Z</time>
      </trkpt>
      <trkpt lat="42.3355910" lon="-2.5667270">
        <ele>1181.9</ele>
        <time>2022-08-13T09:44:39Z</time>
      </trkpt>
      <trkpt lat="42.3356060" lon="-2.5667290">
        <ele>1182.1</ele>
        <time>2022-08-13T09:44:42Z</time>
      </trkpt>
      <trkpt lat="42.3356220" lon="-2.5667680">
        <ele>1182.5</ele>
        <time>2022-08-13T09:44:46Z</time>
      </trkpt>
      <trkpt lat="42.3356380" lon="-2.5667920">
        <ele>1182.9</ele>
        <time>2022-08-13T09:44:49Z</time>
      </trkpt>
      <trkpt lat="42.3356600" lon="-2.5668150">
        <ele>1183.2</ele>
        <time>2022-08-13T09:44:53Z</time>
      </trkpt>
      <trkpt lat="42.3356810" lon="-2.5668650">
        <ele>1183.7</ele>
        <time>2022-08-13T09:44:59Z</time>
      </trkpt>
      <trkpt lat="42.3356900" lon="-2.5668690">
        <ele>1183.8</ele>
        <time>2022-08-13T09:45:00Z</time>
      </trkpt>
      <trkpt lat="42.3357270" lon="-2.5669120">
        <ele>1184.2</ele>
        <time>2022-08-13T09:45:06Z</time>
      </trkpt>
      <trkpt lat="42.3358090" lon="-2.5669780">
        <ele>1185.1</ele>
        <time>2022-08-13T09:45:12Z</time>
      </trkpt>
      <trkpt lat="42.3358420" lon="-2.5670060">
        <ele>1185.4</ele>
        <time>2022-08-13T09:45:16Z</time>
      </trkpt>
      <trkpt lat="42.3358810" lon="-2.5670310">
        <ele>1185.7</ele>
        <time>2022-08-13T09:45:28Z</time>
      </trkpt>
      <trkpt lat="42.3359170" lon="-2.5670750">
        <ele>1186.1</ele>
        <time>2022-08-13T09:45:32Z</time>
      </trkpt>
      <trkpt lat="42.3359280" lon="-2.5670830">
        <ele>1186.2</ele>
        <time>2022-08-13T09:45:33Z</time>
      </trkpt>
      <trkpt lat="42.3359530" lon="-2.5671090">
        <ele>1186.4</ele>
        <time>2022-08-13T09:45:36Z</time>
      </trkpt>
      <trkpt lat="42.3359660" lon="-2.5671280">
        <ele>1186.5</ele>
        <time>2022-08-13T09:45:38Z</time>
      </trkpt>
      <trkpt lat="42.3359760" lon="-2.5671490">
        <ele>1186.7</ele>
        <time>2022-08-13T09:45:40Z</time>
      </trkpt>
      <trkpt lat="42.3359840" lon="-2.5671590">
        <ele>1186.7</ele>
        <time>2022-08-13T09:45:41Z</time>
      </trkpt>
      <trkpt lat="42.3360300" lon="-2.5672350">
        <ele>1187.2</ele>
        <time>2022-08-13T09:45:48Z</time>
      </trkpt>
      <trkpt lat="42.3360400" lon="-2.5672600">
        <ele>1187.4</ele>
        <time>2022-08-13T09:45:50Z</time>
      </trkpt>
      <trkpt lat="42.3360640" lon="-2.5672970">
        <ele>1187.6</ele>
        <time>2022-08-13T09:45:53Z</time>
      </trkpt>
      <trkpt lat="42.3360710" lon="-2.5673080">
        <ele>1187.7</ele>
        <time>2022-08-13T09:45:54Z</time>
      </trkpt>
      <trkpt lat="42.3360950" lon="-2.5673480">
        <ele>1187.9</ele>
        <time>2022-08-13T09:45:57Z</time>
      </trkpt>
      <trkpt lat="42.3361080" lon="-2.5673720">
        <ele>1188.0</ele>
        <time>2022-08-13T09:45:59Z</time>
      </trkpt>
      <trkpt lat="42.3361160" lon="-2.5674040">
        <ele>1188.2</ele>
        <time>2022-08-13T09:46:01Z</time>
      </trkpt>
      <trkpt lat="42.3361170" lon="-2.5674180">
        <ele>1188.3</ele>
        <time>2022-08-13T09:46:02Z</time>
      </trkpt>
      <trkpt lat="42.3361360" lon="-2.5674400">
        <ele>1188.5</ele>
        <time>2022-08-13T09:46:04Z</time>
      </trkpt>
      <trkpt lat="42.3361560" lon="-2.5674520">
        <ele>1188.6</ele>
        <time>2022-08-13T09:46:06Z</time>
      </trkpt>
      <trkpt lat="42.3361630" lon="-2.5674610">
        <ele>1188.7</ele>
        <time>2022-08-13T09:46:07Z</time>
      </trkpt>
      <trkpt lat="42.3361830" lon="-2.5675120">
        <ele>1189.0</ele>
        <time>2022-08-13T09:46:12Z</time>
      </trkpt>
      <trkpt lat="42.3362330" lon="-2.5675730">
        <ele>1189.5</ele>
        <time>2022-08-13T09:46:17Z</time>
      </trkpt>
      <trkpt lat="42.3362390" lon="-2.5675880">
        <ele>1189.6</ele>
        <time>2022-08-13T09:46:18Z</time>
      </trkpt>
      <trkpt lat="42.3362470" lon="-2.5676000">
        <ele>1189.7</ele>
        <time>2022-08-13T09:46:19Z</time>
      </trkpt>
      <trkpt lat="42.3362540" lon="-2.5676190">
        <ele>1189.8</ele>
        <time>2022-08-13T09:46:20Z</time>
      </trkpt>
      <trkpt lat="42.3362880" lon="-2.5677150">
        <ele>1190.4</ele>
        <time>2022-08-13T09:46:25Z</time>
      </trkpt>
      <trkpt lat="42.3362970" lon="-2.5678010">
        <ele>1190.8</ele>
        <time>2022-08-13T09:46:30Z</time>
      </trkpt>
      <trkpt lat="42.3363080" lon="-2.5678500">
        <ele>1191.1</ele>
        <time>2022-08-13T09:46:33Z</time>
      </trkpt>
      <trkpt lat="42.3363160" lon="-2.5679690">
        <ele>1191.8</ele>
        <time>2022-08-13T09:46:39Z</time>
      </trkpt>
      <trkpt lat="42.3363160" lon="-2.5679980">
        <ele>1191.9</ele>
        <time>2022-08-13T09:46:41Z</time>
      </trkpt>
      <trkpt lat="42.3363230" lon="-2.5680220">
        <ele>1192.1</ele>
        <time>2022-08-13T09:46:44Z</time>
      </trkpt>
      <trkpt lat="42.3363310" lon="-2.5680720">
        <ele>1192.4</ele>
        <time>2022-08-13T09:46:47Z</time>
      </trkpt>
      <trkpt lat="42.3363410" lon="-2.5681210">
        <ele>1192.7</ele>
        <time>2022-08-13T09:46:51Z</time>
      </trkpt>
      <trkpt lat="42.3363600" lon="-2.5681680">
        <ele>1193.1</ele>
        <time>2022-08-13T09:46:54Z</time>
      </trkpt>
      <trkpt lat="42.3363580" lon="-2.5681790">
        <ele>1193.1</ele>
        <time>2022-08-13T09:46:55Z</time>
      </trkpt>
      <trkpt lat="42.3363940" lon="-2.5682810">
        <ele>1193.9</ele>
        <time>2022-08-13T09:47:03Z</time>
      </trkpt>
      <trkpt lat="42.3363980" lon="-2.5683040">
        <ele>1194.1</ele>
        <time>2022-08-13T09:47:05Z</time>
      </trkpt>
      <trkpt lat="42.3364220" lon="-2.5683720">
        <ele>1194.6</ele>
        <time>2022-08-13T09:47:11Z</time>
      </trkpt>
      <trkpt lat="42.3364330" lon="-2.5684210">
        <ele>1195.0</ele>
        <time>2022-08-13T09:47:16Z</time>
      </trkpt>
      <trkpt lat="42.3364360" lon="-2.5684500">
        <ele>1195.2</ele>
        <time>2022-08-13T09:47:18Z</time>
      </trkpt>
      <trkpt lat="42.3364460" lon="-2.5685060">
        <ele>1195.6</ele>
        <time>2022-08-13T09:47:22Z</time>
      </trkpt>
      <trkpt lat="42.3364540" lon="-2.5685780">
        <ele>1196.1</ele>
        <time>2022-08-13T09:47:27Z</time>
      </trkpt>
      <trkpt lat="42.3364480" lon="-2.5685960">
        <ele>1196.3</ele>
        <time>2022-08-13T09:47:28Z</time>
      </trkpt>
      <trkpt lat="42.3364230" lon="-2.5687320">
        <ele>1197.2</ele>
        <time>2022-08-13T09:47:35Z</time>
      </trkpt>
      <trkpt lat="42.3364190" lon="-2.5687550">
        <ele>1197.3</ele>
        <time>2022-08-13T09:47:36Z</time>
      </trkpt>
      <trkpt lat="42.3364070" lon="-2.5688120">
        <ele>1197.7</ele>
        <time>2022-08-13T09:47:39Z</time>
      </trkpt>
      <trkpt lat="42.3364060" lon="-2.5688290">
        <ele>1197.8</ele>
        <time>2022-08-13T09:47:40Z</time>
      </trkpt>
      <trkpt lat="42.3364050" lon="-2.5688650">
        <ele>1198.0</ele>
        <time>2022-08-13T09:47:42Z</time>
      </trkpt>
      <trkpt lat="42.3364050" lon="-2.5689060">
        <ele>1198.3</ele>
        <time>2022-08-13T09:47:45Z</time>
      </trkpt>
      <trkpt lat="42.3364110" lon="-2.5689310">
        <ele>1198.4</ele>
        <time>2022-08-13T09:47:47Z</time>
      </trkpt>
      <trkpt lat="42.3364110" lon="-2.5689450">
        <ele>1198.5</ele>
        <time>2022-08-13T09:47:48Z</time>
      </trkpt>
      <trkpt lat="42.3364090" lon="-2.5689740">
        <ele>1198.7</ele>
        <time>2022-08-13T09:47:50Z</time>
      </trkpt>
      <trkpt lat="42.3364070" lon="-2.5689880">
        <ele>1198.8</ele>
        <time>2022-08-13T09:47:51Z</time>
      </trkpt>
      <trkpt lat="42.3364060" lon="-2.5690230">
        <ele>1199.0</ele>
        <time>2022-08-13T09:47:55Z</time>
      </trkpt>
      <trkpt lat="42.3364010" lon="-2.5690970">
        <ele>1199.5</ele>
        <time>2022-08-13T09:48:02Z</time>
      </trkpt>
      <trkpt lat="42.3364030" lon="-2.5691130">
        <ele>1199.6</ele>
        <time>2022-08-13T09:48:03Z</time>
      </trkpt>
      <trkpt lat="42.3364040" lon="-2.5691320">
        <ele>1199.7</ele>
        <time>2022-08-13T09:48:04Z</time>
      </trkpt>
      <trkpt lat="42.3364170" lon="-2.5691880">
        <ele>1200.0</ele>
        <time>2022-08-13T09:48:08Z</time>
      </trkpt>
      <trkpt lat="42.3364060" lon="-2.5692120">
        <ele>1200.2</ele>
        <time>2022-08-13T09:48:09Z</time>
      </trkpt>
      <trkpt lat="42.3364060" lon="-2.5692780">
        <ele>1200.6</ele>
        <time>2022-08-13T09:48:13Z</time>
      </trkpt>
      <trkpt lat="42.3364100" lon="-2.5693070">
        <ele>1200.8</ele>
        <time>2022-08-13T09:48:15Z</time>
      </trkpt>
      <trkpt lat="42.3364070" lon="-2.5693260">
        <ele>1200.9</ele>
        <time>2022-08-13T09:48:18Z</time>
      </trkpt>
      <trkpt lat="42.3364030" lon="-2.5693930">
        <ele>1201.3</ele>
        <time>2022-08-13T09:48:25Z</time>
      </trkpt>
      <trkpt lat="42.3363900" lon="-2.5694370">
        <ele>1201.6</ele>
        <time>2022-08-13T09:48:28Z</time>
      </trkpt>
      <trkpt lat="42.3363830" lon="-2.5694520">
        <ele>1201.8</ele>
        <time>2022-08-13T09:48:29Z</time>
      </trkpt>
      <trkpt lat="42.3363970" lon="-2.5695320">
        <ele>1202.3</ele>
        <time>2022-08-13T09:48:36Z</time>
      </trkpt>
      <trkpt lat="42.3363960" lon="-2.5695450">
        <ele>1202.4</ele>
        <time>2022-08-13T09:48:39Z</time>
      </trkpt>
      <trkpt lat="42.3364000" lon="-2.5695940">
        <ele>1202.7</ele>
        <time>2022-08-13T09:48:48Z</time>
      </trkpt>
      <trkpt lat="42.3364000" lon="-2.5695990">
        <ele>1202.7</ele>
        <time>2022-08-13T09:48:49Z</time>
      </trkpt>
      <trkpt lat="42.3363990" lon="-2.5696170">
        <ele>1202.8</ele>
        <time>2022-08-13T09:49:06Z</time>
      </trkpt>
      <trkpt lat="42.3363960" lon="-2.5696670">
        <ele>1203.2</ele>
        <time>2022-08-13T09:49:10Z</time>
      </trkpt>
      <trkpt lat="42.3363780" lon="-2.5697350">
        <ele>1203.6</ele>
        <time>2022-08-13T09:49:14Z</time>
      </trkpt>
      <trkpt lat="42.3363780" lon="-2.5697750">
        <ele>1203.9</ele>
        <time>2022-08-13T09:49:17Z</time>
      </trkpt>
      <trkpt lat="42.3363770" lon="-2.5698150">
        <ele>1204.2</ele>
        <time>2022-08-13T09:49:20Z</time>
      </trkpt>
      <trkpt lat="42.3363800" lon="-2.5698600">
        <ele>1204.4</ele>
        <time>2022-08-13T09:49:23Z</time>
      </trkpt>
      <trkpt lat="42.3363810" lon="-2.5698750">
        <ele>1204.5</ele>
        <time>2022-08-13T09:49:24Z</time>
      </trkpt>
      <trkpt lat="42.3363820" lon="-2.5698900">
        <ele>1204.6</ele>
        <time>2022-08-13T09:49:25Z</time>
      </trkpt>
      <trkpt lat="42.3363870" lon="-2.5699370">
        <ele>1205.0</ele>
        <time>2022-08-13T09:49:28Z</time>
      </trkpt>
      <trkpt lat="42.3363900" lon="-2.5699670">
        <ele>1205.2</ele>
        <time>2022-08-13T09:49:30Z</time>
      </trkpt>
      <trkpt lat="42.3363790" lon="-2.5700210">
        <ele>1205.5</ele>
        <time>2022-08-13T09:49:36Z</time>
      </trkpt>
      <trkpt lat="42.3363710" lon="-2.5700620">
        <ele>1205.8</ele>
        <time>2022-08-13T09:49:39Z</time>
      </trkpt>
      <trkpt lat="42.3363640" lon="-2.5700940">
        <ele>1206.0</ele>
        <time>2022-08-13T09:49:41Z</time>
      </trkpt>
      <trkpt lat="42.3363580" lon="-2.5701380">
        <ele>1206.3</ele>
        <time>2022-08-13T09:49:44Z</time>
      </trkpt>
      <trkpt lat="42.3363570" lon="-2.5701650">
        <ele>1206.5</ele>
        <time>2022-08-13T09:49:46Z</time>
      </trkpt>
      <trkpt lat="42.3363580" lon="-2.5701790">
        <ele>1206.6</ele>
        <time>2022-08-13T09:49:47Z</time>
      </trkpt>
      <trkpt lat="42.3363520" lon="-2.5702160">
        <ele>1206.9</ele>
        <time>2022-08-13T09:49:50Z</time>
      </trkpt>
      <trkpt lat="42.3363510" lon="-2.5702300">
        <ele>1207.0</ele>
        <time>2022-08-13T09:49:51Z</time>
      </trkpt>
      <trkpt lat="42.3363610" lon="-2.5702750">
        <ele>1207.3</ele>
        <time>2022-08-13T09:49:56Z</time>
      </trkpt>
      <trkpt lat="42.3363590" lon="-2.5703090">
        <ele>1207.5</ele>
        <time>2022-08-13T09:49:59Z</time>
      </trkpt>
      <trkpt lat="42.3363710" lon="-2.5703880">
        <ele>1208.1</ele>
        <time>2022-08-13T09:50:05Z</time>
      </trkpt>
      <trkpt lat="42.3363710" lon="-2.5704010">
        <ele>1208.2</ele>
        <time>2022-08-13T09:50:06Z</time>
      </trkpt>
      <trkpt lat="42.3363720" lon="-2.5704730">
        <ele>1208.8</ele>
        <time>2022-08-13T09:50:12Z</time>
      </trkpt>
      <trkpt lat="42.3363460" lon="-2.5705120">
        <ele>1209.2</ele>
        <time>2022-08-13T09:50:15Z</time>
      </trkpt>
      <trkpt lat="42.3363430" lon="-2.5705250">
        <ele>1209.3</ele>
        <time>2022-08-13T09:50:16Z</time>
      </trkpt>
      <trkpt lat="42.3363520" lon="-2.5705750">
        <ele>1209.7</ele>
        <time>2022-08-13T09:50:21Z</time>
      </trkpt>
      <trkpt lat="42.3363430" lon="-2.5706170">
        <ele>1210.1</ele>
        <time>2022-08-13T09:50:24Z</time>
      </trkpt>
      <trkpt lat="42.3363390" lon="-2.5706510">
        <ele>1210.3</ele>
        <time>2022-08-13T09:50:27Z</time>
      </trkpt>
      <trkpt lat="42.3363380" lon="-2.5706950">
        <ele>1210.7</ele>
        <time>2022-08-13T09:50:30Z</time>
      </trkpt>
      <trkpt lat="42.3363340" lon="-2.5707190">
        <ele>1210.9</ele>
        <time>2022-08-13T09:50:32Z</time>
      </trkpt>
      <trkpt lat="42.3363160" lon="-2.5707890">
        <ele>1211.5</ele>
        <time>2022-08-13T09:50:37Z</time>
      </trkpt>
      <trkpt lat="42.3363320" lon="-2.5708590">
        <ele>1212.0</ele>
        <time>2022-08-13T09:50:43Z</time>
      </trkpt>
      <trkpt lat="42.3363310" lon="-2.5708860">
        <ele>1212.2</ele>
        <time>2022-08-13T09:50:45Z</time>
      </trkpt>
      <trkpt lat="42.3363430" lon="-2.5709220">
        <ele>1212.5</ele>
        <time>2022-08-13T09:50:48Z</time>
      </trkpt>
      <trkpt lat="42.3363420" lon="-2.5709540">
        <ele>1212.8</ele>
        <time>2022-08-13T09:50:50Z</time>
      </trkpt>
      <trkpt lat="42.3363360" lon="-2.5710630">
        <ele>1213.6</ele>
        <time>2022-08-13T09:50:58Z</time>
      </trkpt>
      <trkpt lat="42.3363370" lon="-2.5711590">
        <ele>1214.4</ele>
        <time>2022-08-13T09:51:06Z</time>
      </trkpt>
      <trkpt lat="42.3363390" lon="-2.5711710">
        <ele>1214.5</ele>
        <time>2022-08-13T09:51:07Z</time>
      </trkpt>
      <trkpt lat="42.3363330" lon="-2.5712350">
        <ele>1215.0</ele>
        <time>2022-08-13T09:51:12Z</time>
      </trkpt>
      <trkpt lat="42.3363320" lon="-2.5712730">
        <ele>1215.3</ele>
        <time>2022-08-13T09:51:15Z</time>
      </trkpt>
      <trkpt lat="42.3363100" lon="-2.5713450">
        <ele>1215.9</ele>
        <time>2022-08-13T09:51:21Z</time>
      </trkpt>
      <trkpt lat="42.3363090" lon="-2.5713630">
        <ele>1216.1</ele>
        <time>2022-08-13T09:51:23Z</time>
      </trkpt>
      <trkpt lat="42.3363080" lon="-2.5713770">
        <ele>1216.2</ele>
        <time>2022-08-13T09:51:24Z</time>
      </trkpt>
      <trkpt lat="42.3363030" lon="-2.5714100">
        <ele>1216.5</ele>
        <time>2022-08-13T09:51:27Z</time>
      </trkpt>
      <trkpt lat="42.3363150" lon="-2.5714600">
        <ele>1216.9</ele>
        <time>2022-08-13T09:51:32Z</time>
      </trkpt>
      <trkpt lat="42.3363140" lon="-2.5714760">
        <ele>1217.0</ele>
        <time>2022-08-13T09:51:33Z</time>
      </trkpt>
      <trkpt lat="42.3363090" lon="-2.5715640">
        <ele>1217.7</ele>
        <time>2022-08-13T09:51:39Z</time>
      </trkpt>
      <trkpt lat="42.3363030" lon="-2.5715760">
        <ele>1217.8</ele>
        <time>2022-08-13T09:51:40Z</time>
      </trkpt>
      <trkpt lat="42.3363070" lon="-2.5716510">
        <ele>1218.4</ele>
        <time>2022-08-13T09:51:46Z</time>
      </trkpt>
      <trkpt lat="42.3363060" lon="-2.5716640">
        <ele>1218.5</ele>
        <time>2022-08-13T09:51:47Z</time>
      </trkpt>
      <trkpt lat="42.3363030" lon="-2.5716780">
        <ele>1218.6</ele>
        <time>2022-08-13T09:51:48Z</time>
      </trkpt>
      <trkpt lat="42.3363020" lon="-2.5717310">
        <ele>1219.0</ele>
        <time>2022-08-13T09:51:52Z</time>
      </trkpt>
      <trkpt lat="42.3363090" lon="-2.5718060">
        <ele>1219.6</ele>
        <time>2022-08-13T09:51:59Z</time>
      </trkpt>
      <trkpt lat="42.3363050" lon="-2.5718880">
        <ele>1220.3</ele>
        <time>2022-08-13T09:52:06Z</time>
      </trkpt>
      <trkpt lat="42.3363020" lon="-2.5719210">
        <ele>1220.6</ele>
        <time>2022-08-13T09:52:09Z</time>
      </trkpt>
      <trkpt lat="42.3363020" lon="-2.5719450">
        <ele>1220.8</ele>
        <time>2022-08-13T09:52:11Z</time>
      </trkpt>
      <trkpt lat="42.3363040" lon="-2.5720050">
        <ele>1221.2</ele>
        <time>2022-08-13T09:52:16Z</time>
      </trkpt>
      <trkpt lat="42.3363050" lon="-2.5720160">
        <ele>1221.3</ele>
        <time>2022-08-13T09:52:17Z</time>
      </trkpt>
      <trkpt lat="42.3362990" lon="-2.5720420">
        <ele>1221.6</ele>
        <time>2022-08-13T09:52:19Z</time>
      </trkpt>
      <trkpt lat="42.3362990" lon="-2.5720550">
        <ele>1221.7</ele>
        <time>2022-08-13T09:52:21Z</time>
      </trkpt>
      <trkpt lat="42.3363090" lon="-2.5721000">
        <ele>1222.1</ele>
        <time>2022-08-13T09:52:27Z</time>
      </trkpt>
      <trkpt lat="42.3363080" lon="-2.5721050">
        <ele>1222.1</ele>
        <time>2022-08-13T09:52:29Z</time>
      </trkpt>
      <trkpt lat="42.3363110" lon="-2.5721840">
        <ele>1222.8</ele>
        <time>2022-08-13T09:52:36Z</time>
      </trkpt>
      <trkpt lat="42.3363140" lon="-2.5722720">
        <ele>1223.6</ele>
        <time>2022-08-13T09:52:42Z</time>
      </trkpt>
      <trkpt lat="42.3363120" lon="-2.5722840">
        <ele>1223.7</ele>
        <time>2022-08-13T09:52:43Z</time>
      </trkpt>
      <trkpt lat="42.3363080" lon="-2.5723300">
        <ele>1224.1</ele>
        <time>2022-08-13T09:52:47Z</time>
      </trkpt>
      <trkpt lat="42.3362650" lon="-2.5723790">
        <ele>1224.8</ele>
        <time>2022-08-13T09:52:59Z</time>
      </trkpt>
      <trkpt lat="42.3362670" lon="-2.5724090">
        <ele>1225.0</ele>
        <time>2022-08-13T09:53:01Z</time>
      </trkpt>
      <trkpt lat="42.3362630" lon="-2.5724270">
        <ele>1225.2</ele>
        <time>2022-08-13T09:53:02Z</time>
      </trkpt>
      <trkpt lat="42.3362670" lon="-2.5725340">
        <ele>1226.1</ele>
        <time>2022-08-13T09:53:10Z</time>
      </trkpt>
      <trkpt lat="42.3362740" lon="-2.5725740">
        <ele>1226.5</ele>
        <time>2022-08-13T09:53:14Z</time>
      </trkpt>
      <trkpt lat="42.3362760" lon="-2.5726110">
        <ele>1226.8</ele>
        <time>2022-08-13T09:53:17Z</time>
      </trkpt>
      <trkpt lat="42.3362700" lon="-2.5726530">
        <ele>1227.2</ele>
        <time>2022-08-13T09:53:21Z</time>
      </trkpt>
      <trkpt lat="42.3362660" lon="-2.5726640">
        <ele>1227.3</ele>
        <time>2022-08-13T09:53:22Z</time>
      </trkpt>
      <trkpt lat="42.3362640" lon="-2.5726800">
        <ele>1227.4</ele>
        <time>2022-08-13T09:53:23Z</time>
      </trkpt>
      <trkpt lat="42.3362590" lon="-2.5727020">
        <ele>1227.6</ele>
        <time>2022-08-13T09:53:25Z</time>
      </trkpt>
      <trkpt lat="42.3362470" lon="-2.5727470">
        <ele>1228.0</ele>
        <time>2022-08-13T09:53:28Z</time>
      </trkpt>
      <trkpt lat="42.3362510" lon="-2.5727780">
        <ele>1228.2</ele>
        <time>2022-08-13T09:53:31Z</time>
      </trkpt>
      <trkpt lat="42.3362490" lon="-2.5728090">
        <ele>1228.5</ele>
        <time>2022-08-13T09:53:34Z</time>
      </trkpt>
      <trkpt lat="42.3362470" lon="-2.5728580">
        <ele>1228.9</ele>
        <time>2022-08-13T09:53:38Z</time>
      </trkpt>
      <trkpt lat="42.3362470" lon="-2.5728640">
        <ele>1228.9</ele>
        <time>2022-08-13T09:53:39Z</time>
      </trkpt>
      <trkpt lat="42.3362300" lon="-2.5729180">
        <ele>1229.4</ele>
        <time>2022-08-13T09:53:45Z</time>
      </trkpt>
      <trkpt lat="42.3362340" lon="-2.5729540">
        <ele>1229.7</ele>
        <time>2022-08-13T09:53:50Z</time>
      </trkpt>
      <trkpt lat="42.3362340" lon="-2.5729540">
        <ele>1229.7</ele>
        <time>2022-08-13T09:54:07Z</time>
      </trkpt>
      <trkpt lat="42.3362340" lon="-2.5729540">
        <ele>1229.7</ele>
        <time>2022-08-13T09:54:09Z</time>
      </trkpt>
      <trkpt lat="42.3362480" lon="-2.5730280">
        <ele>1230.3</ele>
        <time>2022-08-13T09:54:17Z</time>
      </trkpt>
      <trkpt lat="42.3362490" lon="-2.5730710">
        <ele>1230.7</ele>
        <time>2022-08-13T09:54:19Z</time>
      </trkpt>
      <trkpt lat="42.3362500" lon="-2.5730800">
        <ele>1230.7</ele>
        <time>2022-08-13T09:54:20Z</time>
      </trkpt>
      <trkpt lat="42.3362390" lon="-2.5731360">
        <ele>1231.2</ele>
        <time>2022-08-13T09:54:31Z</time>
      </trkpt>
      <trkpt lat="42.3362400" lon="-2.5731390">
        <ele>1231.2</ele>
        <time>2022-08-13T09:54:33Z</time>
      </trkpt>
      <trkpt lat="42.3362400" lon="-2.5731430">
        <ele>1231.3</ele>
        <time>2022-08-13T09:54:35Z</time>
      </trkpt>
      <trkpt lat="42.3362360" lon="-2.5731810">
        <ele>1231.6</ele>
        <time>2022-08-13T09:54:41Z</time>
      </trkpt>
      <trkpt lat="42.3362360" lon="-2.5731810">
        <ele>1231.6</ele>
        <time>2022-08-13T09:54:42Z</time>
      </trkpt>
      <trkpt lat="42.3362360" lon="-2.5731810">
        <ele>1231.6</ele>
        <time>2022-08-13T09:54:46Z</time>
      </trkpt>
      <trkpt lat="42.3362410" lon="-2.5732500">
        <ele>1232.1</ele>
        <time>2022-08-13T09:55:20Z</time>
      </trkpt>
      <trkpt lat="42.3362340" lon="-2.5733170">
        <ele>1232.7</ele>
        <time>2022-08-13T09:55:24Z</time>
      </trkpt>
      <trkpt lat="42.3362090" lon="-2.5734040">
        <ele>1233.5</ele>
        <time>2022-08-13T09:55:32Z</time>
      </trkpt>
      <trkpt lat="42.3361990" lon="-2.5734660">
        <ele>1234.1</ele>
        <time>2022-08-13T09:55:36Z</time>
      </trkpt>
      <trkpt lat="42.3361880" lon="-2.5734970">
        <ele>1234.4</ele>
        <time>2022-08-13T09:55:38Z</time>
      </trkpt>
      <trkpt lat="42.3361760" lon="-2.5735190">
        <ele>1234.6</ele>
        <time>2022-08-13T09:55:40Z</time>
      </trkpt>
      <trkpt lat="42.3361760" lon="-2.5735240">
        <ele>1234.7</ele>
        <time>2022-08-13T09:57:31Z</time>
      </trkpt>
      <trkpt lat="42.3361750" lon="-2.5735420">
        <ele>1234.8</ele>
        <time>2022-08-13T09:57:32Z</time>
      </trkpt>
      <trkpt lat="42.3361730" lon="-2.5735590">
        <ele>1235.0</ele>
        <time>2022-08-13T09:57:33Z</time>
      </trkpt>
      <trkpt lat="42.3361730" lon="-2.5735690">
        <ele>1235.1</ele>
        <time>2022-08-13T09:57:34Z</time>
      </trkpt>
      <trkpt lat="42.3361710" lon="-2.5735850">
        <ele>1235.2</ele>
        <time>2022-08-13T09:57:39Z</time>
      </trkpt>
      <trkpt lat="42.3361710" lon="-2.5735850">
        <ele>1235.2</ele>
        <time>2022-08-13T09:57:40Z</time>
      </trkpt>
      <trkpt lat="42.3361720" lon="-2.5735910">
        <ele>1235.3</ele>
        <time>2022-08-13T09:57:41Z</time>
      </trkpt>
      <trkpt lat="42.3361740" lon="-2.5736420">
        <ele>1235.7</ele>
        <time>2022-08-13T09:57:44Z</time>
      </trkpt>
      <trkpt lat="42.3361750" lon="-2.5736770">
        <ele>1236.0</ele>
        <time>2022-08-13T09:57:46Z</time>
      </trkpt>
      <trkpt lat="42.3361730" lon="-2.5737400">
        <ele>1236.6</ele>
        <time>2022-08-13T09:57:49Z</time>
      </trkpt>
      <trkpt lat="42.3361690" lon="-2.5738100">
        <ele>1237.3</ele>
        <time>2022-08-13T09:57:53Z</time>
      </trkpt>
      <trkpt lat="42.3361480" lon="-2.5738880">
        <ele>1238.0</ele>
        <time>2022-08-13T09:57:59Z</time>
      </trkpt>
      <trkpt lat="42.3361280" lon="-2.5739140">
        <ele>1238.4</ele>
        <time>2022-08-13T09:58:01Z</time>
      </trkpt>
      <trkpt lat="42.3361070" lon="-2.5739660">
        <ele>1238.9</ele>
        <time>2022-08-13T09:58:04Z</time>
      </trkpt>
      <trkpt lat="42.3361090" lon="-2.5739800">
        <ele>1239.1</ele>
        <time>2022-08-13T09:58:05Z</time>
      </trkpt>
      <trkpt lat="42.3360880" lon="-2.5740480">
        <ele>1239.8</ele>
        <time>2022-08-13T09:58:11Z</time>
      </trkpt>
      <trkpt lat="42.3360840" lon="-2.5740610">
        <ele>1239.9</ele>
        <time>2022-08-13T09:58:12Z</time>
      </trkpt>
      <trkpt lat="42.3360780" lon="-2.5740850">
        <ele>1240.2</ele>
        <time>2022-08-13T09:58:14Z</time>
      </trkpt>
      <trkpt lat="42.3360680" lon="-2.5741250">
        <ele>1240.6</ele>
        <time>2022-08-13T09:58:18Z</time>
      </trkpt>
      <trkpt lat="42.3360660" lon="-2.5741320">
        <ele>1240.7</ele>
        <time>2022-08-13T09:58:21Z</time>
      </trkpt>
      <trkpt lat="42.3360610" lon="-2.5741880">
        <ele>1241.3</ele>
        <time>2022-08-13T09:58:26Z</time>
      </trkpt>
      <trkpt lat="42.3360560" lon="-2.5742120">
        <ele>1241.6</ele>
        <time>2022-08-13T09:58:28Z</time>
      </trkpt>
      <trkpt lat="42.3360540" lon="-2.5742270">
        <ele>1241.8</ele>
        <time>2022-08-13T09:58:33Z</time>
      </trkpt>
      <trkpt lat="42.3360570" lon="-2.5742370">
        <ele>1241.9</ele>
        <time>2022-08-13T09:58:35Z</time>
      </trkpt>
      <trkpt lat="42.3360540" lon="-2.5742450">
        <ele>1242.0</ele>
        <time>2022-08-13T09:58:41Z</time>
      </trkpt>
      <trkpt lat="42.3360540" lon="-2.5742450">
        <ele>1242.0</ele>
        <time>2022-08-13T09:58:44Z</time>
      </trkpt>
      <trkpt lat="42.3360540" lon="-2.5742450">
        <ele>1242.0</ele>
        <time>2022-08-13T09:58:45Z</time>
      </trkpt>
      <trkpt lat="42.3360540" lon="-2.5742450">
        <ele>1242.0</ele>
        <time>2022-08-13T09:58:52Z</time>
      </trkpt>
      <trkpt lat="42.3360360" lon="-2.5742760">
        <ele>1242.5</ele>
        <time>2022-08-13T09:58:54Z</time>
      </trkpt>
      <trkpt lat="42.3359990" lon="-2.5743650">
        <ele>1243.9</ele>
        <time>2022-08-13T09:58:59Z</time>
      </trkpt>
      <trkpt lat="42.3359870" lon="-2.5743980">
        <ele>1244.3</ele>
        <time>2022-08-13T09:59:02Z</time>
      </trkpt>
      <trkpt lat="42.3359490" lon="-2.5744600">
        <ele>1245.4</ele>
        <time>2022-08-13T09:59:08Z</time>
      </trkpt>
      <trkpt lat="42.3359200" lon="-2.5744650">
        <ele>1245.9</ele>
        <time>2022-08-13T09:59:14Z</time>
      </trkpt>
      <trkpt lat="42.3358170" lon="-2.5744520">
        <ele>1247.5</ele>
        <time>2022-08-13T09:59:22Z</time>
      </trkpt>
      <trkpt lat="42.3358150" lon="-2.5744490">
        <ele>1247.6</ele>
        <time>2022-08-13T09:59:24Z</time>
      </trkpt>
      <trkpt lat="42.3358220" lon="-2.5744390">
        <ele>1247.7</ele>
        <time>2022-08-13T09:59:59Z</time>
      </trkpt>
      <trkpt lat="42.3358230" lon="-2.5744350">
        <ele>1247.8</ele>
        <time>2022-08-13T10:00:00Z</time>
      </trkpt>
      <trkpt lat="42.3358240" lon="-2.5744050">
        <ele>1248.1</ele>
        <time>2022-08-13T10:00:02Z</time>
      </trkpt>
      <trkpt lat="42.3358240" lon="-2.5743920">
        <ele>1248.2</ele>
        <time>2022-08-13T10:00:07Z</time>
      </trkpt>
      <trkpt lat="42.3358140" lon="-2.5743710">
        <ele>1248.4</ele>
        <time>2022-08-13T10:00:08Z</time>
      </trkpt>
      <trkpt lat="42.3358060" lon="-2.5743520">
        <ele>1248.6</ele>
        <time>2022-08-13T10:00:09Z</time>
      </trkpt>
      <trkpt lat="42.3358010" lon="-2.5743280">
        <ele>1248.8</ele>
        <time>2022-08-13T10:00:10Z</time>
      </trkpt>
      <trkpt lat="42.3357940" lon="-2.5742760">
        <ele>1249.2</ele>
        <time>2022-08-13T10:00:12Z</time>
      </trkpt>
      <trkpt lat="42.3357800" lon="-2.5742210">
        <ele>1249.5</ele>
        <time>2022-08-13T10:00:14Z</time>
      </trkpt>
      <trkpt lat="42.3357730" lon="-2.5741940">
        <ele>1249.6</ele>
        <time>2022-08-13T10:00:15Z</time>
      </trkpt>
      <trkpt lat="42.3357580" lon="-2.5741520">
        <ele>1249.9</ele>
        <time>2022-08-13T10:00:17Z</time>
      </trkpt>
      <trkpt lat="42.3357490" lon="-2.5741210">
        <ele>1250.0</ele>
        <time>2022-08-13T10:00:19Z</time>
      </trkpt>
      <trkpt lat="42.3357470" lon="-2.5740960">
        <ele>1250.1</ele>
        <time>2022-08-13T10:00:21Z</time>
      </trkpt>
      <trkpt lat="42.3357470" lon="-2.5740950">
        <ele>1250.1</ele>
        <time>2022-08-13T10:01:50Z</time>
      </trkpt>
      <trkpt lat="42.3357410" lon="-2.5740820">
        <ele>1250.2</ele>
        <time>2022-08-13T10:01:51Z</time>
      </trkpt>
      <trkpt lat="42.3357230" lon="-2.5740290">
        <ele>1250.4</ele>
        <time>2022-08-13T10:01:54Z</time>
      </trkpt>
      <trkpt lat="42.3357150" lon="-2.5739890">
        <ele>1250.5</ele>
        <time>2022-08-13T10:01:56Z</time>
      </trkpt>
      <trkpt lat="42.3357060" lon="-2.5739710">
        <ele>1250.6</ele>
        <time>2022-08-13T10:01:57Z</time>
      </trkpt>
      <trkpt lat="42.3356870" lon="-2.5739190">
        <ele>1250.8</ele>
        <time>2022-08-13T10:02:00Z</time>
      </trkpt>
      <trkpt lat="42.3356800" lon="-2.5738960">
        <ele>1250.9</ele>
        <time>2022-08-13T10:02:01Z</time>
      </trkpt>
      <trkpt lat="42.3356610" lon="-2.5738210">
        <ele>1251.1</ele>
        <time>2022-08-13T10:02:04Z</time>
      </trkpt>
      <trkpt lat="42.3356740" lon="-2.5736490">
        <ele>1251.6</ele>
        <time>2022-08-13T10:02:10Z</time>
      </trkpt>
      <trkpt lat="42.3356600" lon="-2.5736110">
        <ele>1251.7</ele>
        <time>2022-08-13T10:02:11Z</time>
      </trkpt>
      <trkpt lat="42.3356550" lon="-2.5734310">
        <ele>1252.2</ele>
        <time>2022-08-13T10:02:17Z</time>
      </trkpt>
      <trkpt lat="42.3356540" lon="-2.5734020">
        <ele>1252.3</ele>
        <time>2022-08-13T10:02:18Z</time>
      </trkpt>
      <trkpt lat="42.3356520" lon="-2.5733140">
        <ele>1252.5</ele>
        <time>2022-08-13T10:02:21Z</time>
      </trkpt>
      <trkpt lat="42.3356570" lon="-2.5732500">
        <ele>1252.7</ele>
        <time>2022-08-13T10:02:23Z</time>
      </trkpt>
      <trkpt lat="42.3356390" lon="-2.5731970">
        <ele>1252.8</ele>
        <time>2022-08-13T10:02:25Z</time>
      </trkpt>
      <trkpt lat="42.3356030" lon="-2.5731170">
        <ele>1253.1</ele>
        <time>2022-08-13T10:02:29Z</time>
      </trkpt>
      <trkpt lat="42.3355850" lon="-2.5731050">
        <ele>1253.2</ele>
        <time>2022-08-13T10:02:30Z</time>
      </trkpt>
      <trkpt lat="42.3355040" lon="-2.5731300">
        <ele>1253.7</ele>
        <time>2022-08-13T10:02:37Z</time>
      </trkpt>
      <trkpt lat="42.3354730" lon="-2.5732570">
        <ele>1254.4</ele>
        <time>2022-08-13T10:02:44Z</time>
      </trkpt>
      <trkpt lat="42.3354910" lon="-2.5733660">
        <ele>1255.0</ele>
        <time>2022-08-13T10:02:50Z</time>
      </trkpt>
      <trkpt lat="42.3354930" lon="-2.5733800">
        <ele>1255.1</ele>
        <time>2022-08-13T10:02:51Z</time>
      </trkpt>
      <trkpt lat="42.3354960" lon="-2.5733950">
        <ele>1255.1</ele>
        <time>2022-08-13T10:02:52Z</time>
      </trkpt>
      <trkpt lat="42.3355070" lon="-2.5734260">
        <ele>1255.3</ele>
        <time>2022-08-13T10:02:54Z</time>
      </trkpt>
      <trkpt lat="42.3355050" lon="-2.5734550">
        <ele>1255.5</ele>
        <time>2022-08-13T10:02:56Z</time>
      </trkpt>
      <trkpt lat="42.3355040" lon="-2.5734910">
        <ele>1255.7</ele>
        <time>2022-08-13T10:02:58Z</time>
      </trkpt>
      <trkpt lat="42.3355050" lon="-2.5735890">
        <ele>1256.2</ele>
        <time>2022-08-13T10:03:03Z</time>
      </trkpt>
      <trkpt lat="42.3355010" lon="-2.5736320">
        <ele>1256.4</ele>
        <time>2022-08-13T10:03:05Z</time>
      </trkpt>
      <trkpt lat="42.3354810" lon="-2.5738010">
        <ele>1257.2</ele>
        <time>2022-08-13T10:03:12Z</time>
      </trkpt>
      <trkpt lat="42.3354750" lon="-2.5738260">
        <ele>1257.3</ele>
        <time>2022-08-13T10:03:13Z</time>
      </trkpt>
      <trkpt lat="42.3354440" lon="-2.5739760">
        <ele>1257.9</ele>
        <time>2022-08-13T10:03:19Z</time>
      </trkpt>
      <trkpt lat="42.3354400" lon="-2.5739960">
        <ele>1258.0</ele>
        <time>2022-08-13T10:03:20Z</time>
      </trkpt>
      <trkpt lat="42.3354240" lon="-2.5741030">
        <ele>1258.4</ele>
        <time>2022-08-13T10:03:25Z</time>
      </trkpt>
      <trkpt lat="42.3354220" lon="-2.5741580">
        <ele>1258.5</ele>
        <time>2022-08-13T10:03:27Z</time>
      </trkpt>
      <trkpt lat="42.3353940" lon="-2.5743280">
        <ele>1258.9</ele>
        <time>2022-08-13T10:03:34Z</time>
      </trkpt>
      <trkpt lat="42.3353620" lon="-2.5743780">
        <ele>1259.0</ele>
        <time>2022-08-13T10:03:36Z</time>
      </trkpt>
      <trkpt lat="42.3353380" lon="-2.5744660">
        <ele>1259.1</ele>
        <time>2022-08-13T10:03:39Z</time>
      </trkpt>
      <trkpt lat="42.3353000" lon="-2.5745450">
        <ele>1259.1</ele>
        <time>2022-08-13T10:03:42Z</time>
      </trkpt>
      <trkpt lat="42.3352650" lon="-2.5746390">
        <ele>1259.1</ele>
        <time>2022-08-13T10:03:46Z</time>
      </trkpt>
      <trkpt lat="42.3351940" lon="-2.5747450">
        <ele>1258.9</ele>
        <time>2022-08-13T10:03:50Z</time>
      </trkpt>
      <trkpt lat="42.3351780" lon="-2.5747760">
        <ele>1258.9</ele>
        <time>2022-08-13T10:03:52Z</time>
      </trkpt>
      <trkpt lat="42.3351350" lon="-2.5748720">
        <ele>1258.7</ele>
        <time>2022-08-13T10:03:56Z</time>
      </trkpt>
      <trkpt lat="42.3351250" lon="-2.5748940">
        <ele>1258.6</ele>
        <time>2022-08-13T10:03:57Z</time>
      </trkpt>
      <trkpt lat="42.3351120" lon="-2.5749120">
        <ele>1258.6</ele>
        <time>2022-08-13T10:03:58Z</time>
      </trkpt>
      <trkpt lat="42.3350900" lon="-2.5749550">
        <ele>1258.4</ele>
        <time>2022-08-13T10:04:00Z</time>
      </trkpt>
      <trkpt lat="42.3350280" lon="-2.5751160">
        <ele>1258.0</ele>
        <time>2022-08-13T10:04:05Z</time>
      </trkpt>
      <trkpt lat="42.3349390" lon="-2.5752840">
        <ele>1257.4</ele>
        <time>2022-08-13T10:04:10Z</time>
      </trkpt>
      <trkpt lat="42.3349170" lon="-2.5753230">
        <ele>1257.3</ele>
        <time>2022-08-13T10:04:11Z</time>
      </trkpt>
      <trkpt lat="42.3348080" lon="-2.5754690">
        <ele>1256.7</ele>
        <time>2022-08-13T10:04:14Z</time>
      </trkpt>
      <trkpt lat="42.3347710" lon="-2.5755190">
        <ele>1256.5</ele>
        <time>2022-08-13T10:04:15Z</time>
      </trkpt>
      <trkpt lat="42.3346550" lon="-2.5756720">
        <ele>1256.0</ele>
        <time>2022-08-13T10:04:19Z</time>
      </trkpt>
      <trkpt lat="42.3346340" lon="-2.5757130">
        <ele>1255.9</ele>
        <time>2022-08-13T10:04:20Z</time>
      </trkpt>
      <trkpt lat="42.3345030" lon="-2.5759030">
        <ele>1255.5</ele>
        <time>2022-08-13T10:04:25Z</time>
      </trkpt>
      <trkpt lat="42.3344850" lon="-2.5759350">
        <ele>1255.5</ele>
        <time>2022-08-13T10:04:26Z</time>
      </trkpt>
      <trkpt lat="42.3344290" lon="-2.5760110">
        <ele>1255.4</ele>
        <time>2022-08-13T10:04:29Z</time>
      </trkpt>
      <trkpt lat="42.3343590" lon="-2.5761180">
        <ele>1255.5</ele>
        <time>2022-08-13T10:04:32Z</time>
      </trkpt>
      <trkpt lat="42.3342310" lon="-2.5762660">
        <ele>1255.6</ele>
        <time>2022-08-13T10:04:38Z</time>
      </trkpt>
      <trkpt lat="42.3340920" lon="-2.5764220">
        <ele>1256.0</ele>
        <time>2022-08-13T10:04:45Z</time>
      </trkpt>
      <trkpt lat="42.3340780" lon="-2.5764410">
        <ele>1256.0</ele>
        <time>2022-08-13T10:04:46Z</time>
      </trkpt>
      <trkpt lat="42.3340340" lon="-2.5764830">
        <ele>1256.2</ele>
        <time>2022-08-13T10:04:49Z</time>
      </trkpt>
      <trkpt lat="42.3339950" lon="-2.5765370">
        <ele>1256.4</ele>
        <time>2022-08-13T10:04:52Z</time>
      </trkpt>
      <trkpt lat="42.3339330" lon="-2.5765850">
        <ele>1256.7</ele>
        <time>2022-08-13T10:04:55Z</time>
      </trkpt>
      <trkpt lat="42.3338510" lon="-2.5766450">
        <ele>1257.3</ele>
        <time>2022-08-13T10:04:59Z</time>
      </trkpt>
      <trkpt lat="42.3338350" lon="-2.5766490">
        <ele>1257.4</ele>
        <time>2022-08-13T10:05:00Z</time>
      </trkpt>
      <trkpt lat="42.3338010" lon="-2.5766630">
        <ele>1257.6</ele>
        <time>2022-08-13T10:05:02Z</time>
      </trkpt>
      <trkpt lat="42.3337780" lon="-2.5766840">
        <ele>1257.8</ele>
        <time>2022-08-13T10:05:04Z</time>
      </trkpt>
      <trkpt lat="42.3337180" lon="-2.5767110">
        <ele>1258.3</ele>
        <time>2022-08-13T10:05:07Z</time>
      </trkpt>
      <trkpt lat="42.3336540" lon="-2.5767390">
        <ele>1258.8</ele>
        <time>2022-08-13T10:05:10Z</time>
      </trkpt>
      <trkpt lat="42.3336300" lon="-2.5767430">
        <ele>1258.9</ele>
        <time>2022-08-13T10:05:11Z</time>
      </trkpt>
      <trkpt lat="42.3336130" lon="-2.5767500">
        <ele>1259.1</ele>
        <time>2022-08-13T10:05:12Z</time>
      </trkpt>
      <trkpt lat="42.3335440" lon="-2.5767800">
        <ele>1259.6</ele>
        <time>2022-08-13T10:05:15Z</time>
      </trkpt>
      <trkpt lat="42.3335060" lon="-2.5768010">
        <ele>1259.9</ele>
        <time>2022-08-13T10:05:17Z</time>
      </trkpt>
      <trkpt lat="42.3334860" lon="-2.5768080">
        <ele>1260.1</ele>
        <time>2022-08-13T10:05:18Z</time>
      </trkpt>
      <trkpt lat="42.3334380" lon="-2.5768050">
        <ele>1260.5</ele>
        <time>2022-08-13T10:05:21Z</time>
      </trkpt>
      <trkpt lat="42.3334190" lon="-2.5768070">
        <ele>1260.6</ele>
        <time>2022-08-13T10:05:22Z</time>
      </trkpt>
      <trkpt lat="42.3333950" lon="-2.5768080">
        <ele>1260.8</ele>
        <time>2022-08-13T10:05:23Z</time>
      </trkpt>
      <trkpt lat="42.3333340" lon="-2.5768270">
        <ele>1261.2</ele>
        <time>2022-08-13T10:05:26Z</time>
      </trkpt>
      <trkpt lat="42.3332980" lon="-2.5768190">
        <ele>1261.5</ele>
        <time>2022-08-13T10:05:28Z</time>
      </trkpt>
      <trkpt lat="42.3332270" lon="-2.5768070">
        <ele>1262.0</ele>
        <time>2022-08-13T10:05:32Z</time>
      </trkpt>
      <trkpt lat="42.3332040" lon="-2.5768010">
        <ele>1262.2</ele>
        <time>2022-08-13T10:05:34Z</time>
      </trkpt>
      <trkpt lat="42.3331840" lon="-2.5767980">
        <ele>1262.3</ele>
        <time>2022-08-13T10:05:35Z</time>
      </trkpt>
      <trkpt lat="42.3331110" lon="-2.5767970">
        <ele>1262.7</ele>
        <time>2022-08-13T10:05:38Z</time>
      </trkpt>
      <trkpt lat="42.3330920" lon="-2.5767900">
        <ele>1262.8</ele>
        <time>2022-08-13T10:05:39Z</time>
      </trkpt>
      <trkpt lat="42.3330690" lon="-2.5768040">
        <ele>1262.9</ele>
        <time>2022-08-13T10:05:40Z</time>
      </trkpt>
      <trkpt lat="42.3329910" lon="-2.5768360">
        <ele>1263.2</ele>
        <time>2022-08-13T10:05:43Z</time>
      </trkpt>
      <trkpt lat="42.3329730" lon="-2.5768390">
        <ele>1263.2</ele>
        <time>2022-08-13T10:05:44Z</time>
      </trkpt>
      <trkpt lat="42.3329040" lon="-2.5768230">
        <ele>1263.4</ele>
        <time>2022-08-13T10:05:47Z</time>
      </trkpt>
      <trkpt lat="42.3328550" lon="-2.5768100">
        <ele>1263.5</ele>
        <time>2022-08-13T10:05:49Z</time>
      </trkpt>
      <trkpt lat="42.3327000" lon="-2.5768310">
        <ele>1263.9</ele>
        <time>2022-08-13T10:05:55Z</time>
      </trkpt>
      <trkpt lat="42.3326180" lon="-2.5768320">
        <ele>1264.2</ele>
        <time>2022-08-13T10:06:00Z</time>
      </trkpt>
      <trkpt lat="42.3325970" lon="-2.5768350">
        <ele>1264.2</ele>
        <time>2022-08-13T10:06:01Z</time>
      </trkpt>
      <trkpt lat="42.3324820" lon="-2.5768850">
        <ele>1264.6</ele>
        <time>2022-08-13T10:06:07Z</time>
      </trkpt>
      <trkpt lat="42.3323600" lon="-2.5769210">
        <ele>1265.0</ele>
        <time>2022-08-13T10:06:13Z</time>
      </trkpt>
      <trkpt lat="42.3322860" lon="-2.5769410">
        <ele>1265.3</ele>
        <time>2022-08-13T10:06:18Z</time>
      </trkpt>
      <trkpt lat="42.3322770" lon="-2.5769450">
        <ele>1265.4</ele>
        <time>2022-08-13T10:06:19Z</time>
      </trkpt>
      <trkpt lat="42.3322640" lon="-2.5769570">
        <ele>1265.4</ele>
        <time>2022-08-13T10:06:20Z</time>
      </trkpt>
      <trkpt lat="42.3321780" lon="-2.5769860">
        <ele>1265.9</ele>
        <time>2022-08-13T10:06:25Z</time>
      </trkpt>
      <trkpt lat="42.3321530" lon="-2.5769890">
        <ele>1266.0</ele>
        <time>2022-08-13T10:06:26Z</time>
      </trkpt>
      <trkpt lat="42.3320850" lon="-2.5769970">
        <ele>1266.4</ele>
        <time>2022-08-13T10:06:30Z</time>
      </trkpt>
      <trkpt lat="42.3320600" lon="-2.5770020">
        <ele>1266.5</ele>
        <time>2022-08-13T10:06:31Z</time>
      </trkpt>
      <trkpt lat="42.3319900" lon="-2.5770340">
        <ele>1267.0</ele>
        <time>2022-08-13T10:06:35Z</time>
      </trkpt>
      <trkpt lat="42.3319790" lon="-2.5770320">
        <ele>1267.1</ele>
        <time>2022-08-13T10:06:36Z</time>
      </trkpt>
      <trkpt lat="42.3319090" lon="-2.5770390">
        <ele>1267.6</ele>
        <time>2022-08-13T10:06:39Z</time>
      </trkpt>
      <trkpt lat="42.3318430" lon="-2.5770400">
        <ele>1268.0</ele>
        <time>2022-08-13T10:06:41Z</time>
      </trkpt>
      <trkpt lat="42.3316470" lon="-2.5770610">
        <ele>1269.4</ele>
        <time>2022-08-13T10:06:47Z</time>
      </trkpt>
      <trkpt lat="42.3315060" lon="-2.5770030">
        <ele>1270.4</ele>
        <time>2022-08-13T10:06:55Z</time>
      </trkpt>
      <trkpt lat="42.3314940" lon="-2.5770040">
        <ele>1270.5</ele>
        <time>2022-08-13T10:06:56Z</time>
      </trkpt>
      <trkpt lat="42.3314610" lon="-2.5770080">
        <ele>1270.8</ele>
        <time>2022-08-13T10:06:59Z</time>
      </trkpt>
      <trkpt lat="42.3314430" lon="-2.5770250">
        <ele>1271.0</ele>
        <time>2022-08-13T10:07:01Z</time>
      </trkpt>
      <trkpt lat="42.3314360" lon="-2.5770380">
        <ele>1271.1</ele>
        <time>2022-08-13T10:07:02Z</time>
      </trkpt>
      <trkpt lat="42.3314200" lon="-2.5770720">
        <ele>1271.4</ele>
        <time>2022-08-13T10:07:04Z</time>
      </trkpt>
      <trkpt lat="42.3314220" lon="-2.5771930">
        <ele>1272.2</ele>
        <time>2022-08-13T10:07:09Z</time>
      </trkpt>
      <trkpt lat="42.3314680" lon="-2.5773280">
        <ele>1273.1</ele>
        <time>2022-08-13T10:07:15Z</time>
      </trkpt>
      <trkpt lat="42.3314880" lon="-2.5773760">
        <ele>1273.3</ele>
        <time>2022-08-13T10:07:17Z</time>
      </trkpt>
      <trkpt lat="42.3315570" lon="-2.5775580">
        <ele>1274.0</ele>
        <time>2022-08-13T10:07:25Z</time>
      </trkpt>
      <trkpt lat="42.3316170" lon="-2.5776800">
        <ele>1274.5</ele>
        <time>2022-08-13T10:07:31Z</time>
      </trkpt>
      <trkpt lat="42.3316290" lon="-2.5777050">
        <ele>1274.5</ele>
        <time>2022-08-13T10:07:32Z</time>
      </trkpt>
      <trkpt lat="42.3316700" lon="-2.5778130">
        <ele>1274.8</ele>
        <time>2022-08-13T10:07:37Z</time>
      </trkpt>
      <trkpt lat="42.3317300" lon="-2.5779430">
        <ele>1275.1</ele>
        <time>2022-08-13T10:07:43Z</time>
      </trkpt>
      <trkpt lat="42.3317400" lon="-2.5779630">
        <ele>1275.2</ele>
        <time>2022-08-13T10:07:44Z</time>
      </trkpt>
      <trkpt lat="42.3317670" lon="-2.5780190">
        <ele>1275.3</ele>
        <time>2022-08-13T10:07:47Z</time>
      </trkpt>
      <trkpt lat="42.3318060" lon="-2.5781130">
        <ele>1275.6</ele>
        <time>2022-08-13T10:07:51Z</time>
      </trkpt>
      <trkpt lat="42.3319030" lon="-2.5782800">
        <ele>1276.2</ele>
        <time>2022-08-13T10:07:59Z</time>
      </trkpt>
      <trkpt lat="42.3319130" lon="-2.5782990">
        <ele>1276.2</ele>
        <time>2022-08-13T10:08:00Z</time>
      </trkpt>
      <trkpt lat="42.3319750" lon="-2.5784250">
        <ele>1276.7</ele>
        <time>2022-08-13T10:08:06Z</time>
      </trkpt>
      <trkpt lat="42.3320430" lon="-2.5785490">
        <ele>1277.2</ele>
        <time>2022-08-13T10:08:12Z</time>
      </trkpt>
      <trkpt lat="42.3320560" lon="-2.5785700">
        <ele>1277.3</ele>
        <time>2022-08-13T10:08:13Z</time>
      </trkpt>
      <trkpt lat="42.3321190" lon="-2.5786820">
        <ele>1277.8</ele>
        <time>2022-08-13T10:08:19Z</time>
      </trkpt>
      <trkpt lat="42.3321710" lon="-2.5787700">
        <ele>1278.2</ele>
        <time>2022-08-13T10:08:23Z</time>
      </trkpt>
      <trkpt lat="42.3321850" lon="-2.5787990">
        <ele>1278.3</ele>
        <time>2022-08-13T10:08:24Z</time>
      </trkpt>
      <trkpt lat="42.3321970" lon="-2.5788240">
        <ele>1278.4</ele>
        <time>2022-08-13T10:08:25Z</time>
      </trkpt>
      <trkpt lat="42.3322850" lon="-2.5790460">
        <ele>1279.4</ele>
        <time>2022-08-13T10:08:34Z</time>
      </trkpt>
      <trkpt lat="42.3323370" lon="-2.5791980">
        <ele>1280.1</ele>
        <time>2022-08-13T10:08:41Z</time>
      </trkpt>
      <trkpt lat="42.3323500" lon="-2.5792300">
        <ele>1280.2</ele>
        <time>2022-08-13T10:08:42Z</time>
      </trkpt>
      <trkpt lat="42.3323690" lon="-2.5792910">
        <ele>1280.5</ele>
        <time>2022-08-13T10:08:45Z</time>
      </trkpt>
      <trkpt lat="42.3323850" lon="-2.5793700">
        <ele>1280.9</ele>
        <time>2022-08-13T10:08:48Z</time>
      </trkpt>
      <trkpt lat="42.3323930" lon="-2.5795160">
        <ele>1281.6</ele>
        <time>2022-08-13T10:08:55Z</time>
      </trkpt>
      <trkpt lat="42.3323850" lon="-2.5795310">
        <ele>1281.7</ele>
        <time>2022-08-13T10:08:56Z</time>
      </trkpt>
      <trkpt lat="42.3323720" lon="-2.5795480">
        <ele>1281.8</ele>
        <time>2022-08-13T10:08:57Z</time>
      </trkpt>
      <trkpt lat="42.3323570" lon="-2.5795830">
        <ele>1282.0</ele>
        <time>2022-08-13T10:08:59Z</time>
      </trkpt>
      <trkpt lat="42.3323430" lon="-2.5796640">
        <ele>1282.4</ele>
        <time>2022-08-13T10:09:04Z</time>
      </trkpt>
      <trkpt lat="42.3323230" lon="-2.5796960">
        <ele>1282.6</ele>
        <time>2022-08-13T10:09:06Z</time>
      </trkpt>
      <trkpt lat="42.3323150" lon="-2.5797140">
        <ele>1282.7</ele>
        <time>2022-08-13T10:09:07Z</time>
      </trkpt>
      <trkpt lat="42.3323110" lon="-2.5797330">
        <ele>1282.8</ele>
        <time>2022-08-13T10:09:08Z</time>
      </trkpt>
      <trkpt lat="42.3322680" lon="-2.5798260">
        <ele>1283.4</ele>
        <time>2022-08-13T10:09:12Z</time>
      </trkpt>
      <trkpt lat="42.3322380" lon="-2.5799050">
        <ele>1283.8</ele>
        <time>2022-08-13T10:09:16Z</time>
      </trkpt>
      <trkpt lat="42.3322280" lon="-2.5799420">
        <ele>1283.9</ele>
        <time>2022-08-13T10:09:18Z</time>
      </trkpt>
      <trkpt lat="42.3322110" lon="-2.5799600">
        <ele>1284.1</ele>
        <time>2022-08-13T10:09:19Z</time>
      </trkpt>
      <trkpt lat="42.3321420" lon="-2.5800700">
        <ele>1284.8</ele>
        <time>2022-08-13T10:09:24Z</time>
      </trkpt>
      <trkpt lat="42.3320970" lon="-2.5801480">
        <ele>1285.3</ele>
        <time>2022-08-13T10:09:27Z</time>
      </trkpt>
      <trkpt lat="42.3320540" lon="-2.5802490">
        <ele>1285.9</ele>
        <time>2022-08-13T10:09:32Z</time>
      </trkpt>
      <trkpt lat="42.3319670" lon="-2.5803650">
        <ele>1286.8</ele>
        <time>2022-08-13T10:09:36Z</time>
      </trkpt>
      <trkpt lat="42.3319340" lon="-2.5804210">
        <ele>1287.1</ele>
        <time>2022-08-13T10:09:39Z</time>
      </trkpt>
      <trkpt lat="42.3318860" lon="-2.5804910">
        <ele>1287.5</ele>
        <time>2022-08-13T10:09:44Z</time>
      </trkpt>
      <trkpt lat="42.3318740" lon="-2.5805020">
        <ele>1287.6</ele>
        <time>2022-08-13T10:09:45Z</time>
      </trkpt>
      <trkpt lat="42.3318030" lon="-2.5805540">
        <ele>1287.9</ele>
        <time>2022-08-13T10:09:50Z</time>
      </trkpt>
      <trkpt lat="42.3317660" lon="-2.5805810">
        <ele>1288.1</ele>
        <time>2022-08-13T10:09:52Z</time>
      </trkpt>
      <trkpt lat="42.3316890" lon="-2.5806600">
        <ele>1288.5</ele>
        <time>2022-08-13T10:09:57Z</time>
      </trkpt>
      <trkpt lat="42.3316020" lon="-2.5807320">
        <ele>1288.9</ele>
        <time>2022-08-13T10:10:03Z</time>
      </trkpt>
      <trkpt lat="42.3315770" lon="-2.5807440">
        <ele>1289.0</ele>
        <time>2022-08-13T10:10:04Z</time>
      </trkpt>
      <trkpt lat="42.3314820" lon="-2.5807790">
        <ele>1289.5</ele>
        <time>2022-08-13T10:10:10Z</time>
      </trkpt>
      <trkpt lat="42.3314630" lon="-2.5807840">
        <ele>1289.6</ele>
        <time>2022-08-13T10:10:11Z</time>
      </trkpt>
      <trkpt lat="42.3314170" lon="-2.5807990">
        <ele>1289.8</ele>
        <time>2022-08-13T10:10:13Z</time>
      </trkpt>
      <trkpt lat="42.3313780" lon="-2.5808200">
        <ele>1290.1</ele>
        <time>2022-08-13T10:10:15Z</time>
      </trkpt>
      <trkpt lat="42.3313310" lon="-2.5808350">
        <ele>1290.4</ele>
        <time>2022-08-13T10:10:17Z</time>
      </trkpt>
      <trkpt lat="42.3312790" lon="-2.5808620">
        <ele>1290.9</ele>
        <time>2022-08-13T10:10:20Z</time>
      </trkpt>
      <trkpt lat="42.3312530" lon="-2.5808680">
        <ele>1291.1</ele>
        <time>2022-08-13T10:10:22Z</time>
      </trkpt>
      <trkpt lat="42.3311710" lon="-2.5808640">
        <ele>1291.9</ele>
        <time>2022-08-13T10:10:25Z</time>
      </trkpt>
      <trkpt lat="42.3311380" lon="-2.5808760">
        <ele>1292.2</ele>
        <time>2022-08-13T10:10:26Z</time>
      </trkpt>
      <trkpt lat="42.3311250" lon="-2.5808830">
        <ele>1292.3</ele>
        <time>2022-08-13T10:10:27Z</time>
      </trkpt>
      <trkpt lat="42.3310770" lon="-2.5809060">
        <ele>1292.9</ele>
        <time>2022-08-13T10:10:30Z</time>
      </trkpt>
      <trkpt lat="42.3310360" lon="-2.5809310">
        <ele>1293.3</ele>
        <time>2022-08-13T10:10:33Z</time>
      </trkpt>
      <trkpt lat="42.3310250" lon="-2.5809380">
        <ele>1293.4</ele>
        <time>2022-08-13T10:10:34Z</time>
      </trkpt>
      <trkpt lat="42.3310080" lon="-2.5809430">
        <ele>1293.6</ele>
        <time>2022-08-13T10:10:35Z</time>
      </trkpt>
      <trkpt lat="42.3308980" lon="-2.5809790">
        <ele>1294.7</ele>
        <time>2022-08-13T10:10:41Z</time>
      </trkpt>
      <trkpt lat="42.3308470" lon="-2.5809950">
        <ele>1295.1</ele>
        <time>2022-08-13T10:10:44Z</time>
      </trkpt>
      <trkpt lat="42.3307310" lon="-2.5810170">
        <ele>1296.0</ele>
        <time>2022-08-13T10:10:51Z</time>
      </trkpt>
      <trkpt lat="42.3306720" lon="-2.5810370">
        <ele>1296.4</ele>
        <time>2022-08-13T10:10:53Z</time>
      </trkpt>
      <trkpt lat="42.3305690" lon="-2.5810680">
        <ele>1297.0</ele>
        <time>2022-08-13T10:11:00Z</time>
      </trkpt>
      <trkpt lat="42.3305490" lon="-2.5810660">
        <ele>1297.1</ele>
        <time>2022-08-13T10:11:02Z</time>
      </trkpt>
      <trkpt lat="42.3305320" lon="-2.5810680">
        <ele>1297.2</ele>
        <time>2022-08-13T10:11:03Z</time>
      </trkpt>
      <trkpt lat="42.3304800" lon="-2.5810830">
        <ele>1297.5</ele>
        <time>2022-08-13T10:11:06Z</time>
      </trkpt>
      <trkpt lat="42.3303320" lon="-2.5811770">
        <ele>1298.5</ele>
        <time>2022-08-13T10:11:15Z</time>
      </trkpt>
      <trkpt lat="42.3303150" lon="-2.5811940">
        <ele>1298.6</ele>
        <time>2022-08-13T10:11:16Z</time>
      </trkpt>
      <trkpt lat="42.3302620" lon="-2.5813550">
        <ele>1299.6</ele>
        <time>2022-08-13T10:11:22Z</time>
      </trkpt>
      <trkpt lat="42.3303420" lon="-2.5814450">
        <ele>1300.4</ele>
        <time>2022-08-13T10:11:29Z</time>
      </trkpt>
      <trkpt lat="42.3303880" lon="-2.5814640">
        <ele>1300.7</ele>
        <time>2022-08-13T10:11:32Z</time>
      </trkpt>
      <trkpt lat="42.3304560" lon="-2.5815050">
        <ele>1301.1</ele>
        <time>2022-08-13T10:11:37Z</time>
      </trkpt>
      <trkpt lat="42.3304800" lon="-2.5815160">
        <ele>1301.2</ele>
        <time>2022-08-13T10:11:39Z</time>
      </trkpt>
      <trkpt lat="42.3305520" lon="-2.5815450">
        <ele>1301.6</ele>
        <time>2022-08-13T10:11:44Z</time>
      </trkpt>
      <trkpt lat="42.3306490" lon="-2.5816240">
        <ele>1302.1</ele>
        <time>2022-08-13T10:11:51Z</time>
      </trkpt>
      <trkpt lat="42.3306620" lon="-2.5816410">
        <ele>1302.2</ele>
        <time>2022-08-13T10:11:52Z</time>
      </trkpt>
      <trkpt lat="42.3308070" lon="-2.5817590">
        <ele>1302.8</ele>
        <time>2022-08-13T10:12:01Z</time>
      </trkpt>
      <trkpt lat="42.3308260" lon="-2.5817750">
        <ele>1302.8</ele>
        <time>2022-08-13T10:12:02Z</time>
      </trkpt>
      <trkpt lat="42.3309360" lon="-2.5818930">
        <ele>1303.4</ele>
        <time>2022-08-13T10:12:08Z</time>
      </trkpt>
      <trkpt lat="42.3310450" lon="-2.5819560">
        <ele>1303.8</ele>
        <time>2022-08-13T10:12:14Z</time>
      </trkpt>
      <trkpt lat="42.3310730" lon="-2.5819880">
        <ele>1304.0</ele>
        <time>2022-08-13T10:12:17Z</time>
      </trkpt>
      <trkpt lat="42.3312350" lon="-2.5821100">
        <ele>1305.3</ele>
        <time>2022-08-13T10:12:28Z</time>
      </trkpt>
      <trkpt lat="42.3312620" lon="-2.5821350">
        <ele>1305.6</ele>
        <time>2022-08-13T10:12:30Z</time>
      </trkpt>
      <trkpt lat="42.3313470" lon="-2.5822040">
        <ele>1306.5</ele>
        <time>2022-08-13T10:12:36Z</time>
      </trkpt>
      <trkpt lat="42.3314360" lon="-2.5822970">
        <ele>1307.6</ele>
        <time>2022-08-13T10:12:43Z</time>
      </trkpt>
      <trkpt lat="42.3314510" lon="-2.5823120">
        <ele>1307.8</ele>
        <time>2022-08-13T10:12:44Z</time>
      </trkpt>
      <trkpt lat="42.3315250" lon="-2.5823840">
        <ele>1308.8</ele>
        <time>2022-08-13T10:12:49Z</time>
      </trkpt>
      <trkpt lat="42.3316050" lon="-2.5824640">
        <ele>1309.8</ele>
        <time>2022-08-13T10:12:56Z</time>
      </trkpt>
      <trkpt lat="42.3316180" lon="-2.5824770">
        <ele>1310.0</ele>
        <time>2022-08-13T10:12:57Z</time>
      </trkpt>
      <trkpt lat="42.3316710" lon="-2.5825360">
        <ele>1310.8</ele>
        <time>2022-08-13T10:13:02Z</time>
      </trkpt>
      <trkpt lat="42.3316790" lon="-2.5825490">
        <ele>1310.9</ele>
        <time>2022-08-13T10:13:03Z</time>
      </trkpt>
      <trkpt lat="42.3317250" lon="-2.5825990">
        <ele>1311.6</ele>
        <time>2022-08-13T10:13:07Z</time>
      </trkpt>
      <trkpt lat="42.3318130" lon="-2.5826650">
        <ele>1312.9</ele>
        <time>2022-08-13T10:13:13Z</time>
      </trkpt>
      <trkpt lat="42.3318260" lon="-2.5826770">
        <ele>1313.1</ele>
        <time>2022-08-13T10:13:14Z</time>
      </trkpt>
      <trkpt lat="42.3318760" lon="-2.5827330">
        <ele>1313.9</ele>
        <time>2022-08-13T10:13:18Z</time>
      </trkpt>
      <trkpt lat="42.3319220" lon="-2.5827560">
        <ele>1314.6</ele>
        <time>2022-08-13T10:13:21Z</time>
      </trkpt>
      <trkpt lat="42.3319820" lon="-2.5828060">
        <ele>1315.6</ele>
        <time>2022-08-13T10:13:26Z</time>
      </trkpt>
      <trkpt lat="42.3320190" lon="-2.5828360">
        <ele>1316.2</ele>
        <time>2022-08-13T10:13:30Z</time>
      </trkpt>
      <trkpt lat="42.3320300" lon="-2.5828330">
        <ele>1316.3</ele>
        <time>2022-08-13T10:15:25Z</time>
      </trkpt>
      <trkpt lat="42.3320490" lon="-2.5828480">
        <ele>1316.7</ele>
        <time>2022-08-13T10:15:28Z</time>
      </trkpt>
      <trkpt lat="42.3320530" lon="-2.5828520">
        <ele>1316.7</ele>
        <time>2022-08-13T10:15:31Z</time>
      </trkpt>
      <trkpt lat="42.3320580" lon="-2.5828550">
        <ele>1316.8</ele>
        <time>2022-08-13T10:15:35Z</time>
      </trkpt>
      <trkpt lat="42.3320970" lon="-2.5828780">
        <ele>1317.4</ele>
        <time>2022-08-13T10:15:38Z</time>
      </trkpt>
      <trkpt lat="42.3321300" lon="-2.5829000">
        <ele>1317.9</ele>
        <time>2022-08-13T10:15:42Z</time>
      </trkpt>
      <trkpt lat="42.3321410" lon="-2.5829100">
        <ele>1318.1</ele>
        <time>2022-08-13T10:15:43Z</time>
      </trkpt>
      <trkpt lat="42.3321670" lon="-2.5829310">
        <ele>1318.5</ele>
        <time>2022-08-13T10:15:46Z</time>
      </trkpt>
      <trkpt lat="42.3321800" lon="-2.5829460">
        <ele>1318.8</ele>
        <time>2022-08-13T10:15:48Z</time>
      </trkpt>
      <trkpt lat="42.3322210" lon="-2.5829800">
        <ele>1319.5</ele>
        <time>2022-08-13T10:15:53Z</time>
      </trkpt>
      <trkpt lat="42.3322560" lon="-2.5830200">
        <ele>1320.1</ele>
        <time>2022-08-13T10:15:58Z</time>
      </trkpt>
      <trkpt lat="42.3322690" lon="-2.5830370">
        <ele>1320.4</ele>
        <time>2022-08-13T10:16:00Z</time>
      </trkpt>
      <trkpt lat="42.3323000" lon="-2.5830760">
        <ele>1321.0</ele>
        <time>2022-08-13T10:16:04Z</time>
      </trkpt>
      <trkpt lat="42.3323080" lon="-2.5830930">
        <ele>1321.2</ele>
        <time>2022-08-13T10:16:07Z</time>
      </trkpt>
      <trkpt lat="42.3323550" lon="-2.5831730">
        <ele>1322.3</ele>
        <time>2022-08-13T10:16:15Z</time>
      </trkpt>
      <trkpt lat="42.3323630" lon="-2.5831780">
        <ele>1322.5</ele>
        <time>2022-08-13T10:16:16Z</time>
      </trkpt>
      <trkpt lat="42.3324190" lon="-2.5832060">
        <ele>1323.3</ele>
        <time>2022-08-13T10:16:24Z</time>
      </trkpt>
      <trkpt lat="42.3324570" lon="-2.5832360">
        <ele>1323.9</ele>
        <time>2022-08-13T10:16:28Z</time>
      </trkpt>
      <trkpt lat="42.3324830" lon="-2.5832700">
        <ele>1324.4</ele>
        <time>2022-08-13T10:16:32Z</time>
      </trkpt>
      <trkpt lat="42.3325150" lon="-2.5832910">
        <ele>1324.9</ele>
        <time>2022-08-13T10:16:36Z</time>
      </trkpt>
      <trkpt lat="42.3325540" lon="-2.5833240">
        <ele>1325.5</ele>
        <time>2022-08-13T10:16:41Z</time>
      </trkpt>
      <trkpt lat="42.3325720" lon="-2.5833340">
        <ele>1325.8</ele>
        <time>2022-08-13T10:16:43Z</time>
      </trkpt>
      <trkpt lat="42.3325980" lon="-2.5833510">
        <ele>1326.1</ele>
        <time>2022-08-13T10:16:46Z</time>
      </trkpt>
      <trkpt lat="42.3326180" lon="-2.5833750">
        <ele>1326.5</ele>
        <time>2022-08-13T10:16:49Z</time>
      </trkpt>
      <trkpt lat="42.3326280" lon="-2.5833840">
        <ele>1326.6</ele>
        <time>2022-08-13T10:16:50Z</time>
      </trkpt>
      <trkpt lat="42.3326460" lon="-2.5833950">
        <ele>1326.9</ele>
        <time>2022-08-13T10:16:52Z</time>
      </trkpt>
      <trkpt lat="42.3326560" lon="-2.5834150">
        <ele>1327.1</ele>
        <time>2022-08-13T10:16:54Z</time>
      </trkpt>
      <trkpt lat="42.3326610" lon="-2.5834250">
        <ele>1327.2</ele>
        <time>2022-08-13T10:16:55Z</time>
      </trkpt>
      <trkpt lat="42.3326650" lon="-2.5834340">
        <ele>1327.3</ele>
        <time>2022-08-13T10:16:56Z</time>
      </trkpt>
      <trkpt lat="42.3326800" lon="-2.5834610">
        <ele>1327.7</ele>
        <time>2022-08-13T10:16:59Z</time>
      </trkpt>
      <trkpt lat="42.3327200" lon="-2.5835150">
        <ele>1328.4</ele>
        <time>2022-08-13T10:17:05Z</time>
      </trkpt>
      <trkpt lat="42.3327190" lon="-2.5835360">
        <ele>1328.5</ele>
        <time>2022-08-13T10:17:07Z</time>
      </trkpt>
      <trkpt lat="42.3327310" lon="-2.5835680">
        <ele>1328.8</ele>
        <time>2022-08-13T10:17:10Z</time>
      </trkpt>
      <trkpt lat="42.3327720" lon="-2.5835810">
        <ele>1329.3</ele>
        <time>2022-08-13T10:17:14Z</time>
      </trkpt>
      <trkpt lat="42.3328160" lon="-2.5836130">
        <ele>1329.8</ele>
        <time>2022-08-13T10:17:19Z</time>
      </trkpt>
      <trkpt lat="42.3328390" lon="-2.5836440">
        <ele>1330.1</ele>
        <time>2022-08-13T10:17:23Z</time>
      </trkpt>
      <trkpt lat="42.3328500" lon="-2.5836540">
        <ele>1330.3</ele>
        <time>2022-08-13T10:17:25Z</time>
      </trkpt>
      <trkpt lat="42.3329020" lon="-2.5837050">
        <ele>1330.9</ele>
        <time>2022-08-13T10:17:32Z</time>
      </trkpt>
      <trkpt lat="42.3329380" lon="-2.5837350">
        <ele>1331.3</ele>
        <time>2022-08-13T10:17:37Z</time>
      </trkpt>
      <trkpt lat="42.3329790" lon="-2.5837590">
        <ele>1331.7</ele>
        <time>2022-08-13T10:17:41Z</time>
      </trkpt>
      <trkpt lat="42.3330090" lon="-2.5837930">
        <ele>1332.1</ele>
        <time>2022-08-13T10:17:45Z</time>
      </trkpt>
      <trkpt lat="42.3330290" lon="-2.5838030">
        <ele>1332.3</ele>
        <time>2022-08-13T10:17:47Z</time>
      </trkpt>
      <trkpt lat="42.3330360" lon="-2.5838140">
        <ele>1332.4</ele>
        <time>2022-08-13T10:17:48Z</time>
      </trkpt>
      <trkpt lat="42.3330890" lon="-2.5838680">
        <ele>1333.1</ele>
        <time>2022-08-13T10:17:55Z</time>
      </trkpt>
      <trkpt lat="42.3331360" lon="-2.5839110">
        <ele>1333.6</ele>
        <time>2022-08-13T10:18:01Z</time>
      </trkpt>
      <trkpt lat="42.3331570" lon="-2.5839220">
        <ele>1333.8</ele>
        <time>2022-08-13T10:18:03Z</time>
      </trkpt>
      <trkpt lat="42.3331700" lon="-2.5839350">
        <ele>1334.0</ele>
        <time>2022-08-13T10:18:05Z</time>
      </trkpt>
      <trkpt lat="42.3332260" lon="-2.5839830">
        <ele>1334.6</ele>
        <time>2022-08-13T10:18:12Z</time>
      </trkpt>
      <trkpt lat="42.3332540" lon="-2.5840060">
        <ele>1334.9</ele>
        <time>2022-08-13T10:18:15Z</time>
      </trkpt>
      <trkpt lat="42.3332990" lon="-2.5840420">
        <ele>1335.3</ele>
        <time>2022-08-13T10:18:20Z</time>
      </trkpt>
      <trkpt lat="42.3333070" lon="-2.5840510">
        <ele>1335.4</ele>
        <time>2022-08-13T10:18:21Z</time>
      </trkpt>
      <trkpt lat="42.3333820" lon="-2.5841160">
        <ele>1336.2</ele>
        <time>2022-08-13T10:18:30Z</time>
      </trkpt>
      <trkpt lat="42.3333950" lon="-2.5841340">
        <ele>1336.3</ele>
        <time>2022-08-13T10:18:32Z</time>
      </trkpt>
      <trkpt lat="42.3334010" lon="-2.5841390">
        <ele>1336.4</ele>
        <time>2022-08-13T10:18:33Z</time>
      </trkpt>
      <trkpt lat="42.3334530" lon="-2.5841850">
        <ele>1336.9</ele>
        <time>2022-08-13T10:18:38Z</time>
      </trkpt>
      <trkpt lat="42.3335520" lon="-2.5842750">
        <ele>1337.8</ele>
        <time>2022-08-13T10:18:49Z</time>
      </trkpt>
      <trkpt lat="42.3335670" lon="-2.5842840">
        <ele>1337.9</ele>
        <time>2022-08-13T10:18:50Z</time>
      </trkpt>
      <trkpt lat="42.3336130" lon="-2.5843250">
        <ele>1338.2</ele>
        <time>2022-08-13T10:18:55Z</time>
      </trkpt>
      <trkpt lat="42.3336340" lon="-2.5843390">
        <ele>1338.4</ele>
        <time>2022-08-13T10:18:57Z</time>
      </trkpt>
      <trkpt lat="42.3337110" lon="-2.5843980">
        <ele>1338.8</ele>
        <time>2022-08-13T10:19:04Z</time>
      </trkpt>
      <trkpt lat="42.3337240" lon="-2.5844110">
        <ele>1338.9</ele>
        <time>2022-08-13T10:19:05Z</time>
      </trkpt>
      <trkpt lat="42.3337900" lon="-2.5844680">
        <ele>1339.3</ele>
        <time>2022-08-13T10:19:12Z</time>
      </trkpt>
      <trkpt lat="42.3337990" lon="-2.5844780">
        <ele>1339.4</ele>
        <time>2022-08-13T10:19:13Z</time>
      </trkpt>
      <trkpt lat="42.3338810" lon="-2.5845630">
        <ele>1339.9</ele>
        <time>2022-08-13T10:19:22Z</time>
      </trkpt>
      <trkpt lat="42.3339110" lon="-2.5846000">
        <ele>1340.1</ele>
        <time>2022-08-13T10:19:26Z</time>
      </trkpt>
      <trkpt lat="42.3339270" lon="-2.5846250">
        <ele>1340.2</ele>
        <time>2022-08-13T10:19:28Z</time>
      </trkpt>
      <trkpt lat="42.3339370" lon="-2.5846380">
        <ele>1340.2</ele>
        <time>2022-08-13T10:19:29Z</time>
      </trkpt>
      <trkpt lat="42.3339760" lon="-2.5846640">
        <ele>1340.4</ele>
        <time>2022-08-13T10:19:33Z</time>
      </trkpt>
      <trkpt lat="42.3340000" lon="-2.5846810">
        <ele>1340.6</ele>
        <time>2022-08-13T10:19:35Z</time>
      </trkpt>
      <trkpt lat="42.3340800" lon="-2.5847290">
        <ele>1341.0</ele>
        <time>2022-08-13T10:19:43Z</time>
      </trkpt>
      <trkpt lat="42.3341310" lon="-2.5847500">
        <ele>1341.2</ele>
        <time>2022-08-13T10:19:48Z</time>
      </trkpt>
      <trkpt lat="42.3341480" lon="-2.5847670">
        <ele>1341.3</ele>
        <time>2022-08-13T10:19:50Z</time>
      </trkpt>
      <trkpt lat="42.3341870" lon="-2.5847910">
        <ele>1341.5</ele>
        <time>2022-08-13T10:19:54Z</time>
      </trkpt>
      <trkpt lat="42.3342130" lon="-2.5848060">
        <ele>1341.6</ele>
        <time>2022-08-13T10:19:57Z</time>
      </trkpt>
      <trkpt lat="42.3342530" lon="-2.5848300">
        <ele>1341.8</ele>
        <time>2022-08-13T10:20:01Z</time>
      </trkpt>
      <trkpt lat="42.3342710" lon="-2.5848490">
        <ele>1341.9</ele>
        <time>2022-08-13T10:20:03Z</time>
      </trkpt>
      <trkpt lat="42.3342950" lon="-2.5848560">
        <ele>1342.1</ele>
        <time>2022-08-13T10:20:05Z</time>
      </trkpt>
      <trkpt lat="42.3343690" lon="-2.5848950">
        <ele>1342.5</ele>
        <time>2022-08-13T10:20:12Z</time>
      </trkpt>
      <trkpt lat="42.3344380" lon="-2.5849420">
        <ele>1342.9</ele>
        <time>2022-08-13T10:20:19Z</time>
      </trkpt>
      <trkpt lat="42.3345260" lon="-2.5850080">
        <ele>1343.4</ele>
        <time>2022-08-13T10:20:27Z</time>
      </trkpt>
      <trkpt lat="42.3346000" lon="-2.5850670">
        <ele>1343.8</ele>
        <time>2022-08-13T10:20:34Z</time>
      </trkpt>
      <trkpt lat="42.3346310" lon="-2.5850930">
        <ele>1344.0</ele>
        <time>2022-08-13T10:20:37Z</time>
      </trkpt>
      <trkpt lat="42.3346920" lon="-2.5851450">
        <ele>1344.3</ele>
        <time>2022-08-13T10:20:44Z</time>
      </trkpt>
      <trkpt lat="42.3347900" lon="-2.5851880">
        <ele>1344.8</ele>
        <time>2022-08-13T10:20:53Z</time>
      </trkpt>
      <trkpt lat="42.3348590" lon="-2.5852680">
        <ele>1345.2</ele>
        <time>2022-08-13T10:21:01Z</time>
      </trkpt>
      <trkpt lat="42.3349550" lon="-2.5853390">
        <ele>1345.7</ele>
        <time>2022-08-13T10:21:10Z</time>
      </trkpt>
      <trkpt lat="42.3350200" lon="-2.5853830">
        <ele>1346.0</ele>
        <time>2022-08-13T10:21:16Z</time>
      </trkpt>
      <trkpt lat="42.3350320" lon="-2.5853900">
        <ele>1346.1</ele>
        <time>2022-08-13T10:21:17Z</time>
      </trkpt>
      <trkpt lat="42.3351250" lon="-2.5854610">
        <ele>1346.6</ele>
        <time>2022-08-13T10:21:25Z</time>
      </trkpt>
      <trkpt lat="42.3351980" lon="-2.5855120">
        <ele>1347.0</ele>
        <time>2022-08-13T10:21:32Z</time>
      </trkpt>
      <trkpt lat="42.3352080" lon="-2.5855240">
        <ele>1347.0</ele>
        <time>2022-08-13T10:21:33Z</time>
      </trkpt>
      <trkpt lat="42.3352540" lon="-2.5855710">
        <ele>1347.3</ele>
        <time>2022-08-13T10:21:38Z</time>
      </trkpt>
      <trkpt lat="42.3353250" lon="-2.5856350">
        <ele>1347.7</ele>
        <time>2022-08-13T10:21:45Z</time>
      </trkpt>
      <trkpt lat="42.3353740" lon="-2.5856930">
        <ele>1348.0</ele>
        <time>2022-08-13T10:21:50Z</time>
      </trkpt>
      <trkpt lat="42.3354230" lon="-2.5857640">
        <ele>1348.3</ele>
        <time>2022-08-13T10:21:56Z</time>
      </trkpt>
      <trkpt lat="42.3355080" lon="-2.5859210">
        <ele>1348.7</ele>
        <time>2022-08-13T10:22:07Z</time>
      </trkpt>
      <trkpt lat="42.3355560" lon="-2.5860310">
        <ele>1349.0</ele>
        <time>2022-08-13T10:22:15Z</time>
      </trkpt>
      <trkpt lat="42.3355830" lon="-2.5861270">
        <ele>1349.3</ele>
        <time>2022-08-13T10:22:23Z</time>
      </trkpt>
      <trkpt lat="42.3355840" lon="-2.5861330">
        <ele>1349.3</ele>
        <time>2022-08-13T10:22:24Z</time>
      </trkpt>
      <trkpt lat="42.3355900" lon="-2.5861510">
        <ele>1349.3</ele>
        <time>2022-08-13T10:22:40Z</time>
      </trkpt>
      <trkpt lat="42.3356200" lon="-2.5862240">
        <ele>1349.6</ele>
        <time>2022-08-13T10:22:45Z</time>
      </trkpt>
      <trkpt lat="42.3356370" lon="-2.5862600">
        <ele>1349.8</ele>
        <time>2022-08-13T10:22:48Z</time>
      </trkpt>
      <trkpt lat="42.3356390" lon="-2.5862660">
        <ele>1349.8</ele>
        <time>2022-08-13T10:22:50Z</time>
      </trkpt>
      <trkpt lat="42.3356430" lon="-2.5862860">
        <ele>1349.9</ele>
        <time>2022-08-13T10:23:20Z</time>
      </trkpt>
      <trkpt lat="42.3356640" lon="-2.5863250">
        <ele>1350.1</ele>
        <time>2022-08-13T10:23:23Z</time>
      </trkpt>
      <trkpt lat="42.3356700" lon="-2.5863420">
        <ele>1350.2</ele>
        <time>2022-08-13T10:23:24Z</time>
      </trkpt>
      <trkpt lat="42.3356990" lon="-2.5864330">
        <ele>1350.6</ele>
        <time>2022-08-13T10:23:30Z</time>
      </trkpt>
      <trkpt lat="42.3357160" lon="-2.5864880">
        <ele>1350.9</ele>
        <time>2022-08-13T10:23:34Z</time>
      </trkpt>
      <trkpt lat="42.3357230" lon="-2.5865300">
        <ele>1351.1</ele>
        <time>2022-08-13T10:23:37Z</time>
      </trkpt>
      <trkpt lat="42.3357400" lon="-2.5866210">
        <ele>1351.7</ele>
        <time>2022-08-13T10:23:44Z</time>
      </trkpt>
      <trkpt lat="42.3357430" lon="-2.5866340">
        <ele>1351.7</ele>
        <time>2022-08-13T10:23:45Z</time>
      </trkpt>
      <trkpt lat="42.3357660" lon="-2.5867370">
        <ele>1352.5</ele>
        <time>2022-08-13T10:23:53Z</time>
      </trkpt>
      <trkpt lat="42.3357780" lon="-2.5867900">
        <ele>1353.0</ele>
        <time>2022-08-13T10:23:57Z</time>
      </trkpt>
      <trkpt lat="42.3357990" lon="-2.5868500">
        <ele>1353.6</ele>
        <time>2022-08-13T10:24:02Z</time>
      </trkpt>
      <trkpt lat="42.3358080" lon="-2.5868700">
        <ele>1353.8</ele>
        <time>2022-08-13T10:24:04Z</time>
      </trkpt>
      <trkpt lat="42.3358140" lon="-2.5868930">
        <ele>1354.0</ele>
        <time>2022-08-13T10:24:06Z</time>
      </trkpt>
      <trkpt lat="42.3358270" lon="-2.5869250">
        <ele>1354.4</ele>
        <time>2022-08-13T10:24:09Z</time>
      </trkpt>
      <trkpt lat="42.3358400" lon="-2.5869730">
        <ele>1354.9</ele>
        <time>2022-08-13T10:24:13Z</time>
      </trkpt>
      <trkpt lat="42.3358450" lon="-2.5869860">
        <ele>1355.0</ele>
        <time>2022-08-13T10:24:14Z</time>
      </trkpt>
      <trkpt lat="42.3358530" lon="-2.5870090">
        <ele>1355.3</ele>
        <time>2022-08-13T10:24:16Z</time>
      </trkpt>
      <trkpt lat="42.3358760" lon="-2.5870680">
        <ele>1355.9</ele>
        <time>2022-08-13T10:24:21Z</time>
      </trkpt>
      <trkpt lat="42.3358820" lon="-2.5871080">
        <ele>1356.3</ele>
        <time>2022-08-13T10:24:24Z</time>
      </trkpt>
      <trkpt lat="42.3359040" lon="-2.5871880">
        <ele>1357.1</ele>
        <time>2022-08-13T10:24:31Z</time>
      </trkpt>
      <trkpt lat="42.3359050" lon="-2.5872020">
        <ele>1357.2</ele>
        <time>2022-08-13T10:24:32Z</time>
      </trkpt>
      <trkpt lat="42.3359240" lon="-2.5873130">
        <ele>1358.1</ele>
        <time>2022-08-13T10:24:40Z</time>
      </trkpt>
      <trkpt lat="42.3359270" lon="-2.5873260">
        <ele>1358.2</ele>
        <time>2022-08-13T10:24:41Z</time>
      </trkpt>
      <trkpt lat="42.3359310" lon="-2.5874200">
        <ele>1358.7</ele>
        <time>2022-08-13T10:24:49Z</time>
      </trkpt>
      <trkpt lat="42.3359060" lon="-2.5875060">
        <ele>1359.0</ele>
        <time>2022-08-13T10:24:54Z</time>
      </trkpt>
      <trkpt lat="42.3358890" lon="-2.5875580">
        <ele>1359.1</ele>
        <time>2022-08-13T10:24:57Z</time>
      </trkpt>
      <trkpt lat="42.3358740" lon="-2.5876470">
        <ele>1359.3</ele>
        <time>2022-08-13T10:25:02Z</time>
      </trkpt>
      <trkpt lat="42.3358470" lon="-2.5877570">
        <ele>1359.4</ele>
        <time>2022-08-13T10:25:08Z</time>
      </trkpt>
      <trkpt lat="42.3358430" lon="-2.5877740">
        <ele>1359.4</ele>
        <time>2022-08-13T10:25:09Z</time>
      </trkpt>
      <trkpt lat="42.3358130" lon="-2.5879100">
        <ele>1359.6</ele>
        <time>2022-08-13T10:25:17Z</time>
      </trkpt>
      <trkpt lat="42.3357910" lon="-2.5879740">
        <ele>1359.6</ele>
        <time>2022-08-13T10:25:21Z</time>
      </trkpt>
      <trkpt lat="42.3357620" lon="-2.5880670">
        <ele>1359.8</ele>
        <time>2022-08-13T10:25:27Z</time>
      </trkpt>
      <trkpt lat="42.3357040" lon="-2.5882470">
        <ele>1360.2</ele>
        <time>2022-08-13T10:25:39Z</time>
      </trkpt>
      <trkpt lat="42.3356870" lon="-2.5882940">
        <ele>1360.4</ele>
        <time>2022-08-13T10:25:42Z</time>
      </trkpt>
      <trkpt lat="42.3356540" lon="-2.5883640">
        <ele>1360.7</ele>
        <time>2022-08-13T10:25:47Z</time>
      </trkpt>
      <trkpt lat="42.3356130" lon="-2.5884890">
        <ele>1361.3</ele>
        <time>2022-08-13T10:25:56Z</time>
      </trkpt>
      <trkpt lat="42.3355720" lon="-2.5885940">
        <ele>1361.9</ele>
        <time>2022-08-13T10:26:04Z</time>
      </trkpt>
      <trkpt lat="42.3355470" lon="-2.5887010">
        <ele>1362.6</ele>
        <time>2022-08-13T10:26:11Z</time>
      </trkpt>
      <trkpt lat="42.3355290" lon="-2.5887400">
        <ele>1363.0</ele>
        <time>2022-08-13T10:26:14Z</time>
      </trkpt>
      <trkpt lat="42.3355100" lon="-2.5888090">
        <ele>1363.5</ele>
        <time>2022-08-13T10:26:19Z</time>
      </trkpt>
      <trkpt lat="42.3354870" lon="-2.5888900">
        <ele>1364.1</ele>
        <time>2022-08-13T10:26:25Z</time>
      </trkpt>
      <trkpt lat="42.3354630" lon="-2.5889690">
        <ele>1364.8</ele>
        <time>2022-08-13T10:26:31Z</time>
      </trkpt>
      <trkpt lat="42.3354560" lon="-2.5890210">
        <ele>1365.2</ele>
        <time>2022-08-13T10:26:35Z</time>
      </trkpt>
      <trkpt lat="42.3354340" lon="-2.5891030">
        <ele>1365.9</ele>
        <time>2022-08-13T10:26:41Z</time>
      </trkpt>
      <trkpt lat="42.3354280" lon="-2.5891290">
        <ele>1366.1</ele>
        <time>2022-08-13T10:26:43Z</time>
      </trkpt>
      <trkpt lat="42.3353980" lon="-2.5892210">
        <ele>1366.9</ele>
        <time>2022-08-13T10:26:51Z</time>
      </trkpt>
      <trkpt lat="42.3353780" lon="-2.5892810">
        <ele>1367.4</ele>
        <time>2022-08-13T10:26:56Z</time>
      </trkpt>
      <trkpt lat="42.3353720" lon="-2.5893170">
        <ele>1367.7</ele>
        <time>2022-08-13T10:26:59Z</time>
      </trkpt>
      <trkpt lat="42.3353500" lon="-2.5893990">
        <ele>1368.4</ele>
        <time>2022-08-13T10:27:05Z</time>
      </trkpt>
      <trkpt lat="42.3353370" lon="-2.5894370">
        <ele>1368.7</ele>
        <time>2022-08-13T10:27:08Z</time>
      </trkpt>
      <trkpt lat="42.3353230" lon="-2.5894850">
        <ele>1369.0</ele>
        <time>2022-08-13T10:27:12Z</time>
      </trkpt>
      <trkpt lat="42.3353150" lon="-2.5895430">
        <ele>1369.4</ele>
        <time>2022-08-13T10:27:16Z</time>
      </trkpt>
      <trkpt lat="42.3352700" lon="-2.5896920">
        <ele>1370.4</ele>
        <time>2022-08-13T10:27:27Z</time>
      </trkpt>
      <trkpt lat="42.3352230" lon="-2.5898280">
        <ele>1371.1</ele>
        <time>2022-08-13T10:27:37Z</time>
      </trkpt>
      <trkpt lat="42.3352020" lon="-2.5898820">
        <ele>1371.3</ele>
        <time>2022-08-13T10:27:41Z</time>
      </trkpt>
      <trkpt lat="42.3351220" lon="-2.5900280">
        <ele>1371.6</ele>
        <time>2022-08-13T10:27:52Z</time>
      </trkpt>
      <trkpt lat="42.3350750" lon="-2.5901110">
        <ele>1371.6</ele>
        <time>2022-08-13T10:27:58Z</time>
      </trkpt>
      <trkpt lat="42.3350610" lon="-2.5901350">
        <ele>1371.6</ele>
        <time>2022-08-13T10:28:00Z</time>
      </trkpt>
      <trkpt lat="42.3350150" lon="-2.5902090">
        <ele>1371.5</ele>
        <time>2022-08-13T10:28:05Z</time>
      </trkpt>
      <trkpt lat="42.3349920" lon="-2.5902510">
        <ele>1371.4</ele>
        <time>2022-08-13T10:28:08Z</time>
      </trkpt>
      <trkpt lat="42.3349830" lon="-2.5902640">
        <ele>1371.4</ele>
        <time>2022-08-13T10:28:09Z</time>
      </trkpt>
      <trkpt lat="42.3349450" lon="-2.5903150">
        <ele>1371.3</ele>
        <time>2022-08-13T10:28:13Z</time>
      </trkpt>
      <trkpt lat="42.3348900" lon="-2.5904000">
        <ele>1371.2</ele>
        <time>2022-08-13T10:28:20Z</time>
      </trkpt>
      <trkpt lat="42.3348370" lon="-2.5904890">
        <ele>1371.0</ele>
        <time>2022-08-13T10:28:27Z</time>
      </trkpt>
      <trkpt lat="42.3348070" lon="-2.5905410">
        <ele>1370.9</ele>
        <time>2022-08-13T10:28:31Z</time>
      </trkpt>
      <trkpt lat="42.3347890" lon="-2.5906010">
        <ele>1370.9</ele>
        <time>2022-08-13T10:28:35Z</time>
      </trkpt>
      <trkpt lat="42.3347540" lon="-2.5906710">
        <ele>1370.9</ele>
        <time>2022-08-13T10:28:40Z</time>
      </trkpt>
      <trkpt lat="42.3346870" lon="-2.5908160">
        <ele>1370.9</ele>
        <time>2022-08-13T10:28:50Z</time>
      </trkpt>
      <trkpt lat="42.3346630" lon="-2.5908590">
        <ele>1371.0</ele>
        <time>2022-08-13T10:28:53Z</time>
      </trkpt>
      <trkpt lat="42.3346370" lon="-2.5909130">
        <ele>1371.0</ele>
        <time>2022-08-13T10:28:57Z</time>
      </trkpt>
      <trkpt lat="42.3346050" lon="-2.5909630">
        <ele>1371.1</ele>
        <time>2022-08-13T10:29:01Z</time>
      </trkpt>
      <trkpt lat="42.3345730" lon="-2.5910110">
        <ele>1371.3</ele>
        <time>2022-08-13T10:29:05Z</time>
      </trkpt>
      <trkpt lat="42.3345340" lon="-2.5910710">
        <ele>1371.5</ele>
        <time>2022-08-13T10:29:10Z</time>
      </trkpt>
      <trkpt lat="42.3345170" lon="-2.5910900">
        <ele>1371.6</ele>
        <time>2022-08-13T10:29:12Z</time>
      </trkpt>
      <trkpt lat="42.3344570" lon="-2.5911870">
        <ele>1372.0</ele>
        <time>2022-08-13T10:29:20Z</time>
      </trkpt>
      <trkpt lat="42.3344070" lon="-2.5912870">
        <ele>1372.7</ele>
        <time>2022-08-13T10:29:29Z</time>
      </trkpt>
      <trkpt lat="42.3343880" lon="-2.5913210">
        <ele>1372.9</ele>
        <time>2022-08-13T10:29:32Z</time>
      </trkpt>
      <trkpt lat="42.3343480" lon="-2.5914040">
        <ele>1373.6</ele>
        <time>2022-08-13T10:29:39Z</time>
      </trkpt>
      <trkpt lat="42.3343290" lon="-2.5914440">
        <ele>1373.9</ele>
        <time>2022-08-13T10:29:43Z</time>
      </trkpt>
      <trkpt lat="42.3343240" lon="-2.5914530">
        <ele>1374.0</ele>
        <time>2022-08-13T10:29:44Z</time>
      </trkpt>
      <trkpt lat="42.3342790" lon="-2.5915200">
        <ele>1374.8</ele>
        <time>2022-08-13T10:29:51Z</time>
      </trkpt>
      <trkpt lat="42.3342680" lon="-2.5915380">
        <ele>1375.0</ele>
        <time>2022-08-13T10:29:53Z</time>
      </trkpt>
      <trkpt lat="42.3342550" lon="-2.5915640">
        <ele>1375.3</ele>
        <time>2022-08-13T10:29:56Z</time>
      </trkpt>
      <trkpt lat="42.3342290" lon="-2.5915950">
        <ele>1375.8</ele>
        <time>2022-08-13T10:30:00Z</time>
      </trkpt>
      <trkpt lat="42.3342250" lon="-2.5916030">
        <ele>1375.8</ele>
        <time>2022-08-13T10:30:01Z</time>
      </trkpt>
      <trkpt lat="42.3341890" lon="-2.5916740">
        <ele>1376.7</ele>
        <time>2022-08-13T10:30:09Z</time>
      </trkpt>
      <trkpt lat="42.3341850" lon="-2.5916840">
        <ele>1376.8</ele>
        <time>2022-08-13T10:30:10Z</time>
      </trkpt>
      <trkpt lat="42.3341470" lon="-2.5917520">
        <ele>1377.8</ele>
        <time>2022-08-13T10:30:18Z</time>
      </trkpt>
      <trkpt lat="42.3341420" lon="-2.5917570">
        <ele>1377.9</ele>
        <time>2022-08-13T10:30:19Z</time>
      </trkpt>
      <trkpt lat="42.3341150" lon="-2.5918090">
        <ele>1378.6</ele>
        <time>2022-08-13T10:30:26Z</time>
      </trkpt>
      <trkpt lat="42.3340950" lon="-2.5918410">
        <ele>1379.1</ele>
        <time>2022-08-13T10:30:30Z</time>
      </trkpt>
      <trkpt lat="42.3340720" lon="-2.5918960">
        <ele>1379.8</ele>
        <time>2022-08-13T10:30:37Z</time>
      </trkpt>
      <trkpt lat="42.3340240" lon="-2.5919710">
        <ele>1381.0</ele>
        <time>2022-08-13T10:30:46Z</time>
      </trkpt>
      <trkpt lat="42.3340200" lon="-2.5919780">
        <ele>1381.1</ele>
        <time>2022-08-13T10:30:47Z</time>
      </trkpt>
      <trkpt lat="42.3339840" lon="-2.5920620">
        <ele>1382.3</ele>
        <time>2022-08-13T10:30:56Z</time>
      </trkpt>
      <trkpt lat="42.3339590" lon="-2.5921310">
        <ele>1383.2</ele>
        <time>2022-08-13T10:31:04Z</time>
      </trkpt>
      <trkpt lat="42.3339580" lon="-2.5921390">
        <ele>1383.3</ele>
        <time>2022-08-13T10:31:05Z</time>
      </trkpt>
      <trkpt lat="42.3339380" lon="-2.5921830">
        <ele>1384.0</ele>
        <time>2022-08-13T10:31:10Z</time>
      </trkpt>
      <trkpt lat="42.3339100" lon="-2.5922470">
        <ele>1385.0</ele>
        <time>2022-08-13T10:31:18Z</time>
      </trkpt>
      <trkpt lat="42.3339020" lon="-2.5922640">
        <ele>1385.2</ele>
        <time>2022-08-13T10:31:20Z</time>
      </trkpt>
      <trkpt lat="42.3338780" lon="-2.5923200">
        <ele>1386.1</ele>
        <time>2022-08-13T10:31:27Z</time>
      </trkpt>
      <trkpt lat="42.3338720" lon="-2.5923280">
        <ele>1386.2</ele>
        <time>2022-08-13T10:31:28Z</time>
      </trkpt>
      <trkpt lat="42.3338680" lon="-2.5923370">
        <ele>1386.4</ele>
        <time>2022-08-13T10:31:29Z</time>
      </trkpt>
      <trkpt lat="42.3338370" lon="-2.5924040">
        <ele>1387.4</ele>
        <time>2022-08-13T10:31:37Z</time>
      </trkpt>
      <trkpt lat="42.3338260" lon="-2.5924320">
        <ele>1387.8</ele>
        <time>2022-08-13T10:31:40Z</time>
      </trkpt>
      <trkpt lat="42.3337880" lon="-2.5924960">
        <ele>1388.9</ele>
        <time>2022-08-13T10:31:48Z</time>
      </trkpt>
      <trkpt lat="42.3337610" lon="-2.5925560">
        <ele>1389.8</ele>
        <time>2022-08-13T10:31:55Z</time>
      </trkpt>
      <trkpt lat="42.3337360" lon="-2.5926210">
        <ele>1390.7</ele>
        <time>2022-08-13T10:32:03Z</time>
      </trkpt>
      <trkpt lat="42.3337270" lon="-2.5926400">
        <ele>1391.0</ele>
        <time>2022-08-13T10:32:05Z</time>
      </trkpt>
      <trkpt lat="42.3337130" lon="-2.5926840">
        <ele>1391.6</ele>
        <time>2022-08-13T10:32:10Z</time>
      </trkpt>
      <trkpt lat="42.3336970" lon="-2.5927260">
        <ele>1392.2</ele>
        <time>2022-08-13T10:32:14Z</time>
      </trkpt>
      <trkpt lat="42.3336900" lon="-2.5927500">
        <ele>1392.5</ele>
        <time>2022-08-13T10:32:18Z</time>
      </trkpt>
      <trkpt lat="42.3336720" lon="-2.5927850">
        <ele>1393.0</ele>
        <time>2022-08-13T10:32:24Z</time>
      </trkpt>
      <trkpt lat="42.3336310" lon="-2.5928730">
        <ele>1394.3</ele>
        <time>2022-08-13T10:32:33Z</time>
      </trkpt>
      <trkpt lat="42.3336210" lon="-2.5928960">
        <ele>1394.6</ele>
        <time>2022-08-13T10:32:36Z</time>
      </trkpt>
      <trkpt lat="42.3335980" lon="-2.5929450">
        <ele>1395.2</ele>
        <time>2022-08-13T10:32:42Z</time>
      </trkpt>
      <trkpt lat="42.3335900" lon="-2.5929640">
        <ele>1395.5</ele>
        <time>2022-08-13T10:32:44Z</time>
      </trkpt>
      <trkpt lat="42.3335710" lon="-2.5930210">
        <ele>1396.2</ele>
        <time>2022-08-13T10:32:49Z</time>
      </trkpt>
      <trkpt lat="42.3335670" lon="-2.5930300">
        <ele>1396.3</ele>
        <time>2022-08-13T10:32:50Z</time>
      </trkpt>
      <trkpt lat="42.3335350" lon="-2.5930940">
        <ele>1397.1</ele>
        <time>2022-08-13T10:32:57Z</time>
      </trkpt>
      <trkpt lat="42.3334980" lon="-2.5931700">
        <ele>1398.0</ele>
        <time>2022-08-13T10:33:04Z</time>
      </trkpt>
      <trkpt lat="42.3334800" lon="-2.5932120">
        <ele>1398.5</ele>
        <time>2022-08-13T10:33:08Z</time>
      </trkpt>
      <trkpt lat="42.3334630" lon="-2.5932540">
        <ele>1398.9</ele>
        <time>2022-08-13T10:33:13Z</time>
      </trkpt>
      <trkpt lat="42.3334390" lon="-2.5933140">
        <ele>1399.6</ele>
        <time>2022-08-13T10:33:18Z</time>
      </trkpt>
      <trkpt lat="42.3334120" lon="-2.5933750">
        <ele>1400.2</ele>
        <time>2022-08-13T10:33:24Z</time>
      </trkpt>
      <trkpt lat="42.3333930" lon="-2.5934200">
        <ele>1400.6</ele>
        <time>2022-08-13T10:33:28Z</time>
      </trkpt>
      <trkpt lat="42.3333520" lon="-2.5935570">
        <ele>1401.5</ele>
        <time>2022-08-13T10:33:39Z</time>
      </trkpt>
      <trkpt lat="42.3333380" lon="-2.5936260">
        <ele>1401.8</ele>
        <time>2022-08-13T10:33:44Z</time>
      </trkpt>
      <trkpt lat="42.3333380" lon="-2.5936320">
        <ele>1401.8</ele>
        <time>2022-08-13T10:33:46Z</time>
      </trkpt>
      <trkpt lat="42.3333300" lon="-2.5936660">
        <ele>1401.8</ele>
        <time>2022-08-13T10:36:42Z</time>
      </trkpt>
      <trkpt lat="42.3333290" lon="-2.5936850">
        <ele>1401.8</ele>
        <time>2022-08-13T10:36:43Z</time>
      </trkpt>
      <trkpt lat="42.3333270" lon="-2.5937520">
        <ele>1401.8</ele>
        <time>2022-08-13T10:36:45Z</time>
      </trkpt>
      <trkpt lat="42.3333290" lon="-2.5937870">
        <ele>1401.7</ele>
        <time>2022-08-13T10:36:46Z</time>
      </trkpt>
      <trkpt lat="42.3333330" lon="-2.5938250">
        <ele>1401.6</ele>
        <time>2022-08-13T10:36:47Z</time>
      </trkpt>
      <trkpt lat="42.3333810" lon="-2.5940520">
        <ele>1400.0</ele>
        <time>2022-08-13T10:36:52Z</time>
      </trkpt>
      <trkpt lat="42.3333930" lon="-2.5940910">
        <ele>1399.7</ele>
        <time>2022-08-13T10:36:53Z</time>
      </trkpt>
      <trkpt lat="42.3334220" lon="-2.5942030">
        <ele>1398.7</ele>
        <time>2022-08-13T10:36:55Z</time>
      </trkpt>
      <trkpt lat="42.3334540" lon="-2.5943150">
        <ele>1397.6</ele>
        <time>2022-08-13T10:36:57Z</time>
      </trkpt>
      <trkpt lat="42.3334900" lon="-2.5944290">
        <ele>1396.5</ele>
        <time>2022-08-13T10:36:59Z</time>
      </trkpt>
      <trkpt lat="42.3335080" lon="-2.5944900">
        <ele>1395.9</ele>
        <time>2022-08-13T10:37:00Z</time>
      </trkpt>
      <trkpt lat="42.3335470" lon="-2.5946200">
        <ele>1394.6</ele>
        <time>2022-08-13T10:37:02Z</time>
      </trkpt>
      <trkpt lat="42.3335900" lon="-2.5947660">
        <ele>1393.2</ele>
        <time>2022-08-13T10:37:04Z</time>
      </trkpt>
      <trkpt lat="42.3336150" lon="-2.5948440">
        <ele>1392.5</ele>
        <time>2022-08-13T10:37:05Z</time>
      </trkpt>
      <trkpt lat="42.3336390" lon="-2.5949240">
        <ele>1391.9</ele>
        <time>2022-08-13T10:37:06Z</time>
      </trkpt>
      <trkpt lat="42.3336860" lon="-2.5950830">
        <ele>1390.8</ele>
        <time>2022-08-13T10:37:08Z</time>
      </trkpt>
      <trkpt lat="42.3337610" lon="-2.5953100">
        <ele>1389.7</ele>
        <time>2022-08-13T10:37:11Z</time>
      </trkpt>
      <trkpt lat="42.3338590" lon="-2.5955270">
        <ele>1389.1</ele>
        <time>2022-08-13T10:37:15Z</time>
      </trkpt>
      <trkpt lat="42.3338840" lon="-2.5955800">
        <ele>1389.0</ele>
        <time>2022-08-13T10:37:16Z</time>
      </trkpt>
      <trkpt lat="42.3339400" lon="-2.5956960">
        <ele>1389.0</ele>
        <time>2022-08-13T10:37:20Z</time>
      </trkpt>
      <trkpt lat="42.3339440" lon="-2.5957050">
        <ele>1389.0</ele>
        <time>2022-08-13T10:37:21Z</time>
      </trkpt>
      <trkpt lat="42.3339540" lon="-2.5957640">
        <ele>1389.0</ele>
        <time>2022-08-13T10:37:38Z</time>
      </trkpt>
      <trkpt lat="42.3339640" lon="-2.5958150">
        <ele>1389.0</ele>
        <time>2022-08-13T10:37:41Z</time>
      </trkpt>
      <trkpt lat="42.3339720" lon="-2.5958520">
        <ele>1389.0</ele>
        <time>2022-08-13T10:37:43Z</time>
      </trkpt>
      <trkpt lat="42.3340190" lon="-2.5960000">
        <ele>1389.4</ele>
        <time>2022-08-13T10:37:53Z</time>
      </trkpt>
      <trkpt lat="42.3340640" lon="-2.5961500">
        <ele>1389.9</ele>
        <time>2022-08-13T10:38:03Z</time>
      </trkpt>
      <trkpt lat="42.3340850" lon="-2.5962080">
        <ele>1390.2</ele>
        <time>2022-08-13T10:38:07Z</time>
      </trkpt>
      <trkpt lat="42.3341090" lon="-2.5962730">
        <ele>1390.6</ele>
        <time>2022-08-13T10:38:12Z</time>
      </trkpt>
      <trkpt lat="42.3341140" lon="-2.5962820">
        <ele>1390.6</ele>
        <time>2022-08-13T10:38:13Z</time>
      </trkpt>
      <trkpt lat="42.3341340" lon="-2.5963260">
        <ele>1390.9</ele>
        <time>2022-08-13T10:38:19Z</time>
      </trkpt>
      <trkpt lat="42.3341670" lon="-2.5963720">
        <ele>1391.3</ele>
        <time>2022-08-13T10:38:25Z</time>
      </trkpt>
      <trkpt lat="42.3341800" lon="-2.5963970">
        <ele>1391.5</ele>
        <time>2022-08-13T10:38:28Z</time>
      </trkpt>
      <trkpt lat="42.3342000" lon="-2.5964460">
        <ele>1391.9</ele>
        <time>2022-08-13T10:38:32Z</time>
      </trkpt>
      <trkpt lat="42.3342050" lon="-2.5964600">
        <ele>1392.0</ele>
        <time>2022-08-13T10:38:33Z</time>
      </trkpt>
      <trkpt lat="42.3342230" lon="-2.5964890">
        <ele>1392.3</ele>
        <time>2022-08-13T10:38:36Z</time>
      </trkpt>
      <trkpt lat="42.3342650" lon="-2.5965400">
        <ele>1393.0</ele>
        <time>2022-08-13T10:38:42Z</time>
      </trkpt>
      <trkpt lat="42.3342790" lon="-2.5965660">
        <ele>1393.3</ele>
        <time>2022-08-13T10:38:45Z</time>
      </trkpt>
      <trkpt lat="42.3343020" lon="-2.5966120">
        <ele>1393.8</ele>
        <time>2022-08-13T10:38:50Z</time>
      </trkpt>
      <trkpt lat="42.3343170" lon="-2.5966460">
        <ele>1394.1</ele>
        <time>2022-08-13T10:38:53Z</time>
      </trkpt>
      <trkpt lat="42.3343250" lon="-2.5966680">
        <ele>1394.4</ele>
        <time>2022-08-13T10:38:55Z</time>
      </trkpt>
      <trkpt lat="42.3343440" lon="-2.5967070">
        <ele>1394.8</ele>
        <time>2022-08-13T10:39:00Z</time>
      </trkpt>
      <trkpt lat="42.3343430" lon="-2.5967110">
        <ele>1394.9</ele>
        <time>2022-08-13T10:39:01Z</time>
      </trkpt>
      <trkpt lat="42.3343440" lon="-2.5967190">
        <ele>1395.0</ele>
        <time>2022-08-13T10:39:02Z</time>
      </trkpt>
      <trkpt lat="42.3343580" lon="-2.5967590">
        <ele>1395.4</ele>
        <time>2022-08-13T10:39:07Z</time>
      </trkpt>
      <trkpt lat="42.3343640" lon="-2.5967790">
        <ele>1395.6</ele>
        <time>2022-08-13T10:39:09Z</time>
      </trkpt>
      <trkpt lat="42.3343760" lon="-2.5968650">
        <ele>1396.6</ele>
        <time>2022-08-13T10:39:16Z</time>
      </trkpt>
      <trkpt lat="42.3343890" lon="-2.5969400">
        <ele>1397.4</ele>
        <time>2022-08-13T10:39:25Z</time>
      </trkpt>
      <trkpt lat="42.3343940" lon="-2.5969480">
        <ele>1397.5</ele>
        <time>2022-08-13T10:39:27Z</time>
      </trkpt>
      <trkpt lat="42.3344000" lon="-2.5969570">
        <ele>1397.6</ele>
        <time>2022-08-13T10:39:29Z</time>
      </trkpt>
      <trkpt lat="42.3344170" lon="-2.5969960">
        <ele>1398.2</ele>
        <time>2022-08-13T10:39:33Z</time>
      </trkpt>
      <trkpt lat="42.3344320" lon="-2.5970240">
        <ele>1398.6</ele>
        <time>2022-08-13T10:39:37Z</time>
      </trkpt>
      <trkpt lat="42.3344630" lon="-2.5970760">
        <ele>1399.4</ele>
        <time>2022-08-13T10:39:45Z</time>
      </trkpt>
      <trkpt lat="42.3344750" lon="-2.5971090">
        <ele>1399.9</ele>
        <time>2022-08-13T10:39:49Z</time>
      </trkpt>
      <trkpt lat="42.3345010" lon="-2.5971510">
        <ele>1400.6</ele>
        <time>2022-08-13T10:39:57Z</time>
      </trkpt>
      <trkpt lat="42.3345080" lon="-2.5971580">
        <ele>1400.7</ele>
        <time>2022-08-13T10:39:58Z</time>
      </trkpt>
      <trkpt lat="42.3345360" lon="-2.5972070">
        <ele>1401.6</ele>
        <time>2022-08-13T10:40:05Z</time>
      </trkpt>
      <trkpt lat="42.3345450" lon="-2.5972240">
        <ele>1401.8</ele>
        <time>2022-08-13T10:40:07Z</time>
      </trkpt>
      <trkpt lat="42.3345550" lon="-2.5972510">
        <ele>1402.2</ele>
        <time>2022-08-13T10:40:10Z</time>
      </trkpt>
      <trkpt lat="42.3345680" lon="-2.5972840">
        <ele>1402.5</ele>
        <time>2022-08-13T10:40:14Z</time>
      </trkpt>
      <trkpt lat="42.3345770" lon="-2.5972980">
        <ele>1402.7</ele>
        <time>2022-08-13T10:40:17Z</time>
      </trkpt>
      <trkpt lat="42.3345790" lon="-2.5973020">
        <ele>1402.7</ele>
        <time>2022-08-13T10:40:18Z</time>
      </trkpt>
      <trkpt lat="42.3345830" lon="-2.5973220">
        <ele>1403.0</ele>
        <time>2022-08-13T10:40:22Z</time>
      </trkpt>
      <trkpt lat="42.3345920" lon="-2.5973350">
        <ele>1403.2</ele>
        <time>2022-08-13T10:40:24Z</time>
      </trkpt>
      <trkpt lat="42.3346210" lon="-2.5973940">
        <ele>1404.0</ele>
        <time>2022-08-13T10:40:31Z</time>
      </trkpt>
      <trkpt lat="42.3346420" lon="-2.5974450">
        <ele>1404.7</ele>
        <time>2022-08-13T10:40:39Z</time>
      </trkpt>
      <trkpt lat="42.3346470" lon="-2.5974540">
        <ele>1404.8</ele>
        <time>2022-08-13T10:40:41Z</time>
      </trkpt>
      <trkpt lat="42.3346560" lon="-2.5974670">
        <ele>1405.0</ele>
        <time>2022-08-13T10:40:43Z</time>
      </trkpt>
      <trkpt lat="42.3346580" lon="-2.5974760">
        <ele>1405.1</ele>
        <time>2022-08-13T10:40:44Z</time>
      </trkpt>
      <trkpt lat="42.3346700" lon="-2.5974990">
        <ele>1405.4</ele>
        <time>2022-08-13T10:40:47Z</time>
      </trkpt>
      <trkpt lat="42.3346840" lon="-2.5975310">
        <ele>1405.8</ele>
        <time>2022-08-13T10:40:52Z</time>
      </trkpt>
      <trkpt lat="42.3346890" lon="-2.5975390">
        <ele>1406.0</ele>
        <time>2022-08-13T10:40:55Z</time>
      </trkpt>
      <trkpt lat="42.3346970" lon="-2.5975500">
        <ele>1406.1</ele>
        <time>2022-08-13T10:40:57Z</time>
      </trkpt>
      <trkpt lat="42.3347120" lon="-2.5975790">
        <ele>1406.5</ele>
        <time>2022-08-13T10:41:00Z</time>
      </trkpt>
      <trkpt lat="42.3347390" lon="-2.5976620">
        <ele>1407.4</ele>
        <time>2022-08-13T10:41:08Z</time>
      </trkpt>
      <trkpt lat="42.3347430" lon="-2.5976720">
        <ele>1407.5</ele>
        <time>2022-08-13T10:41:09Z</time>
      </trkpt>
      <trkpt lat="42.3347860" lon="-2.5977170">
        <ele>1408.2</ele>
        <time>2022-08-13T10:41:17Z</time>
      </trkpt>
      <trkpt lat="42.3347940" lon="-2.5977390">
        <ele>1408.4</ele>
        <time>2022-08-13T10:41:19Z</time>
      </trkpt>
      <trkpt lat="42.3347990" lon="-2.5977490">
        <ele>1408.5</ele>
        <time>2022-08-13T10:41:21Z</time>
      </trkpt>
      <trkpt lat="42.3348060" lon="-2.5977660">
        <ele>1408.7</ele>
        <time>2022-08-13T10:41:35Z</time>
      </trkpt>
      <trkpt lat="42.3348180" lon="-2.5977900">
        <ele>1408.8</ele>
        <time>2022-08-13T10:41:37Z</time>
      </trkpt>
      <trkpt lat="42.3348600" lon="-2.5978650">
        <ele>1409.2</ele>
        <time>2022-08-13T10:41:44Z</time>
      </trkpt>
      <trkpt lat="42.3348850" lon="-2.5979120">
        <ele>1409.3</ele>
        <time>2022-08-13T10:41:49Z</time>
      </trkpt>
      <trkpt lat="42.3348980" lon="-2.5979430">
        <ele>1409.4</ele>
        <time>2022-08-13T10:41:52Z</time>
      </trkpt>
      <trkpt lat="42.3349340" lon="-2.5980290">
        <ele>1409.6</ele>
        <time>2022-08-13T10:42:02Z</time>
      </trkpt>
      <trkpt lat="42.3349420" lon="-2.5981990">
        <ele>1409.6</ele>
        <time>2022-08-13T10:56:13Z</time>
      </trkpt>
      <trkpt lat="42.3349390" lon="-2.5982240">
        <ele>1409.5</ele>
        <time>2022-08-13T10:56:14Z</time>
      </trkpt>
      <trkpt lat="42.3349370" lon="-2.5982820">
        <ele>1409.4</ele>
        <time>2022-08-13T10:56:16Z</time>
      </trkpt>
      <trkpt lat="42.3349420" lon="-2.5984040">
        <ele>1409.1</ele>
        <time>2022-08-13T10:56:19Z</time>
      </trkpt>
      <trkpt lat="42.3349400" lon="-2.5984360">
        <ele>1409.0</ele>
        <time>2022-08-13T10:56:20Z</time>
      </trkpt>
      <trkpt lat="42.3349420" lon="-2.5984770">
        <ele>1408.9</ele>
        <time>2022-08-13T10:56:21Z</time>
      </trkpt>
      <trkpt lat="42.3349470" lon="-2.5987180">
        <ele>1408.1</ele>
        <time>2022-08-13T10:56:26Z</time>
      </trkpt>
      <trkpt lat="42.3349440" lon="-2.5989170">
        <ele>1407.2</ele>
        <time>2022-08-13T10:56:30Z</time>
      </trkpt>
      <trkpt lat="42.3349400" lon="-2.5991010">
        <ele>1406.3</ele>
        <time>2022-08-13T10:56:33Z</time>
      </trkpt>
      <trkpt lat="42.3349390" lon="-2.5991500">
        <ele>1406.0</ele>
        <time>2022-08-13T10:56:34Z</time>
      </trkpt>
      <trkpt lat="42.3349330" lon="-2.5992770">
        <ele>1405.3</ele>
        <time>2022-08-13T10:56:36Z</time>
      </trkpt>
      <trkpt lat="42.3349220" lon="-2.5993800">
        <ele>1404.7</ele>
        <time>2022-08-13T10:56:38Z</time>
      </trkpt>
      <trkpt lat="42.3349150" lon="-2.5994510">
        <ele>1404.2</ele>
        <time>2022-08-13T10:56:39Z</time>
      </trkpt>
      <trkpt lat="42.3349110" lon="-2.5994980">
        <ele>1403.9</ele>
        <time>2022-08-13T10:56:40Z</time>
      </trkpt>
      <trkpt lat="42.3349050" lon="-2.5995690">
        <ele>1403.5</ele>
        <time>2022-08-13T10:56:41Z</time>
      </trkpt>
      <trkpt lat="42.3348860" lon="-2.5997550">
        <ele>1402.2</ele>
        <time>2022-08-13T10:56:44Z</time>
      </trkpt>
      <trkpt lat="42.3348520" lon="-2.5999310">
        <ele>1401.0</ele>
        <time>2022-08-13T10:56:47Z</time>
      </trkpt>
      <trkpt lat="42.3348270" lon="-2.6000570">
        <ele>1400.2</ele>
        <time>2022-08-13T10:56:49Z</time>
      </trkpt>
      <trkpt lat="42.3348110" lon="-2.6001380">
        <ele>1399.7</ele>
        <time>2022-08-13T10:56:50Z</time>
      </trkpt>
      <trkpt lat="42.3347720" lon="-2.6003500">
        <ele>1398.7</ele>
        <time>2022-08-13T10:56:53Z</time>
      </trkpt>
      <trkpt lat="42.3347490" lon="-2.6004820">
        <ele>1398.1</ele>
        <time>2022-08-13T10:56:55Z</time>
      </trkpt>
      <trkpt lat="42.3347360" lon="-2.6005610">
        <ele>1397.8</ele>
        <time>2022-08-13T10:56:56Z</time>
      </trkpt>
      <trkpt lat="42.3347140" lon="-2.6007260">
        <ele>1397.3</ele>
        <time>2022-08-13T10:56:58Z</time>
      </trkpt>
      <trkpt lat="42.3346970" lon="-2.6009340">
        <ele>1397.2</ele>
        <time>2022-08-13T10:57:01Z</time>
      </trkpt>
      <trkpt lat="42.3346740" lon="-2.6011050">
        <ele>1397.6</ele>
        <time>2022-08-13T10:57:04Z</time>
      </trkpt>
      <trkpt lat="42.3346680" lon="-2.6011960">
        <ele>1397.9</ele>
        <time>2022-08-13T10:57:06Z</time>
      </trkpt>
      <trkpt lat="42.3346530" lon="-2.6012970">
        <ele>1398.3</ele>
        <time>2022-08-13T10:57:10Z</time>
      </trkpt>
      <trkpt lat="42.3346540" lon="-2.6013020">
        <ele>1398.3</ele>
        <time>2022-08-13T10:57:11Z</time>
      </trkpt>
      <trkpt lat="42.3346490" lon="-2.6013170">
        <ele>1398.4</ele>
        <time>2022-08-13T10:59:00Z</time>
      </trkpt>
      <trkpt lat="42.3346370" lon="-2.6013530">
        <ele>1398.5</ele>
        <time>2022-08-13T10:59:02Z</time>
      </trkpt>
      <trkpt lat="42.3346230" lon="-2.6013980">
        <ele>1398.8</ele>
        <time>2022-08-13T10:59:04Z</time>
      </trkpt>
      <trkpt lat="42.3346040" lon="-2.6015000">
        <ele>1399.4</ele>
        <time>2022-08-13T10:59:08Z</time>
      </trkpt>
      <trkpt lat="42.3345980" lon="-2.6015270">
        <ele>1399.6</ele>
        <time>2022-08-13T10:59:09Z</time>
      </trkpt>
      <trkpt lat="42.3345900" lon="-2.6015680">
        <ele>1399.9</ele>
        <time>2022-08-13T10:59:11Z</time>
      </trkpt>
      <trkpt lat="42.3345870" lon="-2.6015900">
        <ele>1400.0</ele>
        <time>2022-08-13T10:59:12Z</time>
      </trkpt>
      <trkpt lat="42.3345800" lon="-2.6016340">
        <ele>1400.4</ele>
        <time>2022-08-13T10:59:14Z</time>
      </trkpt>
      <trkpt lat="42.3345740" lon="-2.6016790">
        <ele>1400.7</ele>
        <time>2022-08-13T10:59:16Z</time>
      </trkpt>
      <trkpt lat="42.3345680" lon="-2.6017260">
        <ele>1401.1</ele>
        <time>2022-08-13T10:59:18Z</time>
      </trkpt>
      <trkpt lat="42.3345650" lon="-2.6017490">
        <ele>1401.3</ele>
        <time>2022-08-13T10:59:19Z</time>
      </trkpt>
      <trkpt lat="42.3345640" lon="-2.6018450">
        <ele>1402.0</ele>
        <time>2022-08-13T10:59:23Z</time>
      </trkpt>
      <trkpt lat="42.3345570" lon="-2.6018910">
        <ele>1402.5</ele>
        <time>2022-08-13T10:59:25Z</time>
      </trkpt>
      <trkpt lat="42.3345560" lon="-2.6019380">
        <ele>1402.9</ele>
        <time>2022-08-13T10:59:27Z</time>
      </trkpt>
      <trkpt lat="42.3345490" lon="-2.6020260">
        <ele>1403.7</ele>
        <time>2022-08-13T10:59:31Z</time>
      </trkpt>
      <trkpt lat="42.3345450" lon="-2.6020470">
        <ele>1403.8</ele>
        <time>2022-08-13T10:59:32Z</time>
      </trkpt>
      <trkpt lat="42.3345260" lon="-2.6021560">
        <ele>1404.8</ele>
        <time>2022-08-13T10:59:37Z</time>
      </trkpt>
      <trkpt lat="42.3345210" lon="-2.6021760">
        <ele>1405.0</ele>
        <time>2022-08-13T10:59:38Z</time>
      </trkpt>
      <trkpt lat="42.3345190" lon="-2.6022130">
        <ele>1405.3</ele>
        <time>2022-08-13T10:59:40Z</time>
      </trkpt>
      <trkpt lat="42.3345240" lon="-2.6022590">
        <ele>1405.6</ele>
        <time>2022-08-13T10:59:42Z</time>
      </trkpt>
      <trkpt lat="42.3345150" lon="-2.6023530">
        <ele>1406.2</ele>
        <time>2022-08-13T10:59:46Z</time>
      </trkpt>
      <trkpt lat="42.3345080" lon="-2.6023960">
        <ele>1406.4</ele>
        <time>2022-08-13T10:59:48Z</time>
      </trkpt>
      <trkpt lat="42.3345050" lon="-2.6024810">
        <ele>1406.5</ele>
        <time>2022-08-13T10:59:52Z</time>
      </trkpt>
      <trkpt lat="42.3345000" lon="-2.6025000">
        <ele>1406.5</ele>
        <time>2022-08-13T10:59:53Z</time>
      </trkpt>
      <trkpt lat="42.3344730" lon="-2.6025350">
        <ele>1406.5</ele>
        <time>2022-08-13T10:59:55Z</time>
      </trkpt>
      <trkpt lat="42.3343900" lon="-2.6026150">
        <ele>1405.9</ele>
        <time>2022-08-13T11:00:00Z</time>
      </trkpt>
      <trkpt lat="42.3342610" lon="-2.6027280">
        <ele>1404.4</ele>
        <time>2022-08-13T11:00:05Z</time>
      </trkpt>
      <trkpt lat="42.3340310" lon="-2.6029130">
        <ele>1401.0</ele>
        <time>2022-08-13T11:00:12Z</time>
      </trkpt>
      <trkpt lat="42.3339920" lon="-2.6029430">
        <ele>1400.5</ele>
        <time>2022-08-13T11:00:13Z</time>
      </trkpt>
      <trkpt lat="42.3339510" lon="-2.6029700">
        <ele>1399.9</ele>
        <time>2022-08-13T11:00:14Z</time>
      </trkpt>
      <trkpt lat="42.3338710" lon="-2.6030220">
        <ele>1398.8</ele>
        <time>2022-08-13T11:00:16Z</time>
      </trkpt>
      <trkpt lat="42.3337900" lon="-2.6030760">
        <ele>1397.8</ele>
        <time>2022-08-13T11:00:18Z</time>
      </trkpt>
      <trkpt lat="42.3337500" lon="-2.6031060">
        <ele>1397.3</ele>
        <time>2022-08-13T11:00:19Z</time>
      </trkpt>
      <trkpt lat="42.3336310" lon="-2.6032070">
        <ele>1395.8</ele>
        <time>2022-08-13T11:00:22Z</time>
      </trkpt>
      <trkpt lat="42.3335430" lon="-2.6032780">
        <ele>1394.8</ele>
        <time>2022-08-13T11:00:24Z</time>
      </trkpt>
      <trkpt lat="42.3334550" lon="-2.6033570">
        <ele>1393.9</ele>
        <time>2022-08-13T11:00:26Z</time>
      </trkpt>
      <trkpt lat="42.3334110" lon="-2.6034020">
        <ele>1393.5</ele>
        <time>2022-08-13T11:00:27Z</time>
      </trkpt>
      <trkpt lat="42.3333700" lon="-2.6034530">
        <ele>1393.1</ele>
        <time>2022-08-13T11:00:28Z</time>
      </trkpt>
      <trkpt lat="42.3332500" lon="-2.6036280">
        <ele>1392.1</ele>
        <time>2022-08-13T11:00:31Z</time>
      </trkpt>
      <trkpt lat="42.3332130" lon="-2.6036880">
        <ele>1391.9</ele>
        <time>2022-08-13T11:00:32Z</time>
      </trkpt>
      <trkpt lat="42.3331400" lon="-2.6038140">
        <ele>1391.6</ele>
        <time>2022-08-13T11:00:34Z</time>
      </trkpt>
      <trkpt lat="42.3330380" lon="-2.6040040">
        <ele>1391.5</ele>
        <time>2022-08-13T11:00:37Z</time>
      </trkpt>
      <trkpt lat="42.3330020" lon="-2.6040600">
        <ele>1391.5</ele>
        <time>2022-08-13T11:00:38Z</time>
      </trkpt>
      <trkpt lat="42.3329660" lon="-2.6041080">
        <ele>1391.6</ele>
        <time>2022-08-13T11:00:39Z</time>
      </trkpt>
      <trkpt lat="42.3329360" lon="-2.6041490">
        <ele>1391.7</ele>
        <time>2022-08-13T11:00:40Z</time>
      </trkpt>
      <trkpt lat="42.3328390" lon="-2.6042920">
        <ele>1392.1</ele>
        <time>2022-08-13T11:00:44Z</time>
      </trkpt>
      <trkpt lat="42.3326940" lon="-2.6045220">
        <ele>1393.1</ele>
        <time>2022-08-13T11:00:51Z</time>
      </trkpt>
      <trkpt lat="42.3326560" lon="-2.6045810">
        <ele>1393.4</ele>
        <time>2022-08-13T11:00:53Z</time>
      </trkpt>
      <trkpt lat="42.3326050" lon="-2.6046590">
        <ele>1393.7</ele>
        <time>2022-08-13T11:00:56Z</time>
      </trkpt>
      <trkpt lat="42.3325230" lon="-2.6047640">
        <ele>1394.0</ele>
        <time>2022-08-13T11:01:00Z</time>
      </trkpt>
      <trkpt lat="42.3324300" lon="-2.6048610">
        <ele>1394.1</ele>
        <time>2022-08-13T11:01:04Z</time>
      </trkpt>
      <trkpt lat="42.3322830" lon="-2.6050070">
        <ele>1394.0</ele>
        <time>2022-08-13T11:01:10Z</time>
      </trkpt>
      <trkpt lat="42.3322550" lon="-2.6050310">
        <ele>1394.0</ele>
        <time>2022-08-13T11:01:11Z</time>
      </trkpt>
      <trkpt lat="42.3321990" lon="-2.6050790">
        <ele>1394.0</ele>
        <time>2022-08-13T11:01:13Z</time>
      </trkpt>
      <trkpt lat="42.3321500" lon="-2.6051220">
        <ele>1394.0</ele>
        <time>2022-08-13T11:01:15Z</time>
      </trkpt>
      <trkpt lat="42.3320900" lon="-2.6051720">
        <ele>1394.0</ele>
        <time>2022-08-13T11:01:17Z</time>
      </trkpt>
      <trkpt lat="42.3319960" lon="-2.6052530">
        <ele>1394.0</ele>
        <time>2022-08-13T11:01:21Z</time>
      </trkpt>
      <trkpt lat="42.3319350" lon="-2.6053070">
        <ele>1394.1</ele>
        <time>2022-08-13T11:01:24Z</time>
      </trkpt>
      <trkpt lat="42.3318930" lon="-2.6053400">
        <ele>1394.1</ele>
        <time>2022-08-13T11:01:26Z</time>
      </trkpt>
      <trkpt lat="42.3318680" lon="-2.6053640">
        <ele>1394.2</ele>
        <time>2022-08-13T11:01:28Z</time>
      </trkpt>
      <trkpt lat="42.3318510" lon="-2.6053850">
        <ele>1394.3</ele>
        <time>2022-08-13T11:01:30Z</time>
      </trkpt>
      <trkpt lat="42.3318380" lon="-2.6054030">
        <ele>1394.3</ele>
        <time>2022-08-13T11:01:59Z</time>
      </trkpt>
      <trkpt lat="42.3317370" lon="-2.6055000">
        <ele>1394.7</ele>
        <time>2022-08-13T11:02:04Z</time>
      </trkpt>
      <trkpt lat="42.3317110" lon="-2.6055220">
        <ele>1394.8</ele>
        <time>2022-08-13T11:02:05Z</time>
      </trkpt>
      <trkpt lat="42.3316060" lon="-2.6056080">
        <ele>1395.9</ele>
        <time>2022-08-13T11:02:10Z</time>
      </trkpt>
      <trkpt lat="42.3315860" lon="-2.6056240">
        <ele>1396.2</ele>
        <time>2022-08-13T11:02:11Z</time>
      </trkpt>
      <trkpt lat="42.3315250" lon="-2.6056620">
        <ele>1396.9</ele>
        <time>2022-08-13T11:02:14Z</time>
      </trkpt>
      <trkpt lat="42.3314260" lon="-2.6056950">
        <ele>1397.9</ele>
        <time>2022-08-13T11:02:19Z</time>
      </trkpt>
      <trkpt lat="42.3313890" lon="-2.6057050">
        <ele>1398.2</ele>
        <time>2022-08-13T11:02:21Z</time>
      </trkpt>
      <trkpt lat="42.3313530" lon="-2.6057180">
        <ele>1398.5</ele>
        <time>2022-08-13T11:02:23Z</time>
      </trkpt>
      <trkpt lat="42.3313000" lon="-2.6057410">
        <ele>1399.0</ele>
        <time>2022-08-13T11:02:26Z</time>
      </trkpt>
      <trkpt lat="42.3312840" lon="-2.6057480">
        <ele>1399.2</ele>
        <time>2022-08-13T11:02:27Z</time>
      </trkpt>
      <trkpt lat="42.3312290" lon="-2.6057740">
        <ele>1399.7</ele>
        <time>2022-08-13T11:02:30Z</time>
      </trkpt>
      <trkpt lat="42.3311900" lon="-2.6057800">
        <ele>1400.0</ele>
        <time>2022-08-13T11:02:32Z</time>
      </trkpt>
      <trkpt lat="42.3311350" lon="-2.6057970">
        <ele>1400.6</ele>
        <time>2022-08-13T11:02:35Z</time>
      </trkpt>
      <trkpt lat="42.3310620" lon="-2.6058330">
        <ele>1401.3</ele>
        <time>2022-08-13T11:02:39Z</time>
      </trkpt>
      <trkpt lat="42.3310220" lon="-2.6058520">
        <ele>1401.7</ele>
        <time>2022-08-13T11:02:41Z</time>
      </trkpt>
      <trkpt lat="42.3309450" lon="-2.6058780">
        <ele>1402.4</ele>
        <time>2022-08-13T11:02:45Z</time>
      </trkpt>
      <trkpt lat="42.3308900" lon="-2.6059030">
        <ele>1403.0</ele>
        <time>2022-08-13T11:02:48Z</time>
      </trkpt>
      <trkpt lat="42.3308520" lon="-2.6059150">
        <ele>1403.4</ele>
        <time>2022-08-13T11:02:50Z</time>
      </trkpt>
      <trkpt lat="42.3307470" lon="-2.6059420">
        <ele>1404.3</ele>
        <time>2022-08-13T11:02:56Z</time>
      </trkpt>
      <trkpt lat="42.3306690" lon="-2.6059680">
        <ele>1405.0</ele>
        <time>2022-08-13T11:03:00Z</time>
      </trkpt>
      <trkpt lat="42.3306490" lon="-2.6059740">
        <ele>1405.2</ele>
        <time>2022-08-13T11:03:01Z</time>
      </trkpt>
      <trkpt lat="42.3304760" lon="-2.6060180">
        <ele>1406.4</ele>
        <time>2022-08-13T11:03:10Z</time>
      </trkpt>
      <trkpt lat="42.3304580" lon="-2.6060240">
        <ele>1406.5</ele>
        <time>2022-08-13T11:03:11Z</time>
      </trkpt>
      <trkpt lat="42.3304200" lon="-2.6060290">
        <ele>1406.8</ele>
        <time>2022-08-13T11:03:13Z</time>
      </trkpt>
      <trkpt lat="42.3303360" lon="-2.6060590">
        <ele>1407.4</ele>
        <time>2022-08-13T11:03:18Z</time>
      </trkpt>
      <trkpt lat="42.3303150" lon="-2.6060660">
        <ele>1407.5</ele>
        <time>2022-08-13T11:03:19Z</time>
      </trkpt>
      <trkpt lat="42.3302610" lon="-2.6060830">
        <ele>1408.0</ele>
        <time>2022-08-13T11:03:23Z</time>
      </trkpt>
      <trkpt lat="42.3302510" lon="-2.6060890">
        <ele>1408.1</ele>
        <time>2022-08-13T11:03:25Z</time>
      </trkpt>
      <trkpt lat="42.3302290" lon="-2.6060990">
        <ele>1408.4</ele>
        <time>2022-08-13T11:03:59Z</time>
      </trkpt>
      <trkpt lat="42.3302170" lon="-2.6061020">
        <ele>1408.5</ele>
        <time>2022-08-13T11:04:00Z</time>
      </trkpt>
      <trkpt lat="42.3302080" lon="-2.6061060">
        <ele>1408.6</ele>
        <time>2022-08-13T11:04:01Z</time>
      </trkpt>
      <trkpt lat="42.3301470" lon="-2.6061420">
        <ele>1409.4</ele>
        <time>2022-08-13T11:04:07Z</time>
      </trkpt>
      <trkpt lat="42.3300690" lon="-2.6061760">
        <ele>1410.4</ele>
        <time>2022-08-13T11:04:15Z</time>
      </trkpt>
      <trkpt lat="42.3300600" lon="-2.6061820">
        <ele>1410.5</ele>
        <time>2022-08-13T11:04:16Z</time>
      </trkpt>
      <trkpt lat="42.3299890" lon="-2.6062320">
        <ele>1411.4</ele>
        <time>2022-08-13T11:04:24Z</time>
      </trkpt>
      <trkpt lat="42.3299790" lon="-2.6062370">
        <ele>1411.5</ele>
        <time>2022-08-13T11:04:25Z</time>
      </trkpt>
      <trkpt lat="42.3299270" lon="-2.6062830">
        <ele>1412.1</ele>
        <time>2022-08-13T11:04:31Z</time>
      </trkpt>
      <trkpt lat="42.3299170" lon="-2.6062890">
        <ele>1412.2</ele>
        <time>2022-08-13T11:04:32Z</time>
      </trkpt>
      <trkpt lat="42.3298670" lon="-2.6063270">
        <ele>1412.7</ele>
        <time>2022-08-13T11:04:37Z</time>
      </trkpt>
      <trkpt lat="42.3298580" lon="-2.6063350">
        <ele>1412.8</ele>
        <time>2022-08-13T11:04:38Z</time>
      </trkpt>
      <trkpt lat="42.3298240" lon="-2.6063870">
        <ele>1413.2</ele>
        <time>2022-08-13T11:04:43Z</time>
      </trkpt>
      <trkpt lat="42.3298180" lon="-2.6063970">
        <ele>1413.3</ele>
        <time>2022-08-13T11:04:44Z</time>
      </trkpt>
      <trkpt lat="42.3297620" lon="-2.6064920">
        <ele>1414.0</ele>
        <time>2022-08-13T11:04:53Z</time>
      </trkpt>
      <trkpt lat="42.3297440" lon="-2.6065210">
        <ele>1414.3</ele>
        <time>2022-08-13T11:04:56Z</time>
      </trkpt>
      <trkpt lat="42.3297200" lon="-2.6065810">
        <ele>1414.7</ele>
        <time>2022-08-13T11:05:01Z</time>
      </trkpt>
      <trkpt lat="42.3297010" lon="-2.6066110">
        <ele>1415.0</ele>
        <time>2022-08-13T11:05:04Z</time>
      </trkpt>
      <trkpt lat="42.3296690" lon="-2.6066970">
        <ele>1415.7</ele>
        <time>2022-08-13T11:05:11Z</time>
      </trkpt>
      <trkpt lat="42.3296290" lon="-2.6068010">
        <ele>1416.7</ele>
        <time>2022-08-13T11:05:20Z</time>
      </trkpt>
      <trkpt lat="42.3296080" lon="-2.6068530">
        <ele>1417.3</ele>
        <time>2022-08-13T11:05:24Z</time>
      </trkpt>
      <trkpt lat="42.3295850" lon="-2.6069040">
        <ele>1418.0</ele>
        <time>2022-08-13T11:05:28Z</time>
      </trkpt>
      <trkpt lat="42.3295580" lon="-2.6069660">
        <ele>1418.8</ele>
        <time>2022-08-13T11:05:33Z</time>
      </trkpt>
      <trkpt lat="42.3295420" lon="-2.6070070">
        <ele>1419.4</ele>
        <time>2022-08-13T11:05:37Z</time>
      </trkpt>
      <trkpt lat="42.3295390" lon="-2.6070260">
        <ele>1419.6</ele>
        <time>2022-08-13T11:05:39Z</time>
      </trkpt>
      <trkpt lat="42.3295070" lon="-2.6070960">
        <ele>1420.6</ele>
        <time>2022-08-13T11:05:46Z</time>
      </trkpt>
      <trkpt lat="42.3294920" lon="-2.6071270">
        <ele>1421.1</ele>
        <time>2022-08-13T11:05:49Z</time>
      </trkpt>
      <trkpt lat="42.3294830" lon="-2.6071500">
        <ele>1421.5</ele>
        <time>2022-08-13T11:05:52Z</time>
      </trkpt>
      <trkpt lat="42.3294820" lon="-2.6071540">
        <ele>1421.5</ele>
        <time>2022-08-13T11:05:53Z</time>
      </trkpt>
      <trkpt lat="42.3294660" lon="-2.6071850">
        <ele>1422.0</ele>
        <time>2022-08-13T11:05:56Z</time>
      </trkpt>
      <trkpt lat="42.3294480" lon="-2.6072510">
        <ele>1422.9</ele>
        <time>2022-08-13T11:06:03Z</time>
      </trkpt>
      <trkpt lat="42.3294360" lon="-2.6072810">
        <ele>1423.3</ele>
        <time>2022-08-13T11:06:06Z</time>
      </trkpt>
      <trkpt lat="42.3294130" lon="-2.6073480">
        <ele>1424.3</ele>
        <time>2022-08-13T11:06:12Z</time>
      </trkpt>
      <trkpt lat="42.3294080" lon="-2.6073590">
        <ele>1424.4</ele>
        <time>2022-08-13T11:06:13Z</time>
      </trkpt>
      <trkpt lat="42.3293910" lon="-2.6073950">
        <ele>1425.0</ele>
        <time>2022-08-13T11:06:19Z</time>
      </trkpt>
      <trkpt lat="42.3293700" lon="-2.6074460">
        <ele>1425.7</ele>
        <time>2022-08-13T11:06:24Z</time>
      </trkpt>
      <trkpt lat="42.3293560" lon="-2.6074730">
        <ele>1426.1</ele>
        <time>2022-08-13T11:06:27Z</time>
      </trkpt>
      <trkpt lat="42.3293430" lon="-2.6074990">
        <ele>1426.5</ele>
        <time>2022-08-13T11:06:30Z</time>
      </trkpt>
      <trkpt lat="42.3293220" lon="-2.6075320">
        <ele>1427.0</ele>
        <time>2022-08-13T11:06:34Z</time>
      </trkpt>
      <trkpt lat="42.3293170" lon="-2.6075380">
        <ele>1427.1</ele>
        <time>2022-08-13T11:06:36Z</time>
      </trkpt>
      <trkpt lat="42.3293150" lon="-2.6075470">
        <ele>1427.2</ele>
        <time>2022-08-13T11:06:37Z</time>
      </trkpt>
      <trkpt lat="42.3293070" lon="-2.6075950">
        <ele>1427.7</ele>
        <time>2022-08-13T11:06:42Z</time>
      </trkpt>
      <trkpt lat="42.3292990" lon="-2.6076250">
        <ele>1428.1</ele>
        <time>2022-08-13T11:06:54Z</time>
      </trkpt>
      <trkpt lat="42.3292990" lon="-2.6076270">
        <ele>1428.1</ele>
        <time>2022-08-13T11:06:57Z</time>
      </trkpt>
      <trkpt lat="42.3292990" lon="-2.6076270">
        <ele>1428.1</ele>
        <time>2022-08-13T11:06:58Z</time>
      </trkpt>
      <trkpt lat="42.3292850" lon="-2.6076610">
        <ele>1428.5</ele>
        <time>2022-08-13T11:07:04Z</time>
      </trkpt>
      <trkpt lat="42.3292850" lon="-2.6076610">
        <ele>1428.5</ele>
        <time>2022-08-13T11:07:15Z</time>
      </trkpt>
      <trkpt lat="42.3292600" lon="-2.6077140">
        <ele>1429.1</ele>
        <time>2022-08-13T11:07:19Z</time>
      </trkpt>
      <trkpt lat="42.3292430" lon="-2.6077480">
        <ele>1429.5</ele>
        <time>2022-08-13T11:07:21Z</time>
      </trkpt>
      <trkpt lat="42.3292100" lon="-2.6078080">
        <ele>1430.2</ele>
        <time>2022-08-13T11:07:25Z</time>
      </trkpt>
      <trkpt lat="42.3291760" lon="-2.6078470">
        <ele>1430.7</ele>
        <time>2022-08-13T11:07:30Z</time>
      </trkpt>
      <trkpt lat="42.3291610" lon="-2.6078640">
        <ele>1430.9</ele>
        <time>2022-08-13T11:07:33Z</time>
      </trkpt>
      <trkpt lat="42.3291560" lon="-2.6078700">
        <ele>1431.0</ele>
        <time>2022-08-13T11:07:34Z</time>
      </trkpt>
      <trkpt lat="42.3291410" lon="-2.6078940">
        <ele>1431.3</ele>
        <time>2022-08-13T11:07:37Z</time>
      </trkpt>
      <trkpt lat="42.3291280" lon="-2.6079130">
        <ele>1431.5</ele>
        <time>2022-08-13T11:07:40Z</time>
      </trkpt>
      <trkpt lat="42.3291080" lon="-2.6079350">
        <ele>1431.7</ele>
        <time>2022-08-13T11:07:43Z</time>
      </trkpt>
      <trkpt lat="42.3290990" lon="-2.6079470">
        <ele>1431.8</ele>
        <time>2022-08-13T11:07:45Z</time>
      </trkpt>
      <trkpt lat="42.3290930" lon="-2.6079520">
        <ele>1431.9</ele>
        <time>2022-08-13T11:07:48Z</time>
      </trkpt>
      <trkpt lat="42.3290820" lon="-2.6079720">
        <ele>1432.1</ele>
        <time>2022-08-13T11:07:51Z</time>
      </trkpt>
      <trkpt lat="42.3290600" lon="-2.6080060">
        <ele>1432.4</ele>
        <time>2022-08-13T11:07:56Z</time>
      </trkpt>
      <trkpt lat="42.3290400" lon="-2.6080210">
        <ele>1432.6</ele>
        <time>2022-08-13T11:08:01Z</time>
      </trkpt>
      <trkpt lat="42.3290350" lon="-2.6080300">
        <ele>1432.7</ele>
        <time>2022-08-13T11:08:02Z</time>
      </trkpt>
      <trkpt lat="42.3290220" lon="-2.6080440">
        <ele>1432.8</ele>
        <time>2022-08-13T11:08:04Z</time>
      </trkpt>
      <trkpt lat="42.3290160" lon="-2.6080560">
        <ele>1432.9</ele>
        <time>2022-08-13T11:08:07Z</time>
      </trkpt>
      <trkpt lat="42.3289910" lon="-2.6080810">
        <ele>1433.2</ele>
        <time>2022-08-13T11:08:15Z</time>
      </trkpt>
      <trkpt lat="42.3289850" lon="-2.6080910">
        <ele>1433.3</ele>
        <time>2022-08-13T11:08:16Z</time>
      </trkpt>
      <trkpt lat="42.3289820" lon="-2.6080940">
        <ele>1433.3</ele>
        <time>2022-08-13T11:08:17Z</time>
      </trkpt>
      <trkpt lat="42.3289750" lon="-2.6081030">
        <ele>1433.4</ele>
        <time>2022-08-13T11:08:20Z</time>
      </trkpt>
      <trkpt lat="42.3289690" lon="-2.6081110">
        <ele>1433.5</ele>
        <time>2022-08-13T11:08:21Z</time>
      </trkpt>
      <trkpt lat="42.3289350" lon="-2.6081540">
        <ele>1433.8</ele>
        <time>2022-08-13T11:08:25Z</time>
      </trkpt>
      <trkpt lat="42.3289060" lon="-2.6081920">
        <ele>1434.1</ele>
        <time>2022-08-13T11:08:30Z</time>
      </trkpt>
      <trkpt lat="42.3288230" lon="-2.6082880">
        <ele>1434.8</ele>
        <time>2022-08-13T11:08:42Z</time>
      </trkpt>
      <trkpt lat="42.3287860" lon="-2.6083360">
        <ele>1435.0</ele>
        <time>2022-08-13T11:08:48Z</time>
      </trkpt>
      <trkpt lat="42.3287720" lon="-2.6083470">
        <ele>1435.1</ele>
        <time>2022-08-13T11:08:50Z</time>
      </trkpt>
      <trkpt lat="42.3287590" lon="-2.6083560">
        <ele>1435.1</ele>
        <time>2022-08-13T11:08:52Z</time>
      </trkpt>
      <trkpt lat="42.3287250" lon="-2.6083900">
        <ele>1435.3</ele>
        <time>2022-08-13T11:08:57Z</time>
      </trkpt>
      <trkpt lat="42.3287030" lon="-2.6084310">
        <ele>1435.3</ele>
        <time>2022-08-13T11:09:01Z</time>
      </trkpt>
      <trkpt lat="42.3286720" lon="-2.6084910">
        <ele>1435.3</ele>
        <time>2022-08-13T11:09:08Z</time>
      </trkpt>
      <trkpt lat="42.3286660" lon="-2.6085010">
        <ele>1435.3</ele>
        <time>2022-08-13T11:09:10Z</time>
      </trkpt>
      <trkpt lat="42.3286650" lon="-2.6084960">
        <ele>1435.3</ele>
        <time>2022-08-13T11:09:13Z</time>
      </trkpt>
      <trkpt lat="42.3286370" lon="-2.6085450">
        <ele>1435.2</ele>
        <time>2022-08-13T11:09:17Z</time>
      </trkpt>
      <trkpt lat="42.3285560" lon="-2.6086940">
        <ele>1434.6</ele>
        <time>2022-08-13T11:09:24Z</time>
      </trkpt>
      <trkpt lat="42.3284970" lon="-2.6088970">
        <ele>1433.6</ele>
        <time>2022-08-13T11:09:30Z</time>
      </trkpt>
      <trkpt lat="42.3284780" lon="-2.6089750">
        <ele>1433.2</ele>
        <time>2022-08-13T11:09:32Z</time>
      </trkpt>
      <trkpt lat="42.3284330" lon="-2.6092050">
        <ele>1432.3</ele>
        <time>2022-08-13T11:09:37Z</time>
      </trkpt>
      <trkpt lat="42.3284090" lon="-2.6093110">
        <ele>1431.9</ele>
        <time>2022-08-13T11:09:39Z</time>
      </trkpt>
      <trkpt lat="42.3283870" lon="-2.6094640">
        <ele>1431.3</ele>
        <time>2022-08-13T11:09:42Z</time>
      </trkpt>
      <trkpt lat="42.3283730" lon="-2.6095740">
        <ele>1431.0</ele>
        <time>2022-08-13T11:09:44Z</time>
      </trkpt>
      <trkpt lat="42.3283600" lon="-2.6096870">
        <ele>1430.8</ele>
        <time>2022-08-13T11:09:46Z</time>
      </trkpt>
      <trkpt lat="42.3283230" lon="-2.6099340">
        <ele>1430.9</ele>
        <time>2022-08-13T11:09:51Z</time>
      </trkpt>
      <trkpt lat="42.3282860" lon="-2.6101520">
        <ele>1431.5</ele>
        <time>2022-08-13T11:09:57Z</time>
      </trkpt>
      <trkpt lat="42.3282810" lon="-2.6101870">
        <ele>1431.6</ele>
        <time>2022-08-13T11:09:58Z</time>
      </trkpt>
      <trkpt lat="42.3282530" lon="-2.6103450">
        <ele>1432.4</ele>
        <time>2022-08-13T11:10:03Z</time>
      </trkpt>
      <trkpt lat="42.3282370" lon="-2.6104570">
        <ele>1433.0</ele>
        <time>2022-08-13T11:10:07Z</time>
      </trkpt>
      <trkpt lat="42.3282180" lon="-2.6105620">
        <ele>1433.7</ele>
        <time>2022-08-13T11:10:11Z</time>
      </trkpt>
      <trkpt lat="42.3281940" lon="-2.6107460">
        <ele>1435.1</ele>
        <time>2022-08-13T11:10:18Z</time>
      </trkpt>
      <trkpt lat="42.3281830" lon="-2.6108260">
        <ele>1435.8</ele>
        <time>2022-08-13T11:10:21Z</time>
      </trkpt>
      <trkpt lat="42.3281690" lon="-2.6109020">
        <ele>1436.5</ele>
        <time>2022-08-13T11:10:24Z</time>
      </trkpt>
      <trkpt lat="42.3281580" lon="-2.6109940">
        <ele>1437.4</ele>
        <time>2022-08-13T11:10:28Z</time>
      </trkpt>
      <trkpt lat="42.3281570" lon="-2.6110150">
        <ele>1437.6</ele>
        <time>2022-08-13T11:10:29Z</time>
      </trkpt>
      <trkpt lat="42.3281470" lon="-2.6111170">
        <ele>1438.6</ele>
        <time>2022-08-13T11:10:34Z</time>
      </trkpt>
      <trkpt lat="42.3281380" lon="-2.6111800">
        <ele>1439.2</ele>
        <time>2022-08-13T11:10:37Z</time>
      </trkpt>
      <trkpt lat="42.3281320" lon="-2.6112650">
        <ele>1440.0</ele>
        <time>2022-08-13T11:10:41Z</time>
      </trkpt>
      <trkpt lat="42.3281310" lon="-2.6113440">
        <ele>1440.7</ele>
        <time>2022-08-13T11:10:45Z</time>
      </trkpt>
      <trkpt lat="42.3281320" lon="-2.6113640">
        <ele>1440.9</ele>
        <time>2022-08-13T11:10:46Z</time>
      </trkpt>
      <trkpt lat="42.3281330" lon="-2.6113820">
        <ele>1441.1</ele>
        <time>2022-08-13T11:10:47Z</time>
      </trkpt>
      <trkpt lat="42.3281320" lon="-2.6114190">
        <ele>1441.5</ele>
        <time>2022-08-13T11:10:49Z</time>
      </trkpt>
      <trkpt lat="42.3281460" lon="-2.6115450">
        <ele>1442.7</ele>
        <time>2022-08-13T11:10:56Z</time>
      </trkpt>
      <trkpt lat="42.3281440" lon="-2.6116430">
        <ele>1443.7</ele>
        <time>2022-08-13T11:11:01Z</time>
      </trkpt>
      <trkpt lat="42.3281510" lon="-2.6116950">
        <ele>1444.2</ele>
        <time>2022-08-13T11:11:04Z</time>
      </trkpt>
      <trkpt lat="42.3281670" lon="-2.6117860">
        <ele>1445.1</ele>
        <time>2022-08-13T11:11:21Z</time>
      </trkpt>
      <trkpt lat="42.3281740" lon="-2.6118380">
        <ele>1445.7</ele>
        <time>2022-08-13T11:11:26Z</time>
      </trkpt>
      <trkpt lat="42.3281770" lon="-2.6118640">
        <ele>1445.9</ele>
        <time>2022-08-13T11:11:29Z</time>
      </trkpt>
      <trkpt lat="42.3281790" lon="-2.6118760">
        <ele>1446.0</ele>
        <time>2022-08-13T11:11:30Z</time>
      </trkpt>
      <trkpt lat="42.3281880" lon="-2.6119280">
        <ele>1446.5</ele>
        <time>2022-08-13T11:11:35Z</time>
      </trkpt>
      <trkpt lat="42.3281920" lon="-2.6119360">
        <ele>1446.6</ele>
        <time>2022-08-13T11:11:36Z</time>
      </trkpt>
      <trkpt lat="42.3281920" lon="-2.6119440">
        <ele>1446.7</ele>
        <time>2022-08-13T11:11:37Z</time>
      </trkpt>
      <trkpt lat="42.3282070" lon="-2.6120590">
        <ele>1447.6</ele>
        <time>2022-08-13T11:11:48Z</time>
      </trkpt>
      <trkpt lat="42.3282140" lon="-2.6121040">
        <ele>1448.0</ele>
        <time>2022-08-13T11:11:52Z</time>
      </trkpt>
      <trkpt lat="42.3282270" lon="-2.6121770">
        <ele>1448.6</ele>
        <time>2022-08-13T11:11:58Z</time>
      </trkpt>
      <trkpt lat="42.3282310" lon="-2.6121970">
        <ele>1448.8</ele>
        <time>2022-08-13T11:12:00Z</time>
      </trkpt>
      <trkpt lat="42.3282360" lon="-2.6122430">
        <ele>1449.1</ele>
        <time>2022-08-13T11:12:04Z</time>
      </trkpt>
      <trkpt lat="42.3282380" lon="-2.6122620">
        <ele>1449.3</ele>
        <time>2022-08-13T11:12:06Z</time>
      </trkpt>
      <trkpt lat="42.3282440" lon="-2.6123170">
        <ele>1449.7</ele>
        <time>2022-08-13T11:12:11Z</time>
      </trkpt>
      <trkpt lat="42.3282450" lon="-2.6123510">
        <ele>1449.9</ele>
        <time>2022-08-13T11:12:14Z</time>
      </trkpt>
      <trkpt lat="42.3282620" lon="-2.6124640">
        <ele>1450.9</ele>
        <time>2022-08-13T11:12:23Z</time>
      </trkpt>
      <trkpt lat="42.3282750" lon="-2.6125360">
        <ele>1451.5</ele>
        <time>2022-08-13T11:12:28Z</time>
      </trkpt>
      <trkpt lat="42.3282810" lon="-2.6125900">
        <ele>1451.9</ele>
        <time>2022-08-13T11:12:32Z</time>
      </trkpt>
      <trkpt lat="42.3282850" lon="-2.6126510">
        <ele>1452.4</ele>
        <time>2022-08-13T11:12:37Z</time>
      </trkpt>
      <trkpt lat="42.3282870" lon="-2.6127120">
        <ele>1452.9</ele>
        <time>2022-08-13T11:12:42Z</time>
      </trkpt>
      <trkpt lat="42.3282990" lon="-2.6127800">
        <ele>1453.5</ele>
        <time>2022-08-13T11:12:48Z</time>
      </trkpt>
      <trkpt lat="42.3283020" lon="-2.6127910">
        <ele>1453.6</ele>
        <time>2022-08-13T11:12:49Z</time>
      </trkpt>
      <trkpt lat="42.3283040" lon="-2.6128270">
        <ele>1454.0</ele>
        <time>2022-08-13T11:12:52Z</time>
      </trkpt>
      <trkpt lat="42.3283110" lon="-2.6128620">
        <ele>1454.3</ele>
        <time>2022-08-13T11:12:55Z</time>
      </trkpt>
      <trkpt lat="42.3283120" lon="-2.6128720">
        <ele>1454.3</ele>
        <time>2022-08-13T11:12:56Z</time>
      </trkpt>
      <trkpt lat="42.3283140" lon="-2.6129150">
        <ele>1454.7</ele>
        <time>2022-08-13T11:12:59Z</time>
      </trkpt>
      <trkpt lat="42.3283190" lon="-2.6129760">
        <ele>1455.3</ele>
        <time>2022-08-13T11:13:03Z</time>
      </trkpt>
      <trkpt lat="42.3283310" lon="-2.6130480">
        <ele>1455.9</ele>
        <time>2022-08-13T11:13:08Z</time>
      </trkpt>
      <trkpt lat="42.3283440" lon="-2.6131100">
        <ele>1456.5</ele>
        <time>2022-08-13T11:13:13Z</time>
      </trkpt>
      <trkpt lat="42.3283410" lon="-2.6131360">
        <ele>1456.8</ele>
        <time>2022-08-13T11:13:15Z</time>
      </trkpt>
      <trkpt lat="42.3283650" lon="-2.6132540">
        <ele>1457.9</ele>
        <time>2022-08-13T11:13:25Z</time>
      </trkpt>
      <trkpt lat="42.3283650" lon="-2.6132570">
        <ele>1457.9</ele>
        <time>2022-08-13T11:14:17Z</time>
      </trkpt>
      <trkpt lat="42.3283650" lon="-2.6132790">
        <ele>1458.1</ele>
        <time>2022-08-13T11:14:18Z</time>
      </trkpt>
      <trkpt lat="42.3283470" lon="-2.6133740">
        <ele>1458.8</ele>
        <time>2022-08-13T11:14:22Z</time>
      </trkpt>
      <trkpt lat="42.3283380" lon="-2.6133990">
        <ele>1459.0</ele>
        <time>2022-08-13T11:14:23Z</time>
      </trkpt>
      <trkpt lat="42.3282960" lon="-2.6135240">
        <ele>1460.0</ele>
        <time>2022-08-13T11:14:29Z</time>
      </trkpt>
      <trkpt lat="42.3282910" lon="-2.6135450">
        <ele>1460.2</ele>
        <time>2022-08-13T11:14:30Z</time>
      </trkpt>
      <trkpt lat="42.3282830" lon="-2.6136660">
        <ele>1461.1</ele>
        <time>2022-08-13T11:14:36Z</time>
      </trkpt>
      <trkpt lat="42.3282810" lon="-2.6137070">
        <ele>1461.4</ele>
        <time>2022-08-13T11:14:38Z</time>
      </trkpt>
      <trkpt lat="42.3282810" lon="-2.6137260">
        <ele>1461.6</ele>
        <time>2022-08-13T11:14:39Z</time>
      </trkpt>
      <trkpt lat="42.3282950" lon="-2.6137830">
        <ele>1462.0</ele>
        <time>2022-08-13T11:14:42Z</time>
      </trkpt>
      <trkpt lat="42.3283000" lon="-2.6138390">
        <ele>1462.5</ele>
        <time>2022-08-13T11:14:45Z</time>
      </trkpt>
      <trkpt lat="42.3283000" lon="-2.6138610">
        <ele>1462.7</ele>
        <time>2022-08-13T11:14:46Z</time>
      </trkpt>
      <trkpt lat="42.3283000" lon="-2.6139020">
        <ele>1463.0</ele>
        <time>2022-08-13T11:14:48Z</time>
      </trkpt>
      <trkpt lat="42.3282990" lon="-2.6139590">
        <ele>1463.4</ele>
        <time>2022-08-13T11:14:51Z</time>
      </trkpt>
      <trkpt lat="42.3282980" lon="-2.6139990">
        <ele>1463.8</ele>
        <time>2022-08-13T11:14:53Z</time>
      </trkpt>
      <trkpt lat="42.3282930" lon="-2.6140580">
        <ele>1464.2</ele>
        <time>2022-08-13T11:14:56Z</time>
      </trkpt>
      <trkpt lat="42.3282910" lon="-2.6141800">
        <ele>1465.1</ele>
        <time>2022-08-13T11:15:02Z</time>
      </trkpt>
      <trkpt lat="42.3282940" lon="-2.6142800">
        <ele>1465.9</ele>
        <time>2022-08-13T11:15:07Z</time>
      </trkpt>
      <trkpt lat="42.3282890" lon="-2.6144110">
        <ele>1466.7</ele>
        <time>2022-08-13T11:15:13Z</time>
      </trkpt>
      <trkpt lat="42.3282860" lon="-2.6144300">
        <ele>1466.9</ele>
        <time>2022-08-13T11:15:14Z</time>
      </trkpt>
      <trkpt lat="42.3282730" lon="-2.6145300">
        <ele>1467.5</ele>
        <time>2022-08-13T11:15:19Z</time>
      </trkpt>
      <trkpt lat="42.3282570" lon="-2.6145960">
        <ele>1468.0</ele>
        <time>2022-08-13T11:15:22Z</time>
      </trkpt>
      <trkpt lat="42.3282220" lon="-2.6147280">
        <ele>1468.7</ele>
        <time>2022-08-13T11:15:28Z</time>
      </trkpt>
      <trkpt lat="42.3281820" lon="-2.6149210">
        <ele>1469.7</ele>
        <time>2022-08-13T11:15:37Z</time>
      </trkpt>
      <trkpt lat="42.3281740" lon="-2.6149430">
        <ele>1469.9</ele>
        <time>2022-08-13T11:15:38Z</time>
      </trkpt>
      <trkpt lat="42.3281270" lon="-2.6150880">
        <ele>1470.5</ele>
        <time>2022-08-13T11:15:45Z</time>
      </trkpt>
      <trkpt lat="42.3280980" lon="-2.6151720">
        <ele>1470.8</ele>
        <time>2022-08-13T11:15:49Z</time>
      </trkpt>
      <trkpt lat="42.3280460" lon="-2.6153120">
        <ele>1471.2</ele>
        <time>2022-08-13T11:15:55Z</time>
      </trkpt>
      <trkpt lat="42.3280030" lon="-2.6154040">
        <ele>1471.5</ele>
        <time>2022-08-13T11:15:59Z</time>
      </trkpt>
      <trkpt lat="42.3279720" lon="-2.6155040">
        <ele>1471.7</ele>
        <time>2022-08-13T11:16:03Z</time>
      </trkpt>
      <trkpt lat="42.3279110" lon="-2.6156790">
        <ele>1472.0</ele>
        <time>2022-08-13T11:16:10Z</time>
      </trkpt>
      <trkpt lat="42.3279020" lon="-2.6157070">
        <ele>1472.0</ele>
        <time>2022-08-13T11:16:11Z</time>
      </trkpt>
      <trkpt lat="42.3278000" lon="-2.6159780">
        <ele>1472.4</ele>
        <time>2022-08-13T11:16:21Z</time>
      </trkpt>
      <trkpt lat="42.3277420" lon="-2.6161420">
        <ele>1472.6</ele>
        <time>2022-08-13T11:16:27Z</time>
      </trkpt>
      <trkpt lat="42.3277170" lon="-2.6162220">
        <ele>1472.7</ele>
        <time>2022-08-13T11:16:30Z</time>
      </trkpt>
      <trkpt lat="42.3276980" lon="-2.6162740">
        <ele>1472.8</ele>
        <time>2022-08-13T11:16:32Z</time>
      </trkpt>
      <trkpt lat="42.3276480" lon="-2.6163840">
        <ele>1472.9</ele>
        <time>2022-08-13T11:16:36Z</time>
      </trkpt>
      <trkpt lat="42.3276160" lon="-2.6164740">
        <ele>1473.0</ele>
        <time>2022-08-13T11:16:39Z</time>
      </trkpt>
      <trkpt lat="42.3275080" lon="-2.6167160">
        <ele>1473.1</ele>
        <time>2022-08-13T11:16:47Z</time>
      </trkpt>
      <trkpt lat="42.3274760" lon="-2.6167630">
        <ele>1473.2</ele>
        <time>2022-08-13T11:16:49Z</time>
      </trkpt>
      <trkpt lat="42.3273970" lon="-2.6169110">
        <ele>1473.4</ele>
        <time>2022-08-13T11:16:55Z</time>
      </trkpt>
      <trkpt lat="42.3273310" lon="-2.6170110">
        <ele>1473.5</ele>
        <time>2022-08-13T11:16:59Z</time>
      </trkpt>
      <trkpt lat="42.3272450" lon="-2.6170970">
        <ele>1473.7</ele>
        <time>2022-08-13T11:17:03Z</time>
      </trkpt>
      <trkpt lat="42.3271200" lon="-2.6171520">
        <ele>1473.6</ele>
        <time>2022-08-13T11:17:07Z</time>
      </trkpt>
      <trkpt lat="42.3270360" lon="-2.6171970">
        <ele>1473.6</ele>
        <time>2022-08-13T11:17:10Z</time>
      </trkpt>
      <trkpt lat="42.3269620" lon="-2.6172450">
        <ele>1473.5</ele>
        <time>2022-08-13T11:17:13Z</time>
      </trkpt>
      <trkpt lat="42.3269180" lon="-2.6172790">
        <ele>1473.5</ele>
        <time>2022-08-13T11:17:15Z</time>
      </trkpt>
      <trkpt lat="42.3268600" lon="-2.6173290">
        <ele>1473.5</ele>
        <time>2022-08-13T11:17:18Z</time>
      </trkpt>
      <trkpt lat="42.3266520" lon="-2.6174970">
        <ele>1473.3</ele>
        <time>2022-08-13T11:17:27Z</time>
      </trkpt>
      <trkpt lat="42.3264590" lon="-2.6176730">
        <ele>1473.1</ele>
        <time>2022-08-13T11:17:36Z</time>
      </trkpt>
      <trkpt lat="42.3263180" lon="-2.6178810">
        <ele>1472.5</ele>
        <time>2022-08-13T11:17:44Z</time>
      </trkpt>
      <trkpt lat="42.3262000" lon="-2.6179830">
        <ele>1472.0</ele>
        <time>2022-08-13T11:17:50Z</time>
      </trkpt>
      <trkpt lat="42.3259730" lon="-2.6181200">
        <ele>1471.0</ele>
        <time>2022-08-13T11:17:59Z</time>
      </trkpt>
      <trkpt lat="42.3259260" lon="-2.6181550">
        <ele>1470.7</ele>
        <time>2022-08-13T11:18:01Z</time>
      </trkpt>
      <trkpt lat="42.3257780" lon="-2.6182270">
        <ele>1469.9</ele>
        <time>2022-08-13T11:18:06Z</time>
      </trkpt>
      <trkpt lat="42.3257110" lon="-2.6182590">
        <ele>1469.5</ele>
        <time>2022-08-13T11:18:08Z</time>
      </trkpt>
      <trkpt lat="42.3255960" lon="-2.6183190">
        <ele>1468.7</ele>
        <time>2022-08-13T11:18:11Z</time>
      </trkpt>
      <trkpt lat="42.3254740" lon="-2.6183670">
        <ele>1467.9</ele>
        <time>2022-08-13T11:18:14Z</time>
      </trkpt>
      <trkpt lat="42.3253190" lon="-2.6184260">
        <ele>1466.8</ele>
        <time>2022-08-13T11:18:17Z</time>
      </trkpt>
      <trkpt lat="42.3252690" lon="-2.6184550">
        <ele>1466.5</ele>
        <time>2022-08-13T11:18:18Z</time>
      </trkpt>
      <trkpt lat="42.3252220" lon="-2.6184820">
        <ele>1466.1</ele>
        <time>2022-08-13T11:18:19Z</time>
      </trkpt>
      <trkpt lat="42.3250750" lon="-2.6185340">
        <ele>1465.2</ele>
        <time>2022-08-13T11:18:22Z</time>
      </trkpt>
      <trkpt lat="42.3250250" lon="-2.6185590">
        <ele>1464.9</ele>
        <time>2022-08-13T11:18:23Z</time>
      </trkpt>
      <trkpt lat="42.3249760" lon="-2.6185870">
        <ele>1464.6</ele>
        <time>2022-08-13T11:18:24Z</time>
      </trkpt>
      <trkpt lat="42.3248170" lon="-2.6186560">
        <ele>1463.8</ele>
        <time>2022-08-13T11:18:27Z</time>
      </trkpt>
      <trkpt lat="42.3246970" lon="-2.6186950">
        <ele>1463.3</ele>
        <time>2022-08-13T11:18:29Z</time>
      </trkpt>
      <trkpt lat="42.3244400" lon="-2.6187850">
        <ele>1462.6</ele>
        <time>2022-08-13T11:18:33Z</time>
      </trkpt>
      <trkpt lat="42.3242510" lon="-2.6188440">
        <ele>1462.5</ele>
        <time>2022-08-13T11:18:36Z</time>
      </trkpt>
      <trkpt lat="42.3239710" lon="-2.6189330">
        <ele>1463.1</ele>
        <time>2022-08-13T11:18:41Z</time>
      </trkpt>
      <trkpt lat="42.3237950" lon="-2.6190250">
        <ele>1463.7</ele>
        <time>2022-08-13T11:18:46Z</time>
      </trkpt>
      <trkpt lat="42.3235920" lon="-2.6191530">
        <ele>1464.9</ele>
        <time>2022-08-13T11:18:54Z</time>
      </trkpt>
      <trkpt lat="42.3234590" lon="-2.6192050">
        <ele>1465.8</ele>
        <time>2022-08-13T11:19:00Z</time>
      </trkpt>
      <trkpt lat="42.3234190" lon="-2.6192220">
        <ele>1466.1</ele>
        <time>2022-08-13T11:19:02Z</time>
      </trkpt>
      <trkpt lat="42.3233440" lon="-2.6192640">
        <ele>1466.6</ele>
        <time>2022-08-13T11:19:06Z</time>
      </trkpt>
      <trkpt lat="42.3232860" lon="-2.6192780">
        <ele>1467.1</ele>
        <time>2022-08-13T11:19:09Z</time>
      </trkpt>
      <trkpt lat="42.3232480" lon="-2.6192890">
        <ele>1467.3</ele>
        <time>2022-08-13T11:19:11Z</time>
      </trkpt>
      <trkpt lat="42.3231800" lon="-2.6193220">
        <ele>1467.9</ele>
        <time>2022-08-13T11:19:15Z</time>
      </trkpt>
      <trkpt lat="42.3231410" lon="-2.6193410">
        <ele>1468.2</ele>
        <time>2022-08-13T11:19:17Z</time>
      </trkpt>
      <trkpt lat="42.3230850" lon="-2.6193610">
        <ele>1468.6</ele>
        <time>2022-08-13T11:19:20Z</time>
      </trkpt>
      <trkpt lat="42.3229930" lon="-2.6193800">
        <ele>1469.4</ele>
        <time>2022-08-13T11:19:25Z</time>
      </trkpt>
      <trkpt lat="42.3229630" lon="-2.6193870">
        <ele>1469.6</ele>
        <time>2022-08-13T11:19:27Z</time>
      </trkpt>
      <trkpt lat="42.3228510" lon="-2.6194430">
        <ele>1470.5</ele>
        <time>2022-08-13T11:19:33Z</time>
      </trkpt>
      <trkpt lat="42.3227940" lon="-2.6194650">
        <ele>1470.9</ele>
        <time>2022-08-13T11:19:36Z</time>
      </trkpt>
      <trkpt lat="42.3227410" lon="-2.6194820">
        <ele>1471.3</ele>
        <time>2022-08-13T11:19:39Z</time>
      </trkpt>
      <trkpt lat="42.3226680" lon="-2.6195000">
        <ele>1471.7</ele>
        <time>2022-08-13T11:19:43Z</time>
      </trkpt>
      <trkpt lat="42.3225380" lon="-2.6195090">
        <ele>1472.5</ele>
        <time>2022-08-13T11:19:50Z</time>
      </trkpt>
      <trkpt lat="42.3224660" lon="-2.6195200">
        <ele>1472.8</ele>
        <time>2022-08-13T11:19:54Z</time>
      </trkpt>
      <trkpt lat="42.3223250" lon="-2.6195440">
        <ele>1473.5</ele>
        <time>2022-08-13T11:20:01Z</time>
      </trkpt>
      <trkpt lat="42.3222210" lon="-2.6195410">
        <ele>1473.9</ele>
        <time>2022-08-13T11:20:06Z</time>
      </trkpt>
      <trkpt lat="42.3221390" lon="-2.6195450">
        <ele>1474.2</ele>
        <time>2022-08-13T11:20:10Z</time>
      </trkpt>
      <trkpt lat="42.3220760" lon="-2.6195430">
        <ele>1474.5</ele>
        <time>2022-08-13T11:20:13Z</time>
      </trkpt>
      <trkpt lat="42.3219450" lon="-2.6195300">
        <ele>1475.0</ele>
        <time>2022-08-13T11:20:19Z</time>
      </trkpt>
      <trkpt lat="42.3217420" lon="-2.6194950">
        <ele>1475.6</ele>
        <time>2022-08-13T11:20:28Z</time>
      </trkpt>
      <trkpt lat="42.3215660" lon="-2.6194530">
        <ele>1476.1</ele>
        <time>2022-08-13T11:20:36Z</time>
      </trkpt>
      <trkpt lat="42.3215440" lon="-2.6194500">
        <ele>1476.2</ele>
        <time>2022-08-13T11:20:37Z</time>
      </trkpt>
      <trkpt lat="42.3212790" lon="-2.6193910">
        <ele>1476.8</ele>
        <time>2022-08-13T11:20:48Z</time>
      </trkpt>
      <trkpt lat="42.3210780" lon="-2.6193410">
        <ele>1477.2</ele>
        <time>2022-08-13T11:20:56Z</time>
      </trkpt>
      <trkpt lat="42.3209230" lon="-2.6193130">
        <ele>1477.4</ele>
        <time>2022-08-13T11:21:02Z</time>
      </trkpt>
      <trkpt lat="42.3207870" lon="-2.6193260">
        <ele>1477.6</ele>
        <time>2022-08-13T11:21:07Z</time>
      </trkpt>
      <trkpt lat="42.3206440" lon="-2.6193440">
        <ele>1477.7</ele>
        <time>2022-08-13T11:21:12Z</time>
      </trkpt>
      <trkpt lat="42.3205470" lon="-2.6193550">
        <ele>1477.8</ele>
        <time>2022-08-13T11:21:15Z</time>
      </trkpt>
      <trkpt lat="42.3204080" lon="-2.6193360">
        <ele>1477.9</ele>
        <time>2022-08-13T11:21:20Z</time>
      </trkpt>
      <trkpt lat="42.3203290" lon="-2.6193220">
        <ele>1478.0</ele>
        <time>2022-08-13T11:21:23Z</time>
      </trkpt>
      <trkpt lat="42.3201690" lon="-2.6193060">
        <ele>1478.1</ele>
        <time>2022-08-13T11:21:28Z</time>
      </trkpt>
      <trkpt lat="42.3200430" lon="-2.6192940">
        <ele>1478.3</ele>
        <time>2022-08-13T11:21:32Z</time>
      </trkpt>
      <trkpt lat="42.3199490" lon="-2.6192960">
        <ele>1478.4</ele>
        <time>2022-08-13T11:21:35Z</time>
      </trkpt>
      <trkpt lat="42.3196910" lon="-2.6192860">
        <ele>1478.5</ele>
        <time>2022-08-13T11:21:43Z</time>
      </trkpt>
      <trkpt lat="42.3194170" lon="-2.6192850">
        <ele>1478.8</ele>
        <time>2022-08-13T11:21:52Z</time>
      </trkpt>
      <trkpt lat="42.3192120" lon="-2.6192940">
        <ele>1478.9</ele>
        <time>2022-08-13T11:21:59Z</time>
      </trkpt>
      <trkpt lat="42.3191220" lon="-2.6193010">
        <ele>1479.0</ele>
        <time>2022-08-13T11:22:02Z</time>
      </trkpt>
      <trkpt lat="42.3188890" lon="-2.6193340">
        <ele>1479.1</ele>
        <time>2022-08-13T11:22:10Z</time>
      </trkpt>
      <trkpt lat="42.3186450" lon="-2.6193560">
        <ele>1479.2</ele>
        <time>2022-08-13T11:22:18Z</time>
      </trkpt>
      <trkpt lat="42.3184910" lon="-2.6193900">
        <ele>1479.2</ele>
        <time>2022-08-13T11:22:23Z</time>
      </trkpt>
      <trkpt lat="42.3182200" lon="-2.6194220">
        <ele>1478.8</ele>
        <time>2022-08-13T11:22:31Z</time>
      </trkpt>
      <trkpt lat="42.3179150" lon="-2.6194770">
        <ele>1478.0</ele>
        <time>2022-08-13T11:22:40Z</time>
      </trkpt>
      <trkpt lat="42.3176470" lon="-2.6195190">
        <ele>1476.9</ele>
        <time>2022-08-13T11:22:48Z</time>
      </trkpt>
      <trkpt lat="42.3175260" lon="-2.6195500">
        <ele>1476.4</ele>
        <time>2022-08-13T11:22:51Z</time>
      </trkpt>
      <trkpt lat="42.3174460" lon="-2.6195740">
        <ele>1476.1</ele>
        <time>2022-08-13T11:22:53Z</time>
      </trkpt>
      <trkpt lat="42.3174050" lon="-2.6195890">
        <ele>1475.9</ele>
        <time>2022-08-13T11:22:54Z</time>
      </trkpt>
      <trkpt lat="42.3173690" lon="-2.6196040">
        <ele>1475.7</ele>
        <time>2022-08-13T11:22:55Z</time>
      </trkpt>
      <trkpt lat="42.3173150" lon="-2.6196220">
        <ele>1475.5</ele>
        <time>2022-08-13T11:22:56Z</time>
      </trkpt>
      <trkpt lat="42.3172170" lon="-2.6196700">
        <ele>1475.2</ele>
        <time>2022-08-13T11:22:58Z</time>
      </trkpt>
      <trkpt lat="42.3171320" lon="-2.6197110">
        <ele>1475.0</ele>
        <time>2022-08-13T11:23:00Z</time>
      </trkpt>
      <trkpt lat="42.3169630" lon="-2.6198090">
        <ele>1474.8</ele>
        <time>2022-08-13T11:23:04Z</time>
      </trkpt>
      <trkpt lat="42.3169190" lon="-2.6198400">
        <ele>1474.7</ele>
        <time>2022-08-13T11:23:05Z</time>
      </trkpt>
      <trkpt lat="42.3168530" lon="-2.6198850">
        <ele>1474.6</ele>
        <time>2022-08-13T11:23:07Z</time>
      </trkpt>
      <trkpt lat="42.3168210" lon="-2.6199030">
        <ele>1474.5</ele>
        <time>2022-08-13T11:23:08Z</time>
      </trkpt>
      <trkpt lat="42.3167010" lon="-2.6200010">
        <ele>1474.3</ele>
        <time>2022-08-13T11:23:12Z</time>
      </trkpt>
      <trkpt lat="42.3166450" lon="-2.6200680">
        <ele>1474.2</ele>
        <time>2022-08-13T11:23:14Z</time>
      </trkpt>
      <trkpt lat="42.3165440" lon="-2.6202560">
        <ele>1474.0</ele>
        <time>2022-08-13T11:23:19Z</time>
      </trkpt>
      <trkpt lat="42.3164570" lon="-2.6204160">
        <ele>1474.1</ele>
        <time>2022-08-13T11:23:23Z</time>
      </trkpt>
      <trkpt lat="42.3163720" lon="-2.6205330">
        <ele>1474.1</ele>
        <time>2022-08-13T11:23:26Z</time>
      </trkpt>
      <trkpt lat="42.3163370" lon="-2.6205830">
        <ele>1474.2</ele>
        <time>2022-08-13T11:23:27Z</time>
      </trkpt>
      <trkpt lat="42.3163160" lon="-2.6206140">
        <ele>1474.2</ele>
        <time>2022-08-13T11:23:28Z</time>
      </trkpt>
      <trkpt lat="42.3161800" lon="-2.6208640">
        <ele>1474.4</ele>
        <time>2022-08-13T11:23:34Z</time>
      </trkpt>
      <trkpt lat="42.3161350" lon="-2.6209480">
        <ele>1474.6</ele>
        <time>2022-08-13T11:23:36Z</time>
      </trkpt>
      <trkpt lat="42.3160290" lon="-2.6211770">
        <ele>1475.2</ele>
        <time>2022-08-13T11:23:43Z</time>
      </trkpt>
      <trkpt lat="42.3160050" lon="-2.6212450">
        <ele>1475.3</ele>
        <time>2022-08-13T11:23:45Z</time>
      </trkpt>
      <trkpt lat="42.3159850" lon="-2.6213590">
        <ele>1475.5</ele>
        <time>2022-08-13T11:23:48Z</time>
      </trkpt>
      <trkpt lat="42.3159870" lon="-2.6213950">
        <ele>1475.5</ele>
        <time>2022-08-13T11:23:49Z</time>
      </trkpt>
      <trkpt lat="42.3160000" lon="-2.6215120">
        <ele>1475.6</ele>
        <time>2022-08-13T11:23:52Z</time>
      </trkpt>
      <trkpt lat="42.3160310" lon="-2.6216710">
        <ele>1475.8</ele>
        <time>2022-08-13T11:23:56Z</time>
      </trkpt>
      <trkpt lat="42.3160710" lon="-2.6218570">
        <ele>1476.0</ele>
        <time>2022-08-13T11:24:01Z</time>
      </trkpt>
      <trkpt lat="42.3161240" lon="-2.6220930">
        <ele>1476.5</ele>
        <time>2022-08-13T11:24:08Z</time>
      </trkpt>
      <trkpt lat="42.3161720" lon="-2.6223360">
        <ele>1477.1</ele>
        <time>2022-08-13T11:24:15Z</time>
      </trkpt>
      <trkpt lat="42.3162660" lon="-2.6226660">
        <ele>1478.2</ele>
        <time>2022-08-13T11:24:25Z</time>
      </trkpt>
      <trkpt lat="42.3162760" lon="-2.6226990">
        <ele>1478.3</ele>
        <time>2022-08-13T11:24:26Z</time>
      </trkpt>
      <trkpt lat="42.3163580" lon="-2.6230100">
        <ele>1479.3</ele>
        <time>2022-08-13T11:24:35Z</time>
      </trkpt>
      <trkpt lat="42.3164070" lon="-2.6231830">
        <ele>1480.0</ele>
        <time>2022-08-13T11:24:40Z</time>
      </trkpt>
      <trkpt lat="42.3164660" lon="-2.6233870">
        <ele>1480.7</ele>
        <time>2022-08-13T11:24:46Z</time>
      </trkpt>
      <trkpt lat="42.3164760" lon="-2.6234220">
        <ele>1480.8</ele>
        <time>2022-08-13T11:24:47Z</time>
      </trkpt>
      <trkpt lat="42.3165440" lon="-2.6236760">
        <ele>1481.3</ele>
        <time>2022-08-13T11:24:54Z</time>
      </trkpt>
      <trkpt lat="42.3165520" lon="-2.6237110">
        <ele>1481.4</ele>
        <time>2022-08-13T11:24:55Z</time>
      </trkpt>
      <trkpt lat="42.3165640" lon="-2.6239480">
        <ele>1481.4</ele>
        <time>2022-08-13T11:25:01Z</time>
      </trkpt>
      <trkpt lat="42.3165550" lon="-2.6240280">
        <ele>1481.3</ele>
        <time>2022-08-13T11:25:03Z</time>
      </trkpt>
      <trkpt lat="42.3165430" lon="-2.6241080">
        <ele>1481.1</ele>
        <time>2022-08-13T11:25:05Z</time>
      </trkpt>
      <trkpt lat="42.3164940" lon="-2.6243090">
        <ele>1480.2</ele>
        <time>2022-08-13T11:25:10Z</time>
      </trkpt>
      <trkpt lat="42.3164810" lon="-2.6243510">
        <ele>1479.9</ele>
        <time>2022-08-13T11:25:11Z</time>
      </trkpt>
      <trkpt lat="42.3163860" lon="-2.6245570">
        <ele>1478.5</ele>
        <time>2022-08-13T11:25:15Z</time>
      </trkpt>
      <trkpt lat="42.3162880" lon="-2.6247070">
        <ele>1477.2</ele>
        <time>2022-08-13T11:25:18Z</time>
      </trkpt>
      <trkpt lat="42.3161870" lon="-2.6248770">
        <ele>1476.0</ele>
        <time>2022-08-13T11:25:21Z</time>
      </trkpt>
      <trkpt lat="42.3160770" lon="-2.6250650">
        <ele>1474.9</ele>
        <time>2022-08-13T11:25:24Z</time>
      </trkpt>
      <trkpt lat="42.3160400" lon="-2.6251300">
        <ele>1474.6</ele>
        <time>2022-08-13T11:25:25Z</time>
      </trkpt>
      <trkpt lat="42.3160010" lon="-2.6252020">
        <ele>1474.3</ele>
        <time>2022-08-13T11:25:26Z</time>
      </trkpt>
      <trkpt lat="42.3159650" lon="-2.6252760">
        <ele>1474.1</ele>
        <time>2022-08-13T11:25:27Z</time>
      </trkpt>
      <trkpt lat="42.3158460" lon="-2.6254940">
        <ele>1473.7</ele>
        <time>2022-08-13T11:25:30Z</time>
      </trkpt>
      <trkpt lat="42.3157540" lon="-2.6256270">
        <ele>1473.7</ele>
        <time>2022-08-13T11:25:32Z</time>
      </trkpt>
      <trkpt lat="42.3156060" lon="-2.6258530">
        <ele>1474.1</ele>
        <time>2022-08-13T11:25:36Z</time>
      </trkpt>
      <trkpt lat="42.3155550" lon="-2.6259320">
        <ele>1474.3</ele>
        <time>2022-08-13T11:25:38Z</time>
      </trkpt>
      <trkpt lat="42.3154530" lon="-2.6260880">
        <ele>1474.7</ele>
        <time>2022-08-13T11:25:42Z</time>
      </trkpt>
      <trkpt lat="42.3154100" lon="-2.6261530">
        <ele>1474.9</ele>
        <time>2022-08-13T11:25:44Z</time>
      </trkpt>
      <trkpt lat="42.3153200" lon="-2.6263080">
        <ele>1475.4</ele>
        <time>2022-08-13T11:25:49Z</time>
      </trkpt>
      <trkpt lat="42.3152630" lon="-2.6264040">
        <ele>1475.7</ele>
        <time>2022-08-13T11:25:52Z</time>
      </trkpt>
      <trkpt lat="42.3151440" lon="-2.6265500">
        <ele>1476.0</ele>
        <time>2022-08-13T11:25:57Z</time>
      </trkpt>
      <trkpt lat="42.3150730" lon="-2.6266260">
        <ele>1476.0</ele>
        <time>2022-08-13T11:26:00Z</time>
      </trkpt>
      <trkpt lat="42.3149060" lon="-2.6268090">
        <ele>1475.7</ele>
        <time>2022-08-13T11:26:07Z</time>
      </trkpt>
      <trkpt lat="42.3148560" lon="-2.6268510">
        <ele>1475.5</ele>
        <time>2022-08-13T11:26:09Z</time>
      </trkpt>
      <trkpt lat="42.3147040" lon="-2.6269430">
        <ele>1474.9</ele>
        <time>2022-08-13T11:26:14Z</time>
      </trkpt>
      <trkpt lat="42.3146060" lon="-2.6269860">
        <ele>1474.5</ele>
        <time>2022-08-13T11:26:17Z</time>
      </trkpt>
      <trkpt lat="42.3144100" lon="-2.6270980">
        <ele>1473.2</ele>
        <time>2022-08-13T11:26:22Z</time>
      </trkpt>
      <trkpt lat="42.3143650" lon="-2.6271220">
        <ele>1472.9</ele>
        <time>2022-08-13T11:26:23Z</time>
      </trkpt>
      <trkpt lat="42.3142260" lon="-2.6272010">
        <ele>1472.0</ele>
        <time>2022-08-13T11:26:26Z</time>
      </trkpt>
      <trkpt lat="42.3140160" lon="-2.6273350">
        <ele>1470.4</ele>
        <time>2022-08-13T11:26:30Z</time>
      </trkpt>
      <trkpt lat="42.3139120" lon="-2.6273980">
        <ele>1469.5</ele>
        <time>2022-08-13T11:26:32Z</time>
      </trkpt>
      <trkpt lat="42.3137660" lon="-2.6274930">
        <ele>1468.2</ele>
        <time>2022-08-13T11:26:35Z</time>
      </trkpt>
      <trkpt lat="42.3135630" lon="-2.6276300">
        <ele>1466.0</ele>
        <time>2022-08-13T11:26:39Z</time>
      </trkpt>
      <trkpt lat="42.3134270" lon="-2.6277290">
        <ele>1464.3</ele>
        <time>2022-08-13T11:26:43Z</time>
      </trkpt>
      <trkpt lat="42.3133950" lon="-2.6277520">
        <ele>1463.9</ele>
        <time>2022-08-13T11:26:44Z</time>
      </trkpt>
      <trkpt lat="42.3133020" lon="-2.6278120">
        <ele>1462.7</ele>
        <time>2022-08-13T11:26:47Z</time>
      </trkpt>
      <trkpt lat="42.3132430" lon="-2.6278610">
        <ele>1461.9</ele>
        <time>2022-08-13T11:26:49Z</time>
      </trkpt>
      <trkpt lat="42.3131370" lon="-2.6279410">
        <ele>1460.4</ele>
        <time>2022-08-13T11:26:52Z</time>
      </trkpt>
      <trkpt lat="42.3130950" lon="-2.6279720">
        <ele>1459.8</ele>
        <time>2022-08-13T11:26:53Z</time>
      </trkpt>
      <trkpt lat="42.3130610" lon="-2.6280010">
        <ele>1459.3</ele>
        <time>2022-08-13T11:26:54Z</time>
      </trkpt>
      <trkpt lat="42.3129550" lon="-2.6280800">
        <ele>1457.8</ele>
        <time>2022-08-13T11:26:57Z</time>
      </trkpt>
      <trkpt lat="42.3129100" lon="-2.6281080">
        <ele>1457.3</ele>
        <time>2022-08-13T11:26:58Z</time>
      </trkpt>
      <trkpt lat="42.3127220" lon="-2.6282110">
        <ele>1455.0</ele>
        <time>2022-08-13T11:27:02Z</time>
      </trkpt>
      <trkpt lat="42.3126770" lon="-2.6282350">
        <ele>1454.5</ele>
        <time>2022-08-13T11:27:03Z</time>
      </trkpt>
      <trkpt lat="42.3126300" lon="-2.6282580">
        <ele>1454.0</ele>
        <time>2022-08-13T11:27:04Z</time>
      </trkpt>
      <trkpt lat="42.3125350" lon="-2.6283010">
        <ele>1452.9</ele>
        <time>2022-08-13T11:27:06Z</time>
      </trkpt>
      <trkpt lat="42.3124350" lon="-2.6283420">
        <ele>1452.0</ele>
        <time>2022-08-13T11:27:08Z</time>
      </trkpt>
      <trkpt lat="42.3123250" lon="-2.6283920">
        <ele>1451.0</ele>
        <time>2022-08-13T11:27:10Z</time>
      </trkpt>
      <trkpt lat="42.3122770" lon="-2.6284160">
        <ele>1450.6</ele>
        <time>2022-08-13T11:27:11Z</time>
      </trkpt>
      <trkpt lat="42.3121850" lon="-2.6284940">
        <ele>1449.9</ele>
        <time>2022-08-13T11:27:13Z</time>
      </trkpt>
      <trkpt lat="42.3121510" lon="-2.6285340">
        <ele>1449.6</ele>
        <time>2022-08-13T11:27:14Z</time>
      </trkpt>
      <trkpt lat="42.3120650" lon="-2.6286470">
        <ele>1449.1</ele>
        <time>2022-08-13T11:27:16Z</time>
      </trkpt>
      <trkpt lat="42.3119510" lon="-2.6288290">
        <ele>1448.6</ele>
        <time>2022-08-13T11:27:19Z</time>
      </trkpt>
      <trkpt lat="42.3119140" lon="-2.6288880">
        <ele>1448.5</ele>
        <time>2022-08-13T11:27:20Z</time>
      </trkpt>
      <trkpt lat="42.3118100" lon="-2.6290690">
        <ele>1448.1</ele>
        <time>2022-08-13T11:27:23Z</time>
      </trkpt>
      <trkpt lat="42.3117720" lon="-2.6291590">
        <ele>1448.0</ele>
        <time>2022-08-13T11:27:25Z</time>
      </trkpt>
      <trkpt lat="42.3117100" lon="-2.6292820">
        <ele>1447.9</ele>
        <time>2022-08-13T11:27:29Z</time>
      </trkpt>
      <trkpt lat="42.3117060" lon="-2.6292900">
        <ele>1447.9</ele>
        <time>2022-08-13T11:27:30Z</time>
      </trkpt>
      <trkpt lat="42.3116700" lon="-2.6292910">
        <ele>1447.8</ele>
        <time>2022-08-13T11:34:02Z</time>
      </trkpt>
      <trkpt lat="42.3116530" lon="-2.6292930">
        <ele>1447.8</ele>
        <time>2022-08-13T11:34:03Z</time>
      </trkpt>
      <trkpt lat="42.3116110" lon="-2.6292960">
        <ele>1447.7</ele>
        <time>2022-08-13T11:34:05Z</time>
      </trkpt>
      <trkpt lat="42.3115550" lon="-2.6292880">
        <ele>1447.6</ele>
        <time>2022-08-13T11:34:07Z</time>
      </trkpt>
      <trkpt lat="42.3114550" lon="-2.6292880">
        <ele>1447.3</ele>
        <time>2022-08-13T11:34:11Z</time>
      </trkpt>
      <trkpt lat="42.3113350" lon="-2.6293480">
        <ele>1447.0</ele>
        <time>2022-08-13T11:34:16Z</time>
      </trkpt>
      <trkpt lat="42.3111460" lon="-2.6295210">
        <ele>1446.2</ele>
        <time>2022-08-13T11:34:24Z</time>
      </trkpt>
      <trkpt lat="42.3110510" lon="-2.6296260">
        <ele>1445.6</ele>
        <time>2022-08-13T11:34:27Z</time>
      </trkpt>
      <trkpt lat="42.3109460" lon="-2.6297420">
        <ele>1444.9</ele>
        <time>2022-08-13T11:34:30Z</time>
      </trkpt>
      <trkpt lat="42.3108590" lon="-2.6298130">
        <ele>1444.3</ele>
        <time>2022-08-13T11:34:32Z</time>
      </trkpt>
      <trkpt lat="42.3107640" lon="-2.6298750">
        <ele>1443.5</ele>
        <time>2022-08-13T11:34:34Z</time>
      </trkpt>
      <trkpt lat="42.3107190" lon="-2.6299110">
        <ele>1443.1</ele>
        <time>2022-08-13T11:34:35Z</time>
      </trkpt>
      <trkpt lat="42.3105820" lon="-2.6300270">
        <ele>1441.6</ele>
        <time>2022-08-13T11:34:38Z</time>
      </trkpt>
      <trkpt lat="42.3105370" lon="-2.6300670">
        <ele>1441.1</ele>
        <time>2022-08-13T11:34:39Z</time>
      </trkpt>
      <trkpt lat="42.3104930" lon="-2.6301160">
        <ele>1440.5</ele>
        <time>2022-08-13T11:34:40Z</time>
      </trkpt>
      <trkpt lat="42.3104430" lon="-2.6301730">
        <ele>1439.8</ele>
        <time>2022-08-13T11:34:41Z</time>
      </trkpt>
      <trkpt lat="42.3102240" lon="-2.6304380">
        <ele>1436.7</ele>
        <time>2022-08-13T11:34:46Z</time>
      </trkpt>
      <trkpt lat="42.3101810" lon="-2.6304810">
        <ele>1436.1</ele>
        <time>2022-08-13T11:34:47Z</time>
      </trkpt>
      <trkpt lat="42.3101000" lon="-2.6305790">
        <ele>1434.7</ele>
        <time>2022-08-13T11:34:49Z</time>
      </trkpt>
      <trkpt lat="42.3100610" lon="-2.6306280">
        <ele>1434.0</ele>
        <time>2022-08-13T11:34:50Z</time>
      </trkpt>
      <trkpt lat="42.3099680" lon="-2.6307320">
        <ele>1432.4</ele>
        <time>2022-08-13T11:34:52Z</time>
      </trkpt>
      <trkpt lat="42.3099100" lon="-2.6307840">
        <ele>1431.5</ele>
        <time>2022-08-13T11:34:53Z</time>
      </trkpt>
      <trkpt lat="42.3097900" lon="-2.6308880">
        <ele>1429.8</ele>
        <time>2022-08-13T11:34:55Z</time>
      </trkpt>
      <trkpt lat="42.3096120" lon="-2.6310630">
        <ele>1427.5</ele>
        <time>2022-08-13T11:34:58Z</time>
      </trkpt>
      <trkpt lat="42.3095540" lon="-2.6311200">
        <ele>1426.9</ele>
        <time>2022-08-13T11:34:59Z</time>
      </trkpt>
      <trkpt lat="42.3094920" lon="-2.6311780">
        <ele>1426.2</ele>
        <time>2022-08-13T11:35:00Z</time>
      </trkpt>
      <trkpt lat="42.3093540" lon="-2.6312770">
        <ele>1425.0</ele>
        <time>2022-08-13T11:35:02Z</time>
      </trkpt>
      <trkpt lat="42.3091550" lon="-2.6313730">
        <ele>1423.3</ele>
        <time>2022-08-13T11:35:04Z</time>
      </trkpt>
      <trkpt lat="42.3090070" lon="-2.6314500">
        <ele>1422.0</ele>
        <time>2022-08-13T11:35:06Z</time>
      </trkpt>
      <trkpt lat="42.3087900" lon="-2.6315780">
        <ele>1420.0</ele>
        <time>2022-08-13T11:35:09Z</time>
      </trkpt>
      <trkpt lat="42.3085370" lon="-2.6316030">
        <ele>1417.8</ele>
        <time>2022-08-13T11:35:12Z</time>
      </trkpt>
      <trkpt lat="42.3084430" lon="-2.6316060">
        <ele>1417.0</ele>
        <time>2022-08-13T11:35:13Z</time>
      </trkpt>
      <trkpt lat="42.3083500" lon="-2.6315790">
        <ele>1416.3</ele>
        <time>2022-08-13T11:35:14Z</time>
      </trkpt>
      <trkpt lat="42.3081780" lon="-2.6315360">
        <ele>1414.9</ele>
        <time>2022-08-13T11:35:16Z</time>
      </trkpt>
      <trkpt lat="42.3080830" lon="-2.6315040">
        <ele>1414.2</ele>
        <time>2022-08-13T11:35:17Z</time>
      </trkpt>
      <trkpt lat="42.3079940" lon="-2.6314840">
        <ele>1413.4</ele>
        <time>2022-08-13T11:35:18Z</time>
      </trkpt>
      <trkpt lat="42.3078250" lon="-2.6314380">
        <ele>1412.1</ele>
        <time>2022-08-13T11:35:20Z</time>
      </trkpt>
      <trkpt lat="42.3076770" lon="-2.6314430">
        <ele>1410.9</ele>
        <time>2022-08-13T11:35:22Z</time>
      </trkpt>
      <trkpt lat="42.3075300" lon="-2.6314330">
        <ele>1409.7</ele>
        <time>2022-08-13T11:35:24Z</time>
      </trkpt>
      <trkpt lat="42.3072980" lon="-2.6313800">
        <ele>1407.7</ele>
        <time>2022-08-13T11:35:27Z</time>
      </trkpt>
      <trkpt lat="42.3068800" lon="-2.6312620">
        <ele>1403.4</ele>
        <time>2022-08-13T11:35:33Z</time>
      </trkpt>
      <trkpt lat="42.3068120" lon="-2.6312520">
        <ele>1402.7</ele>
        <time>2022-08-13T11:35:34Z</time>
      </trkpt>
      <trkpt lat="42.3066490" lon="-2.6312310">
        <ele>1401.0</ele>
        <time>2022-08-13T11:35:36Z</time>
      </trkpt>
      <trkpt lat="42.3065870" lon="-2.6312270">
        <ele>1400.5</ele>
        <time>2022-08-13T11:35:37Z</time>
      </trkpt>
      <trkpt lat="42.3064330" lon="-2.6311960">
        <ele>1399.2</ele>
        <time>2022-08-13T11:35:39Z</time>
      </trkpt>
      <trkpt lat="42.3062920" lon="-2.6311730">
        <ele>1398.3</ele>
        <time>2022-08-13T11:35:41Z</time>
      </trkpt>
      <trkpt lat="42.3061480" lon="-2.6311580">
        <ele>1397.3</ele>
        <time>2022-08-13T11:35:43Z</time>
      </trkpt>
      <trkpt lat="42.3060700" lon="-2.6311520">
        <ele>1396.7</ele>
        <time>2022-08-13T11:35:44Z</time>
      </trkpt>
      <trkpt lat="42.3059000" lon="-2.6311230">
        <ele>1395.5</ele>
        <time>2022-08-13T11:35:46Z</time>
      </trkpt>
      <trkpt lat="42.3058210" lon="-2.6311080">
        <ele>1394.9</ele>
        <time>2022-08-13T11:35:47Z</time>
      </trkpt>
      <trkpt lat="42.3057450" lon="-2.6310920">
        <ele>1394.3</ele>
        <time>2022-08-13T11:35:48Z</time>
      </trkpt>
      <trkpt lat="42.3055910" lon="-2.6310330">
        <ele>1393.2</ele>
        <time>2022-08-13T11:35:50Z</time>
      </trkpt>
      <trkpt lat="42.3055170" lon="-2.6310050">
        <ele>1392.7</ele>
        <time>2022-08-13T11:35:51Z</time>
      </trkpt>
      <trkpt lat="42.3054470" lon="-2.6309880">
        <ele>1392.2</ele>
        <time>2022-08-13T11:35:52Z</time>
      </trkpt>
      <trkpt lat="42.3053610" lon="-2.6309710">
        <ele>1391.5</ele>
        <time>2022-08-13T11:35:53Z</time>
      </trkpt>
      <trkpt lat="42.3051460" lon="-2.6309330">
        <ele>1389.9</ele>
        <time>2022-08-13T11:35:56Z</time>
      </trkpt>
      <trkpt lat="42.3050670" lon="-2.6309220">
        <ele>1389.3</ele>
        <time>2022-08-13T11:35:57Z</time>
      </trkpt>
      <trkpt lat="42.3049940" lon="-2.6309080">
        <ele>1388.7</ele>
        <time>2022-08-13T11:35:58Z</time>
      </trkpt>
      <trkpt lat="42.3048580" lon="-2.6308710">
        <ele>1387.4</ele>
        <time>2022-08-13T11:36:00Z</time>
      </trkpt>
      <trkpt lat="42.3048000" lon="-2.6308500">
        <ele>1386.7</ele>
        <time>2022-08-13T11:36:01Z</time>
      </trkpt>
      <trkpt lat="42.3047080" lon="-2.6308070">
        <ele>1385.6</ele>
        <time>2022-08-13T11:36:03Z</time>
      </trkpt>
      <trkpt lat="42.3046110" lon="-2.6307330">
        <ele>1384.4</ele>
        <time>2022-08-13T11:36:06Z</time>
      </trkpt>
      <trkpt lat="42.3045750" lon="-2.6306940">
        <ele>1384.0</ele>
        <time>2022-08-13T11:36:07Z</time>
      </trkpt>
      <trkpt lat="42.3045260" lon="-2.6306510">
        <ele>1383.4</ele>
        <time>2022-08-13T11:36:08Z</time>
      </trkpt>
      <trkpt lat="42.3044160" lon="-2.6305840">
        <ele>1382.3</ele>
        <time>2022-08-13T11:36:10Z</time>
      </trkpt>
      <trkpt lat="42.3043570" lon="-2.6305430">
        <ele>1381.6</ele>
        <time>2022-08-13T11:36:11Z</time>
      </trkpt>
      <trkpt lat="42.3043100" lon="-2.6305140">
        <ele>1381.1</ele>
        <time>2022-08-13T11:36:12Z</time>
      </trkpt>
      <trkpt lat="42.3042020" lon="-2.6304290">
        <ele>1379.9</ele>
        <time>2022-08-13T11:36:14Z</time>
      </trkpt>
      <trkpt lat="42.3040730" lon="-2.6303610">
        <ele>1378.6</ele>
        <time>2022-08-13T11:36:17Z</time>
      </trkpt>
      <trkpt lat="42.3040190" lon="-2.6303260">
        <ele>1378.0</ele>
        <time>2022-08-13T11:36:19Z</time>
      </trkpt>
      <trkpt lat="42.3040060" lon="-2.6303130">
        <ele>1377.8</ele>
        <time>2022-08-13T11:36:20Z</time>
      </trkpt>
      <trkpt lat="42.3039990" lon="-2.6303030">
        <ele>1377.7</ele>
        <time>2022-08-13T11:36:22Z</time>
      </trkpt>
      <trkpt lat="42.3039990" lon="-2.6303030">
        <ele>1377.7</ele>
        <time>2022-08-13T11:36:24Z</time>
      </trkpt>
      <trkpt lat="42.3039620" lon="-2.6302640">
        <ele>1377.2</ele>
        <time>2022-08-13T11:47:35Z</time>
      </trkpt>
      <trkpt lat="42.3039390" lon="-2.6302490">
        <ele>1376.9</ele>
        <time>2022-08-13T11:47:36Z</time>
      </trkpt>
      <trkpt lat="42.3039120" lon="-2.6302250">
        <ele>1376.6</ele>
        <time>2022-08-13T11:47:37Z</time>
      </trkpt>
      <trkpt lat="42.3038540" lon="-2.6301390">
        <ele>1375.5</ele>
        <time>2022-08-13T11:47:39Z</time>
      </trkpt>
      <trkpt lat="42.3038270" lon="-2.6300980">
        <ele>1375.0</ele>
        <time>2022-08-13T11:47:40Z</time>
      </trkpt>
      <trkpt lat="42.3037700" lon="-2.6300040">
        <ele>1373.8</ele>
        <time>2022-08-13T11:47:42Z</time>
      </trkpt>
      <trkpt lat="42.3037400" lon="-2.6299510">
        <ele>1373.2</ele>
        <time>2022-08-13T11:47:43Z</time>
      </trkpt>
      <trkpt lat="42.3037130" lon="-2.6298980">
        <ele>1372.7</ele>
        <time>2022-08-13T11:47:44Z</time>
      </trkpt>
      <trkpt lat="42.3036820" lon="-2.6298500">
        <ele>1372.1</ele>
        <time>2022-08-13T11:47:45Z</time>
      </trkpt>
      <trkpt lat="42.3036220" lon="-2.6297480">
        <ele>1371.2</ele>
        <time>2022-08-13T11:47:47Z</time>
      </trkpt>
      <trkpt lat="42.3035910" lon="-2.6297010">
        <ele>1370.8</ele>
        <time>2022-08-13T11:47:48Z</time>
      </trkpt>
      <trkpt lat="42.3035590" lon="-2.6296550">
        <ele>1370.4</ele>
        <time>2022-08-13T11:47:49Z</time>
      </trkpt>
      <trkpt lat="42.3034790" lon="-2.6295300">
        <ele>1369.4</ele>
        <time>2022-08-13T11:47:52Z</time>
      </trkpt>
      <trkpt lat="42.3034160" lon="-2.6294580">
        <ele>1368.8</ele>
        <time>2022-08-13T11:47:54Z</time>
      </trkpt>
      <trkpt lat="42.3033860" lon="-2.6294230">
        <ele>1368.6</ele>
        <time>2022-08-13T11:47:55Z</time>
      </trkpt>
      <trkpt lat="42.3033570" lon="-2.6293950">
        <ele>1368.3</ele>
        <time>2022-08-13T11:47:56Z</time>
      </trkpt>
      <trkpt lat="42.3033300" lon="-2.6293710">
        <ele>1368.2</ele>
        <time>2022-08-13T11:47:57Z</time>
      </trkpt>
      <trkpt lat="42.3032970" lon="-2.6293340">
        <ele>1367.9</ele>
        <time>2022-08-13T11:47:58Z</time>
      </trkpt>
      <trkpt lat="42.3032650" lon="-2.6292910">
        <ele>1367.7</ele>
        <time>2022-08-13T11:47:59Z</time>
      </trkpt>
      <trkpt lat="42.3031970" lon="-2.6291740">
        <ele>1367.1</ele>
        <time>2022-08-13T11:48:01Z</time>
      </trkpt>
      <trkpt lat="42.3031630" lon="-2.6291050">
        <ele>1366.9</ele>
        <time>2022-08-13T11:48:02Z</time>
      </trkpt>
      <trkpt lat="42.3031470" lon="-2.6290590">
        <ele>1366.7</ele>
        <time>2022-08-13T11:48:03Z</time>
      </trkpt>
      <trkpt lat="42.3031080" lon="-2.6289350">
        <ele>1366.3</ele>
        <time>2022-08-13T11:48:05Z</time>
      </trkpt>
      <trkpt lat="42.3030610" lon="-2.6288100">
        <ele>1366.0</ele>
        <time>2022-08-13T11:48:07Z</time>
      </trkpt>
      <trkpt lat="42.3030410" lon="-2.6287480">
        <ele>1365.8</ele>
        <time>2022-08-13T11:48:08Z</time>
      </trkpt>
      <trkpt lat="42.3030040" lon="-2.6285760">
        <ele>1365.3</ele>
        <time>2022-08-13T11:48:11Z</time>
      </trkpt>
      <trkpt lat="42.3029850" lon="-2.6285120">
        <ele>1365.2</ele>
        <time>2022-08-13T11:48:12Z</time>
      </trkpt>
      <trkpt lat="42.3029530" lon="-2.6284420">
        <ele>1365.0</ele>
        <time>2022-08-13T11:48:13Z</time>
      </trkpt>
      <trkpt lat="42.3028920" lon="-2.6283260">
        <ele>1364.6</ele>
        <time>2022-08-13T11:48:15Z</time>
      </trkpt>
      <trkpt lat="42.3028500" lon="-2.6282320">
        <ele>1364.4</ele>
        <time>2022-08-13T11:48:17Z</time>
      </trkpt>
      <trkpt lat="42.3028540" lon="-2.6281670">
        <ele>1364.2</ele>
        <time>2022-08-13T11:48:18Z</time>
      </trkpt>
      <trkpt lat="42.3028490" lon="-2.6280990">
        <ele>1364.1</ele>
        <time>2022-08-13T11:48:19Z</time>
      </trkpt>
      <trkpt lat="42.3028480" lon="-2.6279810">
        <ele>1363.8</ele>
        <time>2022-08-13T11:48:21Z</time>
      </trkpt>
      <trkpt lat="42.3028440" lon="-2.6279290">
        <ele>1363.7</ele>
        <time>2022-08-13T11:48:22Z</time>
      </trkpt>
      <trkpt lat="42.3028300" lon="-2.6278760">
        <ele>1363.6</ele>
        <time>2022-08-13T11:48:23Z</time>
      </trkpt>
      <trkpt lat="42.3028070" lon="-2.6278220">
        <ele>1363.5</ele>
        <time>2022-08-13T11:48:24Z</time>
      </trkpt>
      <trkpt lat="42.3027490" lon="-2.6276940">
        <ele>1363.1</ele>
        <time>2022-08-13T11:48:26Z</time>
      </trkpt>
      <trkpt lat="42.3026780" lon="-2.6275550">
        <ele>1362.7</ele>
        <time>2022-08-13T11:48:29Z</time>
      </trkpt>
      <trkpt lat="42.3025960" lon="-2.6274340">
        <ele>1362.2</ele>
        <time>2022-08-13T11:48:31Z</time>
      </trkpt>
      <trkpt lat="42.3025060" lon="-2.6272730">
        <ele>1361.6</ele>
        <time>2022-08-13T11:48:34Z</time>
      </trkpt>
      <trkpt lat="42.3024670" lon="-2.6272300">
        <ele>1361.3</ele>
        <time>2022-08-13T11:48:35Z</time>
      </trkpt>
      <trkpt lat="42.3024270" lon="-2.6271700">
        <ele>1361.1</ele>
        <time>2022-08-13T11:48:36Z</time>
      </trkpt>
      <trkpt lat="42.3023350" lon="-2.6270890">
        <ele>1360.5</ele>
        <time>2022-08-13T11:48:38Z</time>
      </trkpt>
      <trkpt lat="42.3022310" lon="-2.6270350">
        <ele>1359.9</ele>
        <time>2022-08-13T11:48:40Z</time>
      </trkpt>
      <trkpt lat="42.3021230" lon="-2.6269930">
        <ele>1359.2</ele>
        <time>2022-08-13T11:48:42Z</time>
      </trkpt>
      <trkpt lat="42.3020750" lon="-2.6269720">
        <ele>1358.8</ele>
        <time>2022-08-13T11:48:43Z</time>
      </trkpt>
      <trkpt lat="42.3020270" lon="-2.6269120">
        <ele>1358.5</ele>
        <time>2022-08-13T11:48:44Z</time>
      </trkpt>
      <trkpt lat="42.3019770" lon="-2.6268260">
        <ele>1358.1</ele>
        <time>2022-08-13T11:48:45Z</time>
      </trkpt>
      <trkpt lat="42.3019110" lon="-2.6266760">
        <ele>1357.4</ele>
        <time>2022-08-13T11:48:47Z</time>
      </trkpt>
      <trkpt lat="42.3018760" lon="-2.6266080">
        <ele>1357.1</ele>
        <time>2022-08-13T11:48:48Z</time>
      </trkpt>
      <trkpt lat="42.3018490" lon="-2.6265360">
        <ele>1356.9</ele>
        <time>2022-08-13T11:48:49Z</time>
      </trkpt>
      <trkpt lat="42.3018220" lon="-2.6264720">
        <ele>1356.7</ele>
        <time>2022-08-13T11:48:50Z</time>
      </trkpt>
      <trkpt lat="42.3018100" lon="-2.6264180">
        <ele>1356.5</ele>
        <time>2022-08-13T11:48:51Z</time>
      </trkpt>
      <trkpt lat="42.3017960" lon="-2.6263630">
        <ele>1356.3</ele>
        <time>2022-08-13T11:48:52Z</time>
      </trkpt>
      <trkpt lat="42.3017520" lon="-2.6262070">
        <ele>1355.8</ele>
        <time>2022-08-13T11:48:54Z</time>
      </trkpt>
      <trkpt lat="42.3017350" lon="-2.6261360">
        <ele>1355.5</ele>
        <time>2022-08-13T11:48:55Z</time>
      </trkpt>
      <trkpt lat="42.3017110" lon="-2.6259430">
        <ele>1354.6</ele>
        <time>2022-08-13T11:48:58Z</time>
      </trkpt>
      <trkpt lat="42.3017100" lon="-2.6258600">
        <ele>1354.1</ele>
        <time>2022-08-13T11:48:59Z</time>
      </trkpt>
      <trkpt lat="42.3017160" lon="-2.6257420">
        <ele>1353.3</ele>
        <time>2022-08-13T11:49:01Z</time>
      </trkpt>
      <trkpt lat="42.3017360" lon="-2.6255310">
        <ele>1352.0</ele>
        <time>2022-08-13T11:49:04Z</time>
      </trkpt>
      <trkpt lat="42.3017490" lon="-2.6254370">
        <ele>1351.4</ele>
        <time>2022-08-13T11:49:05Z</time>
      </trkpt>
      <trkpt lat="42.3017740" lon="-2.6252780">
        <ele>1350.4</ele>
        <time>2022-08-13T11:49:07Z</time>
      </trkpt>
      <trkpt lat="42.3017990" lon="-2.6251060">
        <ele>1349.3</ele>
        <time>2022-08-13T11:49:09Z</time>
      </trkpt>
      <trkpt lat="42.3018200" lon="-2.6249260">
        <ele>1348.1</ele>
        <time>2022-08-13T11:49:11Z</time>
      </trkpt>
      <trkpt lat="42.3018320" lon="-2.6247570">
        <ele>1347.0</ele>
        <time>2022-08-13T11:49:13Z</time>
      </trkpt>
      <trkpt lat="42.3018270" lon="-2.6246550">
        <ele>1346.4</ele>
        <time>2022-08-13T11:49:14Z</time>
      </trkpt>
      <trkpt lat="42.3018190" lon="-2.6245510">
        <ele>1345.8</ele>
        <time>2022-08-13T11:49:15Z</time>
      </trkpt>
      <trkpt lat="42.3017980" lon="-2.6243430">
        <ele>1344.6</ele>
        <time>2022-08-13T11:49:17Z</time>
      </trkpt>
      <trkpt lat="42.3017970" lon="-2.6242260">
        <ele>1344.0</ele>
        <time>2022-08-13T11:49:18Z</time>
      </trkpt>
      <trkpt lat="42.3017960" lon="-2.6241440">
        <ele>1343.5</ele>
        <time>2022-08-13T11:49:19Z</time>
      </trkpt>
      <trkpt lat="42.3017980" lon="-2.6240400">
        <ele>1342.9</ele>
        <time>2022-08-13T11:49:20Z</time>
      </trkpt>
      <trkpt lat="42.3017970" lon="-2.6239330">
        <ele>1342.2</ele>
        <time>2022-08-13T11:49:21Z</time>
      </trkpt>
      <trkpt lat="42.3017980" lon="-2.6238120">
        <ele>1341.4</ele>
        <time>2022-08-13T11:49:22Z</time>
      </trkpt>
      <trkpt lat="42.3017910" lon="-2.6237290">
        <ele>1340.8</ele>
        <time>2022-08-13T11:49:23Z</time>
      </trkpt>
      <trkpt lat="42.3017790" lon="-2.6236220">
        <ele>1340.1</ele>
        <time>2022-08-13T11:49:24Z</time>
      </trkpt>
      <trkpt lat="42.3017860" lon="-2.6235030">
        <ele>1339.2</ele>
        <time>2022-08-13T11:49:25Z</time>
      </trkpt>
      <trkpt lat="42.3017980" lon="-2.6233930">
        <ele>1338.4</ele>
        <time>2022-08-13T11:49:26Z</time>
      </trkpt>
      <trkpt lat="42.3018170" lon="-2.6231720">
        <ele>1336.9</ele>
        <time>2022-08-13T11:49:28Z</time>
      </trkpt>
      <trkpt lat="42.3018410" lon="-2.6230610">
        <ele>1336.1</ele>
        <time>2022-08-13T11:49:29Z</time>
      </trkpt>
      <trkpt lat="42.3018530" lon="-2.6228480">
        <ele>1334.8</ele>
        <time>2022-08-13T11:49:31Z</time>
      </trkpt>
      <trkpt lat="42.3018500" lon="-2.6226180">
        <ele>1333.3</ele>
        <time>2022-08-13T11:49:33Z</time>
      </trkpt>
      <trkpt lat="42.3018350" lon="-2.6225110">
        <ele>1332.6</ele>
        <time>2022-08-13T11:49:34Z</time>
      </trkpt>
      <trkpt lat="42.3018250" lon="-2.6224000">
        <ele>1331.8</ele>
        <time>2022-08-13T11:49:35Z</time>
      </trkpt>
      <trkpt lat="42.3018180" lon="-2.6222870">
        <ele>1331.1</ele>
        <time>2022-08-13T11:49:36Z</time>
      </trkpt>
      <trkpt lat="42.3018360" lon="-2.6220910">
        <ele>1329.9</ele>
        <time>2022-08-13T11:49:38Z</time>
      </trkpt>
      <trkpt lat="42.3018360" lon="-2.6219850">
        <ele>1329.3</ele>
        <time>2022-08-13T11:49:39Z</time>
      </trkpt>
      <trkpt lat="42.3018270" lon="-2.6218960">
        <ele>1328.8</ele>
        <time>2022-08-13T11:49:40Z</time>
      </trkpt>
      <trkpt lat="42.3018220" lon="-2.6217840">
        <ele>1328.2</ele>
        <time>2022-08-13T11:49:41Z</time>
      </trkpt>
      <trkpt lat="42.3018090" lon="-2.6217040">
        <ele>1327.7</ele>
        <time>2022-08-13T11:49:42Z</time>
      </trkpt>
      <trkpt lat="42.3017880" lon="-2.6216290">
        <ele>1327.3</ele>
        <time>2022-08-13T11:49:43Z</time>
      </trkpt>
      <trkpt lat="42.3017700" lon="-2.6215610">
        <ele>1326.8</ele>
        <time>2022-08-13T11:49:44Z</time>
      </trkpt>
      <trkpt lat="42.3017920" lon="-2.6214850">
        <ele>1326.4</ele>
        <time>2022-08-13T11:49:45Z</time>
      </trkpt>
      <trkpt lat="42.3017930" lon="-2.6214100">
        <ele>1326.0</ele>
        <time>2022-08-13T11:49:46Z</time>
      </trkpt>
      <trkpt lat="42.3017790" lon="-2.6213340">
        <ele>1325.5</ele>
        <time>2022-08-13T11:49:47Z</time>
      </trkpt>
      <trkpt lat="42.3017750" lon="-2.6211970">
        <ele>1324.8</ele>
        <time>2022-08-13T11:49:49Z</time>
      </trkpt>
      <trkpt lat="42.3017680" lon="-2.6211520">
        <ele>1324.5</ele>
        <time>2022-08-13T11:49:50Z</time>
      </trkpt>
      <trkpt lat="42.3017730" lon="-2.6210930">
        <ele>1324.2</ele>
        <time>2022-08-13T11:49:51Z</time>
      </trkpt>
      <trkpt lat="42.3017670" lon="-2.6210040">
        <ele>1323.7</ele>
        <time>2022-08-13T11:49:53Z</time>
      </trkpt>
      <trkpt lat="42.3017510" lon="-2.6209360">
        <ele>1323.3</ele>
        <time>2022-08-13T11:49:54Z</time>
      </trkpt>
      <trkpt lat="42.3017490" lon="-2.6208410">
        <ele>1322.7</ele>
        <time>2022-08-13T11:49:55Z</time>
      </trkpt>
      <trkpt lat="42.3017370" lon="-2.6207440">
        <ele>1322.1</ele>
        <time>2022-08-13T11:49:56Z</time>
      </trkpt>
      <trkpt lat="42.3017260" lon="-2.6206700">
        <ele>1321.7</ele>
        <time>2022-08-13T11:49:57Z</time>
      </trkpt>
      <trkpt lat="42.3016650" lon="-2.6204300">
        <ele>1320.2</ele>
        <time>2022-08-13T11:50:00Z</time>
      </trkpt>
      <trkpt lat="42.3016510" lon="-2.6203770">
        <ele>1319.9</ele>
        <time>2022-08-13T11:50:01Z</time>
      </trkpt>
      <trkpt lat="42.3016280" lon="-2.6202290">
        <ele>1319.1</ele>
        <time>2022-08-13T11:50:03Z</time>
      </trkpt>
      <trkpt lat="42.3016230" lon="-2.6201480">
        <ele>1318.6</ele>
        <time>2022-08-13T11:50:04Z</time>
      </trkpt>
      <trkpt lat="42.3016210" lon="-2.6200920">
        <ele>1318.3</ele>
        <time>2022-08-13T11:50:05Z</time>
      </trkpt>
      <trkpt lat="42.3016110" lon="-2.6200110">
        <ele>1317.9</ele>
        <time>2022-08-13T11:50:06Z</time>
      </trkpt>
      <trkpt lat="42.3015880" lon="-2.6199250">
        <ele>1317.4</ele>
        <time>2022-08-13T11:50:07Z</time>
      </trkpt>
      <trkpt lat="42.3015740" lon="-2.6198190">
        <ele>1316.8</ele>
        <time>2022-08-13T11:50:08Z</time>
      </trkpt>
      <trkpt lat="42.3015630" lon="-2.6197330">
        <ele>1316.3</ele>
        <time>2022-08-13T11:50:09Z</time>
      </trkpt>
      <trkpt lat="42.3015570" lon="-2.6196700">
        <ele>1315.9</ele>
        <time>2022-08-13T11:50:10Z</time>
      </trkpt>
      <trkpt lat="42.3015440" lon="-2.6195950">
        <ele>1315.5</ele>
        <time>2022-08-13T11:50:11Z</time>
      </trkpt>
      <trkpt lat="42.3015390" lon="-2.6194880">
        <ele>1314.8</ele>
        <time>2022-08-13T11:50:12Z</time>
      </trkpt>
      <trkpt lat="42.3014980" lon="-2.6193030">
        <ele>1313.6</ele>
        <time>2022-08-13T11:50:14Z</time>
      </trkpt>
      <trkpt lat="42.3014600" lon="-2.6192230">
        <ele>1313.0</ele>
        <time>2022-08-13T11:50:15Z</time>
      </trkpt>
      <trkpt lat="42.3014340" lon="-2.6191400">
        <ele>1312.4</ele>
        <time>2022-08-13T11:50:16Z</time>
      </trkpt>
      <trkpt lat="42.3014160" lon="-2.6190590">
        <ele>1311.8</ele>
        <time>2022-08-13T11:50:17Z</time>
      </trkpt>
      <trkpt lat="42.3013710" lon="-2.6188110">
        <ele>1310.1</ele>
        <time>2022-08-13T11:50:20Z</time>
      </trkpt>
      <trkpt lat="42.3013080" lon="-2.6186470">
        <ele>1309.0</ele>
        <time>2022-08-13T11:50:22Z</time>
      </trkpt>
      <trkpt lat="42.3012870" lon="-2.6185910">
        <ele>1308.6</ele>
        <time>2022-08-13T11:50:23Z</time>
      </trkpt>
      <trkpt lat="42.3012660" lon="-2.6185250">
        <ele>1308.2</ele>
        <time>2022-08-13T11:50:24Z</time>
      </trkpt>
      <trkpt lat="42.3012410" lon="-2.6184580">
        <ele>1307.8</ele>
        <time>2022-08-13T11:50:25Z</time>
      </trkpt>
      <trkpt lat="42.3012150" lon="-2.6183770">
        <ele>1307.3</ele>
        <time>2022-08-13T11:50:26Z</time>
      </trkpt>
      <trkpt lat="42.3011960" lon="-2.6183310">
        <ele>1306.9</ele>
        <time>2022-08-13T11:50:27Z</time>
      </trkpt>
      <trkpt lat="42.3011670" lon="-2.6182670">
        <ele>1306.4</ele>
        <time>2022-08-13T11:50:28Z</time>
      </trkpt>
      <trkpt lat="42.3011330" lon="-2.6182040">
        <ele>1305.9</ele>
        <time>2022-08-13T11:50:29Z</time>
      </trkpt>
      <trkpt lat="42.3011090" lon="-2.6181550">
        <ele>1305.5</ele>
        <time>2022-08-13T11:50:30Z</time>
      </trkpt>
      <trkpt lat="42.3010640" lon="-2.6180750">
        <ele>1304.8</ele>
        <time>2022-08-13T11:50:32Z</time>
      </trkpt>
      <trkpt lat="42.3010380" lon="-2.6180290">
        <ele>1304.3</ele>
        <time>2022-08-13T11:50:33Z</time>
      </trkpt>
      <trkpt lat="42.3010160" lon="-2.6179980">
        <ele>1304.0</ele>
        <time>2022-08-13T11:50:34Z</time>
      </trkpt>
      <trkpt lat="42.3009920" lon="-2.6179570">
        <ele>1303.6</ele>
        <time>2022-08-13T11:50:35Z</time>
      </trkpt>
      <trkpt lat="42.3009500" lon="-2.6178870">
        <ele>1303.0</ele>
        <time>2022-08-13T11:50:37Z</time>
      </trkpt>
      <trkpt lat="42.3009340" lon="-2.6178660">
        <ele>1302.7</ele>
        <time>2022-08-13T11:50:38Z</time>
      </trkpt>
      <trkpt lat="42.3009160" lon="-2.6178410">
        <ele>1302.5</ele>
        <time>2022-08-13T11:50:39Z</time>
      </trkpt>
      <trkpt lat="42.3008770" lon="-2.6178060">
        <ele>1302.0</ele>
        <time>2022-08-13T11:50:41Z</time>
      </trkpt>
      <trkpt lat="42.3008560" lon="-2.6177900">
        <ele>1301.8</ele>
        <time>2022-08-13T11:50:42Z</time>
      </trkpt>
      <trkpt lat="42.3008360" lon="-2.6177910">
        <ele>1301.6</ele>
        <time>2022-08-13T11:50:43Z</time>
      </trkpt>
      <trkpt lat="42.3007880" lon="-2.6177760">
        <ele>1301.1</ele>
        <time>2022-08-13T11:50:45Z</time>
      </trkpt>
      <trkpt lat="42.3007260" lon="-2.6177440">
        <ele>1300.5</ele>
        <time>2022-08-13T11:50:48Z</time>
      </trkpt>
      <trkpt lat="42.3007050" lon="-2.6177310">
        <ele>1300.3</ele>
        <time>2022-08-13T11:50:49Z</time>
      </trkpt>
      <trkpt lat="42.3006990" lon="-2.6177290">
        <ele>1300.3</ele>
        <time>2022-08-13T11:51:10Z</time>
      </trkpt>
      <trkpt lat="42.3006820" lon="-2.6177140">
        <ele>1300.1</ele>
        <time>2022-08-13T11:51:11Z</time>
      </trkpt>
      <trkpt lat="42.3006550" lon="-2.6176950">
        <ele>1299.8</ele>
        <time>2022-08-13T11:51:12Z</time>
      </trkpt>
      <trkpt lat="42.3006160" lon="-2.6176710">
        <ele>1299.4</ele>
        <time>2022-08-13T11:51:13Z</time>
      </trkpt>
      <trkpt lat="42.3005760" lon="-2.6176480">
        <ele>1299.0</ele>
        <time>2022-08-13T11:51:14Z</time>
      </trkpt>
      <trkpt lat="42.3004410" lon="-2.6176010">
        <ele>1297.7</ele>
        <time>2022-08-13T11:51:17Z</time>
      </trkpt>
      <trkpt lat="42.3003700" lon="-2.6175770">
        <ele>1297.0</ele>
        <time>2022-08-13T11:51:18Z</time>
      </trkpt>
      <trkpt lat="42.3002570" lon="-2.6175270">
        <ele>1295.8</ele>
        <time>2022-08-13T11:51:20Z</time>
      </trkpt>
      <trkpt lat="42.3001970" lon="-2.6174940">
        <ele>1295.1</ele>
        <time>2022-08-13T11:51:21Z</time>
      </trkpt>
      <trkpt lat="42.3001270" lon="-2.6174480">
        <ele>1294.4</ele>
        <time>2022-08-13T11:51:22Z</time>
      </trkpt>
      <trkpt lat="42.3000660" lon="-2.6174060">
        <ele>1293.8</ele>
        <time>2022-08-13T11:51:23Z</time>
      </trkpt>
      <trkpt lat="42.3000100" lon="-2.6173720">
        <ele>1293.3</ele>
        <time>2022-08-13T11:51:24Z</time>
      </trkpt>
      <trkpt lat="42.2998520" lon="-2.6172670">
        <ele>1291.9</ele>
        <time>2022-08-13T11:51:26Z</time>
      </trkpt>
      <trkpt lat="42.2997710" lon="-2.6172200">
        <ele>1291.2</ele>
        <time>2022-08-13T11:51:27Z</time>
      </trkpt>
      <trkpt lat="42.2996880" lon="-2.6171720">
        <ele>1290.5</ele>
        <time>2022-08-13T11:51:28Z</time>
      </trkpt>
      <trkpt lat="42.2995970" lon="-2.6171360">
        <ele>1289.7</ele>
        <time>2022-08-13T11:51:29Z</time>
      </trkpt>
      <trkpt lat="42.2994640" lon="-2.6170780">
        <ele>1288.5</ele>
        <time>2022-08-13T11:51:31Z</time>
      </trkpt>
      <trkpt lat="42.2994210" lon="-2.6170380">
        <ele>1288.0</ele>
        <time>2022-08-13T11:51:32Z</time>
      </trkpt>
      <trkpt lat="42.2993800" lon="-2.6169430">
        <ele>1287.4</ele>
        <time>2022-08-13T11:51:33Z</time>
      </trkpt>
      <trkpt lat="42.2992700" lon="-2.6168610">
        <ele>1286.2</ele>
        <time>2022-08-13T11:51:35Z</time>
      </trkpt>
      <trkpt lat="42.2991930" lon="-2.6168080">
        <ele>1285.4</ele>
        <time>2022-08-13T11:51:36Z</time>
      </trkpt>
      <trkpt lat="42.2991450" lon="-2.6167800">
        <ele>1285.0</ele>
        <time>2022-08-13T11:51:37Z</time>
      </trkpt>
      <trkpt lat="42.2990960" lon="-2.6167490">
        <ele>1284.5</ele>
        <time>2022-08-13T11:51:38Z</time>
      </trkpt>
      <trkpt lat="42.2990050" lon="-2.6166620">
        <ele>1283.9</ele>
        <time>2022-08-13T11:51:40Z</time>
      </trkpt>
      <trkpt lat="42.2988940" lon="-2.6165790">
        <ele>1283.1</ele>
        <time>2022-08-13T11:51:42Z</time>
      </trkpt>
      <trkpt lat="42.2988550" lon="-2.6165480">
        <ele>1282.8</ele>
        <time>2022-08-13T11:51:43Z</time>
      </trkpt>
      <trkpt lat="42.2987960" lon="-2.6165090">
        <ele>1282.4</ele>
        <time>2022-08-13T11:51:44Z</time>
      </trkpt>
      <trkpt lat="42.2986740" lon="-2.6164250">
        <ele>1281.4</ele>
        <time>2022-08-13T11:51:46Z</time>
      </trkpt>
      <trkpt lat="42.2986100" lon="-2.6164030">
        <ele>1280.8</ele>
        <time>2022-08-13T11:51:47Z</time>
      </trkpt>
      <trkpt lat="42.2984590" lon="-2.6163910">
        <ele>1279.4</ele>
        <time>2022-08-13T11:51:50Z</time>
      </trkpt>
      <trkpt lat="42.2984140" lon="-2.6164140">
        <ele>1278.9</ele>
        <time>2022-08-13T11:51:51Z</time>
      </trkpt>
      <trkpt lat="42.2983700" lon="-2.6164300">
        <ele>1278.5</ele>
        <time>2022-08-13T11:51:52Z</time>
      </trkpt>
      <trkpt lat="42.2983360" lon="-2.6164520">
        <ele>1278.2</ele>
        <time>2022-08-13T11:51:53Z</time>
      </trkpt>
      <trkpt lat="42.2982970" lon="-2.6164750">
        <ele>1277.8</ele>
        <time>2022-08-13T11:51:54Z</time>
      </trkpt>
      <trkpt lat="42.2982550" lon="-2.6165070">
        <ele>1277.5</ele>
        <time>2022-08-13T11:51:55Z</time>
      </trkpt>
      <trkpt lat="42.2982200" lon="-2.6165400">
        <ele>1277.2</ele>
        <time>2022-08-13T11:51:56Z</time>
      </trkpt>
      <trkpt lat="42.2981790" lon="-2.6165810">
        <ele>1276.8</ele>
        <time>2022-08-13T11:51:57Z</time>
      </trkpt>
      <trkpt lat="42.2981100" lon="-2.6166840">
        <ele>1276.1</ele>
        <time>2022-08-13T11:51:59Z</time>
      </trkpt>
      <trkpt lat="42.2980540" lon="-2.6168180">
        <ele>1275.3</ele>
        <time>2022-08-13T11:52:01Z</time>
      </trkpt>
      <trkpt lat="42.2980270" lon="-2.6168830">
        <ele>1274.9</ele>
        <time>2022-08-13T11:52:02Z</time>
      </trkpt>
      <trkpt lat="42.2979320" lon="-2.6172040">
        <ele>1272.8</ele>
        <time>2022-08-13T11:52:06Z</time>
      </trkpt>
      <trkpt lat="42.2979080" lon="-2.6172880">
        <ele>1272.2</ele>
        <time>2022-08-13T11:52:07Z</time>
      </trkpt>
      <trkpt lat="42.2978860" lon="-2.6173750">
        <ele>1271.6</ele>
        <time>2022-08-13T11:52:08Z</time>
      </trkpt>
      <trkpt lat="42.2978620" lon="-2.6174610">
        <ele>1271.0</ele>
        <time>2022-08-13T11:52:09Z</time>
      </trkpt>
      <trkpt lat="42.2978360" lon="-2.6175380">
        <ele>1270.5</ele>
        <time>2022-08-13T11:52:10Z</time>
      </trkpt>
      <trkpt lat="42.2978090" lon="-2.6176140">
        <ele>1270.0</ele>
        <time>2022-08-13T11:52:11Z</time>
      </trkpt>
      <trkpt lat="42.2977540" lon="-2.6177730">
        <ele>1269.0</ele>
        <time>2022-08-13T11:52:13Z</time>
      </trkpt>
      <trkpt lat="42.2977260" lon="-2.6178480">
        <ele>1268.5</ele>
        <time>2022-08-13T11:52:14Z</time>
      </trkpt>
      <trkpt lat="42.2977010" lon="-2.6179240">
        <ele>1268.0</ele>
        <time>2022-08-13T11:52:15Z</time>
      </trkpt>
      <trkpt lat="42.2976480" lon="-2.6180750">
        <ele>1267.0</ele>
        <time>2022-08-13T11:52:17Z</time>
      </trkpt>
      <trkpt lat="42.2975890" lon="-2.6182100">
        <ele>1266.1</ele>
        <time>2022-08-13T11:52:19Z</time>
      </trkpt>
      <trkpt lat="42.2975220" lon="-2.6183450">
        <ele>1265.1</ele>
        <time>2022-08-13T11:52:21Z</time>
      </trkpt>
      <trkpt lat="42.2974420" lon="-2.6184790">
        <ele>1264.0</ele>
        <time>2022-08-13T11:52:23Z</time>
      </trkpt>
      <trkpt lat="42.2973980" lon="-2.6185460">
        <ele>1263.5</ele>
        <time>2022-08-13T11:52:24Z</time>
      </trkpt>
      <trkpt lat="42.2973090" lon="-2.6186850">
        <ele>1262.5</ele>
        <time>2022-08-13T11:52:26Z</time>
      </trkpt>
      <trkpt lat="42.2972640" lon="-2.6187490">
        <ele>1262.1</ele>
        <time>2022-08-13T11:52:27Z</time>
      </trkpt>
      <trkpt lat="42.2972180" lon="-2.6188100">
        <ele>1261.7</ele>
        <time>2022-08-13T11:52:28Z</time>
      </trkpt>
      <trkpt lat="42.2971730" lon="-2.6188680">
        <ele>1261.3</ele>
        <time>2022-08-13T11:52:29Z</time>
      </trkpt>
      <trkpt lat="42.2971370" lon="-2.6189180">
        <ele>1260.9</ele>
        <time>2022-08-13T11:52:30Z</time>
      </trkpt>
      <trkpt lat="42.2970840" lon="-2.6189900">
        <ele>1260.4</ele>
        <time>2022-08-13T11:52:31Z</time>
      </trkpt>
      <trkpt lat="42.2970410" lon="-2.6190550">
        <ele>1260.0</ele>
        <time>2022-08-13T11:52:32Z</time>
      </trkpt>
      <trkpt lat="42.2969670" lon="-2.6191910">
        <ele>1259.0</ele>
        <time>2022-08-13T11:52:34Z</time>
      </trkpt>
      <trkpt lat="42.2969060" lon="-2.6193280">
        <ele>1258.2</ele>
        <time>2022-08-13T11:52:36Z</time>
      </trkpt>
      <trkpt lat="42.2968770" lon="-2.6193950">
        <ele>1257.8</ele>
        <time>2022-08-13T11:52:37Z</time>
      </trkpt>
      <trkpt lat="42.2967960" lon="-2.6195990">
        <ele>1256.5</ele>
        <time>2022-08-13T11:52:40Z</time>
      </trkpt>
      <trkpt lat="42.2967680" lon="-2.6196710">
        <ele>1256.0</ele>
        <time>2022-08-13T11:52:41Z</time>
      </trkpt>
      <trkpt lat="42.2967410" lon="-2.6197480">
        <ele>1255.5</ele>
        <time>2022-08-13T11:52:42Z</time>
      </trkpt>
      <trkpt lat="42.2967120" lon="-2.6198310">
        <ele>1254.9</ele>
        <time>2022-08-13T11:52:43Z</time>
      </trkpt>
      <trkpt lat="42.2966900" lon="-2.6198980">
        <ele>1254.5</ele>
        <time>2022-08-13T11:52:44Z</time>
      </trkpt>
      <trkpt lat="42.2966550" lon="-2.6199910">
        <ele>1254.0</ele>
        <time>2022-08-13T11:52:45Z</time>
      </trkpt>
      <trkpt lat="42.2966190" lon="-2.6200590">
        <ele>1253.6</ele>
        <time>2022-08-13T11:52:46Z</time>
      </trkpt>
      <trkpt lat="42.2965870" lon="-2.6201030">
        <ele>1253.4</ele>
        <time>2022-08-13T11:52:47Z</time>
      </trkpt>
      <trkpt lat="42.2965390" lon="-2.6201600">
        <ele>1253.1</ele>
        <time>2022-08-13T11:52:48Z</time>
      </trkpt>
      <trkpt lat="42.2965040" lon="-2.6201940">
        <ele>1253.0</ele>
        <time>2022-08-13T11:52:49Z</time>
      </trkpt>
      <trkpt lat="42.2964810" lon="-2.6201840">
        <ele>1252.9</ele>
        <time>2022-08-13T11:52:50Z</time>
      </trkpt>
      <trkpt lat="42.2964620" lon="-2.6201540">
        <ele>1252.8</ele>
        <time>2022-08-13T11:52:51Z</time>
      </trkpt>
      <trkpt lat="42.2964390" lon="-2.6201180">
        <ele>1252.7</ele>
        <time>2022-08-13T11:52:52Z</time>
      </trkpt>
      <trkpt lat="42.2964120" lon="-2.6200750">
        <ele>1252.7</ele>
        <time>2022-08-13T11:52:53Z</time>
      </trkpt>
      <trkpt lat="42.2963750" lon="-2.6200170">
        <ele>1252.6</ele>
        <time>2022-08-13T11:52:54Z</time>
      </trkpt>
      <trkpt lat="42.2963230" lon="-2.6199610">
        <ele>1252.6</ele>
        <time>2022-08-13T11:52:55Z</time>
      </trkpt>
      <trkpt lat="42.2962810" lon="-2.6199170">
        <ele>1252.6</ele>
        <time>2022-08-13T11:52:56Z</time>
      </trkpt>
      <trkpt lat="42.2962460" lon="-2.6198800">
        <ele>1252.6</ele>
        <time>2022-08-13T11:52:57Z</time>
      </trkpt>
      <trkpt lat="42.2961450" lon="-2.6197860">
        <ele>1252.5</ele>
        <time>2022-08-13T11:53:00Z</time>
      </trkpt>
      <trkpt lat="42.2961030" lon="-2.6197460">
        <ele>1252.5</ele>
        <time>2022-08-13T11:53:01Z</time>
      </trkpt>
      <trkpt lat="42.2959030" lon="-2.6195940">
        <ele>1252.6</ele>
        <time>2022-08-13T11:53:05Z</time>
      </trkpt>
      <trkpt lat="42.2958540" lon="-2.6195680">
        <ele>1252.7</ele>
        <time>2022-08-13T11:53:06Z</time>
      </trkpt>
      <trkpt lat="42.2957450" lon="-2.6194900">
        <ele>1252.8</ele>
        <time>2022-08-13T11:53:09Z</time>
      </trkpt>
      <trkpt lat="42.2956420" lon="-2.6193830">
        <ele>1253.0</ele>
        <time>2022-08-13T11:53:12Z</time>
      </trkpt>
      <trkpt lat="42.2955230" lon="-2.6192590">
        <ele>1253.3</ele>
        <time>2022-08-13T11:53:15Z</time>
      </trkpt>
      <trkpt lat="42.2954690" lon="-2.6191820">
        <ele>1253.4</ele>
        <time>2022-08-13T11:53:17Z</time>
      </trkpt>
      <trkpt lat="42.2954330" lon="-2.6191420">
        <ele>1253.5</ele>
        <time>2022-08-13T11:53:18Z</time>
      </trkpt>
      <trkpt lat="42.2953600" lon="-2.6190580">
        <ele>1253.7</ele>
        <time>2022-08-13T11:53:20Z</time>
      </trkpt>
      <trkpt lat="42.2953000" lon="-2.6189790">
        <ele>1253.9</ele>
        <time>2022-08-13T11:53:22Z</time>
      </trkpt>
      <trkpt lat="42.2952740" lon="-2.6189220">
        <ele>1253.9</ele>
        <time>2022-08-13T11:53:24Z</time>
      </trkpt>
      <trkpt lat="42.2952400" lon="-2.6188620">
        <ele>1254.0</ele>
        <time>2022-08-13T11:53:26Z</time>
      </trkpt>
      <trkpt lat="42.2952130" lon="-2.6188060">
        <ele>1254.1</ele>
        <time>2022-08-13T11:53:27Z</time>
      </trkpt>
      <trkpt lat="42.2951970" lon="-2.6187610">
        <ele>1254.1</ele>
        <time>2022-08-13T11:53:28Z</time>
      </trkpt>
      <trkpt lat="42.2951040" lon="-2.6186340">
        <ele>1254.2</ele>
        <time>2022-08-13T11:53:30Z</time>
      </trkpt>
      <trkpt lat="42.2950360" lon="-2.6185790">
        <ele>1254.2</ele>
        <time>2022-08-13T11:53:31Z</time>
      </trkpt>
      <trkpt lat="42.2949410" lon="-2.6184670">
        <ele>1254.3</ele>
        <time>2022-08-13T11:53:33Z</time>
      </trkpt>
      <trkpt lat="42.2949120" lon="-2.6184280">
        <ele>1254.3</ele>
        <time>2022-08-13T11:53:34Z</time>
      </trkpt>
      <trkpt lat="42.2947840" lon="-2.6182500">
        <ele>1254.5</ele>
        <time>2022-08-13T11:53:38Z</time>
      </trkpt>
      <trkpt lat="42.2947460" lon="-2.6181580">
        <ele>1254.6</ele>
        <time>2022-08-13T11:53:40Z</time>
      </trkpt>
      <trkpt lat="42.2947200" lon="-2.6181160">
        <ele>1254.7</ele>
        <time>2022-08-13T11:53:41Z</time>
      </trkpt>
      <trkpt lat="42.2946420" lon="-2.6179760">
        <ele>1254.9</ele>
        <time>2022-08-13T11:53:44Z</time>
      </trkpt>
      <trkpt lat="42.2945880" lon="-2.6178840">
        <ele>1255.1</ele>
        <time>2022-08-13T11:53:46Z</time>
      </trkpt>
      <trkpt lat="42.2945600" lon="-2.6178450">
        <ele>1255.1</ele>
        <time>2022-08-13T11:53:47Z</time>
      </trkpt>
      <trkpt lat="42.2944980" lon="-2.6177650">
        <ele>1255.3</ele>
        <time>2022-08-13T11:53:49Z</time>
      </trkpt>
      <trkpt lat="42.2944570" lon="-2.6177170">
        <ele>1255.5</ele>
        <time>2022-08-13T11:53:51Z</time>
      </trkpt>
      <trkpt lat="42.2944020" lon="-2.6176410">
        <ele>1255.7</ele>
        <time>2022-08-13T11:53:54Z</time>
      </trkpt>
      <trkpt lat="42.2943970" lon="-2.6176140">
        <ele>1255.7</ele>
        <time>2022-08-13T11:53:55Z</time>
      </trkpt>
      <trkpt lat="42.2943220" lon="-2.6174940">
        <ele>1256.0</ele>
        <time>2022-08-13T11:53:59Z</time>
      </trkpt>
      <trkpt lat="42.2942960" lon="-2.6174720">
        <ele>1256.0</ele>
        <time>2022-08-13T11:54:00Z</time>
      </trkpt>
      <trkpt lat="42.2942450" lon="-2.6174190">
        <ele>1256.2</ele>
        <time>2022-08-13T11:54:03Z</time>
      </trkpt>
      <trkpt lat="42.2942300" lon="-2.6173950">
        <ele>1256.2</ele>
        <time>2022-08-13T11:55:27Z</time>
      </trkpt>
      <trkpt lat="42.2942210" lon="-2.6173760">
        <ele>1256.2</ele>
        <time>2022-08-13T11:55:28Z</time>
      </trkpt>
      <trkpt lat="42.2941740" lon="-2.6173220">
        <ele>1256.3</ele>
        <time>2022-08-13T11:55:31Z</time>
      </trkpt>
      <trkpt lat="42.2941680" lon="-2.6173080">
        <ele>1256.3</ele>
        <time>2022-08-13T11:56:17Z</time>
      </trkpt>
      <trkpt lat="42.2941570" lon="-2.6172910">
        <ele>1256.3</ele>
        <time>2022-08-13T11:56:18Z</time>
      </trkpt>
      <trkpt lat="42.2941440" lon="-2.6172700">
        <ele>1256.3</ele>
        <time>2022-08-13T11:56:19Z</time>
      </trkpt>
      <trkpt lat="42.2940360" lon="-2.6171290">
        <ele>1256.4</ele>
        <time>2022-08-13T11:56:23Z</time>
      </trkpt>
      <trkpt lat="42.2940120" lon="-2.6170930">
        <ele>1256.4</ele>
        <time>2022-08-13T11:56:24Z</time>
      </trkpt>
      <trkpt lat="42.2939520" lon="-2.6169890">
        <ele>1256.4</ele>
        <time>2022-08-13T11:56:26Z</time>
      </trkpt>
      <trkpt lat="42.2939000" lon="-2.6169050">
        <ele>1256.4</ele>
        <time>2022-08-13T11:56:28Z</time>
      </trkpt>
      <trkpt lat="42.2938160" lon="-2.6167920">
        <ele>1256.3</ele>
        <time>2022-08-13T11:56:30Z</time>
      </trkpt>
      <trkpt lat="42.2937300" lon="-2.6166860">
        <ele>1256.3</ele>
        <time>2022-08-13T11:56:32Z</time>
      </trkpt>
      <trkpt lat="42.2937000" lon="-2.6166520">
        <ele>1256.2</ele>
        <time>2022-08-13T11:56:33Z</time>
      </trkpt>
      <trkpt lat="42.2936320" lon="-2.6165340">
        <ele>1256.2</ele>
        <time>2022-08-13T11:56:35Z</time>
      </trkpt>
      <trkpt lat="42.2935940" lon="-2.6164800">
        <ele>1256.2</ele>
        <time>2022-08-13T11:56:36Z</time>
      </trkpt>
      <trkpt lat="42.2935380" lon="-2.6163830">
        <ele>1256.2</ele>
        <time>2022-08-13T11:56:38Z</time>
      </trkpt>
      <trkpt lat="42.2935170" lon="-2.6163220">
        <ele>1256.3</ele>
        <time>2022-08-13T11:56:39Z</time>
      </trkpt>
      <trkpt lat="42.2935110" lon="-2.6162720">
        <ele>1256.3</ele>
        <time>2022-08-13T11:56:40Z</time>
      </trkpt>
      <trkpt lat="42.2934960" lon="-2.6162430">
        <ele>1256.3</ele>
        <time>2022-08-13T11:56:41Z</time>
      </trkpt>
      <trkpt lat="42.2933990" lon="-2.6161080">
        <ele>1256.4</ele>
        <time>2022-08-13T11:56:44Z</time>
      </trkpt>
      <trkpt lat="42.2933570" lon="-2.6160840">
        <ele>1256.4</ele>
        <time>2022-08-13T11:56:45Z</time>
      </trkpt>
      <trkpt lat="42.2933170" lon="-2.6160450">
        <ele>1256.5</ele>
        <time>2022-08-13T11:56:46Z</time>
      </trkpt>
      <trkpt lat="42.2932190" lon="-2.6159250">
        <ele>1256.6</ele>
        <time>2022-08-13T11:56:48Z</time>
      </trkpt>
      <trkpt lat="42.2931230" lon="-2.6158430">
        <ele>1256.7</ele>
        <time>2022-08-13T11:56:50Z</time>
      </trkpt>
      <trkpt lat="42.2929400" lon="-2.6156310">
        <ele>1256.9</ele>
        <time>2022-08-13T11:56:54Z</time>
      </trkpt>
      <trkpt lat="42.2928240" lon="-2.6155300">
        <ele>1257.0</ele>
        <time>2022-08-13T11:56:57Z</time>
      </trkpt>
      <trkpt lat="42.2927330" lon="-2.6154370">
        <ele>1257.0</ele>
        <time>2022-08-13T11:56:59Z</time>
      </trkpt>
      <trkpt lat="42.2927170" lon="-2.6153930">
        <ele>1257.0</ele>
        <time>2022-08-13T11:57:00Z</time>
      </trkpt>
      <trkpt lat="42.2926530" lon="-2.6152370">
        <ele>1256.9</ele>
        <time>2022-08-13T11:57:03Z</time>
      </trkpt>
      <trkpt lat="42.2926020" lon="-2.6150600">
        <ele>1256.6</ele>
        <time>2022-08-13T11:57:06Z</time>
      </trkpt>
      <trkpt lat="42.2925670" lon="-2.6149380">
        <ele>1256.3</ele>
        <time>2022-08-13T11:57:08Z</time>
      </trkpt>
      <trkpt lat="42.2925480" lon="-2.6148760">
        <ele>1256.1</ele>
        <time>2022-08-13T11:57:09Z</time>
      </trkpt>
      <trkpt lat="42.2924480" lon="-2.6144590">
        <ele>1254.6</ele>
        <time>2022-08-13T11:57:15Z</time>
      </trkpt>
      <trkpt lat="42.2923470" lon="-2.6140730">
        <ele>1252.3</ele>
        <time>2022-08-13T11:57:20Z</time>
      </trkpt>
      <trkpt lat="42.2923270" lon="-2.6139730">
        <ele>1251.6</ele>
        <time>2022-08-13T11:57:21Z</time>
      </trkpt>
      <trkpt lat="42.2923200" lon="-2.6139170">
        <ele>1251.3</ele>
        <time>2022-08-13T11:57:22Z</time>
      </trkpt>
      <trkpt lat="42.2923270" lon="-2.6138400">
        <ele>1250.8</ele>
        <time>2022-08-13T11:57:23Z</time>
      </trkpt>
      <trkpt lat="42.2923460" lon="-2.6136900">
        <ele>1249.8</ele>
        <time>2022-08-13T11:57:25Z</time>
      </trkpt>
      <trkpt lat="42.2923200" lon="-2.6134050">
        <ele>1248.2</ele>
        <time>2022-08-13T11:57:28Z</time>
      </trkpt>
      <trkpt lat="42.2923030" lon="-2.6132850">
        <ele>1247.5</ele>
        <time>2022-08-13T11:57:29Z</time>
      </trkpt>
      <trkpt lat="42.2922780" lon="-2.6131900">
        <ele>1246.9</ele>
        <time>2022-08-13T11:57:30Z</time>
      </trkpt>
      <trkpt lat="42.2922400" lon="-2.6130120">
        <ele>1245.7</ele>
        <time>2022-08-13T11:57:32Z</time>
      </trkpt>
      <trkpt lat="42.2922160" lon="-2.6129010">
        <ele>1244.9</ele>
        <time>2022-08-13T11:57:33Z</time>
      </trkpt>
      <trkpt lat="42.2921880" lon="-2.6127080">
        <ele>1243.5</ele>
        <time>2022-08-13T11:57:35Z</time>
      </trkpt>
      <trkpt lat="42.2921460" lon="-2.6125130">
        <ele>1242.1</ele>
        <time>2022-08-13T11:57:37Z</time>
      </trkpt>
      <trkpt lat="42.2921020" lon="-2.6122720">
        <ele>1240.3</ele>
        <time>2022-08-13T11:57:39Z</time>
      </trkpt>
      <trkpt lat="42.2920930" lon="-2.6121710">
        <ele>1239.5</ele>
        <time>2022-08-13T11:57:40Z</time>
      </trkpt>
      <trkpt lat="42.2920680" lon="-2.6119570">
        <ele>1237.9</ele>
        <time>2022-08-13T11:57:42Z</time>
      </trkpt>
      <trkpt lat="42.2920510" lon="-2.6118500">
        <ele>1237.1</ele>
        <time>2022-08-13T11:57:43Z</time>
      </trkpt>
      <trkpt lat="42.2920360" lon="-2.6117650">
        <ele>1236.4</ele>
        <time>2022-08-13T11:57:44Z</time>
      </trkpt>
      <trkpt lat="42.2920230" lon="-2.6116600">
        <ele>1235.6</ele>
        <time>2022-08-13T11:57:45Z</time>
      </trkpt>
      <trkpt lat="42.2920080" lon="-2.6115260">
        <ele>1234.7</ele>
        <time>2022-08-13T11:57:46Z</time>
      </trkpt>
      <trkpt lat="42.2919970" lon="-2.6114140">
        <ele>1233.9</ele>
        <time>2022-08-13T11:57:47Z</time>
      </trkpt>
      <trkpt lat="42.2919810" lon="-2.6113000">
        <ele>1233.0</ele>
        <time>2022-08-13T11:57:48Z</time>
      </trkpt>
      <trkpt lat="42.2919590" lon="-2.6111930">
        <ele>1232.3</ele>
        <time>2022-08-13T11:57:49Z</time>
      </trkpt>
      <trkpt lat="42.2919430" lon="-2.6110900">
        <ele>1231.6</ele>
        <time>2022-08-13T11:57:50Z</time>
      </trkpt>
      <trkpt lat="42.2919190" lon="-2.6108900">
        <ele>1230.3</ele>
        <time>2022-08-13T11:57:52Z</time>
      </trkpt>
      <trkpt lat="42.2918930" lon="-2.6108060">
        <ele>1229.8</ele>
        <time>2022-08-13T11:57:53Z</time>
      </trkpt>
      <trkpt lat="42.2918640" lon="-2.6107410">
        <ele>1229.3</ele>
        <time>2022-08-13T11:57:54Z</time>
      </trkpt>
      <trkpt lat="42.2918270" lon="-2.6106770">
        <ele>1228.8</ele>
        <time>2022-08-13T11:57:55Z</time>
      </trkpt>
      <trkpt lat="42.2917940" lon="-2.6106120">
        <ele>1228.4</ele>
        <time>2022-08-13T11:57:56Z</time>
      </trkpt>
      <trkpt lat="42.2917540" lon="-2.6104680">
        <ele>1227.4</ele>
        <time>2022-08-13T11:57:58Z</time>
      </trkpt>
      <trkpt lat="42.2917080" lon="-2.6104160">
        <ele>1226.9</ele>
        <time>2022-08-13T11:57:59Z</time>
      </trkpt>
      <trkpt lat="42.2916500" lon="-2.6103490">
        <ele>1226.3</ele>
        <time>2022-08-13T11:58:00Z</time>
      </trkpt>
      <trkpt lat="42.2915800" lon="-2.6102770">
        <ele>1225.5</ele>
        <time>2022-08-13T11:58:01Z</time>
      </trkpt>
      <trkpt lat="42.2914580" lon="-2.6101310">
        <ele>1224.2</ele>
        <time>2022-08-13T11:58:03Z</time>
      </trkpt>
      <trkpt lat="42.2913990" lon="-2.6100640">
        <ele>1223.5</ele>
        <time>2022-08-13T11:58:04Z</time>
      </trkpt>
      <trkpt lat="42.2913210" lon="-2.6099690">
        <ele>1222.7</ele>
        <time>2022-08-13T11:58:05Z</time>
      </trkpt>
      <trkpt lat="42.2912850" lon="-2.6098860">
        <ele>1222.1</ele>
        <time>2022-08-13T11:58:06Z</time>
      </trkpt>
      <trkpt lat="42.2912530" lon="-2.6098080">
        <ele>1221.4</ele>
        <time>2022-08-13T11:58:07Z</time>
      </trkpt>
      <trkpt lat="42.2911900" lon="-2.6096690">
        <ele>1220.2</ele>
        <time>2022-08-13T11:58:09Z</time>
      </trkpt>
      <trkpt lat="42.2911400" lon="-2.6095400">
        <ele>1219.0</ele>
        <time>2022-08-13T11:58:11Z</time>
      </trkpt>
      <trkpt lat="42.2910770" lon="-2.6094680">
        <ele>1218.0</ele>
        <time>2022-08-13T11:58:13Z</time>
      </trkpt>
      <trkpt lat="42.2910250" lon="-2.6094400">
        <ele>1217.4</ele>
        <time>2022-08-13T11:58:14Z</time>
      </trkpt>
      <trkpt lat="42.2909720" lon="-2.6094290">
        <ele>1216.7</ele>
        <time>2022-08-13T11:58:15Z</time>
      </trkpt>
      <trkpt lat="42.2909200" lon="-2.6094330">
        <ele>1216.2</ele>
        <time>2022-08-13T11:58:16Z</time>
      </trkpt>
      <trkpt lat="42.2908440" lon="-2.6094350">
        <ele>1215.3</ele>
        <time>2022-08-13T11:58:18Z</time>
      </trkpt>
      <trkpt lat="42.2908180" lon="-2.6094080">
        <ele>1215.0</ele>
        <time>2022-08-13T11:58:19Z</time>
      </trkpt>
      <trkpt lat="42.2907850" lon="-2.6093670">
        <ele>1214.5</ele>
        <time>2022-08-13T11:58:20Z</time>
      </trkpt>
      <trkpt lat="42.2907230" lon="-2.6092790">
        <ele>1213.6</ele>
        <time>2022-08-13T11:58:22Z</time>
      </trkpt>
      <trkpt lat="42.2906830" lon="-2.6092280">
        <ele>1213.1</ele>
        <time>2022-08-13T11:58:23Z</time>
      </trkpt>
      <trkpt lat="42.2905790" lon="-2.6091510">
        <ele>1212.1</ele>
        <time>2022-08-13T11:58:25Z</time>
      </trkpt>
      <trkpt lat="42.2905370" lon="-2.6091300">
        <ele>1211.8</ele>
        <time>2022-08-13T11:58:26Z</time>
      </trkpt>
      <trkpt lat="42.2904180" lon="-2.6090280">
        <ele>1210.7</ele>
        <time>2022-08-13T11:58:28Z</time>
      </trkpt>
      <trkpt lat="42.2903710" lon="-2.6089590">
        <ele>1210.1</ele>
        <time>2022-08-13T11:58:29Z</time>
      </trkpt>
      <trkpt lat="42.2903280" lon="-2.6088830">
        <ele>1209.5</ele>
        <time>2022-08-13T11:58:30Z</time>
      </trkpt>
      <trkpt lat="42.2902480" lon="-2.6087070">
        <ele>1208.1</ele>
        <time>2022-08-13T11:58:32Z</time>
      </trkpt>
      <trkpt lat="42.2902120" lon="-2.6086180">
        <ele>1207.4</ele>
        <time>2022-08-13T11:58:33Z</time>
      </trkpt>
      <trkpt lat="42.2900990" lon="-2.6083740">
        <ele>1205.3</ele>
        <time>2022-08-13T11:58:36Z</time>
      </trkpt>
      <trkpt lat="42.2900300" lon="-2.6081150">
        <ele>1203.3</ele>
        <time>2022-08-13T11:58:38Z</time>
      </trkpt>
      <trkpt lat="42.2900060" lon="-2.6080060">
        <ele>1202.5</ele>
        <time>2022-08-13T11:58:39Z</time>
      </trkpt>
      <trkpt lat="42.2899670" lon="-2.6078860">
        <ele>1201.7</ele>
        <time>2022-08-13T11:58:40Z</time>
      </trkpt>
      <trkpt lat="42.2899140" lon="-2.6077630">
        <ele>1200.8</ele>
        <time>2022-08-13T11:58:41Z</time>
      </trkpt>
      <trkpt lat="42.2898480" lon="-2.6076130">
        <ele>1199.9</ele>
        <time>2022-08-13T11:58:42Z</time>
      </trkpt>
      <trkpt lat="42.2897840" lon="-2.6074850">
        <ele>1199.1</ele>
        <time>2022-08-13T11:58:43Z</time>
      </trkpt>
      <trkpt lat="42.2897310" lon="-2.6074010">
        <ele>1198.5</ele>
        <time>2022-08-13T11:58:44Z</time>
      </trkpt>
      <trkpt lat="42.2896560" lon="-2.6073100">
        <ele>1197.8</ele>
        <time>2022-08-13T11:58:45Z</time>
      </trkpt>
      <trkpt lat="42.2895700" lon="-2.6072090">
        <ele>1196.9</ele>
        <time>2022-08-13T11:58:46Z</time>
      </trkpt>
      <trkpt lat="42.2895080" lon="-2.6071250">
        <ele>1196.3</ele>
        <time>2022-08-13T11:58:47Z</time>
      </trkpt>
      <trkpt lat="42.2894600" lon="-2.6070470">
        <ele>1195.7</ele>
        <time>2022-08-13T11:58:48Z</time>
      </trkpt>
      <trkpt lat="42.2894030" lon="-2.6069860">
        <ele>1195.1</ele>
        <time>2022-08-13T11:58:49Z</time>
      </trkpt>
      <trkpt lat="42.2893350" lon="-2.6069350">
        <ele>1194.4</ele>
        <time>2022-08-13T11:58:50Z</time>
      </trkpt>
      <trkpt lat="42.2892680" lon="-2.6069050">
        <ele>1193.8</ele>
        <time>2022-08-13T11:58:51Z</time>
      </trkpt>
      <trkpt lat="42.2892020" lon="-2.6068930">
        <ele>1193.2</ele>
        <time>2022-08-13T11:58:52Z</time>
      </trkpt>
      <trkpt lat="42.2891360" lon="-2.6068960">
        <ele>1192.7</ele>
        <time>2022-08-13T11:58:53Z</time>
      </trkpt>
      <trkpt lat="42.2890200" lon="-2.6069450">
        <ele>1191.7</ele>
        <time>2022-08-13T11:58:55Z</time>
      </trkpt>
      <trkpt lat="42.2888960" lon="-2.6070610">
        <ele>1190.5</ele>
        <time>2022-08-13T11:58:57Z</time>
      </trkpt>
      <trkpt lat="42.2888490" lon="-2.6071140">
        <ele>1190.1</ele>
        <time>2022-08-13T11:58:58Z</time>
      </trkpt>
      <trkpt lat="42.2887780" lon="-2.6071980">
        <ele>1189.4</ele>
        <time>2022-08-13T11:58:59Z</time>
      </trkpt>
      <trkpt lat="42.2887170" lon="-2.6072800">
        <ele>1188.7</ele>
        <time>2022-08-13T11:59:00Z</time>
      </trkpt>
      <trkpt lat="42.2885290" lon="-2.6075720">
        <ele>1186.3</ele>
        <time>2022-08-13T11:59:03Z</time>
      </trkpt>
      <trkpt lat="42.2884690" lon="-2.6076680">
        <ele>1185.6</ele>
        <time>2022-08-13T11:59:04Z</time>
      </trkpt>
      <trkpt lat="42.2884130" lon="-2.6077630">
        <ele>1184.8</ele>
        <time>2022-08-13T11:59:05Z</time>
      </trkpt>
      <trkpt lat="42.2882330" lon="-2.6080130">
        <ele>1182.8</ele>
        <time>2022-08-13T11:59:08Z</time>
      </trkpt>
      <trkpt lat="42.2881670" lon="-2.6080840">
        <ele>1182.1</ele>
        <time>2022-08-13T11:59:09Z</time>
      </trkpt>
      <trkpt lat="42.2880920" lon="-2.6081490">
        <ele>1181.3</ele>
        <time>2022-08-13T11:59:10Z</time>
      </trkpt>
      <trkpt lat="42.2879210" lon="-2.6082690">
        <ele>1179.7</ele>
        <time>2022-08-13T11:59:12Z</time>
      </trkpt>
      <trkpt lat="42.2878250" lon="-2.6083250">
        <ele>1179.0</ele>
        <time>2022-08-13T11:59:13Z</time>
      </trkpt>
      <trkpt lat="42.2877300" lon="-2.6083780">
        <ele>1178.2</ele>
        <time>2022-08-13T11:59:14Z</time>
      </trkpt>
      <trkpt lat="42.2875550" lon="-2.6084700">
        <ele>1176.9</ele>
        <time>2022-08-13T11:59:16Z</time>
      </trkpt>
      <trkpt lat="42.2873820" lon="-2.6085310">
        <ele>1175.4</ele>
        <time>2022-08-13T11:59:18Z</time>
      </trkpt>
      <trkpt lat="42.2872940" lon="-2.6085510">
        <ele>1174.7</ele>
        <time>2022-08-13T11:59:19Z</time>
      </trkpt>
      <trkpt lat="42.2870320" lon="-2.6086010">
        <ele>1172.2</ele>
        <time>2022-08-13T11:59:22Z</time>
      </trkpt>
      <trkpt lat="42.2868620" lon="-2.6086450">
        <ele>1170.6</ele>
        <time>2022-08-13T11:59:24Z</time>
      </trkpt>
      <trkpt lat="42.2867940" lon="-2.6086670">
        <ele>1170.0</ele>
        <time>2022-08-13T11:59:25Z</time>
      </trkpt>
      <trkpt lat="42.2866920" lon="-2.6087100">
        <ele>1169.0</ele>
        <time>2022-08-13T11:59:26Z</time>
      </trkpt>
      <trkpt lat="42.2865160" lon="-2.6087860">
        <ele>1167.5</ele>
        <time>2022-08-13T11:59:28Z</time>
      </trkpt>
      <trkpt lat="42.2863360" lon="-2.6088670">
        <ele>1166.0</ele>
        <time>2022-08-13T11:59:30Z</time>
      </trkpt>
      <trkpt lat="42.2861560" lon="-2.6089450">
        <ele>1164.7</ele>
        <time>2022-08-13T11:59:32Z</time>
      </trkpt>
      <trkpt lat="42.2860640" lon="-2.6089850">
        <ele>1164.1</ele>
        <time>2022-08-13T11:59:33Z</time>
      </trkpt>
      <trkpt lat="42.2859700" lon="-2.6090230">
        <ele>1163.4</ele>
        <time>2022-08-13T11:59:34Z</time>
      </trkpt>
      <trkpt lat="42.2857760" lon="-2.6091020">
        <ele>1162.0</ele>
        <time>2022-08-13T11:59:36Z</time>
      </trkpt>
      <trkpt lat="42.2855870" lon="-2.6091930">
        <ele>1160.6</ele>
        <time>2022-08-13T11:59:38Z</time>
      </trkpt>
      <trkpt lat="42.2853970" lon="-2.6093000">
        <ele>1159.2</ele>
        <time>2022-08-13T11:59:40Z</time>
      </trkpt>
      <trkpt lat="42.2851240" lon="-2.6094350">
        <ele>1157.0</ele>
        <time>2022-08-13T11:59:43Z</time>
      </trkpt>
      <trkpt lat="42.2848930" lon="-2.6094990">
        <ele>1155.3</ele>
        <time>2022-08-13T11:59:45Z</time>
      </trkpt>
      <trkpt lat="42.2847840" lon="-2.6095180">
        <ele>1154.6</ele>
        <time>2022-08-13T11:59:46Z</time>
      </trkpt>
      <trkpt lat="42.2846760" lon="-2.6095310">
        <ele>1153.9</ele>
        <time>2022-08-13T11:59:47Z</time>
      </trkpt>
      <trkpt lat="42.2845700" lon="-2.6095370">
        <ele>1153.2</ele>
        <time>2022-08-13T11:59:48Z</time>
      </trkpt>
      <trkpt lat="42.2843660" lon="-2.6095370">
        <ele>1151.8</ele>
        <time>2022-08-13T11:59:50Z</time>
      </trkpt>
      <trkpt lat="42.2842670" lon="-2.6095250">
        <ele>1151.1</ele>
        <time>2022-08-13T11:59:51Z</time>
      </trkpt>
      <trkpt lat="42.2841710" lon="-2.6095090">
        <ele>1150.4</ele>
        <time>2022-08-13T11:59:52Z</time>
      </trkpt>
      <trkpt lat="42.2840980" lon="-2.6094940">
        <ele>1149.8</ele>
        <time>2022-08-13T11:59:53Z</time>
      </trkpt>
      <trkpt lat="42.2839060" lon="-2.6094450">
        <ele>1148.3</ele>
        <time>2022-08-13T11:59:55Z</time>
      </trkpt>
      <trkpt lat="42.2837370" lon="-2.6093970">
        <ele>1146.9</ele>
        <time>2022-08-13T11:59:57Z</time>
      </trkpt>
      <trkpt lat="42.2835690" lon="-2.6093460">
        <ele>1145.4</ele>
        <time>2022-08-13T11:59:59Z</time>
      </trkpt>
      <trkpt lat="42.2834840" lon="-2.6093170">
        <ele>1144.7</ele>
        <time>2022-08-13T12:00:00Z</time>
      </trkpt>
      <trkpt lat="42.2833320" lon="-2.6092570">
        <ele>1143.5</ele>
        <time>2022-08-13T12:00:02Z</time>
      </trkpt>
      <trkpt lat="42.2832650" lon="-2.6092330">
        <ele>1143.0</ele>
        <time>2022-08-13T12:00:03Z</time>
      </trkpt>
      <trkpt lat="42.2831990" lon="-2.6092190">
        <ele>1142.5</ele>
        <time>2022-08-13T12:00:04Z</time>
      </trkpt>
      <trkpt lat="42.2831500" lon="-2.6092250">
        <ele>1142.2</ele>
        <time>2022-08-13T12:00:05Z</time>
      </trkpt>
      <trkpt lat="42.2830770" lon="-2.6092460">
        <ele>1141.8</ele>
        <time>2022-08-13T12:00:06Z</time>
      </trkpt>
      <trkpt lat="42.2830300" lon="-2.6092730">
        <ele>1141.6</ele>
        <time>2022-08-13T12:00:07Z</time>
      </trkpt>
      <trkpt lat="42.2829760" lon="-2.6093180">
        <ele>1141.3</ele>
        <time>2022-08-13T12:00:08Z</time>
      </trkpt>
      <trkpt lat="42.2829200" lon="-2.6093830">
        <ele>1141.0</ele>
        <time>2022-08-13T12:00:09Z</time>
      </trkpt>
      <trkpt lat="42.2828860" lon="-2.6094330">
        <ele>1140.8</ele>
        <time>2022-08-13T12:00:10Z</time>
      </trkpt>
      <trkpt lat="42.2828460" lon="-2.6094980">
        <ele>1140.6</ele>
        <time>2022-08-13T12:00:11Z</time>
      </trkpt>
      <trkpt lat="42.2827770" lon="-2.6096260">
        <ele>1139.8</ele>
        <time>2022-08-13T12:00:13Z</time>
      </trkpt>
      <trkpt lat="42.2827100" lon="-2.6097370">
        <ele>1139.0</ele>
        <time>2022-08-13T12:00:15Z</time>
      </trkpt>
      <trkpt lat="42.2826770" lon="-2.6097920">
        <ele>1138.6</ele>
        <time>2022-08-13T12:00:16Z</time>
      </trkpt>
      <trkpt lat="42.2826450" lon="-2.6098480">
        <ele>1138.2</ele>
        <time>2022-08-13T12:00:17Z</time>
      </trkpt>
      <trkpt lat="42.2826160" lon="-2.6099030">
        <ele>1137.9</ele>
        <time>2022-08-13T12:00:18Z</time>
      </trkpt>
      <trkpt lat="42.2825890" lon="-2.6099600">
        <ele>1137.6</ele>
        <time>2022-08-13T12:00:19Z</time>
      </trkpt>
      <trkpt lat="42.2825630" lon="-2.6100180">
        <ele>1137.3</ele>
        <time>2022-08-13T12:00:20Z</time>
      </trkpt>
      <trkpt lat="42.2825370" lon="-2.6100760">
        <ele>1137.0</ele>
        <time>2022-08-13T12:00:21Z</time>
      </trkpt>
      <trkpt lat="42.2825130" lon="-2.6101370">
        <ele>1136.6</ele>
        <time>2022-08-13T12:00:22Z</time>
      </trkpt>
      <trkpt lat="42.2824890" lon="-2.6101950">
        <ele>1136.2</ele>
        <time>2022-08-13T12:00:23Z</time>
      </trkpt>
      <trkpt lat="42.2824710" lon="-2.6102550">
        <ele>1135.9</ele>
        <time>2022-08-13T12:00:24Z</time>
      </trkpt>
      <trkpt lat="42.2824540" lon="-2.6103170">
        <ele>1135.5</ele>
        <time>2022-08-13T12:00:25Z</time>
      </trkpt>
      <trkpt lat="42.2824420" lon="-2.6103820">
        <ele>1135.2</ele>
        <time>2022-08-13T12:00:26Z</time>
      </trkpt>
      <trkpt lat="42.2824350" lon="-2.6104490">
        <ele>1134.8</ele>
        <time>2022-08-13T12:00:27Z</time>
      </trkpt>
      <trkpt lat="42.2824590" lon="-2.6105990">
        <ele>1133.9</ele>
        <time>2022-08-13T12:00:29Z</time>
      </trkpt>
      <trkpt lat="42.2824860" lon="-2.6106610">
        <ele>1133.5</ele>
        <time>2022-08-13T12:00:30Z</time>
      </trkpt>
      <trkpt lat="42.2825210" lon="-2.6107190">
        <ele>1133.1</ele>
        <time>2022-08-13T12:00:31Z</time>
      </trkpt>
      <trkpt lat="42.2826070" lon="-2.6108230">
        <ele>1132.3</ele>
        <time>2022-08-13T12:00:33Z</time>
      </trkpt>
      <trkpt lat="42.2826520" lon="-2.6108710">
        <ele>1131.9</ele>
        <time>2022-08-13T12:00:34Z</time>
      </trkpt>
      <trkpt lat="42.2826900" lon="-2.6109100">
        <ele>1131.6</ele>
        <time>2022-08-13T12:00:35Z</time>
      </trkpt>
      <trkpt lat="42.2827440" lon="-2.6109710">
        <ele>1131.1</ele>
        <time>2022-08-13T12:00:36Z</time>
      </trkpt>
      <trkpt lat="42.2827780" lon="-2.6110150">
        <ele>1130.7</ele>
        <time>2022-08-13T12:00:37Z</time>
      </trkpt>
      <trkpt lat="42.2828200" lon="-2.6110730">
        <ele>1130.3</ele>
        <time>2022-08-13T12:00:38Z</time>
      </trkpt>
      <trkpt lat="42.2828580" lon="-2.6111390">
        <ele>1129.9</ele>
        <time>2022-08-13T12:00:39Z</time>
      </trkpt>
      <trkpt lat="42.2828940" lon="-2.6112240">
        <ele>1129.4</ele>
        <time>2022-08-13T12:00:40Z</time>
      </trkpt>
      <trkpt lat="42.2829320" lon="-2.6113530">
        <ele>1128.8</ele>
        <time>2022-08-13T12:00:42Z</time>
      </trkpt>
      <trkpt lat="42.2829410" lon="-2.6115130">
        <ele>1128.1</ele>
        <time>2022-08-13T12:00:44Z</time>
      </trkpt>
      <trkpt lat="42.2829290" lon="-2.6116980">
        <ele>1127.3</ele>
        <time>2022-08-13T12:00:46Z</time>
      </trkpt>
      <trkpt lat="42.2829160" lon="-2.6117680">
        <ele>1127.0</ele>
        <time>2022-08-13T12:00:47Z</time>
      </trkpt>
      <trkpt lat="42.2828770" lon="-2.6119640">
        <ele>1126.0</ele>
        <time>2022-08-13T12:00:49Z</time>
      </trkpt>
      <trkpt lat="42.2828380" lon="-2.6122160">
        <ele>1124.4</ele>
        <time>2022-08-13T12:00:52Z</time>
      </trkpt>
      <trkpt lat="42.2828400" lon="-2.6122720">
        <ele>1124.0</ele>
        <time>2022-08-13T12:00:53Z</time>
      </trkpt>
      <trkpt lat="42.2828520" lon="-2.6123940">
        <ele>1123.1</ele>
        <time>2022-08-13T12:00:55Z</time>
      </trkpt>
      <trkpt lat="42.2828450" lon="-2.6124850">
        <ele>1122.4</ele>
        <time>2022-08-13T12:00:57Z</time>
      </trkpt>
      <trkpt lat="42.2828340" lon="-2.6125290">
        <ele>1122.0</ele>
        <time>2022-08-13T12:00:58Z</time>
      </trkpt>
      <trkpt lat="42.2828190" lon="-2.6125910">
        <ele>1121.5</ele>
        <time>2022-08-13T12:01:00Z</time>
      </trkpt>
      <trkpt lat="42.2827590" lon="-2.6125500">
        <ele>1120.8</ele>
        <time>2022-08-13T12:01:02Z</time>
      </trkpt>
      <trkpt lat="42.2827320" lon="-2.6125060">
        <ele>1120.4</ele>
        <time>2022-08-13T12:01:03Z</time>
      </trkpt>
      <trkpt lat="42.2827060" lon="-2.6124600">
        <ele>1119.9</ele>
        <time>2022-08-13T12:01:04Z</time>
      </trkpt>
      <trkpt lat="42.2826580" lon="-2.6123650">
        <ele>1118.9</ele>
        <time>2022-08-13T12:01:06Z</time>
      </trkpt>
      <trkpt lat="42.2826300" lon="-2.6123150">
        <ele>1118.3</ele>
        <time>2022-08-13T12:01:07Z</time>
      </trkpt>
      <trkpt lat="42.2826010" lon="-2.6122640">
        <ele>1117.7</ele>
        <time>2022-08-13T12:01:08Z</time>
      </trkpt>
      <trkpt lat="42.2825270" lon="-2.6121390">
        <ele>1116.1</ele>
        <time>2022-08-13T12:01:10Z</time>
      </trkpt>
      <trkpt lat="42.2824880" lon="-2.6120710">
        <ele>1115.3</ele>
        <time>2022-08-13T12:01:11Z</time>
      </trkpt>
      <trkpt lat="42.2824450" lon="-2.6120040">
        <ele>1114.5</ele>
        <time>2022-08-13T12:01:12Z</time>
      </trkpt>
      <trkpt lat="42.2823710" lon="-2.6118880">
        <ele>1113.1</ele>
        <time>2022-08-13T12:01:14Z</time>
      </trkpt>
      <trkpt lat="42.2823340" lon="-2.6118330">
        <ele>1112.4</ele>
        <time>2022-08-13T12:01:15Z</time>
      </trkpt>
      <trkpt lat="42.2822550" lon="-2.6117400">
        <ele>1111.1</ele>
        <time>2022-08-13T12:01:17Z</time>
      </trkpt>
      <trkpt lat="42.2821630" lon="-2.6116990">
        <ele>1109.8</ele>
        <time>2022-08-13T12:01:19Z</time>
      </trkpt>
      <trkpt lat="42.2821140" lon="-2.6117000">
        <ele>1109.2</ele>
        <time>2022-08-13T12:01:20Z</time>
      </trkpt>
      <trkpt lat="42.2820700" lon="-2.6117080">
        <ele>1108.6</ele>
        <time>2022-08-13T12:01:21Z</time>
      </trkpt>
      <trkpt lat="42.2820290" lon="-2.6117290">
        <ele>1107.9</ele>
        <time>2022-08-13T12:01:22Z</time>
      </trkpt>
      <trkpt lat="42.2819920" lon="-2.6117570">
        <ele>1107.3</ele>
        <time>2022-08-13T12:01:23Z</time>
      </trkpt>
      <trkpt lat="42.2819590" lon="-2.6117930">
        <ele>1106.6</ele>
        <time>2022-08-13T12:01:24Z</time>
      </trkpt>
      <trkpt lat="42.2818980" lon="-2.6118770">
        <ele>1105.2</ele>
        <time>2022-08-13T12:01:26Z</time>
      </trkpt>
      <trkpt lat="42.2818640" lon="-2.6119070">
        <ele>1104.6</ele>
        <time>2022-08-13T12:01:27Z</time>
      </trkpt>
      <trkpt lat="42.2817960" lon="-2.6119500">
        <ele>1103.3</ele>
        <time>2022-08-13T12:01:29Z</time>
      </trkpt>
      <trkpt lat="42.2817170" lon="-2.6119870">
        <ele>1102.0</ele>
        <time>2022-08-13T12:01:31Z</time>
      </trkpt>
      <trkpt lat="42.2816450" lon="-2.6120210">
        <ele>1100.7</ele>
        <time>2022-08-13T12:01:33Z</time>
      </trkpt>
      <trkpt lat="42.2816240" lon="-2.6120420">
        <ele>1100.3</ele>
        <time>2022-08-13T12:01:34Z</time>
      </trkpt>
      <trkpt lat="42.2815970" lon="-2.6120830">
        <ele>1099.7</ele>
        <time>2022-08-13T12:01:35Z</time>
      </trkpt>
      <trkpt lat="42.2815830" lon="-2.6121620">
        <ele>1098.8</ele>
        <time>2022-08-13T12:01:37Z</time>
      </trkpt>
      <trkpt lat="42.2815900" lon="-2.6122100">
        <ele>1098.2</ele>
        <time>2022-08-13T12:01:38Z</time>
      </trkpt>
      <trkpt lat="42.2816070" lon="-2.6122640">
        <ele>1097.6</ele>
        <time>2022-08-13T12:01:39Z</time>
      </trkpt>
      <trkpt lat="42.2816290" lon="-2.6123270">
        <ele>1096.8</ele>
        <time>2022-08-13T12:01:40Z</time>
      </trkpt>
      <trkpt lat="42.2816430" lon="-2.6123710">
        <ele>1096.3</ele>
        <time>2022-08-13T12:01:41Z</time>
      </trkpt>
      <trkpt lat="42.2816550" lon="-2.6124070">
        <ele>1095.8</ele>
        <time>2022-08-13T12:01:42Z</time>
      </trkpt>
      <trkpt lat="42.2816680" lon="-2.6124520">
        <ele>1095.3</ele>
        <time>2022-08-13T12:01:43Z</time>
      </trkpt>
      <trkpt lat="42.2816810" lon="-2.6125440">
        <ele>1094.3</ele>
        <time>2022-08-13T12:01:45Z</time>
      </trkpt>
      <trkpt lat="42.2816720" lon="-2.6125930">
        <ele>1093.7</ele>
        <time>2022-08-13T12:01:46Z</time>
      </trkpt>
      <trkpt lat="42.2816500" lon="-2.6126470">
        <ele>1093.1</ele>
        <time>2022-08-13T12:01:47Z</time>
      </trkpt>
      <trkpt lat="42.2816180" lon="-2.6126980">
        <ele>1092.3</ele>
        <time>2022-08-13T12:01:48Z</time>
      </trkpt>
      <trkpt lat="42.2815790" lon="-2.6127440">
        <ele>1091.6</ele>
        <time>2022-08-13T12:01:49Z</time>
      </trkpt>
      <trkpt lat="42.2815340" lon="-2.6127870">
        <ele>1091.0</ele>
        <time>2022-08-13T12:01:50Z</time>
      </trkpt>
      <trkpt lat="42.2814840" lon="-2.6128220">
        <ele>1090.2</ele>
        <time>2022-08-13T12:01:51Z</time>
      </trkpt>
      <trkpt lat="42.2814210" lon="-2.6128540">
        <ele>1089.2</ele>
        <time>2022-08-13T12:01:52Z</time>
      </trkpt>
      <trkpt lat="42.2813100" lon="-2.6128720">
        <ele>1087.6</ele>
        <time>2022-08-13T12:01:54Z</time>
      </trkpt>
      <trkpt lat="42.2812540" lon="-2.6128670">
        <ele>1086.8</ele>
        <time>2022-08-13T12:01:55Z</time>
      </trkpt>
      <trkpt lat="42.2811960" lon="-2.6128540">
        <ele>1085.9</ele>
        <time>2022-08-13T12:01:56Z</time>
      </trkpt>
      <trkpt lat="42.2811390" lon="-2.6128310">
        <ele>1085.0</ele>
        <time>2022-08-13T12:01:57Z</time>
      </trkpt>
      <trkpt lat="42.2810820" lon="-2.6128070">
        <ele>1084.1</ele>
        <time>2022-08-13T12:01:58Z</time>
      </trkpt>
      <trkpt lat="42.2810240" lon="-2.6127880">
        <ele>1083.2</ele>
        <time>2022-08-13T12:01:59Z</time>
      </trkpt>
      <trkpt lat="42.2809610" lon="-2.6127810">
        <ele>1082.3</ele>
        <time>2022-08-13T12:02:00Z</time>
      </trkpt>
      <trkpt lat="42.2809070" lon="-2.6127830">
        <ele>1081.5</ele>
        <time>2022-08-13T12:02:01Z</time>
      </trkpt>
      <trkpt lat="42.2808270" lon="-2.6127980">
        <ele>1080.3</ele>
        <time>2022-08-13T12:02:02Z</time>
      </trkpt>
      <trkpt lat="42.2807050" lon="-2.6128390">
        <ele>1078.6</ele>
        <time>2022-08-13T12:02:04Z</time>
      </trkpt>
      <trkpt lat="42.2805660" lon="-2.6128860">
        <ele>1076.7</ele>
        <time>2022-08-13T12:02:06Z</time>
      </trkpt>
      <trkpt lat="42.2804110" lon="-2.6129200">
        <ele>1074.8</ele>
        <time>2022-08-13T12:02:08Z</time>
      </trkpt>
      <trkpt lat="42.2802760" lon="-2.6129260">
        <ele>1073.2</ele>
        <time>2022-08-13T12:02:10Z</time>
      </trkpt>
      <trkpt lat="42.2802050" lon="-2.6129130">
        <ele>1072.4</ele>
        <time>2022-08-13T12:02:11Z</time>
      </trkpt>
      <trkpt lat="42.2801470" lon="-2.6128940">
        <ele>1071.7</ele>
        <time>2022-08-13T12:02:12Z</time>
      </trkpt>
      <trkpt lat="42.2800580" lon="-2.6128580">
        <ele>1070.6</ele>
        <time>2022-08-13T12:02:13Z</time>
      </trkpt>
      <trkpt lat="42.2799800" lon="-2.6128180">
        <ele>1069.7</ele>
        <time>2022-08-13T12:02:14Z</time>
      </trkpt>
      <trkpt lat="42.2798220" lon="-2.6127430">
        <ele>1067.6</ele>
        <time>2022-08-13T12:02:16Z</time>
      </trkpt>
      <trkpt lat="42.2797450" lon="-2.6127100">
        <ele>1066.6</ele>
        <time>2022-08-13T12:02:17Z</time>
      </trkpt>
      <trkpt lat="42.2796680" lon="-2.6126860">
        <ele>1065.6</ele>
        <time>2022-08-13T12:02:18Z</time>
      </trkpt>
      <trkpt lat="42.2796080" lon="-2.6126750">
        <ele>1064.9</ele>
        <time>2022-08-13T12:02:19Z</time>
      </trkpt>
      <trkpt lat="42.2795190" lon="-2.6126690">
        <ele>1063.7</ele>
        <time>2022-08-13T12:02:20Z</time>
      </trkpt>
      <trkpt lat="42.2794440" lon="-2.6126770">
        <ele>1062.7</ele>
        <time>2022-08-13T12:02:21Z</time>
      </trkpt>
      <trkpt lat="42.2793680" lon="-2.6126990">
        <ele>1061.7</ele>
        <time>2022-08-13T12:02:22Z</time>
      </trkpt>
      <trkpt lat="42.2792920" lon="-2.6127280">
        <ele>1060.7</ele>
        <time>2022-08-13T12:02:23Z</time>
      </trkpt>
      <trkpt lat="42.2792340" lon="-2.6127550">
        <ele>1059.9</ele>
        <time>2022-08-13T12:02:24Z</time>
      </trkpt>
      <trkpt lat="42.2790810" lon="-2.6128200">
        <ele>1057.9</ele>
        <time>2022-08-13T12:02:26Z</time>
      </trkpt>
      <trkpt lat="42.2790160" lon="-2.6128430">
        <ele>1057.0</ele>
        <time>2022-08-13T12:02:27Z</time>
      </trkpt>
      <trkpt lat="42.2789520" lon="-2.6128680">
        <ele>1056.2</ele>
        <time>2022-08-13T12:02:28Z</time>
      </trkpt>
      <trkpt lat="42.2788990" lon="-2.6128860">
        <ele>1055.5</ele>
        <time>2022-08-13T12:02:29Z</time>
      </trkpt>
      <trkpt lat="42.2788350" lon="-2.6128970">
        <ele>1054.7</ele>
        <time>2022-08-13T12:02:30Z</time>
      </trkpt>
      <trkpt lat="42.2787620" lon="-2.6128930">
        <ele>1053.8</ele>
        <time>2022-08-13T12:02:31Z</time>
      </trkpt>
      <trkpt lat="42.2787140" lon="-2.6128850">
        <ele>1053.2</ele>
        <time>2022-08-13T12:02:32Z</time>
      </trkpt>
      <trkpt lat="42.2786560" lon="-2.6128740">
        <ele>1052.4</ele>
        <time>2022-08-13T12:02:33Z</time>
      </trkpt>
      <trkpt lat="42.2785680" lon="-2.6128490">
        <ele>1051.2</ele>
        <time>2022-08-13T12:02:35Z</time>
      </trkpt>
      <trkpt lat="42.2785400" lon="-2.6128390">
        <ele>1050.8</ele>
        <time>2022-08-13T12:02:36Z</time>
      </trkpt>
      <trkpt lat="42.2785010" lon="-2.6128240">
        <ele>1050.3</ele>
        <time>2022-08-13T12:02:38Z</time>
      </trkpt>
      <trkpt lat="42.2784650" lon="-2.6128170">
        <ele>1049.8</ele>
        <time>2022-08-13T12:02:40Z</time>
      </trkpt>
      <trkpt lat="42.2784450" lon="-2.6128130">
        <ele>1049.6</ele>
        <time>2022-08-13T12:02:41Z</time>
      </trkpt>
      <trkpt lat="42.2784260" lon="-2.6128110">
        <ele>1049.3</ele>
        <time>2022-08-13T12:02:42Z</time>
      </trkpt>
      <trkpt lat="42.2783990" lon="-2.6128040">
        <ele>1049.0</ele>
        <time>2022-08-13T12:02:44Z</time>
      </trkpt>
      <trkpt lat="42.2783950" lon="-2.6128030">
        <ele>1048.9</ele>
        <time>2022-08-13T12:03:27Z</time>
      </trkpt>
      <trkpt lat="42.2783920" lon="-2.6128020">
        <ele>1048.9</ele>
        <time>2022-08-13T12:03:28Z</time>
      </trkpt>
      <trkpt lat="42.2783360" lon="-2.6127610">
        <ele>1048.0</ele>
        <time>2022-08-13T12:03:32Z</time>
      </trkpt>
      <trkpt lat="42.2783280" lon="-2.6127580">
        <ele>1047.9</ele>
        <time>2022-08-13T12:03:33Z</time>
      </trkpt>
      <trkpt lat="42.2783160" lon="-2.6127500">
        <ele>1047.8</ele>
        <time>2022-08-13T12:03:49Z</time>
      </trkpt>
      <trkpt lat="42.2783120" lon="-2.6127360">
        <ele>1047.6</ele>
        <time>2022-08-13T12:03:50Z</time>
      </trkpt>
      <trkpt lat="42.2782980" lon="-2.6127060">
        <ele>1047.3</ele>
        <time>2022-08-13T12:03:52Z</time>
      </trkpt>
      <trkpt lat="42.2782570" lon="-2.6126640">
        <ele>1046.6</ele>
        <time>2022-08-13T12:03:54Z</time>
      </trkpt>
      <trkpt lat="42.2782340" lon="-2.6126380">
        <ele>1046.3</ele>
        <time>2022-08-13T12:03:55Z</time>
      </trkpt>
      <trkpt lat="42.2781080" lon="-2.6124780">
        <ele>1044.1</ele>
        <time>2022-08-13T12:04:00Z</time>
      </trkpt>
      <trkpt lat="42.2780820" lon="-2.6124360">
        <ele>1043.7</ele>
        <time>2022-08-13T12:04:01Z</time>
      </trkpt>
      <trkpt lat="42.2780530" lon="-2.6123870">
        <ele>1043.1</ele>
        <time>2022-08-13T12:04:02Z</time>
      </trkpt>
      <trkpt lat="42.2779650" lon="-2.6121920">
        <ele>1041.2</ele>
        <time>2022-08-13T12:04:05Z</time>
      </trkpt>
      <trkpt lat="42.2779410" lon="-2.6121340">
        <ele>1040.7</ele>
        <time>2022-08-13T12:04:06Z</time>
      </trkpt>
      <trkpt lat="42.2779130" lon="-2.6120580">
        <ele>1040.0</ele>
        <time>2022-08-13T12:04:07Z</time>
      </trkpt>
      <trkpt lat="42.2778400" lon="-2.6118220">
        <ele>1038.0</ele>
        <time>2022-08-13T12:04:10Z</time>
      </trkpt>
      <trkpt lat="42.2778170" lon="-2.6117450">
        <ele>1037.3</ele>
        <time>2022-08-13T12:04:11Z</time>
      </trkpt>
      <trkpt lat="42.2777730" lon="-2.6116010">
        <ele>1036.1</ele>
        <time>2022-08-13T12:04:13Z</time>
      </trkpt>
      <trkpt lat="42.2777550" lon="-2.6115410">
        <ele>1035.6</ele>
        <time>2022-08-13T12:04:14Z</time>
      </trkpt>
      <trkpt lat="42.2777220" lon="-2.6114580">
        <ele>1034.8</ele>
        <time>2022-08-13T12:04:16Z</time>
      </trkpt>
      <trkpt lat="42.2777030" lon="-2.6114260">
        <ele>1034.5</ele>
        <time>2022-08-13T12:04:17Z</time>
      </trkpt>
      <trkpt lat="42.2776830" lon="-2.6113980">
        <ele>1034.2</ele>
        <time>2022-08-13T12:04:18Z</time>
      </trkpt>
      <trkpt lat="42.2776150" lon="-2.6113350">
        <ele>1033.2</ele>
        <time>2022-08-13T12:04:21Z</time>
      </trkpt>
      <trkpt lat="42.2775940" lon="-2.6113190">
        <ele>1032.9</ele>
        <time>2022-08-13T12:04:22Z</time>
      </trkpt>
      <trkpt lat="42.2775780" lon="-2.6113170">
        <ele>1032.7</ele>
        <time>2022-08-13T12:04:23Z</time>
      </trkpt>
      <trkpt lat="42.2775710" lon="-2.6113200">
        <ele>1032.6</ele>
        <time>2022-08-13T12:04:24Z</time>
      </trkpt>
      <trkpt lat="42.2775660" lon="-2.6113240">
        <ele>1032.6</ele>
        <time>2022-08-13T12:04:27Z</time>
      </trkpt>
      <trkpt lat="42.2775610" lon="-2.6113210">
        <ele>1032.5</ele>
        <time>2022-08-13T12:04:28Z</time>
      </trkpt>
      <trkpt lat="42.2775480" lon="-2.6113120">
        <ele>1032.3</ele>
        <time>2022-08-13T12:04:30Z</time>
      </trkpt>
      <trkpt lat="42.2775330" lon="-2.6113500">
        <ele>1031.9</ele>
        <time>2022-08-13T12:13:01Z</time>
      </trkpt>
      <trkpt lat="42.2775390" lon="-2.6113800">
        <ele>1031.6</ele>
        <time>2022-08-13T12:13:02Z</time>
      </trkpt>
      <trkpt lat="42.2775460" lon="-2.6114160">
        <ele>1031.3</ele>
        <time>2022-08-13T12:13:03Z</time>
      </trkpt>
      <trkpt lat="42.2775550" lon="-2.6114650">
        <ele>1030.8</ele>
        <time>2022-08-13T12:13:04Z</time>
      </trkpt>
      <trkpt lat="42.2775670" lon="-2.6115230">
        <ele>1030.3</ele>
        <time>2022-08-13T12:13:05Z</time>
      </trkpt>
      <trkpt lat="42.2775790" lon="-2.6115760">
        <ele>1029.8</ele>
        <time>2022-08-13T12:13:06Z</time>
      </trkpt>
      <trkpt lat="42.2776180" lon="-2.6117260">
        <ele>1028.3</ele>
        <time>2022-08-13T12:13:08Z</time>
      </trkpt>
      <trkpt lat="42.2776640" lon="-2.6119160">
        <ele>1026.4</ele>
        <time>2022-08-13T12:13:10Z</time>
      </trkpt>
      <trkpt lat="42.2776820" lon="-2.6120180">
        <ele>1025.5</ele>
        <time>2022-08-13T12:13:11Z</time>
      </trkpt>
      <trkpt lat="42.2776930" lon="-2.6122130">
        <ele>1023.8</ele>
        <time>2022-08-13T12:13:13Z</time>
      </trkpt>
      <trkpt lat="42.2776740" lon="-2.6123200">
        <ele>1022.8</ele>
        <time>2022-08-13T12:13:14Z</time>
      </trkpt>
      <trkpt lat="42.2776510" lon="-2.6123910">
        <ele>1022.1</ele>
        <time>2022-08-13T12:13:15Z</time>
      </trkpt>
      <trkpt lat="42.2776120" lon="-2.6124980">
        <ele>1021.0</ele>
        <time>2022-08-13T12:13:16Z</time>
      </trkpt>
      <trkpt lat="42.2775590" lon="-2.6126570">
        <ele>1019.3</ele>
        <time>2022-08-13T12:13:18Z</time>
      </trkpt>
      <trkpt lat="42.2775380" lon="-2.6128280">
        <ele>1017.5</ele>
        <time>2022-08-13T12:13:20Z</time>
      </trkpt>
      <trkpt lat="42.2775400" lon="-2.6129100">
        <ele>1016.7</ele>
        <time>2022-08-13T12:13:21Z</time>
      </trkpt>
      <trkpt lat="42.2775690" lon="-2.6130870">
        <ele>1014.9</ele>
        <time>2022-08-13T12:13:23Z</time>
      </trkpt>
      <trkpt lat="42.2776050" lon="-2.6132480">
        <ele>1013.2</ele>
        <time>2022-08-13T12:13:25Z</time>
      </trkpt>
      <trkpt lat="42.2775910" lon="-2.6133880">
        <ele>1011.9</ele>
        <time>2022-08-13T12:13:27Z</time>
      </trkpt>
      <trkpt lat="42.2775690" lon="-2.6134580">
        <ele>1011.2</ele>
        <time>2022-08-13T12:13:28Z</time>
      </trkpt>
      <trkpt lat="42.2775360" lon="-2.6135190">
        <ele>1010.6</ele>
        <time>2022-08-13T12:13:29Z</time>
      </trkpt>
      <trkpt lat="42.2774960" lon="-2.6135710">
        <ele>1009.9</ele>
        <time>2022-08-13T12:13:30Z</time>
      </trkpt>
      <trkpt lat="42.2773880" lon="-2.6136650">
        <ele>1008.5</ele>
        <time>2022-08-13T12:13:32Z</time>
      </trkpt>
      <trkpt lat="42.2773270" lon="-2.6137200">
        <ele>1007.7</ele>
        <time>2022-08-13T12:13:33Z</time>
      </trkpt>
      <trkpt lat="42.2772040" lon="-2.6138760">
        <ele>1005.9</ele>
        <time>2022-08-13T12:13:35Z</time>
      </trkpt>
      <trkpt lat="42.2771610" lon="-2.6139420">
        <ele>1005.2</ele>
        <time>2022-08-13T12:13:36Z</time>
      </trkpt>
      <trkpt lat="42.2771100" lon="-2.6140320">
        <ele>1004.2</ele>
        <time>2022-08-13T12:13:37Z</time>
      </trkpt>
      <trkpt lat="42.2770560" lon="-2.6141170">
        <ele>1003.2</ele>
        <time>2022-08-13T12:13:38Z</time>
      </trkpt>
      <trkpt lat="42.2769980" lon="-2.6141960">
        <ele>1002.2</ele>
        <time>2022-08-13T12:13:39Z</time>
      </trkpt>
      <trkpt lat="42.2768430" lon="-2.6143580">
        <ele>999.9</ele>
        <time>2022-08-13T12:13:41Z</time>
      </trkpt>
      <trkpt lat="42.2766760" lon="-2.6144850">
        <ele>997.5</ele>
        <time>2022-08-13T12:13:43Z</time>
      </trkpt>
      <trkpt lat="42.2765910" lon="-2.6145450">
        <ele>996.3</ele>
        <time>2022-08-13T12:13:44Z</time>
      </trkpt>
      <trkpt lat="42.2764160" lon="-2.6146620">
        <ele>993.8</ele>
        <time>2022-08-13T12:13:46Z</time>
      </trkpt>
      <trkpt lat="42.2763310" lon="-2.6147130">
        <ele>992.6</ele>
        <time>2022-08-13T12:13:47Z</time>
      </trkpt>
      <trkpt lat="42.2762470" lon="-2.6147550">
        <ele>991.4</ele>
        <time>2022-08-13T12:13:48Z</time>
      </trkpt>
      <trkpt lat="42.2761650" lon="-2.6147890">
        <ele>990.4</ele>
        <time>2022-08-13T12:13:49Z</time>
      </trkpt>
      <trkpt lat="42.2760820" lon="-2.6148140">
        <ele>989.3</ele>
        <time>2022-08-13T12:13:50Z</time>
      </trkpt>
      <trkpt lat="42.2760160" lon="-2.6148300">
        <ele>988.5</ele>
        <time>2022-08-13T12:13:51Z</time>
      </trkpt>
      <trkpt lat="42.2759380" lon="-2.6148430">
        <ele>987.6</ele>
        <time>2022-08-13T12:13:52Z</time>
      </trkpt>
      <trkpt lat="42.2757810" lon="-2.6148810">
        <ele>985.8</ele>
        <time>2022-08-13T12:13:54Z</time>
      </trkpt>
      <trkpt lat="42.2757180" lon="-2.6149160">
        <ele>985.0</ele>
        <time>2022-08-13T12:13:55Z</time>
      </trkpt>
      <trkpt lat="42.2756570" lon="-2.6149640">
        <ele>984.1</ele>
        <time>2022-08-13T12:13:56Z</time>
      </trkpt>
      <trkpt lat="42.2756000" lon="-2.6150230">
        <ele>983.3</ele>
        <time>2022-08-13T12:13:57Z</time>
      </trkpt>
      <trkpt lat="42.2755470" lon="-2.6150950">
        <ele>982.5</ele>
        <time>2022-08-13T12:13:58Z</time>
      </trkpt>
      <trkpt lat="42.2755080" lon="-2.6151600">
        <ele>981.8</ele>
        <time>2022-08-13T12:13:59Z</time>
      </trkpt>
      <trkpt lat="42.2753990" lon="-2.6153620">
        <ele>979.7</ele>
        <time>2022-08-13T12:14:01Z</time>
      </trkpt>
      <trkpt lat="42.2752980" lon="-2.6155440">
        <ele>977.9</ele>
        <time>2022-08-13T12:14:03Z</time>
      </trkpt>
      <trkpt lat="42.2752430" lon="-2.6156210">
        <ele>977.0</ele>
        <time>2022-08-13T12:14:04Z</time>
      </trkpt>
      <trkpt lat="42.2751810" lon="-2.6156910">
        <ele>976.0</ele>
        <time>2022-08-13T12:14:05Z</time>
      </trkpt>
      <trkpt lat="42.2751120" lon="-2.6157510">
        <ele>975.0</ele>
        <time>2022-08-13T12:14:06Z</time>
      </trkpt>
      <trkpt lat="42.2749680" lon="-2.6158390">
        <ele>973.0</ele>
        <time>2022-08-13T12:14:08Z</time>
      </trkpt>
      <trkpt lat="42.2748820" lon="-2.6158840">
        <ele>971.8</ele>
        <time>2022-08-13T12:14:09Z</time>
      </trkpt>
      <trkpt lat="42.2747100" lon="-2.6159690">
        <ele>969.4</ele>
        <time>2022-08-13T12:14:11Z</time>
      </trkpt>
      <trkpt lat="42.2744680" lon="-2.6161090">
        <ele>966.1</ele>
        <time>2022-08-13T12:14:14Z</time>
      </trkpt>
      <trkpt lat="42.2743230" lon="-2.6162130">
        <ele>964.2</ele>
        <time>2022-08-13T12:14:16Z</time>
      </trkpt>
      <trkpt lat="42.2741890" lon="-2.6163360">
        <ele>962.5</ele>
        <time>2022-08-13T12:14:18Z</time>
      </trkpt>
      <trkpt lat="42.2741380" lon="-2.6163960">
        <ele>961.7</ele>
        <time>2022-08-13T12:14:19Z</time>
      </trkpt>
      <trkpt lat="42.2740950" lon="-2.6164640">
        <ele>961.0</ele>
        <time>2022-08-13T12:14:20Z</time>
      </trkpt>
      <trkpt lat="42.2740590" lon="-2.6165400">
        <ele>960.2</ele>
        <time>2022-08-13T12:14:21Z</time>
      </trkpt>
      <trkpt lat="42.2740300" lon="-2.6166230">
        <ele>959.5</ele>
        <time>2022-08-13T12:14:22Z</time>
      </trkpt>
      <trkpt lat="42.2740080" lon="-2.6167130">
        <ele>958.7</ele>
        <time>2022-08-13T12:14:23Z</time>
      </trkpt>
      <trkpt lat="42.2739800" lon="-2.6168950">
        <ele>957.2</ele>
        <time>2022-08-13T12:14:25Z</time>
      </trkpt>
      <trkpt lat="42.2739700" lon="-2.6169890">
        <ele>956.5</ele>
        <time>2022-08-13T12:14:26Z</time>
      </trkpt>
      <trkpt lat="42.2739650" lon="-2.6170820">
        <ele>955.7</ele>
        <time>2022-08-13T12:14:27Z</time>
      </trkpt>
      <trkpt lat="42.2739640" lon="-2.6171700">
        <ele>955.0</ele>
        <time>2022-08-13T12:14:28Z</time>
      </trkpt>
      <trkpt lat="42.2739730" lon="-2.6173300">
        <ele>953.8</ele>
        <time>2022-08-13T12:14:30Z</time>
      </trkpt>
      <trkpt lat="42.2739640" lon="-2.6174530">
        <ele>952.7</ele>
        <time>2022-08-13T12:14:32Z</time>
      </trkpt>
      <trkpt lat="42.2739460" lon="-2.6174950">
        <ele>952.3</ele>
        <time>2022-08-13T12:14:33Z</time>
      </trkpt>
      <trkpt lat="42.2739170" lon="-2.6175120">
        <ele>952.0</ele>
        <time>2022-08-13T12:14:34Z</time>
      </trkpt>
      <trkpt lat="42.2738840" lon="-2.6175090">
        <ele>951.6</ele>
        <time>2022-08-13T12:14:35Z</time>
      </trkpt>
      <trkpt lat="42.2738580" lon="-2.6174920">
        <ele>951.3</ele>
        <time>2022-08-13T12:14:36Z</time>
      </trkpt>
      <trkpt lat="42.2738290" lon="-2.6174570">
        <ele>950.9</ele>
        <time>2022-08-13T12:14:37Z</time>
      </trkpt>
      <trkpt lat="42.2738030" lon="-2.6174100">
        <ele>950.4</ele>
        <time>2022-08-13T12:14:38Z</time>
      </trkpt>
      <trkpt lat="42.2737790" lon="-2.6173520">
        <ele>949.9</ele>
        <time>2022-08-13T12:14:39Z</time>
      </trkpt>
      <trkpt lat="42.2737560" lon="-2.6172830">
        <ele>949.3</ele>
        <time>2022-08-13T12:14:40Z</time>
      </trkpt>
      <trkpt lat="42.2737040" lon="-2.6171270">
        <ele>947.9</ele>
        <time>2022-08-13T12:14:42Z</time>
      </trkpt>
      <trkpt lat="42.2736760" lon="-2.6170440">
        <ele>947.1</ele>
        <time>2022-08-13T12:14:43Z</time>
      </trkpt>
      <trkpt lat="42.2736280" lon="-2.6168810">
        <ele>945.8</ele>
        <time>2022-08-13T12:14:45Z</time>
      </trkpt>
      <trkpt lat="42.2735480" lon="-2.6166570">
        <ele>944.2</ele>
        <time>2022-08-13T12:14:48Z</time>
      </trkpt>
      <trkpt lat="42.2734950" lon="-2.6165360">
        <ele>943.3</ele>
        <time>2022-08-13T12:14:50Z</time>
      </trkpt>
      <trkpt lat="42.2734690" lon="-2.6164850">
        <ele>942.9</ele>
        <time>2022-08-13T12:14:51Z</time>
      </trkpt>
      <trkpt lat="42.2734470" lon="-2.6164440">
        <ele>942.6</ele>
        <time>2022-08-13T12:14:52Z</time>
      </trkpt>
      <trkpt lat="42.2733900" lon="-2.6163420">
        <ele>941.7</ele>
        <time>2022-08-13T12:14:54Z</time>
      </trkpt>
      <trkpt lat="42.2733020" lon="-2.6161860">
        <ele>940.1</ele>
        <time>2022-08-13T12:14:57Z</time>
      </trkpt>
      <trkpt lat="42.2732730" lon="-2.6161340">
        <ele>939.6</ele>
        <time>2022-08-13T12:14:58Z</time>
      </trkpt>
      <trkpt lat="42.2732440" lon="-2.6160810">
        <ele>939.0</ele>
        <time>2022-08-13T12:14:59Z</time>
      </trkpt>
      <trkpt lat="42.2732150" lon="-2.6160250">
        <ele>938.4</ele>
        <time>2022-08-13T12:15:00Z</time>
      </trkpt>
      <trkpt lat="42.2731580" lon="-2.6159100">
        <ele>937.1</ele>
        <time>2022-08-13T12:15:02Z</time>
      </trkpt>
      <trkpt lat="42.2731030" lon="-2.6158170">
        <ele>936.0</ele>
        <time>2022-08-13T12:15:04Z</time>
      </trkpt>
      <trkpt lat="42.2730710" lon="-2.6157970">
        <ele>935.6</ele>
        <time>2022-08-13T12:15:05Z</time>
      </trkpt>
      <trkpt lat="42.2730310" lon="-2.6157940">
        <ele>935.0</ele>
        <time>2022-08-13T12:15:06Z</time>
      </trkpt>
      <trkpt lat="42.2729720" lon="-2.6158420">
        <ele>934.1</ele>
        <time>2022-08-13T12:15:08Z</time>
      </trkpt>
      <trkpt lat="42.2729520" lon="-2.6158840">
        <ele>933.5</ele>
        <time>2022-08-13T12:15:09Z</time>
      </trkpt>
      <trkpt lat="42.2729520" lon="-2.6159970">
        <ele>932.3</ele>
        <time>2022-08-13T12:15:11Z</time>
      </trkpt>
      <trkpt lat="42.2729630" lon="-2.6161480">
        <ele>930.7</ele>
        <time>2022-08-13T12:15:13Z</time>
      </trkpt>
      <trkpt lat="42.2729850" lon="-2.6163270">
        <ele>928.9</ele>
        <time>2022-08-13T12:15:15Z</time>
      </trkpt>
      <trkpt lat="42.2729990" lon="-2.6164240">
        <ele>928.0</ele>
        <time>2022-08-13T12:15:16Z</time>
      </trkpt>
      <trkpt lat="42.2730270" lon="-2.6166310">
        <ele>926.3</ele>
        <time>2022-08-13T12:15:18Z</time>
      </trkpt>
      <trkpt lat="42.2730400" lon="-2.6167360">
        <ele>925.4</ele>
        <time>2022-08-13T12:15:19Z</time>
      </trkpt>
      <trkpt lat="42.2730580" lon="-2.6169560">
        <ele>923.7</ele>
        <time>2022-08-13T12:15:21Z</time>
      </trkpt>
      <trkpt lat="42.2730680" lon="-2.6171740">
        <ele>921.9</ele>
        <time>2022-08-13T12:15:23Z</time>
      </trkpt>
      <trkpt lat="42.2730700" lon="-2.6172810">
        <ele>921.0</ele>
        <time>2022-08-13T12:15:24Z</time>
      </trkpt>
      <trkpt lat="42.2730750" lon="-2.6173850">
        <ele>920.1</ele>
        <time>2022-08-13T12:15:25Z</time>
      </trkpt>
      <trkpt lat="42.2730900" lon="-2.6174890">
        <ele>919.2</ele>
        <time>2022-08-13T12:15:26Z</time>
      </trkpt>
      <trkpt lat="42.2731300" lon="-2.6177000">
        <ele>917.5</ele>
        <time>2022-08-13T12:15:28Z</time>
      </trkpt>
      <trkpt lat="42.2731530" lon="-2.6178100">
        <ele>916.7</ele>
        <time>2022-08-13T12:15:29Z</time>
      </trkpt>
      <trkpt lat="42.2731730" lon="-2.6179230">
        <ele>915.8</ele>
        <time>2022-08-13T12:15:30Z</time>
      </trkpt>
      <trkpt lat="42.2732060" lon="-2.6181510">
        <ele>914.0</ele>
        <time>2022-08-13T12:15:32Z</time>
      </trkpt>
      <trkpt lat="42.2732140" lon="-2.6182680">
        <ele>913.2</ele>
        <time>2022-08-13T12:15:33Z</time>
      </trkpt>
      <trkpt lat="42.2732170" lon="-2.6183880">
        <ele>912.3</ele>
        <time>2022-08-13T12:15:34Z</time>
      </trkpt>
      <trkpt lat="42.2732130" lon="-2.6185070">
        <ele>911.4</ele>
        <time>2022-08-13T12:15:35Z</time>
      </trkpt>
      <trkpt lat="42.2731800" lon="-2.6187560">
        <ele>909.6</ele>
        <time>2022-08-13T12:15:37Z</time>
      </trkpt>
      <trkpt lat="42.2731650" lon="-2.6188430">
        <ele>909.0</ele>
        <time>2022-08-13T12:15:38Z</time>
      </trkpt>
      <trkpt lat="42.2731310" lon="-2.6190490">
        <ele>907.3</ele>
        <time>2022-08-13T12:15:40Z</time>
      </trkpt>
      <trkpt lat="42.2731140" lon="-2.6192400">
        <ele>905.7</ele>
        <time>2022-08-13T12:15:42Z</time>
      </trkpt>
      <trkpt lat="42.2731110" lon="-2.6193470">
        <ele>904.9</ele>
        <time>2022-08-13T12:15:43Z</time>
      </trkpt>
      <trkpt lat="42.2731140" lon="-2.6194320">
        <ele>904.1</ele>
        <time>2022-08-13T12:15:44Z</time>
      </trkpt>
      <trkpt lat="42.2731190" lon="-2.6195160">
        <ele>903.4</ele>
        <time>2022-08-13T12:15:45Z</time>
      </trkpt>
      <trkpt lat="42.2731300" lon="-2.6196050">
        <ele>902.7</ele>
        <time>2022-08-13T12:15:46Z</time>
      </trkpt>
      <trkpt lat="42.2731470" lon="-2.6196900">
        <ele>902.0</ele>
        <time>2022-08-13T12:15:47Z</time>
      </trkpt>
      <trkpt lat="42.2731630" lon="-2.6197740">
        <ele>901.3</ele>
        <time>2022-08-13T12:15:48Z</time>
      </trkpt>
      <trkpt lat="42.2731750" lon="-2.6198540">
        <ele>900.7</ele>
        <time>2022-08-13T12:15:49Z</time>
      </trkpt>
      <trkpt lat="42.2731740" lon="-2.6199310">
        <ele>900.1</ele>
        <time>2022-08-13T12:15:50Z</time>
      </trkpt>
      <trkpt lat="42.2731600" lon="-2.6200070">
        <ele>899.4</ele>
        <time>2022-08-13T12:15:51Z</time>
      </trkpt>
      <trkpt lat="42.2731380" lon="-2.6200680">
        <ele>898.9</ele>
        <time>2022-08-13T12:15:52Z</time>
      </trkpt>
      <trkpt lat="42.2730950" lon="-2.6201520">
        <ele>898.0</ele>
        <time>2022-08-13T12:15:53Z</time>
      </trkpt>
      <trkpt lat="42.2730450" lon="-2.6202140">
        <ele>897.3</ele>
        <time>2022-08-13T12:15:54Z</time>
      </trkpt>
      <trkpt lat="42.2729880" lon="-2.6202670">
        <ele>896.5</ele>
        <time>2022-08-13T12:15:55Z</time>
      </trkpt>
      <trkpt lat="42.2729250" lon="-2.6203140">
        <ele>895.6</ele>
        <time>2022-08-13T12:15:56Z</time>
      </trkpt>
      <trkpt lat="42.2728080" lon="-2.6203790">
        <ele>894.0</ele>
        <time>2022-08-13T12:15:58Z</time>
      </trkpt>
      <trkpt lat="42.2727300" lon="-2.6204110">
        <ele>893.0</ele>
        <time>2022-08-13T12:15:59Z</time>
      </trkpt>
      <trkpt lat="42.2726780" lon="-2.6204200">
        <ele>892.3</ele>
        <time>2022-08-13T12:16:00Z</time>
      </trkpt>
      <trkpt lat="42.2726120" lon="-2.6204200">
        <ele>891.4</ele>
        <time>2022-08-13T12:16:01Z</time>
      </trkpt>
      <trkpt lat="42.2725490" lon="-2.6204060">
        <ele>890.5</ele>
        <time>2022-08-13T12:16:02Z</time>
      </trkpt>
      <trkpt lat="42.2724890" lon="-2.6203840">
        <ele>889.7</ele>
        <time>2022-08-13T12:16:03Z</time>
      </trkpt>
      <trkpt lat="42.2723750" lon="-2.6203100">
        <ele>888.0</ele>
        <time>2022-08-13T12:16:05Z</time>
      </trkpt>
      <trkpt lat="42.2723200" lon="-2.6202630">
        <ele>887.2</ele>
        <time>2022-08-13T12:16:06Z</time>
      </trkpt>
      <trkpt lat="42.2722680" lon="-2.6202180">
        <ele>886.5</ele>
        <time>2022-08-13T12:16:07Z</time>
      </trkpt>
      <trkpt lat="42.2722050" lon="-2.6201710">
        <ele>885.6</ele>
        <time>2022-08-13T12:16:08Z</time>
      </trkpt>
      <trkpt lat="42.2721540" lon="-2.6201380">
        <ele>885.0</ele>
        <time>2022-08-13T12:16:09Z</time>
      </trkpt>
      <trkpt lat="42.2720540" lon="-2.6200840">
        <ele>883.8</ele>
        <time>2022-08-13T12:16:11Z</time>
      </trkpt>
      <trkpt lat="42.2719510" lon="-2.6200230">
        <ele>882.7</ele>
        <time>2022-08-13T12:16:13Z</time>
      </trkpt>
      <trkpt lat="42.2718430" lon="-2.6199560">
        <ele>881.6</ele>
        <time>2022-08-13T12:16:15Z</time>
      </trkpt>
      <trkpt lat="42.2717230" lon="-2.6198910">
        <ele>880.4</ele>
        <time>2022-08-13T12:16:17Z</time>
      </trkpt>
      <trkpt lat="42.2716060" lon="-2.6198390">
        <ele>879.4</ele>
        <time>2022-08-13T12:16:19Z</time>
      </trkpt>
      <trkpt lat="42.2715210" lon="-2.6198020">
        <ele>878.7</ele>
        <time>2022-08-13T12:16:21Z</time>
      </trkpt>
      <trkpt lat="42.2714800" lon="-2.6197990">
        <ele>878.4</ele>
        <time>2022-08-13T12:16:23Z</time>
      </trkpt>
      <trkpt lat="42.2714710" lon="-2.6198210">
        <ele>878.3</ele>
        <time>2022-08-13T12:16:25Z</time>
      </trkpt>
      <trkpt lat="42.2714700" lon="-2.6198200">
        <ele>878.3</ele>
        <time>2022-08-13T12:19:40Z</time>
      </trkpt>
      <trkpt lat="42.2714580" lon="-2.6197990">
        <ele>878.1</ele>
        <time>2022-08-13T12:19:41Z</time>
      </trkpt>
      <trkpt lat="42.2714280" lon="-2.6197350">
        <ele>878.1</ele>
        <time>2022-08-13T12:19:43Z</time>
      </trkpt>
      <trkpt lat="42.2714010" lon="-2.6196970">
        <ele>878.0</ele>
        <time>2022-08-13T12:19:44Z</time>
      </trkpt>
      <trkpt lat="42.2713680" lon="-2.6196620">
        <ele>877.9</ele>
        <time>2022-08-13T12:19:45Z</time>
      </trkpt>
      <trkpt lat="42.2712360" lon="-2.6195160">
        <ele>876.9</ele>
        <time>2022-08-13T12:19:49Z</time>
      </trkpt>
      <trkpt lat="42.2711850" lon="-2.6194590">
        <ele>876.5</ele>
        <time>2022-08-13T12:19:50Z</time>
      </trkpt>
      <trkpt lat="42.2710940" lon="-2.6193470">
        <ele>875.8</ele>
        <time>2022-08-13T12:19:52Z</time>
      </trkpt>
      <trkpt lat="42.2710410" lon="-2.6192970">
        <ele>875.4</ele>
        <time>2022-08-13T12:19:53Z</time>
      </trkpt>
      <trkpt lat="42.2709840" lon="-2.6192570">
        <ele>875.0</ele>
        <time>2022-08-13T12:19:54Z</time>
      </trkpt>
      <trkpt lat="42.2708300" lon="-2.6191650">
        <ele>873.7</ele>
        <time>2022-08-13T12:19:57Z</time>
      </trkpt>
      <trkpt lat="42.2707740" lon="-2.6191350">
        <ele>872.9</ele>
        <time>2022-08-13T12:19:58Z</time>
      </trkpt>
      <trkpt lat="42.2706910" lon="-2.6190850">
        <ele>871.6</ele>
        <time>2022-08-13T12:20:00Z</time>
      </trkpt>
      <trkpt lat="42.2705750" lon="-2.6190330">
        <ele>870.1</ele>
        <time>2022-08-13T12:20:02Z</time>
      </trkpt>
      <trkpt lat="42.2705200" lon="-2.6190090">
        <ele>869.4</ele>
        <time>2022-08-13T12:20:03Z</time>
      </trkpt>
      <trkpt lat="42.2703620" lon="-2.6189290">
        <ele>868.4</ele>
        <time>2022-08-13T12:20:06Z</time>
      </trkpt>
      <trkpt lat="42.2702980" lon="-2.6189030">
        <ele>868.0</ele>
        <time>2022-08-13T12:20:07Z</time>
      </trkpt>
      <trkpt lat="42.2702420" lon="-2.6188750">
        <ele>867.6</ele>
        <time>2022-08-13T12:20:08Z</time>
      </trkpt>
      <trkpt lat="42.2701920" lon="-2.6188490">
        <ele>867.2</ele>
        <time>2022-08-13T12:20:09Z</time>
      </trkpt>
      <trkpt lat="42.2701500" lon="-2.6188010">
        <ele>866.9</ele>
        <time>2022-08-13T12:20:10Z</time>
      </trkpt>
      <trkpt lat="42.2701130" lon="-2.6187450">
        <ele>866.4</ele>
        <time>2022-08-13T12:20:11Z</time>
      </trkpt>
      <trkpt lat="42.2700750" lon="-2.6186820">
        <ele>865.9</ele>
        <time>2022-08-13T12:20:12Z</time>
      </trkpt>
      <trkpt lat="42.2700250" lon="-2.6185450">
        <ele>865.0</ele>
        <time>2022-08-13T12:20:14Z</time>
      </trkpt>
      <trkpt lat="42.2699760" lon="-2.6184700">
        <ele>864.3</ele>
        <time>2022-08-13T12:20:16Z</time>
      </trkpt>
      <trkpt lat="42.2699420" lon="-2.6184540">
        <ele>864.0</ele>
        <time>2022-08-13T12:20:17Z</time>
      </trkpt>
      <trkpt lat="42.2698730" lon="-2.6184560">
        <ele>863.2</ele>
        <time>2022-08-13T12:20:19Z</time>
      </trkpt>
      <trkpt lat="42.2698220" lon="-2.6184570">
        <ele>862.7</ele>
        <time>2022-08-13T12:20:20Z</time>
      </trkpt>
      <trkpt lat="42.2697450" lon="-2.6184480">
        <ele>861.8</ele>
        <time>2022-08-13T12:20:22Z</time>
      </trkpt>
      <trkpt lat="42.2697040" lon="-2.6184440">
        <ele>861.4</ele>
        <time>2022-08-13T12:20:23Z</time>
      </trkpt>
      <trkpt lat="42.2696280" lon="-2.6184360">
        <ele>860.6</ele>
        <time>2022-08-13T12:20:25Z</time>
      </trkpt>
      <trkpt lat="42.2695850" lon="-2.6184410">
        <ele>860.1</ele>
        <time>2022-08-13T12:20:26Z</time>
      </trkpt>
      <trkpt lat="42.2695540" lon="-2.6184430">
        <ele>859.5</ele>
        <time>2022-08-13T12:20:27Z</time>
      </trkpt>
      <trkpt lat="42.2695220" lon="-2.6184420">
        <ele>859.0</ele>
        <time>2022-08-13T12:20:28Z</time>
      </trkpt>
      <trkpt lat="42.2693830" lon="-2.6184440">
        <ele>856.7</ele>
        <time>2022-08-13T12:20:31Z</time>
      </trkpt>
      <trkpt lat="42.2693280" lon="-2.6184510">
        <ele>855.8</ele>
        <time>2022-08-13T12:20:32Z</time>
      </trkpt>
      <trkpt lat="42.2692700" lon="-2.6184630">
        <ele>854.9</ele>
        <time>2022-08-13T12:20:33Z</time>
      </trkpt>
      <trkpt lat="42.2691790" lon="-2.6184940">
        <ele>853.5</ele>
        <time>2022-08-13T12:20:35Z</time>
      </trkpt>
      <trkpt lat="42.2690980" lon="-2.6185260">
        <ele>852.3</ele>
        <time>2022-08-13T12:20:37Z</time>
      </trkpt>
      <trkpt lat="42.2690710" lon="-2.6185340">
        <ele>851.8</ele>
        <time>2022-08-13T12:20:38Z</time>
      </trkpt>
      <trkpt lat="42.2690290" lon="-2.6185360">
        <ele>851.4</ele>
        <time>2022-08-13T12:20:40Z</time>
      </trkpt>
      <trkpt lat="42.2689950" lon="-2.6185170">
        <ele>851.3</ele>
        <time>2022-08-13T12:20:42Z</time>
      </trkpt>
      <trkpt lat="42.2689800" lon="-2.6184970">
        <ele>851.2</ele>
        <time>2022-08-13T12:20:43Z</time>
      </trkpt>
      <trkpt lat="42.2689650" lon="-2.6184650">
        <ele>851.1</ele>
        <time>2022-08-13T12:20:44Z</time>
      </trkpt>
      <trkpt lat="42.2689520" lon="-2.6184280">
        <ele>851.0</ele>
        <time>2022-08-13T12:20:45Z</time>
      </trkpt>
      <trkpt lat="42.2689300" lon="-2.6183580">
        <ele>850.6</ele>
        <time>2022-08-13T12:20:47Z</time>
      </trkpt>
      <trkpt lat="42.2689100" lon="-2.6183190">
        <ele>850.4</ele>
        <time>2022-08-13T12:20:48Z</time>
      </trkpt>
      <trkpt lat="42.2688180" lon="-2.6181660">
        <ele>849.5</ele>
        <time>2022-08-13T12:20:51Z</time>
      </trkpt>
      <trkpt lat="42.2687880" lon="-2.6181150">
        <ele>849.2</ele>
        <time>2022-08-13T12:20:52Z</time>
      </trkpt>
      <trkpt lat="42.2686230" lon="-2.6178290">
        <ele>847.5</ele>
        <time>2022-08-13T12:20:56Z</time>
      </trkpt>
      <trkpt lat="42.2685220" lon="-2.6176980">
        <ele>846.7</ele>
        <time>2022-08-13T12:20:58Z</time>
      </trkpt>
      <trkpt lat="42.2684580" lon="-2.6176300">
        <ele>846.2</ele>
        <time>2022-08-13T12:20:59Z</time>
      </trkpt>
      <trkpt lat="42.2683270" lon="-2.6175100">
        <ele>845.3</ele>
        <time>2022-08-13T12:21:01Z</time>
      </trkpt>
      <trkpt lat="42.2680860" lon="-2.6172730">
        <ele>843.6</ele>
        <time>2022-08-13T12:21:05Z</time>
      </trkpt>
      <trkpt lat="42.2679750" lon="-2.6171480">
        <ele>842.8</ele>
        <time>2022-08-13T12:21:07Z</time>
      </trkpt>
      <trkpt lat="42.2679190" lon="-2.6170700">
        <ele>842.3</ele>
        <time>2022-08-13T12:21:08Z</time>
      </trkpt>
      <trkpt lat="42.2677410" lon="-2.6167560">
        <ele>840.8</ele>
        <time>2022-08-13T12:21:12Z</time>
      </trkpt>
      <trkpt lat="42.2676220" lon="-2.6165100">
        <ele>839.6</ele>
        <time>2022-08-13T12:21:15Z</time>
      </trkpt>
      <trkpt lat="42.2674460" lon="-2.6160350">
        <ele>837.4</ele>
        <time>2022-08-13T12:21:20Z</time>
      </trkpt>
      <trkpt lat="42.2674250" lon="-2.6159390">
        <ele>836.9</ele>
        <time>2022-08-13T12:21:21Z</time>
      </trkpt>
      <trkpt lat="42.2673750" lon="-2.6157510">
        <ele>836.1</ele>
        <time>2022-08-13T12:21:23Z</time>
      </trkpt>
      <trkpt lat="42.2673300" lon="-2.6155630">
        <ele>835.2</ele>
        <time>2022-08-13T12:21:25Z</time>
      </trkpt>
      <trkpt lat="42.2673140" lon="-2.6154660">
        <ele>834.8</ele>
        <time>2022-08-13T12:21:26Z</time>
      </trkpt>
      <trkpt lat="42.2673010" lon="-2.6153680">
        <ele>834.4</ele>
        <time>2022-08-13T12:21:27Z</time>
      </trkpt>
      <trkpt lat="42.2672930" lon="-2.6152900">
        <ele>834.0</ele>
        <time>2022-08-13T12:21:28Z</time>
      </trkpt>
      <trkpt lat="42.2672690" lon="-2.6150940">
        <ele>833.2</ele>
        <time>2022-08-13T12:21:30Z</time>
      </trkpt>
      <trkpt lat="42.2672360" lon="-2.6148960">
        <ele>832.3</ele>
        <time>2022-08-13T12:21:32Z</time>
      </trkpt>
      <trkpt lat="42.2672150" lon="-2.6148030">
        <ele>831.8</ele>
        <time>2022-08-13T12:21:33Z</time>
      </trkpt>
      <trkpt lat="42.2671880" lon="-2.6147100">
        <ele>831.3</ele>
        <time>2022-08-13T12:21:34Z</time>
      </trkpt>
      <trkpt lat="42.2670940" lon="-2.6144500">
        <ele>829.8</ele>
        <time>2022-08-13T12:21:37Z</time>
      </trkpt>
      <trkpt lat="42.2670580" lon="-2.6143650">
        <ele>829.2</ele>
        <time>2022-08-13T12:21:38Z</time>
      </trkpt>
      <trkpt lat="42.2669870" lon="-2.6141880">
        <ele>828.0</ele>
        <time>2022-08-13T12:21:40Z</time>
      </trkpt>
      <trkpt lat="42.2669490" lon="-2.6140950">
        <ele>827.4</ele>
        <time>2022-08-13T12:21:41Z</time>
      </trkpt>
      <trkpt lat="42.2669100" lon="-2.6140050">
        <ele>826.8</ele>
        <time>2022-08-13T12:21:42Z</time>
      </trkpt>
      <trkpt lat="42.2667670" lon="-2.6136580">
        <ele>824.5</ele>
        <time>2022-08-13T12:21:46Z</time>
      </trkpt>
      <trkpt lat="42.2667100" lon="-2.6135020">
        <ele>823.6</ele>
        <time>2022-08-13T12:21:48Z</time>
      </trkpt>
      <trkpt lat="42.2666850" lon="-2.6134280">
        <ele>823.2</ele>
        <time>2022-08-13T12:21:49Z</time>
      </trkpt>
      <trkpt lat="42.2666590" lon="-2.6133600">
        <ele>822.8</ele>
        <time>2022-08-13T12:21:50Z</time>
      </trkpt>
      <trkpt lat="42.2666260" lon="-2.6132990">
        <ele>822.3</ele>
        <time>2022-08-13T12:21:51Z</time>
      </trkpt>
      <trkpt lat="42.2665830" lon="-2.6132540">
        <ele>821.9</ele>
        <time>2022-08-13T12:21:52Z</time>
      </trkpt>
      <trkpt lat="42.2665250" lon="-2.6132340">
        <ele>821.3</ele>
        <time>2022-08-13T12:21:53Z</time>
      </trkpt>
      <trkpt lat="42.2664620" lon="-2.6132390">
        <ele>820.7</ele>
        <time>2022-08-13T12:21:54Z</time>
      </trkpt>
      <trkpt lat="42.2664010" lon="-2.6132620">
        <ele>820.1</ele>
        <time>2022-08-13T12:21:55Z</time>
      </trkpt>
      <trkpt lat="42.2663450" lon="-2.6133010">
        <ele>819.5</ele>
        <time>2022-08-13T12:21:56Z</time>
      </trkpt>
      <trkpt lat="42.2662560" lon="-2.6134230">
        <ele>818.3</ele>
        <time>2022-08-13T12:21:58Z</time>
      </trkpt>
      <trkpt lat="42.2661910" lon="-2.6135840">
        <ele>817.1</ele>
        <time>2022-08-13T12:22:00Z</time>
      </trkpt>
      <trkpt lat="42.2661700" lon="-2.6136650">
        <ele>816.6</ele>
        <time>2022-08-13T12:22:01Z</time>
      </trkpt>
      <trkpt lat="42.2661530" lon="-2.6137440">
        <ele>816.1</ele>
        <time>2022-08-13T12:22:02Z</time>
      </trkpt>
      <trkpt lat="42.2661110" lon="-2.6138890">
        <ele>815.2</ele>
        <time>2022-08-13T12:22:04Z</time>
      </trkpt>
      <trkpt lat="42.2660410" lon="-2.6139900">
        <ele>814.3</ele>
        <time>2022-08-13T12:22:06Z</time>
      </trkpt>
      <trkpt lat="42.2659480" lon="-2.6139940">
        <ele>813.4</ele>
        <time>2022-08-13T12:22:08Z</time>
      </trkpt>
      <trkpt lat="42.2659050" lon="-2.6139790">
        <ele>812.9</ele>
        <time>2022-08-13T12:22:09Z</time>
      </trkpt>
      <trkpt lat="42.2658760" lon="-2.6139380">
        <ele>812.6</ele>
        <time>2022-08-13T12:22:10Z</time>
      </trkpt>
      <trkpt lat="42.2658730" lon="-2.6138750">
        <ele>812.1</ele>
        <time>2022-08-13T12:22:11Z</time>
      </trkpt>
      <trkpt lat="42.2658810" lon="-2.6137860">
        <ele>811.6</ele>
        <time>2022-08-13T12:22:12Z</time>
      </trkpt>
      <trkpt lat="42.2658970" lon="-2.6136860">
        <ele>811.1</ele>
        <time>2022-08-13T12:22:13Z</time>
      </trkpt>
      <trkpt lat="42.2659160" lon="-2.6135840">
        <ele>810.6</ele>
        <time>2022-08-13T12:22:14Z</time>
      </trkpt>
      <trkpt lat="42.2659380" lon="-2.6134820">
        <ele>810.2</ele>
        <time>2022-08-13T12:22:15Z</time>
      </trkpt>
      <trkpt lat="42.2659610" lon="-2.6133770">
        <ele>809.7</ele>
        <time>2022-08-13T12:22:16Z</time>
      </trkpt>
      <trkpt lat="42.2660460" lon="-2.6130820">
        <ele>808.5</ele>
        <time>2022-08-13T12:22:19Z</time>
      </trkpt>
      <trkpt lat="42.2660810" lon="-2.6129920">
        <ele>808.0</ele>
        <time>2022-08-13T12:22:20Z</time>
      </trkpt>
      <trkpt lat="42.2661200" lon="-2.6129050">
        <ele>807.6</ele>
        <time>2022-08-13T12:22:21Z</time>
      </trkpt>
      <trkpt lat="42.2661600" lon="-2.6128170">
        <ele>807.1</ele>
        <time>2022-08-13T12:22:22Z</time>
      </trkpt>
      <trkpt lat="42.2662330" lon="-2.6126250">
        <ele>806.0</ele>
        <time>2022-08-13T12:22:24Z</time>
      </trkpt>
      <trkpt lat="42.2662580" lon="-2.6125130">
        <ele>805.3</ele>
        <time>2022-08-13T12:22:25Z</time>
      </trkpt>
      <trkpt lat="42.2662730" lon="-2.6124010">
        <ele>804.6</ele>
        <time>2022-08-13T12:22:26Z</time>
      </trkpt>
      <trkpt lat="42.2662800" lon="-2.6122930">
        <ele>803.9</ele>
        <time>2022-08-13T12:22:27Z</time>
      </trkpt>
      <trkpt lat="42.2662840" lon="-2.6121650">
        <ele>803.1</ele>
        <time>2022-08-13T12:22:28Z</time>
      </trkpt>
      <trkpt lat="42.2662910" lon="-2.6119750">
        <ele>801.9</ele>
        <time>2022-08-13T12:22:30Z</time>
      </trkpt>
      <trkpt lat="42.2663050" lon="-2.6117540">
        <ele>800.5</ele>
        <time>2022-08-13T12:22:32Z</time>
      </trkpt>
      <trkpt lat="42.2663160" lon="-2.6115130">
        <ele>798.9</ele>
        <time>2022-08-13T12:22:34Z</time>
      </trkpt>
      <trkpt lat="42.2663300" lon="-2.6113410">
        <ele>797.7</ele>
        <time>2022-08-13T12:22:36Z</time>
      </trkpt>
      <trkpt lat="42.2663460" lon="-2.6112390">
        <ele>797.0</ele>
        <time>2022-08-13T12:22:37Z</time>
      </trkpt>
      <trkpt lat="42.2663680" lon="-2.6111770">
        <ele>796.5</ele>
        <time>2022-08-13T12:22:38Z</time>
      </trkpt>
      <trkpt lat="42.2664190" lon="-2.6110920">
        <ele>795.6</ele>
        <time>2022-08-13T12:22:39Z</time>
      </trkpt>
      <trkpt lat="42.2664680" lon="-2.6110450">
        <ele>795.0</ele>
        <time>2022-08-13T12:22:40Z</time>
      </trkpt>
      <trkpt lat="42.2665320" lon="-2.6109970">
        <ele>794.3</ele>
        <time>2022-08-13T12:22:41Z</time>
      </trkpt>
      <trkpt lat="42.2666570" lon="-2.6108920">
        <ele>792.9</ele>
        <time>2022-08-13T12:22:43Z</time>
      </trkpt>
      <trkpt lat="42.2667120" lon="-2.6108150">
        <ele>792.1</ele>
        <time>2022-08-13T12:22:44Z</time>
      </trkpt>
      <trkpt lat="42.2667310" lon="-2.6107570">
        <ele>791.6</ele>
        <time>2022-08-13T12:22:45Z</time>
      </trkpt>
      <trkpt lat="42.2667170" lon="-2.6106030">
        <ele>790.4</ele>
        <time>2022-08-13T12:22:47Z</time>
      </trkpt>
      <trkpt lat="42.2666320" lon="-2.6104580">
        <ele>789.2</ele>
        <time>2022-08-13T12:22:49Z</time>
      </trkpt>
      <trkpt lat="42.2665910" lon="-2.6103770">
        <ele>788.4</ele>
        <time>2022-08-13T12:22:50Z</time>
      </trkpt>
      <trkpt lat="42.2665570" lon="-2.6102720">
        <ele>787.4</ele>
        <time>2022-08-13T12:22:51Z</time>
      </trkpt>
      <trkpt lat="42.2665470" lon="-2.6101750">
        <ele>786.5</ele>
        <time>2022-08-13T12:22:52Z</time>
      </trkpt>
      <trkpt lat="42.2665650" lon="-2.6099950">
        <ele>785.0</ele>
        <time>2022-08-13T12:22:54Z</time>
      </trkpt>
      <trkpt lat="42.2666060" lon="-2.6098730">
        <ele>783.8</ele>
        <time>2022-08-13T12:22:55Z</time>
      </trkpt>
      <trkpt lat="42.2666430" lon="-2.6097970">
        <ele>783.0</ele>
        <time>2022-08-13T12:22:56Z</time>
      </trkpt>
      <trkpt lat="42.2667030" lon="-2.6096900">
        <ele>781.8</ele>
        <time>2022-08-13T12:22:57Z</time>
      </trkpt>
      <trkpt lat="42.2668050" lon="-2.6095370">
        <ele>780.1</ele>
        <time>2022-08-13T12:22:59Z</time>
      </trkpt>
      <trkpt lat="42.2669380" lon="-2.6093680">
        <ele>778.2</ele>
        <time>2022-08-13T12:23:01Z</time>
      </trkpt>
      <trkpt lat="42.2670000" lon="-2.6093000">
        <ele>777.4</ele>
        <time>2022-08-13T12:23:02Z</time>
      </trkpt>
      <trkpt lat="42.2671160" lon="-2.6091570">
        <ele>775.6</ele>
        <time>2022-08-13T12:23:04Z</time>
      </trkpt>
      <trkpt lat="42.2672000" lon="-2.6089870">
        <ele>773.8</ele>
        <time>2022-08-13T12:23:06Z</time>
      </trkpt>
      <trkpt lat="42.2672650" lon="-2.6088210">
        <ele>772.1</ele>
        <time>2022-08-13T12:23:08Z</time>
      </trkpt>
      <trkpt lat="42.2673510" lon="-2.6086170">
        <ele>770.0</ele>
        <time>2022-08-13T12:23:10Z</time>
      </trkpt>
      <trkpt lat="42.2673860" lon="-2.6085430">
        <ele>769.3</ele>
        <time>2022-08-13T12:23:11Z</time>
      </trkpt>
      <trkpt lat="42.2674390" lon="-2.6084320">
        <ele>768.3</ele>
        <time>2022-08-13T12:23:12Z</time>
      </trkpt>
      <trkpt lat="42.2674870" lon="-2.6083370">
        <ele>767.6</ele>
        <time>2022-08-13T12:23:13Z</time>
      </trkpt>
      <trkpt lat="42.2675820" lon="-2.6081450">
        <ele>766.4</ele>
        <time>2022-08-13T12:23:15Z</time>
      </trkpt>
      <trkpt lat="42.2676640" lon="-2.6079700">
        <ele>765.4</ele>
        <time>2022-08-13T12:23:17Z</time>
      </trkpt>
      <trkpt lat="42.2677610" lon="-2.6077710">
        <ele>764.2</ele>
        <time>2022-08-13T12:23:19Z</time>
      </trkpt>
      <trkpt lat="42.2678400" lon="-2.6076080">
        <ele>763.3</ele>
        <time>2022-08-13T12:23:21Z</time>
      </trkpt>
      <trkpt lat="42.2679280" lon="-2.6074200">
        <ele>762.5</ele>
        <time>2022-08-13T12:23:23Z</time>
      </trkpt>
      <trkpt lat="42.2680160" lon="-2.6072300">
        <ele>761.9</ele>
        <time>2022-08-13T12:23:25Z</time>
      </trkpt>
      <trkpt lat="42.2680530" lon="-2.6071510">
        <ele>761.7</ele>
        <time>2022-08-13T12:23:26Z</time>
      </trkpt>
      <trkpt lat="42.2681230" lon="-2.6070000">
        <ele>761.3</ele>
        <time>2022-08-13T12:23:28Z</time>
      </trkpt>
      <trkpt lat="42.2681910" lon="-2.6068220">
        <ele>760.6</ele>
        <time>2022-08-13T12:23:31Z</time>
      </trkpt>
      <trkpt lat="42.2681890" lon="-2.6067740">
        <ele>760.3</ele>
        <time>2022-08-13T12:23:32Z</time>
      </trkpt>
      <trkpt lat="42.2681740" lon="-2.6067260">
        <ele>759.9</ele>
        <time>2022-08-13T12:23:33Z</time>
      </trkpt>
      <trkpt lat="42.2681410" lon="-2.6066900">
        <ele>759.4</ele>
        <time>2022-08-13T12:23:34Z</time>
      </trkpt>
      <trkpt lat="42.2681000" lon="-2.6066830">
        <ele>758.8</ele>
        <time>2022-08-13T12:23:35Z</time>
      </trkpt>
      <trkpt lat="42.2680600" lon="-2.6067090">
        <ele>758.3</ele>
        <time>2022-08-13T12:23:36Z</time>
      </trkpt>
      <trkpt lat="42.2680280" lon="-2.6067560">
        <ele>757.7</ele>
        <time>2022-08-13T12:23:37Z</time>
      </trkpt>
      <trkpt lat="42.2680060" lon="-2.6068160">
        <ele>757.3</ele>
        <time>2022-08-13T12:23:38Z</time>
      </trkpt>
      <trkpt lat="42.2679920" lon="-2.6068790">
        <ele>756.9</ele>
        <time>2022-08-13T12:23:39Z</time>
      </trkpt>
      <trkpt lat="42.2679830" lon="-2.6069400">
        <ele>756.6</ele>
        <time>2022-08-13T12:23:40Z</time>
      </trkpt>
      <trkpt lat="42.2679700" lon="-2.6070040">
        <ele>756.3</ele>
        <time>2022-08-13T12:23:41Z</time>
      </trkpt>
      <trkpt lat="42.2679520" lon="-2.6070670">
        <ele>756.1</ele>
        <time>2022-08-13T12:23:42Z</time>
      </trkpt>
      <trkpt lat="42.2679290" lon="-2.6071130">
        <ele>755.9</ele>
        <time>2022-08-13T12:23:43Z</time>
      </trkpt>
      <trkpt lat="42.2678580" lon="-2.6071250">
        <ele>755.4</ele>
        <time>2022-08-13T12:23:45Z</time>
      </trkpt>
      <trkpt lat="42.2678250" lon="-2.6071060">
        <ele>755.1</ele>
        <time>2022-08-13T12:23:46Z</time>
      </trkpt>
      <trkpt lat="42.2678080" lon="-2.6070660">
        <ele>754.8</ele>
        <time>2022-08-13T12:23:47Z</time>
      </trkpt>
      <trkpt lat="42.2678110" lon="-2.6070090">
        <ele>754.3</ele>
        <time>2022-08-13T12:23:48Z</time>
      </trkpt>
      <trkpt lat="42.2678240" lon="-2.6069440">
        <ele>753.8</ele>
        <time>2022-08-13T12:23:49Z</time>
      </trkpt>
      <trkpt lat="42.2678420" lon="-2.6068740">
        <ele>753.3</ele>
        <time>2022-08-13T12:23:50Z</time>
      </trkpt>
      <trkpt lat="42.2678600" lon="-2.6068000">
        <ele>752.7</ele>
        <time>2022-08-13T12:23:51Z</time>
      </trkpt>
      <trkpt lat="42.2678770" lon="-2.6067130">
        <ele>752.1</ele>
        <time>2022-08-13T12:23:52Z</time>
      </trkpt>
      <trkpt lat="42.2678900" lon="-2.6065090">
        <ele>750.9</ele>
        <time>2022-08-13T12:23:54Z</time>
      </trkpt>
      <trkpt lat="42.2678810" lon="-2.6064060">
        <ele>750.3</ele>
        <time>2022-08-13T12:23:55Z</time>
      </trkpt>
      <trkpt lat="42.2678650" lon="-2.6062930">
        <ele>749.5</ele>
        <time>2022-08-13T12:23:56Z</time>
      </trkpt>
      <trkpt lat="42.2678310" lon="-2.6060550">
        <ele>747.9</ele>
        <time>2022-08-13T12:23:58Z</time>
      </trkpt>
      <trkpt lat="42.2677820" lon="-2.6058100">
        <ele>746.1</ele>
        <time>2022-08-13T12:24:00Z</time>
      </trkpt>
      <trkpt lat="42.2677540" lon="-2.6056860">
        <ele>745.2</ele>
        <time>2022-08-13T12:24:01Z</time>
      </trkpt>
      <trkpt lat="42.2676930" lon="-2.6054410">
        <ele>743.7</ele>
        <time>2022-08-13T12:24:03Z</time>
      </trkpt>
      <trkpt lat="42.2676500" lon="-2.6051880">
        <ele>742.4</ele>
        <time>2022-08-13T12:24:05Z</time>
      </trkpt>
      <trkpt lat="42.2676390" lon="-2.6050580">
        <ele>741.8</ele>
        <time>2022-08-13T12:24:06Z</time>
      </trkpt>
      <trkpt lat="42.2676410" lon="-2.6048020">
        <ele>740.9</ele>
        <time>2022-08-13T12:24:08Z</time>
      </trkpt>
      <trkpt lat="42.2676490" lon="-2.6045580">
        <ele>740.5</ele>
        <time>2022-08-13T12:24:10Z</time>
      </trkpt>
      <trkpt lat="42.2676520" lon="-2.6044540">
        <ele>740.4</ele>
        <time>2022-08-13T12:24:11Z</time>
      </trkpt>
      <trkpt lat="42.2676460" lon="-2.6043150">
        <ele>740.0</ele>
        <time>2022-08-13T12:24:13Z</time>
      </trkpt>
      <trkpt lat="42.2676270" lon="-2.6042710">
        <ele>739.7</ele>
        <time>2022-08-13T12:24:14Z</time>
      </trkpt>
      <trkpt lat="42.2675580" lon="-2.6042350">
        <ele>738.8</ele>
        <time>2022-08-13T12:24:16Z</time>
      </trkpt>
      <trkpt lat="42.2675280" lon="-2.6042620">
        <ele>738.2</ele>
        <time>2022-08-13T12:24:17Z</time>
      </trkpt>
      <trkpt lat="42.2675080" lon="-2.6043770">
        <ele>736.8</ele>
        <time>2022-08-13T12:24:19Z</time>
      </trkpt>
      <trkpt lat="42.2675090" lon="-2.6044460">
        <ele>735.9</ele>
        <time>2022-08-13T12:24:20Z</time>
      </trkpt>
      <trkpt lat="42.2675080" lon="-2.6045260">
        <ele>735.0</ele>
        <time>2022-08-13T12:24:21Z</time>
      </trkpt>
      <trkpt lat="42.2675040" lon="-2.6046140">
        <ele>734.2</ele>
        <time>2022-08-13T12:24:22Z</time>
      </trkpt>
      <trkpt lat="42.2674950" lon="-2.6047060">
        <ele>733.5</ele>
        <time>2022-08-13T12:24:23Z</time>
      </trkpt>
      <trkpt lat="42.2674650" lon="-2.6049090">
        <ele>732.1</ele>
        <time>2022-08-13T12:24:25Z</time>
      </trkpt>
      <trkpt lat="42.2674190" lon="-2.6051310">
        <ele>730.6</ele>
        <time>2022-08-13T12:24:27Z</time>
      </trkpt>
      <trkpt lat="42.2673410" lon="-2.6054610">
        <ele>728.4</ele>
        <time>2022-08-13T12:24:30Z</time>
      </trkpt>
      <trkpt lat="42.2673170" lon="-2.6055760">
        <ele>727.7</ele>
        <time>2022-08-13T12:24:31Z</time>
      </trkpt>
      <trkpt lat="42.2672910" lon="-2.6057100">
        <ele>727.0</ele>
        <time>2022-08-13T12:24:32Z</time>
      </trkpt>
      <trkpt lat="42.2672330" lon="-2.6059330">
        <ele>725.8</ele>
        <time>2022-08-13T12:24:34Z</time>
      </trkpt>
      <trkpt lat="42.2672020" lon="-2.6060330">
        <ele>725.3</ele>
        <time>2022-08-13T12:24:35Z</time>
      </trkpt>
      <trkpt lat="42.2671670" lon="-2.6061180">
        <ele>724.8</ele>
        <time>2022-08-13T12:24:36Z</time>
      </trkpt>
      <trkpt lat="42.2670450" lon="-2.6062460">
        <ele>723.7</ele>
        <time>2022-08-13T12:24:38Z</time>
      </trkpt>
      <trkpt lat="42.2669570" lon="-2.6062940">
        <ele>723.0</ele>
        <time>2022-08-13T12:24:39Z</time>
      </trkpt>
      <trkpt lat="42.2668670" lon="-2.6063160">
        <ele>722.6</ele>
        <time>2022-08-13T12:24:40Z</time>
      </trkpt>
      <trkpt lat="42.2666800" lon="-2.6063110">
        <ele>721.8</ele>
        <time>2022-08-13T12:24:42Z</time>
      </trkpt>
      <trkpt lat="42.2665900" lon="-2.6062960">
        <ele>721.6</ele>
        <time>2022-08-13T12:24:43Z</time>
      </trkpt>
      <trkpt lat="42.2665240" lon="-2.6062730">
        <ele>721.5</ele>
        <time>2022-08-13T12:24:44Z</time>
      </trkpt>
      <trkpt lat="42.2664350" lon="-2.6062190">
        <ele>721.2</ele>
        <time>2022-08-13T12:24:45Z</time>
      </trkpt>
      <trkpt lat="42.2663130" lon="-2.6061150">
        <ele>720.7</ele>
        <time>2022-08-13T12:24:47Z</time>
      </trkpt>
      <trkpt lat="42.2662740" lon="-2.6060770">
        <ele>720.5</ele>
        <time>2022-08-13T12:24:48Z</time>
      </trkpt>
      <trkpt lat="42.2662250" lon="-2.6060310">
        <ele>720.1</ele>
        <time>2022-08-13T12:24:49Z</time>
      </trkpt>
      <trkpt lat="42.2661920" lon="-2.6060030">
        <ele>719.8</ele>
        <time>2022-08-13T12:24:50Z</time>
      </trkpt>
      <trkpt lat="42.2661430" lon="-2.6059710">
        <ele>718.2</ele>
        <time>2022-08-13T12:24:52Z</time>
      </trkpt>
      <trkpt lat="42.2661290" lon="-2.6059670">
        <ele>718.2</ele>
        <time>2022-08-13T12:24:53Z</time>
      </trkpt>
      <trkpt lat="42.2661310" lon="-2.6059530">
        <ele>718.2</ele>
        <time>2022-08-13T12:24:57Z</time>
      </trkpt>
      <trkpt lat="42.2661310" lon="-2.6059560">
        <ele>718.2</ele>
        <time>2022-08-13T12:24:58Z</time>
      </trkpt>
      <trkpt lat="42.2661310" lon="-2.6059560">
        <ele>718.2</ele>
        <time>2022-08-13T12:25:00Z</time>
      </trkpt>
      <trkpt lat="42.2661280" lon="-2.6059560">
        <ele>718.2</ele>
        <time>2022-08-13T12:26:20Z</time>
      </trkpt>
      <trkpt lat="42.2661090" lon="-2.6059700">
        <ele>718.2</ele>
        <time>2022-08-13T12:26:21Z</time>
      </trkpt>
      <trkpt lat="42.2660910" lon="-2.6059920">
        <ele>718.2</ele>
        <time>2022-08-13T12:26:22Z</time>
      </trkpt>
      <trkpt lat="42.2660730" lon="-2.6060210">
        <ele>718.3</ele>
        <time>2022-08-13T12:26:23Z</time>
      </trkpt>
      <trkpt lat="42.2659930" lon="-2.6061860">
        <ele>718.4</ele>
        <time>2022-08-13T12:26:27Z</time>
      </trkpt>
      <trkpt lat="42.2659650" lon="-2.6062330">
        <ele>718.4</ele>
        <time>2022-08-13T12:26:28Z</time>
      </trkpt>
      <trkpt lat="42.2659160" lon="-2.6063240">
        <ele>718.5</ele>
        <time>2022-08-13T12:26:30Z</time>
      </trkpt>
      <trkpt lat="42.2658750" lon="-2.6064120">
        <ele>718.6</ele>
        <time>2022-08-13T12:26:32Z</time>
      </trkpt>
      <trkpt lat="42.2658150" lon="-2.6065370">
        <ele>718.8</ele>
        <time>2022-08-13T12:26:35Z</time>
      </trkpt>
      <trkpt lat="42.2656970" lon="-2.6067760">
        <ele>719.1</ele>
        <time>2022-08-13T12:26:40Z</time>
      </trkpt>
      <trkpt lat="42.2656200" lon="-2.6069320">
        <ele>719.3</ele>
        <time>2022-08-13T12:26:43Z</time>
      </trkpt>
      <trkpt lat="42.2655930" lon="-2.6069880">
        <ele>719.4</ele>
        <time>2022-08-13T12:26:44Z</time>
      </trkpt>
      <trkpt lat="42.2654860" lon="-2.6071990">
        <ele>719.7</ele>
        <time>2022-08-13T12:26:48Z</time>
      </trkpt>
      <trkpt lat="42.2654070" lon="-2.6073650">
        <ele>719.9</ele>
        <time>2022-08-13T12:26:51Z</time>
      </trkpt>
      <trkpt lat="42.2653810" lon="-2.6074170">
        <ele>720.0</ele>
        <time>2022-08-13T12:26:52Z</time>
      </trkpt>
      <trkpt lat="42.2653300" lon="-2.6075260">
        <ele>720.2</ele>
        <time>2022-08-13T12:26:54Z</time>
      </trkpt>
      <trkpt lat="42.2650370" lon="-2.6081450">
        <ele>721.4</ele>
        <time>2022-08-13T12:27:06Z</time>
      </trkpt>
      <trkpt lat="42.2649080" lon="-2.6083940">
        <ele>722.0</ele>
        <time>2022-08-13T12:27:11Z</time>
      </trkpt>
      <trkpt lat="42.2647680" lon="-2.6086890">
        <ele>722.6</ele>
        <time>2022-08-13T12:27:17Z</time>
      </trkpt>
      <trkpt lat="42.2645680" lon="-2.6090890">
        <ele>723.0</ele>
        <time>2022-08-13T12:27:25Z</time>
      </trkpt>
      <trkpt lat="42.2644170" lon="-2.6093710">
        <ele>723.0</ele>
        <time>2022-08-13T12:27:30Z</time>
      </trkpt>
      <trkpt lat="42.2643530" lon="-2.6094880">
        <ele>722.9</ele>
        <time>2022-08-13T12:27:32Z</time>
      </trkpt>
      <trkpt lat="42.2642900" lon="-2.6096060">
        <ele>722.7</ele>
        <time>2022-08-13T12:27:34Z</time>
      </trkpt>
      <trkpt lat="42.2640240" lon="-2.6099570">
        <ele>722.0</ele>
        <time>2022-08-13T12:27:40Z</time>
      </trkpt>
      <trkpt lat="42.2637620" lon="-2.6102490">
        <ele>721.4</ele>
        <time>2022-08-13T12:27:45Z</time>
      </trkpt>
      <trkpt lat="42.2635440" lon="-2.6104940">
        <ele>720.9</ele>
        <time>2022-08-13T12:27:49Z</time>
      </trkpt>
      <trkpt lat="42.2633160" lon="-2.6107270">
        <ele>720.5</ele>
        <time>2022-08-13T12:27:53Z</time>
      </trkpt>
      <trkpt lat="42.2632030" lon="-2.6108270">
        <ele>720.5</ele>
        <time>2022-08-13T12:27:55Z</time>
      </trkpt>
      <trkpt lat="42.2628570" lon="-2.6110690">
        <ele>720.8</ele>
        <time>2022-08-13T12:28:01Z</time>
      </trkpt>
      <trkpt lat="42.2626830" lon="-2.6111620">
        <ele>720.9</ele>
        <time>2022-08-13T12:28:04Z</time>
      </trkpt>
      <trkpt lat="42.2626220" lon="-2.6111910">
        <ele>720.9</ele>
        <time>2022-08-13T12:28:05Z</time>
      </trkpt>
      <trkpt lat="42.2625580" lon="-2.6112200">
        <ele>721.0</ele>
        <time>2022-08-13T12:28:06Z</time>
      </trkpt>
      <trkpt lat="42.2624980" lon="-2.6112450">
        <ele>721.1</ele>
        <time>2022-08-13T12:28:07Z</time>
      </trkpt>
      <trkpt lat="42.2624370" lon="-2.6112690">
        <ele>721.1</ele>
        <time>2022-08-13T12:28:08Z</time>
      </trkpt>
      <trkpt lat="42.2623100" lon="-2.6113070">
        <ele>721.3</ele>
        <time>2022-08-13T12:28:10Z</time>
      </trkpt>
      <trkpt lat="42.2620540" lon="-2.6113650">
        <ele>721.6</ele>
        <time>2022-08-13T12:28:14Z</time>
      </trkpt>
      <trkpt lat="42.2619920" lon="-2.6113740">
        <ele>721.7</ele>
        <time>2022-08-13T12:28:15Z</time>
      </trkpt>
      <trkpt lat="42.2617490" lon="-2.6114090">
        <ele>722.2</ele>
        <time>2022-08-13T12:28:19Z</time>
      </trkpt>
      <trkpt lat="42.2615690" lon="-2.6114230">
        <ele>722.5</ele>
        <time>2022-08-13T12:28:22Z</time>
      </trkpt>
      <trkpt lat="42.2614610" lon="-2.6114310">
        <ele>722.8</ele>
        <time>2022-08-13T12:28:24Z</time>
      </trkpt>
      <trkpt lat="42.2612280" lon="-2.6114590">
        <ele>723.3</ele>
        <time>2022-08-13T12:28:28Z</time>
      </trkpt>
      <trkpt lat="42.2609920" lon="-2.6114790">
        <ele>723.7</ele>
        <time>2022-08-13T12:28:32Z</time>
      </trkpt>
      <trkpt lat="42.2608800" lon="-2.6114860">
        <ele>724.0</ele>
        <time>2022-08-13T12:28:34Z</time>
      </trkpt>
      <trkpt lat="42.2607040" lon="-2.6115150">
        <ele>724.2</ele>
        <time>2022-08-13T12:28:37Z</time>
      </trkpt>
      <trkpt lat="42.2604210" lon="-2.6116180">
        <ele>724.4</ele>
        <time>2022-08-13T12:28:42Z</time>
      </trkpt>
      <trkpt lat="42.2601790" lon="-2.6118330">
        <ele>724.3</ele>
        <time>2022-08-13T12:28:47Z</time>
      </trkpt>
      <trkpt lat="42.2599660" lon="-2.6122110">
        <ele>723.9</ele>
        <time>2022-08-13T12:28:53Z</time>
      </trkpt>
      <trkpt lat="42.2598210" lon="-2.6126080">
        <ele>723.5</ele>
        <time>2022-08-13T12:28:58Z</time>
      </trkpt>
      <trkpt lat="42.2597440" lon="-2.6128540">
        <ele>723.1</ele>
        <time>2022-08-13T12:29:01Z</time>
      </trkpt>
      <trkpt lat="42.2596390" lon="-2.6131780">
        <ele>723.0</ele>
        <time>2022-08-13T12:29:05Z</time>
      </trkpt>
      <trkpt lat="42.2595770" lon="-2.6133550">
        <ele>723.0</ele>
        <time>2022-08-13T12:29:07Z</time>
      </trkpt>
      <trkpt lat="42.2594990" lon="-2.6135930">
        <ele>723.0</ele>
        <time>2022-08-13T12:29:10Z</time>
      </trkpt>
      <trkpt lat="42.2594460" lon="-2.6137380">
        <ele>723.1</ele>
        <time>2022-08-13T12:29:12Z</time>
      </trkpt>
      <trkpt lat="42.2593730" lon="-2.6139490">
        <ele>723.1</ele>
        <time>2022-08-13T12:29:15Z</time>
      </trkpt>
      <trkpt lat="42.2592520" lon="-2.6143060">
        <ele>723.2</ele>
        <time>2022-08-13T12:29:20Z</time>
      </trkpt>
      <trkpt lat="42.2592020" lon="-2.6144450">
        <ele>723.3</ele>
        <time>2022-08-13T12:29:22Z</time>
      </trkpt>
      <trkpt lat="42.2590370" lon="-2.6149170">
        <ele>723.6</ele>
        <time>2022-08-13T12:29:29Z</time>
      </trkpt>
      <trkpt lat="42.2590140" lon="-2.6149830">
        <ele>723.6</ele>
        <time>2022-08-13T12:29:30Z</time>
      </trkpt>
      <trkpt lat="42.2589010" lon="-2.6153110">
        <ele>723.9</ele>
        <time>2022-08-13T12:29:35Z</time>
      </trkpt>
      <trkpt lat="42.2588790" lon="-2.6153790">
        <ele>724.0</ele>
        <time>2022-08-13T12:29:36Z</time>
      </trkpt>
      <trkpt lat="42.2587900" lon="-2.6156410">
        <ele>724.1</ele>
        <time>2022-08-13T12:29:40Z</time>
      </trkpt>
      <trkpt lat="42.2587680" lon="-2.6157080">
        <ele>724.2</ele>
        <time>2022-08-13T12:29:41Z</time>
      </trkpt>
      <trkpt lat="42.2585440" lon="-2.6163650">
        <ele>724.9</ele>
        <time>2022-08-13T12:29:51Z</time>
      </trkpt>
      <trkpt lat="42.2585170" lon="-2.6164450">
        <ele>725.0</ele>
        <time>2022-08-13T12:29:52Z</time>
      </trkpt>
      <trkpt lat="42.2584940" lon="-2.6165120">
        <ele>725.1</ele>
        <time>2022-08-13T12:29:53Z</time>
      </trkpt>
      <trkpt lat="42.2583770" lon="-2.6168500">
        <ele>725.7</ele>
        <time>2022-08-13T12:29:58Z</time>
      </trkpt>
      <trkpt lat="42.2583040" lon="-2.6170430">
        <ele>726.1</ele>
        <time>2022-08-13T12:30:01Z</time>
      </trkpt>
      <trkpt lat="42.2582300" lon="-2.6172670">
        <ele>726.7</ele>
        <time>2022-08-13T12:30:05Z</time>
      </trkpt>
      <trkpt lat="42.2581260" lon="-2.6175500">
        <ele>727.4</ele>
        <time>2022-08-13T12:30:10Z</time>
      </trkpt>
      <trkpt lat="42.2580660" lon="-2.6176990">
        <ele>727.9</ele>
        <time>2022-08-13T12:30:13Z</time>
      </trkpt>
      <trkpt lat="42.2579760" lon="-2.6179470">
        <ele>728.6</ele>
        <time>2022-08-13T12:30:18Z</time>
      </trkpt>
      <trkpt lat="42.2579400" lon="-2.6180500">
        <ele>728.9</ele>
        <time>2022-08-13T12:30:20Z</time>
      </trkpt>
      <trkpt lat="42.2578180" lon="-2.6184040">
        <ele>731.4</ele>
        <time>2022-08-13T12:30:27Z</time>
      </trkpt>
      <trkpt lat="42.2577280" lon="-2.6186470">
        <ele>731.9</ele>
        <time>2022-08-13T12:30:32Z</time>
      </trkpt>
      <trkpt lat="42.2576610" lon="-2.6188250">
        <ele>732.6</ele>
        <time>2022-08-13T12:30:36Z</time>
      </trkpt>
      <trkpt lat="42.2575880" lon="-2.6190550">
        <ele>733.4</ele>
        <time>2022-08-13T12:30:41Z</time>
      </trkpt>
      <trkpt lat="42.2575730" lon="-2.6191020">
        <ele>733.6</ele>
        <time>2022-08-13T12:30:42Z</time>
      </trkpt>
      <trkpt lat="42.2575500" lon="-2.6191970">
        <ele>733.9</ele>
        <time>2022-08-13T12:30:44Z</time>
      </trkpt>
      <trkpt lat="42.2575190" lon="-2.6193790">
        <ele>734.5</ele>
        <time>2022-08-13T12:30:48Z</time>
      </trkpt>
      <trkpt lat="42.2574980" lon="-2.6195660">
        <ele>735.2</ele>
        <time>2022-08-13T12:30:52Z</time>
      </trkpt>
      <trkpt lat="42.2574860" lon="-2.6197800">
        <ele>735.9</ele>
        <time>2022-08-13T12:30:56Z</time>
      </trkpt>
      <trkpt lat="42.2574750" lon="-2.6199340">
        <ele>736.1</ele>
        <time>2022-08-13T12:30:59Z</time>
      </trkpt>
      <trkpt lat="42.2574080" lon="-2.6202950">
        <ele>737.1</ele>
        <time>2022-08-13T12:31:06Z</time>
      </trkpt>
      <trkpt lat="42.2573320" lon="-2.6207290">
        <ele>737.6</ele>
        <time>2022-08-13T12:31:14Z</time>
      </trkpt>
      <trkpt lat="42.2572930" lon="-2.6211880">
        <ele>737.6</ele>
        <time>2022-08-13T12:31:21Z</time>
      </trkpt>
      <trkpt lat="42.2572820" lon="-2.6212700">
        <ele>737.6</ele>
        <time>2022-08-13T12:31:22Z</time>
      </trkpt>
      <trkpt lat="42.2572360" lon="-2.6214640">
        <ele>737.3</ele>
        <time>2022-08-13T12:31:25Z</time>
      </trkpt>
      <trkpt lat="42.2571900" lon="-2.6216010">
        <ele>736.8</ele>
        <time>2022-08-13T12:31:27Z</time>
      </trkpt>
      <trkpt lat="42.2570600" lon="-2.6219740">
        <ele>735.3</ele>
        <time>2022-08-13T12:31:32Z</time>
      </trkpt>
      <trkpt lat="42.2570240" lon="-2.6221230">
        <ele>735.1</ele>
        <time>2022-08-13T12:31:34Z</time>
      </trkpt>
      <trkpt lat="42.2569970" lon="-2.6223100">
        <ele>734.8</ele>
        <time>2022-08-13T12:31:36Z</time>
      </trkpt>
      <trkpt lat="42.2569950" lon="-2.6224780">
        <ele>734.6</ele>
        <time>2022-08-13T12:31:38Z</time>
      </trkpt>
      <trkpt lat="42.2570030" lon="-2.6225590">
        <ele>734.5</ele>
        <time>2022-08-13T12:31:39Z</time>
      </trkpt>
      <trkpt lat="42.2570200" lon="-2.6226360">
        <ele>734.4</ele>
        <time>2022-08-13T12:31:40Z</time>
      </trkpt>
      <trkpt lat="42.2570420" lon="-2.6227090">
        <ele>734.3</ele>
        <time>2022-08-13T12:31:41Z</time>
      </trkpt>
      <trkpt lat="42.2570640" lon="-2.6227590">
        <ele>734.2</ele>
        <time>2022-08-13T12:31:42Z</time>
      </trkpt>
      <trkpt lat="42.2570910" lon="-2.6228170">
        <ele>734.2</ele>
        <time>2022-08-13T12:31:43Z</time>
      </trkpt>
      <trkpt lat="42.2571110" lon="-2.6228770">
        <ele>734.2</ele>
        <time>2022-08-13T12:31:44Z</time>
      </trkpt>
      <trkpt lat="42.2571190" lon="-2.6230040">
        <ele>734.3</ele>
        <time>2022-08-13T12:31:46Z</time>
      </trkpt>
      <trkpt lat="42.2571050" lon="-2.6230620">
        <ele>734.3</ele>
        <time>2022-08-13T12:31:47Z</time>
      </trkpt>
      <trkpt lat="42.2570660" lon="-2.6231820">
        <ele>734.3</ele>
        <time>2022-08-13T12:31:49Z</time>
      </trkpt>
      <trkpt lat="42.2570550" lon="-2.6232540">
        <ele>734.2</ele>
        <time>2022-08-13T12:31:50Z</time>
      </trkpt>
      <trkpt lat="42.2570470" lon="-2.6234860">
        <ele>734.1</ele>
        <time>2022-08-13T12:31:53Z</time>
      </trkpt>
      <trkpt lat="42.2570540" lon="-2.6236450">
        <ele>734.1</ele>
        <time>2022-08-13T12:31:55Z</time>
      </trkpt>
      <trkpt lat="42.2570620" lon="-2.6238770">
        <ele>734.1</ele>
        <time>2022-08-13T12:31:58Z</time>
      </trkpt>
      <trkpt lat="42.2570630" lon="-2.6239520">
        <ele>734.1</ele>
        <time>2022-08-13T12:31:59Z</time>
      </trkpt>
      <trkpt lat="42.2570650" lon="-2.6241550">
        <ele>734.2</ele>
        <time>2022-08-13T12:32:02Z</time>
      </trkpt>
      <trkpt lat="42.2570670" lon="-2.6242240">
        <ele>734.3</ele>
        <time>2022-08-13T12:32:03Z</time>
      </trkpt>
      <trkpt lat="42.2570320" lon="-2.6245570">
        <ele>734.4</ele>
        <time>2022-08-13T12:32:08Z</time>
      </trkpt>
      <trkpt lat="42.2570150" lon="-2.6248740">
        <ele>734.6</ele>
        <time>2022-08-13T12:32:13Z</time>
      </trkpt>
      <trkpt lat="42.2569810" lon="-2.6252270">
        <ele>734.9</ele>
        <time>2022-08-13T12:32:19Z</time>
      </trkpt>
      <trkpt lat="42.2569480" lon="-2.6254990">
        <ele>735.2</ele>
        <time>2022-08-13T12:32:23Z</time>
      </trkpt>
      <trkpt lat="42.2569290" lon="-2.6256280">
        <ele>735.4</ele>
        <time>2022-08-13T12:32:25Z</time>
      </trkpt>
      <trkpt lat="42.2569040" lon="-2.6258790">
        <ele>735.9</ele>
        <time>2022-08-13T12:32:29Z</time>
      </trkpt>
      <trkpt lat="42.2568890" lon="-2.6259930">
        <ele>736.1</ele>
        <time>2022-08-13T12:32:31Z</time>
      </trkpt>
      <trkpt lat="42.2568830" lon="-2.6260540">
        <ele>736.2</ele>
        <time>2022-08-13T12:32:32Z</time>
      </trkpt>
      <trkpt lat="42.2568690" lon="-2.6261760">
        <ele>736.6</ele>
        <time>2022-08-13T12:32:34Z</time>
      </trkpt>
      <trkpt lat="42.2568470" lon="-2.6262820">
        <ele>736.8</ele>
        <time>2022-08-13T12:32:36Z</time>
      </trkpt>
      <trkpt lat="42.2568360" lon="-2.6263890">
        <ele>737.1</ele>
        <time>2022-08-13T12:32:38Z</time>
      </trkpt>
      <trkpt lat="42.2567880" lon="-2.6267000">
        <ele>738.0</ele>
        <time>2022-08-13T12:32:43Z</time>
      </trkpt>
      <trkpt lat="42.2567780" lon="-2.6267520">
        <ele>738.1</ele>
        <time>2022-08-13T12:32:44Z</time>
      </trkpt>
      <trkpt lat="42.2567670" lon="-2.6268080">
        <ele>738.3</ele>
        <time>2022-08-13T12:32:45Z</time>
      </trkpt>
      <trkpt lat="42.2567470" lon="-2.6268950">
        <ele>738.5</ele>
        <time>2022-08-13T12:32:47Z</time>
      </trkpt>
      <trkpt lat="42.2567250" lon="-2.6269940">
        <ele>738.7</ele>
        <time>2022-08-13T12:32:49Z</time>
      </trkpt>
      <trkpt lat="42.2567100" lon="-2.6270520">
        <ele>738.9</ele>
        <time>2022-08-13T12:32:50Z</time>
      </trkpt>
      <trkpt lat="42.2566820" lon="-2.6271810">
        <ele>739.1</ele>
        <time>2022-08-13T12:32:52Z</time>
      </trkpt>
      <trkpt lat="42.2565990" lon="-2.6273970">
        <ele>739.6</ele>
        <time>2022-08-13T12:32:56Z</time>
      </trkpt>
      <trkpt lat="42.2565610" lon="-2.6275160">
        <ele>739.7</ele>
        <time>2022-08-13T12:32:58Z</time>
      </trkpt>
      <trkpt lat="42.2564860" lon="-2.6277580">
        <ele>740.1</ele>
        <time>2022-08-13T12:33:02Z</time>
      </trkpt>
      <trkpt lat="42.2564290" lon="-2.6279300">
        <ele>740.4</ele>
        <time>2022-08-13T12:33:05Z</time>
      </trkpt>
      <trkpt lat="42.2564000" lon="-2.6280340">
        <ele>740.6</ele>
        <time>2022-08-13T12:33:07Z</time>
      </trkpt>
      <trkpt lat="42.2563780" lon="-2.6280890">
        <ele>740.7</ele>
        <time>2022-08-13T12:33:08Z</time>
      </trkpt>
      <trkpt lat="42.2562810" lon="-2.6283060">
        <ele>741.1</ele>
        <time>2022-08-13T12:33:12Z</time>
      </trkpt>
      <trkpt lat="42.2562520" lon="-2.6283590">
        <ele>741.2</ele>
        <time>2022-08-13T12:33:13Z</time>
      </trkpt>
      <trkpt lat="42.2562240" lon="-2.6284150">
        <ele>741.3</ele>
        <time>2022-08-13T12:33:14Z</time>
      </trkpt>
      <trkpt lat="42.2561360" lon="-2.6285810">
        <ele>741.7</ele>
        <time>2022-08-13T12:33:17Z</time>
      </trkpt>
      <trkpt lat="42.2560200" lon="-2.6288010">
        <ele>742.3</ele>
        <time>2022-08-13T12:33:21Z</time>
      </trkpt>
      <trkpt lat="42.2559840" lon="-2.6289110">
        <ele>742.7</ele>
        <time>2022-08-13T12:33:23Z</time>
      </trkpt>
      <trkpt lat="42.2559620" lon="-2.6289680">
        <ele>742.9</ele>
        <time>2022-08-13T12:33:24Z</time>
      </trkpt>
      <trkpt lat="42.2559270" lon="-2.6290640">
        <ele>743.3</ele>
        <time>2022-08-13T12:33:27Z</time>
      </trkpt>
      <trkpt lat="42.2559000" lon="-2.6291550">
        <ele>743.7</ele>
        <time>2022-08-13T12:33:30Z</time>
      </trkpt>
      <trkpt lat="42.2559010" lon="-2.6291980">
        <ele>743.8</ele>
        <time>2022-08-13T12:33:31Z</time>
      </trkpt>
      <trkpt lat="42.2558850" lon="-2.6292630">
        <ele>744.1</ele>
        <time>2022-08-13T12:33:34Z</time>
      </trkpt>
      <trkpt lat="42.2558550" lon="-2.6292870">
        <ele>744.2</ele>
        <time>2022-08-13T12:33:35Z</time>
      </trkpt>
      <trkpt lat="42.2558150" lon="-2.6293170">
        <ele>744.2</ele>
        <time>2022-08-13T12:33:36Z</time>
      </trkpt>
      <trkpt lat="42.2556680" lon="-2.6294260">
        <ele>744.1</ele>
        <time>2022-08-13T12:33:39Z</time>
      </trkpt>
      <trkpt lat="42.2555730" lon="-2.6295780">
        <ele>744.0</ele>
        <time>2022-08-13T12:33:42Z</time>
      </trkpt>
      <trkpt lat="42.2555510" lon="-2.6296510">
        <ele>743.9</ele>
        <time>2022-08-13T12:33:43Z</time>
      </trkpt>
      <trkpt lat="42.2554730" lon="-2.6298900">
        <ele>743.5</ele>
        <time>2022-08-13T12:33:46Z</time>
      </trkpt>
      <trkpt lat="42.2554100" lon="-2.6300390">
        <ele>743.1</ele>
        <time>2022-08-13T12:33:48Z</time>
      </trkpt>
      <trkpt lat="42.2553490" lon="-2.6301690">
        <ele>742.8</ele>
        <time>2022-08-13T12:33:50Z</time>
      </trkpt>
      <trkpt lat="42.2551760" lon="-2.6304750">
        <ele>742.0</ele>
        <time>2022-08-13T12:33:54Z</time>
      </trkpt>
      <trkpt lat="42.2551270" lon="-2.6305470">
        <ele>741.9</ele>
        <time>2022-08-13T12:33:55Z</time>
      </trkpt>
      <trkpt lat="42.2550230" lon="-2.6306800">
        <ele>741.6</ele>
        <time>2022-08-13T12:33:57Z</time>
      </trkpt>
      <trkpt lat="42.2549030" lon="-2.6308130">
        <ele>741.5</ele>
        <time>2022-08-13T12:33:59Z</time>
      </trkpt>
      <trkpt lat="42.2548490" lon="-2.6308690">
        <ele>741.5</ele>
        <time>2022-08-13T12:34:00Z</time>
      </trkpt>
      <trkpt lat="42.2547480" lon="-2.6309410">
        <ele>741.6</ele>
        <time>2022-08-13T12:34:02Z</time>
      </trkpt>
      <trkpt lat="42.2546310" lon="-2.6309980">
        <ele>741.6</ele>
        <time>2022-08-13T12:34:04Z</time>
      </trkpt>
      <trkpt lat="42.2544730" lon="-2.6310300">
        <ele>741.8</ele>
        <time>2022-08-13T12:34:07Z</time>
      </trkpt>
      <trkpt lat="42.2543760" lon="-2.6310450">
        <ele>741.9</ele>
        <time>2022-08-13T12:34:09Z</time>
      </trkpt>
      <trkpt lat="42.2542370" lon="-2.6310620">
        <ele>742.3</ele>
        <time>2022-08-13T12:34:12Z</time>
      </trkpt>
      <trkpt lat="42.2541060" lon="-2.6310670">
        <ele>742.8</ele>
        <time>2022-08-13T12:34:15Z</time>
      </trkpt>
      <trkpt lat="42.2540630" lon="-2.6310640">
        <ele>743.0</ele>
        <time>2022-08-13T12:34:16Z</time>
      </trkpt>
      <trkpt lat="42.2540220" lon="-2.6310610">
        <ele>743.1</ele>
        <time>2022-08-13T12:34:17Z</time>
      </trkpt>
      <trkpt lat="42.2537720" lon="-2.6310490">
        <ele>743.8</ele>
        <time>2022-08-13T12:34:23Z</time>
      </trkpt>
      <trkpt lat="42.2537300" lon="-2.6310430">
        <ele>743.9</ele>
        <time>2022-08-13T12:34:24Z</time>
      </trkpt>
      <trkpt lat="42.2535680" lon="-2.6309720">
        <ele>744.2</ele>
        <time>2022-08-13T12:34:28Z</time>
      </trkpt>
      <trkpt lat="42.2531840" lon="-2.6307310">
        <ele>744.6</ele>
        <time>2022-08-13T12:34:37Z</time>
      </trkpt>
      <trkpt lat="42.2529800" lon="-2.6306020">
        <ele>744.7</ele>
        <time>2022-08-13T12:34:42Z</time>
      </trkpt>
      <trkpt lat="42.2527910" lon="-2.6304950">
        <ele>744.8</ele>
        <time>2022-08-13T12:34:47Z</time>
      </trkpt>
      <trkpt lat="42.2527210" lon="-2.6304540">
        <ele>744.8</ele>
        <time>2022-08-13T12:34:49Z</time>
      </trkpt>
      <trkpt lat="42.2526560" lon="-2.6304120">
        <ele>744.8</ele>
        <time>2022-08-13T12:34:51Z</time>
      </trkpt>
      <trkpt lat="42.2525620" lon="-2.6303600">
        <ele>744.8</ele>
        <time>2022-08-13T12:34:54Z</time>
      </trkpt>
      <trkpt lat="42.2524830" lon="-2.6302960">
        <ele>744.9</ele>
        <time>2022-08-13T12:34:57Z</time>
      </trkpt>
      <trkpt lat="42.2524630" lon="-2.6302710">
        <ele>744.9</ele>
        <time>2022-08-13T12:34:58Z</time>
      </trkpt>
      <trkpt lat="42.2524500" lon="-2.6302450">
        <ele>744.9</ele>
        <time>2022-08-13T12:34:59Z</time>
      </trkpt>
      <trkpt lat="42.2524160" lon="-2.6301850">
        <ele>744.9</ele>
        <time>2022-08-13T12:35:02Z</time>
      </trkpt>
      <trkpt lat="42.2523750" lon="-2.6301440">
        <ele>744.9</ele>
        <time>2022-08-13T12:35:05Z</time>
      </trkpt>
      <trkpt lat="42.2523610" lon="-2.6301260">
        <ele>744.9</ele>
        <time>2022-08-13T12:35:07Z</time>
      </trkpt>
      <trkpt lat="42.2523500" lon="-2.6301510">
        <ele>744.9</ele>
        <time>2022-08-13T12:39:09Z</time>
      </trkpt>
      <trkpt lat="42.2523510" lon="-2.6301650">
        <ele>744.9</ele>
        <time>2022-08-13T12:39:10Z</time>
      </trkpt>
      <trkpt lat="42.2523570" lon="-2.6301780">
        <ele>744.9</ele>
        <time>2022-08-13T12:39:11Z</time>
      </trkpt>
      <trkpt lat="42.2524230" lon="-2.6302480">
        <ele>744.9</ele>
        <time>2022-08-13T12:39:15Z</time>
      </trkpt>
      <trkpt lat="42.2524990" lon="-2.6302830">
        <ele>744.9</ele>
        <time>2022-08-13T12:39:18Z</time>
      </trkpt>
      <trkpt lat="42.2525740" lon="-2.6303260">
        <ele>744.9</ele>
        <time>2022-08-13T12:39:21Z</time>
      </trkpt>
      <trkpt lat="42.2525990" lon="-2.6303390">
        <ele>744.9</ele>
        <time>2022-08-13T12:39:22Z</time>
      </trkpt>
      <trkpt lat="42.2526240" lon="-2.6303490">
        <ele>744.8</ele>
        <time>2022-08-13T12:39:23Z</time>
      </trkpt>
      <trkpt lat="42.2527360" lon="-2.6304230">
        <ele>744.8</ele>
        <time>2022-08-13T12:39:27Z</time>
      </trkpt>
      <trkpt lat="42.2527650" lon="-2.6304420">
        <ele>744.8</ele>
        <time>2022-08-13T12:39:28Z</time>
      </trkpt>
      <trkpt lat="42.2527960" lon="-2.6304650">
        <ele>744.8</ele>
        <time>2022-08-13T12:39:29Z</time>
      </trkpt>
      <trkpt lat="42.2528290" lon="-2.6304860">
        <ele>744.8</ele>
        <time>2022-08-13T12:39:30Z</time>
      </trkpt>
      <trkpt lat="42.2530950" lon="-2.6306310">
        <ele>744.7</ele>
        <time>2022-08-13T12:39:38Z</time>
      </trkpt>
      <trkpt lat="42.2534450" lon="-2.6308500">
        <ele>744.4</ele>
        <time>2022-08-13T12:39:48Z</time>
      </trkpt>
      <trkpt lat="42.2534810" lon="-2.6308720">
        <ele>744.3</ele>
        <time>2022-08-13T12:39:49Z</time>
      </trkpt>
      <trkpt lat="42.2535780" lon="-2.6309320">
        <ele>744.2</ele>
        <time>2022-08-13T12:39:52Z</time>
      </trkpt>
      <trkpt lat="42.2536200" lon="-2.6309520">
        <ele>744.1</ele>
        <time>2022-08-13T12:39:53Z</time>
      </trkpt>
      <trkpt lat="42.2537640" lon="-2.6309990">
        <ele>743.9</ele>
        <time>2022-08-13T12:39:57Z</time>
      </trkpt>
      <trkpt lat="42.2538070" lon="-2.6310070">
        <ele>743.8</ele>
        <time>2022-08-13T12:39:58Z</time>
      </trkpt>
      <trkpt lat="42.2539870" lon="-2.6310170">
        <ele>743.2</ele>
        <time>2022-08-13T12:40:02Z</time>
      </trkpt>
      <trkpt lat="42.2540330" lon="-2.6310160">
        <ele>743.1</ele>
        <time>2022-08-13T12:40:03Z</time>
      </trkpt>
      <trkpt lat="42.2541280" lon="-2.6310140">
        <ele>742.7</ele>
        <time>2022-08-13T12:40:05Z</time>
      </trkpt>
      <trkpt lat="42.2542250" lon="-2.6310130">
        <ele>742.4</ele>
        <time>2022-08-13T12:40:07Z</time>
      </trkpt>
      <trkpt lat="42.2544180" lon="-2.6309880">
        <ele>741.8</ele>
        <time>2022-08-13T12:40:10Z</time>
      </trkpt>
      <trkpt lat="42.2544920" lon="-2.6309760">
        <ele>741.7</ele>
        <time>2022-08-13T12:40:11Z</time>
      </trkpt>
      <trkpt lat="42.2545500" lon="-2.6309610">
        <ele>741.7</ele>
        <time>2022-08-13T12:40:12Z</time>
      </trkpt>
      <trkpt lat="42.2545930" lon="-2.6309460">
        <ele>741.6</ele>
        <time>2022-08-13T12:40:13Z</time>
      </trkpt>
      <trkpt lat="42.2546950" lon="-2.6308990">
        <ele>741.6</ele>
        <time>2022-08-13T12:40:15Z</time>
      </trkpt>
      <trkpt lat="42.2547490" lon="-2.6308640">
        <ele>741.6</ele>
        <time>2022-08-13T12:40:16Z</time>
      </trkpt>
      <trkpt lat="42.2547790" lon="-2.6308400">
        <ele>741.5</ele>
        <time>2022-08-13T12:40:17Z</time>
      </trkpt>
      <trkpt lat="42.2548560" lon="-2.6307790">
        <ele>741.5</ele>
        <time>2022-08-13T12:40:19Z</time>
      </trkpt>
      <trkpt lat="42.2549650" lon="-2.6306920">
        <ele>741.5</ele>
        <time>2022-08-13T12:40:21Z</time>
      </trkpt>
      <trkpt lat="42.2549990" lon="-2.6306540">
        <ele>741.6</ele>
        <time>2022-08-13T12:40:23Z</time>
      </trkpt>
      <trkpt lat="42.2550270" lon="-2.6306250">
        <ele>741.6</ele>
        <time>2022-08-13T12:40:24Z</time>
      </trkpt>
      <trkpt lat="42.2550650" lon="-2.6305810">
        <ele>741.7</ele>
        <time>2022-08-13T12:40:25Z</time>
      </trkpt>
      <trkpt lat="42.2551170" lon="-2.6305120">
        <ele>741.9</ele>
        <time>2022-08-13T12:40:27Z</time>
      </trkpt>
      <trkpt lat="42.2552450" lon="-2.6302830">
        <ele>742.4</ele>
        <time>2022-08-13T12:40:33Z</time>
      </trkpt>
      <trkpt lat="42.2552920" lon="-2.6302110">
        <ele>742.6</ele>
        <time>2022-08-13T12:40:35Z</time>
      </trkpt>
      <trkpt lat="42.2553580" lon="-2.6301500">
        <ele>742.8</ele>
        <time>2022-08-13T12:40:38Z</time>
      </trkpt>
      <trkpt lat="42.2553730" lon="-2.6301370">
        <ele>742.9</ele>
        <time>2022-08-13T12:40:39Z</time>
      </trkpt>
      <trkpt lat="42.2553950" lon="-2.6301360">
        <ele>742.9</ele>
        <time>2022-08-13T12:41:29Z</time>
      </trkpt>
      <trkpt lat="42.2553960" lon="-2.6301200">
        <ele>743.0</ele>
        <time>2022-08-13T12:41:30Z</time>
      </trkpt>
      <trkpt lat="42.2554150" lon="-2.6300690">
        <ele>743.1</ele>
        <time>2022-08-13T12:41:31Z</time>
      </trkpt>
      <trkpt lat="42.2554150" lon="-2.6300690">
        <ele>743.1</ele>
        <time>2022-08-13T12:41:32Z</time>
      </trkpt>
      <trkpt lat="42.2554390" lon="-2.6300090">
        <ele>743.2</ele>
        <time>2022-08-13T12:41:34Z</time>
      </trkpt>
      <trkpt lat="42.2554710" lon="-2.6299370">
        <ele>743.4</ele>
        <time>2022-08-13T12:41:35Z</time>
      </trkpt>
      <trkpt lat="42.2554750" lon="-2.6298600">
        <ele>743.8</ele>
        <time>2022-08-13T12:41:37Z</time>
      </trkpt>
      <trkpt lat="42.2554420" lon="-2.6298050">
        <ele>743.8</ele>
        <time>2022-08-13T12:41:39Z</time>
      </trkpt>
      <trkpt lat="42.2554200" lon="-2.6297850">
        <ele>743.8</ele>
        <time>2022-08-13T12:41:41Z</time>
      </trkpt>
      <trkpt lat="42.2551660" lon="-2.6296620">
        <ele>740.9</ele>
        <time>2022-08-13T12:41:46Z</time>
      </trkpt>
      <trkpt lat="42.2549880" lon="-2.6295820">
        <ele>739.0</ele>
        <time>2022-08-13T12:41:50Z</time>
      </trkpt>
      <trkpt lat="42.2549570" lon="-2.6295750">
        <ele>739.0</ele>
        <time>2022-08-13T12:41:51Z</time>
      </trkpt>
      <trkpt lat="42.2549270" lon="-2.6295890">
        <ele>739.1</ele>
        <time>2022-08-13T12:41:53Z</time>
      </trkpt>
      <trkpt lat="42.2549110" lon="-2.6296440">
        <ele>739.2</ele>
        <time>2022-08-13T12:41:55Z</time>
      </trkpt>
      <trkpt lat="42.2548880" lon="-2.6297070">
        <ele>739.3</ele>
        <time>2022-08-13T12:41:57Z</time>
      </trkpt>
      <trkpt lat="42.2548710" lon="-2.6297540">
        <ele>739.4</ele>
        <time>2022-08-13T12:41:58Z</time>
      </trkpt>
      <trkpt lat="42.2548290" lon="-2.6298450">
        <ele>739.6</ele>
        <time>2022-08-13T12:42:00Z</time>
      </trkpt>
      <trkpt lat="42.2547970" lon="-2.6298450">
        <ele>739.7</ele>
        <time>2022-08-13T12:42:01Z</time>
      </trkpt>
      <trkpt lat="42.2547060" lon="-2.6298810">
        <ele>740.1</ele>
        <time>2022-08-13T12:42:04Z</time>
      </trkpt>
      <trkpt lat="42.2546360" lon="-2.6298700">
        <ele>740.4</ele>
        <time>2022-08-13T12:42:06Z</time>
      </trkpt>
      <trkpt lat="42.2544690" lon="-2.6298550">
        <ele>741.2</ele>
        <time>2022-08-13T12:42:11Z</time>
      </trkpt>
      <trkpt lat="42.2544170" lon="-2.6298180">
        <ele>741.6</ele>
        <time>2022-08-13T12:42:13Z</time>
      </trkpt>
      <trkpt lat="42.2543810" lon="-2.6298120">
        <ele>741.8</ele>
        <time>2022-08-13T12:42:14Z</time>
      </trkpt>
      <trkpt lat="42.2543060" lon="-2.6298040">
        <ele>741.9</ele>
        <time>2022-08-13T12:42:17Z</time>
      </trkpt>
      <trkpt lat="42.2542570" lon="-2.6298350">
        <ele>741.9</ele>
        <time>2022-08-13T12:42:21Z</time>
      </trkpt>
      <trkpt lat="42.2542440" lon="-2.6298070">
        <ele>741.9</ele>
        <time>2022-08-13T12:42:22Z</time>
      </trkpt>
      <trkpt lat="42.2542050" lon="-2.6297990">
        <ele>742.0</ele>
        <time>2022-08-13T12:42:24Z</time>
      </trkpt>
      <trkpt lat="42.2541430" lon="-2.6297900">
        <ele>742.0</ele>
        <time>2022-08-13T12:42:26Z</time>
      </trkpt>
      <trkpt lat="42.2540060" lon="-2.6297730">
        <ele>742.2</ele>
        <time>2022-08-13T12:42:31Z</time>
      </trkpt>
      <trkpt lat="42.2539760" lon="-2.6297700">
        <ele>742.2</ele>
        <time>2022-08-13T12:42:32Z</time>
      </trkpt>
      <trkpt lat="42.2539480" lon="-2.6297470">
        <ele>742.2</ele>
        <time>2022-08-13T12:42:34Z</time>
      </trkpt>
      <trkpt lat="42.2539300" lon="-2.6297470">
        <ele>742.2</ele>
        <time>2022-08-13T12:42:36Z</time>
      </trkpt>
      <trkpt lat="42.2539200" lon="-2.6297490">
        <ele>742.2</ele>
        <time>2022-08-13T12:42:37Z</time>
      </trkpt>
      <trkpt lat="42.2538900" lon="-2.6297550">
        <ele>742.2</ele>
        <time>2022-08-13T12:42:39Z</time>
      </trkpt>
      <trkpt lat="42.2538780" lon="-2.6297410">
        <ele>742.2</ele>
        <time>2022-08-13T12:42:40Z</time>
      </trkpt>
      <trkpt lat="42.2538700" lon="-2.6297260">
        <ele>742.3</ele>
        <time>2022-08-13T12:42:41Z</time>
      </trkpt>
      <trkpt lat="42.2538200" lon="-2.6296790">
        <ele>742.3</ele>
        <time>2022-08-13T12:42:44Z</time>
      </trkpt>
      <trkpt lat="42.2537950" lon="-2.6296850">
        <ele>742.4</ele>
        <time>2022-08-13T12:42:45Z</time>
      </trkpt>
      <trkpt lat="42.2537780" lon="-2.6296900">
        <ele>742.4</ele>
        <time>2022-08-13T12:42:46Z</time>
      </trkpt>
      <trkpt lat="42.2537280" lon="-2.6296850">
        <ele>742.5</ele>
        <time>2022-08-13T12:42:48Z</time>
      </trkpt>
      <trkpt lat="42.2536740" lon="-2.6296760">
        <ele>742.7</ele>
        <time>2022-08-13T12:42:51Z</time>
      </trkpt>
      <trkpt lat="42.2536220" lon="-2.6297030">
        <ele>742.8</ele>
        <time>2022-08-13T12:42:53Z</time>
      </trkpt>
      <trkpt lat="42.2535630" lon="-2.6296630">
        <ele>742.7</ele>
        <time>2022-08-13T12:42:58Z</time>
      </trkpt>
      <trkpt lat="42.2535480" lon="-2.6296620">
        <ele>742.7</ele>
        <time>2022-08-13T12:42:59Z</time>
      </trkpt>
      <trkpt lat="42.2535140" lon="-2.6296460">
        <ele>742.7</ele>
        <time>2022-08-13T12:43:01Z</time>
      </trkpt>
      <trkpt lat="42.2534440" lon="-2.6296350">
        <ele>742.7</ele>
        <time>2022-08-13T12:43:06Z</time>
      </trkpt>
      <trkpt lat="42.2534300" lon="-2.6296320">
        <ele>742.8</ele>
        <time>2022-08-13T12:43:07Z</time>
      </trkpt>
      <trkpt lat="42.2533620" lon="-2.6296280">
        <ele>742.9</ele>
        <time>2022-08-13T12:43:11Z</time>
      </trkpt>
      <trkpt lat="42.2533130" lon="-2.6296340">
        <ele>743.2</ele>
        <time>2022-08-13T12:43:14Z</time>
      </trkpt>
      <trkpt lat="42.2532990" lon="-2.6296360">
        <ele>743.2</ele>
        <time>2022-08-13T12:43:15Z</time>
      </trkpt>
      <trkpt lat="42.2532770" lon="-2.6296190">
        <ele>743.3</ele>
        <time>2022-08-13T12:43:20Z</time>
      </trkpt>
      <trkpt lat="42.2532780" lon="-2.6296030">
        <ele>743.3</ele>
        <time>2022-08-13T12:43:21Z</time>
      </trkpt>
      <trkpt lat="42.2532800" lon="-2.6295480">
        <ele>743.4</ele>
        <time>2022-08-13T12:43:25Z</time>
      </trkpt>
      <trkpt lat="42.2532820" lon="-2.6295260">
        <ele>743.4</ele>
        <time>2022-08-13T12:43:26Z</time>
      </trkpt>
      <trkpt lat="42.2532760" lon="-2.6294430">
        <ele>743.6</ele>
        <time>2022-08-13T12:43:30Z</time>
      </trkpt>
      <trkpt lat="42.2532760" lon="-2.6294040">
        <ele>743.6</ele>
        <time>2022-08-13T12:43:32Z</time>
      </trkpt>
      <trkpt lat="42.2532790" lon="-2.6293500">
        <ele>743.7</ele>
        <time>2022-08-13T12:43:35Z</time>
      </trkpt>
      <trkpt lat="42.2532780" lon="-2.6292990">
        <ele>743.8</ele>
        <time>2022-08-13T12:43:39Z</time>
      </trkpt>
      <trkpt lat="42.2532630" lon="-2.6291610">
        <ele>744.9</ele>
        <time>2022-08-13T12:43:44Z</time>
      </trkpt>
      <trkpt lat="42.2532520" lon="-2.6291050">
        <ele>745.4</ele>
        <time>2022-08-13T12:43:47Z</time>
      </trkpt>
      <trkpt lat="42.2532460" lon="-2.6290870">
        <ele>745.5</ele>
        <time>2022-08-13T12:43:48Z</time>
      </trkpt>
      <trkpt lat="42.2532220" lon="-2.6290420">
        <ele>746.5</ele>
        <time>2022-08-13T12:43:51Z</time>
      </trkpt>
      <trkpt lat="42.2531940" lon="-2.6290170">
        <ele>746.8</ele>
        <time>2022-08-13T12:43:53Z</time>
      </trkpt>
      <trkpt lat="42.2531050" lon="-2.6289960">
        <ele>747.6</ele>
        <time>2022-08-13T12:43:58Z</time>
      </trkpt>
      <trkpt lat="42.2530700" lon="-2.6289820">
        <ele>747.8</ele>
        <time>2022-08-13T12:44:00Z</time>
      </trkpt>
      <trkpt lat="42.2530220" lon="-2.6289560">
        <ele>748.3</ele>
        <time>2022-08-13T12:44:03Z</time>
      </trkpt>
      <trkpt lat="42.2528370" lon="-2.6288730">
        <ele>749.9</ele>
        <time>2022-08-13T12:44:14Z</time>
      </trkpt>
      <trkpt lat="42.2528180" lon="-2.6288650">
        <ele>750.1</ele>
        <time>2022-08-13T12:44:15Z</time>
      </trkpt>
      <trkpt lat="42.2526820" lon="-2.6288260">
        <ele>751.4</ele>
        <time>2022-08-13T12:44:23Z</time>
      </trkpt>
      <trkpt lat="42.2526590" lon="-2.6288280">
        <ele>751.6</ele>
        <time>2022-08-13T12:44:24Z</time>
      </trkpt>
      <trkpt lat="42.2525040" lon="-2.6288210">
        <ele>753.0</ele>
        <time>2022-08-13T12:44:31Z</time>
      </trkpt>
      <trkpt lat="42.2523990" lon="-2.6287970">
        <ele>753.7</ele>
        <time>2022-08-13T12:44:35Z</time>
      </trkpt>
      <trkpt lat="42.2522920" lon="-2.6287710">
        <ele>754.4</ele>
        <time>2022-08-13T12:44:39Z</time>
      </trkpt>
      <trkpt lat="42.2522070" lon="-2.6287890">
        <ele>754.8</ele>
        <time>2022-08-13T12:44:42Z</time>
      </trkpt>
      <trkpt lat="42.2520330" lon="-2.6288290">
        <ele>755.6</ele>
        <time>2022-08-13T12:44:48Z</time>
      </trkpt>
      <trkpt lat="42.2519350" lon="-2.6288480">
        <ele>756.1</ele>
        <time>2022-08-13T12:44:51Z</time>
      </trkpt>
      <trkpt lat="42.2518420" lon="-2.6288380">
        <ele>756.6</ele>
        <time>2022-08-13T12:44:54Z</time>
      </trkpt>
      <trkpt lat="42.2517600" lon="-2.6287920">
        <ele>757.1</ele>
        <time>2022-08-13T12:44:57Z</time>
      </trkpt>
      <trkpt lat="42.2516170" lon="-2.6286390">
        <ele>758.4</ele>
        <time>2022-08-13T12:45:04Z</time>
      </trkpt>
      <trkpt lat="42.2515210" lon="-2.6285870">
        <ele>759.3</ele>
        <time>2022-08-13T12:45:09Z</time>
      </trkpt>
      <trkpt lat="42.2514430" lon="-2.6285390">
        <ele>760.2</ele>
        <time>2022-08-13T12:45:13Z</time>
      </trkpt>
      <trkpt lat="42.2513320" lon="-2.6284900">
        <ele>761.4</ele>
        <time>2022-08-13T12:45:19Z</time>
      </trkpt>
      <trkpt lat="42.2512050" lon="-2.6284270">
        <ele>762.9</ele>
        <time>2022-08-13T12:45:26Z</time>
      </trkpt>
      <trkpt lat="42.2511320" lon="-2.6283900">
        <ele>763.8</ele>
        <time>2022-08-13T12:45:30Z</time>
      </trkpt>
      <trkpt lat="42.2510780" lon="-2.6283680">
        <ele>764.5</ele>
        <time>2022-08-13T12:45:33Z</time>
      </trkpt>
      <trkpt lat="42.2509940" lon="-2.6283250">
        <ele>765.6</ele>
        <time>2022-08-13T12:45:38Z</time>
      </trkpt>
      <trkpt lat="42.2509660" lon="-2.6283140">
        <ele>765.9</ele>
        <time>2022-08-13T12:45:40Z</time>
      </trkpt>
      <trkpt lat="42.2508280" lon="-2.6282630">
        <ele>767.7</ele>
        <time>2022-08-13T12:45:48Z</time>
      </trkpt>
      <trkpt lat="42.2507930" lon="-2.6282570">
        <ele>768.1</ele>
        <time>2022-08-13T12:45:50Z</time>
      </trkpt>
      <trkpt lat="42.2507050" lon="-2.6282520">
        <ele>769.2</ele>
        <time>2022-08-13T12:45:55Z</time>
      </trkpt>
      <trkpt lat="42.2506180" lon="-2.6282350">
        <ele>770.3</ele>
        <time>2022-08-13T12:46:00Z</time>
      </trkpt>
      <trkpt lat="42.2505820" lon="-2.6282270">
        <ele>770.8</ele>
        <time>2022-08-13T12:46:02Z</time>
      </trkpt>
      <trkpt lat="42.2504970" lon="-2.6282100">
        <ele>772.0</ele>
        <time>2022-08-13T12:46:07Z</time>
      </trkpt>
      <trkpt lat="42.2504800" lon="-2.6282060">
        <ele>772.3</ele>
        <time>2022-08-13T12:46:08Z</time>
      </trkpt>
      <trkpt lat="42.2503580" lon="-2.6281740">
        <ele>774.2</ele>
        <time>2022-08-13T12:46:16Z</time>
      </trkpt>
      <trkpt lat="42.2503300" lon="-2.6281640">
        <ele>774.7</ele>
        <time>2022-08-13T12:46:18Z</time>
      </trkpt>
      <trkpt lat="42.2502740" lon="-2.6281420">
        <ele>775.8</ele>
        <time>2022-08-13T12:46:22Z</time>
      </trkpt>
      <trkpt lat="42.2502310" lon="-2.6281310">
        <ele>776.5</ele>
        <time>2022-08-13T12:46:25Z</time>
      </trkpt>
      <trkpt lat="42.2502000" lon="-2.6281340">
        <ele>777.1</ele>
        <time>2022-08-13T12:46:27Z</time>
      </trkpt>
      <trkpt lat="42.2501600" lon="-2.6281250">
        <ele>777.9</ele>
        <time>2022-08-13T12:46:30Z</time>
      </trkpt>
      <trkpt lat="42.2500850" lon="-2.6281260">
        <ele>779.3</ele>
        <time>2022-08-13T12:46:35Z</time>
      </trkpt>
      <trkpt lat="42.2500700" lon="-2.6281290">
        <ele>779.6</ele>
        <time>2022-08-13T12:46:36Z</time>
      </trkpt>
      <trkpt lat="42.2500120" lon="-2.6281360">
        <ele>780.7</ele>
        <time>2022-08-13T12:46:40Z</time>
      </trkpt>
      <trkpt lat="42.2499680" lon="-2.6281370">
        <ele>781.5</ele>
        <time>2022-08-13T12:46:43Z</time>
      </trkpt>
      <trkpt lat="42.2499130" lon="-2.6281410">
        <ele>782.5</ele>
        <time>2022-08-13T12:46:47Z</time>
      </trkpt>
      <trkpt lat="42.2498320" lon="-2.6281510">
        <ele>784.1</ele>
        <time>2022-08-13T12:46:52Z</time>
      </trkpt>
      <trkpt lat="42.2497900" lon="-2.6281480">
        <ele>784.9</ele>
        <time>2022-08-13T12:46:55Z</time>
      </trkpt>
      <trkpt lat="42.2497470" lon="-2.6281500">
        <ele>785.8</ele>
        <time>2022-08-13T12:46:58Z</time>
      </trkpt>
      <trkpt lat="42.2496790" lon="-2.6281310">
        <ele>787.1</ele>
        <time>2022-08-13T12:47:03Z</time>
      </trkpt>
      <trkpt lat="42.2496410" lon="-2.6281190">
        <ele>787.8</ele>
        <time>2022-08-13T12:47:06Z</time>
      </trkpt>
      <trkpt lat="42.2496120" lon="-2.6281170">
        <ele>788.4</ele>
        <time>2022-08-13T12:47:08Z</time>
      </trkpt>
      <trkpt lat="42.2495280" lon="-2.6281180">
        <ele>789.6</ele>
        <time>2022-08-13T12:47:13Z</time>
      </trkpt>
      <trkpt lat="42.2494790" lon="-2.6281300">
        <ele>789.9</ele>
        <time>2022-08-13T12:47:16Z</time>
      </trkpt>
      <trkpt lat="42.2493580" lon="-2.6281550">
        <ele>790.5</ele>
        <time>2022-08-13T12:47:24Z</time>
      </trkpt>
      <trkpt lat="42.2493130" lon="-2.6281620">
        <ele>790.8</ele>
        <time>2022-08-13T12:47:26Z</time>
      </trkpt>
      <trkpt lat="42.2491560" lon="-2.6281970">
        <ele>791.6</ele>
        <time>2022-08-13T12:47:34Z</time>
      </trkpt>
      <trkpt lat="42.2489980" lon="-2.6282370">
        <ele>792.5</ele>
        <time>2022-08-13T12:47:42Z</time>
      </trkpt>
      <trkpt lat="42.2488690" lon="-2.6282660">
        <ele>793.2</ele>
        <time>2022-08-13T12:47:48Z</time>
      </trkpt>
      <trkpt lat="42.2487820" lon="-2.6282850">
        <ele>793.7</ele>
        <time>2022-08-13T12:47:52Z</time>
      </trkpt>
      <trkpt lat="42.2484740" lon="-2.6283370">
        <ele>795.3</ele>
        <time>2022-08-13T12:48:06Z</time>
      </trkpt>
      <trkpt lat="42.2484530" lon="-2.6283420">
        <ele>795.5</ele>
        <time>2022-08-13T12:48:07Z</time>
      </trkpt>
      <trkpt lat="42.2484320" lon="-2.6283430">
        <ele>795.6</ele>
        <time>2022-08-13T12:48:08Z</time>
      </trkpt>
      <trkpt lat="42.2482650" lon="-2.6283490">
        <ele>796.5</ele>
        <time>2022-08-13T12:48:16Z</time>
      </trkpt>
      <trkpt lat="42.2480600" lon="-2.6283210">
        <ele>797.7</ele>
        <time>2022-08-13T12:48:26Z</time>
      </trkpt>
      <trkpt lat="42.2478770" lon="-2.6282780">
        <ele>798.7</ele>
        <time>2022-08-13T12:48:34Z</time>
      </trkpt>
      <trkpt lat="42.2475680" lon="-2.6281850">
        <ele>800.2</ele>
        <time>2022-08-13T12:48:47Z</time>
      </trkpt>
      <trkpt lat="42.2473700" lon="-2.6281300">
        <ele>801.2</ele>
        <time>2022-08-13T12:48:55Z</time>
      </trkpt>
      <trkpt lat="42.2473470" lon="-2.6281230">
        <ele>801.3</ele>
        <time>2022-08-13T12:48:56Z</time>
      </trkpt>
      <trkpt lat="42.2472450" lon="-2.6280960">
        <ele>801.8</ele>
        <time>2022-08-13T12:49:00Z</time>
      </trkpt>
      <trkpt lat="42.2471030" lon="-2.6280560">
        <ele>802.5</ele>
        <time>2022-08-13T12:49:06Z</time>
      </trkpt>
      <trkpt lat="42.2468450" lon="-2.6279900">
        <ele>804.3</ele>
        <time>2022-08-13T12:49:17Z</time>
      </trkpt>
      <trkpt lat="42.2467510" lon="-2.6279710">
        <ele>805.0</ele>
        <time>2022-08-13T12:49:21Z</time>
      </trkpt>
      <trkpt lat="42.2465860" lon="-2.6279440">
        <ele>806.1</ele>
        <time>2022-08-13T12:49:28Z</time>
      </trkpt>
      <trkpt lat="42.2465390" lon="-2.6279400">
        <ele>806.5</ele>
        <time>2022-08-13T12:49:30Z</time>
      </trkpt>
      <trkpt lat="42.2464480" lon="-2.6279310">
        <ele>807.0</ele>
        <time>2022-08-13T12:49:34Z</time>
      </trkpt>
      <trkpt lat="42.2463360" lon="-2.6279200">
        <ele>807.6</ele>
        <time>2022-08-13T12:49:39Z</time>
      </trkpt>
      <trkpt lat="42.2462210" lon="-2.6279110">
        <ele>808.2</ele>
        <time>2022-08-13T12:49:44Z</time>
      </trkpt>
      <trkpt lat="42.2461060" lon="-2.6279060">
        <ele>808.9</ele>
        <time>2022-08-13T12:49:49Z</time>
      </trkpt>
      <trkpt lat="42.2460380" lon="-2.6279030">
        <ele>809.3</ele>
        <time>2022-08-13T12:49:52Z</time>
      </trkpt>
      <trkpt lat="42.2458640" lon="-2.6278960">
        <ele>810.3</ele>
        <time>2022-08-13T12:50:00Z</time>
      </trkpt>
      <trkpt lat="42.2457330" lon="-2.6278890">
        <ele>811.2</ele>
        <time>2022-08-13T12:50:06Z</time>
      </trkpt>
      <trkpt lat="42.2456230" lon="-2.6278860">
        <ele>812.0</ele>
        <time>2022-08-13T12:50:11Z</time>
      </trkpt>
      <trkpt lat="42.2454240" lon="-2.6278780">
        <ele>813.5</ele>
        <time>2022-08-13T12:50:20Z</time>
      </trkpt>
      <trkpt lat="42.2454030" lon="-2.6278780">
        <ele>813.6</ele>
        <time>2022-08-13T12:50:21Z</time>
      </trkpt>
      <trkpt lat="42.2452650" lon="-2.6278710">
        <ele>814.6</ele>
        <time>2022-08-13T12:50:27Z</time>
      </trkpt>
      <trkpt lat="42.2451040" lon="-2.6278680">
        <ele>815.8</ele>
        <time>2022-08-13T12:50:34Z</time>
      </trkpt>
      <trkpt lat="42.2450560" lon="-2.6278700">
        <ele>816.1</ele>
        <time>2022-08-13T12:50:36Z</time>
      </trkpt>
      <trkpt lat="42.2449180" lon="-2.6278680">
        <ele>817.1</ele>
        <time>2022-08-13T12:50:42Z</time>
      </trkpt>
      <trkpt lat="42.2447960" lon="-2.6278780">
        <ele>818.0</ele>
        <time>2022-08-13T12:50:47Z</time>
      </trkpt>
      <trkpt lat="42.2447450" lon="-2.6278870">
        <ele>818.4</ele>
        <time>2022-08-13T12:50:49Z</time>
      </trkpt>
      <trkpt lat="42.2445440" lon="-2.6279310">
        <ele>819.7</ele>
        <time>2022-08-13T12:50:58Z</time>
      </trkpt>
      <trkpt lat="42.2445220" lon="-2.6279380">
        <ele>819.9</ele>
        <time>2022-08-13T12:50:59Z</time>
      </trkpt>
      <trkpt lat="42.2443990" lon="-2.6280040">
        <ele>820.8</ele>
        <time>2022-08-13T12:51:05Z</time>
      </trkpt>
      <trkpt lat="42.2442910" lon="-2.6280600">
        <ele>821.6</ele>
        <time>2022-08-13T12:51:10Z</time>
      </trkpt>
      <trkpt lat="42.2442240" lon="-2.6281010">
        <ele>822.0</ele>
        <time>2022-08-13T12:51:13Z</time>
      </trkpt>
      <trkpt lat="42.2440710" lon="-2.6282000">
        <ele>823.1</ele>
        <time>2022-08-13T12:51:21Z</time>
      </trkpt>
      <trkpt lat="42.2440530" lon="-2.6282120">
        <ele>823.2</ele>
        <time>2022-08-13T12:51:22Z</time>
      </trkpt>
      <trkpt lat="42.2439330" lon="-2.6282930">
        <ele>824.1</ele>
        <time>2022-08-13T12:51:28Z</time>
      </trkpt>
      <trkpt lat="42.2438770" lon="-2.6283320">
        <ele>824.6</ele>
        <time>2022-08-13T12:51:31Z</time>
      </trkpt>
      <trkpt lat="42.2437960" lon="-2.6283840">
        <ele>825.2</ele>
        <time>2022-08-13T12:51:35Z</time>
      </trkpt>
      <trkpt lat="42.2436520" lon="-2.6284820">
        <ele>826.2</ele>
        <time>2022-08-13T12:51:42Z</time>
      </trkpt>
      <trkpt lat="42.2435070" lon="-2.6285860">
        <ele>827.3</ele>
        <time>2022-08-13T12:51:49Z</time>
      </trkpt>
      <trkpt lat="42.2434410" lon="-2.6286380">
        <ele>827.8</ele>
        <time>2022-08-13T12:51:52Z</time>
      </trkpt>
      <trkpt lat="42.2433040" lon="-2.6287570">
        <ele>828.8</ele>
        <time>2022-08-13T12:51:59Z</time>
      </trkpt>
      <trkpt lat="42.2432190" lon="-2.6288290">
        <ele>829.4</ele>
        <time>2022-08-13T12:52:03Z</time>
      </trkpt>
      <trkpt lat="42.2431210" lon="-2.6289160">
        <ele>830.1</ele>
        <time>2022-08-13T12:52:08Z</time>
      </trkpt>
      <trkpt lat="42.2430140" lon="-2.6290050">
        <ele>830.8</ele>
        <time>2022-08-13T12:52:13Z</time>
      </trkpt>
      <trkpt lat="42.2429230" lon="-2.6290910">
        <ele>831.4</ele>
        <time>2022-08-13T12:52:18Z</time>
      </trkpt>
      <trkpt lat="42.2428270" lon="-2.6291730">
        <ele>832.1</ele>
        <time>2022-08-13T12:52:23Z</time>
      </trkpt>
      <trkpt lat="42.2428040" lon="-2.6291950">
        <ele>832.2</ele>
        <time>2022-08-13T12:52:24Z</time>
      </trkpt>
      <trkpt lat="42.2426410" lon="-2.6293420">
        <ele>833.4</ele>
        <time>2022-08-13T12:52:32Z</time>
      </trkpt>
      <trkpt lat="42.2426000" lon="-2.6293830">
        <ele>833.7</ele>
        <time>2022-08-13T12:52:34Z</time>
      </trkpt>
      <trkpt lat="42.2424360" lon="-2.6295390">
        <ele>834.8</ele>
        <time>2022-08-13T12:52:42Z</time>
      </trkpt>
      <trkpt lat="42.2423800" lon="-2.6296010">
        <ele>835.2</ele>
        <time>2022-08-13T12:52:45Z</time>
      </trkpt>
      <trkpt lat="42.2421740" lon="-2.6298260">
        <ele>836.7</ele>
        <time>2022-08-13T12:52:56Z</time>
      </trkpt>
      <trkpt lat="42.2419830" lon="-2.6300270">
        <ele>838.1</ele>
        <time>2022-08-13T12:53:06Z</time>
      </trkpt>
      <trkpt lat="42.2419400" lon="-2.6300640">
        <ele>838.4</ele>
        <time>2022-08-13T12:53:08Z</time>
      </trkpt>
      <trkpt lat="42.2418260" lon="-2.6301840">
        <ele>839.2</ele>
        <time>2022-08-13T12:53:14Z</time>
      </trkpt>
      <trkpt lat="42.2417690" lon="-2.6302370">
        <ele>839.5</ele>
        <time>2022-08-13T12:53:17Z</time>
      </trkpt>
      <trkpt lat="42.2417130" lon="-2.6302970">
        <ele>839.9</ele>
        <time>2022-08-13T12:53:20Z</time>
      </trkpt>
      <trkpt lat="42.2416540" lon="-2.6303510">
        <ele>840.3</ele>
        <time>2022-08-13T12:53:23Z</time>
      </trkpt>
      <trkpt lat="42.2415390" lon="-2.6304520">
        <ele>841.1</ele>
        <time>2022-08-13T12:53:29Z</time>
      </trkpt>
      <trkpt lat="42.2415190" lon="-2.6304670">
        <ele>841.2</ele>
        <time>2022-08-13T12:53:31Z</time>
      </trkpt>
      <trkpt lat="42.2412250" lon="-2.6306590">
        <ele>842.5</ele>
        <time>2022-08-13T12:53:43Z</time>
      </trkpt>
      <trkpt lat="42.2411770" lon="-2.6306780">
        <ele>842.7</ele>
        <time>2022-08-13T12:53:45Z</time>
      </trkpt>
      <trkpt lat="42.2409900" lon="-2.6307670">
        <ele>843.1</ele>
        <time>2022-08-13T12:53:52Z</time>
      </trkpt>
      <trkpt lat="42.2407050" lon="-2.6309250">
        <ele>843.3</ele>
        <time>2022-08-13T12:54:02Z</time>
      </trkpt>
      <trkpt lat="42.2404810" lon="-2.6311820">
        <ele>842.8</ele>
        <time>2022-08-13T12:54:11Z</time>
      </trkpt>
      <trkpt lat="42.2404180" lon="-2.6312640">
        <ele>842.6</ele>
        <time>2022-08-13T12:54:13Z</time>
      </trkpt>
      <trkpt lat="42.2402960" lon="-2.6314110">
        <ele>842.1</ele>
        <time>2022-08-13T12:54:17Z</time>
      </trkpt>
      <trkpt lat="42.2402270" lon="-2.6314690">
        <ele>841.8</ele>
        <time>2022-08-13T12:54:19Z</time>
      </trkpt>
      <trkpt lat="42.2400420" lon="-2.6315610">
        <ele>841.1</ele>
        <time>2022-08-13T12:54:23Z</time>
      </trkpt>
      <trkpt lat="42.2398380" lon="-2.6315700">
        <ele>840.2</ele>
        <time>2022-08-13T12:54:27Z</time>
      </trkpt>
      <trkpt lat="42.2397820" lon="-2.6315580">
        <ele>839.9</ele>
        <time>2022-08-13T12:54:28Z</time>
      </trkpt>
      <trkpt lat="42.2397250" lon="-2.6315390">
        <ele>839.6</ele>
        <time>2022-08-13T12:54:29Z</time>
      </trkpt>
      <trkpt lat="42.2396680" lon="-2.6315090">
        <ele>839.3</ele>
        <time>2022-08-13T12:54:30Z</time>
      </trkpt>
      <trkpt lat="42.2396100" lon="-2.6314710">
        <ele>838.9</ele>
        <time>2022-08-13T12:54:31Z</time>
      </trkpt>
      <trkpt lat="42.2394990" lon="-2.6313670">
        <ele>838.1</ele>
        <time>2022-08-13T12:54:33Z</time>
      </trkpt>
      <trkpt lat="42.2394080" lon="-2.6312220">
        <ele>837.1</ele>
        <time>2022-08-13T12:54:35Z</time>
      </trkpt>
      <trkpt lat="42.2393530" lon="-2.6310330">
        <ele>836.1</ele>
        <time>2022-08-13T12:54:37Z</time>
      </trkpt>
      <trkpt lat="42.2393400" lon="-2.6309290">
        <ele>835.6</ele>
        <time>2022-08-13T12:54:38Z</time>
      </trkpt>
      <trkpt lat="42.2393290" lon="-2.6308200">
        <ele>835.0</ele>
        <time>2022-08-13T12:54:39Z</time>
      </trkpt>
      <trkpt lat="42.2392970" lon="-2.6304800">
        <ele>833.0</ele>
        <time>2022-08-13T12:54:42Z</time>
      </trkpt>
      <trkpt lat="42.2392760" lon="-2.6302410">
        <ele>831.5</ele>
        <time>2022-08-13T12:54:44Z</time>
      </trkpt>
      <trkpt lat="42.2392810" lon="-2.6301120">
        <ele>830.7</ele>
        <time>2022-08-13T12:54:45Z</time>
      </trkpt>
      <trkpt lat="42.2392970" lon="-2.6299830">
        <ele>829.8</ele>
        <time>2022-08-13T12:54:46Z</time>
      </trkpt>
      <trkpt lat="42.2393260" lon="-2.6298290">
        <ele>828.8</ele>
        <time>2022-08-13T12:54:47Z</time>
      </trkpt>
      <trkpt lat="42.2393960" lon="-2.6295910">
        <ele>827.3</ele>
        <time>2022-08-13T12:54:49Z</time>
      </trkpt>
      <trkpt lat="42.2394700" lon="-2.6293290">
        <ele>825.8</ele>
        <time>2022-08-13T12:54:51Z</time>
      </trkpt>
      <trkpt lat="42.2394970" lon="-2.6292080">
        <ele>825.1</ele>
        <time>2022-08-13T12:54:52Z</time>
      </trkpt>
      <trkpt lat="42.2395240" lon="-2.6290780">
        <ele>824.3</ele>
        <time>2022-08-13T12:54:53Z</time>
      </trkpt>
      <trkpt lat="42.2395300" lon="-2.6289980">
        <ele>823.8</ele>
        <time>2022-08-13T12:54:54Z</time>
      </trkpt>
      <trkpt lat="42.2395190" lon="-2.6289000">
        <ele>823.2</ele>
        <time>2022-08-13T12:54:55Z</time>
      </trkpt>
      <trkpt lat="42.2394860" lon="-2.6288110">
        <ele>822.5</ele>
        <time>2022-08-13T12:54:56Z</time>
      </trkpt>
      <trkpt lat="42.2394160" lon="-2.6287330">
        <ele>821.6</ele>
        <time>2022-08-13T12:54:57Z</time>
      </trkpt>
      <trkpt lat="42.2393540" lon="-2.6287010">
        <ele>821.0</ele>
        <time>2022-08-13T12:54:58Z</time>
      </trkpt>
      <trkpt lat="42.2392730" lon="-2.6286810">
        <ele>820.2</ele>
        <time>2022-08-13T12:54:59Z</time>
      </trkpt>
      <trkpt lat="42.2391700" lon="-2.6286770">
        <ele>819.4</ele>
        <time>2022-08-13T12:55:00Z</time>
      </trkpt>
      <trkpt lat="42.2390800" lon="-2.6286840">
        <ele>818.8</ele>
        <time>2022-08-13T12:55:01Z</time>
      </trkpt>
      <trkpt lat="42.2389180" lon="-2.6286900">
        <ele>818.4</ele>
        <time>2022-08-13T12:55:03Z</time>
      </trkpt>
      <trkpt lat="42.2387190" lon="-2.6286820">
        <ele>817.4</ele>
        <time>2022-08-13T12:55:05Z</time>
      </trkpt>
      <trkpt lat="42.2386270" lon="-2.6286790">
        <ele>816.9</ele>
        <time>2022-08-13T12:55:06Z</time>
      </trkpt>
      <trkpt lat="42.2385550" lon="-2.6286760">
        <ele>816.6</ele>
        <time>2022-08-13T12:55:07Z</time>
      </trkpt>
      <trkpt lat="42.2383670" lon="-2.6286730">
        <ele>815.5</ele>
        <time>2022-08-13T12:55:09Z</time>
      </trkpt>
      <trkpt lat="42.2382300" lon="-2.6286300">
        <ele>814.8</ele>
        <time>2022-08-13T12:55:11Z</time>
      </trkpt>
      <trkpt lat="42.2379470" lon="-2.6284110">
        <ele>812.9</ele>
        <time>2022-08-13T12:55:15Z</time>
      </trkpt>
      <trkpt lat="42.2376050" lon="-2.6281280">
        <ele>810.3</ele>
        <time>2022-08-13T12:55:20Z</time>
      </trkpt>
      <trkpt lat="42.2375340" lon="-2.6280710">
        <ele>809.7</ele>
        <time>2022-08-13T12:55:21Z</time>
      </trkpt>
      <trkpt lat="42.2373910" lon="-2.6279560">
        <ele>808.7</ele>
        <time>2022-08-13T12:55:23Z</time>
      </trkpt>
      <trkpt lat="42.2371730" lon="-2.6277850">
        <ele>807.0</ele>
        <time>2022-08-13T12:55:26Z</time>
      </trkpt>
      <trkpt lat="42.2370290" lon="-2.6276750">
        <ele>806.0</ele>
        <time>2022-08-13T12:55:28Z</time>
      </trkpt>
      <trkpt lat="42.2368880" lon="-2.6275610">
        <ele>805.0</ele>
        <time>2022-08-13T12:55:30Z</time>
      </trkpt>
      <trkpt lat="42.2366720" lon="-2.6273890">
        <ele>803.5</ele>
        <time>2022-08-13T12:55:33Z</time>
      </trkpt>
      <trkpt lat="42.2365320" lon="-2.6272710">
        <ele>802.5</ele>
        <time>2022-08-13T12:55:35Z</time>
      </trkpt>
      <trkpt lat="42.2362500" lon="-2.6270190">
        <ele>800.4</ele>
        <time>2022-08-13T12:55:39Z</time>
      </trkpt>
      <trkpt lat="42.2361240" lon="-2.6268620">
        <ele>799.3</ele>
        <time>2022-08-13T12:55:41Z</time>
      </trkpt>
      <trkpt lat="42.2360660" lon="-2.6267720">
        <ele>798.7</ele>
        <time>2022-08-13T12:55:42Z</time>
      </trkpt>
      <trkpt lat="42.2360140" lon="-2.6266770">
        <ele>798.1</ele>
        <time>2022-08-13T12:55:43Z</time>
      </trkpt>
      <trkpt lat="42.2359630" lon="-2.6265730">
        <ele>797.5</ele>
        <time>2022-08-13T12:55:44Z</time>
      </trkpt>
      <trkpt lat="42.2358670" lon="-2.6263470">
        <ele>796.2</ele>
        <time>2022-08-13T12:55:46Z</time>
      </trkpt>
      <trkpt lat="42.2357760" lon="-2.6261020">
        <ele>795.1</ele>
        <time>2022-08-13T12:55:48Z</time>
      </trkpt>
      <trkpt lat="42.2357410" lon="-2.6260000">
        <ele>794.6</ele>
        <time>2022-08-13T12:55:49Z</time>
      </trkpt>
      <trkpt lat="42.2356390" lon="-2.6257170">
        <ele>793.5</ele>
        <time>2022-08-13T12:55:51Z</time>
      </trkpt>
      <trkpt lat="42.2355920" lon="-2.6255900">
        <ele>793.0</ele>
        <time>2022-08-13T12:55:52Z</time>
      </trkpt>
      <trkpt lat="42.2354950" lon="-2.6253420">
        <ele>791.9</ele>
        <time>2022-08-13T12:55:54Z</time>
      </trkpt>
      <trkpt lat="42.2354320" lon="-2.6252330">
        <ele>791.3</ele>
        <time>2022-08-13T12:55:55Z</time>
      </trkpt>
      <trkpt lat="42.2353540" lon="-2.6251430">
        <ele>790.6</ele>
        <time>2022-08-13T12:55:56Z</time>
      </trkpt>
      <trkpt lat="42.2352670" lon="-2.6250730">
        <ele>789.9</ele>
        <time>2022-08-13T12:55:57Z</time>
      </trkpt>
      <trkpt lat="42.2351740" lon="-2.6250130">
        <ele>789.3</ele>
        <time>2022-08-13T12:55:58Z</time>
      </trkpt>
      <trkpt lat="42.2350830" lon="-2.6249550">
        <ele>788.7</ele>
        <time>2022-08-13T12:55:59Z</time>
      </trkpt>
      <trkpt lat="42.2347980" lon="-2.6247680">
        <ele>786.8</ele>
        <time>2022-08-13T12:56:02Z</time>
      </trkpt>
      <trkpt lat="42.2344910" lon="-2.6246220">
        <ele>785.0</ele>
        <time>2022-08-13T12:56:05Z</time>
      </trkpt>
      <trkpt lat="42.2343850" lon="-2.6246020">
        <ele>784.3</ele>
        <time>2022-08-13T12:56:06Z</time>
      </trkpt>
      <trkpt lat="42.2342760" lon="-2.6246000">
        <ele>783.6</ele>
        <time>2022-08-13T12:56:07Z</time>
      </trkpt>
      <trkpt lat="42.2341640" lon="-2.6246160">
        <ele>782.8</ele>
        <time>2022-08-13T12:56:08Z</time>
      </trkpt>
      <trkpt lat="42.2340550" lon="-2.6246510">
        <ele>782.0</ele>
        <time>2022-08-13T12:56:09Z</time>
      </trkpt>
      <trkpt lat="42.2338530" lon="-2.6247850">
        <ele>780.4</ele>
        <time>2022-08-13T12:56:11Z</time>
      </trkpt>
      <trkpt lat="42.2336800" lon="-2.6249890">
        <ele>779.0</ele>
        <time>2022-08-13T12:56:13Z</time>
      </trkpt>
      <trkpt lat="42.2336100" lon="-2.6251100">
        <ele>778.5</ele>
        <time>2022-08-13T12:56:14Z</time>
      </trkpt>
      <trkpt lat="42.2334810" lon="-2.6253770">
        <ele>777.6</ele>
        <time>2022-08-13T12:56:16Z</time>
      </trkpt>
      <trkpt lat="42.2333590" lon="-2.6256410">
        <ele>777.1</ele>
        <time>2022-08-13T12:56:18Z</time>
      </trkpt>
      <trkpt lat="42.2332380" lon="-2.6258950">
        <ele>777.3</ele>
        <time>2022-08-13T12:56:20Z</time>
      </trkpt>
      <trkpt lat="42.2330920" lon="-2.6262110">
        <ele>777.5</ele>
        <time>2022-08-13T12:56:23Z</time>
      </trkpt>
      <trkpt lat="42.2330580" lon="-2.6262910">
        <ele>777.5</ele>
        <time>2022-08-13T12:56:24Z</time>
      </trkpt>
      <trkpt lat="42.2329990" lon="-2.6264260">
        <ele>777.6</ele>
        <time>2022-08-13T12:56:26Z</time>
      </trkpt>
      <trkpt lat="42.2329560" lon="-2.6265280">
        <ele>777.7</ele>
        <time>2022-08-13T12:56:28Z</time>
      </trkpt>
      <trkpt lat="42.2328930" lon="-2.6266390">
        <ele>777.9</ele>
        <time>2022-08-13T12:56:32Z</time>
      </trkpt>
      <trkpt lat="42.2328670" lon="-2.6266700">
        <ele>777.9</ele>
        <time>2022-08-13T12:56:34Z</time>
      </trkpt>
      <trkpt lat="42.2328370" lon="-2.6266900">
        <ele>778.0</ele>
        <time>2022-08-13T12:56:36Z</time>
      </trkpt>
      <trkpt lat="42.2328330" lon="-2.6266960">
        <ele>778.0</ele>
        <time>2022-08-13T12:56:37Z</time>
      </trkpt>
      <trkpt lat="42.2328290" lon="-2.6267000">
        <ele>778.1</ele>
        <time>2022-08-13T12:57:45Z</time>
      </trkpt>
      <trkpt lat="42.2326900" lon="-2.6267010">
        <ele>778.3</ele>
        <time>2022-08-13T12:57:50Z</time>
      </trkpt>
      <trkpt lat="42.2326080" lon="-2.6266860">
        <ele>778.5</ele>
        <time>2022-08-13T12:57:52Z</time>
      </trkpt>
      <trkpt lat="42.2325210" lon="-2.6266620">
        <ele>778.6</ele>
        <time>2022-08-13T12:57:54Z</time>
      </trkpt>
      <trkpt lat="42.2324770" lon="-2.6266450">
        <ele>778.7</ele>
        <time>2022-08-13T12:57:55Z</time>
      </trkpt>
      <trkpt lat="42.2322730" lon="-2.6265520">
        <ele>779.0</ele>
        <time>2022-08-13T12:58:00Z</time>
      </trkpt>
      <trkpt lat="42.2322020" lon="-2.6265260">
        <ele>779.2</ele>
        <time>2022-08-13T12:58:02Z</time>
      </trkpt>
      <trkpt lat="42.2321650" lon="-2.6265120">
        <ele>779.3</ele>
        <time>2022-08-13T12:58:03Z</time>
      </trkpt>
      <trkpt lat="42.2320190" lon="-2.6264480">
        <ele>779.7</ele>
        <time>2022-08-13T12:58:07Z</time>
      </trkpt>
      <trkpt lat="42.2319040" lon="-2.6263980">
        <ele>779.9</ele>
        <time>2022-08-13T12:58:10Z</time>
      </trkpt>
      <trkpt lat="42.2318320" lon="-2.6263700">
        <ele>780.1</ele>
        <time>2022-08-13T12:58:12Z</time>
      </trkpt>
      <trkpt lat="42.2316860" lon="-2.6263360">
        <ele>780.4</ele>
        <time>2022-08-13T12:58:16Z</time>
      </trkpt>
      <trkpt lat="42.2315730" lon="-2.6263320">
        <ele>780.7</ele>
        <time>2022-08-13T12:58:19Z</time>
      </trkpt>
      <trkpt lat="42.2313110" lon="-2.6263740">
        <ele>781.1</ele>
        <time>2022-08-13T12:58:25Z</time>
      </trkpt>
      <trkpt lat="42.2312210" lon="-2.6264200">
        <ele>781.1</ele>
        <time>2022-08-13T12:58:27Z</time>
      </trkpt>
      <trkpt lat="42.2310480" lon="-2.6265290">
        <ele>781.2</ele>
        <time>2022-08-13T12:58:31Z</time>
      </trkpt>
      <trkpt lat="42.2308020" lon="-2.6267590">
        <ele>781.4</ele>
        <time>2022-08-13T12:58:37Z</time>
      </trkpt>
      <trkpt lat="42.2307340" lon="-2.6268240">
        <ele>781.4</ele>
        <time>2022-08-13T12:58:39Z</time>
      </trkpt>
      <trkpt lat="42.2305450" lon="-2.6270750">
        <ele>781.5</ele>
        <time>2022-08-13T12:58:45Z</time>
      </trkpt>
      <trkpt lat="42.2302460" lon="-2.6274110">
        <ele>782.0</ele>
        <time>2022-08-13T12:58:53Z</time>
      </trkpt>
      <trkpt lat="42.2301660" lon="-2.6274710">
        <ele>782.1</ele>
        <time>2022-08-13T12:58:55Z</time>
      </trkpt>
      <trkpt lat="42.2301230" lon="-2.6274990">
        <ele>782.1</ele>
        <time>2022-08-13T12:58:56Z</time>
      </trkpt>
      <trkpt lat="42.2300360" lon="-2.6275610">
        <ele>782.2</ele>
        <time>2022-08-13T12:58:58Z</time>
      </trkpt>
      <trkpt lat="42.2299940" lon="-2.6275870">
        <ele>782.3</ele>
        <time>2022-08-13T12:58:59Z</time>
      </trkpt>
      <trkpt lat="42.2299030" lon="-2.6276340">
        <ele>782.3</ele>
        <time>2022-08-13T12:59:01Z</time>
      </trkpt>
      <trkpt lat="42.2298120" lon="-2.6276780">
        <ele>782.4</ele>
        <time>2022-08-13T12:59:03Z</time>
      </trkpt>
      <trkpt lat="42.2296050" lon="-2.6278230">
        <ele>782.6</ele>
        <time>2022-08-13T12:59:08Z</time>
      </trkpt>
      <trkpt lat="42.2295680" lon="-2.6278570">
        <ele>782.6</ele>
        <time>2022-08-13T12:59:09Z</time>
      </trkpt>
      <trkpt lat="42.2295260" lon="-2.6278840">
        <ele>782.7</ele>
        <time>2022-08-13T12:59:10Z</time>
      </trkpt>
      <trkpt lat="42.2294520" lon="-2.6279470">
        <ele>782.8</ele>
        <time>2022-08-13T12:59:12Z</time>
      </trkpt>
      <trkpt lat="42.2294200" lon="-2.6279690">
        <ele>782.9</ele>
        <time>2022-08-13T12:59:13Z</time>
      </trkpt>
      <trkpt lat="42.2293880" lon="-2.6279960">
        <ele>782.9</ele>
        <time>2022-08-13T12:59:14Z</time>
      </trkpt>
      <trkpt lat="42.2292810" lon="-2.6280900">
        <ele>783.2</ele>
        <time>2022-08-13T12:59:17Z</time>
      </trkpt>
      <trkpt lat="42.2291810" lon="-2.6281430">
        <ele>783.5</ele>
        <time>2022-08-13T12:59:19Z</time>
      </trkpt>
      <trkpt lat="42.2290590" lon="-2.6282510">
        <ele>784.0</ele>
        <time>2022-08-13T12:59:23Z</time>
      </trkpt>
      <trkpt lat="42.2289910" lon="-2.6283270">
        <ele>784.3</ele>
        <time>2022-08-13T12:59:25Z</time>
      </trkpt>
      <trkpt lat="42.2289310" lon="-2.6283740">
        <ele>784.6</ele>
        <time>2022-08-13T12:59:27Z</time>
      </trkpt>
      <trkpt lat="42.2288390" lon="-2.6284810">
        <ele>785.1</ele>
        <time>2022-08-13T12:59:30Z</time>
      </trkpt>
      <trkpt lat="42.2287140" lon="-2.6286130">
        <ele>785.9</ele>
        <time>2022-08-13T12:59:34Z</time>
      </trkpt>
      <trkpt lat="42.2286650" lon="-2.6286700">
        <ele>786.2</ele>
        <time>2022-08-13T12:59:36Z</time>
      </trkpt>
      <trkpt lat="42.2286200" lon="-2.6287290">
        <ele>786.5</ele>
        <time>2022-08-13T12:59:38Z</time>
      </trkpt>
      <trkpt lat="42.2285730" lon="-2.6287780">
        <ele>786.9</ele>
        <time>2022-08-13T12:59:40Z</time>
      </trkpt>
      <trkpt lat="42.2285210" lon="-2.6288510">
        <ele>787.3</ele>
        <time>2022-08-13T12:59:42Z</time>
      </trkpt>
      <trkpt lat="42.2284340" lon="-2.6289160">
        <ele>787.9</ele>
        <time>2022-08-13T12:59:45Z</time>
      </trkpt>
      <trkpt lat="42.2283400" lon="-2.6289660">
        <ele>788.5</ele>
        <time>2022-08-13T12:59:48Z</time>
      </trkpt>
      <trkpt lat="42.2283160" lon="-2.6289790">
        <ele>788.6</ele>
        <time>2022-08-13T12:59:49Z</time>
      </trkpt>
      <trkpt lat="42.2281480" lon="-2.6290160">
        <ele>789.7</ele>
        <time>2022-08-13T12:59:54Z</time>
      </trkpt>
      <trkpt lat="42.2280840" lon="-2.6290140">
        <ele>790.1</ele>
        <time>2022-08-13T12:59:56Z</time>
      </trkpt>
      <trkpt lat="42.2279430" lon="-2.6289690">
        <ele>791.0</ele>
        <time>2022-08-13T13:00:00Z</time>
      </trkpt>
      <trkpt lat="42.2278100" lon="-2.6289070">
        <ele>791.9</ele>
        <time>2022-08-13T13:00:04Z</time>
      </trkpt>
      <trkpt lat="42.2276850" lon="-2.6288570">
        <ele>792.7</ele>
        <time>2022-08-13T13:00:08Z</time>
      </trkpt>
      <trkpt lat="42.2276520" lon="-2.6288400">
        <ele>792.9</ele>
        <time>2022-08-13T13:00:09Z</time>
      </trkpt>
      <trkpt lat="42.2275060" lon="-2.6287510">
        <ele>793.7</ele>
        <time>2022-08-13T13:00:14Z</time>
      </trkpt>
      <trkpt lat="42.2273070" lon="-2.6285740">
        <ele>794.8</ele>
        <time>2022-08-13T13:00:22Z</time>
      </trkpt>
      <trkpt lat="42.2271990" lon="-2.6284600">
        <ele>795.3</ele>
        <time>2022-08-13T13:00:26Z</time>
      </trkpt>
      <trkpt lat="42.2270900" lon="-2.6283620">
        <ele>795.6</ele>
        <time>2022-08-13T13:00:30Z</time>
      </trkpt>
      <trkpt lat="42.2270280" lon="-2.6283130">
        <ele>795.7</ele>
        <time>2022-08-13T13:00:32Z</time>
      </trkpt>
      <trkpt lat="42.2267790" lon="-2.6281350">
        <ele>795.7</ele>
        <time>2022-08-13T13:00:39Z</time>
      </trkpt>
      <trkpt lat="42.2267010" lon="-2.6280870">
        <ele>795.6</ele>
        <time>2022-08-13T13:00:41Z</time>
      </trkpt>
      <trkpt lat="42.2266170" lon="-2.6280460">
        <ele>795.4</ele>
        <time>2022-08-13T13:00:43Z</time>
      </trkpt>
      <trkpt lat="42.2264900" lon="-2.6279840">
        <ele>795.1</ele>
        <time>2022-08-13T13:00:46Z</time>
      </trkpt>
      <trkpt lat="42.2264460" lon="-2.6279690">
        <ele>795.0</ele>
        <time>2022-08-13T13:00:47Z</time>
      </trkpt>
      <trkpt lat="42.2262370" lon="-2.6279190">
        <ele>794.2</ele>
        <time>2022-08-13T13:00:51Z</time>
      </trkpt>
      <trkpt lat="42.2258200" lon="-2.6279260">
        <ele>792.4</ele>
        <time>2022-08-13T13:00:58Z</time>
      </trkpt>
      <trkpt lat="42.2254960" lon="-2.6280380">
        <ele>791.1</ele>
        <time>2022-08-13T13:01:03Z</time>
      </trkpt>
      <trkpt lat="42.2254310" lon="-2.6280730">
        <ele>790.8</ele>
        <time>2022-08-13T13:01:04Z</time>
      </trkpt>
      <trkpt lat="42.2253660" lon="-2.6281130">
        <ele>790.6</ele>
        <time>2022-08-13T13:01:05Z</time>
      </trkpt>
      <trkpt lat="42.2252400" lon="-2.6282020">
        <ele>790.2</ele>
        <time>2022-08-13T13:01:07Z</time>
      </trkpt>
      <trkpt lat="42.2250670" lon="-2.6283570">
        <ele>790.2</ele>
        <time>2022-08-13T13:01:10Z</time>
      </trkpt>
      <trkpt lat="42.2249610" lon="-2.6284720">
        <ele>790.2</ele>
        <time>2022-08-13T13:01:12Z</time>
      </trkpt>
      <trkpt lat="42.2249140" lon="-2.6285280">
        <ele>790.3</ele>
        <time>2022-08-13T13:01:13Z</time>
      </trkpt>
      <trkpt lat="42.2247890" lon="-2.6286930">
        <ele>790.4</ele>
        <time>2022-08-13T13:01:16Z</time>
      </trkpt>
      <trkpt lat="42.2247500" lon="-2.6287450">
        <ele>790.5</ele>
        <time>2022-08-13T13:01:17Z</time>
      </trkpt>
      <trkpt lat="42.2245210" lon="-2.6290910">
        <ele>791.4</ele>
        <time>2022-08-13T13:01:24Z</time>
      </trkpt>
      <trkpt lat="42.2243380" lon="-2.6293560">
        <ele>792.3</ele>
        <time>2022-08-13T13:01:30Z</time>
      </trkpt>
      <trkpt lat="42.2242810" lon="-2.6294370">
        <ele>792.6</ele>
        <time>2022-08-13T13:01:32Z</time>
      </trkpt>
      <trkpt lat="42.2241200" lon="-2.6296810">
        <ele>793.4</ele>
        <time>2022-08-13T13:01:38Z</time>
      </trkpt>
      <trkpt lat="42.2240360" lon="-2.6298020">
        <ele>793.8</ele>
        <time>2022-08-13T13:01:41Z</time>
      </trkpt>
      <trkpt lat="42.2239310" lon="-2.6299570">
        <ele>794.4</ele>
        <time>2022-08-13T13:01:45Z</time>
      </trkpt>
      <trkpt lat="42.2238330" lon="-2.6300960">
        <ele>794.9</ele>
        <time>2022-08-13T13:01:49Z</time>
      </trkpt>
      <trkpt lat="42.2237740" lon="-2.6302000">
        <ele>795.2</ele>
        <time>2022-08-13T13:01:52Z</time>
      </trkpt>
      <trkpt lat="42.2236510" lon="-2.6303780">
        <ele>795.7</ele>
        <time>2022-08-13T13:01:57Z</time>
      </trkpt>
      <trkpt lat="42.2235410" lon="-2.6305460">
        <ele>796.2</ele>
        <time>2022-08-13T13:02:02Z</time>
      </trkpt>
      <trkpt lat="42.2234260" lon="-2.6307150">
        <ele>796.7</ele>
        <time>2022-08-13T13:02:07Z</time>
      </trkpt>
      <trkpt lat="42.2233110" lon="-2.6308880">
        <ele>797.3</ele>
        <time>2022-08-13T13:02:12Z</time>
      </trkpt>
      <trkpt lat="42.2231950" lon="-2.6310650">
        <ele>797.8</ele>
        <time>2022-08-13T13:02:17Z</time>
      </trkpt>
      <trkpt lat="42.2230640" lon="-2.6312790">
        <ele>798.3</ele>
        <time>2022-08-13T13:02:23Z</time>
      </trkpt>
      <trkpt lat="42.2230390" lon="-2.6313150">
        <ele>798.4</ele>
        <time>2022-08-13T13:02:24Z</time>
      </trkpt>
      <trkpt lat="42.2228880" lon="-2.6315190">
        <ele>798.9</ele>
        <time>2022-08-13T13:02:30Z</time>
      </trkpt>
      <trkpt lat="42.2228630" lon="-2.6315490">
        <ele>799.0</ele>
        <time>2022-08-13T13:02:31Z</time>
      </trkpt>
      <trkpt lat="42.2225890" lon="-2.6318550">
        <ele>800.1</ele>
        <time>2022-08-13T13:02:41Z</time>
      </trkpt>
      <trkpt lat="42.2223540" lon="-2.6320300">
        <ele>801.3</ele>
        <time>2022-08-13T13:02:49Z</time>
      </trkpt>
      <trkpt lat="42.2223180" lon="-2.6320500">
        <ele>801.5</ele>
        <time>2022-08-13T13:02:50Z</time>
      </trkpt>
      <trkpt lat="42.2222310" lon="-2.6320930">
        <ele>802.0</ele>
        <time>2022-08-13T13:02:53Z</time>
      </trkpt>
      <trkpt lat="42.2220260" lon="-2.6321770">
        <ele>803.3</ele>
        <time>2022-08-13T13:03:00Z</time>
      </trkpt>
      <trkpt lat="42.2218290" lon="-2.6322280">
        <ele>804.5</ele>
        <time>2022-08-13T13:03:07Z</time>
      </trkpt>
      <trkpt lat="42.2217390" lon="-2.6322410">
        <ele>805.1</ele>
        <time>2022-08-13T13:03:10Z</time>
      </trkpt>
      <trkpt lat="42.2216530" lon="-2.6322410">
        <ele>805.7</ele>
        <time>2022-08-13T13:03:13Z</time>
      </trkpt>
      <trkpt lat="42.2215160" lon="-2.6322340">
        <ele>806.7</ele>
        <time>2022-08-13T13:03:18Z</time>
      </trkpt>
      <trkpt lat="42.2214880" lon="-2.6322310">
        <ele>806.9</ele>
        <time>2022-08-13T13:03:19Z</time>
      </trkpt>
      <trkpt lat="42.2212930" lon="-2.6321930">
        <ele>808.2</ele>
        <time>2022-08-13T13:03:26Z</time>
      </trkpt>
      <trkpt lat="42.2212410" lon="-2.6321750">
        <ele>808.5</ele>
        <time>2022-08-13T13:03:28Z</time>
      </trkpt>
      <trkpt lat="42.2210890" lon="-2.6321240">
        <ele>809.3</ele>
        <time>2022-08-13T13:03:34Z</time>
      </trkpt>
      <trkpt lat="42.2210130" lon="-2.6320880">
        <ele>809.8</ele>
        <time>2022-08-13T13:03:37Z</time>
      </trkpt>
      <trkpt lat="42.2208880" lon="-2.6320250">
        <ele>810.5</ele>
        <time>2022-08-13T13:03:42Z</time>
      </trkpt>
      <trkpt lat="42.2208070" lon="-2.6319780">
        <ele>810.9</ele>
        <time>2022-08-13T13:03:45Z</time>
      </trkpt>
      <trkpt lat="42.2207110" lon="-2.6319170">
        <ele>811.4</ele>
        <time>2022-08-13T13:03:49Z</time>
      </trkpt>
      <trkpt lat="42.2205890" lon="-2.6318360">
        <ele>812.1</ele>
        <time>2022-08-13T13:03:54Z</time>
      </trkpt>
      <trkpt lat="42.2204700" lon="-2.6317460">
        <ele>812.8</ele>
        <time>2022-08-13T13:03:59Z</time>
      </trkpt>
      <trkpt lat="42.2204160" lon="-2.6317100">
        <ele>813.1</ele>
        <time>2022-08-13T13:04:01Z</time>
      </trkpt>
      <trkpt lat="42.2202930" lon="-2.6316390">
        <ele>813.7</ele>
        <time>2022-08-13T13:04:06Z</time>
      </trkpt>
      <trkpt lat="42.2202080" lon="-2.6315780">
        <ele>814.2</ele>
        <time>2022-08-13T13:04:10Z</time>
      </trkpt>
      <trkpt lat="42.2201160" lon="-2.6315150">
        <ele>814.6</ele>
        <time>2022-08-13T13:04:14Z</time>
      </trkpt>
      <trkpt lat="42.2199720" lon="-2.6314250">
        <ele>815.2</ele>
        <time>2022-08-13T13:04:20Z</time>
      </trkpt>
      <trkpt lat="42.2199390" lon="-2.6314020">
        <ele>815.3</ele>
        <time>2022-08-13T13:04:22Z</time>
      </trkpt>
      <trkpt lat="42.2198130" lon="-2.6313150">
        <ele>815.7</ele>
        <time>2022-08-13T13:04:27Z</time>
      </trkpt>
      <trkpt lat="42.2195670" lon="-2.6311500">
        <ele>816.4</ele>
        <time>2022-08-13T13:04:36Z</time>
      </trkpt>
      <trkpt lat="42.2195360" lon="-2.6311330">
        <ele>816.4</ele>
        <time>2022-08-13T13:04:37Z</time>
      </trkpt>
      <trkpt lat="42.2193090" lon="-2.6309770">
        <ele>817.0</ele>
        <time>2022-08-13T13:04:45Z</time>
      </trkpt>
      <trkpt lat="42.2191870" lon="-2.6308930">
        <ele>817.4</ele>
        <time>2022-08-13T13:04:49Z</time>
      </trkpt>
      <trkpt lat="42.2190180" lon="-2.6307800">
        <ele>817.8</ele>
        <time>2022-08-13T13:04:55Z</time>
      </trkpt>
      <trkpt lat="42.2189400" lon="-2.6307340">
        <ele>818.0</ele>
        <time>2022-08-13T13:04:58Z</time>
      </trkpt>
      <trkpt lat="42.2188760" lon="-2.6307390">
        <ele>818.4</ele>
        <time>2022-08-13T13:05:00Z</time>
      </trkpt>
      <trkpt lat="42.2187980" lon="-2.6308600">
        <ele>818.5</ele>
        <time>2022-08-13T13:05:04Z</time>
      </trkpt>
      <trkpt lat="42.2188180" lon="-2.6310540">
        <ele>818.6</ele>
        <time>2022-08-13T13:05:09Z</time>
      </trkpt>
      <trkpt lat="42.2189350" lon="-2.6312290">
        <ele>818.7</ele>
        <time>2022-08-13T13:05:15Z</time>
      </trkpt>
      <trkpt lat="42.2191100" lon="-2.6313650">
        <ele>819.2</ele>
        <time>2022-08-13T13:05:22Z</time>
      </trkpt>
      <trkpt lat="42.2191360" lon="-2.6313820">
        <ele>819.3</ele>
        <time>2022-08-13T13:05:23Z</time>
      </trkpt>
      <trkpt lat="42.2193320" lon="-2.6315360">
        <ele>820.3</ele>
        <time>2022-08-13T13:05:31Z</time>
      </trkpt>
      <trkpt lat="42.2193570" lon="-2.6315540">
        <ele>820.5</ele>
        <time>2022-08-13T13:05:32Z</time>
      </trkpt>
      <trkpt lat="42.2194700" lon="-2.6316350">
        <ele>821.1</ele>
        <time>2022-08-13T13:05:37Z</time>
      </trkpt>
      <trkpt lat="42.2195570" lon="-2.6316870">
        <ele>821.6</ele>
        <time>2022-08-13T13:05:41Z</time>
      </trkpt>
      <trkpt lat="42.2196410" lon="-2.6317490">
        <ele>822.2</ele>
        <time>2022-08-13T13:05:45Z</time>
      </trkpt>
      <trkpt lat="42.2196580" lon="-2.6317620">
        <ele>822.3</ele>
        <time>2022-08-13T13:05:46Z</time>
      </trkpt>
      <trkpt lat="42.2198160" lon="-2.6318820">
        <ele>823.5</ele>
        <time>2022-08-13T13:05:53Z</time>
      </trkpt>
      <trkpt lat="42.2198330" lon="-2.6318950">
        <ele>823.6</ele>
        <time>2022-08-13T13:05:54Z</time>
      </trkpt>
      <trkpt lat="42.2200090" lon="-2.6320340">
        <ele>824.8</ele>
        <time>2022-08-13T13:06:02Z</time>
      </trkpt>
      <trkpt lat="42.2200300" lon="-2.6320480">
        <ele>825.0</ele>
        <time>2022-08-13T13:06:03Z</time>
      </trkpt>
      <trkpt lat="42.2201740" lon="-2.6321610">
        <ele>826.0</ele>
        <time>2022-08-13T13:06:10Z</time>
      </trkpt>
      <trkpt lat="42.2202430" lon="-2.6322190">
        <ele>826.6</ele>
        <time>2022-08-13T13:06:13Z</time>
      </trkpt>
      <trkpt lat="42.2204420" lon="-2.6323800">
        <ele>828.0</ele>
        <time>2022-08-13T13:06:22Z</time>
      </trkpt>
      <trkpt lat="42.2204580" lon="-2.6323950">
        <ele>828.1</ele>
        <time>2022-08-13T13:06:23Z</time>
      </trkpt>
      <trkpt lat="42.2205820" lon="-2.6325110">
        <ele>828.9</ele>
        <time>2022-08-13T13:06:29Z</time>
      </trkpt>
      <trkpt lat="42.2207300" lon="-2.6325990">
        <ele>829.7</ele>
        <time>2022-08-13T13:06:35Z</time>
      </trkpt>
      <trkpt lat="42.2208200" lon="-2.6326500">
        <ele>830.2</ele>
        <time>2022-08-13T13:06:39Z</time>
      </trkpt>
      <trkpt lat="42.2209410" lon="-2.6327220">
        <ele>830.9</ele>
        <time>2022-08-13T13:06:44Z</time>
      </trkpt>
      <trkpt lat="42.2210220" lon="-2.6327640">
        <ele>831.4</ele>
        <time>2022-08-13T13:06:48Z</time>
      </trkpt>
      <trkpt lat="42.2211100" lon="-2.6328030">
        <ele>832.0</ele>
        <time>2022-08-13T13:06:52Z</time>
      </trkpt>
      <trkpt lat="42.2211320" lon="-2.6328130">
        <ele>832.1</ele>
        <time>2022-08-13T13:06:53Z</time>
      </trkpt>
      <trkpt lat="42.2212370" lon="-2.6328480">
        <ele>832.9</ele>
        <time>2022-08-13T13:06:58Z</time>
      </trkpt>
      <trkpt lat="42.2212570" lon="-2.6328550">
        <ele>833.0</ele>
        <time>2022-08-13T13:06:59Z</time>
      </trkpt>
      <trkpt lat="42.2214130" lon="-2.6329120">
        <ele>834.3</ele>
        <time>2022-08-13T13:07:06Z</time>
      </trkpt>
      <trkpt lat="42.2214320" lon="-2.6329160">
        <ele>834.5</ele>
        <time>2022-08-13T13:07:07Z</time>
      </trkpt>
      <trkpt lat="42.2215620" lon="-2.6329790">
        <ele>835.7</ele>
        <time>2022-08-13T13:07:13Z</time>
      </trkpt>
      <trkpt lat="42.2215830" lon="-2.6329920">
        <ele>835.9</ele>
        <time>2022-08-13T13:07:14Z</time>
      </trkpt>
      <trkpt lat="42.2217080" lon="-2.6330740">
        <ele>837.0</ele>
        <time>2022-08-13T13:07:20Z</time>
      </trkpt>
      <trkpt lat="42.2217840" lon="-2.6331390">
        <ele>837.8</ele>
        <time>2022-08-13T13:07:24Z</time>
      </trkpt>
      <trkpt lat="42.2218690" lon="-2.6332250">
        <ele>838.5</ele>
        <time>2022-08-13T13:07:29Z</time>
      </trkpt>
      <trkpt lat="42.2219380" lon="-2.6333260">
        <ele>839.2</ele>
        <time>2022-08-13T13:07:34Z</time>
      </trkpt>
      <trkpt lat="42.2219520" lon="-2.6333490">
        <ele>839.4</ele>
        <time>2022-08-13T13:07:35Z</time>
      </trkpt>
      <trkpt lat="42.2220670" lon="-2.6336020">
        <ele>840.7</ele>
        <time>2022-08-13T13:07:45Z</time>
      </trkpt>
      <trkpt lat="42.2221360" lon="-2.6337810">
        <ele>841.6</ele>
        <time>2022-08-13T13:07:52Z</time>
      </trkpt>
      <trkpt lat="42.2221540" lon="-2.6338310">
        <ele>841.9</ele>
        <time>2022-08-13T13:07:54Z</time>
      </trkpt>
      <trkpt lat="42.2221890" lon="-2.6339710">
        <ele>842.5</ele>
        <time>2022-08-13T13:07:59Z</time>
      </trkpt>
      <trkpt lat="42.2222190" lon="-2.6341810">
        <ele>843.5</ele>
        <time>2022-08-13T13:08:06Z</time>
      </trkpt>
      <trkpt lat="42.2222320" lon="-2.6343420">
        <ele>844.2</ele>
        <time>2022-08-13T13:08:11Z</time>
      </trkpt>
      <trkpt lat="42.2222310" lon="-2.6344850">
        <ele>844.8</ele>
        <time>2022-08-13T13:08:15Z</time>
      </trkpt>
      <trkpt lat="42.2222370" lon="-2.6345490">
        <ele>845.1</ele>
        <time>2022-08-13T13:08:17Z</time>
      </trkpt>
      <trkpt lat="42.2222330" lon="-2.6347570">
        <ele>845.9</ele>
        <time>2022-08-13T13:08:24Z</time>
      </trkpt>
      <trkpt lat="42.2222330" lon="-2.6348230">
        <ele>846.2</ele>
        <time>2022-08-13T13:08:26Z</time>
      </trkpt>
      <trkpt lat="42.2222430" lon="-2.6350740">
        <ele>847.2</ele>
        <time>2022-08-13T13:08:34Z</time>
      </trkpt>
      <trkpt lat="42.2222370" lon="-2.6351900">
        <ele>847.7</ele>
        <time>2022-08-13T13:08:38Z</time>
      </trkpt>
      <trkpt lat="42.2222170" lon="-2.6354310">
        <ele>848.6</ele>
        <time>2022-08-13T13:08:45Z</time>
      </trkpt>
      <trkpt lat="42.2221970" lon="-2.6356030">
        <ele>849.4</ele>
        <time>2022-08-13T13:08:51Z</time>
      </trkpt>
      <trkpt lat="42.2221960" lon="-2.6356670">
        <ele>849.7</ele>
        <time>2022-08-13T13:08:53Z</time>
      </trkpt>
      <trkpt lat="42.2221720" lon="-2.6358910">
        <ele>850.6</ele>
        <time>2022-08-13T13:09:00Z</time>
      </trkpt>
      <trkpt lat="42.2221720" lon="-2.6359270">
        <ele>850.8</ele>
        <time>2022-08-13T13:09:01Z</time>
      </trkpt>
      <trkpt lat="42.2222000" lon="-2.6361400">
        <ele>851.6</ele>
        <time>2022-08-13T13:09:08Z</time>
      </trkpt>
      <trkpt lat="42.2222070" lon="-2.6361650">
        <ele>851.7</ele>
        <time>2022-08-13T13:09:09Z</time>
      </trkpt>
      <trkpt lat="42.2222420" lon="-2.6363670">
        <ele>852.4</ele>
        <time>2022-08-13T13:09:15Z</time>
      </trkpt>
      <trkpt lat="42.2222540" lon="-2.6364340">
        <ele>852.6</ele>
        <time>2022-08-13T13:09:17Z</time>
      </trkpt>
      <trkpt lat="42.2222940" lon="-2.6366830">
        <ele>853.1</ele>
        <time>2022-08-13T13:09:24Z</time>
      </trkpt>
      <trkpt lat="42.2222970" lon="-2.6367150">
        <ele>853.2</ele>
        <time>2022-08-13T13:09:25Z</time>
      </trkpt>
      <trkpt lat="42.2223250" lon="-2.6370340">
        <ele>853.9</ele>
        <time>2022-08-13T13:09:34Z</time>
      </trkpt>
      <trkpt lat="42.2223410" lon="-2.6372780">
        <ele>854.4</ele>
        <time>2022-08-13T13:09:41Z</time>
      </trkpt>
      <trkpt lat="42.2223750" lon="-2.6375560">
        <ele>854.9</ele>
        <time>2022-08-13T13:09:49Z</time>
      </trkpt>
      <trkpt lat="42.2223860" lon="-2.6376270">
        <ele>855.1</ele>
        <time>2022-08-13T13:09:51Z</time>
      </trkpt>
      <trkpt lat="42.2224090" lon="-2.6379500">
        <ele>855.6</ele>
        <time>2022-08-13T13:10:00Z</time>
      </trkpt>
      <trkpt lat="42.2224270" lon="-2.6381640">
        <ele>855.9</ele>
        <time>2022-08-13T13:10:06Z</time>
      </trkpt>
      <trkpt lat="42.2224300" lon="-2.6382370">
        <ele>856.0</ele>
        <time>2022-08-13T13:10:08Z</time>
      </trkpt>
      <trkpt lat="42.2224390" lon="-2.6385670">
        <ele>856.6</ele>
        <time>2022-08-13T13:10:17Z</time>
      </trkpt>
      <trkpt lat="42.2224370" lon="-2.6386020">
        <ele>856.6</ele>
        <time>2022-08-13T13:10:18Z</time>
      </trkpt>
      <trkpt lat="42.2224160" lon="-2.6388980">
        <ele>857.2</ele>
        <time>2022-08-13T13:10:26Z</time>
      </trkpt>
      <trkpt lat="42.2224180" lon="-2.6389650">
        <ele>857.4</ele>
        <time>2022-08-13T13:10:28Z</time>
      </trkpt>
      <trkpt lat="42.2224000" lon="-2.6393050">
        <ele>858.2</ele>
        <time>2022-08-13T13:10:37Z</time>
      </trkpt>
      <trkpt lat="42.2223460" lon="-2.6396530">
        <ele>858.6</ele>
        <time>2022-08-13T13:10:46Z</time>
      </trkpt>
      <trkpt lat="42.2223080" lon="-2.6397750">
        <ele>858.7</ele>
        <time>2022-08-13T13:10:49Z</time>
      </trkpt>
      <trkpt lat="42.2222350" lon="-2.6399680">
        <ele>858.9</ele>
        <time>2022-08-13T13:10:54Z</time>
      </trkpt>
      <trkpt lat="42.2220910" lon="-2.6403390">
        <ele>859.1</ele>
        <time>2022-08-13T13:11:03Z</time>
      </trkpt>
      <trkpt lat="42.2219520" lon="-2.6406940">
        <ele>859.3</ele>
        <time>2022-08-13T13:11:11Z</time>
      </trkpt>
      <trkpt lat="42.2219030" lon="-2.6408250">
        <ele>859.3</ele>
        <time>2022-08-13T13:11:14Z</time>
      </trkpt>
      <trkpt lat="42.2218100" lon="-2.6410500">
        <ele>859.8</ele>
        <time>2022-08-13T13:11:20Z</time>
      </trkpt>
      <trkpt lat="42.2217650" lon="-2.6411530">
        <ele>860.1</ele>
        <time>2022-08-13T13:11:23Z</time>
      </trkpt>
      <trkpt lat="42.2217160" lon="-2.6412470">
        <ele>860.5</ele>
        <time>2022-08-13T13:11:26Z</time>
      </trkpt>
      <trkpt lat="42.2216990" lon="-2.6412770">
        <ele>860.6</ele>
        <time>2022-08-13T13:11:27Z</time>
      </trkpt>
      <trkpt lat="42.2216350" lon="-2.6414040">
        <ele>861.2</ele>
        <time>2022-08-13T13:11:31Z</time>
      </trkpt>
      <trkpt lat="42.2216000" lon="-2.6414700">
        <ele>861.5</ele>
        <time>2022-08-13T13:11:33Z</time>
      </trkpt>
      <trkpt lat="42.2215770" lon="-2.6415330">
        <ele>861.7</ele>
        <time>2022-08-13T13:11:35Z</time>
      </trkpt>
      <trkpt lat="42.2215650" lon="-2.6416820">
        <ele>862.1</ele>
        <time>2022-08-13T13:11:39Z</time>
      </trkpt>
      <trkpt lat="42.2215820" lon="-2.6417040">
        <ele>862.2</ele>
        <time>2022-08-13T13:11:40Z</time>
      </trkpt>
      <trkpt lat="42.2217170" lon="-2.6417650">
        <ele>862.3</ele>
        <time>2022-08-13T13:11:45Z</time>
      </trkpt>
      <trkpt lat="42.2219350" lon="-2.6417100">
        <ele>861.9</ele>
        <time>2022-08-13T13:11:51Z</time>
      </trkpt>
      <trkpt lat="42.2221010" lon="-2.6416610">
        <ele>861.7</ele>
        <time>2022-08-13T13:11:55Z</time>
      </trkpt>
      <trkpt lat="42.2222420" lon="-2.6416230">
        <ele>861.6</ele>
        <time>2022-08-13T13:11:58Z</time>
      </trkpt>
      <trkpt lat="42.2223400" lon="-2.6416110">
        <ele>861.6</ele>
        <time>2022-08-13T13:12:00Z</time>
      </trkpt>
      <trkpt lat="42.2224430" lon="-2.6416390">
        <ele>861.6</ele>
        <time>2022-08-13T13:12:02Z</time>
      </trkpt>
      <trkpt lat="42.2224730" lon="-2.6416620">
        <ele>861.7</ele>
        <time>2022-08-13T13:12:03Z</time>
      </trkpt>
      <trkpt lat="42.2225190" lon="-2.6417000">
        <ele>861.7</ele>
        <time>2022-08-13T13:12:04Z</time>
      </trkpt>
      <trkpt lat="42.2226310" lon="-2.6418550">
        <ele>862.0</ele>
        <time>2022-08-13T13:12:08Z</time>
      </trkpt>
      <trkpt lat="42.2227590" lon="-2.6421210">
        <ele>862.7</ele>
        <time>2022-08-13T13:12:15Z</time>
      </trkpt>
      <trkpt lat="42.2227660" lon="-2.6423660">
        <ele>863.3</ele>
        <time>2022-08-13T13:12:21Z</time>
      </trkpt>
      <trkpt lat="42.2227630" lon="-2.6424190">
        <ele>863.5</ele>
        <time>2022-08-13T13:12:22Z</time>
      </trkpt>
      <trkpt lat="42.2227500" lon="-2.6425050">
        <ele>863.7</ele>
        <time>2022-08-13T13:12:24Z</time>
      </trkpt>
      <trkpt lat="42.2226790" lon="-2.6428660">
        <ele>864.4</ele>
        <time>2022-08-13T13:12:32Z</time>
      </trkpt>
      <trkpt lat="42.2226640" lon="-2.6429500">
        <ele>864.5</ele>
        <time>2022-08-13T13:12:34Z</time>
      </trkpt>
      <trkpt lat="42.2226560" lon="-2.6431310">
        <ele>864.8</ele>
        <time>2022-08-13T13:12:38Z</time>
      </trkpt>
      <trkpt lat="42.2226630" lon="-2.6435240">
        <ele>865.3</ele>
        <time>2022-08-13T13:12:47Z</time>
      </trkpt>
      <trkpt lat="42.2226760" lon="-2.6437870">
        <ele>865.7</ele>
        <time>2022-08-13T13:12:53Z</time>
      </trkpt>
      <trkpt lat="42.2226900" lon="-2.6439110">
        <ele>866.0</ele>
        <time>2022-08-13T13:12:56Z</time>
      </trkpt>
      <trkpt lat="42.2226900" lon="-2.6440400">
        <ele>866.2</ele>
        <time>2022-08-13T13:12:59Z</time>
      </trkpt>
      <trkpt lat="42.2227070" lon="-2.6441650">
        <ele>866.3</ele>
        <time>2022-08-13T13:13:02Z</time>
      </trkpt>
      <trkpt lat="42.2227770" lon="-2.6444340">
        <ele>866.3</ele>
        <time>2022-08-13T13:13:08Z</time>
      </trkpt>
      <trkpt lat="42.2228080" lon="-2.6445870">
        <ele>866.3</ele>
        <time>2022-08-13T13:13:11Z</time>
      </trkpt>
      <trkpt lat="42.2228300" lon="-2.6447290">
        <ele>866.2</ele>
        <time>2022-08-13T13:13:14Z</time>
      </trkpt>
      <trkpt lat="42.2228420" lon="-2.6450400">
        <ele>865.9</ele>
        <time>2022-08-13T13:13:19Z</time>
      </trkpt>
      <trkpt lat="42.2228410" lon="-2.6451070">
        <ele>865.8</ele>
        <time>2022-08-13T13:13:20Z</time>
      </trkpt>
      <trkpt lat="42.2228220" lon="-2.6453750">
        <ele>865.3</ele>
        <time>2022-08-13T13:13:24Z</time>
      </trkpt>
      <trkpt lat="42.2228130" lon="-2.6454450">
        <ele>865.1</ele>
        <time>2022-08-13T13:13:25Z</time>
      </trkpt>
      <trkpt lat="42.2227980" lon="-2.6456040">
        <ele>864.8</ele>
        <time>2022-08-13T13:13:27Z</time>
      </trkpt>
      <trkpt lat="42.2228160" lon="-2.6457850">
        <ele>864.3</ele>
        <time>2022-08-13T13:13:29Z</time>
      </trkpt>
      <trkpt lat="42.2229630" lon="-2.6462020">
        <ele>863.3</ele>
        <time>2022-08-13T13:13:34Z</time>
      </trkpt>
      <trkpt lat="42.2230270" lon="-2.6463700">
        <ele>862.9</ele>
        <time>2022-08-13T13:13:36Z</time>
      </trkpt>
      <trkpt lat="42.2230890" lon="-2.6465390">
        <ele>862.5</ele>
        <time>2022-08-13T13:13:38Z</time>
      </trkpt>
      <trkpt lat="42.2231520" lon="-2.6467140">
        <ele>862.1</ele>
        <time>2022-08-13T13:13:40Z</time>
      </trkpt>
      <trkpt lat="42.2231710" lon="-2.6468080">
        <ele>861.9</ele>
        <time>2022-08-13T13:13:41Z</time>
      </trkpt>
      <trkpt lat="42.2231790" lon="-2.6469040">
        <ele>861.7</ele>
        <time>2022-08-13T13:13:42Z</time>
      </trkpt>
      <trkpt lat="42.2231780" lon="-2.6469990">
        <ele>861.5</ele>
        <time>2022-08-13T13:13:43Z</time>
      </trkpt>
      <trkpt lat="42.2231550" lon="-2.6471800">
        <ele>861.3</ele>
        <time>2022-08-13T13:13:45Z</time>
      </trkpt>
      <trkpt lat="42.2231360" lon="-2.6472770">
        <ele>861.2</ele>
        <time>2022-08-13T13:13:46Z</time>
      </trkpt>
      <trkpt lat="42.2231130" lon="-2.6476470">
        <ele>861.1</ele>
        <time>2022-08-13T13:13:50Z</time>
      </trkpt>
      <trkpt lat="42.2231290" lon="-2.6478120">
        <ele>861.2</ele>
        <time>2022-08-13T13:13:52Z</time>
      </trkpt>
      <trkpt lat="42.2231280" lon="-2.6479590">
        <ele>861.3</ele>
        <time>2022-08-13T13:13:54Z</time>
      </trkpt>
      <trkpt lat="42.2231290" lon="-2.6480960">
        <ele>861.5</ele>
        <time>2022-08-13T13:13:56Z</time>
      </trkpt>
      <trkpt lat="42.2231190" lon="-2.6482340">
        <ele>861.7</ele>
        <time>2022-08-13T13:13:58Z</time>
      </trkpt>
      <trkpt lat="42.2231210" lon="-2.6483510">
        <ele>861.9</ele>
        <time>2022-08-13T13:14:00Z</time>
      </trkpt>
      <trkpt lat="42.2231210" lon="-2.6483980">
        <ele>861.9</ele>
        <time>2022-08-13T13:14:01Z</time>
      </trkpt>
      <trkpt lat="42.2231300" lon="-2.6484630">
        <ele>862.0</ele>
        <time>2022-08-13T13:14:02Z</time>
      </trkpt>
      <trkpt lat="42.2231260" lon="-2.6486620">
        <ele>862.4</ele>
        <time>2022-08-13T13:14:05Z</time>
      </trkpt>
      <trkpt lat="42.2231180" lon="-2.6487280">
        <ele>862.5</ele>
        <time>2022-08-13T13:14:06Z</time>
      </trkpt>
      <trkpt lat="42.2231100" lon="-2.6488000">
        <ele>862.6</ele>
        <time>2022-08-13T13:14:07Z</time>
      </trkpt>
      <trkpt lat="42.2231340" lon="-2.6489810">
        <ele>862.9</ele>
        <time>2022-08-13T13:14:10Z</time>
      </trkpt>
      <trkpt lat="42.2231500" lon="-2.6491120">
        <ele>863.1</ele>
        <time>2022-08-13T13:14:12Z</time>
      </trkpt>
      <trkpt lat="42.2231570" lon="-2.6492390">
        <ele>863.1</ele>
        <time>2022-08-13T13:14:14Z</time>
      </trkpt>
      <trkpt lat="42.2231970" lon="-2.6493890">
        <ele>863.2</ele>
        <time>2022-08-13T13:14:17Z</time>
      </trkpt>
      <trkpt lat="42.2232210" lon="-2.6494930">
        <ele>863.1</ele>
        <time>2022-08-13T13:14:19Z</time>
      </trkpt>
      <trkpt lat="42.2232310" lon="-2.6495500">
        <ele>863.1</ele>
        <time>2022-08-13T13:14:20Z</time>
      </trkpt>
      <trkpt lat="42.2232350" lon="-2.6496720">
        <ele>862.9</ele>
        <time>2022-08-13T13:14:22Z</time>
      </trkpt>
      <trkpt lat="42.2232140" lon="-2.6497930">
        <ele>862.5</ele>
        <time>2022-08-13T13:14:24Z</time>
      </trkpt>
      <trkpt lat="42.2231270" lon="-2.6498880">
        <ele>861.9</ele>
        <time>2022-08-13T13:14:26Z</time>
      </trkpt>
      <trkpt lat="42.2230750" lon="-2.6499220">
        <ele>861.6</ele>
        <time>2022-08-13T13:14:27Z</time>
      </trkpt>
      <trkpt lat="42.2229550" lon="-2.6500060">
        <ele>860.9</ele>
        <time>2022-08-13T13:14:29Z</time>
      </trkpt>
      <trkpt lat="42.2228250" lon="-2.6501150">
        <ele>860.2</ele>
        <time>2022-08-13T13:14:31Z</time>
      </trkpt>
      <trkpt lat="42.2226950" lon="-2.6502560">
        <ele>859.5</ele>
        <time>2022-08-13T13:14:33Z</time>
      </trkpt>
      <trkpt lat="42.2226370" lon="-2.6503410">
        <ele>859.1</ele>
        <time>2022-08-13T13:14:34Z</time>
      </trkpt>
      <trkpt lat="42.2225810" lon="-2.6504320">
        <ele>858.8</ele>
        <time>2022-08-13T13:14:35Z</time>
      </trkpt>
      <trkpt lat="42.2225380" lon="-2.6505120">
        <ele>858.6</ele>
        <time>2022-08-13T13:14:36Z</time>
      </trkpt>
      <trkpt lat="42.2224830" lon="-2.6506780">
        <ele>858.3</ele>
        <time>2022-08-13T13:14:38Z</time>
      </trkpt>
      <trkpt lat="42.2223850" lon="-2.6508880">
        <ele>858.1</ele>
        <time>2022-08-13T13:14:40Z</time>
      </trkpt>
      <trkpt lat="42.2223250" lon="-2.6510890">
        <ele>858.0</ele>
        <time>2022-08-13T13:14:42Z</time>
      </trkpt>
      <trkpt lat="42.2222920" lon="-2.6511830">
        <ele>858.0</ele>
        <time>2022-08-13T13:14:43Z</time>
      </trkpt>
      <trkpt lat="42.2222870" lon="-2.6513760">
        <ele>858.0</ele>
        <time>2022-08-13T13:14:45Z</time>
      </trkpt>
      <trkpt lat="42.2222770" lon="-2.6516480">
        <ele>858.5</ele>
        <time>2022-08-13T13:14:48Z</time>
      </trkpt>
      <trkpt lat="42.2222860" lon="-2.6517270">
        <ele>858.7</ele>
        <time>2022-08-13T13:14:49Z</time>
      </trkpt>
      <trkpt lat="42.2222820" lon="-2.6517930">
        <ele>858.9</ele>
        <time>2022-08-13T13:14:50Z</time>
      </trkpt>
      <trkpt lat="42.2222680" lon="-2.6518400">
        <ele>859.1</ele>
        <time>2022-08-13T13:14:51Z</time>
      </trkpt>
      <trkpt lat="42.2222070" lon="-2.6519940">
        <ele>859.9</ele>
        <time>2022-08-13T13:14:54Z</time>
      </trkpt>
      <trkpt lat="42.2221480" lon="-2.6521360">
        <ele>860.7</ele>
        <time>2022-08-13T13:14:57Z</time>
      </trkpt>
      <trkpt lat="42.2220850" lon="-2.6522220">
        <ele>861.4</ele>
        <time>2022-08-13T13:15:01Z</time>
      </trkpt>
      <trkpt lat="42.2220880" lon="-2.6522150">
        <ele>861.4</ele>
        <time>2022-08-13T13:15:02Z</time>
      </trkpt>
      <trkpt lat="42.2220610" lon="-2.6522880">
        <ele>861.9</ele>
        <time>2022-08-13T13:15:05Z</time>
      </trkpt>
      <trkpt lat="42.2220260" lon="-2.6523720">
        <ele>862.5</ele>
        <time>2022-08-13T13:15:08Z</time>
      </trkpt>
      <trkpt lat="42.2219880" lon="-2.6524460">
        <ele>863.1</ele>
        <time>2022-08-13T13:15:11Z</time>
      </trkpt>
      <trkpt lat="42.2219400" lon="-2.6525500">
        <ele>863.9</ele>
        <time>2022-08-13T13:15:15Z</time>
      </trkpt>
      <trkpt lat="42.2219050" lon="-2.6526570">
        <ele>864.7</ele>
        <time>2022-08-13T13:15:19Z</time>
      </trkpt>
      <trkpt lat="42.2218940" lon="-2.6527120">
        <ele>865.1</ele>
        <time>2022-08-13T13:15:21Z</time>
      </trkpt>
      <trkpt lat="42.2218770" lon="-2.6527930">
        <ele>865.7</ele>
        <time>2022-08-13T13:15:24Z</time>
      </trkpt>
      <trkpt lat="42.2218560" lon="-2.6528980">
        <ele>866.5</ele>
        <time>2022-08-13T13:15:28Z</time>
      </trkpt>
      <trkpt lat="42.2218490" lon="-2.6529250">
        <ele>866.7</ele>
        <time>2022-08-13T13:15:29Z</time>
      </trkpt>
      <trkpt lat="42.2218420" lon="-2.6529520">
        <ele>867.0</ele>
        <time>2022-08-13T13:15:30Z</time>
      </trkpt>
      <trkpt lat="42.2218030" lon="-2.6530680">
        <ele>867.9</ele>
        <time>2022-08-13T13:15:35Z</time>
      </trkpt>
      <trkpt lat="42.2217810" lon="-2.6531370">
        <ele>868.4</ele>
        <time>2022-08-13T13:15:38Z</time>
      </trkpt>
      <trkpt lat="42.2217520" lon="-2.6532470">
        <ele>869.2</ele>
        <time>2022-08-13T13:15:43Z</time>
      </trkpt>
      <trkpt lat="42.2217370" lon="-2.6532900">
        <ele>869.5</ele>
        <time>2022-08-13T13:15:45Z</time>
      </trkpt>
      <trkpt lat="42.2217040" lon="-2.6533620">
        <ele>870.0</ele>
        <time>2022-08-13T13:15:48Z</time>
      </trkpt>
      <trkpt lat="42.2216740" lon="-2.6534250">
        <ele>870.4</ele>
        <time>2022-08-13T13:15:51Z</time>
      </trkpt>
      <trkpt lat="42.2216550" lon="-2.6534680">
        <ele>870.6</ele>
        <time>2022-08-13T13:15:53Z</time>
      </trkpt>
      <trkpt lat="42.2215800" lon="-2.6536040">
        <ele>871.2</ele>
        <time>2022-08-13T13:15:59Z</time>
      </trkpt>
      <trkpt lat="42.2215700" lon="-2.6536240">
        <ele>871.2</ele>
        <time>2022-08-13T13:16:00Z</time>
      </trkpt>
      <trkpt lat="42.2214580" lon="-2.6538610">
        <ele>871.8</ele>
        <time>2022-08-13T13:16:09Z</time>
      </trkpt>
      <trkpt lat="42.2213530" lon="-2.6541190">
        <ele>872.1</ele>
        <time>2022-08-13T13:16:17Z</time>
      </trkpt>
      <trkpt lat="42.2213440" lon="-2.6541430">
        <ele>872.1</ele>
        <time>2022-08-13T13:16:18Z</time>
      </trkpt>
      <trkpt lat="42.2212820" lon="-2.6543530">
        <ele>872.3</ele>
        <time>2022-08-13T13:16:24Z</time>
      </trkpt>
      <trkpt lat="42.2212750" lon="-2.6543870">
        <ele>872.4</ele>
        <time>2022-08-13T13:16:25Z</time>
      </trkpt>
      <trkpt lat="42.2212260" lon="-2.6545900">
        <ele>872.7</ele>
        <time>2022-08-13T13:16:31Z</time>
      </trkpt>
      <trkpt lat="42.2212200" lon="-2.6546230">
        <ele>872.7</ele>
        <time>2022-08-13T13:16:32Z</time>
      </trkpt>
      <trkpt lat="42.2211730" lon="-2.6548140">
        <ele>873.1</ele>
        <time>2022-08-13T13:16:38Z</time>
      </trkpt>
      <trkpt lat="42.2211560" lon="-2.6548730">
        <ele>873.2</ele>
        <time>2022-08-13T13:16:40Z</time>
      </trkpt>
      <trkpt lat="42.2211100" lon="-2.6550200">
        <ele>873.7</ele>
        <time>2022-08-13T13:16:45Z</time>
      </trkpt>
      <trkpt lat="42.2210700" lon="-2.6551010">
        <ele>874.0</ele>
        <time>2022-08-13T13:16:48Z</time>
      </trkpt>
      <trkpt lat="42.2210330" lon="-2.6551810">
        <ele>874.4</ele>
        <time>2022-08-13T13:16:51Z</time>
      </trkpt>
      <trkpt lat="42.2209000" lon="-2.6553980">
        <ele>875.6</ele>
        <time>2022-08-13T13:17:00Z</time>
      </trkpt>
      <trkpt lat="42.2208900" lon="-2.6554190">
        <ele>875.8</ele>
        <time>2022-08-13T13:17:01Z</time>
      </trkpt>
      <trkpt lat="42.2207980" lon="-2.6555690">
        <ele>876.7</ele>
        <time>2022-08-13T13:17:08Z</time>
      </trkpt>
      <trkpt lat="42.2207250" lon="-2.6556730">
        <ele>877.5</ele>
        <time>2022-08-13T13:17:13Z</time>
      </trkpt>
      <trkpt lat="42.2206890" lon="-2.6557340">
        <ele>877.9</ele>
        <time>2022-08-13T13:17:16Z</time>
      </trkpt>
      <trkpt lat="42.2206260" lon="-2.6558460">
        <ele>878.6</ele>
        <time>2022-08-13T13:17:21Z</time>
      </trkpt>
      <trkpt lat="42.2206170" lon="-2.6558800">
        <ele>878.8</ele>
        <time>2022-08-13T13:17:22Z</time>
      </trkpt>
      <trkpt lat="42.2205880" lon="-2.6559660">
        <ele>879.2</ele>
        <time>2022-08-13T13:17:25Z</time>
      </trkpt>
      <trkpt lat="42.2205700" lon="-2.6560240">
        <ele>879.5</ele>
        <time>2022-08-13T13:17:27Z</time>
      </trkpt>
      <trkpt lat="42.2205580" lon="-2.6560560">
        <ele>879.7</ele>
        <time>2022-08-13T13:17:28Z</time>
      </trkpt>
      <trkpt lat="42.2205160" lon="-2.6562760">
        <ele>880.5</ele>
        <time>2022-08-13T13:17:35Z</time>
      </trkpt>
      <trkpt lat="42.2204800" lon="-2.6565350">
        <ele>881.3</ele>
        <time>2022-08-13T13:17:43Z</time>
      </trkpt>
      <trkpt lat="42.2204730" lon="-2.6565720">
        <ele>881.4</ele>
        <time>2022-08-13T13:17:44Z</time>
      </trkpt>
      <trkpt lat="42.2204480" lon="-2.6568060">
        <ele>881.8</ele>
        <time>2022-08-13T13:17:50Z</time>
      </trkpt>
      <trkpt lat="42.2204480" lon="-2.6568440">
        <ele>881.8</ele>
        <time>2022-08-13T13:17:51Z</time>
      </trkpt>
      <trkpt lat="42.2204330" lon="-2.6570480">
        <ele>881.9</ele>
        <time>2022-08-13T13:17:56Z</time>
      </trkpt>
      <trkpt lat="42.2204090" lon="-2.6574710">
        <ele>881.8</ele>
        <time>2022-08-13T13:18:05Z</time>
      </trkpt>
      <trkpt lat="42.2204100" lon="-2.6576640">
        <ele>881.7</ele>
        <time>2022-08-13T13:18:09Z</time>
      </trkpt>
      <trkpt lat="42.2204170" lon="-2.6577630">
        <ele>881.6</ele>
        <time>2022-08-13T13:18:11Z</time>
      </trkpt>
      <trkpt lat="42.2204040" lon="-2.6581010">
        <ele>881.4</ele>
        <time>2022-08-13T13:18:17Z</time>
      </trkpt>
      <trkpt lat="42.2203930" lon="-2.6582010">
        <ele>881.4</ele>
        <time>2022-08-13T13:18:19Z</time>
      </trkpt>
      <trkpt lat="42.2203800" lon="-2.6583600">
        <ele>881.4</ele>
        <time>2022-08-13T13:18:22Z</time>
      </trkpt>
      <trkpt lat="42.2203320" lon="-2.6586780">
        <ele>881.6</ele>
        <time>2022-08-13T13:18:28Z</time>
      </trkpt>
      <trkpt lat="42.2202280" lon="-2.6589980">
        <ele>881.8</ele>
        <time>2022-08-13T13:18:35Z</time>
      </trkpt>
      <trkpt lat="42.2201400" lon="-2.6592230">
        <ele>882.1</ele>
        <time>2022-08-13T13:18:41Z</time>
      </trkpt>
      <trkpt lat="42.2201170" lon="-2.6592850">
        <ele>882.3</ele>
        <time>2022-08-13T13:18:43Z</time>
      </trkpt>
      <trkpt lat="42.2200690" lon="-2.6593840">
        <ele>882.6</ele>
        <time>2022-08-13T13:18:47Z</time>
      </trkpt>
      <trkpt lat="42.2200170" lon="-2.6594540">
        <ele>882.9</ele>
        <time>2022-08-13T13:18:50Z</time>
      </trkpt>
      <trkpt lat="42.2199700" lon="-2.6595180">
        <ele>883.2</ele>
        <time>2022-08-13T13:18:53Z</time>
      </trkpt>
      <trkpt lat="42.2199230" lon="-2.6595870">
        <ele>883.7</ele>
        <time>2022-08-13T13:18:56Z</time>
      </trkpt>
      <trkpt lat="42.2198740" lon="-2.6596500">
        <ele>884.1</ele>
        <time>2022-08-13T13:18:59Z</time>
      </trkpt>
      <trkpt lat="42.2198430" lon="-2.6596890">
        <ele>884.3</ele>
        <time>2022-08-13T13:19:01Z</time>
      </trkpt>
      <trkpt lat="42.2197690" lon="-2.6597630">
        <ele>884.8</ele>
        <time>2022-08-13T13:19:05Z</time>
      </trkpt>
      <trkpt lat="42.2197080" lon="-2.6598220">
        <ele>885.2</ele>
        <time>2022-08-13T13:19:08Z</time>
      </trkpt>
      <trkpt lat="42.2195970" lon="-2.6599090">
        <ele>885.8</ele>
        <time>2022-08-13T13:19:13Z</time>
      </trkpt>
      <trkpt lat="42.2195010" lon="-2.6599530">
        <ele>886.3</ele>
        <time>2022-08-13T13:19:17Z</time>
      </trkpt>
      <trkpt lat="42.2193820" lon="-2.6599780">
        <ele>886.9</ele>
        <time>2022-08-13T13:19:22Z</time>
      </trkpt>
      <trkpt lat="42.2192810" lon="-2.6600120">
        <ele>887.4</ele>
        <time>2022-08-13T13:19:26Z</time>
      </trkpt>
      <trkpt lat="42.2192190" lon="-2.6600580">
        <ele>887.8</ele>
        <time>2022-08-13T13:19:29Z</time>
      </trkpt>
      <trkpt lat="42.2191680" lon="-2.6601230">
        <ele>888.1</ele>
        <time>2022-08-13T13:19:32Z</time>
      </trkpt>
      <trkpt lat="42.2191220" lon="-2.6601660">
        <ele>888.4</ele>
        <time>2022-08-13T13:19:34Z</time>
      </trkpt>
      <trkpt lat="42.2190490" lon="-2.6602410">
        <ele>888.8</ele>
        <time>2022-08-13T13:19:38Z</time>
      </trkpt>
      <trkpt lat="42.2189360" lon="-2.6603400">
        <ele>889.5</ele>
        <time>2022-08-13T13:19:43Z</time>
      </trkpt>
      <trkpt lat="42.2188920" lon="-2.6603640">
        <ele>889.7</ele>
        <time>2022-08-13T13:19:45Z</time>
      </trkpt>
      <trkpt lat="42.2186310" lon="-2.6604820">
        <ele>891.1</ele>
        <time>2022-08-13T13:19:55Z</time>
      </trkpt>
      <trkpt lat="42.2186060" lon="-2.6604980">
        <ele>891.2</ele>
        <time>2022-08-13T13:19:56Z</time>
      </trkpt>
      <trkpt lat="42.2184080" lon="-2.6605870">
        <ele>892.6</ele>
        <time>2022-08-13T13:20:04Z</time>
      </trkpt>
      <trkpt lat="42.2182790" lon="-2.6606430">
        <ele>893.5</ele>
        <time>2022-08-13T13:20:09Z</time>
      </trkpt>
      <trkpt lat="42.2181580" lon="-2.6606830">
        <ele>894.3</ele>
        <time>2022-08-13T13:20:14Z</time>
      </trkpt>
      <trkpt lat="42.2180360" lon="-2.6607020">
        <ele>895.3</ele>
        <time>2022-08-13T13:20:19Z</time>
      </trkpt>
      <trkpt lat="42.2179920" lon="-2.6607040">
        <ele>895.6</ele>
        <time>2022-08-13T13:20:21Z</time>
      </trkpt>
      <trkpt lat="42.2179700" lon="-2.6607060">
        <ele>895.8</ele>
        <time>2022-08-13T13:20:22Z</time>
      </trkpt>
      <trkpt lat="42.2178120" lon="-2.6606980">
        <ele>897.2</ele>
        <time>2022-08-13T13:20:29Z</time>
      </trkpt>
      <trkpt lat="42.2177900" lon="-2.6607000">
        <ele>897.4</ele>
        <time>2022-08-13T13:20:30Z</time>
      </trkpt>
      <trkpt lat="42.2177060" lon="-2.6607090">
        <ele>898.2</ele>
        <time>2022-08-13T13:20:34Z</time>
      </trkpt>
      <trkpt lat="42.2175850" lon="-2.6607500">
        <ele>899.3</ele>
        <time>2022-08-13T13:20:40Z</time>
      </trkpt>
      <trkpt lat="42.2175640" lon="-2.6607620">
        <ele>899.6</ele>
        <time>2022-08-13T13:20:41Z</time>
      </trkpt>
      <trkpt lat="42.2174640" lon="-2.6608520">
        <ele>900.6</ele>
        <time>2022-08-13T13:20:47Z</time>
      </trkpt>
      <trkpt lat="42.2174060" lon="-2.6609170">
        <ele>901.3</ele>
        <time>2022-08-13T13:20:51Z</time>
      </trkpt>
      <trkpt lat="42.2173690" lon="-2.6609720">
        <ele>901.7</ele>
        <time>2022-08-13T13:20:54Z</time>
      </trkpt>
      <trkpt lat="42.2173420" lon="-2.6610290">
        <ele>902.1</ele>
        <time>2022-08-13T13:20:57Z</time>
      </trkpt>
      <trkpt lat="42.2172840" lon="-2.6611630">
        <ele>903.0</ele>
        <time>2022-08-13T13:21:03Z</time>
      </trkpt>
      <trkpt lat="42.2172640" lon="-2.6612050">
        <ele>903.3</ele>
        <time>2022-08-13T13:21:05Z</time>
      </trkpt>
      <trkpt lat="42.2172250" lon="-2.6613180">
        <ele>904.1</ele>
        <time>2022-08-13T13:21:10Z</time>
      </trkpt>
      <trkpt lat="42.2172160" lon="-2.6613650">
        <ele>904.4</ele>
        <time>2022-08-13T13:21:12Z</time>
      </trkpt>
      <trkpt lat="42.2171870" lon="-2.6615060">
        <ele>905.2</ele>
        <time>2022-08-13T13:21:18Z</time>
      </trkpt>
      <trkpt lat="42.2171610" lon="-2.6616160">
        <ele>905.8</ele>
        <time>2022-08-13T13:21:23Z</time>
      </trkpt>
      <trkpt lat="42.2171490" lon="-2.6616930">
        <ele>906.2</ele>
        <time>2022-08-13T13:21:27Z</time>
      </trkpt>
      <trkpt lat="42.2171490" lon="-2.6617000">
        <ele>906.3</ele>
        <time>2022-08-13T13:21:31Z</time>
      </trkpt>
      <trkpt lat="42.2171560" lon="-2.6617040">
        <ele>906.3</ele>
        <time>2022-08-13T13:26:39Z</time>
      </trkpt>
      <trkpt lat="42.2171420" lon="-2.6618290">
        <ele>906.9</ele>
        <time>2022-08-13T13:26:44Z</time>
      </trkpt>
      <trkpt lat="42.2171430" lon="-2.6618620">
        <ele>907.1</ele>
        <time>2022-08-13T13:26:45Z</time>
      </trkpt>
      <trkpt lat="42.2171370" lon="-2.6619180">
        <ele>907.4</ele>
        <time>2022-08-13T13:26:47Z</time>
      </trkpt>
      <trkpt lat="42.2171280" lon="-2.6620000">
        <ele>907.8</ele>
        <time>2022-08-13T13:26:50Z</time>
      </trkpt>
      <trkpt lat="42.2171270" lon="-2.6620460">
        <ele>908.0</ele>
        <time>2022-08-13T13:26:52Z</time>
      </trkpt>
      <trkpt lat="42.2171050" lon="-2.6622040">
        <ele>908.8</ele>
        <time>2022-08-13T13:26:58Z</time>
      </trkpt>
      <trkpt lat="42.2170870" lon="-2.6622990">
        <ele>909.2</ele>
        <time>2022-08-13T13:27:02Z</time>
      </trkpt>
      <trkpt lat="42.2170590" lon="-2.6624380">
        <ele>909.9</ele>
        <time>2022-08-13T13:27:08Z</time>
      </trkpt>
      <trkpt lat="42.2170260" lon="-2.6625270">
        <ele>910.4</ele>
        <time>2022-08-13T13:27:12Z</time>
      </trkpt>
      <trkpt lat="42.2169740" lon="-2.6627040">
        <ele>911.3</ele>
        <time>2022-08-13T13:27:20Z</time>
      </trkpt>
      <trkpt lat="42.2169520" lon="-2.6627680">
        <ele>911.6</ele>
        <time>2022-08-13T13:27:23Z</time>
      </trkpt>
      <trkpt lat="42.2169030" lon="-2.6628770">
        <ele>912.2</ele>
        <time>2022-08-13T13:27:28Z</time>
      </trkpt>
      <trkpt lat="42.2168560" lon="-2.6630450">
        <ele>913.0</ele>
        <time>2022-08-13T13:27:35Z</time>
      </trkpt>
      <trkpt lat="42.2168120" lon="-2.6631790">
        <ele>913.8</ele>
        <time>2022-08-13T13:27:41Z</time>
      </trkpt>
      <trkpt lat="42.2167940" lon="-2.6632400">
        <ele>914.1</ele>
        <time>2022-08-13T13:27:44Z</time>
      </trkpt>
      <trkpt lat="42.2167860" lon="-2.6632630">
        <ele>914.2</ele>
        <time>2022-08-13T13:27:45Z</time>
      </trkpt>
      <trkpt lat="42.2167230" lon="-2.6634430">
        <ele>915.2</ele>
        <time>2022-08-13T13:27:53Z</time>
      </trkpt>
      <trkpt lat="42.2167130" lon="-2.6634640">
        <ele>915.4</ele>
        <time>2022-08-13T13:27:54Z</time>
      </trkpt>
      <trkpt lat="42.2166480" lon="-2.6636150">
        <ele>916.2</ele>
        <time>2022-08-13T13:28:01Z</time>
      </trkpt>
      <trkpt lat="42.2165980" lon="-2.6636940">
        <ele>916.7</ele>
        <time>2022-08-13T13:28:05Z</time>
      </trkpt>
      <trkpt lat="42.2165450" lon="-2.6637910">
        <ele>917.2</ele>
        <time>2022-08-13T13:28:10Z</time>
      </trkpt>
      <trkpt lat="42.2164130" lon="-2.6639720">
        <ele>918.2</ele>
        <time>2022-08-13T13:28:20Z</time>
      </trkpt>
      <trkpt lat="42.2163900" lon="-2.6640100">
        <ele>918.4</ele>
        <time>2022-08-13T13:28:22Z</time>
      </trkpt>
      <trkpt lat="42.2163240" lon="-2.6640980">
        <ele>918.9</ele>
        <time>2022-08-13T13:28:27Z</time>
      </trkpt>
      <trkpt lat="42.2162600" lon="-2.6641680">
        <ele>919.3</ele>
        <time>2022-08-13T13:28:31Z</time>
      </trkpt>
      <trkpt lat="42.2162100" lon="-2.6642170">
        <ele>919.7</ele>
        <time>2022-08-13T13:28:34Z</time>
      </trkpt>
      <trkpt lat="42.2161470" lon="-2.6642970">
        <ele>920.1</ele>
        <time>2022-08-13T13:28:39Z</time>
      </trkpt>
      <trkpt lat="42.2161010" lon="-2.6643450">
        <ele>920.4</ele>
        <time>2022-08-13T13:28:42Z</time>
      </trkpt>
      <trkpt lat="42.2160160" lon="-2.6644470">
        <ele>921.0</ele>
        <time>2022-08-13T13:28:48Z</time>
      </trkpt>
      <trkpt lat="42.2159420" lon="-2.6645270">
        <ele>921.4</ele>
        <time>2022-08-13T13:28:53Z</time>
      </trkpt>
      <trkpt lat="42.2159150" lon="-2.6645660">
        <ele>921.5</ele>
        <time>2022-08-13T13:28:55Z</time>
      </trkpt>
      <trkpt lat="42.2158250" lon="-2.6646790">
        <ele>922.0</ele>
        <time>2022-08-13T13:29:01Z</time>
      </trkpt>
      <trkpt lat="42.2157830" lon="-2.6647350">
        <ele>922.1</ele>
        <time>2022-08-13T13:29:04Z</time>
      </trkpt>
      <trkpt lat="42.2156530" lon="-2.6649010">
        <ele>922.5</ele>
        <time>2022-08-13T13:29:13Z</time>
      </trkpt>
      <trkpt lat="42.2156230" lon="-2.6649390">
        <ele>922.6</ele>
        <time>2022-08-13T13:29:15Z</time>
      </trkpt>
      <trkpt lat="42.2155240" lon="-2.6650380">
        <ele>922.6</ele>
        <time>2022-08-13T13:29:21Z</time>
      </trkpt>
      <trkpt lat="42.2154020" lon="-2.6651420">
        <ele>922.7</ele>
        <time>2022-08-13T13:29:26Z</time>
      </trkpt>
      <trkpt lat="42.2153280" lon="-2.6652140">
        <ele>922.7</ele>
        <time>2022-08-13T13:29:29Z</time>
      </trkpt>
      <trkpt lat="42.2152470" lon="-2.6652850">
        <ele>922.7</ele>
        <time>2022-08-13T13:29:32Z</time>
      </trkpt>
      <trkpt lat="42.2151680" lon="-2.6653450">
        <ele>922.8</ele>
        <time>2022-08-13T13:29:35Z</time>
      </trkpt>
      <trkpt lat="42.2150960" lon="-2.6654090">
        <ele>922.9</ele>
        <time>2022-08-13T13:29:38Z</time>
      </trkpt>
      <trkpt lat="42.2150790" lon="-2.6654270">
        <ele>922.9</ele>
        <time>2022-08-13T13:29:39Z</time>
      </trkpt>
      <trkpt lat="42.2148530" lon="-2.6656210">
        <ele>923.2</ele>
        <time>2022-08-13T13:29:48Z</time>
      </trkpt>
      <trkpt lat="42.2146650" lon="-2.6657790">
        <ele>923.8</ele>
        <time>2022-08-13T13:29:56Z</time>
      </trkpt>
      <trkpt lat="42.2146010" lon="-2.6658350">
        <ele>924.0</ele>
        <time>2022-08-13T13:29:59Z</time>
      </trkpt>
      <trkpt lat="42.2145130" lon="-2.6659120">
        <ele>924.4</ele>
        <time>2022-08-13T13:30:03Z</time>
      </trkpt>
      <trkpt lat="42.2144680" lon="-2.6659530">
        <ele>924.6</ele>
        <time>2022-08-13T13:30:05Z</time>
      </trkpt>
      <trkpt lat="42.2144260" lon="-2.6659920">
        <ele>924.8</ele>
        <time>2022-08-13T13:30:07Z</time>
      </trkpt>
      <trkpt lat="42.2142580" lon="-2.6661310">
        <ele>925.7</ele>
        <time>2022-08-13T13:30:15Z</time>
      </trkpt>
      <trkpt lat="42.2142330" lon="-2.6661500">
        <ele>925.9</ele>
        <time>2022-08-13T13:30:16Z</time>
      </trkpt>
      <trkpt lat="42.2140830" lon="-2.6662660">
        <ele>926.8</ele>
        <time>2022-08-13T13:30:23Z</time>
      </trkpt>
      <trkpt lat="42.2140150" lon="-2.6663160">
        <ele>927.2</ele>
        <time>2022-08-13T13:30:26Z</time>
      </trkpt>
      <trkpt lat="42.2139130" lon="-2.6664020">
        <ele>927.8</ele>
        <time>2022-08-13T13:30:31Z</time>
      </trkpt>
      <trkpt lat="42.2138060" lon="-2.6665170">
        <ele>928.6</ele>
        <time>2022-08-13T13:30:37Z</time>
      </trkpt>
      <trkpt lat="42.2137280" lon="-2.6666120">
        <ele>929.1</ele>
        <time>2022-08-13T13:30:41Z</time>
      </trkpt>
      <trkpt lat="42.2136660" lon="-2.6667180">
        <ele>929.5</ele>
        <time>2022-08-13T13:30:45Z</time>
      </trkpt>
      <trkpt lat="42.2136090" lon="-2.6668410">
        <ele>929.9</ele>
        <time>2022-08-13T13:30:49Z</time>
      </trkpt>
      <trkpt lat="42.2135830" lon="-2.6669010">
        <ele>930.2</ele>
        <time>2022-08-13T13:30:51Z</time>
      </trkpt>
      <trkpt lat="42.2135380" lon="-2.6670030">
        <ele>930.7</ele>
        <time>2022-08-13T13:30:55Z</time>
      </trkpt>
      <trkpt lat="42.2135100" lon="-2.6670960">
        <ele>931.1</ele>
        <time>2022-08-13T13:30:58Z</time>
      </trkpt>
      <trkpt lat="42.2134920" lon="-2.6671520">
        <ele>931.4</ele>
        <time>2022-08-13T13:31:00Z</time>
      </trkpt>
      <trkpt lat="42.2134860" lon="-2.6672160">
        <ele>931.6</ele>
        <time>2022-08-13T13:31:02Z</time>
      </trkpt>
      <trkpt lat="42.2134200" lon="-2.6674440">
        <ele>932.6</ele>
        <time>2022-08-13T13:31:10Z</time>
      </trkpt>
      <trkpt lat="42.2133980" lon="-2.6675260">
        <ele>933.0</ele>
        <time>2022-08-13T13:31:13Z</time>
      </trkpt>
      <trkpt lat="42.2133590" lon="-2.6677200">
        <ele>933.8</ele>
        <time>2022-08-13T13:31:20Z</time>
      </trkpt>
      <trkpt lat="42.2133240" lon="-2.6678220">
        <ele>934.2</ele>
        <time>2022-08-13T13:31:24Z</time>
      </trkpt>
      <trkpt lat="42.2133000" lon="-2.6678980">
        <ele>934.5</ele>
        <time>2022-08-13T13:31:27Z</time>
      </trkpt>
      <trkpt lat="42.2132920" lon="-2.6679270">
        <ele>934.7</ele>
        <time>2022-08-13T13:31:28Z</time>
      </trkpt>
      <trkpt lat="42.2132120" lon="-2.6681600">
        <ele>935.7</ele>
        <time>2022-08-13T13:31:37Z</time>
      </trkpt>
      <trkpt lat="42.2131640" lon="-2.6682660">
        <ele>936.3</ele>
        <time>2022-08-13T13:31:41Z</time>
      </trkpt>
      <trkpt lat="42.2131000" lon="-2.6683920">
        <ele>937.0</ele>
        <time>2022-08-13T13:31:46Z</time>
      </trkpt>
      <trkpt lat="42.2130750" lon="-2.6684700">
        <ele>937.4</ele>
        <time>2022-08-13T13:31:49Z</time>
      </trkpt>
      <trkpt lat="42.2130350" lon="-2.6685780">
        <ele>938.0</ele>
        <time>2022-08-13T13:31:53Z</time>
      </trkpt>
      <trkpt lat="42.2129880" lon="-2.6686730">
        <ele>938.6</ele>
        <time>2022-08-13T13:31:57Z</time>
      </trkpt>
      <trkpt lat="42.2129770" lon="-2.6686980">
        <ele>938.8</ele>
        <time>2022-08-13T13:31:58Z</time>
      </trkpt>
      <trkpt lat="42.2129200" lon="-2.6688420">
        <ele>939.6</ele>
        <time>2022-08-13T13:32:04Z</time>
      </trkpt>
      <trkpt lat="42.2129010" lon="-2.6688840">
        <ele>939.9</ele>
        <time>2022-08-13T13:32:06Z</time>
      </trkpt>
      <trkpt lat="42.2128150" lon="-2.6690480">
        <ele>940.7</ele>
        <time>2022-08-13T13:32:13Z</time>
      </trkpt>
      <trkpt lat="42.2126660" lon="-2.6692540">
        <ele>941.6</ele>
        <time>2022-08-13T13:32:22Z</time>
      </trkpt>
      <trkpt lat="42.2126420" lon="-2.6692800">
        <ele>941.7</ele>
        <time>2022-08-13T13:32:23Z</time>
      </trkpt>
      <trkpt lat="42.2125270" lon="-2.6693970">
        <ele>942.1</ele>
        <time>2022-08-13T13:32:29Z</time>
      </trkpt>
      <trkpt lat="42.2123990" lon="-2.6695420">
        <ele>942.4</ele>
        <time>2022-08-13T13:32:36Z</time>
      </trkpt>
      <trkpt lat="42.2122780" lon="-2.6696920">
        <ele>943.0</ele>
        <time>2022-08-13T13:32:43Z</time>
      </trkpt>
      <trkpt lat="42.2122160" lon="-2.6697850">
        <ele>943.4</ele>
        <time>2022-08-13T13:32:47Z</time>
      </trkpt>
      <trkpt lat="42.2121170" lon="-2.6699120">
        <ele>944.2</ele>
        <time>2022-08-13T13:32:53Z</time>
      </trkpt>
      <trkpt lat="42.2120490" lon="-2.6699880">
        <ele>944.7</ele>
        <time>2022-08-13T13:32:57Z</time>
      </trkpt>
      <trkpt lat="42.2120050" lon="-2.6700370">
        <ele>945.0</ele>
        <time>2022-08-13T13:33:00Z</time>
      </trkpt>
      <trkpt lat="42.2119640" lon="-2.6701030">
        <ele>945.3</ele>
        <time>2022-08-13T13:33:03Z</time>
      </trkpt>
      <trkpt lat="42.2118790" lon="-2.6702500">
        <ele>946.0</ele>
        <time>2022-08-13T13:33:09Z</time>
      </trkpt>
      <trkpt lat="42.2118340" lon="-2.6703190">
        <ele>946.3</ele>
        <time>2022-08-13T13:33:12Z</time>
      </trkpt>
      <trkpt lat="42.2117240" lon="-2.6705410">
        <ele>947.1</ele>
        <time>2022-08-13T13:33:21Z</time>
      </trkpt>
      <trkpt lat="42.2117110" lon="-2.6705720">
        <ele>947.2</ele>
        <time>2022-08-13T13:33:22Z</time>
      </trkpt>
      <trkpt lat="42.2116500" lon="-2.6707080">
        <ele>947.6</ele>
        <time>2022-08-13T13:33:27Z</time>
      </trkpt>
      <trkpt lat="42.2116040" lon="-2.6708140">
        <ele>947.9</ele>
        <time>2022-08-13T13:33:31Z</time>
      </trkpt>
      <trkpt lat="42.2115070" lon="-2.6710320">
        <ele>948.7</ele>
        <time>2022-08-13T13:33:39Z</time>
      </trkpt>
      <trkpt lat="42.2114810" lon="-2.6710850">
        <ele>948.8</ele>
        <time>2022-08-13T13:33:41Z</time>
      </trkpt>
      <trkpt lat="42.2114130" lon="-2.6712560">
        <ele>949.4</ele>
        <time>2022-08-13T13:33:47Z</time>
      </trkpt>
      <trkpt lat="42.2113120" lon="-2.6715000">
        <ele>950.3</ele>
        <time>2022-08-13T13:33:56Z</time>
      </trkpt>
      <trkpt lat="42.2112890" lon="-2.6715550">
        <ele>950.5</ele>
        <time>2022-08-13T13:33:58Z</time>
      </trkpt>
      <trkpt lat="42.2112370" lon="-2.6717130">
        <ele>951.2</ele>
        <time>2022-08-13T13:34:04Z</time>
      </trkpt>
      <trkpt lat="42.2112130" lon="-2.6717900">
        <ele>951.5</ele>
        <time>2022-08-13T13:34:07Z</time>
      </trkpt>
      <trkpt lat="42.2111470" lon="-2.6720600">
        <ele>952.7</ele>
        <time>2022-08-13T13:34:16Z</time>
      </trkpt>
      <trkpt lat="42.2111270" lon="-2.6721120">
        <ele>952.9</ele>
        <time>2022-08-13T13:34:18Z</time>
      </trkpt>
      <trkpt lat="42.2110900" lon="-2.6722400">
        <ele>953.6</ele>
        <time>2022-08-13T13:34:23Z</time>
      </trkpt>
      <trkpt lat="42.2110750" lon="-2.6723100">
        <ele>954.0</ele>
        <time>2022-08-13T13:34:26Z</time>
      </trkpt>
      <trkpt lat="42.2110790" lon="-2.6724710">
        <ele>957.1</ele>
        <time>2022-08-13T13:34:33Z</time>
      </trkpt>
      <trkpt lat="42.2110900" lon="-2.6724860">
        <ele>957.1</ele>
        <time>2022-08-13T13:34:34Z</time>
      </trkpt>
      <trkpt lat="42.2111360" lon="-2.6725060">
        <ele>957.1</ele>
        <time>2022-08-13T13:34:37Z</time>
      </trkpt>
      <trkpt lat="42.2111820" lon="-2.6724900">
        <ele>957.1</ele>
        <time>2022-08-13T13:34:40Z</time>
      </trkpt>
      <trkpt lat="42.2111960" lon="-2.6724760">
        <ele>957.0</ele>
        <time>2022-08-13T13:34:41Z</time>
      </trkpt>
      <trkpt lat="42.2112720" lon="-2.6723790">
        <ele>957.3</ele>
        <time>2022-08-13T13:34:47Z</time>
      </trkpt>
      <trkpt lat="42.2113070" lon="-2.6723230">
        <ele>957.6</ele>
        <time>2022-08-13T13:34:50Z</time>
      </trkpt>
      <trkpt lat="42.2113510" lon="-2.6722630">
        <ele>957.9</ele>
        <time>2022-08-13T13:34:54Z</time>
      </trkpt>
      <trkpt lat="42.2114100" lon="-2.6721660">
        <ele>958.4</ele>
        <time>2022-08-13T13:35:00Z</time>
      </trkpt>
      <trkpt lat="42.2114300" lon="-2.6721320">
        <ele>958.6</ele>
        <time>2022-08-13T13:35:02Z</time>
      </trkpt>
      <trkpt lat="42.2115360" lon="-2.6719650">
        <ele>959.8</ele>
        <time>2022-08-13T13:35:12Z</time>
      </trkpt>
      <trkpt lat="42.2115660" lon="-2.6719130">
        <ele>960.3</ele>
        <time>2022-08-13T13:35:15Z</time>
      </trkpt>
      <trkpt lat="42.2116220" lon="-2.6718130">
        <ele>961.1</ele>
        <time>2022-08-13T13:35:21Z</time>
      </trkpt>
      <trkpt lat="42.2116870" lon="-2.6716800">
        <ele>962.2</ele>
        <time>2022-08-13T13:35:29Z</time>
      </trkpt>
      <trkpt lat="42.2117350" lon="-2.6715860">
        <ele>963.0</ele>
        <time>2022-08-13T13:35:34Z</time>
      </trkpt>
      <trkpt lat="42.2117810" lon="-2.6714960">
        <ele>963.9</ele>
        <time>2022-08-13T13:35:39Z</time>
      </trkpt>
      <trkpt lat="42.2117970" lon="-2.6714680">
        <ele>964.1</ele>
        <time>2022-08-13T13:35:41Z</time>
      </trkpt>
      <trkpt lat="42.2118760" lon="-2.6713530">
        <ele>965.3</ele>
        <time>2022-08-13T13:35:48Z</time>
      </trkpt>
      <trkpt lat="42.2119130" lon="-2.6712830">
        <ele>966.0</ele>
        <time>2022-08-13T13:35:53Z</time>
      </trkpt>
      <trkpt lat="42.2119530" lon="-2.6712120">
        <ele>966.7</ele>
        <time>2022-08-13T13:35:57Z</time>
      </trkpt>
      <trkpt lat="42.2119980" lon="-2.6711420">
        <ele>967.4</ele>
        <time>2022-08-13T13:36:01Z</time>
      </trkpt>
      <trkpt lat="42.2120300" lon="-2.6710700">
        <ele>968.0</ele>
        <time>2022-08-13T13:36:05Z</time>
      </trkpt>
      <trkpt lat="42.2120850" lon="-2.6709860">
        <ele>968.8</ele>
        <time>2022-08-13T13:36:10Z</time>
      </trkpt>
      <trkpt lat="42.2121100" lon="-2.6709300">
        <ele>969.2</ele>
        <time>2022-08-13T13:36:13Z</time>
      </trkpt>
      <trkpt lat="42.2122020" lon="-2.6708080">
        <ele>970.5</ele>
        <time>2022-08-13T13:36:21Z</time>
      </trkpt>
      <trkpt lat="42.2122860" lon="-2.6707030">
        <ele>971.5</ele>
        <time>2022-08-13T13:36:28Z</time>
      </trkpt>
      <trkpt lat="42.2123570" lon="-2.6706460">
        <ele>972.3</ele>
        <time>2022-08-13T13:36:33Z</time>
      </trkpt>
      <trkpt lat="42.2124010" lon="-2.6706140">
        <ele>972.8</ele>
        <time>2022-08-13T13:36:36Z</time>
      </trkpt>
      <trkpt lat="42.2124930" lon="-2.6705430">
        <ele>973.7</ele>
        <time>2022-08-13T13:36:43Z</time>
      </trkpt>
      <trkpt lat="42.2125090" lon="-2.6705300">
        <ele>973.8</ele>
        <time>2022-08-13T13:36:44Z</time>
      </trkpt>
      <trkpt lat="42.2126240" lon="-2.6704500">
        <ele>974.8</ele>
        <time>2022-08-13T13:36:52Z</time>
      </trkpt>
      <trkpt lat="42.2126580" lon="-2.6704320">
        <ele>975.0</ele>
        <time>2022-08-13T13:36:54Z</time>
      </trkpt>
      <trkpt lat="42.2127760" lon="-2.6703360">
        <ele>975.9</ele>
        <time>2022-08-13T13:37:02Z</time>
      </trkpt>
      <trkpt lat="42.2128020" lon="-2.6703190">
        <ele>976.1</ele>
        <time>2022-08-13T13:37:04Z</time>
      </trkpt>
      <trkpt lat="42.2129300" lon="-2.6702470">
        <ele>976.9</ele>
        <time>2022-08-13T13:37:12Z</time>
      </trkpt>
      <trkpt lat="42.2130090" lon="-2.6701910">
        <ele>977.4</ele>
        <time>2022-08-13T13:37:17Z</time>
      </trkpt>
      <trkpt lat="42.2130640" lon="-2.6701340">
        <ele>977.8</ele>
        <time>2022-08-13T13:37:21Z</time>
      </trkpt>
      <trkpt lat="42.2131600" lon="-2.6700710">
        <ele>978.5</ele>
        <time>2022-08-13T13:37:28Z</time>
      </trkpt>
      <trkpt lat="42.2132240" lon="-2.6700090">
        <ele>979.0</ele>
        <time>2022-08-13T13:37:32Z</time>
      </trkpt>
      <trkpt lat="42.2132720" lon="-2.6699710">
        <ele>979.4</ele>
        <time>2022-08-13T13:37:35Z</time>
      </trkpt>
      <trkpt lat="42.2133570" lon="-2.6699000">
        <ele>980.1</ele>
        <time>2022-08-13T13:37:41Z</time>
      </trkpt>
      <trkpt lat="42.2134060" lon="-2.6698470">
        <ele>980.5</ele>
        <time>2022-08-13T13:37:44Z</time>
      </trkpt>
      <trkpt lat="42.2134730" lon="-2.6697800">
        <ele>981.1</ele>
        <time>2022-08-13T13:37:49Z</time>
      </trkpt>
      <trkpt lat="42.2135310" lon="-2.6697230">
        <ele>981.6</ele>
        <time>2022-08-13T13:37:53Z</time>
      </trkpt>
      <trkpt lat="42.2135890" lon="-2.6696750">
        <ele>982.1</ele>
        <time>2022-08-13T13:37:57Z</time>
      </trkpt>
      <trkpt lat="42.2136630" lon="-2.6696130">
        <ele>982.6</ele>
        <time>2022-08-13T13:38:02Z</time>
      </trkpt>
      <trkpt lat="42.2136960" lon="-2.6695890">
        <ele>982.8</ele>
        <time>2022-08-13T13:38:04Z</time>
      </trkpt>
      <trkpt lat="42.2138000" lon="-2.6694990">
        <ele>983.6</ele>
        <time>2022-08-13T13:38:11Z</time>
      </trkpt>
      <trkpt lat="42.2138330" lon="-2.6694810">
        <ele>983.8</ele>
        <time>2022-08-13T13:38:13Z</time>
      </trkpt>
      <trkpt lat="42.2140310" lon="-2.6693780">
        <ele>985.0</ele>
        <time>2022-08-13T13:38:25Z</time>
      </trkpt>
      <trkpt lat="42.2141800" lon="-2.6692930">
        <ele>985.8</ele>
        <time>2022-08-13T13:38:34Z</time>
      </trkpt>
      <trkpt lat="42.2142150" lon="-2.6692630">
        <ele>986.0</ele>
        <time>2022-08-13T13:38:36Z</time>
      </trkpt>
      <trkpt lat="42.2143280" lon="-2.6691540">
        <ele>986.7</ele>
        <time>2022-08-13T13:38:44Z</time>
      </trkpt>
      <trkpt lat="42.2143650" lon="-2.6691140">
        <ele>987.0</ele>
        <time>2022-08-13T13:38:46Z</time>
      </trkpt>
      <trkpt lat="42.2144490" lon="-2.6689780">
        <ele>987.7</ele>
        <time>2022-08-13T13:38:53Z</time>
      </trkpt>
      <trkpt lat="42.2144710" lon="-2.6689390">
        <ele>987.9</ele>
        <time>2022-08-13T13:38:55Z</time>
      </trkpt>
      <trkpt lat="42.2145230" lon="-2.6688440">
        <ele>988.5</ele>
        <time>2022-08-13T13:39:00Z</time>
      </trkpt>
      <trkpt lat="42.2145720" lon="-2.6687150">
        <ele>989.3</ele>
        <time>2022-08-13T13:39:06Z</time>
      </trkpt>
      <trkpt lat="42.2145810" lon="-2.6686890">
        <ele>989.5</ele>
        <time>2022-08-13T13:39:07Z</time>
      </trkpt>
      <trkpt lat="42.2146160" lon="-2.6685450">
        <ele>990.5</ele>
        <time>2022-08-13T13:39:14Z</time>
      </trkpt>
      <trkpt lat="42.2146310" lon="-2.6684630">
        <ele>991.1</ele>
        <time>2022-08-13T13:39:18Z</time>
      </trkpt>
      <trkpt lat="42.2146530" lon="-2.6683500">
        <ele>991.9</ele>
        <time>2022-08-13T13:39:23Z</time>
      </trkpt>
      <trkpt lat="42.2146580" lon="-2.6683270">
        <ele>992.0</ele>
        <time>2022-08-13T13:39:24Z</time>
      </trkpt>
      <trkpt lat="42.2147010" lon="-2.6681200">
        <ele>993.3</ele>
        <time>2022-08-13T13:39:33Z</time>
      </trkpt>
      <trkpt lat="42.2147560" lon="-2.6679430">
        <ele>994.1</ele>
        <time>2022-08-13T13:39:41Z</time>
      </trkpt>
      <trkpt lat="42.2148160" lon="-2.6678060">
        <ele>994.6</ele>
        <time>2022-08-13T13:39:47Z</time>
      </trkpt>
      <trkpt lat="42.2148640" lon="-2.6677460">
        <ele>994.7</ele>
        <time>2022-08-13T13:39:50Z</time>
      </trkpt>
      <trkpt lat="42.2150360" lon="-2.6676030">
        <ele>994.9</ele>
        <time>2022-08-13T13:39:57Z</time>
      </trkpt>
      <trkpt lat="42.2151660" lon="-2.6675710">
        <ele>994.9</ele>
        <time>2022-08-13T13:40:01Z</time>
      </trkpt>
      <trkpt lat="42.2152280" lon="-2.6675660">
        <ele>995.0</ele>
        <time>2022-08-13T13:40:03Z</time>
      </trkpt>
      <trkpt lat="42.2152500" lon="-2.6675630">
        <ele>995.0</ele>
        <time>2022-08-13T13:40:04Z</time>
      </trkpt>
      <trkpt lat="42.2154180" lon="-2.6675610">
        <ele>995.3</ele>
        <time>2022-08-13T13:40:10Z</time>
      </trkpt>
      <trkpt lat="42.2154470" lon="-2.6675630">
        <ele>995.4</ele>
        <time>2022-08-13T13:40:11Z</time>
      </trkpt>
      <trkpt lat="42.2157030" lon="-2.6675570">
        <ele>996.4</ele>
        <time>2022-08-13T13:40:21Z</time>
      </trkpt>
      <trkpt lat="42.2158860" lon="-2.6675370">
        <ele>997.4</ele>
        <time>2022-08-13T13:40:29Z</time>
      </trkpt>
      <trkpt lat="42.2159040" lon="-2.6675330">
        <ele>997.5</ele>
        <time>2022-08-13T13:40:30Z</time>
      </trkpt>
      <trkpt lat="42.2160310" lon="-2.6675070">
        <ele>998.3</ele>
        <time>2022-08-13T13:40:35Z</time>
      </trkpt>
      <trkpt lat="42.2161510" lon="-2.6674790">
        <ele>998.9</ele>
        <time>2022-08-13T13:40:40Z</time>
      </trkpt>
      <trkpt lat="42.2163260" lon="-2.6674590">
        <ele>999.8</ele>
        <time>2022-08-13T13:40:47Z</time>
      </trkpt>
      <trkpt lat="42.2163750" lon="-2.6674560">
        <ele>1000.1</ele>
        <time>2022-08-13T13:40:49Z</time>
      </trkpt>
      <trkpt lat="42.2165970" lon="-2.6674730">
        <ele>1001.1</ele>
        <time>2022-08-13T13:40:58Z</time>
      </trkpt>
      <trkpt lat="42.2166640" lon="-2.6674930">
        <ele>1001.5</ele>
        <time>2022-08-13T13:41:01Z</time>
      </trkpt>
      <trkpt lat="42.2167990" lon="-2.6675140">
        <ele>1002.1</ele>
        <time>2022-08-13T13:41:07Z</time>
      </trkpt>
      <trkpt lat="42.2170300" lon="-2.6675520">
        <ele>1003.3</ele>
        <time>2022-08-13T13:41:17Z</time>
      </trkpt>
      <trkpt lat="42.2171380" lon="-2.6675740">
        <ele>1003.9</ele>
        <time>2022-08-13T13:41:22Z</time>
      </trkpt>
      <trkpt lat="42.2171860" lon="-2.6675800">
        <ele>1004.1</ele>
        <time>2022-08-13T13:41:24Z</time>
      </trkpt>
      <trkpt lat="42.2172300" lon="-2.6675830">
        <ele>1004.3</ele>
        <time>2022-08-13T13:41:26Z</time>
      </trkpt>
      <trkpt lat="42.2173910" lon="-2.6676100">
        <ele>1004.9</ele>
        <time>2022-08-13T13:41:32Z</time>
      </trkpt>
      <trkpt lat="42.2174180" lon="-2.6676170">
        <ele>1005.0</ele>
        <time>2022-08-13T13:41:33Z</time>
      </trkpt>
      <trkpt lat="42.2177000" lon="-2.6676730">
        <ele>1005.6</ele>
        <time>2022-08-13T13:41:42Z</time>
      </trkpt>
      <trkpt lat="42.2178150" lon="-2.6676410">
        <ele>1005.9</ele>
        <time>2022-08-13T13:41:48Z</time>
      </trkpt>
      <trkpt lat="42.2179350" lon="-2.6675990">
        <ele>1006.4</ele>
        <time>2022-08-13T13:41:55Z</time>
      </trkpt>
      <trkpt lat="42.2179850" lon="-2.6676070">
        <ele>1006.7</ele>
        <time>2022-08-13T13:41:58Z</time>
      </trkpt>
      <trkpt lat="42.2180070" lon="-2.6676070">
        <ele>1006.9</ele>
        <time>2022-08-13T13:41:59Z</time>
      </trkpt>
      <trkpt lat="42.2180950" lon="-2.6675860">
        <ele>1007.6</ele>
        <time>2022-08-13T13:42:04Z</time>
      </trkpt>
      <trkpt lat="42.2181360" lon="-2.6675570">
        <ele>1008.0</ele>
        <time>2022-08-13T13:42:07Z</time>
      </trkpt>
      <trkpt lat="42.2182600" lon="-2.6675040">
        <ele>1009.2</ele>
        <time>2022-08-13T13:42:13Z</time>
      </trkpt>
      <trkpt lat="42.2183320" lon="-2.6674970">
        <ele>1009.7</ele>
        <time>2022-08-13T13:42:18Z</time>
      </trkpt>
      <trkpt lat="42.2183370" lon="-2.6674950">
        <ele>1009.7</ele>
        <time>2022-08-13T13:42:19Z</time>
      </trkpt>
      <trkpt lat="42.2172990" lon="-2.6674540">
        <ele>1004.5</ele>
        <time>2022-08-14T05:32:48Z</time>
      </trkpt>
      <trkpt lat="42.2172990" lon="-2.6674540">
        <ele>1004.5</ele>
        <time>2022-08-14T05:32:51Z</time>
      </trkpt>
      <trkpt lat="42.2172990" lon="-2.6674540">
        <ele>1004.5</ele>
        <time>2022-08-14T05:33:00Z</time>
      </trkpt>
      <trkpt lat="42.2172710" lon="-2.6675070">
        <ele>1004.4</ele>
        <time>2022-08-14T05:33:01Z</time>
      </trkpt>
      <trkpt lat="42.2172040" lon="-2.6675090">
        <ele>1004.1</ele>
        <time>2022-08-14T05:33:03Z</time>
      </trkpt>
      <trkpt lat="42.2171430" lon="-2.6674860">
        <ele>1003.8</ele>
        <time>2022-08-14T05:33:05Z</time>
      </trkpt>
      <trkpt lat="42.2170800" lon="-2.6674740">
        <ele>1003.5</ele>
        <time>2022-08-14T05:33:06Z</time>
      </trkpt>
      <trkpt lat="42.2170220" lon="-2.6674710">
        <ele>1003.2</ele>
        <time>2022-08-14T05:33:07Z</time>
      </trkpt>
      <trkpt lat="42.2169640" lon="-2.6674720">
        <ele>1002.9</ele>
        <time>2022-08-14T05:33:08Z</time>
      </trkpt>
      <trkpt lat="42.2167850" lon="-2.6674620">
        <ele>1002.0</ele>
        <time>2022-08-14T05:33:11Z</time>
      </trkpt>
      <trkpt lat="42.2164890" lon="-2.6674460">
        <ele>1000.6</ele>
        <time>2022-08-14T05:33:15Z</time>
      </trkpt>
      <trkpt lat="42.2164130" lon="-2.6674470">
        <ele>1000.3</ele>
        <time>2022-08-14T05:33:16Z</time>
      </trkpt>
      <trkpt lat="42.2160750" lon="-2.6674590">
        <ele>998.5</ele>
        <time>2022-08-14T05:33:21Z</time>
      </trkpt>
      <trkpt lat="42.2158600" lon="-2.6674990">
        <ele>997.3</ele>
        <time>2022-08-14T05:33:24Z</time>
      </trkpt>
      <trkpt lat="42.2157210" lon="-2.6674980">
        <ele>996.5</ele>
        <time>2022-08-14T05:33:26Z</time>
      </trkpt>
      <trkpt lat="42.2153960" lon="-2.6674920">
        <ele>995.3</ele>
        <time>2022-08-14T05:33:30Z</time>
      </trkpt>
      <trkpt lat="42.2152860" lon="-2.6674930">
        <ele>995.1</ele>
        <time>2022-08-14T05:33:31Z</time>
      </trkpt>
      <trkpt lat="42.2151120" lon="-2.6675190">
        <ele>994.9</ele>
        <time>2022-08-14T05:33:33Z</time>
      </trkpt>
      <trkpt lat="42.2149800" lon="-2.6675990">
        <ele>994.8</ele>
        <time>2022-08-14T05:33:35Z</time>
      </trkpt>
      <trkpt lat="42.2149190" lon="-2.6676530">
        <ele>994.8</ele>
        <time>2022-08-14T05:33:36Z</time>
      </trkpt>
      <trkpt lat="42.2148640" lon="-2.6677150">
        <ele>994.7</ele>
        <time>2022-08-14T05:33:37Z</time>
      </trkpt>
      <trkpt lat="42.2148210" lon="-2.6677840">
        <ele>994.5</ele>
        <time>2022-08-14T05:33:38Z</time>
      </trkpt>
      <trkpt lat="42.2147890" lon="-2.6678560">
        <ele>994.3</ele>
        <time>2022-08-14T05:33:39Z</time>
      </trkpt>
      <trkpt lat="42.2147330" lon="-2.6680240">
        <ele>993.7</ele>
        <time>2022-08-14T05:33:41Z</time>
      </trkpt>
      <trkpt lat="42.2147140" lon="-2.6681160">
        <ele>993.2</ele>
        <time>2022-08-14T05:33:42Z</time>
      </trkpt>
      <trkpt lat="42.2146810" lon="-2.6683080">
        <ele>992.0</ele>
        <time>2022-08-14T05:33:44Z</time>
      </trkpt>
      <trkpt lat="42.2146380" lon="-2.6685200">
        <ele>990.6</ele>
        <time>2022-08-14T05:33:46Z</time>
      </trkpt>
      <trkpt lat="42.2145990" lon="-2.6686540">
        <ele>989.6</ele>
        <time>2022-08-14T05:33:47Z</time>
      </trkpt>
      <trkpt lat="42.2145640" lon="-2.6687450">
        <ele>989.0</ele>
        <time>2022-08-14T05:33:48Z</time>
      </trkpt>
      <trkpt lat="42.2145010" lon="-2.6688750">
        <ele>988.2</ele>
        <time>2022-08-14T05:33:49Z</time>
      </trkpt>
      <trkpt lat="42.2143580" lon="-2.6690700">
        <ele>987.0</ele>
        <time>2022-08-14T05:33:51Z</time>
      </trkpt>
      <trkpt lat="42.2141890" lon="-2.6692200">
        <ele>986.0</ele>
        <time>2022-08-14T05:33:53Z</time>
      </trkpt>
      <trkpt lat="42.2140990" lon="-2.6692750">
        <ele>985.5</ele>
        <time>2022-08-14T05:33:54Z</time>
      </trkpt>
      <trkpt lat="42.2139140" lon="-2.6693760">
        <ele>984.4</ele>
        <time>2022-08-14T05:33:56Z</time>
      </trkpt>
      <trkpt lat="42.2137430" lon="-2.6694840">
        <ele>983.3</ele>
        <time>2022-08-14T05:33:58Z</time>
      </trkpt>
      <trkpt lat="42.2136540" lon="-2.6695580">
        <ele>982.7</ele>
        <time>2022-08-14T05:33:59Z</time>
      </trkpt>
      <trkpt lat="42.2134830" lon="-2.6697180">
        <ele>981.3</ele>
        <time>2022-08-14T05:34:01Z</time>
      </trkpt>
      <trkpt lat="42.2132710" lon="-2.6699070">
        <ele>979.6</ele>
        <time>2022-08-14T05:34:04Z</time>
      </trkpt>
      <trkpt lat="42.2131800" lon="-2.6699820">
        <ele>978.9</ele>
        <time>2022-08-14T05:34:05Z</time>
      </trkpt>
      <trkpt lat="42.2130860" lon="-2.6700570">
        <ele>978.2</ele>
        <time>2022-08-14T05:34:06Z</time>
      </trkpt>
      <trkpt lat="42.2129880" lon="-2.6701290">
        <ele>977.5</ele>
        <time>2022-08-14T05:34:07Z</time>
      </trkpt>
      <trkpt lat="42.2127930" lon="-2.6702640">
        <ele>976.2</ele>
        <time>2022-08-14T05:34:09Z</time>
      </trkpt>
      <trkpt lat="42.2126920" lon="-2.6703330">
        <ele>975.5</ele>
        <time>2022-08-14T05:34:10Z</time>
      </trkpt>
      <trkpt lat="42.2125940" lon="-2.6704010">
        <ele>974.8</ele>
        <time>2022-08-14T05:34:11Z</time>
      </trkpt>
      <trkpt lat="42.2124970" lon="-2.6704690">
        <ele>974.0</ele>
        <time>2022-08-14T05:34:12Z</time>
      </trkpt>
      <trkpt lat="42.2124020" lon="-2.6705410">
        <ele>973.1</ele>
        <time>2022-08-14T05:34:13Z</time>
      </trkpt>
      <trkpt lat="42.2122220" lon="-2.6707080">
        <ele>971.1</ele>
        <time>2022-08-14T05:34:15Z</time>
      </trkpt>
      <trkpt lat="42.2120620" lon="-2.6709210">
        <ele>968.9</ele>
        <time>2022-08-14T05:34:17Z</time>
      </trkpt>
      <trkpt lat="42.2119890" lon="-2.6710410">
        <ele>967.8</ele>
        <time>2022-08-14T05:34:18Z</time>
      </trkpt>
      <trkpt lat="42.2118520" lon="-2.6712890">
        <ele>965.5</ele>
        <time>2022-08-14T05:34:20Z</time>
      </trkpt>
      <trkpt lat="42.2117820" lon="-2.6714170">
        <ele>964.3</ele>
        <time>2022-08-14T05:34:21Z</time>
      </trkpt>
      <trkpt lat="42.2116400" lon="-2.6716700">
        <ele>962.0</ele>
        <time>2022-08-14T05:34:23Z</time>
      </trkpt>
      <trkpt lat="42.2115020" lon="-2.6719230">
        <ele>959.9</ele>
        <time>2022-08-14T05:34:25Z</time>
      </trkpt>
      <trkpt lat="42.2113630" lon="-2.6721750">
        <ele>958.2</ele>
        <time>2022-08-14T05:34:27Z</time>
      </trkpt>
      <trkpt lat="42.2112250" lon="-2.6724280">
        <ele>957.1</ele>
        <time>2022-08-14T05:34:29Z</time>
      </trkpt>
      <trkpt lat="42.2110940" lon="-2.6726730">
        <ele>957.0</ele>
        <time>2022-08-14T05:34:31Z</time>
      </trkpt>
      <trkpt lat="42.2110310" lon="-2.6727860">
        <ele>957.1</ele>
        <time>2022-08-14T05:34:32Z</time>
      </trkpt>
      <trkpt lat="42.2109690" lon="-2.6728890">
        <ele>958.0</ele>
        <time>2022-08-14T05:34:33Z</time>
      </trkpt>
      <trkpt lat="42.2109130" lon="-2.6729810">
        <ele>958.7</ele>
        <time>2022-08-14T05:34:34Z</time>
      </trkpt>
      <trkpt lat="42.2108610" lon="-2.6730660">
        <ele>959.4</ele>
        <time>2022-08-14T05:34:35Z</time>
      </trkpt>
      <trkpt lat="42.2108190" lon="-2.6731420">
        <ele>960.0</ele>
        <time>2022-08-14T05:34:36Z</time>
      </trkpt>
      <trkpt lat="42.2107850" lon="-2.6732170">
        <ele>960.5</ele>
        <time>2022-08-14T05:34:37Z</time>
      </trkpt>
      <trkpt lat="42.2107610" lon="-2.6732940">
        <ele>961.0</ele>
        <time>2022-08-14T05:34:38Z</time>
      </trkpt>
      <trkpt lat="42.2107430" lon="-2.6733700">
        <ele>961.4</ele>
        <time>2022-08-14T05:34:39Z</time>
      </trkpt>
      <trkpt lat="42.2107300" lon="-2.6734340">
        <ele>961.7</ele>
        <time>2022-08-14T05:34:40Z</time>
      </trkpt>
      <trkpt lat="42.2107200" lon="-2.6734940">
        <ele>962.0</ele>
        <time>2022-08-14T05:34:41Z</time>
      </trkpt>
      <trkpt lat="42.2107020" lon="-2.6736050">
        <ele>962.6</ele>
        <time>2022-08-14T05:34:43Z</time>
      </trkpt>
      <trkpt lat="42.2106910" lon="-2.6736970">
        <ele>963.0</ele>
        <time>2022-08-14T05:34:45Z</time>
      </trkpt>
      <trkpt lat="42.2106850" lon="-2.6737390">
        <ele>963.3</ele>
        <time>2022-08-14T05:34:46Z</time>
      </trkpt>
      <trkpt lat="42.2106620" lon="-2.6738660">
        <ele>963.9</ele>
        <time>2022-08-14T05:34:49Z</time>
      </trkpt>
      <trkpt lat="42.2106510" lon="-2.6739070">
        <ele>964.2</ele>
        <time>2022-08-14T05:34:50Z</time>
      </trkpt>
      <trkpt lat="42.2106310" lon="-2.6739920">
        <ele>964.6</ele>
        <time>2022-08-14T05:34:52Z</time>
      </trkpt>
      <trkpt lat="42.2106040" lon="-2.6740610">
        <ele>964.9</ele>
        <time>2022-08-14T05:34:54Z</time>
      </trkpt>
      <trkpt lat="42.2105260" lon="-2.6741430">
        <ele>965.5</ele>
        <time>2022-08-14T05:34:57Z</time>
      </trkpt>
      <trkpt lat="42.2104150" lon="-2.6742270">
        <ele>966.2</ele>
        <time>2022-08-14T05:35:00Z</time>
      </trkpt>
      <trkpt lat="42.2103470" lon="-2.6742830">
        <ele>966.7</ele>
        <time>2022-08-14T05:35:02Z</time>
      </trkpt>
      <trkpt lat="42.2102080" lon="-2.6744560">
        <ele>967.9</ele>
        <time>2022-08-14T05:35:07Z</time>
      </trkpt>
      <trkpt lat="42.2101760" lon="-2.6745800">
        <ele>968.6</ele>
        <time>2022-08-14T05:35:10Z</time>
      </trkpt>
      <trkpt lat="42.2101680" lon="-2.6746180">
        <ele>968.8</ele>
        <time>2022-08-14T05:35:11Z</time>
      </trkpt>
      <trkpt lat="42.2101260" lon="-2.6747500">
        <ele>969.7</ele>
        <time>2022-08-14T05:35:15Z</time>
      </trkpt>
      <trkpt lat="42.2101110" lon="-2.6747870">
        <ele>970.0</ele>
        <time>2022-08-14T05:35:16Z</time>
      </trkpt>
      <trkpt lat="42.2100560" lon="-2.6749090">
        <ele>970.8</ele>
        <time>2022-08-14T05:35:20Z</time>
      </trkpt>
      <trkpt lat="42.2099850" lon="-2.6750140">
        <ele>971.7</ele>
        <time>2022-08-14T05:35:24Z</time>
      </trkpt>
      <trkpt lat="42.2099280" lon="-2.6750790">
        <ele>972.2</ele>
        <time>2022-08-14T05:35:27Z</time>
      </trkpt>
      <trkpt lat="42.2098300" lon="-2.6751660">
        <ele>973.0</ele>
        <time>2022-08-14T05:35:32Z</time>
      </trkpt>
      <trkpt lat="42.2098050" lon="-2.6751800">
        <ele>973.2</ele>
        <time>2022-08-14T05:35:33Z</time>
      </trkpt>
      <trkpt lat="42.2097050" lon="-2.6752080">
        <ele>973.7</ele>
        <time>2022-08-14T05:35:38Z</time>
      </trkpt>
      <trkpt lat="42.2096110" lon="-2.6752080">
        <ele>974.2</ele>
        <time>2022-08-14T05:35:42Z</time>
      </trkpt>
      <trkpt lat="42.2095630" lon="-2.6752040">
        <ele>974.4</ele>
        <time>2022-08-14T05:35:44Z</time>
      </trkpt>
      <trkpt lat="42.2094220" lon="-2.6751980">
        <ele>975.2</ele>
        <time>2022-08-14T05:35:50Z</time>
      </trkpt>
      <trkpt lat="42.2093990" lon="-2.6751880">
        <ele>975.3</ele>
        <time>2022-08-14T05:35:51Z</time>
      </trkpt>
      <trkpt lat="42.2093300" lon="-2.6751810">
        <ele>975.6</ele>
        <time>2022-08-14T05:35:54Z</time>
      </trkpt>
      <trkpt lat="42.2092820" lon="-2.6751750">
        <ele>975.9</ele>
        <time>2022-08-14T05:35:56Z</time>
      </trkpt>
      <trkpt lat="42.2092290" lon="-2.6751750">
        <ele>976.2</ele>
        <time>2022-08-14T05:35:59Z</time>
      </trkpt>
      <trkpt lat="42.2091250" lon="-2.6751700">
        <ele>976.9</ele>
        <time>2022-08-14T05:36:05Z</time>
      </trkpt>
      <trkpt lat="42.2091080" lon="-2.6751720">
        <ele>977.0</ele>
        <time>2022-08-14T05:36:06Z</time>
      </trkpt>
      <trkpt lat="42.2089970" lon="-2.6751810">
        <ele>977.9</ele>
        <time>2022-08-14T05:36:12Z</time>
      </trkpt>
      <trkpt lat="42.2089340" lon="-2.6751910">
        <ele>978.4</ele>
        <time>2022-08-14T05:36:15Z</time>
      </trkpt>
      <trkpt lat="42.2088610" lon="-2.6751990">
        <ele>979.1</ele>
        <time>2022-08-14T05:36:19Z</time>
      </trkpt>
      <trkpt lat="42.2088370" lon="-2.6752030">
        <ele>979.3</ele>
        <time>2022-08-14T05:36:20Z</time>
      </trkpt>
      <trkpt lat="42.2087480" lon="-2.6752270">
        <ele>980.1</ele>
        <time>2022-08-14T05:36:25Z</time>
      </trkpt>
      <trkpt lat="42.2087310" lon="-2.6752320">
        <ele>980.3</ele>
        <time>2022-08-14T05:36:26Z</time>
      </trkpt>
      <trkpt lat="42.2086040" lon="-2.6752550">
        <ele>981.5</ele>
        <time>2022-08-14T05:36:33Z</time>
      </trkpt>
      <trkpt lat="42.2085890" lon="-2.6752580">
        <ele>981.6</ele>
        <time>2022-08-14T05:36:34Z</time>
      </trkpt>
      <trkpt lat="42.2085070" lon="-2.6752770">
        <ele>982.3</ele>
        <time>2022-08-14T05:36:38Z</time>
      </trkpt>
      <trkpt lat="42.2083970" lon="-2.6753020">
        <ele>983.3</ele>
        <time>2022-08-14T05:36:44Z</time>
      </trkpt>
      <trkpt lat="42.2083770" lon="-2.6753050">
        <ele>983.5</ele>
        <time>2022-08-14T05:36:45Z</time>
      </trkpt>
      <trkpt lat="42.2083240" lon="-2.6753110">
        <ele>984.0</ele>
        <time>2022-08-14T05:36:48Z</time>
      </trkpt>
      <trkpt lat="42.2082830" lon="-2.6753230">
        <ele>984.4</ele>
        <time>2022-08-14T05:36:50Z</time>
      </trkpt>
      <trkpt lat="42.2082060" lon="-2.6753310">
        <ele>985.2</ele>
        <time>2022-08-14T05:36:54Z</time>
      </trkpt>
      <trkpt lat="42.2081440" lon="-2.6753410">
        <ele>985.8</ele>
        <time>2022-08-14T05:36:57Z</time>
      </trkpt>
      <trkpt lat="42.2079980" lon="-2.6753650">
        <ele>987.4</ele>
        <time>2022-08-14T05:37:04Z</time>
      </trkpt>
      <trkpt lat="42.2078980" lon="-2.6753810">
        <ele>988.6</ele>
        <time>2022-08-14T05:37:09Z</time>
      </trkpt>
      <trkpt lat="42.2078440" lon="-2.6753870">
        <ele>989.3</ele>
        <time>2022-08-14T05:37:12Z</time>
      </trkpt>
      <trkpt lat="42.2077780" lon="-2.6753940">
        <ele>990.2</ele>
        <time>2022-08-14T05:37:16Z</time>
      </trkpt>
      <trkpt lat="42.2077200" lon="-2.6754020">
        <ele>991.0</ele>
        <time>2022-08-14T05:37:19Z</time>
      </trkpt>
      <trkpt lat="42.2076370" lon="-2.6754050">
        <ele>992.1</ele>
        <time>2022-08-14T05:37:22Z</time>
      </trkpt>
      <trkpt lat="42.2075860" lon="-2.6753980">
        <ele>992.8</ele>
        <time>2022-08-14T05:37:24Z</time>
      </trkpt>
      <trkpt lat="42.2075190" lon="-2.6753700">
        <ele>993.7</ele>
        <time>2022-08-14T05:37:27Z</time>
      </trkpt>
      <trkpt lat="42.2075000" lon="-2.6753650">
        <ele>994.0</ele>
        <time>2022-08-14T05:37:28Z</time>
      </trkpt>
      <trkpt lat="42.2074070" lon="-2.6753460">
        <ele>995.3</ele>
        <time>2022-08-14T05:37:34Z</time>
      </trkpt>
      <trkpt lat="42.2074020" lon="-2.6753450">
        <ele>995.4</ele>
        <time>2022-08-14T05:37:35Z</time>
      </trkpt>
      <trkpt lat="42.2073100" lon="-2.6753370">
        <ele>996.5</ele>
        <time>2022-08-14T05:37:40Z</time>
      </trkpt>
      <trkpt lat="42.2072780" lon="-2.6753360">
        <ele>996.9</ele>
        <time>2022-08-14T05:37:43Z</time>
      </trkpt>
      <trkpt lat="42.2072360" lon="-2.6753440">
        <ele>997.4</ele>
        <time>2022-08-14T05:37:45Z</time>
      </trkpt>
      <trkpt lat="42.2071950" lon="-2.6753650">
        <ele>997.8</ele>
        <time>2022-08-14T05:37:48Z</time>
      </trkpt>
      <trkpt lat="42.2071550" lon="-2.6753730">
        <ele>998.2</ele>
        <time>2022-08-14T05:37:50Z</time>
      </trkpt>
      <trkpt lat="42.2070670" lon="-2.6754140">
        <ele>998.8</ele>
        <time>2022-08-14T05:37:55Z</time>
      </trkpt>
      <trkpt lat="42.2069690" lon="-2.6755130">
        <ele>999.4</ele>
        <time>2022-08-14T05:38:01Z</time>
      </trkpt>
      <trkpt lat="42.2068990" lon="-2.6755950">
        <ele>999.9</ele>
        <time>2022-08-14T05:38:06Z</time>
      </trkpt>
      <trkpt lat="42.2068740" lon="-2.6756320">
        <ele>1000.1</ele>
        <time>2022-08-14T05:38:08Z</time>
      </trkpt>
      <trkpt lat="42.2067590" lon="-2.6757540">
        <ele>1000.8</ele>
        <time>2022-08-14T05:38:15Z</time>
      </trkpt>
      <trkpt lat="42.2066720" lon="-2.6758480">
        <ele>1001.4</ele>
        <time>2022-08-14T05:38:21Z</time>
      </trkpt>
      <trkpt lat="42.2066340" lon="-2.6758770">
        <ele>1001.6</ele>
        <time>2022-08-14T05:38:23Z</time>
      </trkpt>
      <trkpt lat="42.2065820" lon="-2.6759500">
        <ele>1002.1</ele>
        <time>2022-08-14T05:38:27Z</time>
      </trkpt>
      <trkpt lat="42.2065400" lon="-2.6759930">
        <ele>1002.4</ele>
        <time>2022-08-14T05:38:30Z</time>
      </trkpt>
      <trkpt lat="42.2064910" lon="-2.6760310">
        <ele>1002.9</ele>
        <time>2022-08-14T05:38:33Z</time>
      </trkpt>
      <trkpt lat="42.2063930" lon="-2.6760890">
        <ele>1003.7</ele>
        <time>2022-08-14T05:38:38Z</time>
      </trkpt>
      <trkpt lat="42.2063770" lon="-2.6761020">
        <ele>1003.9</ele>
        <time>2022-08-14T05:38:39Z</time>
      </trkpt>
      <trkpt lat="42.2062930" lon="-2.6761630">
        <ele>1004.8</ele>
        <time>2022-08-14T05:38:44Z</time>
      </trkpt>
      <trkpt lat="42.2062930" lon="-2.6761630">
        <ele>1004.8</ele>
        <time>2022-08-14T05:38:45Z</time>
      </trkpt>
      <trkpt lat="42.2062150" lon="-2.6762570">
        <ele>1005.8</ele>
        <time>2022-08-14T05:38:50Z</time>
      </trkpt>
      <trkpt lat="42.2061320" lon="-2.6763140">
        <ele>1006.7</ele>
        <time>2022-08-14T05:38:55Z</time>
      </trkpt>
      <trkpt lat="42.2060240" lon="-2.6763700">
        <ele>1007.9</ele>
        <time>2022-08-14T05:39:01Z</time>
      </trkpt>
      <trkpt lat="42.2060040" lon="-2.6763820">
        <ele>1008.1</ele>
        <time>2022-08-14T05:39:02Z</time>
      </trkpt>
      <trkpt lat="42.2059000" lon="-2.6764270">
        <ele>1009.1</ele>
        <time>2022-08-14T05:39:08Z</time>
      </trkpt>
      <trkpt lat="42.2058800" lon="-2.6764310">
        <ele>1009.3</ele>
        <time>2022-08-14T05:39:09Z</time>
      </trkpt>
      <trkpt lat="42.2058060" lon="-2.6764490">
        <ele>1010.0</ele>
        <time>2022-08-14T05:39:13Z</time>
      </trkpt>
      <trkpt lat="42.2056850" lon="-2.6764760">
        <ele>1011.0</ele>
        <time>2022-08-14T05:39:20Z</time>
      </trkpt>
      <trkpt lat="42.2055790" lon="-2.6765040">
        <ele>1012.0</ele>
        <time>2022-08-14T05:39:26Z</time>
      </trkpt>
      <trkpt lat="42.2054960" lon="-2.6765280">
        <ele>1012.7</ele>
        <time>2022-08-14T05:39:30Z</time>
      </trkpt>
      <trkpt lat="42.2054160" lon="-2.6765470">
        <ele>1013.4</ele>
        <time>2022-08-14T05:39:34Z</time>
      </trkpt>
      <trkpt lat="42.2053520" lon="-2.6765610">
        <ele>1013.9</ele>
        <time>2022-08-14T05:39:37Z</time>
      </trkpt>
      <trkpt lat="42.2052740" lon="-2.6765910">
        <ele>1014.5</ele>
        <time>2022-08-14T05:39:41Z</time>
      </trkpt>
      <trkpt lat="42.2052000" lon="-2.6766110">
        <ele>1015.0</ele>
        <time>2022-08-14T05:39:44Z</time>
      </trkpt>
      <trkpt lat="42.2051470" lon="-2.6766220">
        <ele>1015.5</ele>
        <time>2022-08-14T05:39:47Z</time>
      </trkpt>
      <trkpt lat="42.2051060" lon="-2.6766390">
        <ele>1015.8</ele>
        <time>2022-08-14T05:39:49Z</time>
      </trkpt>
      <trkpt lat="42.2050480" lon="-2.6766570">
        <ele>1016.3</ele>
        <time>2022-08-14T05:39:52Z</time>
      </trkpt>
      <trkpt lat="42.2050290" lon="-2.6766660">
        <ele>1016.5</ele>
        <time>2022-08-14T05:39:53Z</time>
      </trkpt>
      <trkpt lat="42.2049180" lon="-2.6766970">
        <ele>1017.5</ele>
        <time>2022-08-14T05:39:59Z</time>
      </trkpt>
      <trkpt lat="42.2048800" lon="-2.6767100">
        <ele>1017.9</ele>
        <time>2022-08-14T05:40:01Z</time>
      </trkpt>
      <trkpt lat="42.2047700" lon="-2.6767480">
        <ele>1019.0</ele>
        <time>2022-08-14T05:40:07Z</time>
      </trkpt>
      <trkpt lat="42.2047530" lon="-2.6767610">
        <ele>1019.1</ele>
        <time>2022-08-14T05:40:08Z</time>
      </trkpt>
      <trkpt lat="42.2047370" lon="-2.6767690">
        <ele>1019.3</ele>
        <time>2022-08-14T05:40:09Z</time>
      </trkpt>
      <trkpt lat="42.2046440" lon="-2.6767880">
        <ele>1020.2</ele>
        <time>2022-08-14T05:40:14Z</time>
      </trkpt>
      <trkpt lat="42.2046100" lon="-2.6768050">
        <ele>1020.6</ele>
        <time>2022-08-14T05:40:16Z</time>
      </trkpt>
      <trkpt lat="42.2045090" lon="-2.6768180">
        <ele>1021.5</ele>
        <time>2022-08-14T05:40:21Z</time>
      </trkpt>
      <trkpt lat="42.2044880" lon="-2.6768240">
        <ele>1021.8</ele>
        <time>2022-08-14T05:40:22Z</time>
      </trkpt>
      <trkpt lat="42.2044000" lon="-2.6768570">
        <ele>1022.6</ele>
        <time>2022-08-14T05:40:27Z</time>
      </trkpt>
      <trkpt lat="42.2043410" lon="-2.6768740">
        <ele>1023.2</ele>
        <time>2022-08-14T05:40:30Z</time>
      </trkpt>
      <trkpt lat="42.2042820" lon="-2.6768880">
        <ele>1023.8</ele>
        <time>2022-08-14T05:40:33Z</time>
      </trkpt>
      <trkpt lat="42.2041840" lon="-2.6769090">
        <ele>1024.7</ele>
        <time>2022-08-14T05:40:38Z</time>
      </trkpt>
      <trkpt lat="42.2041470" lon="-2.6769170">
        <ele>1025.1</ele>
        <time>2022-08-14T05:40:40Z</time>
      </trkpt>
      <trkpt lat="42.2040600" lon="-2.6769440">
        <ele>1025.9</ele>
        <time>2022-08-14T05:40:45Z</time>
      </trkpt>
      <trkpt lat="42.2039700" lon="-2.6769800">
        <ele>1026.8</ele>
        <time>2022-08-14T05:40:49Z</time>
      </trkpt>
      <trkpt lat="42.2039330" lon="-2.6769910">
        <ele>1027.1</ele>
        <time>2022-08-14T05:40:51Z</time>
      </trkpt>
      <trkpt lat="42.2037890" lon="-2.6770240">
        <ele>1028.4</ele>
        <time>2022-08-14T05:40:58Z</time>
      </trkpt>
      <trkpt lat="42.2037500" lon="-2.6770310">
        <ele>1028.8</ele>
        <time>2022-08-14T05:41:00Z</time>
      </trkpt>
      <trkpt lat="42.2036750" lon="-2.6770550">
        <ele>1029.4</ele>
        <time>2022-08-14T05:41:04Z</time>
      </trkpt>
      <trkpt lat="42.2035990" lon="-2.6770780">
        <ele>1030.1</ele>
        <time>2022-08-14T05:41:08Z</time>
      </trkpt>
      <trkpt lat="42.2035410" lon="-2.6770990">
        <ele>1030.6</ele>
        <time>2022-08-14T05:41:11Z</time>
      </trkpt>
      <trkpt lat="42.2034030" lon="-2.6771430">
        <ele>1031.8</ele>
        <time>2022-08-14T05:41:18Z</time>
      </trkpt>
      <trkpt lat="42.2033830" lon="-2.6771490">
        <ele>1032.0</ele>
        <time>2022-08-14T05:41:19Z</time>
      </trkpt>
      <trkpt lat="42.2032630" lon="-2.6771920">
        <ele>1033.0</ele>
        <time>2022-08-14T05:41:25Z</time>
      </trkpt>
      <trkpt lat="42.2031810" lon="-2.6772200">
        <ele>1033.7</ele>
        <time>2022-08-14T05:41:29Z</time>
      </trkpt>
      <trkpt lat="42.2031260" lon="-2.6772490">
        <ele>1034.2</ele>
        <time>2022-08-14T05:41:32Z</time>
      </trkpt>
      <trkpt lat="42.2030370" lon="-2.6773010">
        <ele>1035.0</ele>
        <time>2022-08-14T05:41:37Z</time>
      </trkpt>
      <trkpt lat="42.2029990" lon="-2.6773200">
        <ele>1035.4</ele>
        <time>2022-08-14T05:41:39Z</time>
      </trkpt>
      <trkpt lat="42.2028810" lon="-2.6774000">
        <ele>1036.6</ele>
        <time>2022-08-14T05:41:45Z</time>
      </trkpt>
      <trkpt lat="42.2028200" lon="-2.6774380">
        <ele>1037.2</ele>
        <time>2022-08-14T05:41:49Z</time>
      </trkpt>
      <trkpt lat="42.2027810" lon="-2.6774600">
        <ele>1037.5</ele>
        <time>2022-08-14T05:41:51Z</time>
      </trkpt>
      <trkpt lat="42.2026480" lon="-2.6775590">
        <ele>1038.8</ele>
        <time>2022-08-14T05:41:58Z</time>
      </trkpt>
      <trkpt lat="42.2026290" lon="-2.6775750">
        <ele>1038.9</ele>
        <time>2022-08-14T05:41:59Z</time>
      </trkpt>
      <trkpt lat="42.2024610" lon="-2.6777170">
        <ele>1040.2</ele>
        <time>2022-08-14T05:42:07Z</time>
      </trkpt>
      <trkpt lat="42.2024390" lon="-2.6777370">
        <ele>1040.3</ele>
        <time>2022-08-14T05:42:08Z</time>
      </trkpt>
      <trkpt lat="42.2022720" lon="-2.6778940">
        <ele>1041.1</ele>
        <time>2022-08-14T05:42:16Z</time>
      </trkpt>
      <trkpt lat="42.2021870" lon="-2.6779870">
        <ele>1041.4</ele>
        <time>2022-08-14T05:42:20Z</time>
      </trkpt>
      <trkpt lat="42.2020950" lon="-2.6780910">
        <ele>1041.7</ele>
        <time>2022-08-14T05:42:24Z</time>
      </trkpt>
      <trkpt lat="42.2020740" lon="-2.6781160">
        <ele>1041.8</ele>
        <time>2022-08-14T05:42:25Z</time>
      </trkpt>
      <trkpt lat="42.2018550" lon="-2.6783600">
        <ele>1042.4</ele>
        <time>2022-08-14T05:42:34Z</time>
      </trkpt>
      <trkpt lat="42.2018020" lon="-2.6784200">
        <ele>1042.5</ele>
        <time>2022-08-14T05:42:36Z</time>
      </trkpt>
      <trkpt lat="42.2017050" lon="-2.6785360">
        <ele>1042.7</ele>
        <time>2022-08-14T05:42:40Z</time>
      </trkpt>
      <trkpt lat="42.2015290" lon="-2.6788080">
        <ele>1042.8</ele>
        <time>2022-08-14T05:42:47Z</time>
      </trkpt>
      <trkpt lat="42.2013170" lon="-2.6791570">
        <ele>1042.6</ele>
        <time>2022-08-14T05:42:55Z</time>
      </trkpt>
      <trkpt lat="42.2012460" lon="-2.6792700">
        <ele>1042.5</ele>
        <time>2022-08-14T05:42:58Z</time>
      </trkpt>
      <trkpt lat="42.2011900" lon="-2.6793630">
        <ele>1042.4</ele>
        <time>2022-08-14T05:43:00Z</time>
      </trkpt>
      <trkpt lat="42.2010310" lon="-2.6796130">
        <ele>1042.2</ele>
        <time>2022-08-14T05:43:06Z</time>
      </trkpt>
      <trkpt lat="42.2007560" lon="-2.6800690">
        <ele>1041.9</ele>
        <time>2022-08-14T05:43:15Z</time>
      </trkpt>
      <trkpt lat="42.2006630" lon="-2.6802230">
        <ele>1041.9</ele>
        <time>2022-08-14T05:43:18Z</time>
      </trkpt>
      <trkpt lat="42.2003100" lon="-2.6808040">
        <ele>1041.5</ele>
        <time>2022-08-14T05:43:29Z</time>
      </trkpt>
      <trkpt lat="42.1999400" lon="-2.6813960">
        <ele>1041.2</ele>
        <time>2022-08-14T05:43:40Z</time>
      </trkpt>
      <trkpt lat="42.1999070" lon="-2.6814490">
        <ele>1041.2</ele>
        <time>2022-08-14T05:43:41Z</time>
      </trkpt>
      <trkpt lat="42.1995460" lon="-2.6820450">
        <ele>1041.3</ele>
        <time>2022-08-14T05:43:52Z</time>
      </trkpt>
      <trkpt lat="42.1994180" lon="-2.6822560">
        <ele>1041.5</ele>
        <time>2022-08-14T05:43:56Z</time>
      </trkpt>
      <trkpt lat="42.1993240" lon="-2.6824060">
        <ele>1041.7</ele>
        <time>2022-08-14T05:43:59Z</time>
      </trkpt>
      <trkpt lat="42.1992040" lon="-2.6825960">
        <ele>1042.0</ele>
        <time>2022-08-14T05:44:03Z</time>
      </trkpt>
      <trkpt lat="42.1990900" lon="-2.6827820">
        <ele>1042.3</ele>
        <time>2022-08-14T05:44:07Z</time>
      </trkpt>
      <trkpt lat="42.1988430" lon="-2.6831910">
        <ele>1043.0</ele>
        <time>2022-08-14T05:44:16Z</time>
      </trkpt>
      <trkpt lat="42.1987340" lon="-2.6833690">
        <ele>1043.3</ele>
        <time>2022-08-14T05:44:20Z</time>
      </trkpt>
      <trkpt lat="42.1984290" lon="-2.6838610">
        <ele>1044.0</ele>
        <time>2022-08-14T05:44:31Z</time>
      </trkpt>
      <trkpt lat="42.1981320" lon="-2.6843480">
        <ele>1043.2</ele>
        <time>2022-08-14T05:44:41Z</time>
      </trkpt>
      <trkpt lat="42.1979670" lon="-2.6846180">
        <ele>1042.6</ele>
        <time>2022-08-14T05:44:46Z</time>
      </trkpt>
      <trkpt lat="42.1978750" lon="-2.6847650">
        <ele>1042.3</ele>
        <time>2022-08-14T05:44:48Z</time>
      </trkpt>
      <trkpt lat="42.1976890" lon="-2.6850730">
        <ele>1041.7</ele>
        <time>2022-08-14T05:44:53Z</time>
      </trkpt>
      <trkpt lat="42.1975140" lon="-2.6853600">
        <ele>1041.5</ele>
        <time>2022-08-14T05:44:57Z</time>
      </trkpt>
      <trkpt lat="42.1973880" lon="-2.6855630">
        <ele>1041.4</ele>
        <time>2022-08-14T05:45:00Z</time>
      </trkpt>
      <trkpt lat="42.1971130" lon="-2.6859910">
        <ele>1041.9</ele>
        <time>2022-08-14T05:45:07Z</time>
      </trkpt>
      <trkpt lat="42.1969120" lon="-2.6863350">
        <ele>1042.9</ele>
        <time>2022-08-14T05:45:13Z</time>
      </trkpt>
      <trkpt lat="42.1968000" lon="-2.6865170">
        <ele>1043.7</ele>
        <time>2022-08-14T05:45:17Z</time>
      </trkpt>
      <trkpt lat="42.1967530" lon="-2.6865940">
        <ele>1044.1</ele>
        <time>2022-08-14T05:45:19Z</time>
      </trkpt>
      <trkpt lat="42.1967350" lon="-2.6866250">
        <ele>1044.2</ele>
        <time>2022-08-14T05:45:20Z</time>
      </trkpt>
      <trkpt lat="42.1966500" lon="-2.6867610">
        <ele>1045.0</ele>
        <time>2022-08-14T05:45:24Z</time>
      </trkpt>
      <trkpt lat="42.1966140" lon="-2.6868180">
        <ele>1045.3</ele>
        <time>2022-08-14T05:45:26Z</time>
      </trkpt>
      <trkpt lat="42.1965760" lon="-2.6868830">
        <ele>1045.7</ele>
        <time>2022-08-14T05:45:28Z</time>
      </trkpt>
      <trkpt lat="42.1965150" lon="-2.6869820">
        <ele>1046.4</ele>
        <time>2022-08-14T05:45:31Z</time>
      </trkpt>
      <trkpt lat="42.1964970" lon="-2.6870140">
        <ele>1046.7</ele>
        <time>2022-08-14T05:45:32Z</time>
      </trkpt>
      <trkpt lat="42.1964080" lon="-2.6871400">
        <ele>1047.6</ele>
        <time>2022-08-14T05:45:36Z</time>
      </trkpt>
      <trkpt lat="42.1963920" lon="-2.6871660">
        <ele>1047.8</ele>
        <time>2022-08-14T05:45:37Z</time>
      </trkpt>
      <trkpt lat="42.1962290" lon="-2.6874540">
        <ele>1049.5</ele>
        <time>2022-08-14T05:45:44Z</time>
      </trkpt>
      <trkpt lat="42.1961400" lon="-2.6876190">
        <ele>1050.2</ele>
        <time>2022-08-14T05:45:49Z</time>
      </trkpt>
      <trkpt lat="42.1960990" lon="-2.6876960">
        <ele>1050.5</ele>
        <time>2022-08-14T05:45:51Z</time>
      </trkpt>
      <trkpt lat="42.1960000" lon="-2.6879700">
        <ele>1051.5</ele>
        <time>2022-08-14T05:45:58Z</time>
      </trkpt>
      <trkpt lat="42.1959550" lon="-2.6881400">
        <ele>1052.0</ele>
        <time>2022-08-14T05:46:02Z</time>
      </trkpt>
      <trkpt lat="42.1959200" lon="-2.6884100">
        <ele>1052.8</ele>
        <time>2022-08-14T05:46:08Z</time>
      </trkpt>
      <trkpt lat="42.1958990" lon="-2.6885490">
        <ele>1053.3</ele>
        <time>2022-08-14T05:46:11Z</time>
      </trkpt>
      <trkpt lat="42.1958840" lon="-2.6888150">
        <ele>1054.0</ele>
        <time>2022-08-14T05:46:17Z</time>
      </trkpt>
      <trkpt lat="42.1958770" lon="-2.6889050">
        <ele>1054.3</ele>
        <time>2022-08-14T05:46:19Z</time>
      </trkpt>
      <trkpt lat="42.1958580" lon="-2.6892030">
        <ele>1055.1</ele>
        <time>2022-08-14T05:46:26Z</time>
      </trkpt>
      <trkpt lat="42.1958510" lon="-2.6892980">
        <ele>1055.3</ele>
        <time>2022-08-14T05:46:28Z</time>
      </trkpt>
      <trkpt lat="42.1958410" lon="-2.6896200">
        <ele>1055.8</ele>
        <time>2022-08-14T05:46:35Z</time>
      </trkpt>
      <trkpt lat="42.1958280" lon="-2.6899030">
        <ele>1056.0</ele>
        <time>2022-08-14T05:46:41Z</time>
      </trkpt>
      <trkpt lat="42.1958150" lon="-2.6901220">
        <ele>1056.0</ele>
        <time>2022-08-14T05:46:45Z</time>
      </trkpt>
      <trkpt lat="42.1957790" lon="-2.6904540">
        <ele>1055.9</ele>
        <time>2022-08-14T05:46:51Z</time>
      </trkpt>
      <trkpt lat="42.1957620" lon="-2.6906160">
        <ele>1055.8</ele>
        <time>2022-08-14T05:46:54Z</time>
      </trkpt>
      <trkpt lat="42.1957380" lon="-2.6908970">
        <ele>1055.7</ele>
        <time>2022-08-14T05:46:59Z</time>
      </trkpt>
      <trkpt lat="42.1957150" lon="-2.6912360">
        <ele>1055.7</ele>
        <time>2022-08-14T05:47:05Z</time>
      </trkpt>
      <trkpt lat="42.1957050" lon="-2.6916100">
        <ele>1056.0</ele>
        <time>2022-08-14T05:47:12Z</time>
      </trkpt>
      <trkpt lat="42.1956950" lon="-2.6918720">
        <ele>1056.3</ele>
        <time>2022-08-14T05:47:17Z</time>
      </trkpt>
      <trkpt lat="42.1956940" lon="-2.6919230">
        <ele>1056.4</ele>
        <time>2022-08-14T05:47:18Z</time>
      </trkpt>
      <trkpt lat="42.1956380" lon="-2.6924220">
        <ele>1057.3</ele>
        <time>2022-08-14T05:47:27Z</time>
      </trkpt>
      <trkpt lat="42.1956260" lon="-2.6927690">
        <ele>1058.1</ele>
        <time>2022-08-14T05:47:34Z</time>
      </trkpt>
      <trkpt lat="42.1956120" lon="-2.6931880">
        <ele>1059.6</ele>
        <time>2022-08-14T05:47:42Z</time>
      </trkpt>
      <trkpt lat="42.1956010" lon="-2.6933700">
        <ele>1060.4</ele>
        <time>2022-08-14T05:47:47Z</time>
      </trkpt>
      <trkpt lat="42.1955800" lon="-2.6936330">
        <ele>1061.5</ele>
        <time>2022-08-14T05:47:53Z</time>
      </trkpt>
      <trkpt lat="42.1955750" lon="-2.6937320">
        <ele>1061.9</ele>
        <time>2022-08-14T05:47:55Z</time>
      </trkpt>
      <trkpt lat="42.1955620" lon="-2.6939130">
        <ele>1062.7</ele>
        <time>2022-08-14T05:47:59Z</time>
      </trkpt>
      <trkpt lat="42.1955530" lon="-2.6941000">
        <ele>1063.4</ele>
        <time>2022-08-14T05:48:03Z</time>
      </trkpt>
      <trkpt lat="42.1955460" lon="-2.6941940">
        <ele>1063.8</ele>
        <time>2022-08-14T05:48:05Z</time>
      </trkpt>
      <trkpt lat="42.1955310" lon="-2.6945500">
        <ele>1065.3</ele>
        <time>2022-08-14T05:48:13Z</time>
      </trkpt>
      <trkpt lat="42.1955090" lon="-2.6948630">
        <ele>1066.5</ele>
        <time>2022-08-14T05:48:20Z</time>
      </trkpt>
      <trkpt lat="42.1955000" lon="-2.6949510">
        <ele>1066.9</ele>
        <time>2022-08-14T05:48:22Z</time>
      </trkpt>
      <trkpt lat="42.1954960" lon="-2.6950390">
        <ele>1067.2</ele>
        <time>2022-08-14T05:48:24Z</time>
      </trkpt>
      <trkpt lat="42.1954660" lon="-2.6953090">
        <ele>1068.3</ele>
        <time>2022-08-14T05:48:30Z</time>
      </trkpt>
      <trkpt lat="42.1953830" lon="-2.6956010">
        <ele>1069.3</ele>
        <time>2022-08-14T05:48:37Z</time>
      </trkpt>
      <trkpt lat="42.1952130" lon="-2.6957240">
        <ele>1069.5</ele>
        <time>2022-08-14T05:48:42Z</time>
      </trkpt>
      <trkpt lat="42.1950570" lon="-2.6957310">
        <ele>1069.7</ele>
        <time>2022-08-14T05:48:46Z</time>
      </trkpt>
      <trkpt lat="42.1949770" lon="-2.6957070">
        <ele>1069.8</ele>
        <time>2022-08-14T05:48:48Z</time>
      </trkpt>
      <trkpt lat="42.1949030" lon="-2.6956820">
        <ele>1069.8</ele>
        <time>2022-08-14T05:48:50Z</time>
      </trkpt>
      <trkpt lat="42.1948320" lon="-2.6956600">
        <ele>1069.9</ele>
        <time>2022-08-14T05:48:52Z</time>
      </trkpt>
      <trkpt lat="42.1947970" lon="-2.6956450">
        <ele>1069.9</ele>
        <time>2022-08-14T05:48:53Z</time>
      </trkpt>
      <trkpt lat="42.1945100" lon="-2.6955910">
        <ele>1070.1</ele>
        <time>2022-08-14T05:48:58Z</time>
      </trkpt>
      <trkpt lat="42.1945100" lon="-2.6955910">
        <ele>1070.1</ele>
        <time>2022-08-14T05:48:59Z</time>
      </trkpt>
      <trkpt lat="42.1944190" lon="-2.6956050">
        <ele>1070.1</ele>
        <time>2022-08-14T05:49:01Z</time>
      </trkpt>
      <trkpt lat="42.1942470" lon="-2.6956570">
        <ele>1070.2</ele>
        <time>2022-08-14T05:49:05Z</time>
      </trkpt>
      <trkpt lat="42.1938960" lon="-2.6957680">
        <ele>1070.4</ele>
        <time>2022-08-14T05:49:13Z</time>
      </trkpt>
      <trkpt lat="42.1938050" lon="-2.6957990">
        <ele>1070.4</ele>
        <time>2022-08-14T05:49:15Z</time>
      </trkpt>
      <trkpt lat="42.1934910" lon="-2.6959140">
        <ele>1069.7</ele>
        <time>2022-08-14T05:49:22Z</time>
      </trkpt>
      <trkpt lat="42.1933350" lon="-2.6959740">
        <ele>1068.9</ele>
        <time>2022-08-14T05:49:25Z</time>
      </trkpt>
      <trkpt lat="42.1932230" lon="-2.6960200">
        <ele>1068.2</ele>
        <time>2022-08-14T05:49:27Z</time>
      </trkpt>
      <trkpt lat="42.1931120" lon="-2.6961000">
        <ele>1067.4</ele>
        <time>2022-08-14T05:49:29Z</time>
      </trkpt>
      <trkpt lat="42.1930530" lon="-2.6961580">
        <ele>1067.0</ele>
        <time>2022-08-14T05:49:30Z</time>
      </trkpt>
      <trkpt lat="42.1929390" lon="-2.6962940">
        <ele>1066.0</ele>
        <time>2022-08-14T05:49:32Z</time>
      </trkpt>
      <trkpt lat="42.1928310" lon="-2.6964300">
        <ele>1065.1</ele>
        <time>2022-08-14T05:49:34Z</time>
      </trkpt>
      <trkpt lat="42.1927480" lon="-2.6965090">
        <ele>1064.5</ele>
        <time>2022-08-14T05:49:35Z</time>
      </trkpt>
      <trkpt lat="42.1926740" lon="-2.6965520">
        <ele>1064.0</ele>
        <time>2022-08-14T05:49:36Z</time>
      </trkpt>
      <trkpt lat="42.1925920" lon="-2.6965620">
        <ele>1063.5</ele>
        <time>2022-08-14T05:49:37Z</time>
      </trkpt>
      <trkpt lat="42.1925020" lon="-2.6965290">
        <ele>1063.0</ele>
        <time>2022-08-14T05:49:38Z</time>
      </trkpt>
      <trkpt lat="42.1923600" lon="-2.6963870">
        <ele>1062.0</ele>
        <time>2022-08-14T05:49:40Z</time>
      </trkpt>
      <trkpt lat="42.1922980" lon="-2.6962840">
        <ele>1061.4</ele>
        <time>2022-08-14T05:49:41Z</time>
      </trkpt>
      <trkpt lat="42.1920770" lon="-2.6958980">
        <ele>1059.4</ele>
        <time>2022-08-14T05:49:44Z</time>
      </trkpt>
      <trkpt lat="42.1919190" lon="-2.6956480">
        <ele>1058.2</ele>
        <time>2022-08-14T05:49:47Z</time>
      </trkpt>
      <trkpt lat="42.1917740" lon="-2.6954490">
        <ele>1057.2</ele>
        <time>2022-08-14T05:49:49Z</time>
      </trkpt>
      <trkpt lat="42.1916200" lon="-2.6952620">
        <ele>1056.3</ele>
        <time>2022-08-14T05:49:51Z</time>
      </trkpt>
      <trkpt lat="42.1913790" lon="-2.6949960">
        <ele>1054.9</ele>
        <time>2022-08-14T05:49:53Z</time>
      </trkpt>
      <trkpt lat="42.1912980" lon="-2.6949100">
        <ele>1054.4</ele>
        <time>2022-08-14T05:49:55Z</time>
      </trkpt>
      <trkpt lat="42.1910500" lon="-2.6946470">
        <ele>1053.2</ele>
        <time>2022-08-14T05:49:58Z</time>
      </trkpt>
      <trkpt lat="42.1907220" lon="-2.6943110">
        <ele>1051.8</ele>
        <time>2022-08-14T05:50:02Z</time>
      </trkpt>
      <trkpt lat="42.1903990" lon="-2.6939860">
        <ele>1050.4</ele>
        <time>2022-08-14T05:50:05Z</time>
      </trkpt>
      <trkpt lat="42.1903200" lon="-2.6939070">
        <ele>1050.1</ele>
        <time>2022-08-14T05:50:07Z</time>
      </trkpt>
      <trkpt lat="42.1901050" lon="-2.6936890">
        <ele>1049.2</ele>
        <time>2022-08-14T05:50:10Z</time>
      </trkpt>
      <trkpt lat="42.1900130" lon="-2.6935990">
        <ele>1048.9</ele>
        <time>2022-08-14T05:50:11Z</time>
      </trkpt>
      <trkpt lat="42.1897030" lon="-2.6932920">
        <ele>1047.7</ele>
        <time>2022-08-14T05:50:15Z</time>
      </trkpt>
      <trkpt lat="42.1895480" lon="-2.6931400">
        <ele>1047.0</ele>
        <time>2022-08-14T05:50:17Z</time>
      </trkpt>
      <trkpt lat="42.1894670" lon="-2.6930680">
        <ele>1046.7</ele>
        <time>2022-08-14T05:50:18Z</time>
      </trkpt>
      <trkpt lat="42.1891270" lon="-2.6928040">
        <ele>1044.8</ele>
        <time>2022-08-14T05:50:22Z</time>
      </trkpt>
      <trkpt lat="42.1888590" lon="-2.6926180">
        <ele>1043.2</ele>
        <time>2022-08-14T05:50:25Z</time>
      </trkpt>
      <trkpt lat="42.1887660" lon="-2.6925560">
        <ele>1042.7</ele>
        <time>2022-08-14T05:50:26Z</time>
      </trkpt>
      <trkpt lat="42.1884860" lon="-2.6923680">
        <ele>1041.0</ele>
        <time>2022-08-14T05:50:29Z</time>
      </trkpt>
      <trkpt lat="42.1881930" lon="-2.6921830">
        <ele>1039.3</ele>
        <time>2022-08-14T05:50:32Z</time>
      </trkpt>
      <trkpt lat="42.1879950" lon="-2.6920540">
        <ele>1038.2</ele>
        <time>2022-08-14T05:50:34Z</time>
      </trkpt>
      <trkpt lat="42.1878100" lon="-2.6919410">
        <ele>1037.1</ele>
        <time>2022-08-14T05:50:36Z</time>
      </trkpt>
      <trkpt lat="42.1875930" lon="-2.6917950">
        <ele>1035.8</ele>
        <time>2022-08-14T05:50:38Z</time>
      </trkpt>
      <trkpt lat="42.1873970" lon="-2.6916630">
        <ele>1034.6</ele>
        <time>2022-08-14T05:50:40Z</time>
      </trkpt>
      <trkpt lat="42.1872940" lon="-2.6915970">
        <ele>1034.1</ele>
        <time>2022-08-14T05:50:41Z</time>
      </trkpt>
      <trkpt lat="42.1870880" lon="-2.6914820">
        <ele>1032.9</ele>
        <time>2022-08-14T05:50:42Z</time>
      </trkpt>
      <trkpt lat="42.1870880" lon="-2.6914820">
        <ele>1032.9</ele>
        <time>2022-08-14T05:50:43Z</time>
      </trkpt>
      <trkpt lat="42.1869810" lon="-2.6914420">
        <ele>1032.4</ele>
        <time>2022-08-14T05:50:44Z</time>
      </trkpt>
      <trkpt lat="42.1867640" lon="-2.6914350">
        <ele>1031.3</ele>
        <time>2022-08-14T05:50:46Z</time>
      </trkpt>
      <trkpt lat="42.1864860" lon="-2.6916150">
        <ele>1029.7</ele>
        <time>2022-08-14T05:50:48Z</time>
      </trkpt>
      <trkpt lat="42.1864860" lon="-2.6916150">
        <ele>1029.7</ele>
        <time>2022-08-14T05:50:49Z</time>
      </trkpt>
      <trkpt lat="42.1863220" lon="-2.6918330">
        <ele>1028.4</ele>
        <time>2022-08-14T05:50:51Z</time>
      </trkpt>
      <trkpt lat="42.1862440" lon="-2.6919870">
        <ele>1027.7</ele>
        <time>2022-08-14T05:50:52Z</time>
      </trkpt>
      <trkpt lat="42.1861220" lon="-2.6922100">
        <ele>1027.3</ele>
        <time>2022-08-14T05:50:53Z</time>
      </trkpt>
      <trkpt lat="42.1860520" lon="-2.6922820">
        <ele>1026.8</ele>
        <time>2022-08-14T05:50:55Z</time>
      </trkpt>
      <trkpt lat="42.1859010" lon="-2.6923420">
        <ele>1026.0</ele>
        <time>2022-08-14T05:50:57Z</time>
      </trkpt>
      <trkpt lat="42.1857440" lon="-2.6923060">
        <ele>1025.1</ele>
        <time>2022-08-14T05:50:58Z</time>
      </trkpt>
      <trkpt lat="42.1856130" lon="-2.6921360">
        <ele>1024.1</ele>
        <time>2022-08-14T05:51:00Z</time>
      </trkpt>
      <trkpt lat="42.1856130" lon="-2.6921360">
        <ele>1024.1</ele>
        <time>2022-08-14T05:51:01Z</time>
      </trkpt>
      <trkpt lat="42.1855900" lon="-2.6920180">
        <ele>1023.6</ele>
        <time>2022-08-14T05:51:02Z</time>
      </trkpt>
      <trkpt lat="42.1855770" lon="-2.6917650">
        <ele>1022.5</ele>
        <time>2022-08-14T05:51:03Z</time>
      </trkpt>
      <trkpt lat="42.1855690" lon="-2.6916320">
        <ele>1021.9</ele>
        <time>2022-08-14T05:51:04Z</time>
      </trkpt>
      <trkpt lat="42.1855650" lon="-2.6914920">
        <ele>1021.2</ele>
        <time>2022-08-14T05:51:05Z</time>
      </trkpt>
      <trkpt lat="42.1855710" lon="-2.6912010">
        <ele>1020.0</ele>
        <time>2022-08-14T05:51:07Z</time>
      </trkpt>
      <trkpt lat="42.1855710" lon="-2.6912010">
        <ele>1020.0</ele>
        <time>2022-08-14T05:51:08Z</time>
      </trkpt>
      <trkpt lat="42.1855590" lon="-2.6907430">
        <ele>1018.3</ele>
        <time>2022-08-14T05:51:10Z</time>
      </trkpt>
      <trkpt lat="42.1855590" lon="-2.6907430">
        <ele>1018.3</ele>
        <time>2022-08-14T05:51:11Z</time>
      </trkpt>
      <trkpt lat="42.1855350" lon="-2.6901180">
        <ele>1016.3</ele>
        <time>2022-08-14T05:51:14Z</time>
      </trkpt>
      <trkpt lat="42.1855150" lon="-2.6899660">
        <ele>1015.8</ele>
        <time>2022-08-14T05:51:15Z</time>
      </trkpt>
      <trkpt lat="42.1855150" lon="-2.6899660">
        <ele>1015.8</ele>
        <time>2022-08-14T05:51:16Z</time>
      </trkpt>
      <trkpt lat="42.1854880" lon="-2.6898220">
        <ele>1015.5</ele>
        <time>2022-08-14T05:51:17Z</time>
      </trkpt>
      <trkpt lat="42.1853870" lon="-2.6895520">
        <ele>1014.8</ele>
        <time>2022-08-14T05:51:19Z</time>
      </trkpt>
      <trkpt lat="42.1852990" lon="-2.6894350">
        <ele>1014.4</ele>
        <time>2022-08-14T05:51:20Z</time>
      </trkpt>
      <trkpt lat="42.1851380" lon="-2.6892130">
        <ele>1013.7</ele>
        <time>2022-08-14T05:51:21Z</time>
      </trkpt>
      <trkpt lat="42.1850720" lon="-2.6890970">
        <ele>1013.4</ele>
        <time>2022-08-14T05:51:22Z</time>
      </trkpt>
      <trkpt lat="42.1850720" lon="-2.6890970">
        <ele>1013.4</ele>
        <time>2022-08-14T05:51:23Z</time>
      </trkpt>
      <trkpt lat="42.1848540" lon="-2.6887340">
        <ele>1012.5</ele>
        <time>2022-08-14T05:51:25Z</time>
      </trkpt>
      <trkpt lat="42.1847260" lon="-2.6884830">
        <ele>1011.9</ele>
        <time>2022-08-14T05:51:27Z</time>
      </trkpt>
      <trkpt lat="42.1846500" lon="-2.6883790">
        <ele>1011.6</ele>
        <time>2022-08-14T05:51:29Z</time>
      </trkpt>
      <trkpt lat="42.1844870" lon="-2.6880610">
        <ele>1010.7</ele>
        <time>2022-08-14T05:51:31Z</time>
      </trkpt>
      <trkpt lat="42.1844870" lon="-2.6880610">
        <ele>1010.7</ele>
        <time>2022-08-14T05:51:32Z</time>
      </trkpt>
      <trkpt lat="42.1843790" lon="-2.6878400">
        <ele>1010.1</ele>
        <time>2022-08-14T05:51:33Z</time>
      </trkpt>
      <trkpt lat="42.1841900" lon="-2.6875450">
        <ele>1009.4</ele>
        <time>2022-08-14T05:51:36Z</time>
      </trkpt>
      <trkpt lat="42.1840410" lon="-2.6873770">
        <ele>1008.9</ele>
        <time>2022-08-14T05:51:38Z</time>
      </trkpt>
      <trkpt lat="42.1839150" lon="-2.6872450">
        <ele>1008.5</ele>
        <time>2022-08-14T05:51:40Z</time>
      </trkpt>
      <trkpt lat="42.1837200" lon="-2.6870740">
        <ele>1007.9</ele>
        <time>2022-08-14T05:51:42Z</time>
      </trkpt>
      <trkpt lat="42.1834670" lon="-2.6869110">
        <ele>1007.3</ele>
        <time>2022-08-14T05:51:45Z</time>
      </trkpt>
      <trkpt lat="42.1833940" lon="-2.6868670">
        <ele>1007.2</ele>
        <time>2022-08-14T05:51:47Z</time>
      </trkpt>
      <trkpt lat="42.1831700" lon="-2.6867370">
        <ele>1006.9</ele>
        <time>2022-08-14T05:51:49Z</time>
      </trkpt>
      <trkpt lat="42.1830920" lon="-2.6866970">
        <ele>1006.8</ele>
        <time>2022-08-14T05:51:50Z</time>
      </trkpt>
      <trkpt lat="42.1830060" lon="-2.6866640">
        <ele>1006.8</ele>
        <time>2022-08-14T05:51:51Z</time>
      </trkpt>
      <trkpt lat="42.1828410" lon="-2.6866650">
        <ele>1006.6</ele>
        <time>2022-08-14T05:51:53Z</time>
      </trkpt>
      <trkpt lat="42.1828410" lon="-2.6866650">
        <ele>1006.6</ele>
        <time>2022-08-14T05:51:54Z</time>
      </trkpt>
      <trkpt lat="42.1826940" lon="-2.6867340">
        <ele>1006.5</ele>
        <time>2022-08-14T05:51:55Z</time>
      </trkpt>
      <trkpt lat="42.1825670" lon="-2.6868590">
        <ele>1006.4</ele>
        <time>2022-08-14T05:51:57Z</time>
      </trkpt>
      <trkpt lat="42.1823200" lon="-2.6872730">
        <ele>1006.4</ele>
        <time>2022-08-14T05:52:02Z</time>
      </trkpt>
      <trkpt lat="42.1822740" lon="-2.6873530">
        <ele>1006.4</ele>
        <time>2022-08-14T05:52:03Z</time>
      </trkpt>
      <trkpt lat="42.1820610" lon="-2.6876230">
        <ele>1006.8</ele>
        <time>2022-08-14T05:52:07Z</time>
      </trkpt>
      <trkpt lat="42.1818300" lon="-2.6878180">
        <ele>1007.2</ele>
        <time>2022-08-14T05:52:11Z</time>
      </trkpt>
      <trkpt lat="42.1817720" lon="-2.6878460">
        <ele>1007.3</ele>
        <time>2022-08-14T05:52:12Z</time>
      </trkpt>
      <trkpt lat="42.1817120" lon="-2.6878770">
        <ele>1007.3</ele>
        <time>2022-08-14T05:52:13Z</time>
      </trkpt>
      <trkpt lat="42.1814960" lon="-2.6880180">
        <ele>1007.6</ele>
        <time>2022-08-14T05:52:17Z</time>
      </trkpt>
      <trkpt lat="42.1812150" lon="-2.6882540">
        <ele>1007.9</ele>
        <time>2022-08-14T05:52:23Z</time>
      </trkpt>
      <trkpt lat="42.1811650" lon="-2.6883080">
        <ele>1007.9</ele>
        <time>2022-08-14T05:52:24Z</time>
      </trkpt>
      <trkpt lat="42.1810760" lon="-2.6884160">
        <ele>1007.9</ele>
        <time>2022-08-14T05:52:27Z</time>
      </trkpt>
      <trkpt lat="42.1809830" lon="-2.6885360">
        <ele>1007.9</ele>
        <time>2022-08-14T05:52:28Z</time>
      </trkpt>
      <trkpt lat="42.1807560" lon="-2.6889290">
        <ele>1007.8</ele>
        <time>2022-08-14T05:52:34Z</time>
      </trkpt>
      <trkpt lat="42.1804470" lon="-2.6894970">
        <ele>1007.7</ele>
        <time>2022-08-14T05:52:43Z</time>
      </trkpt>
      <trkpt lat="42.1802300" lon="-2.6899390">
        <ele>1007.3</ele>
        <time>2022-08-14T05:52:48Z</time>
      </trkpt>
      <trkpt lat="42.1801700" lon="-2.6900870">
        <ele>1007.1</ele>
        <time>2022-08-14T05:52:50Z</time>
      </trkpt>
      <trkpt lat="42.1799300" lon="-2.6907730">
        <ele>1005.2</ele>
        <time>2022-08-14T05:52:58Z</time>
      </trkpt>
      <trkpt lat="42.1799040" lon="-2.6908720">
        <ele>1004.9</ele>
        <time>2022-08-14T05:52:59Z</time>
      </trkpt>
      <trkpt lat="42.1798650" lon="-2.6910730">
        <ele>1004.3</ele>
        <time>2022-08-14T05:53:01Z</time>
      </trkpt>
      <trkpt lat="42.1798500" lon="-2.6911760">
        <ele>1004.0</ele>
        <time>2022-08-14T05:53:03Z</time>
      </trkpt>
      <trkpt lat="42.1797590" lon="-2.6917130">
        <ele>1002.4</ele>
        <time>2022-08-14T05:53:07Z</time>
      </trkpt>
      <trkpt lat="42.1797040" lon="-2.6920490">
        <ele>1001.5</ele>
        <time>2022-08-14T05:53:10Z</time>
      </trkpt>
      <trkpt lat="42.1796260" lon="-2.6924950">
        <ele>1000.7</ele>
        <time>2022-08-14T05:53:14Z</time>
      </trkpt>
      <trkpt lat="42.1795460" lon="-2.6929260">
        <ele>1000.1</ele>
        <time>2022-08-14T05:53:18Z</time>
      </trkpt>
      <trkpt lat="42.1795270" lon="-2.6930280">
        <ele>1000.1</ele>
        <time>2022-08-14T05:53:19Z</time>
      </trkpt>
      <trkpt lat="42.1795020" lon="-2.6931280">
        <ele>1000.0</ele>
        <time>2022-08-14T05:53:20Z</time>
      </trkpt>
      <trkpt lat="42.1794290" lon="-2.6932990">
        <ele>1000.0</ele>
        <time>2022-08-14T05:53:22Z</time>
      </trkpt>
      <trkpt lat="42.1793210" lon="-2.6934130">
        <ele>1000.0</ele>
        <time>2022-08-14T05:53:24Z</time>
      </trkpt>
      <trkpt lat="42.1792640" lon="-2.6934430">
        <ele>1000.0</ele>
        <time>2022-08-14T05:53:25Z</time>
      </trkpt>
      <trkpt lat="42.1791990" lon="-2.6934570">
        <ele>1000.0</ele>
        <time>2022-08-14T05:53:26Z</time>
      </trkpt>
      <trkpt lat="42.1790670" lon="-2.6934570">
        <ele>1000.0</ele>
        <time>2022-08-14T05:53:28Z</time>
      </trkpt>
      <trkpt lat="42.1789250" lon="-2.6934420">
        <ele>1000.0</ele>
        <time>2022-08-14T05:53:30Z</time>
      </trkpt>
      <trkpt lat="42.1788000" lon="-2.6933650">
        <ele>999.9</ele>
        <time>2022-08-14T05:53:32Z</time>
      </trkpt>
      <trkpt lat="42.1787400" lon="-2.6933120">
        <ele>999.9</ele>
        <time>2022-08-14T05:53:33Z</time>
      </trkpt>
      <trkpt lat="42.1786610" lon="-2.6931580">
        <ele>999.8</ele>
        <time>2022-08-14T05:53:35Z</time>
      </trkpt>
      <trkpt lat="42.1786300" lon="-2.6929770">
        <ele>999.7</ele>
        <time>2022-08-14T05:53:37Z</time>
      </trkpt>
      <trkpt lat="42.1785990" lon="-2.6927200">
        <ele>999.7</ele>
        <time>2022-08-14T05:53:40Z</time>
      </trkpt>
      <trkpt lat="42.1785400" lon="-2.6924660">
        <ele>999.8</ele>
        <time>2022-08-14T05:53:43Z</time>
      </trkpt>
      <trkpt lat="42.1785260" lon="-2.6923810">
        <ele>999.8</ele>
        <time>2022-08-14T05:53:44Z</time>
      </trkpt>
      <trkpt lat="42.1784590" lon="-2.6919130">
        <ele>1000.2</ele>
        <time>2022-08-14T05:53:50Z</time>
      </trkpt>
      <trkpt lat="42.1784430" lon="-2.6918340">
        <ele>1000.3</ele>
        <time>2022-08-14T05:53:51Z</time>
      </trkpt>
      <trkpt lat="42.1784030" lon="-2.6916000">
        <ele>1000.5</ele>
        <time>2022-08-14T05:53:54Z</time>
      </trkpt>
      <trkpt lat="42.1783600" lon="-2.6913800">
        <ele>1000.8</ele>
        <time>2022-08-14T05:53:57Z</time>
      </trkpt>
      <trkpt lat="42.1782970" lon="-2.6911190">
        <ele>1001.3</ele>
        <time>2022-08-14T05:54:01Z</time>
      </trkpt>
      <trkpt lat="42.1782560" lon="-2.6909400">
        <ele>1001.7</ele>
        <time>2022-08-14T05:54:04Z</time>
      </trkpt>
      <trkpt lat="42.1782470" lon="-2.6908840">
        <ele>1001.8</ele>
        <time>2022-08-14T05:54:05Z</time>
      </trkpt>
      <trkpt lat="42.1782280" lon="-2.6907670">
        <ele>1002.1</ele>
        <time>2022-08-14T05:54:07Z</time>
      </trkpt>
      <trkpt lat="42.1782160" lon="-2.6905410">
        <ele>1002.4</ele>
        <time>2022-08-14T05:54:11Z</time>
      </trkpt>
      <trkpt lat="42.1782230" lon="-2.6904320">
        <ele>1002.5</ele>
        <time>2022-08-14T05:54:13Z</time>
      </trkpt>
      <trkpt lat="42.1782160" lon="-2.6902690">
        <ele>1002.7</ele>
        <time>2022-08-14T05:54:16Z</time>
      </trkpt>
      <trkpt lat="42.1782230" lon="-2.6900260">
        <ele>1002.9</ele>
        <time>2022-08-14T05:54:21Z</time>
      </trkpt>
      <trkpt lat="42.1782320" lon="-2.6899320">
        <ele>1002.9</ele>
        <time>2022-08-14T05:54:23Z</time>
      </trkpt>
      <trkpt lat="42.1782330" lon="-2.6898920">
        <ele>1003.0</ele>
        <time>2022-08-14T05:54:24Z</time>
      </trkpt>
      <trkpt lat="42.1782300" lon="-2.6898560">
        <ele>1003.0</ele>
        <time>2022-08-14T05:54:25Z</time>
      </trkpt>
      <trkpt lat="42.1782200" lon="-2.6898310">
        <ele>1003.0</ele>
        <time>2022-08-14T05:54:27Z</time>
      </trkpt>
      <trkpt lat="42.1782180" lon="-2.6897960">
        <ele>1003.0</ele>
        <time>2022-08-14T05:56:16Z</time>
      </trkpt>
      <trkpt lat="42.1782320" lon="-2.6896690">
        <ele>1003.0</ele>
        <time>2022-08-14T05:56:19Z</time>
      </trkpt>
      <trkpt lat="42.1782480" lon="-2.6896110">
        <ele>1002.9</ele>
        <time>2022-08-14T05:56:20Z</time>
      </trkpt>
      <trkpt lat="42.1782630" lon="-2.6895610">
        <ele>1002.8</ele>
        <time>2022-08-14T05:56:21Z</time>
      </trkpt>
      <trkpt lat="42.1782900" lon="-2.6894970">
        <ele>1002.6</ele>
        <time>2022-08-14T05:56:22Z</time>
      </trkpt>
      <trkpt lat="42.1783210" lon="-2.6894290">
        <ele>1002.5</ele>
        <time>2022-08-14T05:56:23Z</time>
      </trkpt>
      <trkpt lat="42.1783510" lon="-2.6893460">
        <ele>1002.3</ele>
        <time>2022-08-14T05:56:24Z</time>
      </trkpt>
      <trkpt lat="42.1783680" lon="-2.6892910">
        <ele>1002.2</ele>
        <time>2022-08-14T05:56:26Z</time>
      </trkpt>
      <trkpt lat="42.1784350" lon="-2.6890650">
        <ele>1001.8</ele>
        <time>2022-08-14T05:56:28Z</time>
      </trkpt>
      <trkpt lat="42.1784950" lon="-2.6887360">
        <ele>1001.4</ele>
        <time>2022-08-14T05:56:32Z</time>
      </trkpt>
      <trkpt lat="42.1785010" lon="-2.6885770">
        <ele>1001.2</ele>
        <time>2022-08-14T05:56:34Z</time>
      </trkpt>
      <trkpt lat="42.1785030" lon="-2.6885090">
        <ele>1001.1</ele>
        <time>2022-08-14T05:56:35Z</time>
      </trkpt>
      <trkpt lat="42.1785170" lon="-2.6883280">
        <ele>1001.0</ele>
        <time>2022-08-14T05:56:37Z</time>
      </trkpt>
      <trkpt lat="42.1785230" lon="-2.6881640">
        <ele>1000.9</ele>
        <time>2022-08-14T05:56:39Z</time>
      </trkpt>
      <trkpt lat="42.1785280" lon="-2.6879260">
        <ele>1000.7</ele>
        <time>2022-08-14T05:56:42Z</time>
      </trkpt>
      <trkpt lat="42.1785540" lon="-2.6876180">
        <ele>1000.6</ele>
        <time>2022-08-14T05:56:46Z</time>
      </trkpt>
      <trkpt lat="42.1785680" lon="-2.6873990">
        <ele>1000.4</ele>
        <time>2022-08-14T05:56:49Z</time>
      </trkpt>
      <trkpt lat="42.1785820" lon="-2.6870380">
        <ele>1000.2</ele>
        <time>2022-08-14T05:56:54Z</time>
      </trkpt>
      <trkpt lat="42.1785900" lon="-2.6867450">
        <ele>1000.2</ele>
        <time>2022-08-14T05:56:58Z</time>
      </trkpt>
      <trkpt lat="42.1785980" lon="-2.6865930">
        <ele>1000.2</ele>
        <time>2022-08-14T05:57:00Z</time>
      </trkpt>
      <trkpt lat="42.1785870" lon="-2.6864400">
        <ele>1000.2</ele>
        <time>2022-08-14T05:57:02Z</time>
      </trkpt>
      <trkpt lat="42.1785730" lon="-2.6863650">
        <ele>1000.2</ele>
        <time>2022-08-14T05:57:03Z</time>
      </trkpt>
      <trkpt lat="42.1785200" lon="-2.6862270">
        <ele>1000.2</ele>
        <time>2022-08-14T05:57:05Z</time>
      </trkpt>
      <trkpt lat="42.1784900" lon="-2.6861740">
        <ele>1000.2</ele>
        <time>2022-08-14T05:57:06Z</time>
      </trkpt>
      <trkpt lat="42.1784460" lon="-2.6860960">
        <ele>1000.1</ele>
        <time>2022-08-14T05:57:07Z</time>
      </trkpt>
      <trkpt lat="42.1783580" lon="-2.6859810">
        <ele>1000.1</ele>
        <time>2022-08-14T05:57:09Z</time>
      </trkpt>
      <trkpt lat="42.1782590" lon="-2.6858850">
        <ele>1000.0</ele>
        <time>2022-08-14T05:57:11Z</time>
      </trkpt>
      <trkpt lat="42.1780180" lon="-2.6856600">
        <ele>1000.0</ele>
        <time>2022-08-14T05:57:16Z</time>
      </trkpt>
      <trkpt lat="42.1779730" lon="-2.6856100">
        <ele>1000.0</ele>
        <time>2022-08-14T05:57:17Z</time>
      </trkpt>
      <trkpt lat="42.1778940" lon="-2.6854910">
        <ele>1000.0</ele>
        <time>2022-08-14T05:57:19Z</time>
      </trkpt>
      <trkpt lat="42.1778590" lon="-2.6854240">
        <ele>1000.0</ele>
        <time>2022-08-14T05:57:20Z</time>
      </trkpt>
      <trkpt lat="42.1777990" lon="-2.6852070">
        <ele>1000.0</ele>
        <time>2022-08-14T05:57:23Z</time>
      </trkpt>
      <trkpt lat="42.1776650" lon="-2.6846670">
        <ele>1000.0</ele>
        <time>2022-08-14T05:57:30Z</time>
      </trkpt>
      <trkpt lat="42.1775440" lon="-2.6842420">
        <ele>1000.2</ele>
        <time>2022-08-14T05:57:36Z</time>
      </trkpt>
      <trkpt lat="42.1774540" lon="-2.6840180">
        <ele>1000.3</ele>
        <time>2022-08-14T05:57:39Z</time>
      </trkpt>
      <trkpt lat="42.1773160" lon="-2.6837610">
        <ele>1000.3</ele>
        <time>2022-08-14T05:57:43Z</time>
      </trkpt>
      <trkpt lat="42.1770610" lon="-2.6834580">
        <ele>1000.5</ele>
        <time>2022-08-14T05:57:49Z</time>
      </trkpt>
      <trkpt lat="42.1766990" lon="-2.6831680">
        <ele>1000.6</ele>
        <time>2022-08-14T05:57:56Z</time>
      </trkpt>
      <trkpt lat="42.1764520" lon="-2.6829560">
        <ele>1000.6</ele>
        <time>2022-08-14T05:58:01Z</time>
      </trkpt>
      <trkpt lat="42.1763090" lon="-2.6828140">
        <ele>1000.7</ele>
        <time>2022-08-14T05:58:04Z</time>
      </trkpt>
      <trkpt lat="42.1759960" lon="-2.6823950">
        <ele>1000.9</ele>
        <time>2022-08-14T05:58:12Z</time>
      </trkpt>
      <trkpt lat="42.1755970" lon="-2.6817550">
        <ele>1001.0</ele>
        <time>2022-08-14T05:58:22Z</time>
      </trkpt>
      <trkpt lat="42.1752040" lon="-2.6811330">
        <ele>1001.1</ele>
        <time>2022-08-14T05:58:32Z</time>
      </trkpt>
      <trkpt lat="42.1750470" lon="-2.6807950">
        <ele>1001.2</ele>
        <time>2022-08-14T05:58:37Z</time>
      </trkpt>
      <trkpt lat="42.1750040" lon="-2.6806450">
        <ele>1001.2</ele>
        <time>2022-08-14T05:58:39Z</time>
      </trkpt>
      <trkpt lat="42.1749120" lon="-2.6800810">
        <ele>1001.4</ele>
        <time>2022-08-14T05:58:46Z</time>
      </trkpt>
      <trkpt lat="42.1748670" lon="-2.6794590">
        <ele>1001.6</ele>
        <time>2022-08-14T05:58:54Z</time>
      </trkpt>
      <trkpt lat="42.1748570" lon="-2.6793800">
        <ele>1001.6</ele>
        <time>2022-08-14T05:58:55Z</time>
      </trkpt>
      <trkpt lat="42.1748070" lon="-2.6789070">
        <ele>1001.8</ele>
        <time>2022-08-14T05:59:01Z</time>
      </trkpt>
      <trkpt lat="42.1747860" lon="-2.6784460">
        <ele>1001.9</ele>
        <time>2022-08-14T05:59:07Z</time>
      </trkpt>
      <trkpt lat="42.1747520" lon="-2.6778500">
        <ele>1001.9</ele>
        <time>2022-08-14T05:59:15Z</time>
      </trkpt>
      <trkpt lat="42.1747190" lon="-2.6777460">
        <ele>1001.9</ele>
        <time>2022-08-14T05:59:16Z</time>
      </trkpt>
      <trkpt lat="42.1746420" lon="-2.6776100">
        <ele>1001.9</ele>
        <time>2022-08-14T05:59:18Z</time>
      </trkpt>
      <trkpt lat="42.1745490" lon="-2.6775070">
        <ele>1001.9</ele>
        <time>2022-08-14T05:59:20Z</time>
      </trkpt>
      <trkpt lat="42.1744360" lon="-2.6774400">
        <ele>1001.7</ele>
        <time>2022-08-14T05:59:22Z</time>
      </trkpt>
      <trkpt lat="42.1743110" lon="-2.6774070">
        <ele>1001.6</ele>
        <time>2022-08-14T05:59:24Z</time>
      </trkpt>
      <trkpt lat="42.1741820" lon="-2.6774120">
        <ele>1001.5</ele>
        <time>2022-08-14T05:59:26Z</time>
      </trkpt>
      <trkpt lat="42.1740610" lon="-2.6774440">
        <ele>1001.5</ele>
        <time>2022-08-14T05:59:28Z</time>
      </trkpt>
      <trkpt lat="42.1739410" lon="-2.6774720">
        <ele>1001.4</ele>
        <time>2022-08-14T05:59:30Z</time>
      </trkpt>
      <trkpt lat="42.1738190" lon="-2.6774690">
        <ele>1001.4</ele>
        <time>2022-08-14T05:59:32Z</time>
      </trkpt>
      <trkpt lat="42.1737070" lon="-2.6774100">
        <ele>1001.3</ele>
        <time>2022-08-14T05:59:34Z</time>
      </trkpt>
      <trkpt lat="42.1736020" lon="-2.6773140">
        <ele>1001.3</ele>
        <time>2022-08-14T05:59:36Z</time>
      </trkpt>
      <trkpt lat="42.1735600" lon="-2.6772570">
        <ele>1001.3</ele>
        <time>2022-08-14T05:59:37Z</time>
      </trkpt>
      <trkpt lat="42.1735110" lon="-2.6771120">
        <ele>1001.2</ele>
        <time>2022-08-14T05:59:39Z</time>
      </trkpt>
      <trkpt lat="42.1734970" lon="-2.6769410">
        <ele>1001.1</ele>
        <time>2022-08-14T05:59:41Z</time>
      </trkpt>
      <trkpt lat="42.1735040" lon="-2.6766860">
        <ele>1001.0</ele>
        <time>2022-08-14T05:59:44Z</time>
      </trkpt>
      <trkpt lat="42.1735050" lon="-2.6765990">
        <ele>1001.0</ele>
        <time>2022-08-14T05:59:45Z</time>
      </trkpt>
      <trkpt lat="42.1735030" lon="-2.6762490">
        <ele>1001.0</ele>
        <time>2022-08-14T05:59:49Z</time>
      </trkpt>
      <trkpt lat="42.1734910" lon="-2.6761620">
        <ele>1001.0</ele>
        <time>2022-08-14T05:59:50Z</time>
      </trkpt>
      <trkpt lat="42.1734470" lon="-2.6757410">
        <ele>1000.9</ele>
        <time>2022-08-14T05:59:55Z</time>
      </trkpt>
      <trkpt lat="42.1732790" lon="-2.6751230">
        <ele>1000.8</ele>
        <time>2022-08-14T06:00:03Z</time>
      </trkpt>
      <trkpt lat="42.1732460" lon="-2.6750370">
        <ele>1000.8</ele>
        <time>2022-08-14T06:00:04Z</time>
      </trkpt>
      <trkpt lat="42.1731580" lon="-2.6748460">
        <ele>1000.8</ele>
        <time>2022-08-14T06:00:07Z</time>
      </trkpt>
      <trkpt lat="42.1731050" lon="-2.6747430">
        <ele>1000.9</ele>
        <time>2022-08-14T06:00:09Z</time>
      </trkpt>
      <trkpt lat="42.1730670" lon="-2.6746980">
        <ele>1000.9</ele>
        <time>2022-08-14T06:00:12Z</time>
      </trkpt>
      <trkpt lat="42.1730570" lon="-2.6746930">
        <ele>1000.9</ele>
        <time>2022-08-14T06:00:13Z</time>
      </trkpt>
      <trkpt lat="42.1730410" lon="-2.6746580">
        <ele>1001.0</ele>
        <time>2022-08-14T06:00:15Z</time>
      </trkpt>
      <trkpt lat="42.1730420" lon="-2.6746290">
        <ele>1001.0</ele>
        <time>2022-08-14T06:00:16Z</time>
      </trkpt>
      <trkpt lat="42.1730520" lon="-2.6746130">
        <ele>1001.0</ele>
        <time>2022-08-14T06:00:17Z</time>
      </trkpt>
      <trkpt lat="42.1730930" lon="-2.6746410">
        <ele>1001.0</ele>
        <time>2022-08-14T06:00:20Z</time>
      </trkpt>
      <trkpt lat="42.1731160" lon="-2.6746940">
        <ele>1001.0</ele>
        <time>2022-08-14T06:00:22Z</time>
      </trkpt>
      <trkpt lat="42.1731450" lon="-2.6747390">
        <ele>1001.1</ele>
        <time>2022-08-14T06:00:24Z</time>
      </trkpt>
      <trkpt lat="42.1731600" lon="-2.6747480">
        <ele>1001.1</ele>
        <time>2022-08-14T06:00:25Z</time>
      </trkpt>
      <trkpt lat="42.1731740" lon="-2.6747420">
        <ele>1001.1</ele>
        <time>2022-08-14T06:00:26Z</time>
      </trkpt>
      <trkpt lat="42.1731840" lon="-2.6747280">
        <ele>1001.1</ele>
        <time>2022-08-14T06:00:27Z</time>
      </trkpt>
      <trkpt lat="42.1731820" lon="-2.6746700">
        <ele>1001.1</ele>
        <time>2022-08-14T06:00:29Z</time>
      </trkpt>
      <trkpt lat="42.1731690" lon="-2.6746360">
        <ele>1001.1</ele>
        <time>2022-08-14T06:00:30Z</time>
      </trkpt>
      <trkpt lat="42.1731460" lon="-2.6745810">
        <ele>1001.2</ele>
        <time>2022-08-14T06:00:31Z</time>
      </trkpt>
      <trkpt lat="42.1731210" lon="-2.6744680">
        <ele>1001.1</ele>
        <time>2022-08-14T06:00:33Z</time>
      </trkpt>
      <trkpt lat="42.1731160" lon="-2.6744040">
        <ele>1001.1</ele>
        <time>2022-08-14T06:00:34Z</time>
      </trkpt>
      <trkpt lat="42.1731160" lon="-2.6742310">
        <ele>1001.0</ele>
        <time>2022-08-14T06:00:37Z</time>
      </trkpt>
      <trkpt lat="42.1731180" lon="-2.6741570">
        <ele>1000.9</ele>
        <time>2022-08-14T06:00:39Z</time>
      </trkpt>
      <trkpt lat="42.1731390" lon="-2.6740880">
        <ele>1000.9</ele>
        <time>2022-08-14T06:00:43Z</time>
      </trkpt>
      <trkpt lat="42.1731380" lon="-2.6740810">
        <ele>1000.9</ele>
        <time>2022-08-14T06:00:44Z</time>
      </trkpt>
      <trkpt lat="42.1731720" lon="-2.6740360">
        <ele>1000.8</ele>
        <time>2022-08-14T06:00:56Z</time>
      </trkpt>
      <trkpt lat="42.1731770" lon="-2.6740260">
        <ele>1000.8</ele>
        <time>2022-08-14T06:00:57Z</time>
      </trkpt>
      <trkpt lat="42.1732030" lon="-2.6739830">
        <ele>1000.8</ele>
        <time>2022-08-14T06:01:00Z</time>
      </trkpt>
      <trkpt lat="42.1732400" lon="-2.6739190">
        <ele>1000.7</ele>
        <time>2022-08-14T06:01:05Z</time>
      </trkpt>
      <trkpt lat="42.1733060" lon="-2.6737810">
        <ele>1000.6</ele>
        <time>2022-08-14T06:01:14Z</time>
      </trkpt>
      <trkpt lat="42.1733990" lon="-2.6736150">
        <ele>1000.4</ele>
        <time>2022-08-14T06:01:25Z</time>
      </trkpt>
      <trkpt lat="42.1734780" lon="-2.6734720">
        <ele>1000.3</ele>
        <time>2022-08-14T06:01:37Z</time>
      </trkpt>
      <trkpt lat="42.1734770" lon="-2.6734660">
        <ele>1000.3</ele>
        <time>2022-08-14T06:03:09Z</time>
      </trkpt>
      <trkpt lat="42.1734760" lon="-2.6734480">
        <ele>1000.3</ele>
        <time>2022-08-14T06:03:10Z</time>
      </trkpt>
      <trkpt lat="42.1734750" lon="-2.6734370">
        <ele>1000.3</ele>
        <time>2022-08-14T06:03:12Z</time>
      </trkpt>
      <trkpt lat="42.1734720" lon="-2.6734040">
        <ele>1000.3</ele>
        <time>2022-08-14T06:06:55Z</time>
      </trkpt>
      <trkpt lat="42.1734790" lon="-2.6734150">
        <ele>1000.3</ele>
        <time>2022-08-14T06:06:58Z</time>
      </trkpt>
      <trkpt lat="42.1734760" lon="-2.6734480">
        <ele>1000.3</ele>
        <time>2022-08-14T06:08:23Z</time>
      </trkpt>
      <trkpt lat="42.1734660" lon="-2.6734690">
        <ele>1000.3</ele>
        <time>2022-08-14T06:08:24Z</time>
      </trkpt>
      <trkpt lat="42.1734410" lon="-2.6735170">
        <ele>1000.2</ele>
        <time>2022-08-14T06:08:26Z</time>
      </trkpt>
      <trkpt lat="42.1734160" lon="-2.6735620">
        <ele>1000.2</ele>
        <time>2022-08-14T06:08:28Z</time>
      </trkpt>
      <trkpt lat="42.1733910" lon="-2.6736050">
        <ele>1000.2</ele>
        <time>2022-08-14T06:08:30Z</time>
      </trkpt>
      <trkpt lat="42.1733680" lon="-2.6736510">
        <ele>1000.1</ele>
        <time>2022-08-14T06:08:32Z</time>
      </trkpt>
      <trkpt lat="42.1733480" lon="-2.6736920">
        <ele>1000.1</ele>
        <time>2022-08-14T06:08:34Z</time>
      </trkpt>
      <trkpt lat="42.1733390" lon="-2.6737130">
        <ele>1000.1</ele>
        <time>2022-08-14T06:08:35Z</time>
      </trkpt>
      <trkpt lat="42.1733220" lon="-2.6737490">
        <ele>1000.1</ele>
        <time>2022-08-14T06:08:37Z</time>
      </trkpt>
      <trkpt lat="42.1733120" lon="-2.6737750">
        <ele>1000.1</ele>
        <time>2022-08-14T06:08:39Z</time>
      </trkpt>
      <trkpt lat="42.1732900" lon="-2.6738290">
        <ele>1000.0</ele>
        <time>2022-08-14T06:08:52Z</time>
      </trkpt>
      <trkpt lat="42.1732800" lon="-2.6738470">
        <ele>1000.0</ele>
        <time>2022-08-14T06:08:53Z</time>
      </trkpt>
      <trkpt lat="42.1732630" lon="-2.6738790">
        <ele>1000.0</ele>
        <time>2022-08-14T06:08:55Z</time>
      </trkpt>
      <trkpt lat="42.1732490" lon="-2.6739100">
        <ele>999.9</ele>
        <time>2022-08-14T06:08:57Z</time>
      </trkpt>
      <trkpt lat="42.1732250" lon="-2.6739610">
        <ele>999.9</ele>
        <time>2022-08-14T06:09:00Z</time>
      </trkpt>
      <trkpt lat="42.1732090" lon="-2.6739990">
        <ele>999.9</ele>
        <time>2022-08-14T06:09:02Z</time>
      </trkpt>
      <trkpt lat="42.1731910" lon="-2.6740500">
        <ele>999.8</ele>
        <time>2022-08-14T06:09:05Z</time>
      </trkpt>
      <trkpt lat="42.1731830" lon="-2.6740800">
        <ele>999.8</ele>
        <time>2022-08-14T06:09:09Z</time>
      </trkpt>
      <trkpt lat="42.1731560" lon="-2.6741360">
        <ele>999.8</ele>
        <time>2022-08-14T06:09:27Z</time>
      </trkpt>
      <trkpt lat="42.1731090" lon="-2.6742110">
        <ele>999.7</ele>
        <time>2022-08-14T06:09:31Z</time>
      </trkpt>
      <trkpt lat="42.1730550" lon="-2.6742600">
        <ele>999.6</ele>
        <time>2022-08-14T06:09:34Z</time>
      </trkpt>
      <trkpt lat="42.1729930" lon="-2.6742660">
        <ele>999.6</ele>
        <time>2022-08-14T06:09:37Z</time>
      </trkpt>
      <trkpt lat="42.1728940" lon="-2.6742370">
        <ele>999.5</ele>
        <time>2022-08-14T06:09:42Z</time>
      </trkpt>
      <trkpt lat="42.1728330" lon="-2.6742060">
        <ele>999.4</ele>
        <time>2022-08-14T06:09:45Z</time>
      </trkpt>
      <trkpt lat="42.1727320" lon="-2.6741530">
        <ele>999.3</ele>
        <time>2022-08-14T06:09:48Z</time>
      </trkpt>
      <trkpt lat="42.1726620" lon="-2.6741270">
        <ele>999.2</ele>
        <time>2022-08-14T06:09:50Z</time>
      </trkpt>
      <trkpt lat="42.1725470" lon="-2.6740840">
        <ele>999.1</ele>
        <time>2022-08-14T06:09:53Z</time>
      </trkpt>
      <trkpt lat="42.1724680" lon="-2.6740670">
        <ele>999.0</ele>
        <time>2022-08-14T06:09:55Z</time>
      </trkpt>
      <trkpt lat="42.1724290" lon="-2.6740610">
        <ele>998.8</ele>
        <time>2022-08-14T06:09:56Z</time>
      </trkpt>
      <trkpt lat="42.1722220" lon="-2.6739880">
        <ele>998.3</ele>
        <time>2022-08-14T06:10:01Z</time>
      </trkpt>
      <trkpt lat="42.1721330" lon="-2.6739640">
        <ele>998.0</ele>
        <time>2022-08-14T06:10:03Z</time>
      </trkpt>
      <trkpt lat="42.1718920" lon="-2.6739720">
        <ele>997.3</ele>
        <time>2022-08-14T06:10:08Z</time>
      </trkpt>
      <trkpt lat="42.1718450" lon="-2.6739590">
        <ele>997.1</ele>
        <time>2022-08-14T06:10:09Z</time>
      </trkpt>
      <trkpt lat="42.1717930" lon="-2.6739400">
        <ele>996.9</ele>
        <time>2022-08-14T06:10:10Z</time>
      </trkpt>
      <trkpt lat="42.1715270" lon="-2.6738130">
        <ele>996.1</ele>
        <time>2022-08-14T06:10:15Z</time>
      </trkpt>
      <trkpt lat="42.1714140" lon="-2.6737510">
        <ele>995.6</ele>
        <time>2022-08-14T06:10:17Z</time>
      </trkpt>
      <trkpt lat="42.1712220" lon="-2.6736510">
        <ele>994.5</ele>
        <time>2022-08-14T06:10:20Z</time>
      </trkpt>
      <trkpt lat="42.1711540" lon="-2.6736170">
        <ele>994.0</ele>
        <time>2022-08-14T06:10:21Z</time>
      </trkpt>
      <trkpt lat="42.1710830" lon="-2.6735810">
        <ele>993.6</ele>
        <time>2022-08-14T06:10:22Z</time>
      </trkpt>
      <trkpt lat="42.1708660" lon="-2.6734540">
        <ele>992.2</ele>
        <time>2022-08-14T06:10:25Z</time>
      </trkpt>
      <trkpt lat="42.1706410" lon="-2.6732910">
        <ele>990.7</ele>
        <time>2022-08-14T06:10:28Z</time>
      </trkpt>
      <trkpt lat="42.1703440" lon="-2.6730190">
        <ele>988.4</ele>
        <time>2022-08-14T06:10:32Z</time>
      </trkpt>
      <trkpt lat="42.1702630" lon="-2.6729450">
        <ele>987.8</ele>
        <time>2022-08-14T06:10:33Z</time>
      </trkpt>
      <trkpt lat="42.1700910" lon="-2.6728060">
        <ele>986.4</ele>
        <time>2022-08-14T06:10:35Z</time>
      </trkpt>
      <trkpt lat="42.1698280" lon="-2.6726190">
        <ele>984.6</ele>
        <time>2022-08-14T06:10:38Z</time>
      </trkpt>
      <trkpt lat="42.1697400" lon="-2.6725580">
        <ele>984.1</ele>
        <time>2022-08-14T06:10:39Z</time>
      </trkpt>
      <trkpt lat="42.1696530" lon="-2.6724930">
        <ele>983.6</ele>
        <time>2022-08-14T06:10:41Z</time>
      </trkpt>
      <trkpt lat="42.1693610" lon="-2.6722260">
        <ele>982.1</ele>
        <time>2022-08-14T06:10:44Z</time>
      </trkpt>
      <trkpt lat="42.1691890" lon="-2.6720220">
        <ele>981.3</ele>
        <time>2022-08-14T06:10:46Z</time>
      </trkpt>
      <trkpt lat="42.1690490" lon="-2.6718510">
        <ele>980.8</ele>
        <time>2022-08-14T06:10:48Z</time>
      </trkpt>
      <trkpt lat="42.1689140" lon="-2.6716840">
        <ele>980.2</ele>
        <time>2022-08-14T06:10:50Z</time>
      </trkpt>
      <trkpt lat="42.1688450" lon="-2.6716040">
        <ele>980.0</ele>
        <time>2022-08-14T06:10:51Z</time>
      </trkpt>
      <trkpt lat="42.1687050" lon="-2.6714530">
        <ele>979.5</ele>
        <time>2022-08-14T06:10:53Z</time>
      </trkpt>
      <trkpt lat="42.1684400" lon="-2.6711510">
        <ele>978.7</ele>
        <time>2022-08-14T06:10:57Z</time>
      </trkpt>
      <trkpt lat="42.1683740" lon="-2.6710780">
        <ele>978.4</ele>
        <time>2022-08-14T06:10:58Z</time>
      </trkpt>
      <trkpt lat="42.1682440" lon="-2.6709440">
        <ele>978.0</ele>
        <time>2022-08-14T06:11:00Z</time>
      </trkpt>
      <trkpt lat="42.1681780" lon="-2.6708780">
        <ele>977.8</ele>
        <time>2022-08-14T06:11:01Z</time>
      </trkpt>
      <trkpt lat="42.1681110" lon="-2.6708110">
        <ele>977.5</ele>
        <time>2022-08-14T06:11:02Z</time>
      </trkpt>
      <trkpt lat="42.1680440" lon="-2.6707440">
        <ele>977.3</ele>
        <time>2022-08-14T06:11:03Z</time>
      </trkpt>
      <trkpt lat="42.1679750" lon="-2.6706740">
        <ele>977.1</ele>
        <time>2022-08-14T06:11:04Z</time>
      </trkpt>
      <trkpt lat="42.1679050" lon="-2.6706010">
        <ele>976.8</ele>
        <time>2022-08-14T06:11:05Z</time>
      </trkpt>
      <trkpt lat="42.1675160" lon="-2.6702000">
        <ele>975.2</ele>
        <time>2022-08-14T06:11:11Z</time>
      </trkpt>
      <trkpt lat="42.1674500" lon="-2.6701320">
        <ele>974.8</ele>
        <time>2022-08-14T06:11:12Z</time>
      </trkpt>
      <trkpt lat="42.1672450" lon="-2.6699220">
        <ele>973.6</ele>
        <time>2022-08-14T06:11:15Z</time>
      </trkpt>
      <trkpt lat="42.1670870" lon="-2.6698070">
        <ele>972.6</ele>
        <time>2022-08-14T06:11:17Z</time>
      </trkpt>
      <trkpt lat="42.1670020" lon="-2.6697640">
        <ele>972.1</ele>
        <time>2022-08-14T06:11:18Z</time>
      </trkpt>
      <trkpt lat="42.1669120" lon="-2.6697310">
        <ele>971.6</ele>
        <time>2022-08-14T06:11:19Z</time>
      </trkpt>
      <trkpt lat="42.1668210" lon="-2.6697040">
        <ele>971.0</ele>
        <time>2022-08-14T06:11:20Z</time>
      </trkpt>
      <trkpt lat="42.1667300" lon="-2.6696820">
        <ele>970.5</ele>
        <time>2022-08-14T06:11:21Z</time>
      </trkpt>
      <trkpt lat="42.1666410" lon="-2.6696530">
        <ele>969.9</ele>
        <time>2022-08-14T06:11:22Z</time>
      </trkpt>
      <trkpt lat="42.1665530" lon="-2.6696080">
        <ele>969.3</ele>
        <time>2022-08-14T06:11:23Z</time>
      </trkpt>
      <trkpt lat="42.1664690" lon="-2.6695510">
        <ele>968.8</ele>
        <time>2022-08-14T06:11:24Z</time>
      </trkpt>
      <trkpt lat="42.1663880" lon="-2.6694890">
        <ele>968.2</ele>
        <time>2022-08-14T06:11:25Z</time>
      </trkpt>
      <trkpt lat="42.1662370" lon="-2.6693270">
        <ele>967.1</ele>
        <time>2022-08-14T06:11:27Z</time>
      </trkpt>
      <trkpt lat="42.1661130" lon="-2.6691050">
        <ele>966.0</ele>
        <time>2022-08-14T06:11:29Z</time>
      </trkpt>
      <trkpt lat="42.1660640" lon="-2.6689680">
        <ele>965.4</ele>
        <time>2022-08-14T06:11:30Z</time>
      </trkpt>
      <trkpt lat="42.1660260" lon="-2.6688230">
        <ele>964.9</ele>
        <time>2022-08-14T06:11:31Z</time>
      </trkpt>
      <trkpt lat="42.1660040" lon="-2.6686780">
        <ele>964.3</ele>
        <time>2022-08-14T06:11:32Z</time>
      </trkpt>
      <trkpt lat="42.1660070" lon="-2.6685310">
        <ele>963.8</ele>
        <time>2022-08-14T06:11:33Z</time>
      </trkpt>
      <trkpt lat="42.1660510" lon="-2.6683900">
        <ele>963.3</ele>
        <time>2022-08-14T06:11:34Z</time>
      </trkpt>
      <trkpt lat="42.1661040" lon="-2.6682540">
        <ele>962.9</ele>
        <time>2022-08-14T06:11:35Z</time>
      </trkpt>
      <trkpt lat="42.1661480" lon="-2.6681290">
        <ele>962.5</ele>
        <time>2022-08-14T06:11:36Z</time>
      </trkpt>
      <trkpt lat="42.1662540" lon="-2.6678950">
        <ele>961.8</ele>
        <time>2022-08-14T06:11:38Z</time>
      </trkpt>
      <trkpt lat="42.1663070" lon="-2.6677800">
        <ele>961.5</ele>
        <time>2022-08-14T06:11:39Z</time>
      </trkpt>
      <trkpt lat="42.1663600" lon="-2.6676750">
        <ele>961.2</ele>
        <time>2022-08-14T06:11:40Z</time>
      </trkpt>
      <trkpt lat="42.1664160" lon="-2.6675690">
        <ele>960.9</ele>
        <time>2022-08-14T06:11:41Z</time>
      </trkpt>
      <trkpt lat="42.1665130" lon="-2.6673400">
        <ele>960.2</ele>
        <time>2022-08-14T06:11:43Z</time>
      </trkpt>
      <trkpt lat="42.1665240" lon="-2.6672160">
        <ele>959.9</ele>
        <time>2022-08-14T06:11:44Z</time>
      </trkpt>
      <trkpt lat="42.1665240" lon="-2.6670940">
        <ele>959.6</ele>
        <time>2022-08-14T06:11:45Z</time>
      </trkpt>
      <trkpt lat="42.1665040" lon="-2.6669690">
        <ele>959.3</ele>
        <time>2022-08-14T06:11:46Z</time>
      </trkpt>
      <trkpt lat="42.1664760" lon="-2.6668460">
        <ele>959.0</ele>
        <time>2022-08-14T06:11:47Z</time>
      </trkpt>
      <trkpt lat="42.1664430" lon="-2.6667230">
        <ele>958.6</ele>
        <time>2022-08-14T06:11:48Z</time>
      </trkpt>
      <trkpt lat="42.1663620" lon="-2.6664880">
        <ele>957.9</ele>
        <time>2022-08-14T06:11:50Z</time>
      </trkpt>
      <trkpt lat="42.1663170" lon="-2.6663750">
        <ele>957.5</ele>
        <time>2022-08-14T06:11:51Z</time>
      </trkpt>
      <trkpt lat="42.1662720" lon="-2.6662650">
        <ele>957.1</ele>
        <time>2022-08-14T06:11:52Z</time>
      </trkpt>
      <trkpt lat="42.1662240" lon="-2.6661600">
        <ele>956.8</ele>
        <time>2022-08-14T06:11:53Z</time>
      </trkpt>
      <trkpt lat="42.1661700" lon="-2.6660570">
        <ele>956.4</ele>
        <time>2022-08-14T06:11:54Z</time>
      </trkpt>
      <trkpt lat="42.1660610" lon="-2.6658540">
        <ele>955.6</ele>
        <time>2022-08-14T06:11:56Z</time>
      </trkpt>
      <trkpt lat="42.1659550" lon="-2.6656550">
        <ele>954.9</ele>
        <time>2022-08-14T06:11:58Z</time>
      </trkpt>
      <trkpt lat="42.1659130" lon="-2.6655430">
        <ele>954.5</ele>
        <time>2022-08-14T06:11:59Z</time>
      </trkpt>
      <trkpt lat="42.1658860" lon="-2.6654470">
        <ele>954.2</ele>
        <time>2022-08-14T06:12:00Z</time>
      </trkpt>
      <trkpt lat="42.1658580" lon="-2.6651730">
        <ele>953.4</ele>
        <time>2022-08-14T06:12:02Z</time>
      </trkpt>
      <trkpt lat="42.1658600" lon="-2.6650510">
        <ele>953.1</ele>
        <time>2022-08-14T06:12:03Z</time>
      </trkpt>
      <trkpt lat="42.1658940" lon="-2.6648120">
        <ele>952.4</ele>
        <time>2022-08-14T06:12:05Z</time>
      </trkpt>
      <trkpt lat="42.1659170" lon="-2.6646940">
        <ele>952.0</ele>
        <time>2022-08-14T06:12:06Z</time>
      </trkpt>
      <trkpt lat="42.1659440" lon="-2.6645710">
        <ele>951.7</ele>
        <time>2022-08-14T06:12:07Z</time>
      </trkpt>
      <trkpt lat="42.1660150" lon="-2.6643220">
        <ele>950.8</ele>
        <time>2022-08-14T06:12:09Z</time>
      </trkpt>
      <trkpt lat="42.1660530" lon="-2.6641980">
        <ele>950.3</ele>
        <time>2022-08-14T06:12:10Z</time>
      </trkpt>
      <trkpt lat="42.1660550" lon="-2.6640730">
        <ele>949.8</ele>
        <time>2022-08-14T06:12:11Z</time>
      </trkpt>
      <trkpt lat="42.1660490" lon="-2.6639410">
        <ele>949.2</ele>
        <time>2022-08-14T06:12:12Z</time>
      </trkpt>
      <trkpt lat="42.1660320" lon="-2.6638060">
        <ele>948.6</ele>
        <time>2022-08-14T06:12:13Z</time>
      </trkpt>
      <trkpt lat="42.1659630" lon="-2.6632380">
        <ele>945.8</ele>
        <time>2022-08-14T06:12:17Z</time>
      </trkpt>
      <trkpt lat="42.1659330" lon="-2.6629400">
        <ele>944.3</ele>
        <time>2022-08-14T06:12:19Z</time>
      </trkpt>
      <trkpt lat="42.1659150" lon="-2.6627920">
        <ele>943.5</ele>
        <time>2022-08-14T06:12:20Z</time>
      </trkpt>
      <trkpt lat="42.1658750" lon="-2.6623410">
        <ele>941.4</ele>
        <time>2022-08-14T06:12:23Z</time>
      </trkpt>
      <trkpt lat="42.1658600" lon="-2.6621860">
        <ele>940.6</ele>
        <time>2022-08-14T06:12:24Z</time>
      </trkpt>
      <trkpt lat="42.1658460" lon="-2.6620340">
        <ele>939.9</ele>
        <time>2022-08-14T06:12:25Z</time>
      </trkpt>
      <trkpt lat="42.1658340" lon="-2.6618840">
        <ele>939.2</ele>
        <time>2022-08-14T06:12:26Z</time>
      </trkpt>
      <trkpt lat="42.1658010" lon="-2.6614250">
        <ele>937.1</ele>
        <time>2022-08-14T06:12:29Z</time>
      </trkpt>
      <trkpt lat="42.1658140" lon="-2.6611170">
        <ele>935.7</ele>
        <time>2022-08-14T06:12:31Z</time>
      </trkpt>
      <trkpt lat="42.1658460" lon="-2.6608090">
        <ele>934.3</ele>
        <time>2022-08-14T06:12:33Z</time>
      </trkpt>
      <trkpt lat="42.1658650" lon="-2.6606560">
        <ele>933.6</ele>
        <time>2022-08-14T06:12:34Z</time>
      </trkpt>
      <trkpt lat="42.1658850" lon="-2.6605010">
        <ele>932.8</ele>
        <time>2022-08-14T06:12:35Z</time>
      </trkpt>
      <trkpt lat="42.1658870" lon="-2.6603440">
        <ele>932.0</ele>
        <time>2022-08-14T06:12:36Z</time>
      </trkpt>
      <trkpt lat="42.1658730" lon="-2.6601860">
        <ele>931.2</ele>
        <time>2022-08-14T06:12:37Z</time>
      </trkpt>
      <trkpt lat="42.1658500" lon="-2.6600290">
        <ele>930.3</ele>
        <time>2022-08-14T06:12:38Z</time>
      </trkpt>
      <trkpt lat="42.1658010" lon="-2.6597130">
        <ele>928.7</ele>
        <time>2022-08-14T06:12:40Z</time>
      </trkpt>
      <trkpt lat="42.1657470" lon="-2.6593990">
        <ele>927.1</ele>
        <time>2022-08-14T06:12:42Z</time>
      </trkpt>
      <trkpt lat="42.1657030" lon="-2.6590830">
        <ele>925.6</ele>
        <time>2022-08-14T06:12:44Z</time>
      </trkpt>
      <trkpt lat="42.1656920" lon="-2.6587650">
        <ele>924.0</ele>
        <time>2022-08-14T06:12:46Z</time>
      </trkpt>
      <trkpt lat="42.1657000" lon="-2.6586020">
        <ele>923.2</ele>
        <time>2022-08-14T06:12:47Z</time>
      </trkpt>
      <trkpt lat="42.1657200" lon="-2.6584470">
        <ele>922.5</ele>
        <time>2022-08-14T06:12:48Z</time>
      </trkpt>
      <trkpt lat="42.1657530" lon="-2.6582950">
        <ele>921.7</ele>
        <time>2022-08-14T06:12:49Z</time>
      </trkpt>
      <trkpt lat="42.1657960" lon="-2.6581460">
        <ele>921.0</ele>
        <time>2022-08-14T06:12:50Z</time>
      </trkpt>
      <trkpt lat="42.1658950" lon="-2.6578580">
        <ele>919.7</ele>
        <time>2022-08-14T06:12:52Z</time>
      </trkpt>
      <trkpt lat="42.1660010" lon="-2.6575750">
        <ele>918.4</ele>
        <time>2022-08-14T06:12:54Z</time>
      </trkpt>
      <trkpt lat="42.1660850" lon="-2.6572780">
        <ele>917.1</ele>
        <time>2022-08-14T06:12:56Z</time>
      </trkpt>
      <trkpt lat="42.1661090" lon="-2.6571250">
        <ele>916.3</ele>
        <time>2022-08-14T06:12:57Z</time>
      </trkpt>
      <trkpt lat="42.1661130" lon="-2.6569680">
        <ele>915.5</ele>
        <time>2022-08-14T06:12:58Z</time>
      </trkpt>
      <trkpt lat="42.1660880" lon="-2.6566480">
        <ele>913.8</ele>
        <time>2022-08-14T06:13:00Z</time>
      </trkpt>
      <trkpt lat="42.1660320" lon="-2.6561630">
        <ele>911.3</ele>
        <time>2022-08-14T06:13:03Z</time>
      </trkpt>
      <trkpt lat="42.1660050" lon="-2.6560050">
        <ele>910.5</ele>
        <time>2022-08-14T06:13:04Z</time>
      </trkpt>
      <trkpt lat="42.1659330" lon="-2.6556970">
        <ele>908.8</ele>
        <time>2022-08-14T06:13:06Z</time>
      </trkpt>
      <trkpt lat="42.1658880" lon="-2.6555470">
        <ele>908.1</ele>
        <time>2022-08-14T06:13:07Z</time>
      </trkpt>
      <trkpt lat="42.1657870" lon="-2.6552520">
        <ele>906.6</ele>
        <time>2022-08-14T06:13:09Z</time>
      </trkpt>
      <trkpt lat="42.1656840" lon="-2.6549540">
        <ele>905.2</ele>
        <time>2022-08-14T06:13:11Z</time>
      </trkpt>
      <trkpt lat="42.1655840" lon="-2.6546570">
        <ele>904.0</ele>
        <time>2022-08-14T06:13:13Z</time>
      </trkpt>
      <trkpt lat="42.1655030" lon="-2.6543520">
        <ele>902.8</ele>
        <time>2022-08-14T06:13:15Z</time>
      </trkpt>
      <trkpt lat="42.1654720" lon="-2.6540410">
        <ele>901.7</ele>
        <time>2022-08-14T06:13:17Z</time>
      </trkpt>
      <trkpt lat="42.1654850" lon="-2.6538890">
        <ele>901.2</ele>
        <time>2022-08-14T06:13:18Z</time>
      </trkpt>
      <trkpt lat="42.1655350" lon="-2.6535900">
        <ele>900.2</ele>
        <time>2022-08-14T06:13:20Z</time>
      </trkpt>
      <trkpt lat="42.1655920" lon="-2.6533020">
        <ele>899.3</ele>
        <time>2022-08-14T06:13:22Z</time>
      </trkpt>
      <trkpt lat="42.1656310" lon="-2.6531630">
        <ele>898.8</ele>
        <time>2022-08-14T06:13:23Z</time>
      </trkpt>
      <trkpt lat="42.1656850" lon="-2.6530290">
        <ele>898.4</ele>
        <time>2022-08-14T06:13:24Z</time>
      </trkpt>
      <trkpt lat="42.1657480" lon="-2.6529370">
        <ele>898.0</ele>
        <time>2022-08-14T06:13:25Z</time>
      </trkpt>
      <trkpt lat="42.1659730" lon="-2.6527360">
        <ele>896.9</ele>
        <time>2022-08-14T06:13:27Z</time>
      </trkpt>
      <trkpt lat="42.1660880" lon="-2.6526630">
        <ele>896.3</ele>
        <time>2022-08-14T06:13:28Z</time>
      </trkpt>
      <trkpt lat="42.1661910" lon="-2.6525750">
        <ele>895.8</ele>
        <time>2022-08-14T06:13:29Z</time>
      </trkpt>
      <trkpt lat="42.1662750" lon="-2.6524590">
        <ele>895.2</ele>
        <time>2022-08-14T06:13:30Z</time>
      </trkpt>
      <trkpt lat="42.1664000" lon="-2.6521940">
        <ele>894.3</ele>
        <time>2022-08-14T06:13:32Z</time>
      </trkpt>
      <trkpt lat="42.1664960" lon="-2.6519490">
        <ele>893.9</ele>
        <time>2022-08-14T06:13:34Z</time>
      </trkpt>
      <trkpt lat="42.1665510" lon="-2.6517560">
        <ele>893.7</ele>
        <time>2022-08-14T06:13:36Z</time>
      </trkpt>
      <trkpt lat="42.1666230" lon="-2.6515680">
        <ele>893.6</ele>
        <time>2022-08-14T06:13:38Z</time>
      </trkpt>
      <trkpt lat="42.1666550" lon="-2.6514800">
        <ele>893.4</ele>
        <time>2022-08-14T06:13:39Z</time>
      </trkpt>
      <trkpt lat="42.1666730" lon="-2.6513960">
        <ele>893.2</ele>
        <time>2022-08-14T06:13:40Z</time>
      </trkpt>
      <trkpt lat="42.1666740" lon="-2.6513130">
        <ele>892.9</ele>
        <time>2022-08-14T06:13:41Z</time>
      </trkpt>
      <trkpt lat="42.1666480" lon="-2.6512320">
        <ele>892.5</ele>
        <time>2022-08-14T06:13:42Z</time>
      </trkpt>
      <trkpt lat="42.1665960" lon="-2.6511780">
        <ele>892.0</ele>
        <time>2022-08-14T06:13:43Z</time>
      </trkpt>
      <trkpt lat="42.1664610" lon="-2.6511550">
        <ele>891.7</ele>
        <time>2022-08-14T06:13:45Z</time>
      </trkpt>
      <trkpt lat="42.1663920" lon="-2.6511690">
        <ele>891.6</ele>
        <time>2022-08-14T06:13:46Z</time>
      </trkpt>
      <trkpt lat="42.1663240" lon="-2.6511780">
        <ele>891.6</ele>
        <time>2022-08-14T06:13:47Z</time>
      </trkpt>
      <trkpt lat="42.1662540" lon="-2.6511780">
        <ele>891.5</ele>
        <time>2022-08-14T06:13:48Z</time>
      </trkpt>
      <trkpt lat="42.1661340" lon="-2.6511650">
        <ele>891.6</ele>
        <time>2022-08-14T06:13:50Z</time>
      </trkpt>
      <trkpt lat="42.1660950" lon="-2.6511200">
        <ele>891.5</ele>
        <time>2022-08-14T06:13:51Z</time>
      </trkpt>
      <trkpt lat="42.1660710" lon="-2.6510610">
        <ele>891.5</ele>
        <time>2022-08-14T06:13:52Z</time>
      </trkpt>
      <trkpt lat="42.1660260" lon="-2.6508590">
        <ele>891.4</ele>
        <time>2022-08-14T06:13:55Z</time>
      </trkpt>
      <trkpt lat="42.1660150" lon="-2.6507890">
        <ele>891.3</ele>
        <time>2022-08-14T06:13:56Z</time>
      </trkpt>
      <trkpt lat="42.1660180" lon="-2.6507150">
        <ele>891.3</ele>
        <time>2022-08-14T06:13:57Z</time>
      </trkpt>
      <trkpt lat="42.1660600" lon="-2.6505770">
        <ele>891.1</ele>
        <time>2022-08-14T06:13:59Z</time>
      </trkpt>
      <trkpt lat="42.1660910" lon="-2.6505280">
        <ele>891.0</ele>
        <time>2022-08-14T06:14:00Z</time>
      </trkpt>
      <trkpt lat="42.1661600" lon="-2.6504620">
        <ele>890.8</ele>
        <time>2022-08-14T06:14:02Z</time>
      </trkpt>
      <trkpt lat="42.1662300" lon="-2.6503980">
        <ele>890.7</ele>
        <time>2022-08-14T06:14:04Z</time>
      </trkpt>
      <trkpt lat="42.1663240" lon="-2.6503270">
        <ele>890.6</ele>
        <time>2022-08-14T06:14:07Z</time>
      </trkpt>
      <trkpt lat="42.1663480" lon="-2.6503080">
        <ele>890.5</ele>
        <time>2022-08-14T06:14:08Z</time>
      </trkpt>
      <trkpt lat="42.1663790" lon="-2.6502750">
        <ele>890.4</ele>
        <time>2022-08-14T06:14:10Z</time>
      </trkpt>
      <trkpt lat="42.1663860" lon="-2.6502610">
        <ele>890.4</ele>
        <time>2022-08-14T06:14:11Z</time>
      </trkpt>
      <trkpt lat="42.1663870" lon="-2.6502440">
        <ele>890.4</ele>
        <time>2022-08-14T06:14:12Z</time>
      </trkpt>
      <trkpt lat="42.1663770" lon="-2.6502270">
        <ele>890.4</ele>
        <time>2022-08-14T06:14:13Z</time>
      </trkpt>
      <trkpt lat="42.1663590" lon="-2.6502190">
        <ele>890.5</ele>
        <time>2022-08-14T06:14:14Z</time>
      </trkpt>
      <trkpt lat="42.1663410" lon="-2.6502240">
        <ele>890.6</ele>
        <time>2022-08-14T06:14:15Z</time>
      </trkpt>
      <trkpt lat="42.1663260" lon="-2.6502400">
        <ele>890.7</ele>
        <time>2022-08-14T06:14:16Z</time>
      </trkpt>
      <trkpt lat="42.1663110" lon="-2.6502620">
        <ele>890.8</ele>
        <time>2022-08-14T06:14:17Z</time>
      </trkpt>
      <trkpt lat="42.1662910" lon="-2.6502900">
        <ele>890.9</ele>
        <time>2022-08-14T06:14:18Z</time>
      </trkpt>
      <trkpt lat="42.1662690" lon="-2.6503110">
        <ele>891.0</ele>
        <time>2022-08-14T06:14:19Z</time>
      </trkpt>
      <trkpt lat="42.1662470" lon="-2.6503260">
        <ele>891.1</ele>
        <time>2022-08-14T06:14:20Z</time>
      </trkpt>
      <trkpt lat="42.1662190" lon="-2.6503470">
        <ele>891.3</ele>
        <time>2022-08-14T06:14:21Z</time>
      </trkpt>
      <trkpt lat="42.1661880" lon="-2.6503670">
        <ele>891.4</ele>
        <time>2022-08-14T06:14:22Z</time>
      </trkpt>
      <trkpt lat="42.1661370" lon="-2.6504050">
        <ele>891.6</ele>
        <time>2022-08-14T06:14:24Z</time>
      </trkpt>
      <trkpt lat="42.1660120" lon="-2.6504970">
        <ele>892.0</ele>
        <time>2022-08-14T06:14:29Z</time>
      </trkpt>
      <trkpt lat="42.1658390" lon="-2.6505620">
        <ele>892.4</ele>
        <time>2022-08-14T06:14:35Z</time>
      </trkpt>
      <trkpt lat="42.1658070" lon="-2.6505740">
        <ele>892.4</ele>
        <time>2022-08-14T06:14:36Z</time>
      </trkpt>
      <trkpt lat="42.1657010" lon="-2.6506020">
        <ele>892.9</ele>
        <time>2022-08-14T06:14:39Z</time>
      </trkpt>
      <trkpt lat="42.1656330" lon="-2.6505990">
        <ele>893.1</ele>
        <time>2022-08-14T06:14:41Z</time>
      </trkpt>
      <trkpt lat="42.1655650" lon="-2.6505890">
        <ele>893.4</ele>
        <time>2022-08-14T06:14:43Z</time>
      </trkpt>
      <trkpt lat="42.1654890" lon="-2.6505840">
        <ele>893.7</ele>
        <time>2022-08-14T06:14:45Z</time>
      </trkpt>
      <trkpt lat="42.1654140" lon="-2.6505690">
        <ele>894.0</ele>
        <time>2022-08-14T06:14:47Z</time>
      </trkpt>
      <trkpt lat="42.1653390" lon="-2.6505540">
        <ele>894.3</ele>
        <time>2022-08-14T06:14:49Z</time>
      </trkpt>
      <trkpt lat="42.1653010" lon="-2.6505460">
        <ele>894.4</ele>
        <time>2022-08-14T06:14:50Z</time>
      </trkpt>
      <trkpt lat="42.1651580" lon="-2.6505090">
        <ele>895.0</ele>
        <time>2022-08-14T06:14:54Z</time>
      </trkpt>
      <trkpt lat="42.1650040" lon="-2.6504540">
        <ele>895.6</ele>
        <time>2022-08-14T06:14:58Z</time>
      </trkpt>
      <trkpt lat="42.1648410" lon="-2.6503930">
        <ele>896.2</ele>
        <time>2022-08-14T06:15:02Z</time>
      </trkpt>
      <trkpt lat="42.1647290" lon="-2.6503380">
        <ele>896.6</ele>
        <time>2022-08-14T06:15:05Z</time>
      </trkpt>
      <trkpt lat="42.1645850" lon="-2.6502370">
        <ele>897.2</ele>
        <time>2022-08-14T06:15:09Z</time>
      </trkpt>
      <trkpt lat="42.1644210" lon="-2.6501240">
        <ele>897.9</ele>
        <time>2022-08-14T06:15:14Z</time>
      </trkpt>
      <trkpt lat="42.1643860" lon="-2.6501030">
        <ele>898.1</ele>
        <time>2022-08-14T06:15:15Z</time>
      </trkpt>
      <trkpt lat="42.1641290" lon="-2.6499880">
        <ele>899.0</ele>
        <time>2022-08-14T06:15:22Z</time>
      </trkpt>
      <trkpt lat="42.1640930" lon="-2.6499780">
        <ele>899.1</ele>
        <time>2022-08-14T06:15:23Z</time>
      </trkpt>
      <trkpt lat="42.1638260" lon="-2.6499340">
        <ele>900.1</ele>
        <time>2022-08-14T06:15:30Z</time>
      </trkpt>
      <trkpt lat="42.1637140" lon="-2.6499370">
        <ele>900.5</ele>
        <time>2022-08-14T06:15:33Z</time>
      </trkpt>
      <trkpt lat="42.1635610" lon="-2.6499470">
        <ele>901.1</ele>
        <time>2022-08-14T06:15:37Z</time>
      </trkpt>
      <trkpt lat="42.1632790" lon="-2.6499590">
        <ele>902.3</ele>
        <time>2022-08-14T06:15:45Z</time>
      </trkpt>
      <trkpt lat="42.1632060" lon="-2.6499630">
        <ele>902.6</ele>
        <time>2022-08-14T06:15:47Z</time>
      </trkpt>
      <trkpt lat="42.1629830" lon="-2.6499860">
        <ele>903.6</ele>
        <time>2022-08-14T06:15:53Z</time>
      </trkpt>
      <trkpt lat="42.1629470" lon="-2.6499920">
        <ele>903.8</ele>
        <time>2022-08-14T06:15:54Z</time>
      </trkpt>
      <trkpt lat="42.1626610" lon="-2.6500220">
        <ele>905.1</ele>
        <time>2022-08-14T06:16:02Z</time>
      </trkpt>
      <trkpt lat="42.1626240" lon="-2.6500280">
        <ele>905.3</ele>
        <time>2022-08-14T06:16:03Z</time>
      </trkpt>
      <trkpt lat="42.1624070" lon="-2.6500700">
        <ele>906.2</ele>
        <time>2022-08-14T06:16:09Z</time>
      </trkpt>
      <trkpt lat="42.1622610" lon="-2.6501150">
        <ele>906.9</ele>
        <time>2022-08-14T06:16:13Z</time>
      </trkpt>
      <trkpt lat="42.1621580" lon="-2.6501550">
        <ele>907.3</ele>
        <time>2022-08-14T06:16:16Z</time>
      </trkpt>
      <trkpt lat="42.1619520" lon="-2.6502530">
        <ele>908.2</ele>
        <time>2022-08-14T06:16:22Z</time>
      </trkpt>
      <trkpt lat="42.1619200" lon="-2.6502700">
        <ele>908.4</ele>
        <time>2022-08-14T06:16:23Z</time>
      </trkpt>
      <trkpt lat="42.1616990" lon="-2.6503960">
        <ele>909.4</ele>
        <time>2022-08-14T06:16:30Z</time>
      </trkpt>
      <trkpt lat="42.1616340" lon="-2.6504460">
        <ele>909.7</ele>
        <time>2022-08-14T06:16:32Z</time>
      </trkpt>
      <trkpt lat="42.1614210" lon="-2.6506220">
        <ele>910.6</ele>
        <time>2022-08-14T06:16:39Z</time>
      </trkpt>
      <trkpt lat="42.1613940" lon="-2.6506450">
        <ele>910.7</ele>
        <time>2022-08-14T06:16:40Z</time>
      </trkpt>
      <trkpt lat="42.1612510" lon="-2.6507710">
        <ele>911.4</ele>
        <time>2022-08-14T06:16:45Z</time>
      </trkpt>
      <trkpt lat="42.1610620" lon="-2.6509030">
        <ele>912.2</ele>
        <time>2022-08-14T06:16:51Z</time>
      </trkpt>
      <trkpt lat="42.1609620" lon="-2.6509570">
        <ele>912.6</ele>
        <time>2022-08-14T06:16:54Z</time>
      </trkpt>
      <trkpt lat="42.1607450" lon="-2.6510180">
        <ele>913.6</ele>
        <time>2022-08-14T06:17:00Z</time>
      </trkpt>
      <trkpt lat="42.1606730" lon="-2.6510320">
        <ele>913.9</ele>
        <time>2022-08-14T06:17:02Z</time>
      </trkpt>
      <trkpt lat="42.1604160" lon="-2.6510090">
        <ele>915.0</ele>
        <time>2022-08-14T06:17:09Z</time>
      </trkpt>
      <trkpt lat="42.1603810" lon="-2.6509990">
        <ele>915.1</ele>
        <time>2022-08-14T06:17:10Z</time>
      </trkpt>
      <trkpt lat="42.1599800" lon="-2.6508910">
        <ele>916.4</ele>
        <time>2022-08-14T06:17:21Z</time>
      </trkpt>
      <trkpt lat="42.1596300" lon="-2.6507550">
        <ele>917.5</ele>
        <time>2022-08-14T06:17:31Z</time>
      </trkpt>
      <trkpt lat="42.1595940" lon="-2.6507380">
        <ele>917.6</ele>
        <time>2022-08-14T06:17:32Z</time>
      </trkpt>
      <trkpt lat="42.1593730" lon="-2.6506090">
        <ele>918.1</ele>
        <time>2022-08-14T06:17:38Z</time>
      </trkpt>
      <trkpt lat="42.1590530" lon="-2.6503680">
        <ele>918.8</ele>
        <time>2022-08-14T06:17:47Z</time>
      </trkpt>
      <trkpt lat="42.1590180" lon="-2.6503440">
        <ele>918.9</ele>
        <time>2022-08-14T06:17:48Z</time>
      </trkpt>
      <trkpt lat="42.1589910" lon="-2.6503250">
        <ele>919.0</ele>
        <time>2022-08-14T06:17:49Z</time>
      </trkpt>
      <trkpt lat="42.1589140" lon="-2.6502770">
        <ele>919.2</ele>
        <time>2022-08-14T06:17:51Z</time>
      </trkpt>
      <trkpt lat="42.1587860" lon="-2.6502020">
        <ele>919.4</ele>
        <time>2022-08-14T06:17:55Z</time>
      </trkpt>
      <trkpt lat="42.1586400" lon="-2.6501260">
        <ele>919.7</ele>
        <time>2022-08-14T06:17:59Z</time>
      </trkpt>
      <trkpt lat="42.1585950" lon="-2.6501060">
        <ele>919.8</ele>
        <time>2022-08-14T06:18:00Z</time>
      </trkpt>
      <trkpt lat="42.1584900" lon="-2.6500630">
        <ele>920.1</ele>
        <time>2022-08-14T06:18:03Z</time>
      </trkpt>
      <trkpt lat="42.1583690" lon="-2.6500160">
        <ele>920.3</ele>
        <time>2022-08-14T06:18:06Z</time>
      </trkpt>
      <trkpt lat="42.1582990" lon="-2.6499850">
        <ele>920.5</ele>
        <time>2022-08-14T06:18:08Z</time>
      </trkpt>
      <trkpt lat="42.1581730" lon="-2.6499400">
        <ele>920.7</ele>
        <time>2022-08-14T06:18:11Z</time>
      </trkpt>
      <trkpt lat="42.1578900" lon="-2.6498490">
        <ele>921.3</ele>
        <time>2022-08-14T06:18:18Z</time>
      </trkpt>
      <trkpt lat="42.1578070" lon="-2.6498330">
        <ele>921.4</ele>
        <time>2022-08-14T06:18:20Z</time>
      </trkpt>
      <trkpt lat="42.1577310" lon="-2.6498280">
        <ele>921.5</ele>
        <time>2022-08-14T06:18:22Z</time>
      </trkpt>
      <trkpt lat="42.1575140" lon="-2.6498510">
        <ele>921.7</ele>
        <time>2022-08-14T06:18:27Z</time>
      </trkpt>
      <trkpt lat="42.1573770" lon="-2.6498890">
        <ele>921.9</ele>
        <time>2022-08-14T06:18:30Z</time>
      </trkpt>
      <trkpt lat="42.1570500" lon="-2.6500790">
        <ele>922.2</ele>
        <time>2022-08-14T06:18:38Z</time>
      </trkpt>
      <trkpt lat="42.1568970" lon="-2.6501970">
        <ele>922.4</ele>
        <time>2022-08-14T06:18:42Z</time>
      </trkpt>
      <trkpt lat="42.1565970" lon="-2.6504650">
        <ele>922.4</ele>
        <time>2022-08-14T06:18:50Z</time>
      </trkpt>
      <trkpt lat="42.1562510" lon="-2.6507680">
        <ele>921.8</ele>
        <time>2022-08-14T06:18:58Z</time>
      </trkpt>
      <trkpt lat="42.1561110" lon="-2.6508850">
        <ele>921.3</ele>
        <time>2022-08-14T06:19:01Z</time>
      </trkpt>
      <trkpt lat="42.1559600" lon="-2.6510090">
        <ele>920.8</ele>
        <time>2022-08-14T06:19:04Z</time>
      </trkpt>
      <trkpt lat="42.1558140" lon="-2.6511240">
        <ele>920.4</ele>
        <time>2022-08-14T06:19:07Z</time>
      </trkpt>
      <trkpt lat="42.1557010" lon="-2.6512100">
        <ele>920.0</ele>
        <time>2022-08-14T06:19:09Z</time>
      </trkpt>
      <trkpt lat="42.1555980" lon="-2.6512840">
        <ele>919.7</ele>
        <time>2022-08-14T06:19:11Z</time>
      </trkpt>
      <trkpt lat="42.1554300" lon="-2.6513770">
        <ele>919.1</ele>
        <time>2022-08-14T06:19:14Z</time>
      </trkpt>
      <trkpt lat="42.1550670" lon="-2.6514570">
        <ele>918.0</ele>
        <time>2022-08-14T06:19:20Z</time>
      </trkpt>
      <trkpt lat="42.1548540" lon="-2.6514730">
        <ele>917.4</ele>
        <time>2022-08-14T06:19:23Z</time>
      </trkpt>
      <trkpt lat="42.1547170" lon="-2.6514770">
        <ele>916.9</ele>
        <time>2022-08-14T06:19:25Z</time>
      </trkpt>
      <trkpt lat="42.1545780" lon="-2.6514670">
        <ele>916.3</ele>
        <time>2022-08-14T06:19:27Z</time>
      </trkpt>
      <trkpt lat="42.1545110" lon="-2.6514470">
        <ele>916.1</ele>
        <time>2022-08-14T06:19:28Z</time>
      </trkpt>
      <trkpt lat="42.1544470" lon="-2.6514210">
        <ele>915.8</ele>
        <time>2022-08-14T06:19:29Z</time>
      </trkpt>
      <trkpt lat="42.1542780" lon="-2.6513010">
        <ele>915.1</ele>
        <time>2022-08-14T06:19:32Z</time>
      </trkpt>
      <trkpt lat="42.1540490" lon="-2.6510500">
        <ele>914.5</ele>
        <time>2022-08-14T06:19:36Z</time>
      </trkpt>
      <trkpt lat="42.1539400" lon="-2.6509250">
        <ele>914.4</ele>
        <time>2022-08-14T06:19:38Z</time>
      </trkpt>
      <trkpt lat="42.1537880" lon="-2.6507870">
        <ele>914.2</ele>
        <time>2022-08-14T06:19:41Z</time>
      </trkpt>
      <trkpt lat="42.1537290" lon="-2.6507390">
        <ele>914.2</ele>
        <time>2022-08-14T06:19:42Z</time>
      </trkpt>
      <trkpt lat="42.1535390" lon="-2.6505860">
        <ele>914.2</ele>
        <time>2022-08-14T06:19:45Z</time>
      </trkpt>
      <trkpt lat="42.1533790" lon="-2.6504630">
        <ele>914.4</ele>
        <time>2022-08-14T06:19:48Z</time>
      </trkpt>
      <trkpt lat="42.1532770" lon="-2.6503800">
        <ele>914.6</ele>
        <time>2022-08-14T06:19:50Z</time>
      </trkpt>
      <trkpt lat="42.1531210" lon="-2.6502730">
        <ele>915.0</ele>
        <time>2022-08-14T06:19:53Z</time>
      </trkpt>
      <trkpt lat="42.1530760" lon="-2.6502490">
        <ele>915.1</ele>
        <time>2022-08-14T06:19:54Z</time>
      </trkpt>
      <trkpt lat="42.1529490" lon="-2.6502030">
        <ele>915.5</ele>
        <time>2022-08-14T06:19:56Z</time>
      </trkpt>
      <trkpt lat="42.1528360" lon="-2.6502150">
        <ele>915.8</ele>
        <time>2022-08-14T06:19:58Z</time>
      </trkpt>
      <trkpt lat="42.1527300" lon="-2.6502570">
        <ele>916.2</ele>
        <time>2022-08-14T06:20:00Z</time>
      </trkpt>
      <trkpt lat="42.1526820" lon="-2.6502850">
        <ele>916.4</ele>
        <time>2022-08-14T06:20:01Z</time>
      </trkpt>
      <trkpt lat="42.1525060" lon="-2.6504220">
        <ele>917.0</ele>
        <time>2022-08-14T06:20:05Z</time>
      </trkpt>
      <trkpt lat="42.1524640" lon="-2.6504560">
        <ele>917.2</ele>
        <time>2022-08-14T06:20:06Z</time>
      </trkpt>
      <trkpt lat="42.1523290" lon="-2.6505670">
        <ele>917.9</ele>
        <time>2022-08-14T06:20:09Z</time>
      </trkpt>
      <trkpt lat="42.1522910" lon="-2.6506000">
        <ele>918.1</ele>
        <time>2022-08-14T06:20:10Z</time>
      </trkpt>
      <trkpt lat="42.1522280" lon="-2.6506600">
        <ele>918.5</ele>
        <time>2022-08-14T06:20:12Z</time>
      </trkpt>
      <trkpt lat="42.1520420" lon="-2.6508220">
        <ele>919.7</ele>
        <time>2022-08-14T06:20:17Z</time>
      </trkpt>
      <trkpt lat="42.1519690" lon="-2.6508890">
        <ele>920.1</ele>
        <time>2022-08-14T06:20:19Z</time>
      </trkpt>
      <trkpt lat="42.1518660" lon="-2.6509810">
        <ele>920.8</ele>
        <time>2022-08-14T06:20:22Z</time>
      </trkpt>
      <trkpt lat="42.1517800" lon="-2.6510590">
        <ele>921.2</ele>
        <time>2022-08-14T06:20:25Z</time>
      </trkpt>
      <trkpt lat="42.1517080" lon="-2.6511240">
        <ele>921.6</ele>
        <time>2022-08-14T06:20:27Z</time>
      </trkpt>
      <trkpt lat="42.1516440" lon="-2.6511830">
        <ele>922.0</ele>
        <time>2022-08-14T06:20:29Z</time>
      </trkpt>
      <trkpt lat="42.1515530" lon="-2.6512500">
        <ele>922.4</ele>
        <time>2022-08-14T06:20:32Z</time>
      </trkpt>
      <trkpt lat="42.1513760" lon="-2.6513410">
        <ele>923.1</ele>
        <time>2022-08-14T06:20:37Z</time>
      </trkpt>
      <trkpt lat="42.1511930" lon="-2.6513640">
        <ele>923.8</ele>
        <time>2022-08-14T06:20:42Z</time>
      </trkpt>
      <trkpt lat="42.1510980" lon="-2.6513510">
        <ele>924.2</ele>
        <time>2022-08-14T06:20:45Z</time>
      </trkpt>
      <trkpt lat="42.1509770" lon="-2.6513180">
        <ele>924.6</ele>
        <time>2022-08-14T06:20:48Z</time>
      </trkpt>
      <trkpt lat="42.1507650" lon="-2.6512260">
        <ele>925.4</ele>
        <time>2022-08-14T06:20:54Z</time>
      </trkpt>
      <trkpt lat="42.1506170" lon="-2.6511650">
        <ele>925.7</ele>
        <time>2022-08-14T06:20:58Z</time>
      </trkpt>
      <trkpt lat="42.1504280" lon="-2.6510780">
        <ele>925.9</ele>
        <time>2022-08-14T06:21:03Z</time>
      </trkpt>
      <trkpt lat="42.1503870" lon="-2.6510610">
        <ele>925.9</ele>
        <time>2022-08-14T06:21:04Z</time>
      </trkpt>
      <trkpt lat="42.1499960" lon="-2.6509620">
        <ele>925.8</ele>
        <time>2022-08-14T06:21:13Z</time>
      </trkpt>
      <trkpt lat="42.1497960" lon="-2.6509590">
        <ele>925.6</ele>
        <time>2022-08-14T06:21:17Z</time>
      </trkpt>
      <trkpt lat="42.1496950" lon="-2.6509720">
        <ele>925.4</ele>
        <time>2022-08-14T06:21:19Z</time>
      </trkpt>
      <trkpt lat="42.1496410" lon="-2.6509840">
        <ele>925.4</ele>
        <time>2022-08-14T06:21:20Z</time>
      </trkpt>
      <trkpt lat="42.1492630" lon="-2.6511610">
        <ele>925.1</ele>
        <time>2022-08-14T06:21:27Z</time>
      </trkpt>
      <trkpt lat="42.1490310" lon="-2.6513760">
        <ele>925.1</ele>
        <time>2022-08-14T06:21:32Z</time>
      </trkpt>
      <trkpt lat="42.1489890" lon="-2.6514270">
        <ele>925.2</ele>
        <time>2022-08-14T06:21:33Z</time>
      </trkpt>
      <trkpt lat="42.1488720" lon="-2.6515960">
        <ele>925.3</ele>
        <time>2022-08-14T06:21:36Z</time>
      </trkpt>
      <trkpt lat="42.1487450" lon="-2.6518380">
        <ele>925.8</ele>
        <time>2022-08-14T06:21:40Z</time>
      </trkpt>
      <trkpt lat="42.1487200" lon="-2.6519020">
        <ele>926.0</ele>
        <time>2022-08-14T06:21:41Z</time>
      </trkpt>
      <trkpt lat="42.1486440" lon="-2.6521390">
        <ele>926.8</ele>
        <time>2022-08-14T06:21:45Z</time>
      </trkpt>
      <trkpt lat="42.1485640" lon="-2.6523970">
        <ele>927.8</ele>
        <time>2022-08-14T06:21:50Z</time>
      </trkpt>
      <trkpt lat="42.1485400" lon="-2.6524840">
        <ele>928.2</ele>
        <time>2022-08-14T06:21:52Z</time>
      </trkpt>
      <trkpt lat="42.1484920" lon="-2.6526180">
        <ele>928.7</ele>
        <time>2022-08-14T06:21:55Z</time>
      </trkpt>
      <trkpt lat="42.1484780" lon="-2.6526680">
        <ele>928.9</ele>
        <time>2022-08-14T06:21:56Z</time>
      </trkpt>
      <trkpt lat="42.1483760" lon="-2.6528460">
        <ele>929.8</ele>
        <time>2022-08-14T06:22:00Z</time>
      </trkpt>
      <trkpt lat="42.1482080" lon="-2.6530270">
        <ele>930.8</ele>
        <time>2022-08-14T06:22:06Z</time>
      </trkpt>
      <trkpt lat="42.1480580" lon="-2.6531730">
        <ele>931.5</ele>
        <time>2022-08-14T06:22:11Z</time>
      </trkpt>
      <trkpt lat="42.1480290" lon="-2.6532030">
        <ele>931.6</ele>
        <time>2022-08-14T06:22:12Z</time>
      </trkpt>
      <trkpt lat="42.1478440" lon="-2.6533360">
        <ele>932.2</ele>
        <time>2022-08-14T06:22:18Z</time>
      </trkpt>
      <trkpt lat="42.1477410" lon="-2.6534180">
        <ele>932.5</ele>
        <time>2022-08-14T06:22:21Z</time>
      </trkpt>
      <trkpt lat="42.1475740" lon="-2.6535620">
        <ele>932.7</ele>
        <time>2022-08-14T06:22:27Z</time>
      </trkpt>
      <trkpt lat="42.1475410" lon="-2.6535840">
        <ele>932.7</ele>
        <time>2022-08-14T06:22:28Z</time>
      </trkpt>
      <trkpt lat="42.1472670" lon="-2.6537090">
        <ele>932.5</ele>
        <time>2022-08-14T06:22:35Z</time>
      </trkpt>
      <trkpt lat="42.1472200" lon="-2.6537240">
        <ele>932.5</ele>
        <time>2022-08-14T06:22:36Z</time>
      </trkpt>
      <trkpt lat="42.1469810" lon="-2.6537830">
        <ele>932.2</ele>
        <time>2022-08-14T06:22:41Z</time>
      </trkpt>
      <trkpt lat="42.1468350" lon="-2.6538150">
        <ele>932.1</ele>
        <time>2022-08-14T06:22:44Z</time>
      </trkpt>
      <trkpt lat="42.1463600" lon="-2.6538600">
        <ele>931.9</ele>
        <time>2022-08-14T06:22:53Z</time>
      </trkpt>
      <trkpt lat="42.1460320" lon="-2.6538490">
        <ele>931.9</ele>
        <time>2022-08-14T06:22:59Z</time>
      </trkpt>
      <trkpt lat="42.1459250" lon="-2.6538430">
        <ele>931.9</ele>
        <time>2022-08-14T06:23:01Z</time>
      </trkpt>
      <trkpt lat="42.1454800" lon="-2.6538200">
        <ele>932.1</ele>
        <time>2022-08-14T06:23:10Z</time>
      </trkpt>
      <trkpt lat="42.1450250" lon="-2.6538050">
        <ele>932.4</ele>
        <time>2022-08-14T06:23:19Z</time>
      </trkpt>
      <trkpt lat="42.1447350" lon="-2.6538460">
        <ele>932.7</ele>
        <time>2022-08-14T06:23:25Z</time>
      </trkpt>
      <trkpt lat="42.1446420" lon="-2.6538790">
        <ele>933.0</ele>
        <time>2022-08-14T06:23:27Z</time>
      </trkpt>
      <trkpt lat="42.1443560" lon="-2.6540660">
        <ele>933.9</ele>
        <time>2022-08-14T06:23:34Z</time>
      </trkpt>
      <trkpt lat="42.1441210" lon="-2.6543470">
        <ele>934.8</ele>
        <time>2022-08-14T06:23:41Z</time>
      </trkpt>
      <trkpt lat="42.1440060" lon="-2.6545290">
        <ele>935.5</ele>
        <time>2022-08-14T06:23:45Z</time>
      </trkpt>
      <trkpt lat="42.1438720" lon="-2.6547470">
        <ele>936.4</ele>
        <time>2022-08-14T06:23:50Z</time>
      </trkpt>
      <trkpt lat="42.1438180" lon="-2.6548340">
        <ele>936.7</ele>
        <time>2022-08-14T06:23:52Z</time>
      </trkpt>
      <trkpt lat="42.1436340" lon="-2.6551400">
        <ele>938.2</ele>
        <time>2022-08-14T06:24:00Z</time>
      </trkpt>
      <trkpt lat="42.1435150" lon="-2.6553130">
        <ele>939.3</ele>
        <time>2022-08-14T06:24:05Z</time>
      </trkpt>
      <trkpt lat="42.1433880" lon="-2.6554700">
        <ele>940.4</ele>
        <time>2022-08-14T06:24:10Z</time>
      </trkpt>
      <trkpt lat="42.1433630" lon="-2.6555020">
        <ele>940.6</ele>
        <time>2022-08-14T06:24:11Z</time>
      </trkpt>
      <trkpt lat="42.1432540" lon="-2.6556230">
        <ele>941.4</ele>
        <time>2022-08-14T06:24:15Z</time>
      </trkpt>
      <trkpt lat="42.1431940" lon="-2.6556760">
        <ele>941.8</ele>
        <time>2022-08-14T06:24:17Z</time>
      </trkpt>
      <trkpt lat="42.1431050" lon="-2.6557480">
        <ele>942.3</ele>
        <time>2022-08-14T06:24:20Z</time>
      </trkpt>
      <trkpt lat="42.1430710" lon="-2.6557700">
        <ele>942.5</ele>
        <time>2022-08-14T06:24:21Z</time>
      </trkpt>
      <trkpt lat="42.1429020" lon="-2.6558540">
        <ele>943.4</ele>
        <time>2022-08-14T06:24:26Z</time>
      </trkpt>
      <trkpt lat="42.1428310" lon="-2.6558810">
        <ele>943.8</ele>
        <time>2022-08-14T06:24:28Z</time>
      </trkpt>
      <trkpt lat="42.1426230" lon="-2.6559350">
        <ele>944.8</ele>
        <time>2022-08-14T06:24:34Z</time>
      </trkpt>
      <trkpt lat="42.1425880" lon="-2.6559380">
        <ele>944.9</ele>
        <time>2022-08-14T06:24:35Z</time>
      </trkpt>
      <trkpt lat="42.1424160" lon="-2.6559490">
        <ele>945.7</ele>
        <time>2022-08-14T06:24:40Z</time>
      </trkpt>
      <trkpt lat="42.1423790" lon="-2.6559490">
        <ele>945.8</ele>
        <time>2022-08-14T06:24:41Z</time>
      </trkpt>
      <trkpt lat="42.1421190" lon="-2.6559280">
        <ele>946.8</ele>
        <time>2022-08-14T06:24:48Z</time>
      </trkpt>
      <trkpt lat="42.1420810" lon="-2.6559230">
        <ele>947.0</ele>
        <time>2022-08-14T06:24:49Z</time>
      </trkpt>
      <trkpt lat="42.1418580" lon="-2.6558980">
        <ele>948.0</ele>
        <time>2022-08-14T06:24:55Z</time>
      </trkpt>
      <trkpt lat="42.1418280" lon="-2.6558940">
        <ele>948.1</ele>
        <time>2022-08-14T06:24:56Z</time>
      </trkpt>
      <trkpt lat="42.1416020" lon="-2.6558600">
        <ele>949.2</ele>
        <time>2022-08-14T06:25:02Z</time>
      </trkpt>
      <trkpt lat="42.1415000" lon="-2.6558380">
        <ele>949.6</ele>
        <time>2022-08-14T06:25:05Z</time>
      </trkpt>
      <trkpt lat="42.1413500" lon="-2.6557880">
        <ele>950.3</ele>
        <time>2022-08-14T06:25:09Z</time>
      </trkpt>
      <trkpt lat="42.1412430" lon="-2.6557510">
        <ele>950.7</ele>
        <time>2022-08-14T06:25:12Z</time>
      </trkpt>
      <trkpt lat="42.1410340" lon="-2.6556340">
        <ele>951.6</ele>
        <time>2022-08-14T06:25:18Z</time>
      </trkpt>
      <trkpt lat="42.1409650" lon="-2.6555950">
        <ele>951.9</ele>
        <time>2022-08-14T06:25:20Z</time>
      </trkpt>
      <trkpt lat="42.1408650" lon="-2.6555300">
        <ele>952.3</ele>
        <time>2022-08-14T06:25:23Z</time>
      </trkpt>
      <trkpt lat="42.1406240" lon="-2.6553820">
        <ele>953.3</ele>
        <time>2022-08-14T06:25:30Z</time>
      </trkpt>
      <trkpt lat="42.1405560" lon="-2.6553460">
        <ele>953.5</ele>
        <time>2022-08-14T06:25:32Z</time>
      </trkpt>
      <trkpt lat="42.1403890" lon="-2.6552520">
        <ele>954.2</ele>
        <time>2022-08-14T06:25:37Z</time>
      </trkpt>
      <trkpt lat="42.1402220" lon="-2.6551590">
        <ele>954.8</ele>
        <time>2022-08-14T06:25:42Z</time>
      </trkpt>
      <trkpt lat="42.1401250" lon="-2.6551030">
        <ele>955.1</ele>
        <time>2022-08-14T06:25:45Z</time>
      </trkpt>
      <trkpt lat="42.1399860" lon="-2.6550480">
        <ele>955.4</ele>
        <time>2022-08-14T06:25:49Z</time>
      </trkpt>
      <trkpt lat="42.1398820" lon="-2.6550210">
        <ele>955.5</ele>
        <time>2022-08-14T06:25:52Z</time>
      </trkpt>
      <trkpt lat="42.1396910" lon="-2.6550020">
        <ele>955.4</ele>
        <time>2022-08-14T06:25:57Z</time>
      </trkpt>
      <trkpt lat="42.1395690" lon="-2.6550090">
        <ele>955.2</ele>
        <time>2022-08-14T06:26:00Z</time>
      </trkpt>
      <trkpt lat="42.1395260" lon="-2.6550170">
        <ele>955.1</ele>
        <time>2022-08-14T06:26:01Z</time>
      </trkpt>
      <trkpt lat="42.1394400" lon="-2.6550490">
        <ele>954.9</ele>
        <time>2022-08-14T06:26:03Z</time>
      </trkpt>
      <trkpt lat="42.1393480" lon="-2.6550920">
        <ele>954.6</ele>
        <time>2022-08-14T06:26:05Z</time>
      </trkpt>
      <trkpt lat="42.1393010" lon="-2.6551210">
        <ele>954.5</ele>
        <time>2022-08-14T06:26:06Z</time>
      </trkpt>
      <trkpt lat="42.1390090" lon="-2.6553470">
        <ele>953.3</ele>
        <time>2022-08-14T06:26:12Z</time>
      </trkpt>
      <trkpt lat="42.1389710" lon="-2.6553800">
        <ele>953.2</ele>
        <time>2022-08-14T06:26:13Z</time>
      </trkpt>
      <trkpt lat="42.1387130" lon="-2.6556270">
        <ele>952.2</ele>
        <time>2022-08-14T06:26:18Z</time>
      </trkpt>
      <trkpt lat="42.1386610" lon="-2.6556800">
        <ele>952.0</ele>
        <time>2022-08-14T06:26:19Z</time>
      </trkpt>
      <trkpt lat="42.1386080" lon="-2.6557350">
        <ele>951.9</ele>
        <time>2022-08-14T06:26:20Z</time>
      </trkpt>
      <trkpt lat="42.1384220" lon="-2.6559870">
        <ele>951.7</ele>
        <time>2022-08-14T06:26:24Z</time>
      </trkpt>
      <trkpt lat="42.1383890" lon="-2.6560590">
        <ele>951.8</ele>
        <time>2022-08-14T06:26:25Z</time>
      </trkpt>
      <trkpt lat="42.1383610" lon="-2.6561290">
        <ele>951.9</ele>
        <time>2022-08-14T06:26:26Z</time>
      </trkpt>
      <trkpt lat="42.1383190" lon="-2.6562650">
        <ele>952.2</ele>
        <time>2022-08-14T06:26:28Z</time>
      </trkpt>
      <trkpt lat="42.1383070" lon="-2.6563300">
        <ele>952.3</ele>
        <time>2022-08-14T06:26:29Z</time>
      </trkpt>
      <trkpt lat="42.1382700" lon="-2.6566440">
        <ele>952.9</ele>
        <time>2022-08-14T06:26:34Z</time>
      </trkpt>
      <trkpt lat="42.1382670" lon="-2.6567030">
        <ele>953.1</ele>
        <time>2022-08-14T06:26:35Z</time>
      </trkpt>
      <trkpt lat="42.1382520" lon="-2.6569760">
        <ele>953.9</ele>
        <time>2022-08-14T06:26:40Z</time>
      </trkpt>
      <trkpt lat="42.1382270" lon="-2.6572430">
        <ele>954.9</ele>
        <time>2022-08-14T06:26:45Z</time>
      </trkpt>
      <trkpt lat="42.1382210" lon="-2.6572950">
        <ele>955.1</ele>
        <time>2022-08-14T06:26:46Z</time>
      </trkpt>
      <trkpt lat="42.1382010" lon="-2.6573980">
        <ele>955.3</ele>
        <time>2022-08-14T06:26:48Z</time>
      </trkpt>
      <trkpt lat="42.1381430" lon="-2.6575870">
        <ele>955.9</ele>
        <time>2022-08-14T06:26:52Z</time>
      </trkpt>
      <trkpt lat="42.1381250" lon="-2.6576320">
        <ele>956.0</ele>
        <time>2022-08-14T06:26:53Z</time>
      </trkpt>
      <trkpt lat="42.1380110" lon="-2.6578220">
        <ele>956.5</ele>
        <time>2022-08-14T06:26:58Z</time>
      </trkpt>
      <trkpt lat="42.1379800" lon="-2.6578540">
        <ele>956.7</ele>
        <time>2022-08-14T06:26:59Z</time>
      </trkpt>
      <trkpt lat="42.1378080" lon="-2.6580140">
        <ele>957.8</ele>
        <time>2022-08-14T06:27:05Z</time>
      </trkpt>
      <trkpt lat="42.1377800" lon="-2.6580310">
        <ele>957.9</ele>
        <time>2022-08-14T06:27:06Z</time>
      </trkpt>
      <trkpt lat="42.1375990" lon="-2.6581010">
        <ele>958.8</ele>
        <time>2022-08-14T06:27:11Z</time>
      </trkpt>
      <trkpt lat="42.1375610" lon="-2.6581130">
        <ele>959.0</ele>
        <time>2022-08-14T06:27:12Z</time>
      </trkpt>
      <trkpt lat="42.1373360" lon="-2.6581610">
        <ele>960.0</ele>
        <time>2022-08-14T06:27:18Z</time>
      </trkpt>
      <trkpt lat="42.1371440" lon="-2.6581680">
        <ele>961.0</ele>
        <time>2022-08-14T06:27:23Z</time>
      </trkpt>
      <trkpt lat="42.1370030" lon="-2.6581530">
        <ele>961.7</ele>
        <time>2022-08-14T06:27:27Z</time>
      </trkpt>
      <trkpt lat="42.1368330" lon="-2.6581210">
        <ele>962.5</ele>
        <time>2022-08-14T06:27:32Z</time>
      </trkpt>
      <trkpt lat="42.1367980" lon="-2.6581120">
        <ele>962.7</ele>
        <time>2022-08-14T06:27:33Z</time>
      </trkpt>
      <trkpt lat="42.1366260" lon="-2.6580630">
        <ele>963.5</ele>
        <time>2022-08-14T06:27:38Z</time>
      </trkpt>
      <trkpt lat="42.1365550" lon="-2.6580410">
        <ele>963.9</ele>
        <time>2022-08-14T06:27:40Z</time>
      </trkpt>
      <trkpt lat="42.1363740" lon="-2.6579580">
        <ele>964.7</ele>
        <time>2022-08-14T06:27:45Z</time>
      </trkpt>
      <trkpt lat="42.1363050" lon="-2.6579160">
        <ele>965.0</ele>
        <time>2022-08-14T06:27:47Z</time>
      </trkpt>
      <trkpt lat="42.1360830" lon="-2.6577270">
        <ele>966.1</ele>
        <time>2022-08-14T06:27:54Z</time>
      </trkpt>
      <trkpt lat="42.1358170" lon="-2.6574960">
        <ele>967.6</ele>
        <time>2022-08-14T06:28:02Z</time>
      </trkpt>
      <trkpt lat="42.1357850" lon="-2.6574700">
        <ele>967.8</ele>
        <time>2022-08-14T06:28:03Z</time>
      </trkpt>
      <trkpt lat="42.1356630" lon="-2.6573670">
        <ele>968.5</ele>
        <time>2022-08-14T06:28:07Z</time>
      </trkpt>
      <trkpt lat="42.1356000" lon="-2.6573220">
        <ele>968.8</ele>
        <time>2022-08-14T06:28:09Z</time>
      </trkpt>
      <trkpt lat="42.1354410" lon="-2.6571990">
        <ele>969.6</ele>
        <time>2022-08-14T06:28:14Z</time>
      </trkpt>
      <trkpt lat="42.1353800" lon="-2.6571550">
        <ele>969.9</ele>
        <time>2022-08-14T06:28:16Z</time>
      </trkpt>
      <trkpt lat="42.1351970" lon="-2.6570500">
        <ele>970.8</ele>
        <time>2022-08-14T06:28:22Z</time>
      </trkpt>
      <trkpt lat="42.1351680" lon="-2.6570320">
        <ele>971.0</ele>
        <time>2022-08-14T06:28:23Z</time>
      </trkpt>
      <trkpt lat="42.1350220" lon="-2.6569400">
        <ele>971.8</ele>
        <time>2022-08-14T06:28:28Z</time>
      </trkpt>
      <trkpt lat="42.1349200" lon="-2.6568660">
        <ele>972.3</ele>
        <time>2022-08-14T06:28:32Z</time>
      </trkpt>
      <trkpt lat="42.1348960" lon="-2.6568450">
        <ele>972.5</ele>
        <time>2022-08-14T06:28:33Z</time>
      </trkpt>
      <trkpt lat="42.1347420" lon="-2.6566880">
        <ele>973.3</ele>
        <time>2022-08-14T06:28:39Z</time>
      </trkpt>
      <trkpt lat="42.1347190" lon="-2.6566590">
        <ele>973.4</ele>
        <time>2022-08-14T06:28:40Z</time>
      </trkpt>
      <trkpt lat="42.1346530" lon="-2.6565480">
        <ele>973.9</ele>
        <time>2022-08-14T06:28:43Z</time>
      </trkpt>
      <trkpt lat="42.1346310" lon="-2.6565220">
        <ele>974.0</ele>
        <time>2022-08-14T06:28:44Z</time>
      </trkpt>
      <trkpt lat="42.1344880" lon="-2.6563510">
        <ele>974.8</ele>
        <time>2022-08-14T06:28:50Z</time>
      </trkpt>
      <trkpt lat="42.1344650" lon="-2.6563220">
        <ele>974.9</ele>
        <time>2022-08-14T06:28:51Z</time>
      </trkpt>
      <trkpt lat="42.1342820" lon="-2.6560810">
        <ele>975.9</ele>
        <time>2022-08-14T06:28:59Z</time>
      </trkpt>
      <trkpt lat="42.1342560" lon="-2.6560500">
        <ele>976.0</ele>
        <time>2022-08-14T06:29:00Z</time>
      </trkpt>
      <trkpt lat="42.1340550" lon="-2.6557850">
        <ele>977.1</ele>
        <time>2022-08-14T06:29:08Z</time>
      </trkpt>
      <trkpt lat="42.1340050" lon="-2.6557270">
        <ele>977.4</ele>
        <time>2022-08-14T06:29:10Z</time>
      </trkpt>
      <trkpt lat="42.1338650" lon="-2.6555090">
        <ele>978.4</ele>
        <time>2022-08-14T06:29:16Z</time>
      </trkpt>
      <trkpt lat="42.1337560" lon="-2.6553310">
        <ele>979.1</ele>
        <time>2022-08-14T06:29:21Z</time>
      </trkpt>
      <trkpt lat="42.1337060" lon="-2.6552710">
        <ele>979.4</ele>
        <time>2022-08-14T06:29:23Z</time>
      </trkpt>
      <trkpt lat="42.1335960" lon="-2.6551330">
        <ele>980.1</ele>
        <time>2022-08-14T06:29:28Z</time>
      </trkpt>
      <trkpt lat="42.1335730" lon="-2.6551090">
        <ele>980.3</ele>
        <time>2022-08-14T06:29:29Z</time>
      </trkpt>
      <trkpt lat="42.1334290" lon="-2.6549150">
        <ele>981.2</ele>
        <time>2022-08-14T06:29:36Z</time>
      </trkpt>
      <trkpt lat="42.1333900" lon="-2.6548480">
        <ele>981.5</ele>
        <time>2022-08-14T06:29:38Z</time>
      </trkpt>
      <trkpt lat="42.1332700" lon="-2.6546430">
        <ele>982.2</ele>
        <time>2022-08-14T06:29:44Z</time>
      </trkpt>
      <trkpt lat="42.1332150" lon="-2.6545400">
        <ele>982.5</ele>
        <time>2022-08-14T06:29:47Z</time>
      </trkpt>
      <trkpt lat="42.1331970" lon="-2.6545150">
        <ele>982.6</ele>
        <time>2022-08-14T06:29:48Z</time>
      </trkpt>
      <trkpt lat="42.1330860" lon="-2.6543780">
        <ele>983.1</ele>
        <time>2022-08-14T06:29:53Z</time>
      </trkpt>
      <trkpt lat="42.1330180" lon="-2.6542940">
        <ele>983.5</ele>
        <time>2022-08-14T06:29:56Z</time>
      </trkpt>
      <trkpt lat="42.1328960" lon="-2.6541590">
        <ele>984.2</ele>
        <time>2022-08-14T06:30:01Z</time>
      </trkpt>
      <trkpt lat="42.1327870" lon="-2.6540760">
        <ele>984.7</ele>
        <time>2022-08-14T06:30:05Z</time>
      </trkpt>
      <trkpt lat="42.1326990" lon="-2.6540330">
        <ele>985.0</ele>
        <time>2022-08-14T06:30:08Z</time>
      </trkpt>
      <trkpt lat="42.1326030" lon="-2.6540080">
        <ele>985.3</ele>
        <time>2022-08-14T06:30:11Z</time>
      </trkpt>
      <trkpt lat="42.1324760" lon="-2.6539900">
        <ele>985.6</ele>
        <time>2022-08-14T06:30:15Z</time>
      </trkpt>
      <trkpt lat="42.1324420" lon="-2.6539900">
        <ele>985.6</ele>
        <time>2022-08-14T06:30:16Z</time>
      </trkpt>
      <trkpt lat="42.1323050" lon="-2.6540140">
        <ele>985.7</ele>
        <time>2022-08-14T06:30:20Z</time>
      </trkpt>
      <trkpt lat="42.1321580" lon="-2.6540480">
        <ele>985.6</ele>
        <time>2022-08-14T06:30:24Z</time>
      </trkpt>
      <trkpt lat="42.1321200" lon="-2.6540640">
        <ele>985.6</ele>
        <time>2022-08-14T06:30:25Z</time>
      </trkpt>
      <trkpt lat="42.1318230" lon="-2.6542110">
        <ele>985.3</ele>
        <time>2022-08-14T06:30:33Z</time>
      </trkpt>
      <trkpt lat="42.1317420" lon="-2.6542570">
        <ele>985.1</ele>
        <time>2022-08-14T06:30:35Z</time>
      </trkpt>
      <trkpt lat="42.1315150" lon="-2.6543750">
        <ele>984.8</ele>
        <time>2022-08-14T06:30:41Z</time>
      </trkpt>
      <trkpt lat="42.1313470" lon="-2.6544400">
        <ele>984.7</ele>
        <time>2022-08-14T06:30:45Z</time>
      </trkpt>
      <trkpt lat="42.1312170" lon="-2.6544830">
        <ele>984.6</ele>
        <time>2022-08-14T06:30:48Z</time>
      </trkpt>
      <trkpt lat="42.1310350" lon="-2.6545020">
        <ele>984.4</ele>
        <time>2022-08-14T06:30:52Z</time>
      </trkpt>
      <trkpt lat="42.1306750" lon="-2.6544560">
        <ele>984.1</ele>
        <time>2022-08-14T06:31:00Z</time>
      </trkpt>
      <trkpt lat="42.1305830" lon="-2.6544320">
        <ele>984.1</ele>
        <time>2022-08-14T06:31:02Z</time>
      </trkpt>
      <trkpt lat="42.1304470" lon="-2.6543770">
        <ele>984.1</ele>
        <time>2022-08-14T06:31:05Z</time>
      </trkpt>
      <trkpt lat="42.1303540" lon="-2.6543360">
        <ele>984.1</ele>
        <time>2022-08-14T06:31:07Z</time>
      </trkpt>
      <trkpt lat="42.1301680" lon="-2.6542200">
        <ele>984.1</ele>
        <time>2022-08-14T06:31:11Z</time>
      </trkpt>
      <trkpt lat="42.1301220" lon="-2.6541870">
        <ele>984.1</ele>
        <time>2022-08-14T06:31:12Z</time>
      </trkpt>
      <trkpt lat="42.1298300" lon="-2.6539740">
        <ele>983.9</ele>
        <time>2022-08-14T06:31:18Z</time>
      </trkpt>
      <trkpt lat="42.1297820" lon="-2.6539430">
        <ele>983.8</ele>
        <time>2022-08-14T06:31:19Z</time>
      </trkpt>
      <trkpt lat="42.1295420" lon="-2.6538020">
        <ele>983.7</ele>
        <time>2022-08-14T06:31:24Z</time>
      </trkpt>
      <trkpt lat="42.1294970" lon="-2.6537840">
        <ele>983.7</ele>
        <time>2022-08-14T06:31:25Z</time>
      </trkpt>
      <trkpt lat="42.1293510" lon="-2.6537160">
        <ele>983.7</ele>
        <time>2022-08-14T06:31:28Z</time>
      </trkpt>
      <trkpt lat="42.1291590" lon="-2.6536380">
        <ele>983.7</ele>
        <time>2022-08-14T06:31:32Z</time>
      </trkpt>
      <trkpt lat="42.1291110" lon="-2.6536220">
        <ele>983.7</ele>
        <time>2022-08-14T06:31:33Z</time>
      </trkpt>
      <trkpt lat="42.1288730" lon="-2.6535560">
        <ele>983.7</ele>
        <time>2022-08-14T06:31:38Z</time>
      </trkpt>
      <trkpt lat="42.1288250" lon="-2.6535550">
        <ele>983.7</ele>
        <time>2022-08-14T06:31:39Z</time>
      </trkpt>
      <trkpt lat="42.1284850" lon="-2.6536240">
        <ele>983.7</ele>
        <time>2022-08-14T06:31:46Z</time>
      </trkpt>
      <trkpt lat="42.1284280" lon="-2.6536410">
        <ele>983.7</ele>
        <time>2022-08-14T06:31:47Z</time>
      </trkpt>
      <trkpt lat="42.1280480" lon="-2.6537520">
        <ele>983.6</ele>
        <time>2022-08-14T06:31:55Z</time>
      </trkpt>
      <trkpt lat="42.1278630" lon="-2.6537990">
        <ele>983.6</ele>
        <time>2022-08-14T06:31:59Z</time>
      </trkpt>
      <trkpt lat="42.1277780" lon="-2.6538090">
        <ele>983.6</ele>
        <time>2022-08-14T06:32:01Z</time>
      </trkpt>
      <trkpt lat="42.1273700" lon="-2.6538430">
        <ele>983.6</ele>
        <time>2022-08-14T06:32:09Z</time>
      </trkpt>
      <trkpt lat="42.1270110" lon="-2.6538250">
        <ele>983.8</ele>
        <time>2022-08-14T06:32:16Z</time>
      </trkpt>
      <trkpt lat="42.1268630" lon="-2.6538030">
        <ele>984.0</ele>
        <time>2022-08-14T06:32:19Z</time>
      </trkpt>
      <trkpt lat="42.1265310" lon="-2.6536870">
        <ele>984.2</ele>
        <time>2022-08-14T06:32:26Z</time>
      </trkpt>
      <trkpt lat="42.1264390" lon="-2.6536330">
        <ele>984.2</ele>
        <time>2022-08-14T06:32:28Z</time>
      </trkpt>
      <trkpt lat="42.1262300" lon="-2.6534410">
        <ele>984.3</ele>
        <time>2022-08-14T06:32:33Z</time>
      </trkpt>
      <trkpt lat="42.1258620" lon="-2.6529850">
        <ele>984.6</ele>
        <time>2022-08-14T06:32:43Z</time>
      </trkpt>
      <trkpt lat="42.1255420" lon="-2.6525510">
        <ele>984.9</ele>
        <time>2022-08-14T06:32:52Z</time>
      </trkpt>
      <trkpt lat="42.1253010" lon="-2.6522130">
        <ele>985.3</ele>
        <time>2022-08-14T06:32:59Z</time>
      </trkpt>
      <trkpt lat="42.1251640" lon="-2.6520280">
        <ele>985.5</ele>
        <time>2022-08-14T06:33:03Z</time>
      </trkpt>
      <trkpt lat="42.1249930" lon="-2.6517960">
        <ele>986.0</ele>
        <time>2022-08-14T06:33:08Z</time>
      </trkpt>
      <trkpt lat="42.1248020" lon="-2.6515390">
        <ele>986.8</ele>
        <time>2022-08-14T06:33:14Z</time>
      </trkpt>
      <trkpt lat="42.1247700" lon="-2.6514970">
        <ele>986.9</ele>
        <time>2022-08-14T06:33:15Z</time>
      </trkpt>
      <trkpt lat="42.1245620" lon="-2.6512220">
        <ele>987.6</ele>
        <time>2022-08-14T06:33:21Z</time>
      </trkpt>
      <trkpt lat="42.1244980" lon="-2.6511350">
        <ele>987.6</ele>
        <time>2022-08-14T06:33:23Z</time>
      </trkpt>
      <trkpt lat="42.1244340" lon="-2.6510560">
        <ele>987.6</ele>
        <time>2022-08-14T06:33:25Z</time>
      </trkpt>
      <trkpt lat="42.1242780" lon="-2.6508490">
        <ele>988.1</ele>
        <time>2022-08-14T06:33:30Z</time>
      </trkpt>
      <trkpt lat="42.1241820" lon="-2.6507350">
        <ele>988.5</ele>
        <time>2022-08-14T06:33:33Z</time>
      </trkpt>
      <trkpt lat="42.1240920" lon="-2.6506340">
        <ele>988.7</ele>
        <time>2022-08-14T06:33:36Z</time>
      </trkpt>
      <trkpt lat="42.1238710" lon="-2.6503800">
        <ele>989.5</ele>
        <time>2022-08-14T06:33:43Z</time>
      </trkpt>
      <trkpt lat="42.1238330" lon="-2.6503340">
        <ele>989.6</ele>
        <time>2022-08-14T06:33:44Z</time>
      </trkpt>
      <trkpt lat="42.1236290" lon="-2.6500830">
        <ele>990.6</ele>
        <time>2022-08-14T06:33:51Z</time>
      </trkpt>
      <trkpt lat="42.1234760" lon="-2.6497960">
        <ele>991.5</ele>
        <time>2022-08-14T06:33:58Z</time>
      </trkpt>
      <trkpt lat="42.1233950" lon="-2.6495640">
        <ele>992.2</ele>
        <time>2022-08-14T06:34:03Z</time>
      </trkpt>
      <trkpt lat="42.1233620" lon="-2.6494300">
        <ele>992.5</ele>
        <time>2022-08-14T06:34:06Z</time>
      </trkpt>
      <trkpt lat="42.1233510" lon="-2.6493820">
        <ele>992.7</ele>
        <time>2022-08-14T06:34:07Z</time>
      </trkpt>
      <trkpt lat="42.1233170" lon="-2.6491290">
        <ele>993.3</ele>
        <time>2022-08-14T06:34:12Z</time>
      </trkpt>
      <trkpt lat="42.1233070" lon="-2.6490310">
        <ele>993.6</ele>
        <time>2022-08-14T06:34:14Z</time>
      </trkpt>
      <trkpt lat="42.1232970" lon="-2.6487080">
        <ele>994.6</ele>
        <time>2022-08-14T06:34:20Z</time>
      </trkpt>
      <trkpt lat="42.1232940" lon="-2.6485060">
        <ele>995.3</ele>
        <time>2022-08-14T06:34:24Z</time>
      </trkpt>
      <trkpt lat="42.1232720" lon="-2.6481510">
        <ele>996.5</ele>
        <time>2022-08-14T06:34:31Z</time>
      </trkpt>
      <trkpt lat="42.1232660" lon="-2.6480980">
        <ele>996.7</ele>
        <time>2022-08-14T06:34:32Z</time>
      </trkpt>
      <trkpt lat="42.1232470" lon="-2.6478200">
        <ele>997.9</ele>
        <time>2022-08-14T06:34:37Z</time>
      </trkpt>
      <trkpt lat="42.1232250" lon="-2.6477870">
        <ele>998.1</ele>
        <time>2022-08-14T06:34:38Z</time>
      </trkpt>
      <trkpt lat="42.1230630" lon="-2.6476040">
        <ele>999.4</ele>
        <time>2022-08-14T06:34:44Z</time>
      </trkpt>
      <trkpt lat="42.1230180" lon="-2.6475520">
        <ele>999.7</ele>
        <time>2022-08-14T06:34:46Z</time>
      </trkpt>
      <trkpt lat="42.1228930" lon="-2.6474640">
        <ele>1000.6</ele>
        <time>2022-08-14T06:34:50Z</time>
      </trkpt>
      <trkpt lat="42.1227390" lon="-2.6473240">
        <ele>1001.8</ele>
        <time>2022-08-14T06:34:55Z</time>
      </trkpt>
      <trkpt lat="42.1227020" lon="-2.6472990">
        <ele>1002.1</ele>
        <time>2022-08-14T06:34:56Z</time>
      </trkpt>
      <trkpt lat="42.1225450" lon="-2.6473000">
        <ele>1003.0</ele>
        <time>2022-08-14T06:35:00Z</time>
      </trkpt>
      <trkpt lat="42.1224730" lon="-2.6472650">
        <ele>1003.5</ele>
        <time>2022-08-14T06:35:03Z</time>
      </trkpt>
      <trkpt lat="42.1223720" lon="-2.6472720">
        <ele>1004.1</ele>
        <time>2022-08-14T06:35:07Z</time>
      </trkpt>
      <trkpt lat="42.1223020" lon="-2.6472520">
        <ele>1004.5</ele>
        <time>2022-08-14T06:35:10Z</time>
      </trkpt>
      <trkpt lat="42.1222750" lon="-2.6472440">
        <ele>1004.7</ele>
        <time>2022-08-14T06:35:11Z</time>
      </trkpt>
      <trkpt lat="42.1221360" lon="-2.6472080">
        <ele>1005.6</ele>
        <time>2022-08-14T06:35:17Z</time>
      </trkpt>
      <trkpt lat="42.1221160" lon="-2.6471980">
        <ele>1005.7</ele>
        <time>2022-08-14T06:35:18Z</time>
      </trkpt>
      <trkpt lat="42.1220240" lon="-2.6471510">
        <ele>1006.2</ele>
        <time>2022-08-14T06:35:22Z</time>
      </trkpt>
      <trkpt lat="42.1219580" lon="-2.6471190">
        <ele>1006.6</ele>
        <time>2022-08-14T06:35:25Z</time>
      </trkpt>
      <trkpt lat="42.1218740" lon="-2.6470560">
        <ele>1007.1</ele>
        <time>2022-08-14T06:35:29Z</time>
      </trkpt>
      <trkpt lat="42.1217610" lon="-2.6469850">
        <ele>1007.7</ele>
        <time>2022-08-14T06:35:34Z</time>
      </trkpt>
      <trkpt lat="42.1217380" lon="-2.6469670">
        <ele>1007.9</ele>
        <time>2022-08-14T06:35:35Z</time>
      </trkpt>
      <trkpt lat="42.1216170" lon="-2.6468620">
        <ele>1008.5</ele>
        <time>2022-08-14T06:35:41Z</time>
      </trkpt>
      <trkpt lat="42.1215990" lon="-2.6468470">
        <ele>1008.6</ele>
        <time>2022-08-14T06:35:42Z</time>
      </trkpt>
      <trkpt lat="42.1214580" lon="-2.6467060">
        <ele>1009.4</ele>
        <time>2022-08-14T06:35:48Z</time>
      </trkpt>
      <trkpt lat="42.1214230" lon="-2.6466570">
        <ele>1009.7</ele>
        <time>2022-08-14T06:35:50Z</time>
      </trkpt>
      <trkpt lat="42.1212740" lon="-2.6464930">
        <ele>1010.4</ele>
        <time>2022-08-14T06:35:57Z</time>
      </trkpt>
      <trkpt lat="42.1212300" lon="-2.6464470">
        <ele>1010.6</ele>
        <time>2022-08-14T06:35:59Z</time>
      </trkpt>
      <trkpt lat="42.1210920" lon="-2.6463220">
        <ele>1011.0</ele>
        <time>2022-08-14T06:36:05Z</time>
      </trkpt>
      <trkpt lat="42.1210680" lon="-2.6462980">
        <ele>1011.0</ele>
        <time>2022-08-14T06:36:06Z</time>
      </trkpt>
      <trkpt lat="42.1209660" lon="-2.6462000">
        <ele>1010.9</ele>
        <time>2022-08-14T06:36:10Z</time>
      </trkpt>
      <trkpt lat="42.1207960" lon="-2.6460400">
        <ele>1011.2</ele>
        <time>2022-08-14T06:36:16Z</time>
      </trkpt>
      <trkpt lat="42.1206740" lon="-2.6458810">
        <ele>1011.7</ele>
        <time>2022-08-14T06:36:21Z</time>
      </trkpt>
      <trkpt lat="42.1206340" lon="-2.6458260">
        <ele>1011.9</ele>
        <time>2022-08-14T06:36:23Z</time>
      </trkpt>
      <trkpt lat="42.1205870" lon="-2.6457530">
        <ele>1012.2</ele>
        <time>2022-08-14T06:36:25Z</time>
      </trkpt>
      <trkpt lat="42.1204260" lon="-2.6454940">
        <ele>1013.6</ele>
        <time>2022-08-14T06:36:33Z</time>
      </trkpt>
      <trkpt lat="42.1204010" lon="-2.6454550">
        <ele>1013.8</ele>
        <time>2022-08-14T06:36:34Z</time>
      </trkpt>
      <trkpt lat="42.1203840" lon="-2.6454300">
        <ele>1014.0</ele>
        <time>2022-08-14T06:36:35Z</time>
      </trkpt>
      <trkpt lat="42.1202120" lon="-2.6452520">
        <ele>1015.1</ele>
        <time>2022-08-14T06:36:42Z</time>
      </trkpt>
      <trkpt lat="42.1200130" lon="-2.6451900">
        <ele>1016.0</ele>
        <time>2022-08-14T06:36:49Z</time>
      </trkpt>
      <trkpt lat="42.1199840" lon="-2.6451880">
        <ele>1016.1</ele>
        <time>2022-08-14T06:36:50Z</time>
      </trkpt>
      <trkpt lat="42.1198340" lon="-2.6451810">
        <ele>1016.7</ele>
        <time>2022-08-14T06:36:55Z</time>
      </trkpt>
      <trkpt lat="42.1196580" lon="-2.6451560">
        <ele>1017.3</ele>
        <time>2022-08-14T06:37:01Z</time>
      </trkpt>
      <trkpt lat="42.1196270" lon="-2.6451520">
        <ele>1017.4</ele>
        <time>2022-08-14T06:37:02Z</time>
      </trkpt>
      <trkpt lat="42.1194720" lon="-2.6451150">
        <ele>1018.0</ele>
        <time>2022-08-14T06:37:08Z</time>
      </trkpt>
      <trkpt lat="42.1194410" lon="-2.6451080">
        <ele>1018.2</ele>
        <time>2022-08-14T06:37:09Z</time>
      </trkpt>
      <trkpt lat="42.1191970" lon="-2.6450160">
        <ele>1019.2</ele>
        <time>2022-08-14T06:37:16Z</time>
      </trkpt>
      <trkpt lat="42.1191040" lon="-2.6449680">
        <ele>1019.6</ele>
        <time>2022-08-14T06:37:19Z</time>
      </trkpt>
      <trkpt lat="42.1190520" lon="-2.6449280">
        <ele>1019.9</ele>
        <time>2022-08-14T06:37:21Z</time>
      </trkpt>
      <trkpt lat="42.1190230" lon="-2.6449050">
        <ele>1020.1</ele>
        <time>2022-08-14T06:37:22Z</time>
      </trkpt>
      <trkpt lat="42.1189110" lon="-2.6448470">
        <ele>1020.6</ele>
        <time>2022-08-14T06:37:26Z</time>
      </trkpt>
      <trkpt lat="42.1187950" lon="-2.6447990">
        <ele>1021.1</ele>
        <time>2022-08-14T06:37:30Z</time>
      </trkpt>
      <trkpt lat="42.1187430" lon="-2.6447780">
        <ele>1021.3</ele>
        <time>2022-08-14T06:37:32Z</time>
      </trkpt>
      <trkpt lat="42.1185990" lon="-2.6447310">
        <ele>1022.0</ele>
        <time>2022-08-14T06:37:37Z</time>
      </trkpt>
      <trkpt lat="42.1185720" lon="-2.6447220">
        <ele>1022.1</ele>
        <time>2022-08-14T06:37:38Z</time>
      </trkpt>
      <trkpt lat="42.1183950" lon="-2.6446890">
        <ele>1022.9</ele>
        <time>2022-08-14T06:37:44Z</time>
      </trkpt>
      <trkpt lat="42.1183350" lon="-2.6446600">
        <ele>1023.2</ele>
        <time>2022-08-14T06:37:46Z</time>
      </trkpt>
      <trkpt lat="42.1182500" lon="-2.6446230">
        <ele>1023.7</ele>
        <time>2022-08-14T06:37:49Z</time>
      </trkpt>
      <trkpt lat="42.1181170" lon="-2.6445850">
        <ele>1024.3</ele>
        <time>2022-08-14T06:37:54Z</time>
      </trkpt>
      <trkpt lat="42.1179850" lon="-2.6445390">
        <ele>1024.9</ele>
        <time>2022-08-14T06:37:59Z</time>
      </trkpt>
      <trkpt lat="42.1179010" lon="-2.6445070">
        <ele>1025.3</ele>
        <time>2022-08-14T06:38:02Z</time>
      </trkpt>
      <trkpt lat="42.1177860" lon="-2.6444500">
        <ele>1025.8</ele>
        <time>2022-08-14T06:38:06Z</time>
      </trkpt>
      <trkpt lat="42.1177020" lon="-2.6443980">
        <ele>1026.2</ele>
        <time>2022-08-14T06:38:09Z</time>
      </trkpt>
      <trkpt lat="42.1175510" lon="-2.6443170">
        <ele>1026.9</ele>
        <time>2022-08-14T06:38:15Z</time>
      </trkpt>
      <trkpt lat="42.1174390" lon="-2.6442260">
        <ele>1027.5</ele>
        <time>2022-08-14T06:38:19Z</time>
      </trkpt>
      <trkpt lat="42.1174140" lon="-2.6442000">
        <ele>1027.7</ele>
        <time>2022-08-14T06:38:20Z</time>
      </trkpt>
      <trkpt lat="42.1172790" lon="-2.6441020">
        <ele>1028.4</ele>
        <time>2022-08-14T06:38:25Z</time>
      </trkpt>
      <trkpt lat="42.1172210" lon="-2.6440700">
        <ele>1028.7</ele>
        <time>2022-08-14T06:38:27Z</time>
      </trkpt>
      <trkpt lat="42.1171670" lon="-2.6440350">
        <ele>1029.0</ele>
        <time>2022-08-14T06:38:29Z</time>
      </trkpt>
      <trkpt lat="42.1170160" lon="-2.6439400">
        <ele>1029.7</ele>
        <time>2022-08-14T06:38:35Z</time>
      </trkpt>
      <trkpt lat="42.1169650" lon="-2.6439110">
        <ele>1029.9</ele>
        <time>2022-08-14T06:38:37Z</time>
      </trkpt>
      <trkpt lat="42.1168900" lon="-2.6438330">
        <ele>1030.3</ele>
        <time>2022-08-14T06:38:40Z</time>
      </trkpt>
      <trkpt lat="42.1167960" lon="-2.6437480">
        <ele>1030.7</ele>
        <time>2022-08-14T06:38:44Z</time>
      </trkpt>
      <trkpt lat="42.1167750" lon="-2.6437290">
        <ele>1030.8</ele>
        <time>2022-08-14T06:38:45Z</time>
      </trkpt>
      <trkpt lat="42.1167560" lon="-2.6436980">
        <ele>1031.0</ele>
        <time>2022-08-14T06:38:46Z</time>
      </trkpt>
      <trkpt lat="42.1166510" lon="-2.6435130">
        <ele>1031.8</ele>
        <time>2022-08-14T06:38:52Z</time>
      </trkpt>
      <trkpt lat="42.1166220" lon="-2.6434450">
        <ele>1032.0</ele>
        <time>2022-08-14T06:38:54Z</time>
      </trkpt>
      <trkpt lat="42.1165220" lon="-2.6431770">
        <ele>1033.2</ele>
        <time>2022-08-14T06:39:01Z</time>
      </trkpt>
      <trkpt lat="42.1164580" lon="-2.6429840">
        <ele>1034.0</ele>
        <time>2022-08-14T06:39:06Z</time>
      </trkpt>
      <trkpt lat="42.1164040" lon="-2.6428450">
        <ele>1034.7</ele>
        <time>2022-08-14T06:39:10Z</time>
      </trkpt>
      <trkpt lat="42.1163800" lon="-2.6427650">
        <ele>1035.1</ele>
        <time>2022-08-14T06:39:12Z</time>
      </trkpt>
      <trkpt lat="42.1162800" lon="-2.6425830">
        <ele>1036.1</ele>
        <time>2022-08-14T06:39:18Z</time>
      </trkpt>
      <trkpt lat="42.1162440" lon="-2.6425260">
        <ele>1036.4</ele>
        <time>2022-08-14T06:39:20Z</time>
      </trkpt>
      <trkpt lat="42.1161360" lon="-2.6424080">
        <ele>1037.2</ele>
        <time>2022-08-14T06:39:25Z</time>
      </trkpt>
      <trkpt lat="42.1160880" lon="-2.6423690">
        <ele>1037.5</ele>
        <time>2022-08-14T06:39:27Z</time>
      </trkpt>
      <trkpt lat="42.1159690" lon="-2.6422890">
        <ele>1038.2</ele>
        <time>2022-08-14T06:39:32Z</time>
      </trkpt>
      <trkpt lat="42.1159460" lon="-2.6422750">
        <ele>1038.3</ele>
        <time>2022-08-14T06:39:33Z</time>
      </trkpt>
      <trkpt lat="42.1158170" lon="-2.6422320">
        <ele>1039.0</ele>
        <time>2022-08-14T06:39:38Z</time>
      </trkpt>
      <trkpt lat="42.1156530" lon="-2.6421910">
        <ele>1039.9</ele>
        <time>2022-08-14T06:39:44Z</time>
      </trkpt>
      <trkpt lat="42.1156000" lon="-2.6421700">
        <ele>1040.1</ele>
        <time>2022-08-14T06:39:46Z</time>
      </trkpt>
      <trkpt lat="42.1154910" lon="-2.6421160">
        <ele>1040.7</ele>
        <time>2022-08-14T06:39:50Z</time>
      </trkpt>
      <trkpt lat="42.1154130" lon="-2.6420670">
        <ele>1041.1</ele>
        <time>2022-08-14T06:39:53Z</time>
      </trkpt>
      <trkpt lat="42.1153390" lon="-2.6420150">
        <ele>1041.5</ele>
        <time>2022-08-14T06:39:56Z</time>
      </trkpt>
      <trkpt lat="42.1152030" lon="-2.6419080">
        <ele>1042.3</ele>
        <time>2022-08-14T06:40:02Z</time>
      </trkpt>
      <trkpt lat="42.1151580" lon="-2.6418630">
        <ele>1042.6</ele>
        <time>2022-08-14T06:40:04Z</time>
      </trkpt>
      <trkpt lat="42.1150490" lon="-2.6417130">
        <ele>1043.4</ele>
        <time>2022-08-14T06:40:10Z</time>
      </trkpt>
      <trkpt lat="42.1149780" lon="-2.6416150">
        <ele>1043.9</ele>
        <time>2022-08-14T06:40:14Z</time>
      </trkpt>
      <trkpt lat="42.1149290" lon="-2.6415340">
        <ele>1044.4</ele>
        <time>2022-08-14T06:40:17Z</time>
      </trkpt>
      <trkpt lat="42.1148280" lon="-2.6413840">
        <ele>1045.2</ele>
        <time>2022-08-14T06:40:23Z</time>
      </trkpt>
      <trkpt lat="42.1147820" lon="-2.6413070">
        <ele>1045.6</ele>
        <time>2022-08-14T06:40:26Z</time>
      </trkpt>
      <trkpt lat="42.1146780" lon="-2.6411500">
        <ele>1046.5</ele>
        <time>2022-08-14T06:40:32Z</time>
      </trkpt>
      <trkpt lat="42.1145560" lon="-2.6409980">
        <ele>1047.4</ele>
        <time>2022-08-14T06:40:38Z</time>
      </trkpt>
      <trkpt lat="42.1145150" lon="-2.6409570">
        <ele>1047.7</ele>
        <time>2022-08-14T06:40:40Z</time>
      </trkpt>
      <trkpt lat="42.1144250" lon="-2.6408860">
        <ele>1048.2</ele>
        <time>2022-08-14T06:40:44Z</time>
      </trkpt>
      <trkpt lat="42.1143240" lon="-2.6408160">
        <ele>1048.6</ele>
        <time>2022-08-14T06:40:48Z</time>
      </trkpt>
      <trkpt lat="42.1141960" lon="-2.6407550">
        <ele>1049.1</ele>
        <time>2022-08-14T06:40:53Z</time>
      </trkpt>
      <trkpt lat="42.1141440" lon="-2.6407380">
        <ele>1049.3</ele>
        <time>2022-08-14T06:40:55Z</time>
      </trkpt>
      <trkpt lat="42.1139620" lon="-2.6406930">
        <ele>1049.9</ele>
        <time>2022-08-14T06:41:02Z</time>
      </trkpt>
      <trkpt lat="42.1139320" lon="-2.6406840">
        <ele>1050.0</ele>
        <time>2022-08-14T06:41:03Z</time>
      </trkpt>
      <trkpt lat="42.1137060" lon="-2.6406120">
        <ele>1050.9</ele>
        <time>2022-08-14T06:41:12Z</time>
      </trkpt>
      <trkpt lat="42.1136470" lon="-2.6405950">
        <ele>1051.1</ele>
        <time>2022-08-14T06:41:14Z</time>
      </trkpt>
      <trkpt lat="42.1134900" lon="-2.6405580">
        <ele>1051.7</ele>
        <time>2022-08-14T06:41:20Z</time>
      </trkpt>
      <trkpt lat="42.1134650" lon="-2.6405510">
        <ele>1051.8</ele>
        <time>2022-08-14T06:41:21Z</time>
      </trkpt>
      <trkpt lat="42.1133120" lon="-2.6405400">
        <ele>1052.3</ele>
        <time>2022-08-14T06:41:27Z</time>
      </trkpt>
      <trkpt lat="42.1131900" lon="-2.6405200">
        <ele>1052.7</ele>
        <time>2022-08-14T06:41:32Z</time>
      </trkpt>
      <trkpt lat="42.1131410" lon="-2.6405180">
        <ele>1052.9</ele>
        <time>2022-08-14T06:41:34Z</time>
      </trkpt>
      <trkpt lat="42.1129270" lon="-2.6404880">
        <ele>1053.7</ele>
        <time>2022-08-14T06:41:42Z</time>
      </trkpt>
      <trkpt lat="42.1128130" lon="-2.6404590">
        <ele>1054.1</ele>
        <time>2022-08-14T06:41:47Z</time>
      </trkpt>
      <trkpt lat="42.1127640" lon="-2.6404160">
        <ele>1054.4</ele>
        <time>2022-08-14T06:41:50Z</time>
      </trkpt>
      <trkpt lat="42.1127410" lon="-2.6403970">
        <ele>1054.5</ele>
        <time>2022-08-14T06:41:51Z</time>
      </trkpt>
      <trkpt lat="42.1127260" lon="-2.6403960">
        <ele>1054.5</ele>
        <time>2022-08-14T06:41:52Z</time>
      </trkpt>
      <trkpt lat="42.1126800" lon="-2.6403720">
        <ele>1054.7</ele>
        <time>2022-08-14T06:41:54Z</time>
      </trkpt>
      <trkpt lat="42.1126080" lon="-2.6403430">
        <ele>1055.0</ele>
        <time>2022-08-14T06:41:57Z</time>
      </trkpt>
      <trkpt lat="42.1125180" lon="-2.6402940">
        <ele>1055.4</ele>
        <time>2022-08-14T06:42:00Z</time>
      </trkpt>
      <trkpt lat="42.1124890" lon="-2.6402840">
        <ele>1055.5</ele>
        <time>2022-08-14T06:42:01Z</time>
      </trkpt>
      <trkpt lat="42.1124450" lon="-2.6402450">
        <ele>1055.7</ele>
        <time>2022-08-14T06:42:03Z</time>
      </trkpt>
      <trkpt lat="42.1124010" lon="-2.6402130">
        <ele>1055.9</ele>
        <time>2022-08-14T06:42:05Z</time>
      </trkpt>
      <trkpt lat="42.1123000" lon="-2.6401210">
        <ele>1056.4</ele>
        <time>2022-08-14T06:42:09Z</time>
      </trkpt>
      <trkpt lat="42.1122110" lon="-2.6399940">
        <ele>1056.9</ele>
        <time>2022-08-14T06:42:14Z</time>
      </trkpt>
      <trkpt lat="42.1121610" lon="-2.6399150">
        <ele>1057.1</ele>
        <time>2022-08-14T06:42:17Z</time>
      </trkpt>
      <trkpt lat="42.1121190" lon="-2.6398190">
        <ele>1057.4</ele>
        <time>2022-08-14T06:42:20Z</time>
      </trkpt>
      <trkpt lat="42.1120490" lon="-2.6396600">
        <ele>1057.8</ele>
        <time>2022-08-14T06:42:25Z</time>
      </trkpt>
      <trkpt lat="42.1119850" lon="-2.6394830">
        <ele>1058.3</ele>
        <time>2022-08-14T06:42:30Z</time>
      </trkpt>
      <trkpt lat="42.1119020" lon="-2.6392500">
        <ele>1058.9</ele>
        <time>2022-08-14T06:42:37Z</time>
      </trkpt>
      <trkpt lat="42.1118720" lon="-2.6391860">
        <ele>1059.1</ele>
        <time>2022-08-14T06:42:39Z</time>
      </trkpt>
      <trkpt lat="42.1118440" lon="-2.6391190">
        <ele>1059.3</ele>
        <time>2022-08-14T06:42:41Z</time>
      </trkpt>
      <trkpt lat="42.1117500" lon="-2.6388840">
        <ele>1060.0</ele>
        <time>2022-08-14T06:42:48Z</time>
      </trkpt>
      <trkpt lat="42.1117340" lon="-2.6388450">
        <ele>1060.1</ele>
        <time>2022-08-14T06:42:49Z</time>
      </trkpt>
      <trkpt lat="42.1116740" lon="-2.6386670">
        <ele>1060.7</ele>
        <time>2022-08-14T06:42:54Z</time>
      </trkpt>
      <trkpt lat="42.1116040" lon="-2.6384650">
        <ele>1061.4</ele>
        <time>2022-08-14T06:43:00Z</time>
      </trkpt>
      <trkpt lat="42.1115840" lon="-2.6384040">
        <ele>1061.6</ele>
        <time>2022-08-14T06:43:02Z</time>
      </trkpt>
      <trkpt lat="42.1115350" lon="-2.6381850">
        <ele>1062.3</ele>
        <time>2022-08-14T06:43:08Z</time>
      </trkpt>
      <trkpt lat="42.1115220" lon="-2.6380800">
        <ele>1062.7</ele>
        <time>2022-08-14T06:43:11Z</time>
      </trkpt>
      <trkpt lat="42.1114790" lon="-2.6378650">
        <ele>1063.6</ele>
        <time>2022-08-14T06:43:17Z</time>
      </trkpt>
      <trkpt lat="42.1114710" lon="-2.6377960">
        <ele>1063.9</ele>
        <time>2022-08-14T06:43:19Z</time>
      </trkpt>
      <trkpt lat="42.1114170" lon="-2.6375220">
        <ele>1065.2</ele>
        <time>2022-08-14T06:43:27Z</time>
      </trkpt>
      <trkpt lat="42.1113970" lon="-2.6374630">
        <ele>1065.5</ele>
        <time>2022-08-14T06:43:29Z</time>
      </trkpt>
      <trkpt lat="42.1113190" lon="-2.6372770">
        <ele>1066.5</ele>
        <time>2022-08-14T06:43:35Z</time>
      </trkpt>
      <trkpt lat="42.1113010" lon="-2.6372560">
        <ele>1066.6</ele>
        <time>2022-08-14T06:43:36Z</time>
      </trkpt>
      <trkpt lat="42.1112660" lon="-2.6372190">
        <ele>1066.9</ele>
        <time>2022-08-14T06:43:38Z</time>
      </trkpt>
      <trkpt lat="42.1111130" lon="-2.6370760">
        <ele>1067.6</ele>
        <time>2022-08-14T06:43:45Z</time>
      </trkpt>
      <trkpt lat="42.1110220" lon="-2.6370070">
        <ele>1068.0</ele>
        <time>2022-08-14T06:43:49Z</time>
      </trkpt>
      <trkpt lat="42.1109590" lon="-2.6369590">
        <ele>1068.2</ele>
        <time>2022-08-14T06:43:52Z</time>
      </trkpt>
      <trkpt lat="42.1108710" lon="-2.6368710">
        <ele>1068.6</ele>
        <time>2022-08-14T06:43:56Z</time>
      </trkpt>
      <trkpt lat="42.1108450" lon="-2.6368570">
        <ele>1068.7</ele>
        <time>2022-08-14T06:43:57Z</time>
      </trkpt>
      <trkpt lat="42.1108000" lon="-2.6368210">
        <ele>1068.9</ele>
        <time>2022-08-14T06:43:59Z</time>
      </trkpt>
      <trkpt lat="42.1106840" lon="-2.6367430">
        <ele>1069.4</ele>
        <time>2022-08-14T06:44:04Z</time>
      </trkpt>
      <trkpt lat="42.1106440" lon="-2.6367250">
        <ele>1069.6</ele>
        <time>2022-08-14T06:44:06Z</time>
      </trkpt>
      <trkpt lat="42.1105830" lon="-2.6366860">
        <ele>1069.9</ele>
        <time>2022-08-14T06:44:09Z</time>
      </trkpt>
      <trkpt lat="42.1105160" lon="-2.6366150">
        <ele>1070.4</ele>
        <time>2022-08-14T06:44:13Z</time>
      </trkpt>
      <trkpt lat="42.1104740" lon="-2.6365800">
        <ele>1070.6</ele>
        <time>2022-08-14T06:44:16Z</time>
      </trkpt>
      <trkpt lat="42.1104560" lon="-2.6365730">
        <ele>1070.7</ele>
        <time>2022-08-14T06:44:17Z</time>
      </trkpt>
      <trkpt lat="42.1103210" lon="-2.6363930">
        <ele>1071.8</ele>
        <time>2022-08-14T06:44:25Z</time>
      </trkpt>
      <trkpt lat="42.1102360" lon="-2.6362370">
        <ele>1072.7</ele>
        <time>2022-08-14T06:44:32Z</time>
      </trkpt>
      <trkpt lat="42.1102210" lon="-2.6362080">
        <ele>1072.9</ele>
        <time>2022-08-14T06:44:33Z</time>
      </trkpt>
      <trkpt lat="42.1101760" lon="-2.6360590">
        <ele>1073.6</ele>
        <time>2022-08-14T06:44:38Z</time>
      </trkpt>
      <trkpt lat="42.1101540" lon="-2.6359530">
        <ele>1074.0</ele>
        <time>2022-08-14T06:44:41Z</time>
      </trkpt>
      <trkpt lat="42.1101370" lon="-2.6357970">
        <ele>1074.6</ele>
        <time>2022-08-14T06:44:46Z</time>
      </trkpt>
      <trkpt lat="42.1101220" lon="-2.6357440">
        <ele>1074.8</ele>
        <time>2022-08-14T06:44:48Z</time>
      </trkpt>
      <trkpt lat="42.1100990" lon="-2.6355530">
        <ele>1075.6</ele>
        <time>2022-08-14T06:44:54Z</time>
      </trkpt>
      <trkpt lat="42.1100900" lon="-2.6354310">
        <ele>1076.1</ele>
        <time>2022-08-14T06:44:58Z</time>
      </trkpt>
      <trkpt lat="42.1100900" lon="-2.6353090">
        <ele>1076.5</ele>
        <time>2022-08-14T06:45:02Z</time>
      </trkpt>
      <trkpt lat="42.1100810" lon="-2.6350970">
        <ele>1077.3</ele>
        <time>2022-08-14T06:45:09Z</time>
      </trkpt>
      <trkpt lat="42.1100760" lon="-2.6349810">
        <ele>1077.7</ele>
        <time>2022-08-14T06:45:13Z</time>
      </trkpt>
      <trkpt lat="42.1100560" lon="-2.6347920">
        <ele>1078.3</ele>
        <time>2022-08-14T06:45:20Z</time>
      </trkpt>
      <trkpt lat="42.1100620" lon="-2.6347730">
        <ele>1078.4</ele>
        <time>2022-08-14T06:45:21Z</time>
      </trkpt>
      <trkpt lat="42.1100730" lon="-2.6347590">
        <ele>1078.4</ele>
        <time>2022-08-14T06:45:22Z</time>
      </trkpt>
      <trkpt lat="42.1100860" lon="-2.6347540">
        <ele>1078.5</ele>
        <time>2022-08-14T06:45:23Z</time>
      </trkpt>
      <trkpt lat="42.1101180" lon="-2.6347620">
        <ele>1078.7</ele>
        <time>2022-08-14T06:45:25Z</time>
      </trkpt>
      <trkpt lat="42.1101280" lon="-2.6347760">
        <ele>1078.7</ele>
        <time>2022-08-14T06:45:26Z</time>
      </trkpt>
      <trkpt lat="42.1101390" lon="-2.6348110">
        <ele>1078.9</ele>
        <time>2022-08-14T06:45:28Z</time>
      </trkpt>
      <trkpt lat="42.1101410" lon="-2.6348300">
        <ele>1078.9</ele>
        <time>2022-08-14T06:45:29Z</time>
      </trkpt>
      <trkpt lat="42.1101430" lon="-2.6348390">
        <ele>1079.0</ele>
        <time>2022-08-14T06:45:30Z</time>
      </trkpt>
      <trkpt lat="42.1101410" lon="-2.6348420">
        <ele>1079.0</ele>
        <time>2022-08-14T06:50:06Z</time>
      </trkpt>
      <trkpt lat="42.1101200" lon="-2.6348490">
        <ele>1079.1</ele>
        <time>2022-08-14T06:50:07Z</time>
      </trkpt>
      <trkpt lat="42.1101020" lon="-2.6348500">
        <ele>1079.2</ele>
        <time>2022-08-14T06:50:08Z</time>
      </trkpt>
      <trkpt lat="42.1100860" lon="-2.6348340">
        <ele>1079.3</ele>
        <time>2022-08-14T06:50:10Z</time>
      </trkpt>
      <trkpt lat="42.1100770" lon="-2.6348230">
        <ele>1079.3</ele>
        <time>2022-08-14T06:50:11Z</time>
      </trkpt>
      <trkpt lat="42.1100680" lon="-2.6348080">
        <ele>1079.4</ele>
        <time>2022-08-14T06:50:12Z</time>
      </trkpt>
      <trkpt lat="42.1100560" lon="-2.6347650">
        <ele>1079.6</ele>
        <time>2022-08-14T06:50:14Z</time>
      </trkpt>
      <trkpt lat="42.1100500" lon="-2.6347130">
        <ele>1079.8</ele>
        <time>2022-08-14T06:50:16Z</time>
      </trkpt>
      <trkpt lat="42.1100510" lon="-2.6346820">
        <ele>1079.9</ele>
        <time>2022-08-14T06:50:17Z</time>
      </trkpt>
      <trkpt lat="42.1100500" lon="-2.6346500">
        <ele>1080.0</ele>
        <time>2022-08-14T06:50:18Z</time>
      </trkpt>
      <trkpt lat="42.1100470" lon="-2.6345890">
        <ele>1080.2</ele>
        <time>2022-08-14T06:50:20Z</time>
      </trkpt>
      <trkpt lat="42.1100450" lon="-2.6344750">
        <ele>1080.7</ele>
        <time>2022-08-14T06:50:24Z</time>
      </trkpt>
      <trkpt lat="42.1100410" lon="-2.6343900">
        <ele>1081.0</ele>
        <time>2022-08-14T06:50:27Z</time>
      </trkpt>
      <trkpt lat="42.1100300" lon="-2.6342540">
        <ele>1081.5</ele>
        <time>2022-08-14T06:50:32Z</time>
      </trkpt>
      <trkpt lat="42.1100230" lon="-2.6341160">
        <ele>1082.1</ele>
        <time>2022-08-14T06:50:37Z</time>
      </trkpt>
      <trkpt lat="42.1100150" lon="-2.6339510">
        <ele>1082.7</ele>
        <time>2022-08-14T06:50:42Z</time>
      </trkpt>
      <trkpt lat="42.1100160" lon="-2.6338890">
        <ele>1083.0</ele>
        <time>2022-08-14T06:50:44Z</time>
      </trkpt>
      <trkpt lat="42.1100180" lon="-2.6338540">
        <ele>1083.1</ele>
        <time>2022-08-14T06:50:45Z</time>
      </trkpt>
      <trkpt lat="42.1100170" lon="-2.6337770">
        <ele>1083.5</ele>
        <time>2022-08-14T06:50:47Z</time>
      </trkpt>
      <trkpt lat="42.1099990" lon="-2.6336270">
        <ele>1084.2</ele>
        <time>2022-08-14T06:50:51Z</time>
      </trkpt>
      <trkpt lat="42.1099970" lon="-2.6335890">
        <ele>1084.3</ele>
        <time>2022-08-14T06:50:52Z</time>
      </trkpt>
      <trkpt lat="42.1099420" lon="-2.6333730">
        <ele>1085.1</ele>
        <time>2022-08-14T06:50:58Z</time>
      </trkpt>
      <trkpt lat="42.1099190" lon="-2.6333070">
        <ele>1085.4</ele>
        <time>2022-08-14T06:51:00Z</time>
      </trkpt>
      <trkpt lat="42.1098100" lon="-2.6330970">
        <ele>1086.3</ele>
        <time>2022-08-14T06:51:07Z</time>
      </trkpt>
      <trkpt lat="42.1097720" lon="-2.6330440">
        <ele>1086.6</ele>
        <time>2022-08-14T06:51:09Z</time>
      </trkpt>
      <trkpt lat="42.1096610" lon="-2.6328910">
        <ele>1087.5</ele>
        <time>2022-08-14T06:51:15Z</time>
      </trkpt>
      <trkpt lat="42.1095420" lon="-2.6327360">
        <ele>1088.4</ele>
        <time>2022-08-14T06:51:21Z</time>
      </trkpt>
      <trkpt lat="42.1095240" lon="-2.6327120">
        <ele>1088.5</ele>
        <time>2022-08-14T06:51:22Z</time>
      </trkpt>
      <trkpt lat="42.1094840" lon="-2.6326610">
        <ele>1088.9</ele>
        <time>2022-08-14T06:51:24Z</time>
      </trkpt>
      <trkpt lat="42.1094030" lon="-2.6325670">
        <ele>1089.5</ele>
        <time>2022-08-14T06:51:28Z</time>
      </trkpt>
      <trkpt lat="42.1093080" lon="-2.6324450">
        <ele>1090.3</ele>
        <time>2022-08-14T06:51:33Z</time>
      </trkpt>
      <trkpt lat="42.1092700" lon="-2.6323970">
        <ele>1090.6</ele>
        <time>2022-08-14T06:51:35Z</time>
      </trkpt>
      <trkpt lat="42.1091730" lon="-2.6322770">
        <ele>1091.4</ele>
        <time>2022-08-14T06:51:40Z</time>
      </trkpt>
      <trkpt lat="42.1090890" lon="-2.6321700">
        <ele>1092.0</ele>
        <time>2022-08-14T06:51:44Z</time>
      </trkpt>
      <trkpt lat="42.1090050" lon="-2.6320780">
        <ele>1092.6</ele>
        <time>2022-08-14T06:51:48Z</time>
      </trkpt>
      <trkpt lat="42.1089170" lon="-2.6319910">
        <ele>1093.2</ele>
        <time>2022-08-14T06:51:52Z</time>
      </trkpt>
      <trkpt lat="42.1087700" lon="-2.6318880">
        <ele>1094.3</ele>
        <time>2022-08-14T06:51:58Z</time>
      </trkpt>
      <trkpt lat="42.1087460" lon="-2.6318780">
        <ele>1094.4</ele>
        <time>2022-08-14T06:51:59Z</time>
      </trkpt>
      <trkpt lat="42.1086240" lon="-2.6318350">
        <ele>1095.3</ele>
        <time>2022-08-14T06:52:04Z</time>
      </trkpt>
      <trkpt lat="42.1085440" lon="-2.6318130">
        <ele>1095.8</ele>
        <time>2022-08-14T06:52:07Z</time>
      </trkpt>
      <trkpt lat="42.1084530" lon="-2.6317820">
        <ele>1096.5</ele>
        <time>2022-08-14T06:52:11Z</time>
      </trkpt>
      <trkpt lat="42.1084050" lon="-2.6317840">
        <ele>1096.8</ele>
        <time>2022-08-14T06:52:13Z</time>
      </trkpt>
      <trkpt lat="42.1083870" lon="-2.6317830">
        <ele>1096.9</ele>
        <time>2022-08-14T06:52:14Z</time>
      </trkpt>
      <trkpt lat="42.1083440" lon="-2.6317820">
        <ele>1097.2</ele>
        <time>2022-08-14T06:52:16Z</time>
      </trkpt>
      <trkpt lat="42.1083230" lon="-2.6317860">
        <ele>1097.4</ele>
        <time>2022-08-14T06:52:17Z</time>
      </trkpt>
      <trkpt lat="42.1082470" lon="-2.6318180">
        <ele>1097.9</ele>
        <time>2022-08-14T06:52:21Z</time>
      </trkpt>
      <trkpt lat="42.1082230" lon="-2.6318420">
        <ele>1098.1</ele>
        <time>2022-08-14T06:52:22Z</time>
      </trkpt>
      <trkpt lat="42.1081140" lon="-2.6319250">
        <ele>1099.0</ele>
        <time>2022-08-14T06:52:26Z</time>
      </trkpt>
      <trkpt lat="42.1080530" lon="-2.6319610">
        <ele>1099.4</ele>
        <time>2022-08-14T06:52:28Z</time>
      </trkpt>
      <trkpt lat="42.1080270" lon="-2.6319740">
        <ele>1099.6</ele>
        <time>2022-08-14T06:52:29Z</time>
      </trkpt>
      <trkpt lat="42.1080020" lon="-2.6319860">
        <ele>1099.7</ele>
        <time>2022-08-14T06:52:30Z</time>
      </trkpt>
      <trkpt lat="42.1079280" lon="-2.6320460">
        <ele>1100.2</ele>
        <time>2022-08-14T06:52:33Z</time>
      </trkpt>
      <trkpt lat="42.1078820" lon="-2.6320940">
        <ele>1100.6</ele>
        <time>2022-08-14T06:52:35Z</time>
      </trkpt>
      <trkpt lat="42.1077460" lon="-2.6321860">
        <ele>1101.5</ele>
        <time>2022-08-14T06:52:41Z</time>
      </trkpt>
      <trkpt lat="42.1077030" lon="-2.6322230">
        <ele>1101.8</ele>
        <time>2022-08-14T06:52:43Z</time>
      </trkpt>
      <trkpt lat="42.1075800" lon="-2.6322930">
        <ele>1102.6</ele>
        <time>2022-08-14T06:52:49Z</time>
      </trkpt>
      <trkpt lat="42.1075340" lon="-2.6323230">
        <ele>1102.9</ele>
        <time>2022-08-14T06:52:51Z</time>
      </trkpt>
      <trkpt lat="42.1074080" lon="-2.6323870">
        <ele>1103.5</ele>
        <time>2022-08-14T06:52:57Z</time>
      </trkpt>
      <trkpt lat="42.1073650" lon="-2.6324010">
        <ele>1103.8</ele>
        <time>2022-08-14T06:52:59Z</time>
      </trkpt>
      <trkpt lat="42.1072260" lon="-2.6324490">
        <ele>1104.5</ele>
        <time>2022-08-14T06:53:05Z</time>
      </trkpt>
      <trkpt lat="42.1071820" lon="-2.6324650">
        <ele>1104.7</ele>
        <time>2022-08-14T06:53:07Z</time>
      </trkpt>
      <trkpt lat="42.1070530" lon="-2.6325060">
        <ele>1105.4</ele>
        <time>2022-08-14T06:53:12Z</time>
      </trkpt>
      <trkpt lat="42.1069570" lon="-2.6325130">
        <ele>1105.9</ele>
        <time>2022-08-14T06:53:16Z</time>
      </trkpt>
      <trkpt lat="42.1069060" lon="-2.6325150">
        <ele>1106.2</ele>
        <time>2022-08-14T06:53:18Z</time>
      </trkpt>
      <trkpt lat="42.1067510" lon="-2.6325090">
        <ele>1107.0</ele>
        <time>2022-08-14T06:53:24Z</time>
      </trkpt>
      <trkpt lat="42.1067260" lon="-2.6325030">
        <ele>1107.2</ele>
        <time>2022-08-14T06:53:25Z</time>
      </trkpt>
      <trkpt lat="42.1065340" lon="-2.6324770">
        <ele>1108.3</ele>
        <time>2022-08-14T06:53:33Z</time>
      </trkpt>
      <trkpt lat="42.1065090" lon="-2.6324680">
        <ele>1108.5</ele>
        <time>2022-08-14T06:53:34Z</time>
      </trkpt>
      <trkpt lat="42.1063900" lon="-2.6324110">
        <ele>1109.2</ele>
        <time>2022-08-14T06:53:39Z</time>
      </trkpt>
      <trkpt lat="42.1063280" lon="-2.6323700">
        <ele>1109.6</ele>
        <time>2022-08-14T06:53:42Z</time>
      </trkpt>
      <trkpt lat="42.1062450" lon="-2.6323190">
        <ele>1110.1</ele>
        <time>2022-08-14T06:53:45Z</time>
      </trkpt>
      <trkpt lat="42.1061790" lon="-2.6322830">
        <ele>1110.4</ele>
        <time>2022-08-14T06:53:48Z</time>
      </trkpt>
      <trkpt lat="42.1060300" lon="-2.6321420">
        <ele>1111.3</ele>
        <time>2022-08-14T06:53:55Z</time>
      </trkpt>
      <trkpt lat="42.1058620" lon="-2.6319630">
        <ele>1112.2</ele>
        <time>2022-08-14T06:54:03Z</time>
      </trkpt>
      <trkpt lat="42.1058370" lon="-2.6319380">
        <ele>1112.4</ele>
        <time>2022-08-14T06:54:04Z</time>
      </trkpt>
      <trkpt lat="42.1057580" lon="-2.6318370">
        <ele>1112.9</ele>
        <time>2022-08-14T06:54:08Z</time>
      </trkpt>
      <trkpt lat="42.1056890" lon="-2.6317510">
        <ele>1113.3</ele>
        <time>2022-08-14T06:54:11Z</time>
      </trkpt>
      <trkpt lat="42.1055880" lon="-2.6316240">
        <ele>1113.9</ele>
        <time>2022-08-14T06:54:16Z</time>
      </trkpt>
      <trkpt lat="42.1055170" lon="-2.6315360">
        <ele>1114.3</ele>
        <time>2022-08-14T06:54:19Z</time>
      </trkpt>
      <trkpt lat="42.1054540" lon="-2.6314480">
        <ele>1114.6</ele>
        <time>2022-08-14T06:54:22Z</time>
      </trkpt>
      <trkpt lat="42.1054360" lon="-2.6314180">
        <ele>1114.8</ele>
        <time>2022-08-14T06:54:23Z</time>
      </trkpt>
      <trkpt lat="42.1053040" lon="-2.6312390">
        <ele>1115.6</ele>
        <time>2022-08-14T06:54:29Z</time>
      </trkpt>
      <trkpt lat="42.1052580" lon="-2.6311810">
        <ele>1115.9</ele>
        <time>2022-08-14T06:54:31Z</time>
      </trkpt>
      <trkpt lat="42.1051470" lon="-2.6311390">
        <ele>1116.5</ele>
        <time>2022-08-14T06:54:36Z</time>
      </trkpt>
      <trkpt lat="42.1051060" lon="-2.6310680">
        <ele>1116.8</ele>
        <time>2022-08-14T06:54:38Z</time>
      </trkpt>
      <trkpt lat="42.1049860" lon="-2.6308880">
        <ele>1117.8</ele>
        <time>2022-08-14T06:54:44Z</time>
      </trkpt>
      <trkpt lat="42.1049160" lon="-2.6307940">
        <ele>1118.4</ele>
        <time>2022-08-14T06:54:47Z</time>
      </trkpt>
      <trkpt lat="42.1048070" lon="-2.6306470">
        <ele>1119.2</ele>
        <time>2022-08-14T06:54:52Z</time>
      </trkpt>
      <trkpt lat="42.1047070" lon="-2.6304980">
        <ele>1119.9</ele>
        <time>2022-08-14T06:54:57Z</time>
      </trkpt>
      <trkpt lat="42.1045980" lon="-2.6303590">
        <ele>1120.7</ele>
        <time>2022-08-14T06:55:02Z</time>
      </trkpt>
      <trkpt lat="42.1045510" lon="-2.6302990">
        <ele>1121.1</ele>
        <time>2022-08-14T06:55:04Z</time>
      </trkpt>
      <trkpt lat="42.1044710" lon="-2.6301840">
        <ele>1121.7</ele>
        <time>2022-08-14T06:55:08Z</time>
      </trkpt>
      <trkpt lat="42.1043480" lon="-2.6300150">
        <ele>1122.7</ele>
        <time>2022-08-14T06:55:14Z</time>
      </trkpt>
      <trkpt lat="42.1043290" lon="-2.6299870">
        <ele>1122.9</ele>
        <time>2022-08-14T06:55:15Z</time>
      </trkpt>
      <trkpt lat="42.1041700" lon="-2.6297650">
        <ele>1124.2</ele>
        <time>2022-08-14T06:55:23Z</time>
      </trkpt>
      <trkpt lat="42.1041490" lon="-2.6297390">
        <ele>1124.4</ele>
        <time>2022-08-14T06:55:24Z</time>
      </trkpt>
      <trkpt lat="42.1040700" lon="-2.6296370">
        <ele>1125.0</ele>
        <time>2022-08-14T06:55:28Z</time>
      </trkpt>
      <trkpt lat="42.1039790" lon="-2.6295020">
        <ele>1125.8</ele>
        <time>2022-08-14T06:55:33Z</time>
      </trkpt>
      <trkpt lat="42.1039600" lon="-2.6294740">
        <ele>1125.9</ele>
        <time>2022-08-14T06:55:34Z</time>
      </trkpt>
      <trkpt lat="42.1038310" lon="-2.6293140">
        <ele>1127.0</ele>
        <time>2022-08-14T06:55:41Z</time>
      </trkpt>
      <trkpt lat="42.1037610" lon="-2.6292210">
        <ele>1127.5</ele>
        <time>2022-08-14T06:55:44Z</time>
      </trkpt>
      <trkpt lat="42.1036920" lon="-2.6291170">
        <ele>1128.1</ele>
        <time>2022-08-14T06:55:48Z</time>
      </trkpt>
      <trkpt lat="42.1035990" lon="-2.6289850">
        <ele>1128.9</ele>
        <time>2022-08-14T06:55:53Z</time>
      </trkpt>
      <trkpt lat="42.1035580" lon="-2.6289320">
        <ele>1129.2</ele>
        <time>2022-08-14T06:55:55Z</time>
      </trkpt>
      <trkpt lat="42.1034700" lon="-2.6287920">
        <ele>1129.9</ele>
        <time>2022-08-14T06:56:00Z</time>
      </trkpt>
      <trkpt lat="42.1034200" lon="-2.6287060">
        <ele>1130.4</ele>
        <time>2022-08-14T06:56:03Z</time>
      </trkpt>
      <trkpt lat="42.1033800" lon="-2.6286280">
        <ele>1130.8</ele>
        <time>2022-08-14T06:56:06Z</time>
      </trkpt>
      <trkpt lat="42.1033040" lon="-2.6284700">
        <ele>1131.6</ele>
        <time>2022-08-14T06:56:11Z</time>
      </trkpt>
      <trkpt lat="42.1032060" lon="-2.6282520">
        <ele>1132.6</ele>
        <time>2022-08-14T06:56:18Z</time>
      </trkpt>
      <trkpt lat="42.1031950" lon="-2.6282180">
        <ele>1132.7</ele>
        <time>2022-08-14T06:56:19Z</time>
      </trkpt>
      <trkpt lat="42.1031270" lon="-2.6280160">
        <ele>1133.6</ele>
        <time>2022-08-14T06:56:25Z</time>
      </trkpt>
      <trkpt lat="42.1031150" lon="-2.6279520">
        <ele>1133.8</ele>
        <time>2022-08-14T06:56:27Z</time>
      </trkpt>
      <trkpt lat="42.1030750" lon="-2.6277570">
        <ele>1134.6</ele>
        <time>2022-08-14T06:56:33Z</time>
      </trkpt>
      <trkpt lat="42.1030690" lon="-2.6277210">
        <ele>1134.7</ele>
        <time>2022-08-14T06:56:34Z</time>
      </trkpt>
      <trkpt lat="42.1030400" lon="-2.6274860">
        <ele>1135.6</ele>
        <time>2022-08-14T06:56:40Z</time>
      </trkpt>
      <trkpt lat="42.1030290" lon="-2.6273330">
        <ele>1136.2</ele>
        <time>2022-08-14T06:56:44Z</time>
      </trkpt>
      <trkpt lat="42.1030280" lon="-2.6272500">
        <ele>1136.6</ele>
        <time>2022-08-14T06:56:46Z</time>
      </trkpt>
      <trkpt lat="42.1030060" lon="-2.6269900">
        <ele>1137.6</ele>
        <time>2022-08-14T06:56:53Z</time>
      </trkpt>
      <trkpt lat="42.1029910" lon="-2.6269050">
        <ele>1138.0</ele>
        <time>2022-08-14T06:56:55Z</time>
      </trkpt>
      <trkpt lat="42.1029610" lon="-2.6267290">
        <ele>1138.7</ele>
        <time>2022-08-14T06:57:00Z</time>
      </trkpt>
      <trkpt lat="42.1028960" lon="-2.6265510">
        <ele>1139.6</ele>
        <time>2022-08-14T06:57:05Z</time>
      </trkpt>
      <trkpt lat="42.1028340" lon="-2.6264200">
        <ele>1140.3</ele>
        <time>2022-08-14T06:57:09Z</time>
      </trkpt>
      <trkpt lat="42.1027700" lon="-2.6263130">
        <ele>1140.9</ele>
        <time>2022-08-14T06:57:13Z</time>
      </trkpt>
      <trkpt lat="42.1027100" lon="-2.6262300">
        <ele>1141.4</ele>
        <time>2022-08-14T06:57:16Z</time>
      </trkpt>
      <trkpt lat="42.1026180" lon="-2.6261300">
        <ele>1142.1</ele>
        <time>2022-08-14T06:57:20Z</time>
      </trkpt>
      <trkpt lat="42.1025490" lon="-2.6260740">
        <ele>1142.6</ele>
        <time>2022-08-14T06:57:23Z</time>
      </trkpt>
      <trkpt lat="42.1024680" lon="-2.6260120">
        <ele>1143.1</ele>
        <time>2022-08-14T06:57:27Z</time>
      </trkpt>
      <trkpt lat="42.1024180" lon="-2.6259920">
        <ele>1143.4</ele>
        <time>2022-08-14T06:57:29Z</time>
      </trkpt>
      <trkpt lat="42.1023430" lon="-2.6259660">
        <ele>1143.8</ele>
        <time>2022-08-14T06:57:32Z</time>
      </trkpt>
      <trkpt lat="42.1022170" lon="-2.6259480">
        <ele>1144.4</ele>
        <time>2022-08-14T06:57:37Z</time>
      </trkpt>
      <trkpt lat="42.1021170" lon="-2.6259320">
        <ele>1144.9</ele>
        <time>2022-08-14T06:57:41Z</time>
      </trkpt>
      <trkpt lat="42.1020270" lon="-2.6259290">
        <ele>1145.4</ele>
        <time>2022-08-14T06:57:45Z</time>
      </trkpt>
      <trkpt lat="42.1018970" lon="-2.6259190">
        <ele>1146.0</ele>
        <time>2022-08-14T06:57:50Z</time>
      </trkpt>
      <trkpt lat="42.1018060" lon="-2.6259060">
        <ele>1146.5</ele>
        <time>2022-08-14T06:57:54Z</time>
      </trkpt>
      <trkpt lat="42.1016760" lon="-2.6258870">
        <ele>1147.2</ele>
        <time>2022-08-14T06:57:59Z</time>
      </trkpt>
      <trkpt lat="42.1015160" lon="-2.6258390">
        <ele>1148.0</ele>
        <time>2022-08-14T06:58:05Z</time>
      </trkpt>
      <trkpt lat="42.1014670" lon="-2.6258260">
        <ele>1148.3</ele>
        <time>2022-08-14T06:58:07Z</time>
      </trkpt>
      <trkpt lat="42.1012640" lon="-2.6257440">
        <ele>1149.5</ele>
        <time>2022-08-14T06:58:15Z</time>
      </trkpt>
      <trkpt lat="42.1012190" lon="-2.6257300">
        <ele>1149.7</ele>
        <time>2022-08-14T06:58:17Z</time>
      </trkpt>
      <trkpt lat="42.1010920" lon="-2.6257020">
        <ele>1150.5</ele>
        <time>2022-08-14T06:58:22Z</time>
      </trkpt>
      <trkpt lat="42.1010740" lon="-2.6256940">
        <ele>1150.6</ele>
        <time>2022-08-14T06:58:23Z</time>
      </trkpt>
      <trkpt lat="42.1009830" lon="-2.6256610">
        <ele>1151.1</ele>
        <time>2022-08-14T06:58:27Z</time>
      </trkpt>
      <trkpt lat="42.1009070" lon="-2.6256410">
        <ele>1151.5</ele>
        <time>2022-08-14T06:58:30Z</time>
      </trkpt>
      <trkpt lat="42.1008280" lon="-2.6256120">
        <ele>1152.0</ele>
        <time>2022-08-14T06:58:33Z</time>
      </trkpt>
      <trkpt lat="42.1006370" lon="-2.6255230">
        <ele>1153.1</ele>
        <time>2022-08-14T06:58:41Z</time>
      </trkpt>
      <trkpt lat="42.1005930" lon="-2.6255000">
        <ele>1153.3</ele>
        <time>2022-08-14T06:58:43Z</time>
      </trkpt>
      <trkpt lat="42.1004130" lon="-2.6253910">
        <ele>1154.4</ele>
        <time>2022-08-14T06:58:50Z</time>
      </trkpt>
      <trkpt lat="42.1002490" lon="-2.6252720">
        <ele>1155.4</ele>
        <time>2022-08-14T06:58:57Z</time>
      </trkpt>
      <trkpt lat="42.1002070" lon="-2.6252380">
        <ele>1155.7</ele>
        <time>2022-08-14T06:58:59Z</time>
      </trkpt>
      <trkpt lat="42.1000840" lon="-2.6251140">
        <ele>1156.5</ele>
        <time>2022-08-14T06:59:05Z</time>
      </trkpt>
      <trkpt lat="42.1000580" lon="-2.6250930">
        <ele>1156.7</ele>
        <time>2022-08-14T06:59:06Z</time>
      </trkpt>
      <trkpt lat="42.0999140" lon="-2.6249390">
        <ele>1157.6</ele>
        <time>2022-08-14T06:59:13Z</time>
      </trkpt>
      <trkpt lat="42.0998660" lon="-2.6248870">
        <ele>1157.9</ele>
        <time>2022-08-14T06:59:15Z</time>
      </trkpt>
      <trkpt lat="42.0997420" lon="-2.6247480">
        <ele>1158.4</ele>
        <time>2022-08-14T06:59:21Z</time>
      </trkpt>
      <trkpt lat="42.0996750" lon="-2.6246760">
        <ele>1158.3</ele>
        <time>2022-08-14T06:59:24Z</time>
      </trkpt>
      <trkpt lat="42.0995920" lon="-2.6245800">
        <ele>1158.2</ele>
        <time>2022-08-14T06:59:28Z</time>
      </trkpt>
      <trkpt lat="42.0995180" lon="-2.6244950">
        <ele>1158.1</ele>
        <time>2022-08-14T06:59:31Z</time>
      </trkpt>
      <trkpt lat="42.0994920" lon="-2.6244710">
        <ele>1158.0</ele>
        <time>2022-08-14T06:59:32Z</time>
      </trkpt>
      <trkpt lat="42.0992120" lon="-2.6241530">
        <ele>1157.3</ele>
        <time>2022-08-14T06:59:42Z</time>
      </trkpt>
      <trkpt lat="42.0991270" lon="-2.6240540">
        <ele>1156.8</ele>
        <time>2022-08-14T06:59:45Z</time>
      </trkpt>
      <trkpt lat="42.0990630" lon="-2.6239840">
        <ele>1156.4</ele>
        <time>2022-08-14T06:59:47Z</time>
      </trkpt>
      <trkpt lat="42.0989400" lon="-2.6238580">
        <ele>1155.4</ele>
        <time>2022-08-14T06:59:50Z</time>
      </trkpt>
      <trkpt lat="42.0986510" lon="-2.6235640">
        <ele>1153.1</ele>
        <time>2022-08-14T06:59:56Z</time>
      </trkpt>
      <trkpt lat="42.0985500" lon="-2.6234560">
        <ele>1152.4</ele>
        <time>2022-08-14T06:59:58Z</time>
      </trkpt>
      <trkpt lat="42.0984330" lon="-2.6233320">
        <ele>1151.8</ele>
        <time>2022-08-14T07:00:00Z</time>
      </trkpt>
      <trkpt lat="42.0982980" lon="-2.6231920">
        <ele>1151.2</ele>
        <time>2022-08-14T07:00:02Z</time>
      </trkpt>
      <trkpt lat="42.0982470" lon="-2.6231380">
        <ele>1151.0</ele>
        <time>2022-08-14T07:00:03Z</time>
      </trkpt>
      <trkpt lat="42.0981200" lon="-2.6229980">
        <ele>1150.7</ele>
        <time>2022-08-14T07:00:05Z</time>
      </trkpt>
      <trkpt lat="42.0980420" lon="-2.6229130">
        <ele>1150.6</ele>
        <time>2022-08-14T07:00:06Z</time>
      </trkpt>
      <trkpt lat="42.0979250" lon="-2.6227900">
        <ele>1150.7</ele>
        <time>2022-08-14T07:00:08Z</time>
      </trkpt>
      <trkpt lat="42.0978590" lon="-2.6227220">
        <ele>1150.8</ele>
        <time>2022-08-14T07:00:09Z</time>
      </trkpt>
      <trkpt lat="42.0975500" lon="-2.6223850">
        <ele>1151.5</ele>
        <time>2022-08-14T07:00:14Z</time>
      </trkpt>
      <trkpt lat="42.0974550" lon="-2.6222820">
        <ele>1151.2</ele>
        <time>2022-08-14T07:00:16Z</time>
      </trkpt>
      <trkpt lat="42.0971920" lon="-2.6219960">
        <ele>1151.4</ele>
        <time>2022-08-14T07:00:22Z</time>
      </trkpt>
      <trkpt lat="42.0971160" lon="-2.6219100">
        <ele>1151.8</ele>
        <time>2022-08-14T07:00:24Z</time>
      </trkpt>
      <trkpt lat="42.0970140" lon="-2.6218100">
        <ele>1152.4</ele>
        <time>2022-08-14T07:00:27Z</time>
      </trkpt>
      <trkpt lat="42.0969510" lon="-2.6217490">
        <ele>1152.7</ele>
        <time>2022-08-14T07:00:29Z</time>
      </trkpt>
      <trkpt lat="42.0969210" lon="-2.6217180">
        <ele>1152.9</ele>
        <time>2022-08-14T07:00:30Z</time>
      </trkpt>
      <trkpt lat="42.0968680" lon="-2.6216560">
        <ele>1153.2</ele>
        <time>2022-08-14T07:00:32Z</time>
      </trkpt>
      <trkpt lat="42.0967900" lon="-2.6215680">
        <ele>1153.8</ele>
        <time>2022-08-14T07:00:35Z</time>
      </trkpt>
      <trkpt lat="42.0967630" lon="-2.6215370">
        <ele>1154.0</ele>
        <time>2022-08-14T07:00:36Z</time>
      </trkpt>
      <trkpt lat="42.0967100" lon="-2.6214760">
        <ele>1154.4</ele>
        <time>2022-08-14T07:00:38Z</time>
      </trkpt>
      <trkpt lat="42.0966530" lon="-2.6214220">
        <ele>1154.8</ele>
        <time>2022-08-14T07:00:40Z</time>
      </trkpt>
      <trkpt lat="42.0965710" lon="-2.6213410">
        <ele>1155.4</ele>
        <time>2022-08-14T07:00:43Z</time>
      </trkpt>
      <trkpt lat="42.0965180" lon="-2.6212870">
        <ele>1155.8</ele>
        <time>2022-08-14T07:00:45Z</time>
      </trkpt>
      <trkpt lat="42.0964130" lon="-2.6211790">
        <ele>1156.4</ele>
        <time>2022-08-14T07:00:49Z</time>
      </trkpt>
      <trkpt lat="42.0962480" lon="-2.6210330">
        <ele>1157.4</ele>
        <time>2022-08-14T07:00:55Z</time>
      </trkpt>
      <trkpt lat="42.0962220" lon="-2.6210100">
        <ele>1157.6</ele>
        <time>2022-08-14T07:00:56Z</time>
      </trkpt>
      <trkpt lat="42.0961350" lon="-2.6209470">
        <ele>1158.1</ele>
        <time>2022-08-14T07:00:59Z</time>
      </trkpt>
      <trkpt lat="42.0960780" lon="-2.6209060">
        <ele>1158.3</ele>
        <time>2022-08-14T07:01:01Z</time>
      </trkpt>
      <trkpt lat="42.0960490" lon="-2.6208860">
        <ele>1158.5</ele>
        <time>2022-08-14T07:01:02Z</time>
      </trkpt>
      <trkpt lat="42.0958690" lon="-2.6207860">
        <ele>1159.3</ele>
        <time>2022-08-14T07:01:08Z</time>
      </trkpt>
      <trkpt lat="42.0957770" lon="-2.6207410">
        <ele>1159.6</ele>
        <time>2022-08-14T07:01:11Z</time>
      </trkpt>
      <trkpt lat="42.0956260" lon="-2.6206640">
        <ele>1160.2</ele>
        <time>2022-08-14T07:01:16Z</time>
      </trkpt>
      <trkpt lat="42.0954380" lon="-2.6205770">
        <ele>1161.0</ele>
        <time>2022-08-14T07:01:22Z</time>
      </trkpt>
      <trkpt lat="42.0954110" lon="-2.6205630">
        <ele>1161.1</ele>
        <time>2022-08-14T07:01:23Z</time>
      </trkpt>
      <trkpt lat="42.0953200" lon="-2.6205230">
        <ele>1161.4</ele>
        <time>2022-08-14T07:01:26Z</time>
      </trkpt>
      <trkpt lat="42.0951320" lon="-2.6204510">
        <ele>1162.2</ele>
        <time>2022-08-14T07:01:32Z</time>
      </trkpt>
      <trkpt lat="42.0950310" lon="-2.6204090">
        <ele>1162.6</ele>
        <time>2022-08-14T07:01:35Z</time>
      </trkpt>
      <trkpt lat="42.0948030" lon="-2.6203010">
        <ele>1163.5</ele>
        <time>2022-08-14T07:01:43Z</time>
      </trkpt>
      <trkpt lat="42.0945220" lon="-2.6201790">
        <ele>1164.7</ele>
        <time>2022-08-14T07:01:52Z</time>
      </trkpt>
      <trkpt lat="42.0942820" lon="-2.6200710">
        <ele>1165.5</ele>
        <time>2022-08-14T07:02:00Z</time>
      </trkpt>
      <trkpt lat="42.0941580" lon="-2.6200200">
        <ele>1165.9</ele>
        <time>2022-08-14T07:02:04Z</time>
      </trkpt>
      <trkpt lat="42.0940320" lon="-2.6199680">
        <ele>1166.4</ele>
        <time>2022-08-14T07:02:08Z</time>
      </trkpt>
      <trkpt lat="42.0938250" lon="-2.6198570">
        <ele>1167.0</ele>
        <time>2022-08-14T07:02:15Z</time>
      </trkpt>
      <trkpt lat="42.0937970" lon="-2.6198360">
        <ele>1167.1</ele>
        <time>2022-08-14T07:02:16Z</time>
      </trkpt>
      <trkpt lat="42.0936170" lon="-2.6197140">
        <ele>1167.7</ele>
        <time>2022-08-14T07:02:22Z</time>
      </trkpt>
      <trkpt lat="42.0935310" lon="-2.6196390">
        <ele>1168.0</ele>
        <time>2022-08-14T07:02:25Z</time>
      </trkpt>
      <trkpt lat="42.0933610" lon="-2.6194840">
        <ele>1168.6</ele>
        <time>2022-08-14T07:02:31Z</time>
      </trkpt>
      <trkpt lat="42.0932860" lon="-2.6194050">
        <ele>1169.0</ele>
        <time>2022-08-14T07:02:34Z</time>
      </trkpt>
      <trkpt lat="42.0931400" lon="-2.6192050">
        <ele>1169.8</ele>
        <time>2022-08-14T07:02:40Z</time>
      </trkpt>
      <trkpt lat="42.0930920" lon="-2.6191400">
        <ele>1169.9</ele>
        <time>2022-08-14T07:02:42Z</time>
      </trkpt>
      <trkpt lat="42.0929540" lon="-2.6189390">
        <ele>1170.5</ele>
        <time>2022-08-14T07:02:48Z</time>
      </trkpt>
      <trkpt lat="42.0928210" lon="-2.6186770">
        <ele>1171.2</ele>
        <time>2022-08-14T07:02:55Z</time>
      </trkpt>
      <trkpt lat="42.0927590" lon="-2.6185160">
        <ele>1171.7</ele>
        <time>2022-08-14T07:02:59Z</time>
      </trkpt>
      <trkpt lat="42.0926770" lon="-2.6182300">
        <ele>1172.5</ele>
        <time>2022-08-14T07:03:06Z</time>
      </trkpt>
      <trkpt lat="42.0926410" lon="-2.6181130">
        <ele>1172.9</ele>
        <time>2022-08-14T07:03:09Z</time>
      </trkpt>
      <trkpt lat="42.0925780" lon="-2.6178780">
        <ele>1173.6</ele>
        <time>2022-08-14T07:03:15Z</time>
      </trkpt>
      <trkpt lat="42.0925630" lon="-2.6177980">
        <ele>1173.9</ele>
        <time>2022-08-14T07:03:17Z</time>
      </trkpt>
      <trkpt lat="42.0924860" lon="-2.6174800">
        <ele>1175.0</ele>
        <time>2022-08-14T07:03:25Z</time>
      </trkpt>
      <trkpt lat="42.0924710" lon="-2.6174100">
        <ele>1175.2</ele>
        <time>2022-08-14T07:03:27Z</time>
      </trkpt>
      <trkpt lat="42.0924280" lon="-2.6172100">
        <ele>1175.9</ele>
        <time>2022-08-14T07:03:32Z</time>
      </trkpt>
      <trkpt lat="42.0924210" lon="-2.6171810">
        <ele>1176.0</ele>
        <time>2022-08-14T07:03:33Z</time>
      </trkpt>
      <trkpt lat="42.0923410" lon="-2.6168840">
        <ele>1177.2</ele>
        <time>2022-08-14T07:03:41Z</time>
      </trkpt>
      <trkpt lat="42.0922970" lon="-2.6166650">
        <ele>1178.0</ele>
        <time>2022-08-14T07:03:47Z</time>
      </trkpt>
      <trkpt lat="42.0922620" lon="-2.6164890">
        <ele>1178.7</ele>
        <time>2022-08-14T07:03:52Z</time>
      </trkpt>
      <trkpt lat="42.0922400" lon="-2.6163740">
        <ele>1179.2</ele>
        <time>2022-08-14T07:03:55Z</time>
      </trkpt>
      <trkpt lat="42.0921850" lon="-2.6161140">
        <ele>1180.2</ele>
        <time>2022-08-14T07:04:02Z</time>
      </trkpt>
      <trkpt lat="42.0921790" lon="-2.6160760">
        <ele>1180.3</ele>
        <time>2022-08-14T07:04:03Z</time>
      </trkpt>
      <trkpt lat="42.0921250" lon="-2.6158170">
        <ele>1181.4</ele>
        <time>2022-08-14T07:04:10Z</time>
      </trkpt>
      <trkpt lat="42.0921190" lon="-2.6157780">
        <ele>1181.5</ele>
        <time>2022-08-14T07:04:11Z</time>
      </trkpt>
      <trkpt lat="42.0920800" lon="-2.6155180">
        <ele>1182.5</ele>
        <time>2022-08-14T07:04:18Z</time>
      </trkpt>
      <trkpt lat="42.0920730" lon="-2.6154460">
        <ele>1182.8</ele>
        <time>2022-08-14T07:04:20Z</time>
      </trkpt>
      <trkpt lat="42.0920640" lon="-2.6152930">
        <ele>1183.4</ele>
        <time>2022-08-14T07:04:24Z</time>
      </trkpt>
      <trkpt lat="42.0920530" lon="-2.6151120">
        <ele>1184.0</ele>
        <time>2022-08-14T07:04:29Z</time>
      </trkpt>
      <trkpt lat="42.0920470" lon="-2.6150050">
        <ele>1184.4</ele>
        <time>2022-08-14T07:04:32Z</time>
      </trkpt>
      <trkpt lat="42.0920310" lon="-2.6148180">
        <ele>1185.1</ele>
        <time>2022-08-14T07:04:37Z</time>
      </trkpt>
      <trkpt lat="42.0920260" lon="-2.6146760">
        <ele>1185.6</ele>
        <time>2022-08-14T07:04:41Z</time>
      </trkpt>
      <trkpt lat="42.0920190" lon="-2.6145420">
        <ele>1186.1</ele>
        <time>2022-08-14T07:04:45Z</time>
      </trkpt>
      <trkpt lat="42.0920070" lon="-2.6143590">
        <ele>1186.8</ele>
        <time>2022-08-14T07:04:50Z</time>
      </trkpt>
      <trkpt lat="42.0920070" lon="-2.6142530">
        <ele>1187.2</ele>
        <time>2022-08-14T07:04:53Z</time>
      </trkpt>
      <trkpt lat="42.0919980" lon="-2.6140710">
        <ele>1187.8</ele>
        <time>2022-08-14T07:04:58Z</time>
      </trkpt>
      <trkpt lat="42.0919940" lon="-2.6139240">
        <ele>1188.4</ele>
        <time>2022-08-14T07:05:02Z</time>
      </trkpt>
      <trkpt lat="42.0919850" lon="-2.6137000">
        <ele>1189.2</ele>
        <time>2022-08-14T07:05:08Z</time>
      </trkpt>
      <trkpt lat="42.0919830" lon="-2.6136030">
        <ele>1189.6</ele>
        <time>2022-08-14T07:05:11Z</time>
      </trkpt>
      <trkpt lat="42.0919780" lon="-2.6134270">
        <ele>1190.2</ele>
        <time>2022-08-14T07:05:16Z</time>
      </trkpt>
      <trkpt lat="42.0919810" lon="-2.6133170">
        <ele>1190.6</ele>
        <time>2022-08-14T07:05:19Z</time>
      </trkpt>
      <trkpt lat="42.0919920" lon="-2.6130990">
        <ele>1191.5</ele>
        <time>2022-08-14T07:05:25Z</time>
      </trkpt>
      <trkpt lat="42.0920070" lon="-2.6129890">
        <ele>1191.9</ele>
        <time>2022-08-14T07:05:28Z</time>
      </trkpt>
      <trkpt lat="42.0920140" lon="-2.6129460">
        <ele>1192.0</ele>
        <time>2022-08-14T07:05:29Z</time>
      </trkpt>
      <trkpt lat="42.0920550" lon="-2.6126720">
        <ele>1193.1</ele>
        <time>2022-08-14T07:05:37Z</time>
      </trkpt>
      <trkpt lat="42.0920630" lon="-2.6126400">
        <ele>1193.2</ele>
        <time>2022-08-14T07:05:38Z</time>
      </trkpt>
      <trkpt lat="42.0921280" lon="-2.6123800">
        <ele>1194.3</ele>
        <time>2022-08-14T07:05:46Z</time>
      </trkpt>
      <trkpt lat="42.0921410" lon="-2.6123200">
        <ele>1194.5</ele>
        <time>2022-08-14T07:05:48Z</time>
      </trkpt>
      <trkpt lat="42.0921890" lon="-2.6121610">
        <ele>1195.2</ele>
        <time>2022-08-14T07:05:53Z</time>
      </trkpt>
      <trkpt lat="42.0922210" lon="-2.6120560">
        <ele>1195.7</ele>
        <time>2022-08-14T07:05:56Z</time>
      </trkpt>
      <trkpt lat="42.0922720" lon="-2.6119340">
        <ele>1196.2</ele>
        <time>2022-08-14T07:06:00Z</time>
      </trkpt>
      <trkpt lat="42.0922850" lon="-2.6119060">
        <ele>1196.4</ele>
        <time>2022-08-14T07:06:01Z</time>
      </trkpt>
      <trkpt lat="42.0923080" lon="-2.6118530">
        <ele>1196.6</ele>
        <time>2022-08-14T07:06:03Z</time>
      </trkpt>
      <trkpt lat="42.0924510" lon="-2.6115890">
        <ele>1198.0</ele>
        <time>2022-08-14T07:06:12Z</time>
      </trkpt>
      <trkpt lat="42.0924830" lon="-2.6115390">
        <ele>1198.2</ele>
        <time>2022-08-14T07:06:14Z</time>
      </trkpt>
      <trkpt lat="42.0925610" lon="-2.6114130">
        <ele>1198.8</ele>
        <time>2022-08-14T07:06:19Z</time>
      </trkpt>
      <trkpt lat="42.0926370" lon="-2.6113200">
        <ele>1199.4</ele>
        <time>2022-08-14T07:06:23Z</time>
      </trkpt>
      <trkpt lat="42.0927260" lon="-2.6111920">
        <ele>1200.1</ele>
        <time>2022-08-14T07:06:28Z</time>
      </trkpt>
      <trkpt lat="42.0928240" lon="-2.6110870">
        <ele>1200.7</ele>
        <time>2022-08-14T07:06:33Z</time>
      </trkpt>
      <trkpt lat="42.0929040" lon="-2.6110010">
        <ele>1201.3</ele>
        <time>2022-08-14T07:06:37Z</time>
      </trkpt>
      <trkpt lat="42.0930210" lon="-2.6108510">
        <ele>1202.0</ele>
        <time>2022-08-14T07:06:44Z</time>
      </trkpt>
      <trkpt lat="42.0931380" lon="-2.6107390">
        <ele>1202.7</ele>
        <time>2022-08-14T07:06:49Z</time>
      </trkpt>
      <trkpt lat="42.0932050" lon="-2.6106810">
        <ele>1203.1</ele>
        <time>2022-08-14T07:06:52Z</time>
      </trkpt>
      <trkpt lat="42.0933160" lon="-2.6105890">
        <ele>1203.8</ele>
        <time>2022-08-14T07:06:57Z</time>
      </trkpt>
      <trkpt lat="42.0933660" lon="-2.6105550">
        <ele>1204.1</ele>
        <time>2022-08-14T07:06:59Z</time>
      </trkpt>
      <trkpt lat="42.0934130" lon="-2.6105200">
        <ele>1204.4</ele>
        <time>2022-08-14T07:07:01Z</time>
      </trkpt>
      <trkpt lat="42.0936230" lon="-2.6103600">
        <ele>1205.6</ele>
        <time>2022-08-14T07:07:10Z</time>
      </trkpt>
      <trkpt lat="42.0938280" lon="-2.6101950">
        <ele>1206.8</ele>
        <time>2022-08-14T07:07:19Z</time>
      </trkpt>
      <trkpt lat="42.0938560" lon="-2.6101740">
        <ele>1207.0</ele>
        <time>2022-08-14T07:07:20Z</time>
      </trkpt>
      <trkpt lat="42.0939900" lon="-2.6100530">
        <ele>1207.8</ele>
        <time>2022-08-14T07:07:26Z</time>
      </trkpt>
      <trkpt lat="42.0940580" lon="-2.6099870">
        <ele>1208.3</ele>
        <time>2022-08-14T07:07:29Z</time>
      </trkpt>
      <trkpt lat="42.0940990" lon="-2.6099430">
        <ele>1208.6</ele>
        <time>2022-08-14T07:07:31Z</time>
      </trkpt>
      <trkpt lat="42.0942230" lon="-2.6097810">
        <ele>1209.5</ele>
        <time>2022-08-14T07:07:37Z</time>
      </trkpt>
      <trkpt lat="42.0942770" lon="-2.6096960">
        <ele>1209.9</ele>
        <time>2022-08-14T07:07:40Z</time>
      </trkpt>
      <trkpt lat="42.0943700" lon="-2.6095050">
        <ele>1210.8</ele>
        <time>2022-08-14T07:07:46Z</time>
      </trkpt>
      <trkpt lat="42.0943830" lon="-2.6094740">
        <ele>1211.0</ele>
        <time>2022-08-14T07:07:47Z</time>
      </trkpt>
      <trkpt lat="42.0944240" lon="-2.6093380">
        <ele>1211.6</ele>
        <time>2022-08-14T07:07:51Z</time>
      </trkpt>
      <trkpt lat="42.0944510" lon="-2.6092250">
        <ele>1212.1</ele>
        <time>2022-08-14T07:07:54Z</time>
      </trkpt>
      <trkpt lat="42.0944590" lon="-2.6091900">
        <ele>1212.2</ele>
        <time>2022-08-14T07:07:55Z</time>
      </trkpt>
      <trkpt lat="42.0944920" lon="-2.6089330">
        <ele>1213.3</ele>
        <time>2022-08-14T07:08:02Z</time>
      </trkpt>
      <trkpt lat="42.0944870" lon="-2.6086420">
        <ele>1214.4</ele>
        <time>2022-08-14T07:08:10Z</time>
      </trkpt>
      <trkpt lat="42.0944740" lon="-2.6085560">
        <ele>1214.8</ele>
        <time>2022-08-14T07:08:12Z</time>
      </trkpt>
      <trkpt lat="42.0944280" lon="-2.6083410">
        <ele>1215.6</ele>
        <time>2022-08-14T07:08:18Z</time>
      </trkpt>
      <trkpt lat="42.0943950" lon="-2.6082380">
        <ele>1216.1</ele>
        <time>2022-08-14T07:08:21Z</time>
      </trkpt>
      <trkpt lat="42.0943540" lon="-2.6081410">
        <ele>1216.5</ele>
        <time>2022-08-14T07:08:24Z</time>
      </trkpt>
      <trkpt lat="42.0942850" lon="-2.6079810">
        <ele>1217.2</ele>
        <time>2022-08-14T07:08:29Z</time>
      </trkpt>
      <trkpt lat="42.0941910" lon="-2.6078420">
        <ele>1217.7</ele>
        <time>2022-08-14T07:08:34Z</time>
      </trkpt>
      <trkpt lat="42.0941040" lon="-2.6077470">
        <ele>1218.1</ele>
        <time>2022-08-14T07:08:38Z</time>
      </trkpt>
      <trkpt lat="42.0939520" lon="-2.6076230">
        <ele>1218.8</ele>
        <time>2022-08-14T07:08:44Z</time>
      </trkpt>
      <trkpt lat="42.0938730" lon="-2.6075780">
        <ele>1219.1</ele>
        <time>2022-08-14T07:08:47Z</time>
      </trkpt>
      <trkpt lat="42.0936240" lon="-2.6074940">
        <ele>1220.1</ele>
        <time>2022-08-14T07:08:56Z</time>
      </trkpt>
      <trkpt lat="42.0935660" lon="-2.6074860">
        <ele>1220.5</ele>
        <time>2022-08-14T07:08:58Z</time>
      </trkpt>
      <trkpt lat="42.0933920" lon="-2.6074830">
        <ele>1221.5</ele>
        <time>2022-08-14T07:09:04Z</time>
      </trkpt>
      <trkpt lat="42.0933350" lon="-2.6074930">
        <ele>1221.8</ele>
        <time>2022-08-14T07:09:06Z</time>
      </trkpt>
      <trkpt lat="42.0932800" lon="-2.6075090">
        <ele>1222.1</ele>
        <time>2022-08-14T07:09:08Z</time>
      </trkpt>
      <trkpt lat="42.0931220" lon="-2.6075720">
        <ele>1223.1</ele>
        <time>2022-08-14T07:09:14Z</time>
      </trkpt>
      <trkpt lat="42.0930240" lon="-2.6076300">
        <ele>1223.8</ele>
        <time>2022-08-14T07:09:18Z</time>
      </trkpt>
      <trkpt lat="42.0929330" lon="-2.6076940">
        <ele>1224.5</ele>
        <time>2022-08-14T07:09:22Z</time>
      </trkpt>
      <trkpt lat="42.0928080" lon="-2.6077950">
        <ele>1225.5</ele>
        <time>2022-08-14T07:09:28Z</time>
      </trkpt>
      <trkpt lat="42.0926920" lon="-2.6078980">
        <ele>1226.5</ele>
        <time>2022-08-14T07:09:34Z</time>
      </trkpt>
      <trkpt lat="42.0926520" lon="-2.6079350">
        <ele>1226.8</ele>
        <time>2022-08-14T07:09:36Z</time>
      </trkpt>
      <trkpt lat="42.0925490" lon="-2.6080240">
        <ele>1227.7</ele>
        <time>2022-08-14T07:09:41Z</time>
      </trkpt>
      <trkpt lat="42.0924380" lon="-2.6081020">
        <ele>1228.6</ele>
        <time>2022-08-14T07:09:46Z</time>
      </trkpt>
      <trkpt lat="42.0923530" lon="-2.6081640">
        <ele>1229.2</ele>
        <time>2022-08-14T07:09:50Z</time>
      </trkpt>
      <trkpt lat="42.0922640" lon="-2.6082080">
        <ele>1229.8</ele>
        <time>2022-08-14T07:09:54Z</time>
      </trkpt>
      <trkpt lat="42.0921880" lon="-2.6082350">
        <ele>1230.2</ele>
        <time>2022-08-14T07:09:57Z</time>
      </trkpt>
      <trkpt lat="42.0920370" lon="-2.6082730">
        <ele>1231.0</ele>
        <time>2022-08-14T07:10:03Z</time>
      </trkpt>
      <trkpt lat="42.0919870" lon="-2.6082740">
        <ele>1231.2</ele>
        <time>2022-08-14T07:10:05Z</time>
      </trkpt>
      <trkpt lat="42.0917810" lon="-2.6082960">
        <ele>1232.0</ele>
        <time>2022-08-14T07:10:13Z</time>
      </trkpt>
      <trkpt lat="42.0917540" lon="-2.6082940">
        <ele>1232.1</ele>
        <time>2022-08-14T07:10:14Z</time>
      </trkpt>
      <trkpt lat="42.0915230" lon="-2.6082410">
        <ele>1232.7</ele>
        <time>2022-08-14T07:10:22Z</time>
      </trkpt>
      <trkpt lat="42.0914150" lon="-2.6081900">
        <ele>1233.0</ele>
        <time>2022-08-14T07:10:26Z</time>
      </trkpt>
      <trkpt lat="42.0912670" lon="-2.6081040">
        <ele>1233.2</ele>
        <time>2022-08-14T07:10:31Z</time>
      </trkpt>
      <trkpt lat="42.0910500" lon="-2.6079550">
        <ele>1233.4</ele>
        <time>2022-08-14T07:10:38Z</time>
      </trkpt>
      <trkpt lat="42.0910200" lon="-2.6079310">
        <ele>1233.4</ele>
        <time>2022-08-14T07:10:39Z</time>
      </trkpt>
      <trkpt lat="42.0907940" lon="-2.6077530">
        <ele>1233.6</ele>
        <time>2022-08-14T07:10:46Z</time>
      </trkpt>
      <trkpt lat="42.0907330" lon="-2.6076940">
        <ele>1233.6</ele>
        <time>2022-08-14T07:10:48Z</time>
      </trkpt>
      <trkpt lat="42.0905090" lon="-2.6075240">
        <ele>1233.6</ele>
        <time>2022-08-14T07:10:55Z</time>
      </trkpt>
      <trkpt lat="42.0903860" lon="-2.6074120">
        <ele>1233.6</ele>
        <time>2022-08-14T07:10:59Z</time>
      </trkpt>
      <trkpt lat="42.0902050" lon="-2.6072600">
        <ele>1233.6</ele>
        <time>2022-08-14T07:11:04Z</time>
      </trkpt>
      <trkpt lat="42.0901270" lon="-2.6071920">
        <ele>1233.6</ele>
        <time>2022-08-14T07:11:06Z</time>
      </trkpt>
      <trkpt lat="42.0899580" lon="-2.6070340">
        <ele>1233.6</ele>
        <time>2022-08-14T07:11:11Z</time>
      </trkpt>
      <trkpt lat="42.0898850" lon="-2.6069700">
        <ele>1233.6</ele>
        <time>2022-08-14T07:11:13Z</time>
      </trkpt>
      <trkpt lat="42.0896030" lon="-2.6067430">
        <ele>1233.5</ele>
        <time>2022-08-14T07:11:21Z</time>
      </trkpt>
      <trkpt lat="42.0895310" lon="-2.6066850">
        <ele>1233.5</ele>
        <time>2022-08-14T07:11:23Z</time>
      </trkpt>
      <trkpt lat="42.0893850" lon="-2.6065580">
        <ele>1233.4</ele>
        <time>2022-08-14T07:11:27Z</time>
      </trkpt>
      <trkpt lat="42.0892260" lon="-2.6064410">
        <ele>1233.3</ele>
        <time>2022-08-14T07:11:31Z</time>
      </trkpt>
      <trkpt lat="42.0891510" lon="-2.6063760">
        <ele>1233.3</ele>
        <time>2022-08-14T07:11:33Z</time>
      </trkpt>
      <trkpt lat="42.0887410" lon="-2.6060350">
        <ele>1233.3</ele>
        <time>2022-08-14T07:11:44Z</time>
      </trkpt>
      <trkpt lat="42.0887030" lon="-2.6059980">
        <ele>1233.3</ele>
        <time>2022-08-14T07:11:45Z</time>
      </trkpt>
      <trkpt lat="42.0886150" lon="-2.6059080">
        <ele>1233.3</ele>
        <time>2022-08-14T07:11:47Z</time>
      </trkpt>
      <trkpt lat="42.0883450" lon="-2.6055540">
        <ele>1233.6</ele>
        <time>2022-08-14T07:11:55Z</time>
      </trkpt>
      <trkpt lat="42.0880430" lon="-2.6051300">
        <ele>1234.2</ele>
        <time>2022-08-14T07:12:04Z</time>
      </trkpt>
      <trkpt lat="42.0878220" lon="-2.6048240">
        <ele>1234.9</ele>
        <time>2022-08-14T07:12:11Z</time>
      </trkpt>
      <trkpt lat="42.0877670" lon="-2.6047390">
        <ele>1235.2</ele>
        <time>2022-08-14T07:12:13Z</time>
      </trkpt>
      <trkpt lat="42.0877370" lon="-2.6046980">
        <ele>1235.3</ele>
        <time>2022-08-14T07:12:14Z</time>
      </trkpt>
      <trkpt lat="42.0875450" lon="-2.6044150">
        <ele>1236.0</ele>
        <time>2022-08-14T07:12:21Z</time>
      </trkpt>
      <trkpt lat="42.0873450" lon="-2.6041390">
        <ele>1236.7</ele>
        <time>2022-08-14T07:12:28Z</time>
      </trkpt>
      <trkpt lat="42.0870560" lon="-2.6037540">
        <ele>1237.7</ele>
        <time>2022-08-14T07:12:38Z</time>
      </trkpt>
      <trkpt lat="42.0870290" lon="-2.6037150">
        <ele>1237.7</ele>
        <time>2022-08-14T07:12:39Z</time>
      </trkpt>
      <trkpt lat="42.0867350" lon="-2.6033320">
        <ele>1238.6</ele>
        <time>2022-08-14T07:12:49Z</time>
      </trkpt>
      <trkpt lat="42.0866770" lon="-2.6032530">
        <ele>1238.7</ele>
        <time>2022-08-14T07:12:51Z</time>
      </trkpt>
      <trkpt lat="42.0864410" lon="-2.6029480">
        <ele>1239.0</ele>
        <time>2022-08-14T07:12:59Z</time>
      </trkpt>
      <trkpt lat="42.0861420" lon="-2.6025630">
        <ele>1239.1</ele>
        <time>2022-08-14T07:13:09Z</time>
      </trkpt>
      <trkpt lat="42.0858850" lon="-2.6022340">
        <ele>1238.9</ele>
        <time>2022-08-14T07:13:17Z</time>
      </trkpt>
      <trkpt lat="42.0858220" lon="-2.6021480">
        <ele>1238.8</ele>
        <time>2022-08-14T07:13:19Z</time>
      </trkpt>
      <trkpt lat="42.0856190" lon="-2.6018060">
        <ele>1238.4</ele>
        <time>2022-08-14T07:13:26Z</time>
      </trkpt>
      <trkpt lat="42.0855960" lon="-2.6017500">
        <ele>1238.3</ele>
        <time>2022-08-14T07:13:27Z</time>
      </trkpt>
      <trkpt lat="42.0855030" lon="-2.6015090">
        <ele>1238.1</ele>
        <time>2022-08-14T07:13:31Z</time>
      </trkpt>
      <trkpt lat="42.0854470" lon="-2.6013150">
        <ele>1237.8</ele>
        <time>2022-08-14T07:13:34Z</time>
      </trkpt>
      <trkpt lat="42.0853760" lon="-2.6008240">
        <ele>1237.3</ele>
        <time>2022-08-14T07:13:41Z</time>
      </trkpt>
      <trkpt lat="42.0853830" lon="-2.6005230">
        <ele>1236.9</ele>
        <time>2022-08-14T07:13:45Z</time>
      </trkpt>
      <trkpt lat="42.0854020" lon="-2.6003770">
        <ele>1236.8</ele>
        <time>2022-08-14T07:13:47Z</time>
      </trkpt>
      <trkpt lat="42.0854290" lon="-2.6002490">
        <ele>1236.6</ele>
        <time>2022-08-14T07:13:49Z</time>
      </trkpt>
      <trkpt lat="42.0854680" lon="-2.6001010">
        <ele>1236.4</ele>
        <time>2022-08-14T07:13:51Z</time>
      </trkpt>
      <trkpt lat="42.0855350" lon="-2.5999030">
        <ele>1236.1</ele>
        <time>2022-08-14T07:13:54Z</time>
      </trkpt>
      <trkpt lat="42.0856200" lon="-2.5997030">
        <ele>1235.9</ele>
        <time>2022-08-14T07:13:57Z</time>
      </trkpt>
      <trkpt lat="42.0856550" lon="-2.5996370">
        <ele>1235.8</ele>
        <time>2022-08-14T07:13:58Z</time>
      </trkpt>
      <trkpt lat="42.0857550" lon="-2.5994750">
        <ele>1235.5</ele>
        <time>2022-08-14T07:14:01Z</time>
      </trkpt>
      <trkpt lat="42.0860640" lon="-2.5991260">
        <ele>1234.8</ele>
        <time>2022-08-14T07:14:08Z</time>
      </trkpt>
      <trkpt lat="42.0863090" lon="-2.5988880">
        <ele>1234.3</ele>
        <time>2022-08-14T07:14:13Z</time>
      </trkpt>
      <trkpt lat="42.0864140" lon="-2.5987960">
        <ele>1234.2</ele>
        <time>2022-08-14T07:14:15Z</time>
      </trkpt>
      <trkpt lat="42.0864780" lon="-2.5987420">
        <ele>1234.1</ele>
        <time>2022-08-14T07:14:16Z</time>
      </trkpt>
      <trkpt lat="42.0868010" lon="-2.5984500">
        <ele>1233.6</ele>
        <time>2022-08-14T07:14:22Z</time>
      </trkpt>
      <trkpt lat="42.0869550" lon="-2.5983170">
        <ele>1233.5</ele>
        <time>2022-08-14T07:14:25Z</time>
      </trkpt>
      <trkpt lat="42.0874070" lon="-2.5979060">
        <ele>1233.5</ele>
        <time>2022-08-14T07:14:34Z</time>
      </trkpt>
      <trkpt lat="42.0875020" lon="-2.5978180">
        <ele>1233.6</ele>
        <time>2022-08-14T07:14:36Z</time>
      </trkpt>
      <trkpt lat="42.0879110" lon="-2.5974050">
        <ele>1234.2</ele>
        <time>2022-08-14T07:14:45Z</time>
      </trkpt>
      <trkpt lat="42.0882110" lon="-2.5969920">
        <ele>1234.8</ele>
        <time>2022-08-14T07:14:53Z</time>
      </trkpt>
      <trkpt lat="42.0882710" lon="-2.5968950">
        <ele>1234.9</ele>
        <time>2022-08-14T07:14:55Z</time>
      </trkpt>
      <trkpt lat="42.0884020" lon="-2.5966680">
        <ele>1235.3</ele>
        <time>2022-08-14T07:14:59Z</time>
      </trkpt>
      <trkpt lat="42.0885520" lon="-2.5963850">
        <ele>1235.7</ele>
        <time>2022-08-14T07:15:04Z</time>
      </trkpt>
      <trkpt lat="42.0886440" lon="-2.5962110">
        <ele>1235.9</ele>
        <time>2022-08-14T07:15:07Z</time>
      </trkpt>
      <trkpt lat="42.0887060" lon="-2.5961000">
        <ele>1236.1</ele>
        <time>2022-08-14T07:15:09Z</time>
      </trkpt>
      <trkpt lat="42.0888330" lon="-2.5958660">
        <ele>1236.4</ele>
        <time>2022-08-14T07:15:13Z</time>
      </trkpt>
      <trkpt lat="42.0888570" lon="-2.5958230">
        <ele>1236.4</ele>
        <time>2022-08-14T07:15:14Z</time>
      </trkpt>
      <trkpt lat="42.0890440" lon="-2.5954890">
        <ele>1236.7</ele>
        <time>2022-08-14T07:15:20Z</time>
      </trkpt>
      <trkpt lat="42.0891680" lon="-2.5952740">
        <ele>1236.9</ele>
        <time>2022-08-14T07:15:24Z</time>
      </trkpt>
      <trkpt lat="42.0893100" lon="-2.5949980">
        <ele>1237.1</ele>
        <time>2022-08-14T07:15:29Z</time>
      </trkpt>
      <trkpt lat="42.0895580" lon="-2.5944070">
        <ele>1237.4</ele>
        <time>2022-08-14T07:15:39Z</time>
      </trkpt>
      <trkpt lat="42.0896990" lon="-2.5938500">
        <ele>1237.7</ele>
        <time>2022-08-14T07:15:48Z</time>
      </trkpt>
      <trkpt lat="42.0897800" lon="-2.5933270">
        <ele>1237.6</ele>
        <time>2022-08-14T07:15:56Z</time>
      </trkpt>
      <trkpt lat="42.0897990" lon="-2.5931790">
        <ele>1237.6</ele>
        <time>2022-08-14T07:15:58Z</time>
      </trkpt>
      <trkpt lat="42.0898580" lon="-2.5925730">
        <ele>1237.5</ele>
        <time>2022-08-14T07:16:07Z</time>
      </trkpt>
      <trkpt lat="42.0899050" lon="-2.5920870">
        <ele>1237.4</ele>
        <time>2022-08-14T07:16:14Z</time>
      </trkpt>
      <trkpt lat="42.0899280" lon="-2.5918060">
        <ele>1237.2</ele>
        <time>2022-08-14T07:16:18Z</time>
      </trkpt>
      <trkpt lat="42.0899540" lon="-2.5915670">
        <ele>1237.1</ele>
        <time>2022-08-14T07:16:21Z</time>
      </trkpt>
      <trkpt lat="42.0900100" lon="-2.5910450">
        <ele>1237.0</ele>
        <time>2022-08-14T07:16:28Z</time>
      </trkpt>
      <trkpt lat="42.0900710" lon="-2.5904400">
        <ele>1236.6</ele>
        <time>2022-08-14T07:16:36Z</time>
      </trkpt>
      <trkpt lat="42.0901170" lon="-2.5899550">
        <ele>1236.2</ele>
        <time>2022-08-14T07:16:42Z</time>
      </trkpt>
      <trkpt lat="42.0901360" lon="-2.5897160">
        <ele>1235.9</ele>
        <time>2022-08-14T07:16:45Z</time>
      </trkpt>
      <trkpt lat="42.0901570" lon="-2.5889820">
        <ele>1235.2</ele>
        <time>2022-08-14T07:16:54Z</time>
      </trkpt>
      <trkpt lat="42.0901580" lon="-2.5888980">
        <ele>1235.2</ele>
        <time>2022-08-14T07:16:55Z</time>
      </trkpt>
      <trkpt lat="42.0901550" lon="-2.5885620">
        <ele>1235.0</ele>
        <time>2022-08-14T07:16:59Z</time>
      </trkpt>
      <trkpt lat="42.0901440" lon="-2.5881410">
        <ele>1234.7</ele>
        <time>2022-08-14T07:17:04Z</time>
      </trkpt>
      <trkpt lat="42.0901560" lon="-2.5877950">
        <ele>1234.4</ele>
        <time>2022-08-14T07:17:08Z</time>
      </trkpt>
      <trkpt lat="42.0901870" lon="-2.5874440">
        <ele>1234.2</ele>
        <time>2022-08-14T07:17:12Z</time>
      </trkpt>
      <trkpt lat="42.0902370" lon="-2.5871090">
        <ele>1234.0</ele>
        <time>2022-08-14T07:17:16Z</time>
      </trkpt>
      <trkpt lat="42.0902780" lon="-2.5868390">
        <ele>1233.9</ele>
        <time>2022-08-14T07:17:19Z</time>
      </trkpt>
      <trkpt lat="42.0903040" lon="-2.5866790">
        <ele>1233.9</ele>
        <time>2022-08-14T07:17:21Z</time>
      </trkpt>
      <trkpt lat="42.0903340" lon="-2.5865270">
        <ele>1233.9</ele>
        <time>2022-08-14T07:17:23Z</time>
      </trkpt>
      <trkpt lat="42.0903850" lon="-2.5863170">
        <ele>1233.8</ele>
        <time>2022-08-14T07:17:26Z</time>
      </trkpt>
      <trkpt lat="42.0904310" lon="-2.5861840">
        <ele>1233.8</ele>
        <time>2022-08-14T07:17:28Z</time>
      </trkpt>
      <trkpt lat="42.0904920" lon="-2.5860490">
        <ele>1233.8</ele>
        <time>2022-08-14T07:17:30Z</time>
      </trkpt>
      <trkpt lat="42.0906820" lon="-2.5857500">
        <ele>1233.9</ele>
        <time>2022-08-14T07:17:35Z</time>
      </trkpt>
      <trkpt lat="42.0907270" lon="-2.5857000">
        <ele>1234.0</ele>
        <time>2022-08-14T07:17:36Z</time>
      </trkpt>
      <trkpt lat="42.0910230" lon="-2.5854520">
        <ele>1234.2</ele>
        <time>2022-08-14T07:17:42Z</time>
      </trkpt>
      <trkpt lat="42.0910440" lon="-2.5854370">
        <ele>1234.3</ele>
        <time>2022-08-14T07:17:43Z</time>
      </trkpt>
      <trkpt lat="42.0914850" lon="-2.5851090">
        <ele>1234.7</ele>
        <time>2022-08-14T07:17:51Z</time>
      </trkpt>
      <trkpt lat="42.0915350" lon="-2.5850610">
        <ele>1234.7</ele>
        <time>2022-08-14T07:17:52Z</time>
      </trkpt>
      <trkpt lat="42.0917450" lon="-2.5848030">
        <ele>1234.7</ele>
        <time>2022-08-14T07:17:57Z</time>
      </trkpt>
      <trkpt lat="42.0917820" lon="-2.5847430">
        <ele>1234.7</ele>
        <time>2022-08-14T07:17:58Z</time>
      </trkpt>
      <trkpt lat="42.0919360" lon="-2.5843300">
        <ele>1234.8</ele>
        <time>2022-08-14T07:18:04Z</time>
      </trkpt>
      <trkpt lat="42.0920330" lon="-2.5836900">
        <ele>1234.9</ele>
        <time>2022-08-14T07:18:13Z</time>
      </trkpt>
      <trkpt lat="42.0920980" lon="-2.5831000">
        <ele>1235.0</ele>
        <time>2022-08-14T07:18:21Z</time>
      </trkpt>
      <trkpt lat="42.0921520" lon="-2.5824640">
        <ele>1235.2</ele>
        <time>2022-08-14T07:18:30Z</time>
      </trkpt>
      <trkpt lat="42.0921870" lon="-2.5820900">
        <ele>1235.2</ele>
        <time>2022-08-14T07:18:35Z</time>
      </trkpt>
      <trkpt lat="42.0922550" lon="-2.5813740">
        <ele>1235.0</ele>
        <time>2022-08-14T07:18:45Z</time>
      </trkpt>
      <trkpt lat="42.0924030" lon="-2.5806200">
        <ele>1234.4</ele>
        <time>2022-08-14T07:18:55Z</time>
      </trkpt>
      <trkpt lat="42.0925150" lon="-2.5802480">
        <ele>1233.9</ele>
        <time>2022-08-14T07:19:00Z</time>
      </trkpt>
      <trkpt lat="42.0925730" lon="-2.5800650">
        <ele>1233.6</ele>
        <time>2022-08-14T07:19:02Z</time>
      </trkpt>
      <trkpt lat="42.0926280" lon="-2.5798980">
        <ele>1233.4</ele>
        <time>2022-08-14T07:19:04Z</time>
      </trkpt>
      <trkpt lat="42.0927050" lon="-2.5796470">
        <ele>1233.2</ele>
        <time>2022-08-14T07:19:07Z</time>
      </trkpt>
      <trkpt lat="42.0927300" lon="-2.5795610">
        <ele>1233.1</ele>
        <time>2022-08-14T07:19:08Z</time>
      </trkpt>
      <trkpt lat="42.0927750" lon="-2.5793870">
        <ele>1233.1</ele>
        <time>2022-08-14T07:19:10Z</time>
      </trkpt>
      <trkpt lat="42.0928130" lon="-2.5792110">
        <ele>1233.1</ele>
        <time>2022-08-14T07:19:12Z</time>
      </trkpt>
      <trkpt lat="42.0928510" lon="-2.5789480">
        <ele>1233.2</ele>
        <time>2022-08-14T07:19:15Z</time>
      </trkpt>
      <trkpt lat="42.0928530" lon="-2.5788630">
        <ele>1233.2</ele>
        <time>2022-08-14T07:19:16Z</time>
      </trkpt>
      <trkpt lat="42.0928580" lon="-2.5785550">
        <ele>1233.4</ele>
        <time>2022-08-14T07:19:20Z</time>
      </trkpt>
      <trkpt lat="42.0928580" lon="-2.5784860">
        <ele>1233.4</ele>
        <time>2022-08-14T07:19:21Z</time>
      </trkpt>
      <trkpt lat="42.0928430" lon="-2.5780230">
        <ele>1233.9</ele>
        <time>2022-08-14T07:19:28Z</time>
      </trkpt>
      <trkpt lat="42.0928430" lon="-2.5778950">
        <ele>1234.1</ele>
        <time>2022-08-14T07:19:30Z</time>
      </trkpt>
      <trkpt lat="42.0928400" lon="-2.5777640">
        <ele>1234.2</ele>
        <time>2022-08-14T07:19:32Z</time>
      </trkpt>
      <trkpt lat="42.0928370" lon="-2.5776370">
        <ele>1234.4</ele>
        <time>2022-08-14T07:19:34Z</time>
      </trkpt>
      <trkpt lat="42.0928480" lon="-2.5773270">
        <ele>1234.6</ele>
        <time>2022-08-14T07:19:39Z</time>
      </trkpt>
      <trkpt lat="42.0928510" lon="-2.5772630">
        <ele>1234.7</ele>
        <time>2022-08-14T07:19:40Z</time>
      </trkpt>
      <trkpt lat="42.0929160" lon="-2.5766530">
        <ele>1234.7</ele>
        <time>2022-08-14T07:19:49Z</time>
      </trkpt>
      <trkpt lat="42.0929470" lon="-2.5761000">
        <ele>1234.7</ele>
        <time>2022-08-14T07:19:56Z</time>
      </trkpt>
      <trkpt lat="42.0928730" lon="-2.5755280">
        <ele>1235.8</ele>
        <time>2022-08-14T07:20:03Z</time>
      </trkpt>
      <trkpt lat="42.0928300" lon="-2.5752650">
        <ele>1236.4</ele>
        <time>2022-08-14T07:20:07Z</time>
      </trkpt>
      <trkpt lat="42.0927930" lon="-2.5750590">
        <ele>1236.4</ele>
        <time>2022-08-14T07:20:10Z</time>
      </trkpt>
      <trkpt lat="42.0927750" lon="-2.5749330">
        <ele>1236.4</ele>
        <time>2022-08-14T07:20:12Z</time>
      </trkpt>
      <trkpt lat="42.0927590" lon="-2.5747500">
        <ele>1236.8</ele>
        <time>2022-08-14T07:20:15Z</time>
      </trkpt>
      <trkpt lat="42.0927460" lon="-2.5746380">
        <ele>1237.0</ele>
        <time>2022-08-14T07:20:18Z</time>
      </trkpt>
      <trkpt lat="42.0927270" lon="-2.5746040">
        <ele>1237.1</ele>
        <time>2022-08-14T07:20:20Z</time>
      </trkpt>
      <trkpt lat="42.0927220" lon="-2.5745980">
        <ele>1237.2</ele>
        <time>2022-08-14T07:20:21Z</time>
      </trkpt>
      <trkpt lat="42.0927220" lon="-2.5746010">
        <ele>1237.2</ele>
        <time>2022-08-14T07:21:21Z</time>
      </trkpt>
      <trkpt lat="42.0927230" lon="-2.5746160">
        <ele>1237.2</ele>
        <time>2022-08-14T07:21:22Z</time>
      </trkpt>
      <trkpt lat="42.0927230" lon="-2.5746350">
        <ele>1237.3</ele>
        <time>2022-08-14T07:21:23Z</time>
      </trkpt>
      <trkpt lat="42.0927020" lon="-2.5747260">
        <ele>1237.5</ele>
        <time>2022-08-14T07:21:29Z</time>
      </trkpt>
      <trkpt lat="42.0926990" lon="-2.5747340">
        <ele>1237.5</ele>
        <time>2022-08-14T07:21:31Z</time>
      </trkpt>
      <trkpt lat="42.0926990" lon="-2.5747340">
        <ele>1237.5</ele>
        <time>2022-08-14T07:24:09Z</time>
      </trkpt>
      <trkpt lat="42.0926990" lon="-2.5747340">
        <ele>1237.5</ele>
        <time>2022-08-14T07:24:10Z</time>
      </trkpt>
      <trkpt lat="42.0926990" lon="-2.5747340">
        <ele>1237.5</ele>
        <time>2022-08-14T07:24:11Z</time>
      </trkpt>
      <trkpt lat="42.0927120" lon="-2.5747240">
        <ele>1237.5</ele>
        <time>2022-08-14T07:25:10Z</time>
      </trkpt>
      <trkpt lat="42.0927140" lon="-2.5747210">
        <ele>1237.5</ele>
        <time>2022-08-14T07:25:11Z</time>
      </trkpt>
      <trkpt lat="42.0927230" lon="-2.5746910">
        <ele>1237.6</ele>
        <time>2022-08-14T07:25:12Z</time>
      </trkpt>
      <trkpt lat="42.0927290" lon="-2.5745590">
        <ele>1237.9</ele>
        <time>2022-08-14T07:25:15Z</time>
      </trkpt>
      <trkpt lat="42.0927280" lon="-2.5744700">
        <ele>1238.2</ele>
        <time>2022-08-14T07:25:17Z</time>
      </trkpt>
      <trkpt lat="42.0927320" lon="-2.5743730">
        <ele>1238.4</ele>
        <time>2022-08-14T07:25:19Z</time>
      </trkpt>
      <trkpt lat="42.0927350" lon="-2.5743220">
        <ele>1238.5</ele>
        <time>2022-08-14T07:25:20Z</time>
      </trkpt>
      <trkpt lat="42.0927360" lon="-2.5742740">
        <ele>1238.7</ele>
        <time>2022-08-14T07:25:21Z</time>
      </trkpt>
      <trkpt lat="42.0927370" lon="-2.5742230">
        <ele>1238.8</ele>
        <time>2022-08-14T07:25:22Z</time>
      </trkpt>
      <trkpt lat="42.0927400" lon="-2.5740660">
        <ele>1239.2</ele>
        <time>2022-08-14T07:25:25Z</time>
      </trkpt>
      <trkpt lat="42.0927510" lon="-2.5738120">
        <ele>1239.8</ele>
        <time>2022-08-14T07:25:30Z</time>
      </trkpt>
      <trkpt lat="42.0927700" lon="-2.5733960">
        <ele>1240.9</ele>
        <time>2022-08-14T07:25:38Z</time>
      </trkpt>
      <trkpt lat="42.0927750" lon="-2.5732840">
        <ele>1241.2</ele>
        <time>2022-08-14T07:25:40Z</time>
      </trkpt>
      <trkpt lat="42.0927860" lon="-2.5730390">
        <ele>1241.8</ele>
        <time>2022-08-14T07:25:45Z</time>
      </trkpt>
      <trkpt lat="42.0927940" lon="-2.5728580">
        <ele>1242.3</ele>
        <time>2022-08-14T07:25:48Z</time>
      </trkpt>
      <trkpt lat="42.0927960" lon="-2.5728040">
        <ele>1242.5</ele>
        <time>2022-08-14T07:25:49Z</time>
      </trkpt>
      <trkpt lat="42.0928050" lon="-2.5725010">
        <ele>1243.4</ele>
        <time>2022-08-14T07:25:55Z</time>
      </trkpt>
      <trkpt lat="42.0928130" lon="-2.5723590">
        <ele>1243.8</ele>
        <time>2022-08-14T07:25:58Z</time>
      </trkpt>
      <trkpt lat="42.0928160" lon="-2.5723110">
        <ele>1243.9</ele>
        <time>2022-08-14T07:25:59Z</time>
      </trkpt>
      <trkpt lat="42.0928310" lon="-2.5719380">
        <ele>1245.0</ele>
        <time>2022-08-14T07:26:07Z</time>
      </trkpt>
      <trkpt lat="42.0928380" lon="-2.5718470">
        <ele>1245.3</ele>
        <time>2022-08-14T07:26:09Z</time>
      </trkpt>
      <trkpt lat="42.0928580" lon="-2.5716130">
        <ele>1245.9</ele>
        <time>2022-08-14T07:26:14Z</time>
      </trkpt>
      <trkpt lat="42.0929130" lon="-2.5712680">
        <ele>1246.8</ele>
        <time>2022-08-14T07:26:21Z</time>
      </trkpt>
      <trkpt lat="42.0929320" lon="-2.5711660">
        <ele>1247.1</ele>
        <time>2022-08-14T07:26:23Z</time>
      </trkpt>
      <trkpt lat="42.0930160" lon="-2.5708750">
        <ele>1247.8</ele>
        <time>2022-08-14T07:26:29Z</time>
      </trkpt>
      <trkpt lat="42.0930680" lon="-2.5707310">
        <ele>1248.2</ele>
        <time>2022-08-14T07:26:32Z</time>
      </trkpt>
      <trkpt lat="42.0932010" lon="-2.5704600">
        <ele>1248.7</ele>
        <time>2022-08-14T07:26:38Z</time>
      </trkpt>
      <trkpt lat="42.0932250" lon="-2.5704140">
        <ele>1248.8</ele>
        <time>2022-08-14T07:26:39Z</time>
      </trkpt>
      <trkpt lat="42.0934550" lon="-2.5700420">
        <ele>1249.4</ele>
        <time>2022-08-14T07:26:48Z</time>
      </trkpt>
      <trkpt lat="42.0935920" lon="-2.5698290">
        <ele>1249.7</ele>
        <time>2022-08-14T07:26:53Z</time>
      </trkpt>
      <trkpt lat="42.0936810" lon="-2.5696940">
        <ele>1249.9</ele>
        <time>2022-08-14T07:26:56Z</time>
      </trkpt>
      <trkpt lat="42.0937410" lon="-2.5696050">
        <ele>1250.1</ele>
        <time>2022-08-14T07:26:58Z</time>
      </trkpt>
      <trkpt lat="42.0941040" lon="-2.5690540">
        <ele>1250.9</ele>
        <time>2022-08-14T07:27:10Z</time>
      </trkpt>
      <trkpt lat="42.0941640" lon="-2.5689630">
        <ele>1251.1</ele>
        <time>2022-08-14T07:27:12Z</time>
      </trkpt>
      <trkpt lat="42.0942250" lon="-2.5688730">
        <ele>1251.2</ele>
        <time>2022-08-14T07:27:14Z</time>
      </trkpt>
      <trkpt lat="42.0945630" lon="-2.5683550">
        <ele>1252.0</ele>
        <time>2022-08-14T07:27:25Z</time>
      </trkpt>
      <trkpt lat="42.0946270" lon="-2.5682570">
        <ele>1252.2</ele>
        <time>2022-08-14T07:27:27Z</time>
      </trkpt>
      <trkpt lat="42.0949670" lon="-2.5677310">
        <ele>1252.6</ele>
        <time>2022-08-14T07:27:39Z</time>
      </trkpt>
      <trkpt lat="42.0950440" lon="-2.5676000">
        <ele>1252.6</ele>
        <time>2022-08-14T07:27:41Z</time>
      </trkpt>
      <trkpt lat="42.0951740" lon="-2.5673590">
        <ele>1252.4</ele>
        <time>2022-08-14T07:27:45Z</time>
      </trkpt>
      <trkpt lat="42.0952760" lon="-2.5671150">
        <ele>1252.1</ele>
        <time>2022-08-14T07:27:49Z</time>
      </trkpt>
      <trkpt lat="42.0953000" lon="-2.5670510">
        <ele>1252.0</ele>
        <time>2022-08-14T07:27:50Z</time>
      </trkpt>
      <trkpt lat="42.0953480" lon="-2.5669130">
        <ele>1251.8</ele>
        <time>2022-08-14T07:27:52Z</time>
      </trkpt>
      <trkpt lat="42.0954140" lon="-2.5666920">
        <ele>1251.5</ele>
        <time>2022-08-14T07:27:55Z</time>
      </trkpt>
      <trkpt lat="42.0954480" lon="-2.5665360">
        <ele>1251.4</ele>
        <time>2022-08-14T07:27:57Z</time>
      </trkpt>
      <trkpt lat="42.0955330" lon="-2.5658210">
        <ele>1251.1</ele>
        <time>2022-08-14T07:28:06Z</time>
      </trkpt>
      <trkpt lat="42.0955360" lon="-2.5656660">
        <ele>1251.1</ele>
        <time>2022-08-14T07:28:08Z</time>
      </trkpt>
      <trkpt lat="42.0955240" lon="-2.5654450">
        <ele>1251.1</ele>
        <time>2022-08-14T07:28:11Z</time>
      </trkpt>
      <trkpt lat="42.0955110" lon="-2.5652990">
        <ele>1251.2</ele>
        <time>2022-08-14T07:28:13Z</time>
      </trkpt>
      <trkpt lat="42.0955020" lon="-2.5652260">
        <ele>1251.2</ele>
        <time>2022-08-14T07:28:14Z</time>
      </trkpt>
      <trkpt lat="42.0954090" lon="-2.5647690">
        <ele>1251.6</ele>
        <time>2022-08-14T07:28:21Z</time>
      </trkpt>
      <trkpt lat="42.0953250" lon="-2.5644640">
        <ele>1251.8</ele>
        <time>2022-08-14T07:28:26Z</time>
      </trkpt>
      <trkpt lat="42.0952810" lon="-2.5643500">
        <ele>1251.8</ele>
        <time>2022-08-14T07:28:28Z</time>
      </trkpt>
      <trkpt lat="42.0951020" lon="-2.5639710">
        <ele>1252.3</ele>
        <time>2022-08-14T07:28:35Z</time>
      </trkpt>
      <trkpt lat="42.0950450" lon="-2.5638640">
        <ele>1252.4</ele>
        <time>2022-08-14T07:28:37Z</time>
      </trkpt>
      <trkpt lat="42.0949510" lon="-2.5637150">
        <ele>1252.7</ele>
        <time>2022-08-14T07:28:40Z</time>
      </trkpt>
      <trkpt lat="42.0946770" lon="-2.5633630">
        <ele>1253.6</ele>
        <time>2022-08-14T07:28:48Z</time>
      </trkpt>
      <trkpt lat="42.0945380" lon="-2.5632190">
        <ele>1254.0</ele>
        <time>2022-08-14T07:28:52Z</time>
      </trkpt>
      <trkpt lat="42.0945030" lon="-2.5631850">
        <ele>1254.0</ele>
        <time>2022-08-14T07:28:53Z</time>
      </trkpt>
      <trkpt lat="42.0944720" lon="-2.5631520">
        <ele>1254.0</ele>
        <time>2022-08-14T07:28:54Z</time>
      </trkpt>
      <trkpt lat="42.0942570" lon="-2.5629450">
        <ele>1254.1</ele>
        <time>2022-08-14T07:29:01Z</time>
      </trkpt>
      <trkpt lat="42.0941510" lon="-2.5628320">
        <ele>1254.8</ele>
        <time>2022-08-14T07:29:05Z</time>
      </trkpt>
      <trkpt lat="42.0940970" lon="-2.5627820">
        <ele>1255.2</ele>
        <time>2022-08-14T07:29:07Z</time>
      </trkpt>
      <trkpt lat="42.0939280" lon="-2.5626380">
        <ele>1256.5</ele>
        <time>2022-08-14T07:29:13Z</time>
      </trkpt>
      <trkpt lat="42.0938770" lon="-2.5625920">
        <ele>1256.9</ele>
        <time>2022-08-14T07:29:15Z</time>
      </trkpt>
      <trkpt lat="42.0938040" lon="-2.5625140">
        <ele>1257.6</ele>
        <time>2022-08-14T07:29:18Z</time>
      </trkpt>
      <trkpt lat="42.0936550" lon="-2.5623680">
        <ele>1258.8</ele>
        <time>2022-08-14T07:29:24Z</time>
      </trkpt>
      <trkpt lat="42.0936300" lon="-2.5623470">
        <ele>1258.9</ele>
        <time>2022-08-14T07:29:25Z</time>
      </trkpt>
      <trkpt lat="42.0935040" lon="-2.5622340">
        <ele>1260.0</ele>
        <time>2022-08-14T07:29:30Z</time>
      </trkpt>
      <trkpt lat="42.0933830" lon="-2.5621100">
        <ele>1261.0</ele>
        <time>2022-08-14T07:29:35Z</time>
      </trkpt>
      <trkpt lat="42.0933600" lon="-2.5620830">
        <ele>1261.2</ele>
        <time>2022-08-14T07:29:36Z</time>
      </trkpt>
      <trkpt lat="42.0932360" lon="-2.5619640">
        <ele>1262.1</ele>
        <time>2022-08-14T07:29:41Z</time>
      </trkpt>
      <trkpt lat="42.0931920" lon="-2.5619220">
        <ele>1262.5</ele>
        <time>2022-08-14T07:29:43Z</time>
      </trkpt>
      <trkpt lat="42.0930800" lon="-2.5618100">
        <ele>1263.4</ele>
        <time>2022-08-14T07:29:48Z</time>
      </trkpt>
      <trkpt lat="42.0929670" lon="-2.5616980">
        <ele>1264.2</ele>
        <time>2022-08-14T07:29:53Z</time>
      </trkpt>
      <trkpt lat="42.0929220" lon="-2.5616570">
        <ele>1264.5</ele>
        <time>2022-08-14T07:29:55Z</time>
      </trkpt>
      <trkpt lat="42.0928160" lon="-2.5615250">
        <ele>1265.4</ele>
        <time>2022-08-14T07:30:00Z</time>
      </trkpt>
      <trkpt lat="42.0927730" lon="-2.5614760">
        <ele>1265.7</ele>
        <time>2022-08-14T07:30:02Z</time>
      </trkpt>
      <trkpt lat="42.0926510" lon="-2.5613230">
        <ele>1266.7</ele>
        <time>2022-08-14T07:30:08Z</time>
      </trkpt>
      <trkpt lat="42.0926310" lon="-2.5612960">
        <ele>1266.8</ele>
        <time>2022-08-14T07:30:09Z</time>
      </trkpt>
      <trkpt lat="42.0924710" lon="-2.5610870">
        <ele>1267.9</ele>
        <time>2022-08-14T07:30:17Z</time>
      </trkpt>
      <trkpt lat="42.0922670" lon="-2.5608120">
        <ele>1269.2</ele>
        <time>2022-08-14T07:30:27Z</time>
      </trkpt>
      <trkpt lat="42.0921280" lon="-2.5606020">
        <ele>1270.2</ele>
        <time>2022-08-14T07:30:34Z</time>
      </trkpt>
      <trkpt lat="42.0920730" lon="-2.5605160">
        <ele>1270.6</ele>
        <time>2022-08-14T07:30:37Z</time>
      </trkpt>
      <trkpt lat="42.0920170" lon="-2.5604210">
        <ele>1271.0</ele>
        <time>2022-08-14T07:30:40Z</time>
      </trkpt>
      <trkpt lat="42.0919060" lon="-2.5602190">
        <ele>1271.9</ele>
        <time>2022-08-14T07:30:46Z</time>
      </trkpt>
      <trkpt lat="42.0918450" lon="-2.5600900">
        <ele>1272.5</ele>
        <time>2022-08-14T07:30:50Z</time>
      </trkpt>
      <trkpt lat="42.0917800" lon="-2.5599480">
        <ele>1273.0</ele>
        <time>2022-08-14T07:30:54Z</time>
      </trkpt>
      <trkpt lat="42.0917000" lon="-2.5597760">
        <ele>1273.6</ele>
        <time>2022-08-14T07:30:59Z</time>
      </trkpt>
      <trkpt lat="42.0916100" lon="-2.5595670">
        <ele>1274.3</ele>
        <time>2022-08-14T07:31:05Z</time>
      </trkpt>
      <trkpt lat="42.0915930" lon="-2.5595320">
        <ele>1274.4</ele>
        <time>2022-08-14T07:31:06Z</time>
      </trkpt>
      <trkpt lat="42.0914450" lon="-2.5592040">
        <ele>1275.5</ele>
        <time>2022-08-14T07:31:16Z</time>
      </trkpt>
      <trkpt lat="42.0913210" lon="-2.5588900">
        <ele>1276.5</ele>
        <time>2022-08-14T07:31:25Z</time>
      </trkpt>
      <trkpt lat="42.0913050" lon="-2.5588560">
        <ele>1276.6</ele>
        <time>2022-08-14T07:31:26Z</time>
      </trkpt>
      <trkpt lat="42.0912030" lon="-2.5586150">
        <ele>1277.3</ele>
        <time>2022-08-14T07:31:33Z</time>
      </trkpt>
      <trkpt lat="42.0911640" lon="-2.5585130">
        <ele>1277.7</ele>
        <time>2022-08-14T07:31:36Z</time>
      </trkpt>
      <trkpt lat="42.0910890" lon="-2.5583040">
        <ele>1278.3</ele>
        <time>2022-08-14T07:31:43Z</time>
      </trkpt>
      <trkpt lat="42.0909720" lon="-2.5578940">
        <ele>1279.5</ele>
        <time>2022-08-14T07:31:53Z</time>
      </trkpt>
      <trkpt lat="42.0909630" lon="-2.5578580">
        <ele>1279.6</ele>
        <time>2022-08-14T07:31:54Z</time>
      </trkpt>
      <trkpt lat="42.0908960" lon="-2.5576220">
        <ele>1280.2</ele>
        <time>2022-08-14T07:32:00Z</time>
      </trkpt>
      <trkpt lat="42.0908450" lon="-2.5574410">
        <ele>1280.7</ele>
        <time>2022-08-14T07:32:05Z</time>
      </trkpt>
      <trkpt lat="42.0908260" lon="-2.5573660">
        <ele>1280.9</ele>
        <time>2022-08-14T07:32:07Z</time>
      </trkpt>
      <trkpt lat="42.0907950" lon="-2.5572060">
        <ele>1281.4</ele>
        <time>2022-08-14T07:32:11Z</time>
      </trkpt>
      <trkpt lat="42.0907460" lon="-2.5570150">
        <ele>1282.0</ele>
        <time>2022-08-14T07:32:16Z</time>
      </trkpt>
      <trkpt lat="42.0907210" lon="-2.5569000">
        <ele>1282.3</ele>
        <time>2022-08-14T07:32:19Z</time>
      </trkpt>
      <trkpt lat="42.0906820" lon="-2.5567530">
        <ele>1282.8</ele>
        <time>2022-08-14T07:32:23Z</time>
      </trkpt>
      <trkpt lat="42.0906200" lon="-2.5565710">
        <ele>1283.4</ele>
        <time>2022-08-14T07:32:28Z</time>
      </trkpt>
      <trkpt lat="42.0905720" lon="-2.5564280">
        <ele>1283.9</ele>
        <time>2022-08-14T07:32:32Z</time>
      </trkpt>
      <trkpt lat="42.0905130" lon="-2.5562920">
        <ele>1284.4</ele>
        <time>2022-08-14T07:32:36Z</time>
      </trkpt>
      <trkpt lat="42.0904110" lon="-2.5560810">
        <ele>1285.3</ele>
        <time>2022-08-14T07:32:42Z</time>
      </trkpt>
      <trkpt lat="42.0903640" lon="-2.5559820">
        <ele>1285.7</ele>
        <time>2022-08-14T07:32:45Z</time>
      </trkpt>
      <trkpt lat="42.0902810" lon="-2.5558150">
        <ele>1286.5</ele>
        <time>2022-08-14T07:32:50Z</time>
      </trkpt>
      <trkpt lat="42.0902480" lon="-2.5557530">
        <ele>1286.8</ele>
        <time>2022-08-14T07:32:52Z</time>
      </trkpt>
      <trkpt lat="42.0901600" lon="-2.5555630">
        <ele>1287.6</ele>
        <time>2022-08-14T07:32:58Z</time>
      </trkpt>
      <trkpt lat="42.0901470" lon="-2.5555310">
        <ele>1287.7</ele>
        <time>2022-08-14T07:32:59Z</time>
      </trkpt>
      <trkpt lat="42.0900370" lon="-2.5552990">
        <ele>1288.6</ele>
        <time>2022-08-14T07:33:06Z</time>
      </trkpt>
      <trkpt lat="42.0899490" lon="-2.5550900">
        <ele>1289.2</ele>
        <time>2022-08-14T07:33:12Z</time>
      </trkpt>
      <trkpt lat="42.0898610" lon="-2.5548280">
        <ele>1290.0</ele>
        <time>2022-08-14T07:33:19Z</time>
      </trkpt>
      <trkpt lat="42.0898370" lon="-2.5547530">
        <ele>1290.1</ele>
        <time>2022-08-14T07:33:21Z</time>
      </trkpt>
      <trkpt lat="42.0897600" lon="-2.5544740">
        <ele>1290.7</ele>
        <time>2022-08-14T07:33:28Z</time>
      </trkpt>
      <trkpt lat="42.0897000" lon="-2.5542400">
        <ele>1291.2</ele>
        <time>2022-08-14T07:33:34Z</time>
      </trkpt>
      <trkpt lat="42.0896740" lon="-2.5541240">
        <ele>1291.5</ele>
        <time>2022-08-14T07:33:37Z</time>
      </trkpt>
      <trkpt lat="42.0896140" lon="-2.5538520">
        <ele>1292.2</ele>
        <time>2022-08-14T07:33:44Z</time>
      </trkpt>
      <trkpt lat="42.0895920" lon="-2.5537370">
        <ele>1292.5</ele>
        <time>2022-08-14T07:33:47Z</time>
      </trkpt>
      <trkpt lat="42.0895580" lon="-2.5535790">
        <ele>1292.9</ele>
        <time>2022-08-14T07:33:51Z</time>
      </trkpt>
      <trkpt lat="42.0895180" lon="-2.5534290">
        <ele>1293.3</ele>
        <time>2022-08-14T07:33:55Z</time>
      </trkpt>
      <trkpt lat="42.0894650" lon="-2.5532030">
        <ele>1294.1</ele>
        <time>2022-08-14T07:34:01Z</time>
      </trkpt>
      <trkpt lat="42.0894390" lon="-2.5530890">
        <ele>1294.5</ele>
        <time>2022-08-14T07:34:04Z</time>
      </trkpt>
      <trkpt lat="42.0893780" lon="-2.5528670">
        <ele>1295.3</ele>
        <time>2022-08-14T07:34:10Z</time>
      </trkpt>
      <trkpt lat="42.0893480" lon="-2.5527140">
        <ele>1295.9</ele>
        <time>2022-08-14T07:34:14Z</time>
      </trkpt>
      <trkpt lat="42.0892940" lon="-2.5524830">
        <ele>1296.9</ele>
        <time>2022-08-14T07:34:20Z</time>
      </trkpt>
      <trkpt lat="42.0892570" lon="-2.5523110">
        <ele>1297.6</ele>
        <time>2022-08-14T07:34:25Z</time>
      </trkpt>
      <trkpt lat="42.0892390" lon="-2.5522410">
        <ele>1298.0</ele>
        <time>2022-08-14T07:34:27Z</time>
      </trkpt>
      <trkpt lat="42.0891720" lon="-2.5519500">
        <ele>1299.5</ele>
        <time>2022-08-14T07:34:36Z</time>
      </trkpt>
      <trkpt lat="42.0891620" lon="-2.5519140">
        <ele>1299.7</ele>
        <time>2022-08-14T07:34:37Z</time>
      </trkpt>
      <trkpt lat="42.0891170" lon="-2.5517440">
        <ele>1300.6</ele>
        <time>2022-08-14T07:34:42Z</time>
      </trkpt>
      <trkpt lat="42.0890780" lon="-2.5516060">
        <ele>1301.3</ele>
        <time>2022-08-14T07:34:46Z</time>
      </trkpt>
      <trkpt lat="42.0890260" lon="-2.5514350">
        <ele>1302.1</ele>
        <time>2022-08-14T07:34:51Z</time>
      </trkpt>
      <trkpt lat="42.0889700" lon="-2.5513040">
        <ele>1302.7</ele>
        <time>2022-08-14T07:34:55Z</time>
      </trkpt>
      <trkpt lat="42.0889390" lon="-2.5512450">
        <ele>1303.1</ele>
        <time>2022-08-14T07:34:57Z</time>
      </trkpt>
      <trkpt lat="42.0888160" lon="-2.5510620">
        <ele>1304.2</ele>
        <time>2022-08-14T07:35:04Z</time>
      </trkpt>
      <trkpt lat="42.0886890" lon="-2.5509230">
        <ele>1305.1</ele>
        <time>2022-08-14T07:35:11Z</time>
      </trkpt>
      <trkpt lat="42.0885950" lon="-2.5508440">
        <ele>1305.8</ele>
        <time>2022-08-14T07:35:15Z</time>
      </trkpt>
      <trkpt lat="42.0885750" lon="-2.5508260">
        <ele>1305.9</ele>
        <time>2022-08-14T07:35:16Z</time>
      </trkpt>
      <trkpt lat="42.0884480" lon="-2.5507240">
        <ele>1306.7</ele>
        <time>2022-08-14T07:35:22Z</time>
      </trkpt>
      <trkpt lat="42.0884260" lon="-2.5507100">
        <ele>1306.8</ele>
        <time>2022-08-14T07:35:23Z</time>
      </trkpt>
      <trkpt lat="42.0882650" lon="-2.5506220">
        <ele>1307.6</ele>
        <time>2022-08-14T07:35:30Z</time>
      </trkpt>
      <trkpt lat="42.0882220" lon="-2.5505920">
        <ele>1307.9</ele>
        <time>2022-08-14T07:35:32Z</time>
      </trkpt>
      <trkpt lat="42.0880840" lon="-2.5505030">
        <ele>1308.5</ele>
        <time>2022-08-14T07:35:38Z</time>
      </trkpt>
      <trkpt lat="42.0879870" lon="-2.5504500">
        <ele>1308.9</ele>
        <time>2022-08-14T07:35:42Z</time>
      </trkpt>
      <trkpt lat="42.0878920" lon="-2.5503990">
        <ele>1309.3</ele>
        <time>2022-08-14T07:35:46Z</time>
      </trkpt>
      <trkpt lat="42.0877240" lon="-2.5503190">
        <ele>1309.9</ele>
        <time>2022-08-14T07:35:53Z</time>
      </trkpt>
      <trkpt lat="42.0876650" lon="-2.5502960">
        <ele>1310.2</ele>
        <time>2022-08-14T07:35:55Z</time>
      </trkpt>
      <trkpt lat="42.0875390" lon="-2.5502430">
        <ele>1310.7</ele>
        <time>2022-08-14T07:36:00Z</time>
      </trkpt>
      <trkpt lat="42.0875140" lon="-2.5502350">
        <ele>1310.8</ele>
        <time>2022-08-14T07:36:01Z</time>
      </trkpt>
      <trkpt lat="42.0872920" lon="-2.5501530">
        <ele>1311.9</ele>
        <time>2022-08-14T07:36:10Z</time>
      </trkpt>
      <trkpt lat="42.0870820" lon="-2.5500840">
        <ele>1313.1</ele>
        <time>2022-08-14T07:36:18Z</time>
      </trkpt>
      <trkpt lat="42.0870560" lon="-2.5500760">
        <ele>1313.2</ele>
        <time>2022-08-14T07:36:19Z</time>
      </trkpt>
      <trkpt lat="42.0868190" lon="-2.5500020">
        <ele>1314.4</ele>
        <time>2022-08-14T07:36:28Z</time>
      </trkpt>
      <trkpt lat="42.0866130" lon="-2.5499240">
        <ele>1315.4</ele>
        <time>2022-08-14T07:36:36Z</time>
      </trkpt>
      <trkpt lat="42.0865610" lon="-2.5499080">
        <ele>1315.7</ele>
        <time>2022-08-14T07:36:38Z</time>
      </trkpt>
      <trkpt lat="42.0865110" lon="-2.5498900">
        <ele>1315.9</ele>
        <time>2022-08-14T07:36:40Z</time>
      </trkpt>
      <trkpt lat="42.0863630" lon="-2.5498350">
        <ele>1316.7</ele>
        <time>2022-08-14T07:36:46Z</time>
      </trkpt>
      <trkpt lat="42.0863390" lon="-2.5498240">
        <ele>1316.8</ele>
        <time>2022-08-14T07:36:47Z</time>
      </trkpt>
      <trkpt lat="42.0861500" lon="-2.5497180">
        <ele>1317.9</ele>
        <time>2022-08-14T07:36:55Z</time>
      </trkpt>
      <trkpt lat="42.0861070" lon="-2.5496850">
        <ele>1318.2</ele>
        <time>2022-08-14T07:36:57Z</time>
      </trkpt>
      <trkpt lat="42.0859810" lon="-2.5495810">
        <ele>1318.9</ele>
        <time>2022-08-14T07:37:03Z</time>
      </trkpt>
      <trkpt lat="42.0859340" lon="-2.5495530">
        <ele>1319.2</ele>
        <time>2022-08-14T07:37:05Z</time>
      </trkpt>
      <trkpt lat="42.0858240" lon="-2.5494570">
        <ele>1319.9</ele>
        <time>2022-08-14T07:37:10Z</time>
      </trkpt>
      <trkpt lat="42.0857390" lon="-2.5493670">
        <ele>1320.4</ele>
        <time>2022-08-14T07:37:14Z</time>
      </trkpt>
      <trkpt lat="42.0855990" lon="-2.5492070">
        <ele>1321.2</ele>
        <time>2022-08-14T07:37:21Z</time>
      </trkpt>
      <trkpt lat="42.0855810" lon="-2.5491820">
        <ele>1321.4</ele>
        <time>2022-08-14T07:37:22Z</time>
      </trkpt>
      <trkpt lat="42.0854680" lon="-2.5490390">
        <ele>1322.1</ele>
        <time>2022-08-14T07:37:28Z</time>
      </trkpt>
      <trkpt lat="42.0854290" lon="-2.5489920">
        <ele>1322.4</ele>
        <time>2022-08-14T07:37:30Z</time>
      </trkpt>
      <trkpt lat="42.0853720" lon="-2.5489200">
        <ele>1322.8</ele>
        <time>2022-08-14T07:37:33Z</time>
      </trkpt>
      <trkpt lat="42.0852390" lon="-2.5487950">
        <ele>1323.6</ele>
        <time>2022-08-14T07:37:39Z</time>
      </trkpt>
      <trkpt lat="42.0852050" lon="-2.5487660">
        <ele>1323.8</ele>
        <time>2022-08-14T07:37:41Z</time>
      </trkpt>
      <trkpt lat="42.0850930" lon="-2.5486780">
        <ele>1324.5</ele>
        <time>2022-08-14T07:37:46Z</time>
      </trkpt>
      <trkpt lat="42.0850030" lon="-2.5486260">
        <ele>1325.1</ele>
        <time>2022-08-14T07:37:50Z</time>
      </trkpt>
      <trkpt lat="42.0849140" lon="-2.5485840">
        <ele>1325.7</ele>
        <time>2022-08-14T07:37:54Z</time>
      </trkpt>
      <trkpt lat="42.0848090" lon="-2.5485250">
        <ele>1326.4</ele>
        <time>2022-08-14T07:37:59Z</time>
      </trkpt>
      <trkpt lat="42.0846620" lon="-2.5484400">
        <ele>1327.5</ele>
        <time>2022-08-14T07:38:06Z</time>
      </trkpt>
      <trkpt lat="42.0846430" lon="-2.5484260">
        <ele>1327.6</ele>
        <time>2022-08-14T07:38:07Z</time>
      </trkpt>
      <trkpt lat="42.0845190" lon="-2.5483570">
        <ele>1328.5</ele>
        <time>2022-08-14T07:38:13Z</time>
      </trkpt>
      <trkpt lat="42.0844150" lon="-2.5482940">
        <ele>1329.3</ele>
        <time>2022-08-14T07:38:18Z</time>
      </trkpt>
      <trkpt lat="42.0843960" lon="-2.5482820">
        <ele>1329.5</ele>
        <time>2022-08-14T07:38:19Z</time>
      </trkpt>
      <trkpt lat="42.0843590" lon="-2.5482560">
        <ele>1329.8</ele>
        <time>2022-08-14T07:38:21Z</time>
      </trkpt>
      <trkpt lat="42.0842210" lon="-2.5481660">
        <ele>1330.8</ele>
        <time>2022-08-14T07:38:28Z</time>
      </trkpt>
      <trkpt lat="42.0842030" lon="-2.5481510">
        <ele>1330.9</ele>
        <time>2022-08-14T07:38:29Z</time>
      </trkpt>
      <trkpt lat="42.0840990" lon="-2.5480640">
        <ele>1331.6</ele>
        <time>2022-08-14T07:38:35Z</time>
      </trkpt>
      <trkpt lat="42.0840430" lon="-2.5480140">
        <ele>1332.0</ele>
        <time>2022-08-14T07:38:38Z</time>
      </trkpt>
      <trkpt lat="42.0839120" lon="-2.5479090">
        <ele>1332.9</ele>
        <time>2022-08-14T07:38:45Z</time>
      </trkpt>
      <trkpt lat="42.0838690" lon="-2.5478730">
        <ele>1333.2</ele>
        <time>2022-08-14T07:38:47Z</time>
      </trkpt>
      <trkpt lat="42.0837610" lon="-2.5477700">
        <ele>1334.0</ele>
        <time>2022-08-14T07:38:53Z</time>
      </trkpt>
      <trkpt lat="42.0837380" lon="-2.5477550">
        <ele>1334.1</ele>
        <time>2022-08-14T07:38:54Z</time>
      </trkpt>
      <trkpt lat="42.0836220" lon="-2.5476590">
        <ele>1334.9</ele>
        <time>2022-08-14T07:39:00Z</time>
      </trkpt>
      <trkpt lat="42.0836050" lon="-2.5476410">
        <ele>1335.0</ele>
        <time>2022-08-14T07:39:01Z</time>
      </trkpt>
      <trkpt lat="42.0835710" lon="-2.5476090">
        <ele>1335.2</ele>
        <time>2022-08-14T07:39:03Z</time>
      </trkpt>
      <trkpt lat="42.0834150" lon="-2.5474620">
        <ele>1336.3</ele>
        <time>2022-08-14T07:39:12Z</time>
      </trkpt>
      <trkpt lat="42.0833960" lon="-2.5474460">
        <ele>1336.5</ele>
        <time>2022-08-14T07:39:13Z</time>
      </trkpt>
      <trkpt lat="42.0833620" lon="-2.5474110">
        <ele>1336.7</ele>
        <time>2022-08-14T07:39:15Z</time>
      </trkpt>
      <trkpt lat="42.0832920" lon="-2.5473440">
        <ele>1337.2</ele>
        <time>2022-08-14T07:39:19Z</time>
      </trkpt>
      <trkpt lat="42.0832540" lon="-2.5473090">
        <ele>1337.5</ele>
        <time>2022-08-14T07:39:21Z</time>
      </trkpt>
      <trkpt lat="42.0831330" lon="-2.5472070">
        <ele>1338.4</ele>
        <time>2022-08-14T07:39:28Z</time>
      </trkpt>
      <trkpt lat="42.0831140" lon="-2.5471930">
        <ele>1338.5</ele>
        <time>2022-08-14T07:39:29Z</time>
      </trkpt>
      <trkpt lat="42.0829830" lon="-2.5470750">
        <ele>1339.5</ele>
        <time>2022-08-14T07:39:36Z</time>
      </trkpt>
      <trkpt lat="42.0829430" lon="-2.5470400">
        <ele>1339.8</ele>
        <time>2022-08-14T07:39:38Z</time>
      </trkpt>
      <trkpt lat="42.0828500" lon="-2.5469580">
        <ele>1340.5</ele>
        <time>2022-08-14T07:39:43Z</time>
      </trkpt>
      <trkpt lat="42.0828130" lon="-2.5469200">
        <ele>1340.7</ele>
        <time>2022-08-14T07:39:45Z</time>
      </trkpt>
      <trkpt lat="42.0826990" lon="-2.5467950">
        <ele>1341.6</ele>
        <time>2022-08-14T07:39:51Z</time>
      </trkpt>
      <trkpt lat="42.0826310" lon="-2.5467240">
        <ele>1342.2</ele>
        <time>2022-08-14T07:39:55Z</time>
      </trkpt>
      <trkpt lat="42.0825790" lon="-2.5466750">
        <ele>1342.5</ele>
        <time>2022-08-14T07:39:58Z</time>
      </trkpt>
      <trkpt lat="42.0824700" lon="-2.5465680">
        <ele>1343.4</ele>
        <time>2022-08-14T07:40:04Z</time>
      </trkpt>
      <trkpt lat="42.0824150" lon="-2.5465120">
        <ele>1343.8</ele>
        <time>2022-08-14T07:40:07Z</time>
      </trkpt>
      <trkpt lat="42.0823560" lon="-2.5464540">
        <ele>1344.2</ele>
        <time>2022-08-14T07:40:10Z</time>
      </trkpt>
      <trkpt lat="42.0823070" lon="-2.5463970">
        <ele>1344.6</ele>
        <time>2022-08-14T07:40:13Z</time>
      </trkpt>
      <trkpt lat="42.0822560" lon="-2.5463430">
        <ele>1345.0</ele>
        <time>2022-08-14T07:40:16Z</time>
      </trkpt>
      <trkpt lat="42.0821020" lon="-2.5462150">
        <ele>1346.0</ele>
        <time>2022-08-14T07:40:24Z</time>
      </trkpt>
      <trkpt lat="42.0820810" lon="-2.5462060">
        <ele>1346.1</ele>
        <time>2022-08-14T07:40:25Z</time>
      </trkpt>
      <trkpt lat="42.0819080" lon="-2.5461290">
        <ele>1347.0</ele>
        <time>2022-08-14T07:40:32Z</time>
      </trkpt>
      <trkpt lat="42.0818760" lon="-2.5461080">
        <ele>1347.0</ele>
        <time>2022-08-14T07:40:33Z</time>
      </trkpt>
      <trkpt lat="42.0817530" lon="-2.5460300">
        <ele>1346.9</ele>
        <time>2022-08-14T07:40:36Z</time>
      </trkpt>
      <trkpt lat="42.0816990" lon="-2.5460070">
        <ele>1346.9</ele>
        <time>2022-08-14T07:40:37Z</time>
      </trkpt>
      <trkpt lat="42.0815820" lon="-2.5459530">
        <ele>1346.8</ele>
        <time>2022-08-14T07:40:39Z</time>
      </trkpt>
      <trkpt lat="42.0814460" lon="-2.5458960">
        <ele>1346.8</ele>
        <time>2022-08-14T07:40:41Z</time>
      </trkpt>
      <trkpt lat="42.0813720" lon="-2.5458660">
        <ele>1346.8</ele>
        <time>2022-08-14T07:40:42Z</time>
      </trkpt>
      <trkpt lat="42.0812080" lon="-2.5458040">
        <ele>1346.7</ele>
        <time>2022-08-14T07:40:44Z</time>
      </trkpt>
      <trkpt lat="42.0809400" lon="-2.5456990">
        <ele>1347.1</ele>
        <time>2022-08-14T07:40:47Z</time>
      </trkpt>
      <trkpt lat="42.0807490" lon="-2.5456270">
        <ele>1347.7</ele>
        <time>2022-08-14T07:40:49Z</time>
      </trkpt>
      <trkpt lat="42.0806500" lon="-2.5455910">
        <ele>1348.1</ele>
        <time>2022-08-14T07:40:50Z</time>
      </trkpt>
      <trkpt lat="42.0804520" lon="-2.5455160">
        <ele>1349.3</ele>
        <time>2022-08-14T07:40:52Z</time>
      </trkpt>
      <trkpt lat="42.0802560" lon="-2.5454440">
        <ele>1351.1</ele>
        <time>2022-08-14T07:40:54Z</time>
      </trkpt>
      <trkpt lat="42.0800680" lon="-2.5453730">
        <ele>1353.0</ele>
        <time>2022-08-14T07:40:56Z</time>
      </trkpt>
      <trkpt lat="42.0798850" lon="-2.5453080">
        <ele>1354.8</ele>
        <time>2022-08-14T07:40:58Z</time>
      </trkpt>
      <trkpt lat="42.0796330" lon="-2.5452210">
        <ele>1351.7</ele>
        <time>2022-08-14T07:41:01Z</time>
      </trkpt>
      <trkpt lat="42.0795600" lon="-2.5451980">
        <ele>1350.8</ele>
        <time>2022-08-14T07:41:02Z</time>
      </trkpt>
      <trkpt lat="42.0794940" lon="-2.5451820">
        <ele>1350.1</ele>
        <time>2022-08-14T07:41:03Z</time>
      </trkpt>
      <trkpt lat="42.0793700" lon="-2.5451860">
        <ele>1348.2</ele>
        <time>2022-08-14T07:41:05Z</time>
      </trkpt>
      <trkpt lat="42.0791290" lon="-2.5452970">
        <ele>1345.5</ele>
        <time>2022-08-14T07:41:10Z</time>
      </trkpt>
      <trkpt lat="42.0790340" lon="-2.5453970">
        <ele>1345.3</ele>
        <time>2022-08-14T07:41:14Z</time>
      </trkpt>
      <trkpt lat="42.0790120" lon="-2.5454450">
        <ele>1345.2</ele>
        <time>2022-08-14T07:41:16Z</time>
      </trkpt>
      <trkpt lat="42.0790030" lon="-2.5454630">
        <ele>1345.2</ele>
        <time>2022-08-14T07:41:17Z</time>
      </trkpt>
      <trkpt lat="42.0790010" lon="-2.5454760">
        <ele>1345.2</ele>
        <time>2022-08-14T07:41:18Z</time>
      </trkpt>
      <trkpt lat="42.0789810" lon="-2.5455340">
        <ele>1345.1</ele>
        <time>2022-08-14T07:42:08Z</time>
      </trkpt>
      <trkpt lat="42.0789780" lon="-2.5455400">
        <ele>1345.1</ele>
        <time>2022-08-14T07:42:09Z</time>
      </trkpt>
      <trkpt lat="42.0789760" lon="-2.5455450">
        <ele>1345.1</ele>
        <time>2022-08-14T07:42:16Z</time>
      </trkpt>
      <trkpt lat="42.0789770" lon="-2.5455650">
        <ele>1345.0</ele>
        <time>2022-08-14T07:42:17Z</time>
      </trkpt>
      <trkpt lat="42.0789670" lon="-2.5456380">
        <ele>1345.0</ele>
        <time>2022-08-14T07:42:21Z</time>
      </trkpt>
      <trkpt lat="42.0789660" lon="-2.5456590">
        <ele>1344.9</ele>
        <time>2022-08-14T07:42:22Z</time>
      </trkpt>
      <trkpt lat="42.0789620" lon="-2.5456770">
        <ele>1344.9</ele>
        <time>2022-08-14T07:42:23Z</time>
      </trkpt>
      <trkpt lat="42.0789560" lon="-2.5457240">
        <ele>1344.9</ele>
        <time>2022-08-14T07:42:26Z</time>
      </trkpt>
      <trkpt lat="42.0789610" lon="-2.5457490">
        <ele>1344.8</ele>
        <time>2022-08-14T07:42:29Z</time>
      </trkpt>
      <trkpt lat="42.0789710" lon="-2.5457540">
        <ele>1344.8</ele>
        <time>2022-08-14T07:42:32Z</time>
      </trkpt>
      <trkpt lat="42.0790020" lon="-2.5455350">
        <ele>1344.6</ele>
        <time>2022-08-14T08:35:04Z</time>
      </trkpt>
      <trkpt lat="42.0790210" lon="-2.5455140">
        <ele>1344.5</ele>
        <time>2022-08-14T08:35:05Z</time>
      </trkpt>
      <trkpt lat="42.0790460" lon="-2.5454890">
        <ele>1344.5</ele>
        <time>2022-08-14T08:35:06Z</time>
      </trkpt>
      <trkpt lat="42.0790750" lon="-2.5454620">
        <ele>1344.7</ele>
        <time>2022-08-14T08:35:07Z</time>
      </trkpt>
      <trkpt lat="42.0791420" lon="-2.5454220">
        <ele>1345.2</ele>
        <time>2022-08-14T08:35:09Z</time>
      </trkpt>
      <trkpt lat="42.0792070" lon="-2.5453680">
        <ele>1345.8</ele>
        <time>2022-08-14T08:35:11Z</time>
      </trkpt>
      <trkpt lat="42.0792780" lon="-2.5453250">
        <ele>1346.5</ele>
        <time>2022-08-14T08:35:13Z</time>
      </trkpt>
      <trkpt lat="42.0793220" lon="-2.5453080">
        <ele>1347.0</ele>
        <time>2022-08-14T08:35:14Z</time>
      </trkpt>
      <trkpt lat="42.0793980" lon="-2.5452600">
        <ele>1348.8</ele>
        <time>2022-08-14T08:35:16Z</time>
      </trkpt>
      <trkpt lat="42.0795830" lon="-2.5452630">
        <ele>1351.1</ele>
        <time>2022-08-14T08:35:21Z</time>
      </trkpt>
      <trkpt lat="42.0796090" lon="-2.5452640">
        <ele>1351.4</ele>
        <time>2022-08-14T08:35:22Z</time>
      </trkpt>
      <trkpt lat="42.0796320" lon="-2.5452570">
        <ele>1351.7</ele>
        <time>2022-08-14T08:35:23Z</time>
      </trkpt>
      <trkpt lat="42.0796450" lon="-2.5452290">
        <ele>1351.9</ele>
        <time>2022-08-14T08:35:25Z</time>
      </trkpt>
      <trkpt lat="42.0796450" lon="-2.5452280">
        <ele>1351.9</ele>
        <time>2022-08-14T08:35:55Z</time>
      </trkpt>
      <trkpt lat="42.0796860" lon="-2.5452450">
        <ele>1352.4</ele>
        <time>2022-08-14T08:35:57Z</time>
      </trkpt>
      <trkpt lat="42.0797130" lon="-2.5452590">
        <ele>1352.7</ele>
        <time>2022-08-14T08:35:58Z</time>
      </trkpt>
      <trkpt lat="42.0797730" lon="-2.5452810">
        <ele>1353.4</ele>
        <time>2022-08-14T08:36:00Z</time>
      </trkpt>
      <trkpt lat="42.0798030" lon="-2.5452930">
        <ele>1353.8</ele>
        <time>2022-08-14T08:36:01Z</time>
      </trkpt>
      <trkpt lat="42.0798340" lon="-2.5453040">
        <ele>1354.1</ele>
        <time>2022-08-14T08:36:02Z</time>
      </trkpt>
      <trkpt lat="42.0800510" lon="-2.5453550">
        <ele>1353.2</ele>
        <time>2022-08-14T08:36:08Z</time>
      </trkpt>
      <trkpt lat="42.0802900" lon="-2.5454320">
        <ele>1350.7</ele>
        <time>2022-08-14T08:36:15Z</time>
      </trkpt>
      <trkpt lat="42.0803560" lon="-2.5454720">
        <ele>1350.1</ele>
        <time>2022-08-14T08:36:17Z</time>
      </trkpt>
      <trkpt lat="42.0805070" lon="-2.5455400">
        <ele>1348.9</ele>
        <time>2022-08-14T08:36:22Z</time>
      </trkpt>
      <trkpt lat="42.0805940" lon="-2.5455750">
        <ele>1348.3</ele>
        <time>2022-08-14T08:36:25Z</time>
      </trkpt>
      <trkpt lat="42.0806560" lon="-2.5455990">
        <ele>1348.0</ele>
        <time>2022-08-14T08:36:27Z</time>
      </trkpt>
      <trkpt lat="42.0807680" lon="-2.5456440">
        <ele>1347.6</ele>
        <time>2022-08-14T08:36:31Z</time>
      </trkpt>
      <trkpt lat="42.0809070" lon="-2.5456890">
        <ele>1347.2</ele>
        <time>2022-08-14T08:36:36Z</time>
      </trkpt>
      <trkpt lat="42.0809670" lon="-2.5457080">
        <ele>1347.0</ele>
        <time>2022-08-14T08:36:38Z</time>
      </trkpt>
      <trkpt lat="42.0810730" lon="-2.5457420">
        <ele>1346.8</ele>
        <time>2022-08-14T08:36:42Z</time>
      </trkpt>
      <trkpt lat="42.0812120" lon="-2.5458000">
        <ele>1346.7</ele>
        <time>2022-08-14T08:36:47Z</time>
      </trkpt>
      <trkpt lat="42.0812390" lon="-2.5458090">
        <ele>1346.7</ele>
        <time>2022-08-14T08:36:48Z</time>
      </trkpt>
      <trkpt lat="42.0813470" lon="-2.5458550">
        <ele>1346.8</ele>
        <time>2022-08-14T08:36:52Z</time>
      </trkpt>
      <trkpt lat="42.0814000" lon="-2.5458780">
        <ele>1346.8</ele>
        <time>2022-08-14T08:36:54Z</time>
      </trkpt>
      <trkpt lat="42.0814710" lon="-2.5459140">
        <ele>1346.8</ele>
        <time>2022-08-14T08:36:57Z</time>
      </trkpt>
      <trkpt lat="42.0815430" lon="-2.5459480">
        <ele>1346.8</ele>
        <time>2022-08-14T08:37:00Z</time>
      </trkpt>
      <trkpt lat="42.0816630" lon="-2.5460060">
        <ele>1346.9</ele>
        <time>2022-08-14T08:37:05Z</time>
      </trkpt>
      <trkpt lat="42.0817170" lon="-2.5460300">
        <ele>1346.9</ele>
        <time>2022-08-14T08:37:07Z</time>
      </trkpt>
      <trkpt lat="42.0818140" lon="-2.5460920">
        <ele>1347.0</ele>
        <time>2022-08-14T08:37:11Z</time>
      </trkpt>
      <trkpt lat="42.0818970" lon="-2.5461320">
        <ele>1347.0</ele>
        <time>2022-08-14T08:37:15Z</time>
      </trkpt>
      <trkpt lat="42.0819530" lon="-2.5461330">
        <ele>1346.9</ele>
        <time>2022-08-14T08:37:18Z</time>
      </trkpt>
      <trkpt lat="42.0819670" lon="-2.5461210">
        <ele>1346.9</ele>
        <time>2022-08-14T08:37:19Z</time>
      </trkpt>
      <trkpt lat="42.0819750" lon="-2.5461010">
        <ele>1346.9</ele>
        <time>2022-08-14T08:37:20Z</time>
      </trkpt>
      <trkpt lat="42.0819760" lon="-2.5460810">
        <ele>1347.0</ele>
        <time>2022-08-14T08:37:21Z</time>
      </trkpt>
      <trkpt lat="42.0819530" lon="-2.5460300">
        <ele>1347.3</ele>
        <time>2022-08-14T08:37:24Z</time>
      </trkpt>
      <trkpt lat="42.0819390" lon="-2.5460140">
        <ele>1347.4</ele>
        <time>2022-08-14T08:37:25Z</time>
      </trkpt>
      <trkpt lat="42.0818780" lon="-2.5459400">
        <ele>1347.9</ele>
        <time>2022-08-14T08:37:29Z</time>
      </trkpt>
      <trkpt lat="42.0818480" lon="-2.5459060">
        <ele>1348.2</ele>
        <time>2022-08-14T08:37:31Z</time>
      </trkpt>
      <trkpt lat="42.0817100" lon="-2.5457850">
        <ele>1349.3</ele>
        <time>2022-08-14T08:37:39Z</time>
      </trkpt>
      <trkpt lat="42.0816590" lon="-2.5457370">
        <ele>1349.7</ele>
        <time>2022-08-14T08:37:42Z</time>
      </trkpt>
      <trkpt lat="42.0815780" lon="-2.5456450">
        <ele>1350.5</ele>
        <time>2022-08-14T08:37:47Z</time>
      </trkpt>
      <trkpt lat="42.0814880" lon="-2.5455580">
        <ele>1351.2</ele>
        <time>2022-08-14T08:37:52Z</time>
      </trkpt>
      <trkpt lat="42.0814030" lon="-2.5454730">
        <ele>1351.8</ele>
        <time>2022-08-14T08:37:57Z</time>
      </trkpt>
      <trkpt lat="42.0813220" lon="-2.5453780">
        <ele>1352.5</ele>
        <time>2022-08-14T08:38:02Z</time>
      </trkpt>
      <trkpt lat="42.0812570" lon="-2.5453010">
        <ele>1353.1</ele>
        <time>2022-08-14T08:38:06Z</time>
      </trkpt>
      <trkpt lat="42.0812240" lon="-2.5452650">
        <ele>1353.4</ele>
        <time>2022-08-14T08:38:08Z</time>
      </trkpt>
      <trkpt lat="42.0810870" lon="-2.5451210">
        <ele>1354.5</ele>
        <time>2022-08-14T08:38:16Z</time>
      </trkpt>
      <trkpt lat="42.0809580" lon="-2.5449880">
        <ele>1355.7</ele>
        <time>2022-08-14T08:38:24Z</time>
      </trkpt>
      <trkpt lat="42.0809100" lon="-2.5449420">
        <ele>1356.1</ele>
        <time>2022-08-14T08:38:27Z</time>
      </trkpt>
      <trkpt lat="42.0808600" lon="-2.5448900">
        <ele>1356.5</ele>
        <time>2022-08-14T08:38:30Z</time>
      </trkpt>
      <trkpt lat="42.0808430" lon="-2.5448740">
        <ele>1356.6</ele>
        <time>2022-08-14T08:38:31Z</time>
      </trkpt>
      <trkpt lat="42.0807990" lon="-2.5448250">
        <ele>1357.0</ele>
        <time>2022-08-14T08:38:34Z</time>
      </trkpt>
      <trkpt lat="42.0807110" lon="-2.5447310">
        <ele>1357.8</ele>
        <time>2022-08-14T08:38:40Z</time>
      </trkpt>
      <trkpt lat="42.0806500" lon="-2.5446490">
        <ele>1358.4</ele>
        <time>2022-08-14T08:38:45Z</time>
      </trkpt>
      <trkpt lat="42.0806070" lon="-2.5446050">
        <ele>1358.8</ele>
        <time>2022-08-14T08:38:47Z</time>
      </trkpt>
      <trkpt lat="42.0804830" lon="-2.5444750">
        <ele>1360.0</ele>
        <time>2022-08-14T08:38:55Z</time>
      </trkpt>
      <trkpt lat="42.0804090" lon="-2.5443880">
        <ele>1360.6</ele>
        <time>2022-08-14T08:39:00Z</time>
      </trkpt>
      <trkpt lat="42.0803720" lon="-2.5443530">
        <ele>1360.9</ele>
        <time>2022-08-14T08:39:02Z</time>
      </trkpt>
      <trkpt lat="42.0802890" lon="-2.5442670">
        <ele>1361.5</ele>
        <time>2022-08-14T08:39:07Z</time>
      </trkpt>
      <trkpt lat="42.0802140" lon="-2.5441920">
        <ele>1362.1</ele>
        <time>2022-08-14T08:39:12Z</time>
      </trkpt>
      <trkpt lat="42.0801610" lon="-2.5441410">
        <ele>1362.4</ele>
        <time>2022-08-14T08:39:15Z</time>
      </trkpt>
      <trkpt lat="42.0800510" lon="-2.5440350">
        <ele>1363.2</ele>
        <time>2022-08-14T08:39:20Z</time>
      </trkpt>
      <trkpt lat="42.0800140" lon="-2.5439920">
        <ele>1363.4</ele>
        <time>2022-08-14T08:39:22Z</time>
      </trkpt>
      <trkpt lat="42.0798950" lon="-2.5438420">
        <ele>1364.3</ele>
        <time>2022-08-14T08:39:29Z</time>
      </trkpt>
      <trkpt lat="42.0798600" lon="-2.5437950">
        <ele>1364.6</ele>
        <time>2022-08-14T08:39:31Z</time>
      </trkpt>
      <trkpt lat="42.0797470" lon="-2.5436370">
        <ele>1365.5</ele>
        <time>2022-08-14T08:39:38Z</time>
      </trkpt>
      <trkpt lat="42.0796900" lon="-2.5435400">
        <ele>1365.9</ele>
        <time>2022-08-14T08:39:42Z</time>
      </trkpt>
      <trkpt lat="42.0796180" lon="-2.5433880">
        <ele>1366.6</ele>
        <time>2022-08-14T08:39:48Z</time>
      </trkpt>
      <trkpt lat="42.0795690" lon="-2.5432800">
        <ele>1367.0</ele>
        <time>2022-08-14T08:39:52Z</time>
      </trkpt>
      <trkpt lat="42.0795330" lon="-2.5431980">
        <ele>1367.3</ele>
        <time>2022-08-14T08:39:55Z</time>
      </trkpt>
      <trkpt lat="42.0795140" lon="-2.5431470">
        <ele>1367.5</ele>
        <time>2022-08-14T08:39:57Z</time>
      </trkpt>
      <trkpt lat="42.0794160" lon="-2.5429390">
        <ele>1368.3</ele>
        <time>2022-08-14T08:40:05Z</time>
      </trkpt>
      <trkpt lat="42.0793480" lon="-2.5427930">
        <ele>1368.9</ele>
        <time>2022-08-14T08:40:11Z</time>
      </trkpt>
      <trkpt lat="42.0793160" lon="-2.5427430">
        <ele>1369.2</ele>
        <time>2022-08-14T08:40:13Z</time>
      </trkpt>
      <trkpt lat="42.0791620" lon="-2.5425270">
        <ele>1370.5</ele>
        <time>2022-08-14T08:40:22Z</time>
      </trkpt>
      <trkpt lat="42.0791480" lon="-2.5425050">
        <ele>1370.6</ele>
        <time>2022-08-14T08:40:23Z</time>
      </trkpt>
      <trkpt lat="42.0790680" lon="-2.5423900">
        <ele>1371.4</ele>
        <time>2022-08-14T08:40:28Z</time>
      </trkpt>
      <trkpt lat="42.0790520" lon="-2.5423680">
        <ele>1371.6</ele>
        <time>2022-08-14T08:40:29Z</time>
      </trkpt>
      <trkpt lat="42.0790380" lon="-2.5423450">
        <ele>1371.8</ele>
        <time>2022-08-14T08:40:30Z</time>
      </trkpt>
      <trkpt lat="42.0789810" lon="-2.5422590">
        <ele>1372.3</ele>
        <time>2022-08-14T08:40:34Z</time>
      </trkpt>
      <trkpt lat="42.0788850" lon="-2.5421420">
        <ele>1373.2</ele>
        <time>2022-08-14T08:40:40Z</time>
      </trkpt>
      <trkpt lat="42.0788670" lon="-2.5421210">
        <ele>1373.4</ele>
        <time>2022-08-14T08:40:41Z</time>
      </trkpt>
      <trkpt lat="42.0787560" lon="-2.5419740">
        <ele>1374.4</ele>
        <time>2022-08-14T08:40:48Z</time>
      </trkpt>
      <trkpt lat="42.0786320" lon="-2.5418390">
        <ele>1375.5</ele>
        <time>2022-08-14T08:40:55Z</time>
      </trkpt>
      <trkpt lat="42.0784850" lon="-2.5416880">
        <ele>1376.4</ele>
        <time>2022-08-14T08:41:03Z</time>
      </trkpt>
      <trkpt lat="42.0783940" lon="-2.5416000">
        <ele>1377.0</ele>
        <time>2022-08-14T08:41:08Z</time>
      </trkpt>
      <trkpt lat="42.0783760" lon="-2.5415850">
        <ele>1377.1</ele>
        <time>2022-08-14T08:41:09Z</time>
      </trkpt>
      <trkpt lat="42.0783130" lon="-2.5415240">
        <ele>1377.6</ele>
        <time>2022-08-14T08:41:13Z</time>
      </trkpt>
      <trkpt lat="42.0782130" lon="-2.5414440">
        <ele>1378.3</ele>
        <time>2022-08-14T08:41:18Z</time>
      </trkpt>
      <trkpt lat="42.0781500" lon="-2.5413880">
        <ele>1378.8</ele>
        <time>2022-08-14T08:41:21Z</time>
      </trkpt>
      <trkpt lat="42.0780190" lon="-2.5412670">
        <ele>1379.8</ele>
        <time>2022-08-14T08:41:28Z</time>
      </trkpt>
      <trkpt lat="42.0779250" lon="-2.5411820">
        <ele>1380.4</ele>
        <time>2022-08-14T08:41:33Z</time>
      </trkpt>
      <trkpt lat="42.0779090" lon="-2.5411630">
        <ele>1380.5</ele>
        <time>2022-08-14T08:41:34Z</time>
      </trkpt>
      <trkpt lat="42.0777530" lon="-2.5410200">
        <ele>1381.6</ele>
        <time>2022-08-14T08:41:42Z</time>
      </trkpt>
      <trkpt lat="42.0777290" lon="-2.5410000">
        <ele>1381.7</ele>
        <time>2022-08-14T08:41:43Z</time>
      </trkpt>
      <trkpt lat="42.0776070" lon="-2.5408770">
        <ele>1382.7</ele>
        <time>2022-08-14T08:41:50Z</time>
      </trkpt>
      <trkpt lat="42.0775860" lon="-2.5408590">
        <ele>1382.8</ele>
        <time>2022-08-14T08:41:51Z</time>
      </trkpt>
      <trkpt lat="42.0774140" lon="-2.5406960">
        <ele>1384.1</ele>
        <time>2022-08-14T08:42:00Z</time>
      </trkpt>
      <trkpt lat="42.0773740" lon="-2.5406600">
        <ele>1384.4</ele>
        <time>2022-08-14T08:42:02Z</time>
      </trkpt>
      <trkpt lat="42.0772650" lon="-2.5405480">
        <ele>1385.2</ele>
        <time>2022-08-14T08:42:08Z</time>
      </trkpt>
      <trkpt lat="42.0771670" lon="-2.5404540">
        <ele>1385.9</ele>
        <time>2022-08-14T08:42:13Z</time>
      </trkpt>
      <trkpt lat="42.0771120" lon="-2.5403990">
        <ele>1386.3</ele>
        <time>2022-08-14T08:42:16Z</time>
      </trkpt>
      <trkpt lat="42.0770330" lon="-2.5403260">
        <ele>1386.9</ele>
        <time>2022-08-14T08:42:21Z</time>
      </trkpt>
      <trkpt lat="42.0769970" lon="-2.5402890">
        <ele>1387.2</ele>
        <time>2022-08-14T08:42:23Z</time>
      </trkpt>
      <trkpt lat="42.0768660" lon="-2.5401620">
        <ele>1388.0</ele>
        <time>2022-08-14T08:42:30Z</time>
      </trkpt>
      <trkpt lat="42.0767840" lon="-2.5400780">
        <ele>1388.6</ele>
        <time>2022-08-14T08:42:35Z</time>
      </trkpt>
      <trkpt lat="42.0767220" lon="-2.5400200">
        <ele>1389.1</ele>
        <time>2022-08-14T08:42:38Z</time>
      </trkpt>
      <trkpt lat="42.0766670" lon="-2.5399670">
        <ele>1389.5</ele>
        <time>2022-08-14T08:42:41Z</time>
      </trkpt>
      <trkpt lat="42.0765750" lon="-2.5398790">
        <ele>1390.2</ele>
        <time>2022-08-14T08:42:46Z</time>
      </trkpt>
      <trkpt lat="42.0765050" lon="-2.5398080">
        <ele>1390.8</ele>
        <time>2022-08-14T08:42:50Z</time>
      </trkpt>
      <trkpt lat="42.0764760" lon="-2.5397810">
        <ele>1391.0</ele>
        <time>2022-08-14T08:42:52Z</time>
      </trkpt>
      <trkpt lat="42.0763580" lon="-2.5396550">
        <ele>1391.9</ele>
        <time>2022-08-14T08:42:59Z</time>
      </trkpt>
      <trkpt lat="42.0763410" lon="-2.5396340">
        <ele>1392.0</ele>
        <time>2022-08-14T08:43:00Z</time>
      </trkpt>
      <trkpt lat="42.0761900" lon="-2.5394890">
        <ele>1393.2</ele>
        <time>2022-08-14T08:43:08Z</time>
      </trkpt>
      <trkpt lat="42.0761750" lon="-2.5394740">
        <ele>1393.3</ele>
        <time>2022-08-14T08:43:09Z</time>
      </trkpt>
      <trkpt lat="42.0760710" lon="-2.5393680">
        <ele>1394.1</ele>
        <time>2022-08-14T08:43:15Z</time>
      </trkpt>
      <trkpt lat="42.0760150" lon="-2.5393120">
        <ele>1394.5</ele>
        <time>2022-08-14T08:43:18Z</time>
      </trkpt>
      <trkpt lat="42.0759580" lon="-2.5392560">
        <ele>1395.0</ele>
        <time>2022-08-14T08:43:21Z</time>
      </trkpt>
      <trkpt lat="42.0757930" lon="-2.5390950">
        <ele>1396.4</ele>
        <time>2022-08-14T08:43:30Z</time>
      </trkpt>
      <trkpt lat="42.0757770" lon="-2.5390780">
        <ele>1396.5</ele>
        <time>2022-08-14T08:43:31Z</time>
      </trkpt>
      <trkpt lat="42.0757260" lon="-2.5390250">
        <ele>1397.0</ele>
        <time>2022-08-14T08:43:34Z</time>
      </trkpt>
      <trkpt lat="42.0756630" lon="-2.5389560">
        <ele>1397.6</ele>
        <time>2022-08-14T08:43:38Z</time>
      </trkpt>
      <trkpt lat="42.0755980" lon="-2.5388790">
        <ele>1398.2</ele>
        <time>2022-08-14T08:43:42Z</time>
      </trkpt>
      <trkpt lat="42.0755480" lon="-2.5388210">
        <ele>1398.6</ele>
        <time>2022-08-14T08:43:45Z</time>
      </trkpt>
      <trkpt lat="42.0754410" lon="-2.5386780">
        <ele>1399.7</ele>
        <time>2022-08-14T08:43:52Z</time>
      </trkpt>
      <trkpt lat="42.0753900" lon="-2.5386160">
        <ele>1400.2</ele>
        <time>2022-08-14T08:43:55Z</time>
      </trkpt>
      <trkpt lat="42.0753300" lon="-2.5385250">
        <ele>1400.8</ele>
        <time>2022-08-14T08:43:59Z</time>
      </trkpt>
      <trkpt lat="42.0752840" lon="-2.5384560">
        <ele>1401.2</ele>
        <time>2022-08-14T08:44:02Z</time>
      </trkpt>
      <trkpt lat="42.0752560" lon="-2.5384150">
        <ele>1401.5</ele>
        <time>2022-08-14T08:44:04Z</time>
      </trkpt>
      <trkpt lat="42.0751490" lon="-2.5382320">
        <ele>1402.6</ele>
        <time>2022-08-14T08:44:12Z</time>
      </trkpt>
      <trkpt lat="42.0750220" lon="-2.5380300">
        <ele>1403.9</ele>
        <time>2022-08-14T08:44:21Z</time>
      </trkpt>
      <trkpt lat="42.0750100" lon="-2.5380100">
        <ele>1404.0</ele>
        <time>2022-08-14T08:44:22Z</time>
      </trkpt>
      <trkpt lat="42.0749050" lon="-2.5378240">
        <ele>1405.3</ele>
        <time>2022-08-14T08:44:30Z</time>
      </trkpt>
      <trkpt lat="42.0748850" lon="-2.5377790">
        <ele>1405.6</ele>
        <time>2022-08-14T08:44:32Z</time>
      </trkpt>
      <trkpt lat="42.0747820" lon="-2.5376200">
        <ele>1406.8</ele>
        <time>2022-08-14T08:44:40Z</time>
      </trkpt>
      <trkpt lat="42.0747110" lon="-2.5374980">
        <ele>1407.7</ele>
        <time>2022-08-14T08:44:46Z</time>
      </trkpt>
      <trkpt lat="42.0746980" lon="-2.5374770">
        <ele>1407.9</ele>
        <time>2022-08-14T08:44:47Z</time>
      </trkpt>
      <trkpt lat="42.0745690" lon="-2.5372960">
        <ele>1409.4</ele>
        <time>2022-08-14T08:44:57Z</time>
      </trkpt>
      <trkpt lat="42.0745460" lon="-2.5372600">
        <ele>1409.7</ele>
        <time>2022-08-14T08:44:59Z</time>
      </trkpt>
      <trkpt lat="42.0744910" lon="-2.5371920">
        <ele>1410.4</ele>
        <time>2022-08-14T08:45:03Z</time>
      </trkpt>
      <trkpt lat="42.0743890" lon="-2.5370720">
        <ele>1411.6</ele>
        <time>2022-08-14T08:45:10Z</time>
      </trkpt>
      <trkpt lat="42.0743740" lon="-2.5370550">
        <ele>1411.7</ele>
        <time>2022-08-14T08:45:11Z</time>
      </trkpt>
      <trkpt lat="42.0742850" lon="-2.5369570">
        <ele>1412.8</ele>
        <time>2022-08-14T08:45:17Z</time>
      </trkpt>
      <trkpt lat="42.0742280" lon="-2.5368910">
        <ele>1413.4</ele>
        <time>2022-08-14T08:45:21Z</time>
      </trkpt>
      <trkpt lat="42.0741960" lon="-2.5368610">
        <ele>1413.8</ele>
        <time>2022-08-14T08:45:23Z</time>
      </trkpt>
      <trkpt lat="42.0740930" lon="-2.5367630">
        <ele>1415.0</ele>
        <time>2022-08-14T08:45:30Z</time>
      </trkpt>
      <trkpt lat="42.0740750" lon="-2.5367450">
        <ele>1415.2</ele>
        <time>2022-08-14T08:45:31Z</time>
      </trkpt>
      <trkpt lat="42.0739790" lon="-2.5366570">
        <ele>1416.2</ele>
        <time>2022-08-14T08:45:37Z</time>
      </trkpt>
      <trkpt lat="42.0739090" lon="-2.5366010">
        <ele>1416.9</ele>
        <time>2022-08-14T08:45:41Z</time>
      </trkpt>
      <trkpt lat="42.0738690" lon="-2.5365720">
        <ele>1417.3</ele>
        <time>2022-08-14T08:45:44Z</time>
      </trkpt>
      <trkpt lat="42.0737470" lon="-2.5364850">
        <ele>1418.6</ele>
        <time>2022-08-14T08:45:51Z</time>
      </trkpt>
      <trkpt lat="42.0737300" lon="-2.5364740">
        <ele>1418.8</ele>
        <time>2022-08-14T08:45:52Z</time>
      </trkpt>
      <trkpt lat="42.0735780" lon="-2.5363850">
        <ele>1421.0</ele>
        <time>2022-08-14T08:46:01Z</time>
      </trkpt>
      <trkpt lat="42.0735590" lon="-2.5363730">
        <ele>1421.3</ele>
        <time>2022-08-14T08:46:02Z</time>
      </trkpt>
      <trkpt lat="42.0734490" lon="-2.5363210">
        <ele>1423.2</ele>
        <time>2022-08-14T08:46:08Z</time>
      </trkpt>
      <trkpt lat="42.0733940" lon="-2.5362950">
        <ele>1424.1</ele>
        <time>2022-08-14T08:46:11Z</time>
      </trkpt>
      <trkpt lat="42.0733210" lon="-2.5362680">
        <ele>1425.4</ele>
        <time>2022-08-14T08:46:15Z</time>
      </trkpt>
      <trkpt lat="42.0732340" lon="-2.5362430">
        <ele>1426.8</ele>
        <time>2022-08-14T08:46:20Z</time>
      </trkpt>
      <trkpt lat="42.0732160" lon="-2.5362370">
        <ele>1427.1</ele>
        <time>2022-08-14T08:46:21Z</time>
      </trkpt>
      <trkpt lat="42.0731020" lon="-2.5362040">
        <ele>1428.9</ele>
        <time>2022-08-14T08:46:27Z</time>
      </trkpt>
      <trkpt lat="42.0730120" lon="-2.5361810">
        <ele>1430.3</ele>
        <time>2022-08-14T08:46:32Z</time>
      </trkpt>
      <trkpt lat="42.0729770" lon="-2.5361730">
        <ele>1430.9</ele>
        <time>2022-08-14T08:46:34Z</time>
      </trkpt>
      <trkpt lat="42.0728600" lon="-2.5361420">
        <ele>1432.7</ele>
        <time>2022-08-14T08:46:40Z</time>
      </trkpt>
      <trkpt lat="42.0728410" lon="-2.5361390">
        <ele>1433.0</ele>
        <time>2022-08-14T08:46:41Z</time>
      </trkpt>
      <trkpt lat="42.0727070" lon="-2.5361120">
        <ele>1435.1</ele>
        <time>2022-08-14T08:46:48Z</time>
      </trkpt>
      <trkpt lat="42.0725930" lon="-2.5360590">
        <ele>1436.9</ele>
        <time>2022-08-14T08:46:54Z</time>
      </trkpt>
      <trkpt lat="42.0725760" lon="-2.5360450">
        <ele>1437.2</ele>
        <time>2022-08-14T08:46:55Z</time>
      </trkpt>
      <trkpt lat="42.0724170" lon="-2.5359870">
        <ele>1438.2</ele>
        <time>2022-08-14T08:47:03Z</time>
      </trkpt>
      <trkpt lat="42.0723980" lon="-2.5359810">
        <ele>1438.2</ele>
        <time>2022-08-14T08:47:04Z</time>
      </trkpt>
      <trkpt lat="42.0722290" lon="-2.5359510">
        <ele>1437.8</ele>
        <time>2022-08-14T08:47:11Z</time>
      </trkpt>
      <trkpt lat="42.0721550" lon="-2.5359360">
        <ele>1437.6</ele>
        <time>2022-08-14T08:47:14Z</time>
      </trkpt>
      <trkpt lat="42.0721090" lon="-2.5359300">
        <ele>1437.5</ele>
        <time>2022-08-14T08:47:16Z</time>
      </trkpt>
      <trkpt lat="42.0718890" lon="-2.5358730">
        <ele>1436.8</ele>
        <time>2022-08-14T08:47:25Z</time>
      </trkpt>
      <trkpt lat="42.0718590" lon="-2.5358540">
        <ele>1436.7</ele>
        <time>2022-08-14T08:47:26Z</time>
      </trkpt>
      <trkpt lat="42.0717140" lon="-2.5357600">
        <ele>1436.2</ele>
        <time>2022-08-14T08:47:32Z</time>
      </trkpt>
      <trkpt lat="42.0716920" lon="-2.5357490">
        <ele>1436.2</ele>
        <time>2022-08-14T08:47:33Z</time>
      </trkpt>
      <trkpt lat="42.0716010" lon="-2.5357000">
        <ele>1436.1</ele>
        <time>2022-08-14T08:47:37Z</time>
      </trkpt>
      <trkpt lat="42.0715570" lon="-2.5356760">
        <ele>1436.1</ele>
        <time>2022-08-14T08:47:39Z</time>
      </trkpt>
      <trkpt lat="42.0715150" lon="-2.5356580">
        <ele>1436.1</ele>
        <time>2022-08-14T08:47:41Z</time>
      </trkpt>
      <trkpt lat="42.0713740" lon="-2.5355840">
        <ele>1436.7</ele>
        <time>2022-08-14T08:47:48Z</time>
      </trkpt>
      <trkpt lat="42.0713440" lon="-2.5355680">
        <ele>1436.9</ele>
        <time>2022-08-14T08:47:50Z</time>
      </trkpt>
      <trkpt lat="42.0712690" lon="-2.5355450">
        <ele>1437.4</ele>
        <time>2022-08-14T08:47:54Z</time>
      </trkpt>
      <trkpt lat="42.0711890" lon="-2.5355200">
        <ele>1437.9</ele>
        <time>2022-08-14T08:47:58Z</time>
      </trkpt>
      <trkpt lat="42.0711510" lon="-2.5355010">
        <ele>1438.2</ele>
        <time>2022-08-14T08:48:00Z</time>
      </trkpt>
      <trkpt lat="42.0709840" lon="-2.5354370">
        <ele>1439.4</ele>
        <time>2022-08-14T08:48:09Z</time>
      </trkpt>
      <trkpt lat="42.0709650" lon="-2.5354290">
        <ele>1439.6</ele>
        <time>2022-08-14T08:48:10Z</time>
      </trkpt>
      <trkpt lat="42.0708570" lon="-2.5353890">
        <ele>1440.4</ele>
        <time>2022-08-14T08:48:16Z</time>
      </trkpt>
      <trkpt lat="42.0708340" lon="-2.5353810">
        <ele>1440.5</ele>
        <time>2022-08-14T08:48:17Z</time>
      </trkpt>
      <trkpt lat="42.0707650" lon="-2.5353500">
        <ele>1441.0</ele>
        <time>2022-08-14T08:48:21Z</time>
      </trkpt>
      <trkpt lat="42.0707470" lon="-2.5353410">
        <ele>1441.2</ele>
        <time>2022-08-14T08:48:22Z</time>
      </trkpt>
      <trkpt lat="42.0706940" lon="-2.5353170">
        <ele>1441.5</ele>
        <time>2022-08-14T08:48:25Z</time>
      </trkpt>
      <trkpt lat="42.0706060" lon="-2.5352640">
        <ele>1442.2</ele>
        <time>2022-08-14T08:48:30Z</time>
      </trkpt>
      <trkpt lat="42.0705650" lon="-2.5352560">
        <ele>1442.5</ele>
        <time>2022-08-14T08:48:32Z</time>
      </trkpt>
      <trkpt lat="42.0704200" lon="-2.5352110">
        <ele>1443.5</ele>
        <time>2022-08-14T08:48:39Z</time>
      </trkpt>
      <trkpt lat="42.0703670" lon="-2.5351830">
        <ele>1443.8</ele>
        <time>2022-08-14T08:48:41Z</time>
      </trkpt>
      <trkpt lat="42.0702530" lon="-2.5351460">
        <ele>1444.6</ele>
        <time>2022-08-14T08:48:48Z</time>
      </trkpt>
      <trkpt lat="42.0702340" lon="-2.5351390">
        <ele>1444.7</ele>
        <time>2022-08-14T08:48:49Z</time>
      </trkpt>
      <trkpt lat="42.0701380" lon="-2.5351030">
        <ele>1445.4</ele>
        <time>2022-08-14T08:48:54Z</time>
      </trkpt>
      <trkpt lat="42.0700250" lon="-2.5350530">
        <ele>1446.2</ele>
        <time>2022-08-14T08:49:00Z</time>
      </trkpt>
      <trkpt lat="42.0699080" lon="-2.5350020">
        <ele>1447.1</ele>
        <time>2022-08-14T08:49:06Z</time>
      </trkpt>
      <trkpt lat="42.0698580" lon="-2.5349660">
        <ele>1447.5</ele>
        <time>2022-08-14T08:49:09Z</time>
      </trkpt>
      <trkpt lat="42.0698020" lon="-2.5348400">
        <ele>1448.1</ele>
        <time>2022-08-14T08:49:14Z</time>
      </trkpt>
      <trkpt lat="42.0697990" lon="-2.5347790">
        <ele>1448.3</ele>
        <time>2022-08-14T08:49:16Z</time>
      </trkpt>
      <trkpt lat="42.0698380" lon="-2.5346400">
        <ele>1448.7</ele>
        <time>2022-08-14T08:49:21Z</time>
      </trkpt>
      <trkpt lat="42.0698560" lon="-2.5346260">
        <ele>1448.7</ele>
        <time>2022-08-14T08:49:22Z</time>
      </trkpt>
      <trkpt lat="42.0699830" lon="-2.5345940">
        <ele>1449.1</ele>
        <time>2022-08-14T08:49:28Z</time>
      </trkpt>
      <trkpt lat="42.0701260" lon="-2.5346440">
        <ele>1449.6</ele>
        <time>2022-08-14T08:49:35Z</time>
      </trkpt>
      <trkpt lat="42.0701480" lon="-2.5346530">
        <ele>1449.7</ele>
        <time>2022-08-14T08:49:36Z</time>
      </trkpt>
      <trkpt lat="42.0702720" lon="-2.5347030">
        <ele>1450.2</ele>
        <time>2022-08-14T08:49:42Z</time>
      </trkpt>
      <trkpt lat="42.0703300" lon="-2.5347170">
        <ele>1450.5</ele>
        <time>2022-08-14T08:49:45Z</time>
      </trkpt>
      <trkpt lat="42.0704740" lon="-2.5347290">
        <ele>1451.3</ele>
        <time>2022-08-14T08:49:52Z</time>
      </trkpt>
      <trkpt lat="42.0705200" lon="-2.5347320">
        <ele>1451.6</ele>
        <time>2022-08-14T08:49:54Z</time>
      </trkpt>
      <trkpt lat="42.0706450" lon="-2.5347150">
        <ele>1452.4</ele>
        <time>2022-08-14T08:50:01Z</time>
      </trkpt>
      <trkpt lat="42.0706640" lon="-2.5347110">
        <ele>1452.5</ele>
        <time>2022-08-14T08:50:02Z</time>
      </trkpt>
      <trkpt lat="42.0707670" lon="-2.5346920">
        <ele>1453.2</ele>
        <time>2022-08-14T08:50:08Z</time>
      </trkpt>
      <trkpt lat="42.0708350" lon="-2.5346810">
        <ele>1453.6</ele>
        <time>2022-08-14T08:50:12Z</time>
      </trkpt>
      <trkpt lat="42.0708890" lon="-2.5346630">
        <ele>1454.0</ele>
        <time>2022-08-14T08:50:16Z</time>
      </trkpt>
      <trkpt lat="42.0709530" lon="-2.5346630">
        <ele>1454.5</ele>
        <time>2022-08-14T08:50:20Z</time>
      </trkpt>
      <trkpt lat="42.0709660" lon="-2.5346590">
        <ele>1454.6</ele>
        <time>2022-08-14T08:50:21Z</time>
      </trkpt>
      <trkpt lat="42.0710440" lon="-2.5346350">
        <ele>1455.1</ele>
        <time>2022-08-14T08:50:25Z</time>
      </trkpt>
      <trkpt lat="42.0710630" lon="-2.5346330">
        <ele>1455.2</ele>
        <time>2022-08-14T08:50:26Z</time>
      </trkpt>
      <trkpt lat="42.0711660" lon="-2.5346230">
        <ele>1455.9</ele>
        <time>2022-08-14T08:50:31Z</time>
      </trkpt>
      <trkpt lat="42.0712670" lon="-2.5346230">
        <ele>1456.6</ele>
        <time>2022-08-14T08:50:35Z</time>
      </trkpt>
      <trkpt lat="42.0713430" lon="-2.5346130">
        <ele>1457.1</ele>
        <time>2022-08-14T08:50:38Z</time>
      </trkpt>
      <trkpt lat="42.0714430" lon="-2.5346010">
        <ele>1457.7</ele>
        <time>2022-08-14T08:50:43Z</time>
      </trkpt>
      <trkpt lat="42.0714930" lon="-2.5345950">
        <ele>1458.0</ele>
        <time>2022-08-14T08:50:46Z</time>
      </trkpt>
      <trkpt lat="42.0715500" lon="-2.5345940">
        <ele>1458.3</ele>
        <time>2022-08-14T08:50:49Z</time>
      </trkpt>
      <trkpt lat="42.0715690" lon="-2.5345950">
        <ele>1458.4</ele>
        <time>2022-08-14T08:50:50Z</time>
      </trkpt>
      <trkpt lat="42.0717970" lon="-2.5345890">
        <ele>1459.7</ele>
        <time>2022-08-14T08:51:01Z</time>
      </trkpt>
      <trkpt lat="42.0719990" lon="-2.5346040">
        <ele>1460.8</ele>
        <time>2022-08-14T08:51:09Z</time>
      </trkpt>
      <trkpt lat="42.0719990" lon="-2.5346040">
        <ele>1460.8</ele>
        <time>2022-08-14T08:51:11Z</time>
      </trkpt>
      <trkpt lat="42.0721780" lon="-2.5346010">
        <ele>1461.8</ele>
        <time>2022-08-14T08:51:19Z</time>
      </trkpt>
      <trkpt lat="42.0721980" lon="-2.5346010">
        <ele>1461.9</ele>
        <time>2022-08-14T08:51:20Z</time>
      </trkpt>
      <trkpt lat="42.0723430" lon="-2.5345980">
        <ele>1462.8</ele>
        <time>2022-08-14T08:51:26Z</time>
      </trkpt>
      <trkpt lat="42.0723710" lon="-2.5345870">
        <ele>1462.9</ele>
        <time>2022-08-14T08:51:28Z</time>
      </trkpt>
      <trkpt lat="42.0725830" lon="-2.5346100">
        <ele>1464.3</ele>
        <time>2022-08-14T08:51:37Z</time>
      </trkpt>
      <trkpt lat="42.0726260" lon="-2.5346120">
        <ele>1464.6</ele>
        <time>2022-08-14T08:51:39Z</time>
      </trkpt>
      <trkpt lat="42.0726480" lon="-2.5346150">
        <ele>1464.7</ele>
        <time>2022-08-14T08:51:40Z</time>
      </trkpt>
      <trkpt lat="42.0727980" lon="-2.5346200">
        <ele>1465.6</ele>
        <time>2022-08-14T08:51:47Z</time>
      </trkpt>
      <trkpt lat="42.0728420" lon="-2.5346140">
        <ele>1465.8</ele>
        <time>2022-08-14T08:51:49Z</time>
      </trkpt>
      <trkpt lat="42.0729610" lon="-2.5345500">
        <ele>1466.5</ele>
        <time>2022-08-14T08:51:55Z</time>
      </trkpt>
      <trkpt lat="42.0729700" lon="-2.5344070">
        <ele>1467.0</ele>
        <time>2022-08-14T08:52:00Z</time>
      </trkpt>
      <trkpt lat="42.0729570" lon="-2.5343830">
        <ele>1467.1</ele>
        <time>2022-08-14T08:52:01Z</time>
      </trkpt>
      <trkpt lat="42.0729410" lon="-2.5343640">
        <ele>1467.2</ele>
        <time>2022-08-14T08:52:02Z</time>
      </trkpt>
      <trkpt lat="42.0728800" lon="-2.5343350">
        <ele>1467.4</ele>
        <time>2022-08-14T08:52:05Z</time>
      </trkpt>
      <trkpt lat="42.0728170" lon="-2.5343180">
        <ele>1467.7</ele>
        <time>2022-08-14T08:52:08Z</time>
      </trkpt>
      <trkpt lat="42.0727110" lon="-2.5343050">
        <ele>1468.1</ele>
        <time>2022-08-14T08:52:13Z</time>
      </trkpt>
      <trkpt lat="42.0726710" lon="-2.5343030">
        <ele>1468.2</ele>
        <time>2022-08-14T08:52:15Z</time>
      </trkpt>
      <trkpt lat="42.0725250" lon="-2.5342800">
        <ele>1468.9</ele>
        <time>2022-08-14T08:52:22Z</time>
      </trkpt>
      <trkpt lat="42.0725050" lon="-2.5342760">
        <ele>1469.1</ele>
        <time>2022-08-14T08:52:23Z</time>
      </trkpt>
      <trkpt lat="42.0723620" lon="-2.5342630">
        <ele>1469.8</ele>
        <time>2022-08-14T08:52:30Z</time>
      </trkpt>
      <trkpt lat="42.0723020" lon="-2.5342510">
        <ele>1470.2</ele>
        <time>2022-08-14T08:52:33Z</time>
      </trkpt>
      <trkpt lat="42.0721830" lon="-2.5342080">
        <ele>1471.0</ele>
        <time>2022-08-14T08:52:39Z</time>
      </trkpt>
      <trkpt lat="42.0720960" lon="-2.5341580">
        <ele>1471.7</ele>
        <time>2022-08-14T08:52:43Z</time>
      </trkpt>
      <trkpt lat="42.0720090" lon="-2.5341240">
        <ele>1472.2</ele>
        <time>2022-08-14T08:52:48Z</time>
      </trkpt>
      <trkpt lat="42.0719690" lon="-2.5341120">
        <ele>1472.4</ele>
        <time>2022-08-14T08:52:50Z</time>
      </trkpt>
      <trkpt lat="42.0718430" lon="-2.5340500">
        <ele>1473.1</ele>
        <time>2022-08-14T08:52:57Z</time>
      </trkpt>
      <trkpt lat="42.0718060" lon="-2.5340380">
        <ele>1473.3</ele>
        <time>2022-08-14T08:52:59Z</time>
      </trkpt>
      <trkpt lat="42.0716850" lon="-2.5339620">
        <ele>1474.2</ele>
        <time>2022-08-14T08:53:06Z</time>
      </trkpt>
      <trkpt lat="42.0716210" lon="-2.5339130">
        <ele>1474.6</ele>
        <time>2022-08-14T08:53:10Z</time>
      </trkpt>
      <trkpt lat="42.0715330" lon="-2.5338690">
        <ele>1475.2</ele>
        <time>2022-08-14T08:53:16Z</time>
      </trkpt>
      <trkpt lat="42.0715010" lon="-2.5338540">
        <ele>1475.4</ele>
        <time>2022-08-14T08:53:18Z</time>
      </trkpt>
      <trkpt lat="42.0713970" lon="-2.5337740">
        <ele>1476.2</ele>
        <time>2022-08-14T08:53:24Z</time>
      </trkpt>
      <trkpt lat="42.0713770" lon="-2.5337620">
        <ele>1476.3</ele>
        <time>2022-08-14T08:53:25Z</time>
      </trkpt>
      <trkpt lat="42.0712710" lon="-2.5337100">
        <ele>1477.1</ele>
        <time>2022-08-14T08:53:30Z</time>
      </trkpt>
      <trkpt lat="42.0712570" lon="-2.5337000">
        <ele>1477.2</ele>
        <time>2022-08-14T08:53:31Z</time>
      </trkpt>
      <trkpt lat="42.0710970" lon="-2.5336120">
        <ele>1478.3</ele>
        <time>2022-08-14T08:53:39Z</time>
      </trkpt>
      <trkpt lat="42.0710630" lon="-2.5335940">
        <ele>1478.5</ele>
        <time>2022-08-14T08:53:41Z</time>
      </trkpt>
      <trkpt lat="42.0710090" lon="-2.5335740">
        <ele>1478.8</ele>
        <time>2022-08-14T08:53:45Z</time>
      </trkpt>
      <trkpt lat="42.0709360" lon="-2.5335510">
        <ele>1479.2</ele>
        <time>2022-08-14T08:53:48Z</time>
      </trkpt>
      <trkpt lat="42.0707490" lon="-2.5334490">
        <ele>1480.3</ele>
        <time>2022-08-14T08:53:57Z</time>
      </trkpt>
      <trkpt lat="42.0705870" lon="-2.5333860">
        <ele>1481.3</ele>
        <time>2022-08-14T08:54:06Z</time>
      </trkpt>
      <trkpt lat="42.0705680" lon="-2.5333760">
        <ele>1481.4</ele>
        <time>2022-08-14T08:54:07Z</time>
      </trkpt>
      <trkpt lat="42.0704040" lon="-2.5333040">
        <ele>1482.5</ele>
        <time>2022-08-14T08:54:16Z</time>
      </trkpt>
      <trkpt lat="42.0703030" lon="-2.5332680">
        <ele>1483.2</ele>
        <time>2022-08-14T08:54:21Z</time>
      </trkpt>
      <trkpt lat="42.0702490" lon="-2.5332400">
        <ele>1483.6</ele>
        <time>2022-08-14T08:54:24Z</time>
      </trkpt>
      <trkpt lat="42.0701500" lon="-2.5332000">
        <ele>1484.4</ele>
        <time>2022-08-14T08:54:29Z</time>
      </trkpt>
      <trkpt lat="42.0700790" lon="-2.5331690">
        <ele>1485.0</ele>
        <time>2022-08-14T08:54:33Z</time>
      </trkpt>
      <trkpt lat="42.0700220" lon="-2.5331350">
        <ele>1485.5</ele>
        <time>2022-08-14T08:54:36Z</time>
      </trkpt>
      <trkpt lat="42.0699010" lon="-2.5330710">
        <ele>1486.4</ele>
        <time>2022-08-14T08:54:42Z</time>
      </trkpt>
      <trkpt lat="42.0698420" lon="-2.5330550">
        <ele>1486.9</ele>
        <time>2022-08-14T08:54:46Z</time>
      </trkpt>
      <trkpt lat="42.0697660" lon="-2.5330150">
        <ele>1487.4</ele>
        <time>2022-08-14T08:54:50Z</time>
      </trkpt>
      <trkpt lat="42.0696670" lon="-2.5329500">
        <ele>1488.1</ele>
        <time>2022-08-14T08:54:56Z</time>
      </trkpt>
      <trkpt lat="42.0696150" lon="-2.5329190">
        <ele>1488.5</ele>
        <time>2022-08-14T08:54:59Z</time>
      </trkpt>
      <trkpt lat="42.0695390" lon="-2.5328730">
        <ele>1489.2</ele>
        <time>2022-08-14T08:55:03Z</time>
      </trkpt>
      <trkpt lat="42.0694210" lon="-2.5327890">
        <ele>1490.4</ele>
        <time>2022-08-14T08:55:10Z</time>
      </trkpt>
      <trkpt lat="42.0693840" lon="-2.5327660">
        <ele>1490.7</ele>
        <time>2022-08-14T08:55:12Z</time>
      </trkpt>
      <trkpt lat="42.0692210" lon="-2.5326590">
        <ele>1492.3</ele>
        <time>2022-08-14T08:55:21Z</time>
      </trkpt>
      <trkpt lat="42.0691870" lon="-2.5326360">
        <ele>1492.6</ele>
        <time>2022-08-14T08:55:23Z</time>
      </trkpt>
      <trkpt lat="42.0690760" lon="-2.5325540">
        <ele>1493.8</ele>
        <time>2022-08-14T08:55:30Z</time>
      </trkpt>
      <trkpt lat="42.0690220" lon="-2.5325130">
        <ele>1494.4</ele>
        <time>2022-08-14T08:55:33Z</time>
      </trkpt>
      <trkpt lat="42.0689120" lon="-2.5324390">
        <ele>1495.4</ele>
        <time>2022-08-14T08:55:40Z</time>
      </trkpt>
      <trkpt lat="42.0688800" lon="-2.5324190">
        <ele>1495.7</ele>
        <time>2022-08-14T08:55:42Z</time>
      </trkpt>
      <trkpt lat="42.0687450" lon="-2.5323310">
        <ele>1496.8</ele>
        <time>2022-08-14T08:55:49Z</time>
      </trkpt>
      <trkpt lat="42.0687090" lon="-2.5323090">
        <ele>1497.2</ele>
        <time>2022-08-14T08:55:51Z</time>
      </trkpt>
      <trkpt lat="42.0686090" lon="-2.5322270">
        <ele>1498.1</ele>
        <time>2022-08-14T08:55:57Z</time>
      </trkpt>
      <trkpt lat="42.0685870" lon="-2.5322160">
        <ele>1498.3</ele>
        <time>2022-08-14T08:55:58Z</time>
      </trkpt>
      <trkpt lat="42.0684770" lon="-2.5321520">
        <ele>1499.2</ele>
        <time>2022-08-14T08:56:06Z</time>
      </trkpt>
      <trkpt lat="42.0684340" lon="-2.5321300">
        <ele>1499.6</ele>
        <time>2022-08-14T08:56:08Z</time>
      </trkpt>
      <trkpt lat="42.0683020" lon="-2.5320470">
        <ele>1500.9</ele>
        <time>2022-08-14T08:56:15Z</time>
      </trkpt>
      <trkpt lat="42.0682660" lon="-2.5320270">
        <ele>1501.3</ele>
        <time>2022-08-14T08:56:17Z</time>
      </trkpt>
      <trkpt lat="42.0681340" lon="-2.5319530">
        <ele>1502.9</ele>
        <time>2022-08-14T08:56:24Z</time>
      </trkpt>
      <trkpt lat="42.0681120" lon="-2.5319370">
        <ele>1503.2</ele>
        <time>2022-08-14T08:56:25Z</time>
      </trkpt>
      <trkpt lat="42.0680130" lon="-2.5318110">
        <ele>1504.6</ele>
        <time>2022-08-14T08:56:31Z</time>
      </trkpt>
      <trkpt lat="42.0680030" lon="-2.5317750">
        <ele>1504.8</ele>
        <time>2022-08-14T08:56:32Z</time>
      </trkpt>
      <trkpt lat="42.0680180" lon="-2.5316010">
        <ele>1505.6</ele>
        <time>2022-08-14T08:56:38Z</time>
      </trkpt>
      <trkpt lat="42.0680810" lon="-2.5315030">
        <ele>1505.8</ele>
        <time>2022-08-14T08:56:43Z</time>
      </trkpt>
      <trkpt lat="42.0681980" lon="-2.5315010">
        <ele>1505.8</ele>
        <time>2022-08-14T08:56:48Z</time>
      </trkpt>
      <trkpt lat="42.0684180" lon="-2.5316260">
        <ele>1505.5</ele>
        <time>2022-08-14T08:56:58Z</time>
      </trkpt>
      <trkpt lat="42.0685560" lon="-2.5316980">
        <ele>1505.5</ele>
        <time>2022-08-14T08:57:04Z</time>
      </trkpt>
      <trkpt lat="42.0686190" lon="-2.5317290">
        <ele>1505.5</ele>
        <time>2022-08-14T08:57:07Z</time>
      </trkpt>
      <trkpt lat="42.0687510" lon="-2.5317710">
        <ele>1505.8</ele>
        <time>2022-08-14T08:57:13Z</time>
      </trkpt>
      <trkpt lat="42.0688180" lon="-2.5317960">
        <ele>1506.0</ele>
        <time>2022-08-14T08:57:16Z</time>
      </trkpt>
      <trkpt lat="42.0688990" lon="-2.5318270">
        <ele>1506.4</ele>
        <time>2022-08-14T08:57:20Z</time>
      </trkpt>
      <trkpt lat="42.0689980" lon="-2.5318360">
        <ele>1506.8</ele>
        <time>2022-08-14T08:57:25Z</time>
      </trkpt>
      <trkpt lat="42.0690370" lon="-2.5318430">
        <ele>1507.1</ele>
        <time>2022-08-14T08:57:27Z</time>
      </trkpt>
      <trkpt lat="42.0691270" lon="-2.5318660">
        <ele>1507.6</ele>
        <time>2022-08-14T08:57:32Z</time>
      </trkpt>
      <trkpt lat="42.0691980" lon="-2.5318640">
        <ele>1508.0</ele>
        <time>2022-08-14T08:57:34Z</time>
      </trkpt>
      <trkpt lat="42.0692890" lon="-2.5318760">
        <ele>1508.5</ele>
        <time>2022-08-14T08:57:39Z</time>
      </trkpt>
      <trkpt lat="42.0693720" lon="-2.5318890">
        <ele>1509.0</ele>
        <time>2022-08-14T08:57:42Z</time>
      </trkpt>
      <trkpt lat="42.0693720" lon="-2.5318890">
        <ele>1509.0</ele>
        <time>2022-08-14T08:57:43Z</time>
      </trkpt>
      <trkpt lat="42.0695010" lon="-2.5319030">
        <ele>1509.8</ele>
        <time>2022-08-14T08:57:49Z</time>
      </trkpt>
      <trkpt lat="42.0695840" lon="-2.5319030">
        <ele>1510.4</ele>
        <time>2022-08-14T08:57:52Z</time>
      </trkpt>
      <trkpt lat="42.0696950" lon="-2.5319040">
        <ele>1510.9</ele>
        <time>2022-08-14T08:57:58Z</time>
      </trkpt>
      <trkpt lat="42.0697320" lon="-2.5319080">
        <ele>1511.1</ele>
        <time>2022-08-14T08:58:00Z</time>
      </trkpt>
      <trkpt lat="42.0697910" lon="-2.5319130">
        <ele>1511.4</ele>
        <time>2022-08-14T08:58:03Z</time>
      </trkpt>
      <trkpt lat="42.0698610" lon="-2.5319030">
        <ele>1511.8</ele>
        <time>2022-08-14T08:58:07Z</time>
      </trkpt>
      <trkpt lat="42.0699430" lon="-2.5318940">
        <ele>1512.2</ele>
        <time>2022-08-14T08:58:10Z</time>
      </trkpt>
      <trkpt lat="42.0700570" lon="-2.5318830">
        <ele>1512.9</ele>
        <time>2022-08-14T08:58:14Z</time>
      </trkpt>
      <trkpt lat="42.0702370" lon="-2.5318930">
        <ele>1514.0</ele>
        <time>2022-08-14T08:58:22Z</time>
      </trkpt>
      <trkpt lat="42.0704030" lon="-2.5318850">
        <ele>1514.9</ele>
        <time>2022-08-14T08:58:28Z</time>
      </trkpt>
      <trkpt lat="42.0704310" lon="-2.5318900">
        <ele>1515.1</ele>
        <time>2022-08-14T08:58:29Z</time>
      </trkpt>
      <trkpt lat="42.0706300" lon="-2.5319250">
        <ele>1516.5</ele>
        <time>2022-08-14T08:58:38Z</time>
      </trkpt>
      <trkpt lat="42.0706300" lon="-2.5319250">
        <ele>1516.5</ele>
        <time>2022-08-14T08:58:39Z</time>
      </trkpt>
      <trkpt lat="42.0706900" lon="-2.5319230">
        <ele>1516.9</ele>
        <time>2022-08-14T08:58:42Z</time>
      </trkpt>
      <trkpt lat="42.0707660" lon="-2.5319340">
        <ele>1517.3</ele>
        <time>2022-08-14T08:58:46Z</time>
      </trkpt>
      <trkpt lat="42.0708340" lon="-2.5319470">
        <ele>1517.8</ele>
        <time>2022-08-14T08:58:48Z</time>
      </trkpt>
      <trkpt lat="42.0710420" lon="-2.5319790">
        <ele>1519.3</ele>
        <time>2022-08-14T08:58:57Z</time>
      </trkpt>
      <trkpt lat="42.0712560" lon="-2.5320020">
        <ele>1520.8</ele>
        <time>2022-08-14T08:59:07Z</time>
      </trkpt>
      <trkpt lat="42.0712560" lon="-2.5320020">
        <ele>1520.8</ele>
        <time>2022-08-14T08:59:08Z</time>
      </trkpt>
      <trkpt lat="42.0714550" lon="-2.5320230">
        <ele>1522.3</ele>
        <time>2022-08-14T08:59:17Z</time>
      </trkpt>
      <trkpt lat="42.0715030" lon="-2.5320250">
        <ele>1522.6</ele>
        <time>2022-08-14T08:59:18Z</time>
      </trkpt>
      <trkpt lat="42.0716530" lon="-2.5320390">
        <ele>1523.6</ele>
        <time>2022-08-14T08:59:25Z</time>
      </trkpt>
      <trkpt lat="42.0717480" lon="-2.5320580">
        <ele>1524.1</ele>
        <time>2022-08-14T08:59:29Z</time>
      </trkpt>
      <trkpt lat="42.0718630" lon="-2.5320750">
        <ele>1524.7</ele>
        <time>2022-08-14T08:59:34Z</time>
      </trkpt>
      <trkpt lat="42.0719520" lon="-2.5320890">
        <ele>1525.2</ele>
        <time>2022-08-14T08:59:38Z</time>
      </trkpt>
      <trkpt lat="42.0721550" lon="-2.5321250">
        <ele>1526.6</ele>
        <time>2022-08-14T08:59:47Z</time>
      </trkpt>
      <trkpt lat="42.0723110" lon="-2.5321540">
        <ele>1527.8</ele>
        <time>2022-08-14T08:59:54Z</time>
      </trkpt>
      <trkpt lat="42.0723530" lon="-2.5321540">
        <ele>1528.1</ele>
        <time>2022-08-14T08:59:56Z</time>
      </trkpt>
      <trkpt lat="42.0724690" lon="-2.5321280">
        <ele>1528.9</ele>
        <time>2022-08-14T09:00:02Z</time>
      </trkpt>
      <trkpt lat="42.0725300" lon="-2.5320740">
        <ele>1529.4</ele>
        <time>2022-08-14T09:00:04Z</time>
      </trkpt>
      <trkpt lat="42.0725420" lon="-2.5320480">
        <ele>1529.5</ele>
        <time>2022-08-14T09:00:05Z</time>
      </trkpt>
      <trkpt lat="42.0725380" lon="-2.5319570">
        <ele>1529.9</ele>
        <time>2022-08-14T09:00:08Z</time>
      </trkpt>
      <trkpt lat="42.0724400" lon="-2.5318680">
        <ele>1530.5</ele>
        <time>2022-08-14T09:00:13Z</time>
      </trkpt>
      <trkpt lat="42.0724180" lon="-2.5318620">
        <ele>1530.5</ele>
        <time>2022-08-14T09:00:14Z</time>
      </trkpt>
      <trkpt lat="42.0722790" lon="-2.5318460">
        <ele>1530.6</ele>
        <time>2022-08-14T09:00:20Z</time>
      </trkpt>
      <trkpt lat="42.0722310" lon="-2.5318450">
        <ele>1530.5</ele>
        <time>2022-08-14T09:00:22Z</time>
      </trkpt>
      <trkpt lat="42.0720490" lon="-2.5318240">
        <ele>1530.4</ele>
        <time>2022-08-14T09:00:30Z</time>
      </trkpt>
      <trkpt lat="42.0719360" lon="-2.5317940">
        <ele>1530.6</ele>
        <time>2022-08-14T09:00:35Z</time>
      </trkpt>
      <trkpt lat="42.0718220" lon="-2.5317560">
        <ele>1530.8</ele>
        <time>2022-08-14T09:00:41Z</time>
      </trkpt>
      <trkpt lat="42.0717440" lon="-2.5317270">
        <ele>1531.0</ele>
        <time>2022-08-14T09:00:44Z</time>
      </trkpt>
      <trkpt lat="42.0715820" lon="-2.5316660">
        <ele>1531.6</ele>
        <time>2022-08-14T09:00:51Z</time>
      </trkpt>
      <trkpt lat="42.0715600" lon="-2.5316560">
        <ele>1531.7</ele>
        <time>2022-08-14T09:00:52Z</time>
      </trkpt>
      <trkpt lat="42.0713750" lon="-2.5315510">
        <ele>1532.5</ele>
        <time>2022-08-14T09:01:00Z</time>
      </trkpt>
      <trkpt lat="42.0713110" lon="-2.5315090">
        <ele>1532.8</ele>
        <time>2022-08-14T09:01:04Z</time>
      </trkpt>
      <trkpt lat="42.0711890" lon="-2.5314300">
        <ele>1533.4</ele>
        <time>2022-08-14T09:01:09Z</time>
      </trkpt>
      <trkpt lat="42.0711090" lon="-2.5313810">
        <ele>1533.8</ele>
        <time>2022-08-14T09:01:13Z</time>
      </trkpt>
      <trkpt lat="42.0710260" lon="-2.5313220">
        <ele>1534.3</ele>
        <time>2022-08-14T09:01:17Z</time>
      </trkpt>
      <trkpt lat="42.0709080" lon="-2.5312500">
        <ele>1535.0</ele>
        <time>2022-08-14T09:01:23Z</time>
      </trkpt>
      <trkpt lat="42.0708350" lon="-2.5311940">
        <ele>1535.5</ele>
        <time>2022-08-14T09:01:27Z</time>
      </trkpt>
      <trkpt lat="42.0707010" lon="-2.5311140">
        <ele>1536.2</ele>
        <time>2022-08-14T09:01:34Z</time>
      </trkpt>
      <trkpt lat="42.0706570" lon="-2.5310850">
        <ele>1536.5</ele>
        <time>2022-08-14T09:01:36Z</time>
      </trkpt>
      <trkpt lat="42.0704680" lon="-2.5309750">
        <ele>1537.7</ele>
        <time>2022-08-14T09:01:45Z</time>
      </trkpt>
      <trkpt lat="42.0704480" lon="-2.5309620">
        <ele>1537.8</ele>
        <time>2022-08-14T09:01:46Z</time>
      </trkpt>
      <trkpt lat="42.0703230" lon="-2.5308760">
        <ele>1538.6</ele>
        <time>2022-08-14T09:01:52Z</time>
      </trkpt>
      <trkpt lat="42.0702230" lon="-2.5308130">
        <ele>1539.2</ele>
        <time>2022-08-14T09:01:57Z</time>
      </trkpt>
      <trkpt lat="42.0701350" lon="-2.5307490">
        <ele>1539.7</ele>
        <time>2022-08-14T09:02:02Z</time>
      </trkpt>
      <trkpt lat="42.0700350" lon="-2.5306770">
        <ele>1540.3</ele>
        <time>2022-08-14T09:02:07Z</time>
      </trkpt>
      <trkpt lat="42.0699480" lon="-2.5306330">
        <ele>1540.8</ele>
        <time>2022-08-14T09:02:11Z</time>
      </trkpt>
      <trkpt lat="42.0698440" lon="-2.5305690">
        <ele>1541.5</ele>
        <time>2022-08-14T09:02:16Z</time>
      </trkpt>
      <trkpt lat="42.0697250" lon="-2.5304860">
        <ele>1542.3</ele>
        <time>2022-08-14T09:02:22Z</time>
      </trkpt>
      <trkpt lat="42.0696330" lon="-2.5304290">
        <ele>1542.9</ele>
        <time>2022-08-14T09:02:26Z</time>
      </trkpt>
      <trkpt lat="42.0695160" lon="-2.5303550">
        <ele>1543.6</ele>
        <time>2022-08-14T09:02:32Z</time>
      </trkpt>
      <trkpt lat="42.0694810" lon="-2.5303320">
        <ele>1543.9</ele>
        <time>2022-08-14T09:02:35Z</time>
      </trkpt>
      <trkpt lat="42.0693860" lon="-2.5302490">
        <ele>1544.5</ele>
        <time>2022-08-14T09:02:40Z</time>
      </trkpt>
      <trkpt lat="42.0693780" lon="-2.5302430">
        <ele>1544.6</ele>
        <time>2022-08-14T09:02:41Z</time>
      </trkpt>
      <trkpt lat="42.0693280" lon="-2.5301840">
        <ele>1545.0</ele>
        <time>2022-08-14T09:02:43Z</time>
      </trkpt>
      <trkpt lat="42.0692340" lon="-2.5300980">
        <ele>1545.6</ele>
        <time>2022-08-14T09:02:48Z</time>
      </trkpt>
      <trkpt lat="42.0691940" lon="-2.5300560">
        <ele>1545.9</ele>
        <time>2022-08-14T09:02:50Z</time>
      </trkpt>
      <trkpt lat="42.0691380" lon="-2.5300090">
        <ele>1546.2</ele>
        <time>2022-08-14T09:02:52Z</time>
      </trkpt>
      <trkpt lat="42.0690940" lon="-2.5299600">
        <ele>1546.5</ele>
        <time>2022-08-14T09:02:55Z</time>
      </trkpt>
      <trkpt lat="42.0689800" lon="-2.5298090">
        <ele>1547.4</ele>
        <time>2022-08-14T09:03:02Z</time>
      </trkpt>
      <trkpt lat="42.0689330" lon="-2.5297470">
        <ele>1547.7</ele>
        <time>2022-08-14T09:03:05Z</time>
      </trkpt>
      <trkpt lat="42.0688580" lon="-2.5296530">
        <ele>1548.3</ele>
        <time>2022-08-14T09:03:11Z</time>
      </trkpt>
      <trkpt lat="42.0688230" lon="-2.5295900">
        <ele>1548.6</ele>
        <time>2022-08-14T09:03:14Z</time>
      </trkpt>
      <trkpt lat="42.0687320" lon="-2.5294840">
        <ele>1549.3</ele>
        <time>2022-08-14T09:03:19Z</time>
      </trkpt>
      <trkpt lat="42.0687050" lon="-2.5294480">
        <ele>1549.5</ele>
        <time>2022-08-14T09:03:21Z</time>
      </trkpt>
      <trkpt lat="42.0685510" lon="-2.5292780">
        <ele>1550.7</ele>
        <time>2022-08-14T09:03:29Z</time>
      </trkpt>
      <trkpt lat="42.0685510" lon="-2.5292780">
        <ele>1550.7</ele>
        <time>2022-08-14T09:03:30Z</time>
      </trkpt>
      <trkpt lat="42.0684130" lon="-2.5291460">
        <ele>1551.8</ele>
        <time>2022-08-14T09:03:36Z</time>
      </trkpt>
      <trkpt lat="42.0683580" lon="-2.5290900">
        <ele>1552.2</ele>
        <time>2022-08-14T09:03:39Z</time>
      </trkpt>
      <trkpt lat="42.0682850" lon="-2.5290280">
        <ele>1552.7</ele>
        <time>2022-08-14T09:03:43Z</time>
      </trkpt>
      <trkpt lat="42.0681340" lon="-2.5289050">
        <ele>1553.8</ele>
        <time>2022-08-14T09:03:50Z</time>
      </trkpt>
      <trkpt lat="42.0679750" lon="-2.5287990">
        <ele>1555.0</ele>
        <time>2022-08-14T09:03:58Z</time>
      </trkpt>
      <trkpt lat="42.0679170" lon="-2.5287660">
        <ele>1555.3</ele>
        <time>2022-08-14T09:04:02Z</time>
      </trkpt>
      <trkpt lat="42.0677210" lon="-2.5286930">
        <ele>1556.5</ele>
        <time>2022-08-14T09:04:09Z</time>
      </trkpt>
      <trkpt lat="42.0676700" lon="-2.5286770">
        <ele>1556.7</ele>
        <time>2022-08-14T09:04:11Z</time>
      </trkpt>
      <trkpt lat="42.0675110" lon="-2.5286240">
        <ele>1557.5</ele>
        <time>2022-08-14T09:04:18Z</time>
      </trkpt>
      <trkpt lat="42.0673970" lon="-2.5285950">
        <ele>1558.1</ele>
        <time>2022-08-14T09:04:23Z</time>
      </trkpt>
      <trkpt lat="42.0673510" lon="-2.5285840">
        <ele>1558.3</ele>
        <time>2022-08-14T09:04:25Z</time>
      </trkpt>
      <trkpt lat="42.0671790" lon="-2.5285910">
        <ele>1559.1</ele>
        <time>2022-08-14T09:04:33Z</time>
      </trkpt>
      <trkpt lat="42.0670690" lon="-2.5286000">
        <ele>1559.7</ele>
        <time>2022-08-14T09:04:38Z</time>
      </trkpt>
      <trkpt lat="42.0669810" lon="-2.5286030">
        <ele>1560.2</ele>
        <time>2022-08-14T09:04:42Z</time>
      </trkpt>
      <trkpt lat="42.0669370" lon="-2.5286090">
        <ele>1560.4</ele>
        <time>2022-08-14T09:04:44Z</time>
      </trkpt>
      <trkpt lat="42.0667380" lon="-2.5286260">
        <ele>1561.4</ele>
        <time>2022-08-14T09:04:53Z</time>
      </trkpt>
      <trkpt lat="42.0667180" lon="-2.5286270">
        <ele>1561.5</ele>
        <time>2022-08-14T09:04:54Z</time>
      </trkpt>
      <trkpt lat="42.0665730" lon="-2.5286460">
        <ele>1562.3</ele>
        <time>2022-08-14T09:05:01Z</time>
      </trkpt>
      <trkpt lat="42.0665530" lon="-2.5286520">
        <ele>1562.4</ele>
        <time>2022-08-14T09:05:02Z</time>
      </trkpt>
      <trkpt lat="42.0664910" lon="-2.5286610">
        <ele>1562.8</ele>
        <time>2022-08-14T09:05:05Z</time>
      </trkpt>
      <trkpt lat="42.0664310" lon="-2.5286760">
        <ele>1563.1</ele>
        <time>2022-08-14T09:05:09Z</time>
      </trkpt>
      <trkpt lat="42.0663500" lon="-2.5286870">
        <ele>1563.6</ele>
        <time>2022-08-14T09:05:12Z</time>
      </trkpt>
      <trkpt lat="42.0661850" lon="-2.5286950">
        <ele>1564.6</ele>
        <time>2022-08-14T09:05:19Z</time>
      </trkpt>
      <trkpt lat="42.0661620" lon="-2.5286970">
        <ele>1564.8</ele>
        <time>2022-08-14T09:05:20Z</time>
      </trkpt>
      <trkpt lat="42.0660230" lon="-2.5287060">
        <ele>1565.6</ele>
        <time>2022-08-14T09:05:26Z</time>
      </trkpt>
      <trkpt lat="42.0659540" lon="-2.5287150">
        <ele>1566.0</ele>
        <time>2022-08-14T09:05:29Z</time>
      </trkpt>
      <trkpt lat="42.0657910" lon="-2.5287370">
        <ele>1566.9</ele>
        <time>2022-08-14T09:05:36Z</time>
      </trkpt>
      <trkpt lat="42.0656310" lon="-2.5287790">
        <ele>1567.8</ele>
        <time>2022-08-14T09:05:43Z</time>
      </trkpt>
      <trkpt lat="42.0655370" lon="-2.5288020">
        <ele>1568.4</ele>
        <time>2022-08-14T09:05:47Z</time>
      </trkpt>
      <trkpt lat="42.0654110" lon="-2.5288490">
        <ele>1569.1</ele>
        <time>2022-08-14T09:05:53Z</time>
      </trkpt>
      <trkpt lat="42.0652500" lon="-2.5289170">
        <ele>1570.0</ele>
        <time>2022-08-14T09:06:01Z</time>
      </trkpt>
      <trkpt lat="42.0652110" lon="-2.5289330">
        <ele>1570.3</ele>
        <time>2022-08-14T09:06:04Z</time>
      </trkpt>
      <trkpt lat="42.0650950" lon="-2.5289990">
        <ele>1571.0</ele>
        <time>2022-08-14T09:06:09Z</time>
      </trkpt>
      <trkpt lat="42.0650140" lon="-2.5290410">
        <ele>1571.5</ele>
        <time>2022-08-14T09:06:13Z</time>
      </trkpt>
      <trkpt lat="42.0649100" lon="-2.5290790">
        <ele>1572.2</ele>
        <time>2022-08-14T09:06:18Z</time>
      </trkpt>
      <trkpt lat="42.0648520" lon="-2.5291440">
        <ele>1572.7</ele>
        <time>2022-08-14T09:06:22Z</time>
      </trkpt>
      <trkpt lat="42.0647980" lon="-2.5291860">
        <ele>1573.1</ele>
        <time>2022-08-14T09:06:25Z</time>
      </trkpt>
      <trkpt lat="42.0647220" lon="-2.5292360">
        <ele>1573.6</ele>
        <time>2022-08-14T09:06:29Z</time>
      </trkpt>
      <trkpt lat="42.0646060" lon="-2.5293040">
        <ele>1574.4</ele>
        <time>2022-08-14T09:06:35Z</time>
      </trkpt>
      <trkpt lat="42.0645660" lon="-2.5293320">
        <ele>1574.7</ele>
        <time>2022-08-14T09:06:36Z</time>
      </trkpt>
      <trkpt lat="42.0644460" lon="-2.5294350">
        <ele>1575.6</ele>
        <time>2022-08-14T09:06:43Z</time>
      </trkpt>
      <trkpt lat="42.0644290" lon="-2.5294500">
        <ele>1575.7</ele>
        <time>2022-08-14T09:06:44Z</time>
      </trkpt>
      <trkpt lat="42.0642870" lon="-2.5295380">
        <ele>1576.7</ele>
        <time>2022-08-14T09:06:50Z</time>
      </trkpt>
      <trkpt lat="42.0642310" lon="-2.5295840">
        <ele>1577.1</ele>
        <time>2022-08-14T09:06:53Z</time>
      </trkpt>
      <trkpt lat="42.0640850" lon="-2.5296950">
        <ele>1578.2</ele>
        <time>2022-08-14T09:07:00Z</time>
      </trkpt>
      <trkpt lat="42.0639890" lon="-2.5297740">
        <ele>1578.9</ele>
        <time>2022-08-14T09:07:05Z</time>
      </trkpt>
      <trkpt lat="42.0639380" lon="-2.5298170">
        <ele>1579.3</ele>
        <time>2022-08-14T09:07:08Z</time>
      </trkpt>
      <trkpt lat="42.0638410" lon="-2.5299080">
        <ele>1580.1</ele>
        <time>2022-08-14T09:07:14Z</time>
      </trkpt>
      <trkpt lat="42.0637800" lon="-2.5299750">
        <ele>1580.7</ele>
        <time>2022-08-14T09:07:18Z</time>
      </trkpt>
      <trkpt lat="42.0637310" lon="-2.5300290">
        <ele>1581.2</ele>
        <time>2022-08-14T09:07:21Z</time>
      </trkpt>
      <trkpt lat="42.0636290" lon="-2.5301640">
        <ele>1582.3</ele>
        <time>2022-08-14T09:07:28Z</time>
      </trkpt>
      <trkpt lat="42.0635310" lon="-2.5302980">
        <ele>1583.4</ele>
        <time>2022-08-14T09:07:35Z</time>
      </trkpt>
      <trkpt lat="42.0634680" lon="-2.5303980">
        <ele>1584.2</ele>
        <time>2022-08-14T09:07:40Z</time>
      </trkpt>
      <trkpt lat="42.0634370" lon="-2.5304490">
        <ele>1584.6</ele>
        <time>2022-08-14T09:07:43Z</time>
      </trkpt>
      <trkpt lat="42.0633530" lon="-2.5305630">
        <ele>1585.7</ele>
        <time>2022-08-14T09:07:49Z</time>
      </trkpt>
      <trkpt lat="42.0633410" lon="-2.5305820">
        <ele>1585.8</ele>
        <time>2022-08-14T09:07:50Z</time>
      </trkpt>
      <trkpt lat="42.0632700" lon="-2.5306970">
        <ele>1586.8</ele>
        <time>2022-08-14T09:07:56Z</time>
      </trkpt>
      <trkpt lat="42.0631890" lon="-2.5308370">
        <ele>1587.9</ele>
        <time>2022-08-14T09:08:03Z</time>
      </trkpt>
      <trkpt lat="42.0630780" lon="-2.5310180">
        <ele>1589.3</ele>
        <time>2022-08-14T09:08:12Z</time>
      </trkpt>
      <trkpt lat="42.0629930" lon="-2.5311540">
        <ele>1590.3</ele>
        <time>2022-08-14T09:08:19Z</time>
      </trkpt>
      <trkpt lat="42.0629500" lon="-2.5312080">
        <ele>1590.8</ele>
        <time>2022-08-14T09:08:22Z</time>
      </trkpt>
      <trkpt lat="42.0628960" lon="-2.5313060">
        <ele>1591.4</ele>
        <time>2022-08-14T09:08:27Z</time>
      </trkpt>
      <trkpt lat="42.0628570" lon="-2.5313660">
        <ele>1591.7</ele>
        <time>2022-08-14T09:08:30Z</time>
      </trkpt>
      <trkpt lat="42.0628440" lon="-2.5313870">
        <ele>1591.9</ele>
        <time>2022-08-14T09:08:31Z</time>
      </trkpt>
      <trkpt lat="42.0627630" lon="-2.5315470">
        <ele>1592.8</ele>
        <time>2022-08-14T09:08:38Z</time>
      </trkpt>
      <trkpt lat="42.0626570" lon="-2.5317070">
        <ele>1593.9</ele>
        <time>2022-08-14T09:08:46Z</time>
      </trkpt>
      <trkpt lat="42.0626170" lon="-2.5317740">
        <ele>1594.3</ele>
        <time>2022-08-14T09:08:49Z</time>
      </trkpt>
      <trkpt lat="42.0625200" lon="-2.5319210">
        <ele>1595.2</ele>
        <time>2022-08-14T09:08:56Z</time>
      </trkpt>
      <trkpt lat="42.0625060" lon="-2.5319420">
        <ele>1595.3</ele>
        <time>2022-08-14T09:08:57Z</time>
      </trkpt>
      <trkpt lat="42.0624070" lon="-2.5320790">
        <ele>1596.1</ele>
        <time>2022-08-14T09:09:04Z</time>
      </trkpt>
      <trkpt lat="42.0623390" lon="-2.5322360">
        <ele>1596.8</ele>
        <time>2022-08-14T09:09:11Z</time>
      </trkpt>
      <trkpt lat="42.0623290" lon="-2.5322510">
        <ele>1596.9</ele>
        <time>2022-08-14T09:09:12Z</time>
      </trkpt>
      <trkpt lat="42.0622650" lon="-2.5323590">
        <ele>1597.4</ele>
        <time>2022-08-14T09:09:17Z</time>
      </trkpt>
      <trkpt lat="42.0622530" lon="-2.5323780">
        <ele>1597.5</ele>
        <time>2022-08-14T09:09:18Z</time>
      </trkpt>
      <trkpt lat="42.0622160" lon="-2.5324340">
        <ele>1597.8</ele>
        <time>2022-08-14T09:09:21Z</time>
      </trkpt>
      <trkpt lat="42.0622050" lon="-2.5324500">
        <ele>1597.9</ele>
        <time>2022-08-14T09:09:22Z</time>
      </trkpt>
      <trkpt lat="42.0621730" lon="-2.5324940">
        <ele>1598.1</ele>
        <time>2022-08-14T09:09:24Z</time>
      </trkpt>
      <trkpt lat="42.0621110" lon="-2.5325650">
        <ele>1598.5</ele>
        <time>2022-08-14T09:09:28Z</time>
      </trkpt>
      <trkpt lat="42.0620860" lon="-2.5326000">
        <ele>1598.7</ele>
        <time>2022-08-14T09:09:30Z</time>
      </trkpt>
      <trkpt lat="42.0620250" lon="-2.5326780">
        <ele>1599.2</ele>
        <time>2022-08-14T09:09:34Z</time>
      </trkpt>
      <trkpt lat="42.0619950" lon="-2.5327160">
        <ele>1599.5</ele>
        <time>2022-08-14T09:09:36Z</time>
      </trkpt>
      <trkpt lat="42.0619040" lon="-2.5328330">
        <ele>1600.3</ele>
        <time>2022-08-14T09:09:42Z</time>
      </trkpt>
      <trkpt lat="42.0617850" lon="-2.5329880">
        <ele>1601.2</ele>
        <time>2022-08-14T09:09:50Z</time>
      </trkpt>
      <trkpt lat="42.0617670" lon="-2.5330160">
        <ele>1601.4</ele>
        <time>2022-08-14T09:09:51Z</time>
      </trkpt>
      <trkpt lat="42.0616660" lon="-2.5331410">
        <ele>1602.4</ele>
        <time>2022-08-14T09:09:57Z</time>
      </trkpt>
      <trkpt lat="42.0616080" lon="-2.5331940">
        <ele>1602.9</ele>
        <time>2022-08-14T09:10:00Z</time>
      </trkpt>
      <trkpt lat="42.0614440" lon="-2.5333870">
        <ele>1604.3</ele>
        <time>2022-08-14T09:10:10Z</time>
      </trkpt>
      <trkpt lat="42.0614140" lon="-2.5334210">
        <ele>1604.6</ele>
        <time>2022-08-14T09:10:12Z</time>
      </trkpt>
      <trkpt lat="42.0613370" lon="-2.5335170">
        <ele>1605.3</ele>
        <time>2022-08-14T09:10:17Z</time>
      </trkpt>
      <trkpt lat="42.0612530" lon="-2.5336050">
        <ele>1606.0</ele>
        <time>2022-08-14T09:10:22Z</time>
      </trkpt>
      <trkpt lat="42.0612010" lon="-2.5336640">
        <ele>1606.5</ele>
        <time>2022-08-14T09:10:25Z</time>
      </trkpt>
      <trkpt lat="42.0610970" lon="-2.5337730">
        <ele>1607.4</ele>
        <time>2022-08-14T09:10:31Z</time>
      </trkpt>
      <trkpt lat="42.0610790" lon="-2.5337900">
        <ele>1607.6</ele>
        <time>2022-08-14T09:10:32Z</time>
      </trkpt>
      <trkpt lat="42.0609390" lon="-2.5339400">
        <ele>1608.7</ele>
        <time>2022-08-14T09:10:40Z</time>
      </trkpt>
      <trkpt lat="42.0608960" lon="-2.5339970">
        <ele>1609.1</ele>
        <time>2022-08-14T09:10:43Z</time>
      </trkpt>
      <trkpt lat="42.0608170" lon="-2.5341080">
        <ele>1609.9</ele>
        <time>2022-08-14T09:10:48Z</time>
      </trkpt>
      <trkpt lat="42.0607710" lon="-2.5341740">
        <ele>1610.4</ele>
        <time>2022-08-14T09:10:51Z</time>
      </trkpt>
      <trkpt lat="42.0606650" lon="-2.5343190">
        <ele>1611.3</ele>
        <time>2022-08-14T09:10:58Z</time>
      </trkpt>
      <trkpt lat="42.0605750" lon="-2.5344480">
        <ele>1612.2</ele>
        <time>2022-08-14T09:11:04Z</time>
      </trkpt>
      <trkpt lat="42.0605370" lon="-2.5345130">
        <ele>1612.6</ele>
        <time>2022-08-14T09:11:07Z</time>
      </trkpt>
      <trkpt lat="42.0604030" lon="-2.5347160">
        <ele>1613.9</ele>
        <time>2022-08-14T09:11:16Z</time>
      </trkpt>
      <trkpt lat="42.0603050" lon="-2.5348760">
        <ele>1614.9</ele>
        <time>2022-08-14T09:11:23Z</time>
      </trkpt>
      <trkpt lat="42.0602790" lon="-2.5349160">
        <ele>1615.1</ele>
        <time>2022-08-14T09:11:25Z</time>
      </trkpt>
      <trkpt lat="42.0602650" lon="-2.5349490">
        <ele>1615.3</ele>
        <time>2022-08-14T09:11:26Z</time>
      </trkpt>
      <trkpt lat="42.0602230" lon="-2.5350470">
        <ele>1615.9</ele>
        <time>2022-08-14T09:11:30Z</time>
      </trkpt>
      <trkpt lat="42.0601700" lon="-2.5351470">
        <ele>1616.5</ele>
        <time>2022-08-14T09:11:34Z</time>
      </trkpt>
      <trkpt lat="42.0601430" lon="-2.5351940">
        <ele>1616.8</ele>
        <time>2022-08-14T09:11:36Z</time>
      </trkpt>
      <trkpt lat="42.0600480" lon="-2.5353760">
        <ele>1617.7</ele>
        <time>2022-08-14T09:11:44Z</time>
      </trkpt>
      <trkpt lat="42.0600260" lon="-2.5354120">
        <ele>1617.9</ele>
        <time>2022-08-14T09:11:45Z</time>
      </trkpt>
      <trkpt lat="42.0599430" lon="-2.5355650">
        <ele>1618.7</ele>
        <time>2022-08-14T09:11:52Z</time>
      </trkpt>
      <trkpt lat="42.0599310" lon="-2.5355920">
        <ele>1618.8</ele>
        <time>2022-08-14T09:11:53Z</time>
      </trkpt>
      <trkpt lat="42.0598190" lon="-2.5358160">
        <ele>1619.9</ele>
        <time>2022-08-14T09:12:03Z</time>
      </trkpt>
      <trkpt lat="42.0598080" lon="-2.5358360">
        <ele>1620.0</ele>
        <time>2022-08-14T09:12:04Z</time>
      </trkpt>
      <trkpt lat="42.0597340" lon="-2.5359620">
        <ele>1620.7</ele>
        <time>2022-08-14T09:12:10Z</time>
      </trkpt>
      <trkpt lat="42.0596910" lon="-2.5360600">
        <ele>1621.2</ele>
        <time>2022-08-14T09:12:14Z</time>
      </trkpt>
      <trkpt lat="42.0596440" lon="-2.5361830">
        <ele>1621.9</ele>
        <time>2022-08-14T09:12:19Z</time>
      </trkpt>
      <trkpt lat="42.0596060" lon="-2.5363110">
        <ele>1622.4</ele>
        <time>2022-08-14T09:12:24Z</time>
      </trkpt>
      <trkpt lat="42.0595910" lon="-2.5363650">
        <ele>1622.7</ele>
        <time>2022-08-14T09:12:26Z</time>
      </trkpt>
      <trkpt lat="42.0595610" lon="-2.5365310">
        <ele>1623.4</ele>
        <time>2022-08-14T09:12:32Z</time>
      </trkpt>
      <trkpt lat="42.0595500" lon="-2.5365850">
        <ele>1623.7</ele>
        <time>2022-08-14T09:12:34Z</time>
      </trkpt>
      <trkpt lat="42.0595230" lon="-2.5367450">
        <ele>1624.5</ele>
        <time>2022-08-14T09:12:40Z</time>
      </trkpt>
      <trkpt lat="42.0595210" lon="-2.5367720">
        <ele>1624.6</ele>
        <time>2022-08-14T09:12:41Z</time>
      </trkpt>
      <trkpt lat="42.0594880" lon="-2.5368920">
        <ele>1625.2</ele>
        <time>2022-08-14T09:12:46Z</time>
      </trkpt>
      <trkpt lat="42.0594320" lon="-2.5369730">
        <ele>1625.8</ele>
        <time>2022-08-14T09:12:50Z</time>
      </trkpt>
      <trkpt lat="42.0593740" lon="-2.5370060">
        <ele>1626.2</ele>
        <time>2022-08-14T09:12:53Z</time>
      </trkpt>
      <trkpt lat="42.0592500" lon="-2.5369920">
        <ele>1627.0</ele>
        <time>2022-08-14T09:12:59Z</time>
      </trkpt>
      <trkpt lat="42.0592310" lon="-2.5369750">
        <ele>1627.1</ele>
        <time>2022-08-14T09:13:00Z</time>
      </trkpt>
      <trkpt lat="42.0591870" lon="-2.5369130">
        <ele>1627.4</ele>
        <time>2022-08-14T09:13:03Z</time>
      </trkpt>
      <trkpt lat="42.0591450" lon="-2.5368070">
        <ele>1627.7</ele>
        <time>2022-08-14T09:13:07Z</time>
      </trkpt>
      <trkpt lat="42.0591340" lon="-2.5366110">
        <ele>1627.8</ele>
        <time>2022-08-14T09:13:14Z</time>
      </trkpt>
      <trkpt lat="42.0591380" lon="-2.5365010">
        <ele>1627.8</ele>
        <time>2022-08-14T09:13:18Z</time>
      </trkpt>
      <trkpt lat="42.0591470" lon="-2.5364520">
        <ele>1627.8</ele>
        <time>2022-08-14T09:13:20Z</time>
      </trkpt>
      <trkpt lat="42.0591540" lon="-2.5361730">
        <ele>1628.1</ele>
        <time>2022-08-14T09:13:30Z</time>
      </trkpt>
      <trkpt lat="42.0591530" lon="-2.5361510">
        <ele>1628.2</ele>
        <time>2022-08-14T09:13:31Z</time>
      </trkpt>
      <trkpt lat="42.0591420" lon="-2.5359160">
        <ele>1628.7</ele>
        <time>2022-08-14T09:13:40Z</time>
      </trkpt>
      <trkpt lat="42.0591410" lon="-2.5358640">
        <ele>1628.8</ele>
        <time>2022-08-14T09:13:42Z</time>
      </trkpt>
      <trkpt lat="42.0591310" lon="-2.5357420">
        <ele>1629.2</ele>
        <time>2022-08-14T09:13:47Z</time>
      </trkpt>
      <trkpt lat="42.0591230" lon="-2.5356500">
        <ele>1629.6</ele>
        <time>2022-08-14T09:13:51Z</time>
      </trkpt>
      <trkpt lat="42.0591090" lon="-2.5355520">
        <ele>1630.0</ele>
        <time>2022-08-14T09:13:55Z</time>
      </trkpt>
      <trkpt lat="42.0590900" lon="-2.5353760">
        <ele>1630.7</ele>
        <time>2022-08-14T09:14:03Z</time>
      </trkpt>
      <trkpt lat="42.0590850" lon="-2.5353290">
        <ele>1631.0</ele>
        <time>2022-08-14T09:14:05Z</time>
      </trkpt>
      <trkpt lat="42.0590540" lon="-2.5351990">
        <ele>1631.7</ele>
        <time>2022-08-14T09:14:11Z</time>
      </trkpt>
      <trkpt lat="42.0590530" lon="-2.5351730">
        <ele>1631.9</ele>
        <time>2022-08-14T09:14:12Z</time>
      </trkpt>
      <trkpt lat="42.0590480" lon="-2.5349910">
        <ele>1632.9</ele>
        <time>2022-08-14T09:14:20Z</time>
      </trkpt>
      <trkpt lat="42.0590380" lon="-2.5348480">
        <ele>1633.7</ele>
        <time>2022-08-14T09:14:26Z</time>
      </trkpt>
      <trkpt lat="42.0590350" lon="-2.5348240">
        <ele>1633.8</ele>
        <time>2022-08-14T09:14:27Z</time>
      </trkpt>
      <trkpt lat="42.0590370" lon="-2.5346920">
        <ele>1634.4</ele>
        <time>2022-08-14T09:14:33Z</time>
      </trkpt>
      <trkpt lat="42.0590310" lon="-2.5346190">
        <ele>1634.8</ele>
        <time>2022-08-14T09:14:36Z</time>
      </trkpt>
      <trkpt lat="42.0590230" lon="-2.5344930">
        <ele>1635.5</ele>
        <time>2022-08-14T09:14:42Z</time>
      </trkpt>
      <trkpt lat="42.0590200" lon="-2.5344390">
        <ele>1635.8</ele>
        <time>2022-08-14T09:14:44Z</time>
      </trkpt>
      <trkpt lat="42.0590110" lon="-2.5342810">
        <ele>1636.9</ele>
        <time>2022-08-14T09:14:51Z</time>
      </trkpt>
      <trkpt lat="42.0590070" lon="-2.5342100">
        <ele>1637.3</ele>
        <time>2022-08-14T09:14:54Z</time>
      </trkpt>
      <trkpt lat="42.0590180" lon="-2.5340960">
        <ele>1638.0</ele>
        <time>2022-08-14T09:14:59Z</time>
      </trkpt>
      <trkpt lat="42.0590150" lon="-2.5340270">
        <ele>1638.4</ele>
        <time>2022-08-14T09:15:02Z</time>
      </trkpt>
      <trkpt lat="42.0590010" lon="-2.5338670">
        <ele>1639.3</ele>
        <time>2022-08-14T09:15:09Z</time>
      </trkpt>
      <trkpt lat="42.0589990" lon="-2.5338470">
        <ele>1639.4</ele>
        <time>2022-08-14T09:15:10Z</time>
      </trkpt>
      <trkpt lat="42.0590050" lon="-2.5336950">
        <ele>1640.3</ele>
        <time>2022-08-14T09:15:17Z</time>
      </trkpt>
      <trkpt lat="42.0590080" lon="-2.5336740">
        <ele>1640.5</ele>
        <time>2022-08-14T09:15:18Z</time>
      </trkpt>
      <trkpt lat="42.0590100" lon="-2.5335240">
        <ele>1641.5</ele>
        <time>2022-08-14T09:15:25Z</time>
      </trkpt>
      <trkpt lat="42.0590400" lon="-2.5333530">
        <ele>1642.7</ele>
        <time>2022-08-14T09:15:33Z</time>
      </trkpt>
      <trkpt lat="42.0590420" lon="-2.5333310">
        <ele>1642.8</ele>
        <time>2022-08-14T09:15:34Z</time>
      </trkpt>
      <trkpt lat="42.0590550" lon="-2.5331810">
        <ele>1643.8</ele>
        <time>2022-08-14T09:15:41Z</time>
      </trkpt>
      <trkpt lat="42.0590660" lon="-2.5331190">
        <ele>1644.2</ele>
        <time>2022-08-14T09:15:44Z</time>
      </trkpt>
      <trkpt lat="42.0590740" lon="-2.5329780">
        <ele>1645.0</ele>
        <time>2022-08-14T09:15:50Z</time>
      </trkpt>
      <trkpt lat="42.0590740" lon="-2.5329120">
        <ele>1645.4</ele>
        <time>2022-08-14T09:15:53Z</time>
      </trkpt>
      <trkpt lat="42.0590920" lon="-2.5327780">
        <ele>1646.3</ele>
        <time>2022-08-14T09:15:59Z</time>
      </trkpt>
      <trkpt lat="42.0590970" lon="-2.5327550">
        <ele>1646.5</ele>
        <time>2022-08-14T09:16:00Z</time>
      </trkpt>
      <trkpt lat="42.0591250" lon="-2.5325990">
        <ele>1647.6</ele>
        <time>2022-08-14T09:16:07Z</time>
      </trkpt>
      <trkpt lat="42.0591290" lon="-2.5325770">
        <ele>1647.7</ele>
        <time>2022-08-14T09:16:08Z</time>
      </trkpt>
      <trkpt lat="42.0591470" lon="-2.5325010">
        <ele>1648.3</ele>
        <time>2022-08-14T09:16:12Z</time>
      </trkpt>
      <trkpt lat="42.0592230" lon="-2.5322780">
        <ele>1649.7</ele>
        <time>2022-08-14T09:16:22Z</time>
      </trkpt>
      <trkpt lat="42.0592390" lon="-2.5322350">
        <ele>1650.0</ele>
        <time>2022-08-14T09:16:24Z</time>
      </trkpt>
      <trkpt lat="42.0593240" lon="-2.5320550">
        <ele>1651.1</ele>
        <time>2022-08-14T09:16:33Z</time>
      </trkpt>
      <trkpt lat="42.0594040" lon="-2.5318970">
        <ele>1652.1</ele>
        <time>2022-08-14T09:16:41Z</time>
      </trkpt>
      <trkpt lat="42.0594610" lon="-2.5317820">
        <ele>1652.8</ele>
        <time>2022-08-14T09:16:47Z</time>
      </trkpt>
      <trkpt lat="42.0594970" lon="-2.5317270">
        <ele>1653.2</ele>
        <time>2022-08-14T09:16:50Z</time>
      </trkpt>
      <trkpt lat="42.0595610" lon="-2.5316160">
        <ele>1654.0</ele>
        <time>2022-08-14T09:16:56Z</time>
      </trkpt>
      <trkpt lat="42.0595960" lon="-2.5315680">
        <ele>1654.3</ele>
        <time>2022-08-14T09:16:59Z</time>
      </trkpt>
      <trkpt lat="42.0596750" lon="-2.5314330">
        <ele>1655.1</ele>
        <time>2022-08-14T09:17:06Z</time>
      </trkpt>
      <trkpt lat="42.0597130" lon="-2.5313760">
        <ele>1655.5</ele>
        <time>2022-08-14T09:17:09Z</time>
      </trkpt>
      <trkpt lat="42.0597510" lon="-2.5313180">
        <ele>1655.8</ele>
        <time>2022-08-14T09:17:12Z</time>
      </trkpt>
      <trkpt lat="42.0597550" lon="-2.5313100">
        <ele>1655.9</ele>
        <time>2022-08-14T09:17:13Z</time>
      </trkpt>
      <trkpt lat="42.0598150" lon="-2.5312080">
        <ele>1656.5</ele>
        <time>2022-08-14T09:17:18Z</time>
      </trkpt>
      <trkpt lat="42.0598270" lon="-2.5311890">
        <ele>1656.6</ele>
        <time>2022-08-14T09:17:19Z</time>
      </trkpt>
      <trkpt lat="42.0599600" lon="-2.5309440">
        <ele>1658.1</ele>
        <time>2022-08-14T09:17:31Z</time>
      </trkpt>
      <trkpt lat="42.0599710" lon="-2.5309250">
        <ele>1658.2</ele>
        <time>2022-08-14T09:17:32Z</time>
      </trkpt>
      <trkpt lat="42.0600240" lon="-2.5307930">
        <ele>1659.0</ele>
        <time>2022-08-14T09:17:38Z</time>
      </trkpt>
      <trkpt lat="42.0600320" lon="-2.5307770">
        <ele>1659.2</ele>
        <time>2022-08-14T09:17:39Z</time>
      </trkpt>
      <trkpt lat="42.0600830" lon="-2.5307180">
        <ele>1659.7</ele>
        <time>2022-08-14T09:17:43Z</time>
      </trkpt>
      <trkpt lat="42.0601370" lon="-2.5306600">
        <ele>1660.2</ele>
        <time>2022-08-14T09:17:47Z</time>
      </trkpt>
      <trkpt lat="42.0602460" lon="-2.5306510">
        <ele>1661.1</ele>
        <time>2022-08-14T09:17:53Z</time>
      </trkpt>
      <trkpt lat="42.0602680" lon="-2.5306570">
        <ele>1661.3</ele>
        <time>2022-08-14T09:17:54Z</time>
      </trkpt>
      <trkpt lat="42.0603860" lon="-2.5306830">
        <ele>1662.2</ele>
        <time>2022-08-14T09:17:59Z</time>
      </trkpt>
      <trkpt lat="42.0604290" lon="-2.5306940">
        <ele>1662.4</ele>
        <time>2022-08-14T09:18:02Z</time>
      </trkpt>
      <trkpt lat="42.0604330" lon="-2.5306950">
        <ele>1662.4</ele>
        <time>2022-08-14T09:18:03Z</time>
      </trkpt>
      <trkpt lat="42.0604110" lon="-2.5307450">
        <ele>1662.6</ele>
        <time>2022-08-14T09:21:11Z</time>
      </trkpt>
      <trkpt lat="42.0604280" lon="-2.5307200">
        <ele>1662.7</ele>
        <time>2022-08-14T09:21:14Z</time>
      </trkpt>
      <trkpt lat="42.0604370" lon="-2.5307150">
        <ele>1662.7</ele>
        <time>2022-08-14T09:23:07Z</time>
      </trkpt>
      <trkpt lat="42.0604370" lon="-2.5307150">
        <ele>1662.7</ele>
        <time>2022-08-14T09:23:08Z</time>
      </trkpt>
      <trkpt lat="42.0604370" lon="-2.5307150">
        <ele>1662.7</ele>
        <time>2022-08-14T09:23:09Z</time>
      </trkpt>
      <trkpt lat="42.0604340" lon="-2.5307180">
        <ele>1662.7</ele>
        <time>2022-08-14T09:23:10Z</time>
      </trkpt>
      <trkpt lat="42.0604290" lon="-2.5307260">
        <ele>1662.8</ele>
        <time>2022-08-14T09:23:11Z</time>
      </trkpt>
      <trkpt lat="42.0604020" lon="-2.5307510">
        <ele>1662.8</ele>
        <time>2022-08-14T09:28:06Z</time>
      </trkpt>
      <trkpt lat="42.0604020" lon="-2.5307510">
        <ele>1662.8</ele>
        <time>2022-08-14T09:28:08Z</time>
      </trkpt>
      <trkpt lat="42.0604020" lon="-2.5307510">
        <ele>1662.8</ele>
        <time>2022-08-14T09:28:09Z</time>
      </trkpt>
      <trkpt lat="42.0603860" lon="-2.5307430">
        <ele>1662.9</ele>
        <time>2022-08-14T09:28:23Z</time>
      </trkpt>
      <trkpt lat="42.0603720" lon="-2.5307480">
        <ele>1662.9</ele>
        <time>2022-08-14T09:28:24Z</time>
      </trkpt>
      <trkpt lat="42.0603120" lon="-2.5307400">
        <ele>1663.0</ele>
        <time>2022-08-14T09:28:28Z</time>
      </trkpt>
      <trkpt lat="42.0602770" lon="-2.5307250">
        <ele>1663.1</ele>
        <time>2022-08-14T09:28:30Z</time>
      </trkpt>
      <trkpt lat="42.0602600" lon="-2.5307120">
        <ele>1663.1</ele>
        <time>2022-08-14T09:28:31Z</time>
      </trkpt>
      <trkpt lat="42.0602290" lon="-2.5306840">
        <ele>1663.1</ele>
        <time>2022-08-14T09:28:33Z</time>
      </trkpt>
      <trkpt lat="42.0602140" lon="-2.5306770">
        <ele>1663.1</ele>
        <time>2022-08-14T09:28:34Z</time>
      </trkpt>
      <trkpt lat="42.0600950" lon="-2.5306810">
        <ele>1663.3</ele>
        <time>2022-08-14T09:28:39Z</time>
      </trkpt>
      <trkpt lat="42.0599720" lon="-2.5306840">
        <ele>1663.6</ele>
        <time>2022-08-14T09:28:43Z</time>
      </trkpt>
      <trkpt lat="42.0599190" lon="-2.5306870">
        <ele>1663.7</ele>
        <time>2022-08-14T09:28:45Z</time>
      </trkpt>
      <trkpt lat="42.0598580" lon="-2.5306990">
        <ele>1663.9</ele>
        <time>2022-08-14T09:28:48Z</time>
      </trkpt>
      <trkpt lat="42.0598250" lon="-2.5307170">
        <ele>1664.0</ele>
        <time>2022-08-14T09:28:50Z</time>
      </trkpt>
      <trkpt lat="42.0597940" lon="-2.5307400">
        <ele>1664.1</ele>
        <time>2022-08-14T09:28:52Z</time>
      </trkpt>
      <trkpt lat="42.0597670" lon="-2.5307700">
        <ele>1664.2</ele>
        <time>2022-08-14T09:28:54Z</time>
      </trkpt>
      <trkpt lat="42.0597220" lon="-2.5308180">
        <ele>1664.4</ele>
        <time>2022-08-14T09:28:57Z</time>
      </trkpt>
      <trkpt lat="42.0596550" lon="-2.5308960">
        <ele>1664.7</ele>
        <time>2022-08-14T09:29:02Z</time>
      </trkpt>
      <trkpt lat="42.0596290" lon="-2.5309290">
        <ele>1664.9</ele>
        <time>2022-08-14T09:29:04Z</time>
      </trkpt>
      <trkpt lat="42.0595760" lon="-2.5309940">
        <ele>1665.2</ele>
        <time>2022-08-14T09:29:08Z</time>
      </trkpt>
      <trkpt lat="42.0594740" lon="-2.5311030">
        <ele>1665.8</ele>
        <time>2022-08-14T09:29:15Z</time>
      </trkpt>
      <trkpt lat="42.0594600" lon="-2.5311170">
        <ele>1665.9</ele>
        <time>2022-08-14T09:29:16Z</time>
      </trkpt>
      <trkpt lat="42.0592980" lon="-2.5312810">
        <ele>1667.0</ele>
        <time>2022-08-14T09:29:27Z</time>
      </trkpt>
      <trkpt lat="42.0592850" lon="-2.5312960">
        <ele>1667.1</ele>
        <time>2022-08-14T09:29:28Z</time>
      </trkpt>
      <trkpt lat="42.0591800" lon="-2.5314010">
        <ele>1667.9</ele>
        <time>2022-08-14T09:29:35Z</time>
      </trkpt>
      <trkpt lat="42.0591340" lon="-2.5314410">
        <ele>1668.2</ele>
        <time>2022-08-14T09:29:38Z</time>
      </trkpt>
      <trkpt lat="42.0589880" lon="-2.5315690">
        <ele>1669.2</ele>
        <time>2022-08-14T09:29:47Z</time>
      </trkpt>
      <trkpt lat="42.0589420" lon="-2.5316130">
        <ele>1669.6</ele>
        <time>2022-08-14T09:29:50Z</time>
      </trkpt>
      <trkpt lat="42.0588470" lon="-2.5317050">
        <ele>1670.2</ele>
        <time>2022-08-14T09:29:56Z</time>
      </trkpt>
      <trkpt lat="42.0587690" lon="-2.5317760">
        <ele>1670.6</ele>
        <time>2022-08-14T09:30:01Z</time>
      </trkpt>
      <trkpt lat="42.0586740" lon="-2.5318550">
        <ele>1671.1</ele>
        <time>2022-08-14T09:30:07Z</time>
      </trkpt>
      <trkpt lat="42.0585970" lon="-2.5319290">
        <ele>1671.5</ele>
        <time>2022-08-14T09:30:12Z</time>
      </trkpt>
      <trkpt lat="42.0584660" lon="-2.5320480">
        <ele>1672.2</ele>
        <time>2022-08-14T09:30:20Z</time>
      </trkpt>
      <trkpt lat="42.0584300" lon="-2.5320820">
        <ele>1672.4</ele>
        <time>2022-08-14T09:30:22Z</time>
      </trkpt>
      <trkpt lat="42.0584120" lon="-2.5320970">
        <ele>1672.4</ele>
        <time>2022-08-14T09:30:23Z</time>
      </trkpt>
      <trkpt lat="42.0582740" lon="-2.5322310">
        <ele>1673.2</ele>
        <time>2022-08-14T09:30:31Z</time>
      </trkpt>
      <trkpt lat="42.0582560" lon="-2.5322480">
        <ele>1673.3</ele>
        <time>2022-08-14T09:30:32Z</time>
      </trkpt>
      <trkpt lat="42.0580900" lon="-2.5323980">
        <ele>1674.1</ele>
        <time>2022-08-14T09:30:41Z</time>
      </trkpt>
      <trkpt lat="42.0580720" lon="-2.5324160">
        <ele>1674.2</ele>
        <time>2022-08-14T09:30:42Z</time>
      </trkpt>
      <trkpt lat="42.0579470" lon="-2.5325490">
        <ele>1674.9</ele>
        <time>2022-08-14T09:30:49Z</time>
      </trkpt>
      <trkpt lat="42.0578750" lon="-2.5326200">
        <ele>1675.3</ele>
        <time>2022-08-14T09:30:53Z</time>
      </trkpt>
      <trkpt lat="42.0577460" lon="-2.5327460">
        <ele>1676.0</ele>
        <time>2022-08-14T09:31:00Z</time>
      </trkpt>
      <trkpt lat="42.0576750" lon="-2.5328280">
        <ele>1676.4</ele>
        <time>2022-08-14T09:31:04Z</time>
      </trkpt>
      <trkpt lat="42.0574860" lon="-2.5330130">
        <ele>1677.5</ele>
        <time>2022-08-14T09:31:14Z</time>
      </trkpt>
      <trkpt lat="42.0574660" lon="-2.5330330">
        <ele>1677.6</ele>
        <time>2022-08-14T09:31:15Z</time>
      </trkpt>
      <trkpt lat="42.0573500" lon="-2.5331600">
        <ele>1678.3</ele>
        <time>2022-08-14T09:31:21Z</time>
      </trkpt>
      <trkpt lat="42.0572330" lon="-2.5332840">
        <ele>1679.0</ele>
        <time>2022-08-14T09:31:27Z</time>
      </trkpt>
      <trkpt lat="42.0571180" lon="-2.5334140">
        <ele>1679.8</ele>
        <time>2022-08-14T09:31:33Z</time>
      </trkpt>
      <trkpt lat="42.0570980" lon="-2.5334350">
        <ele>1680.0</ele>
        <time>2022-08-14T09:31:34Z</time>
      </trkpt>
      <trkpt lat="42.0570430" lon="-2.5335000">
        <ele>1680.3</ele>
        <time>2022-08-14T09:31:37Z</time>
      </trkpt>
      <trkpt lat="42.0569400" lon="-2.5335950">
        <ele>1681.0</ele>
        <time>2022-08-14T09:31:42Z</time>
      </trkpt>
      <trkpt lat="42.0569200" lon="-2.5336160">
        <ele>1681.1</ele>
        <time>2022-08-14T09:31:43Z</time>
      </trkpt>
      <trkpt lat="42.0568280" lon="-2.5337230">
        <ele>1681.8</ele>
        <time>2022-08-14T09:31:48Z</time>
      </trkpt>
      <trkpt lat="42.0567300" lon="-2.5338230">
        <ele>1682.5</ele>
        <time>2022-08-14T09:31:53Z</time>
      </trkpt>
      <trkpt lat="42.0564830" lon="-2.5340930">
        <ele>1684.1</ele>
        <time>2022-08-14T09:32:06Z</time>
      </trkpt>
      <trkpt lat="42.0563400" lon="-2.5342840">
        <ele>1685.2</ele>
        <time>2022-08-14T09:32:15Z</time>
      </trkpt>
      <trkpt lat="42.0563150" lon="-2.5343130">
        <ele>1685.4</ele>
        <time>2022-08-14T09:32:16Z</time>
      </trkpt>
      <trkpt lat="42.0562220" lon="-2.5344590">
        <ele>1686.3</ele>
        <time>2022-08-14T09:32:22Z</time>
      </trkpt>
      <trkpt lat="42.0561310" lon="-2.5346170">
        <ele>1687.2</ele>
        <time>2022-08-14T09:32:28Z</time>
      </trkpt>
      <trkpt lat="42.0560810" lon="-2.5346930">
        <ele>1687.6</ele>
        <time>2022-08-14T09:32:31Z</time>
      </trkpt>
      <trkpt lat="42.0560060" lon="-2.5348720">
        <ele>1688.5</ele>
        <time>2022-08-14T09:32:37Z</time>
      </trkpt>
      <trkpt lat="42.0559790" lon="-2.5349290">
        <ele>1688.8</ele>
        <time>2022-08-14T09:32:39Z</time>
      </trkpt>
      <trkpt lat="42.0558910" lon="-2.5351700">
        <ele>1690.0</ele>
        <time>2022-08-14T09:32:47Z</time>
      </trkpt>
      <trkpt lat="42.0557980" lon="-2.5354470">
        <ele>1691.3</ele>
        <time>2022-08-14T09:32:56Z</time>
      </trkpt>
      <trkpt lat="42.0557860" lon="-2.5355080">
        <ele>1691.6</ele>
        <time>2022-08-14T09:32:58Z</time>
      </trkpt>
      <trkpt lat="42.0557570" lon="-2.5356930">
        <ele>1692.5</ele>
        <time>2022-08-14T09:33:04Z</time>
      </trkpt>
      <trkpt lat="42.0557500" lon="-2.5357530">
        <ele>1692.7</ele>
        <time>2022-08-14T09:33:06Z</time>
      </trkpt>
      <trkpt lat="42.0557290" lon="-2.5359090">
        <ele>1693.5</ele>
        <time>2022-08-14T09:33:11Z</time>
      </trkpt>
      <trkpt lat="42.0557190" lon="-2.5359860">
        <ele>1693.8</ele>
        <time>2022-08-14T09:33:14Z</time>
      </trkpt>
      <trkpt lat="42.0557130" lon="-2.5361080">
        <ele>1694.4</ele>
        <time>2022-08-14T09:33:17Z</time>
      </trkpt>
      <trkpt lat="42.0557130" lon="-2.5361690">
        <ele>1694.7</ele>
        <time>2022-08-14T09:33:19Z</time>
      </trkpt>
      <trkpt lat="42.0557090" lon="-2.5362810">
        <ele>1695.2</ele>
        <time>2022-08-14T09:33:22Z</time>
      </trkpt>
      <trkpt lat="42.0557040" lon="-2.5363780">
        <ele>1695.6</ele>
        <time>2022-08-14T09:33:25Z</time>
      </trkpt>
      <trkpt lat="42.0557030" lon="-2.5366090">
        <ele>1696.6</ele>
        <time>2022-08-14T09:33:32Z</time>
      </trkpt>
      <trkpt lat="42.0556810" lon="-2.5369090">
        <ele>1697.7</ele>
        <time>2022-08-14T09:33:41Z</time>
      </trkpt>
      <trkpt lat="42.0556770" lon="-2.5369720">
        <ele>1697.9</ele>
        <time>2022-08-14T09:33:43Z</time>
      </trkpt>
      <trkpt lat="42.0556570" lon="-2.5372390">
        <ele>1698.3</ele>
        <time>2022-08-14T09:33:51Z</time>
      </trkpt>
      <trkpt lat="42.0556420" lon="-2.5373600">
        <ele>1698.4</ele>
        <time>2022-08-14T09:33:55Z</time>
      </trkpt>
      <trkpt lat="42.0556330" lon="-2.5374280">
        <ele>1698.4</ele>
        <time>2022-08-14T09:33:57Z</time>
      </trkpt>
      <trkpt lat="42.0556040" lon="-2.5375520">
        <ele>1698.5</ele>
        <time>2022-08-14T09:34:03Z</time>
      </trkpt>
      <trkpt lat="42.0556050" lon="-2.5375580">
        <ele>1698.5</ele>
        <time>2022-08-14T09:34:04Z</time>
      </trkpt>
      <trkpt lat="42.0556190" lon="-2.5375640">
        <ele>1698.5</ele>
        <time>2022-08-14T09:34:06Z</time>
      </trkpt>
      <trkpt lat="42.0556280" lon="-2.5375640">
        <ele>1698.5</ele>
        <time>2022-08-14T09:34:09Z</time>
      </trkpt>
      <trkpt lat="42.0556420" lon="-2.5375880">
        <ele>1698.5</ele>
        <time>2022-08-14T09:35:52Z</time>
      </trkpt>
      <trkpt lat="42.0556340" lon="-2.5375930">
        <ele>1698.5</ele>
        <time>2022-08-14T09:35:53Z</time>
      </trkpt>
      <trkpt lat="42.0556260" lon="-2.5375980">
        <ele>1698.5</ele>
        <time>2022-08-14T09:35:54Z</time>
      </trkpt>
      <trkpt lat="42.0556200" lon="-2.5376010">
        <ele>1698.5</ele>
        <time>2022-08-14T09:35:55Z</time>
      </trkpt>
      <trkpt lat="42.0556160" lon="-2.5376050">
        <ele>1698.5</ele>
        <time>2022-08-14T09:35:56Z</time>
      </trkpt>
      <trkpt lat="42.0555920" lon="-2.5376010">
        <ele>1698.5</ele>
        <time>2022-08-14T09:36:04Z</time>
      </trkpt>
      <trkpt lat="42.0555650" lon="-2.5375980">
        <ele>1698.5</ele>
        <time>2022-08-14T09:36:05Z</time>
      </trkpt>
      <trkpt lat="42.0555360" lon="-2.5375940">
        <ele>1698.5</ele>
        <time>2022-08-14T09:36:06Z</time>
      </trkpt>
      <trkpt lat="42.0554830" lon="-2.5375650">
        <ele>1704.4</ele>
        <time>2022-08-14T09:36:08Z</time>
      </trkpt>
      <trkpt lat="42.0554490" lon="-2.5375080">
        <ele>1706.4</ele>
        <time>2022-08-14T09:36:10Z</time>
      </trkpt>
      <trkpt lat="42.0554080" lon="-2.5374090">
        <ele>1706.7</ele>
        <time>2022-08-14T09:36:13Z</time>
      </trkpt>
      <trkpt lat="42.0553880" lon="-2.5373480">
        <ele>1706.7</ele>
        <time>2022-08-14T09:36:15Z</time>
      </trkpt>
      <trkpt lat="42.0553760" lon="-2.5373160">
        <ele>1706.7</ele>
        <time>2022-08-14T09:36:16Z</time>
      </trkpt>
      <trkpt lat="42.0553550" lon="-2.5372450">
        <ele>1706.8</ele>
        <time>2022-08-14T09:36:18Z</time>
      </trkpt>
      <trkpt lat="42.0553200" lon="-2.5371300">
        <ele>1706.8</ele>
        <time>2022-08-14T09:36:21Z</time>
      </trkpt>
      <trkpt lat="42.0552500" lon="-2.5368830">
        <ele>1707.1</ele>
        <time>2022-08-14T09:36:28Z</time>
      </trkpt>
      <trkpt lat="42.0552050" lon="-2.5367140">
        <ele>1707.4</ele>
        <time>2022-08-14T09:36:33Z</time>
      </trkpt>
      <trkpt lat="42.0551540" lon="-2.5365380">
        <ele>1707.8</ele>
        <time>2022-08-14T09:36:38Z</time>
      </trkpt>
      <trkpt lat="42.0550890" lon="-2.5362440">
        <ele>1708.6</ele>
        <time>2022-08-14T09:36:47Z</time>
      </trkpt>
      <trkpt lat="42.0550810" lon="-2.5362110">
        <ele>1708.8</ele>
        <time>2022-08-14T09:36:48Z</time>
      </trkpt>
      <trkpt lat="42.0550560" lon="-2.5360820">
        <ele>1709.3</ele>
        <time>2022-08-14T09:36:52Z</time>
      </trkpt>
      <trkpt lat="42.0550190" lon="-2.5358980">
        <ele>1710.1</ele>
        <time>2022-08-14T09:36:58Z</time>
      </trkpt>
      <trkpt lat="42.0550110" lon="-2.5358670">
        <ele>1710.2</ele>
        <time>2022-08-14T09:36:59Z</time>
      </trkpt>
      <trkpt lat="42.0549690" lon="-2.5357030">
        <ele>1710.9</ele>
        <time>2022-08-14T09:37:04Z</time>
      </trkpt>
      <trkpt lat="42.0549530" lon="-2.5356140">
        <ele>1711.4</ele>
        <time>2022-08-14T09:37:07Z</time>
      </trkpt>
      <trkpt lat="42.0549440" lon="-2.5355560">
        <ele>1711.7</ele>
        <time>2022-08-14T09:37:09Z</time>
      </trkpt>
      <trkpt lat="42.0549160" lon="-2.5353110">
        <ele>1713.0</ele>
        <time>2022-08-14T09:37:17Z</time>
      </trkpt>
      <trkpt lat="42.0549150" lon="-2.5352820">
        <ele>1713.1</ele>
        <time>2022-08-14T09:37:18Z</time>
      </trkpt>
      <trkpt lat="42.0549040" lon="-2.5351290">
        <ele>1713.9</ele>
        <time>2022-08-14T09:37:23Z</time>
      </trkpt>
      <trkpt lat="42.0549000" lon="-2.5350370">
        <ele>1714.3</ele>
        <time>2022-08-14T09:37:26Z</time>
      </trkpt>
      <trkpt lat="42.0549010" lon="-2.5348820">
        <ele>1715.1</ele>
        <time>2022-08-14T09:37:31Z</time>
      </trkpt>
      <trkpt lat="42.0549000" lon="-2.5347530">
        <ele>1715.6</ele>
        <time>2022-08-14T09:37:35Z</time>
      </trkpt>
      <trkpt lat="42.0549040" lon="-2.5346540">
        <ele>1716.1</ele>
        <time>2022-08-14T09:37:38Z</time>
      </trkpt>
      <trkpt lat="42.0549210" lon="-2.5344710">
        <ele>1716.8</ele>
        <time>2022-08-14T09:37:44Z</time>
      </trkpt>
      <trkpt lat="42.0549300" lon="-2.5344130">
        <ele>1717.0</ele>
        <time>2022-08-14T09:37:46Z</time>
      </trkpt>
      <trkpt lat="42.0549760" lon="-2.5342050">
        <ele>1717.4</ele>
        <time>2022-08-14T09:37:53Z</time>
      </trkpt>
      <trkpt lat="42.0550530" lon="-2.5338910">
        <ele>1718.0</ele>
        <time>2022-08-14T09:38:03Z</time>
      </trkpt>
      <trkpt lat="42.0550700" lon="-2.5338260">
        <ele>1718.1</ele>
        <time>2022-08-14T09:38:05Z</time>
      </trkpt>
      <trkpt lat="42.0551420" lon="-2.5336190">
        <ele>1718.4</ele>
        <time>2022-08-14T09:38:12Z</time>
      </trkpt>
      <trkpt lat="42.0551890" lon="-2.5334730">
        <ele>1718.8</ele>
        <time>2022-08-14T09:38:17Z</time>
      </trkpt>
      <trkpt lat="42.0552300" lon="-2.5333440">
        <ele>1719.2</ele>
        <time>2022-08-14T09:38:21Z</time>
      </trkpt>
      <trkpt lat="42.0552820" lon="-2.5331640">
        <ele>1719.8</ele>
        <time>2022-08-14T09:38:27Z</time>
      </trkpt>
      <trkpt lat="42.0553520" lon="-2.5329600">
        <ele>1720.8</ele>
        <time>2022-08-14T09:38:34Z</time>
      </trkpt>
      <trkpt lat="42.0554620" lon="-2.5326740">
        <ele>1722.2</ele>
        <time>2022-08-14T09:38:44Z</time>
      </trkpt>
      <trkpt lat="42.0554870" lon="-2.5326170">
        <ele>1722.4</ele>
        <time>2022-08-14T09:38:46Z</time>
      </trkpt>
      <trkpt lat="42.0555560" lon="-2.5324270">
        <ele>1723.6</ele>
        <time>2022-08-14T09:38:53Z</time>
      </trkpt>
      <trkpt lat="42.0555650" lon="-2.5323980">
        <ele>1723.8</ele>
        <time>2022-08-14T09:38:54Z</time>
      </trkpt>
      <trkpt lat="42.0556300" lon="-2.5322210">
        <ele>1725.1</ele>
        <time>2022-08-14T09:39:01Z</time>
      </trkpt>
      <trkpt lat="42.0556370" lon="-2.5321960">
        <ele>1725.3</ele>
        <time>2022-08-14T09:39:02Z</time>
      </trkpt>
      <trkpt lat="42.0556600" lon="-2.5321260">
        <ele>1725.9</ele>
        <time>2022-08-14T09:39:05Z</time>
      </trkpt>
      <trkpt lat="42.0556800" lon="-2.5320540">
        <ele>1726.4</ele>
        <time>2022-08-14T09:39:08Z</time>
      </trkpt>
      <trkpt lat="42.0557280" lon="-2.5319200">
        <ele>1727.5</ele>
        <time>2022-08-14T09:39:14Z</time>
      </trkpt>
      <trkpt lat="42.0557370" lon="-2.5318970">
        <ele>1727.8</ele>
        <time>2022-08-14T09:39:15Z</time>
      </trkpt>
      <trkpt lat="42.0557860" lon="-2.5317720">
        <ele>1728.9</ele>
        <time>2022-08-14T09:39:20Z</time>
      </trkpt>
      <trkpt lat="42.0558110" lon="-2.5317160">
        <ele>1729.4</ele>
        <time>2022-08-14T09:39:23Z</time>
      </trkpt>
      <trkpt lat="42.0558310" lon="-2.5316710">
        <ele>1729.8</ele>
        <time>2022-08-14T09:39:25Z</time>
      </trkpt>
      <trkpt lat="42.0558660" lon="-2.5315590">
        <ele>1730.8</ele>
        <time>2022-08-14T09:39:30Z</time>
      </trkpt>
      <trkpt lat="42.0558760" lon="-2.5315370">
        <ele>1731.0</ele>
        <time>2022-08-14T09:39:31Z</time>
      </trkpt>
      <trkpt lat="42.0559170" lon="-2.5314030">
        <ele>1732.1</ele>
        <time>2022-08-14T09:39:37Z</time>
      </trkpt>
      <trkpt lat="42.0559340" lon="-2.5313590">
        <ele>1732.5</ele>
        <time>2022-08-14T09:39:39Z</time>
      </trkpt>
      <trkpt lat="42.0559560" lon="-2.5313170">
        <ele>1732.9</ele>
        <time>2022-08-14T09:39:41Z</time>
      </trkpt>
      <trkpt lat="42.0560120" lon="-2.5311660">
        <ele>1734.0</ele>
        <time>2022-08-14T09:39:49Z</time>
      </trkpt>
      <trkpt lat="42.0560340" lon="-2.5310980">
        <ele>1734.4</ele>
        <time>2022-08-14T09:39:52Z</time>
      </trkpt>
      <trkpt lat="42.0560680" lon="-2.5310080">
        <ele>1735.0</ele>
        <time>2022-08-14T09:39:56Z</time>
      </trkpt>
      <trkpt lat="42.0560970" lon="-2.5309120">
        <ele>1735.6</ele>
        <time>2022-08-14T09:40:00Z</time>
      </trkpt>
      <trkpt lat="42.0561010" lon="-2.5308880">
        <ele>1735.7</ele>
        <time>2022-08-14T09:40:01Z</time>
      </trkpt>
      <trkpt lat="42.0561170" lon="-2.5307730">
        <ele>1736.4</ele>
        <time>2022-08-14T09:40:06Z</time>
      </trkpt>
      <trkpt lat="42.0561190" lon="-2.5306830">
        <ele>1737.0</ele>
        <time>2022-08-14T09:40:10Z</time>
      </trkpt>
      <trkpt lat="42.0561220" lon="-2.5306550">
        <ele>1737.1</ele>
        <time>2022-08-14T09:40:11Z</time>
      </trkpt>
      <trkpt lat="42.0561240" lon="-2.5304920">
        <ele>1737.9</ele>
        <time>2022-08-14T09:40:17Z</time>
      </trkpt>
      <trkpt lat="42.0561200" lon="-2.5303500">
        <ele>1738.4</ele>
        <time>2022-08-14T09:40:22Z</time>
      </trkpt>
      <trkpt lat="42.0561300" lon="-2.5302380">
        <ele>1738.6</ele>
        <time>2022-08-14T09:40:26Z</time>
      </trkpt>
      <trkpt lat="42.0561650" lon="-2.5301190">
        <ele>1738.6</ele>
        <time>2022-08-14T09:40:30Z</time>
      </trkpt>
      <trkpt lat="42.0562980" lon="-2.5298930">
        <ele>1738.2</ele>
        <time>2022-08-14T09:40:37Z</time>
      </trkpt>
      <trkpt lat="42.0563470" lon="-2.5298250">
        <ele>1737.9</ele>
        <time>2022-08-14T09:40:39Z</time>
      </trkpt>
      <trkpt lat="42.0564670" lon="-2.5296660">
        <ele>1737.0</ele>
        <time>2022-08-14T09:40:43Z</time>
      </trkpt>
      <trkpt lat="42.0565020" lon="-2.5296190">
        <ele>1736.8</ele>
        <time>2022-08-14T09:40:44Z</time>
      </trkpt>
      <trkpt lat="42.0566490" lon="-2.5294160">
        <ele>1735.2</ele>
        <time>2022-08-14T09:40:48Z</time>
      </trkpt>
      <trkpt lat="42.0566790" lon="-2.5293720">
        <ele>1734.8</ele>
        <time>2022-08-14T09:40:49Z</time>
      </trkpt>
      <trkpt lat="42.0567590" lon="-2.5292460">
        <ele>1734.0</ele>
        <time>2022-08-14T09:40:51Z</time>
      </trkpt>
      <trkpt lat="42.0567930" lon="-2.5291860">
        <ele>1733.7</ele>
        <time>2022-08-14T09:40:52Z</time>
      </trkpt>
      <trkpt lat="42.0568590" lon="-2.5290740">
        <ele>1733.2</ele>
        <time>2022-08-14T09:40:54Z</time>
      </trkpt>
      <trkpt lat="42.0570320" lon="-2.5287380">
        <ele>1732.3</ele>
        <time>2022-08-14T09:40:59Z</time>
      </trkpt>
      <trkpt lat="42.0570890" lon="-2.5285990">
        <ele>1732.1</ele>
        <time>2022-08-14T09:41:01Z</time>
      </trkpt>
      <trkpt lat="42.0572150" lon="-2.5282360">
        <ele>1732.0</ele>
        <time>2022-08-14T09:41:06Z</time>
      </trkpt>
      <trkpt lat="42.0572330" lon="-2.5281810">
        <ele>1732.0</ele>
        <time>2022-08-14T09:41:07Z</time>
      </trkpt>
      <trkpt lat="42.0572880" lon="-2.5279890">
        <ele>1732.2</ele>
        <time>2022-08-14T09:41:10Z</time>
      </trkpt>
      <trkpt lat="42.0573150" lon="-2.5278810">
        <ele>1732.3</ele>
        <time>2022-08-14T09:41:12Z</time>
      </trkpt>
      <trkpt lat="42.0573250" lon="-2.5278330">
        <ele>1732.4</ele>
        <time>2022-08-14T09:41:13Z</time>
      </trkpt>
      <trkpt lat="42.0573380" lon="-2.5277870">
        <ele>1732.5</ele>
        <time>2022-08-14T09:41:14Z</time>
      </trkpt>
      <trkpt lat="42.0573510" lon="-2.5277440">
        <ele>1732.6</ele>
        <time>2022-08-14T09:41:15Z</time>
      </trkpt>
      <trkpt lat="42.0573640" lon="-2.5277020">
        <ele>1732.7</ele>
        <time>2022-08-14T09:41:16Z</time>
      </trkpt>
      <trkpt lat="42.0573870" lon="-2.5276130">
        <ele>1733.0</ele>
        <time>2022-08-14T09:41:18Z</time>
      </trkpt>
      <trkpt lat="42.0574090" lon="-2.5274910">
        <ele>1733.2</ele>
        <time>2022-08-14T09:41:21Z</time>
      </trkpt>
      <trkpt lat="42.0574270" lon="-2.5274230">
        <ele>1733.5</ele>
        <time>2022-08-14T09:41:23Z</time>
      </trkpt>
      <trkpt lat="42.0575220" lon="-2.5271800">
        <ele>1734.4</ele>
        <time>2022-08-14T09:41:30Z</time>
      </trkpt>
      <trkpt lat="42.0576380" lon="-2.5270240">
        <ele>1735.0</ele>
        <time>2022-08-14T09:41:36Z</time>
      </trkpt>
      <trkpt lat="42.0576580" lon="-2.5270020">
        <ele>1735.1</ele>
        <time>2022-08-14T09:41:37Z</time>
      </trkpt>
      <trkpt lat="42.0577080" lon="-2.5269450">
        <ele>1735.2</ele>
        <time>2022-08-14T09:41:39Z</time>
      </trkpt>
      <trkpt lat="42.0579790" lon="-2.5266900">
        <ele>1735.4</ele>
        <time>2022-08-14T09:41:50Z</time>
      </trkpt>
      <trkpt lat="42.0582540" lon="-2.5264700">
        <ele>1734.3</ele>
        <time>2022-08-14T09:41:59Z</time>
      </trkpt>
      <trkpt lat="42.0583330" lon="-2.5264070">
        <ele>1733.8</ele>
        <time>2022-08-14T09:42:01Z</time>
      </trkpt>
      <trkpt lat="42.0584180" lon="-2.5263350">
        <ele>1733.2</ele>
        <time>2022-08-14T09:42:03Z</time>
      </trkpt>
      <trkpt lat="42.0585500" lon="-2.5262050">
        <ele>1732.2</ele>
        <time>2022-08-14T09:42:06Z</time>
      </trkpt>
      <trkpt lat="42.0587180" lon="-2.5259880">
        <ele>1730.8</ele>
        <time>2022-08-14T09:42:11Z</time>
      </trkpt>
      <trkpt lat="42.0588070" lon="-2.5258420">
        <ele>1730.1</ele>
        <time>2022-08-14T09:42:13Z</time>
      </trkpt>
      <trkpt lat="42.0588350" lon="-2.5257970">
        <ele>1729.9</ele>
        <time>2022-08-14T09:42:14Z</time>
      </trkpt>
      <trkpt lat="42.0588700" lon="-2.5257400">
        <ele>1729.6</ele>
        <time>2022-08-14T09:42:15Z</time>
      </trkpt>
      <trkpt lat="42.0589040" lon="-2.5256810">
        <ele>1729.4</ele>
        <time>2022-08-14T09:42:16Z</time>
      </trkpt>
      <trkpt lat="42.0589380" lon="-2.5256220">
        <ele>1729.2</ele>
        <time>2022-08-14T09:42:17Z</time>
      </trkpt>
      <trkpt lat="42.0589760" lon="-2.5255640">
        <ele>1729.0</ele>
        <time>2022-08-14T09:42:18Z</time>
      </trkpt>
      <trkpt lat="42.0590510" lon="-2.5254540">
        <ele>1728.6</ele>
        <time>2022-08-14T09:42:20Z</time>
      </trkpt>
      <trkpt lat="42.0591230" lon="-2.5253420">
        <ele>1728.3</ele>
        <time>2022-08-14T09:42:22Z</time>
      </trkpt>
      <trkpt lat="42.0591620" lon="-2.5252860">
        <ele>1728.1</ele>
        <time>2022-08-14T09:42:23Z</time>
      </trkpt>
      <trkpt lat="42.0592490" lon="-2.5251650">
        <ele>1727.7</ele>
        <time>2022-08-14T09:42:25Z</time>
      </trkpt>
      <trkpt lat="42.0592810" lon="-2.5251180">
        <ele>1727.5</ele>
        <time>2022-08-14T09:42:26Z</time>
      </trkpt>
      <trkpt lat="42.0594720" lon="-2.5248050">
        <ele>1726.4</ele>
        <time>2022-08-14T09:42:31Z</time>
      </trkpt>
      <trkpt lat="42.0596150" lon="-2.5245640">
        <ele>1725.5</ele>
        <time>2022-08-14T09:42:35Z</time>
      </trkpt>
      <trkpt lat="42.0597240" lon="-2.5243780">
        <ele>1724.8</ele>
        <time>2022-08-14T09:42:38Z</time>
      </trkpt>
      <trkpt lat="42.0598000" lon="-2.5242520">
        <ele>1724.2</ele>
        <time>2022-08-14T09:42:40Z</time>
      </trkpt>
      <trkpt lat="42.0598770" lon="-2.5241260">
        <ele>1723.8</ele>
        <time>2022-08-14T09:42:42Z</time>
      </trkpt>
      <trkpt lat="42.0599890" lon="-2.5239390">
        <ele>1723.1</ele>
        <time>2022-08-14T09:42:45Z</time>
      </trkpt>
      <trkpt lat="42.0602210" lon="-2.5235590">
        <ele>1721.6</ele>
        <time>2022-08-14T09:42:51Z</time>
      </trkpt>
      <trkpt lat="42.0603210" lon="-2.5234270">
        <ele>1721.0</ele>
        <time>2022-08-14T09:42:53Z</time>
      </trkpt>
      <trkpt lat="42.0605360" lon="-2.5232280">
        <ele>1720.0</ele>
        <time>2022-08-14T09:42:57Z</time>
      </trkpt>
      <trkpt lat="42.0606550" lon="-2.5231490">
        <ele>1719.7</ele>
        <time>2022-08-14T09:42:59Z</time>
      </trkpt>
      <trkpt lat="42.0607750" lon="-2.5230820">
        <ele>1719.4</ele>
        <time>2022-08-14T09:43:01Z</time>
      </trkpt>
      <trkpt lat="42.0610520" lon="-2.5229490">
        <ele>1719.1</ele>
        <time>2022-08-14T09:43:06Z</time>
      </trkpt>
      <trkpt lat="42.0611730" lon="-2.5228900">
        <ele>1719.2</ele>
        <time>2022-08-14T09:43:09Z</time>
      </trkpt>
      <trkpt lat="42.0612060" lon="-2.5228720">
        <ele>1719.3</ele>
        <time>2022-08-14T09:43:10Z</time>
      </trkpt>
      <trkpt lat="42.0612350" lon="-2.5228590">
        <ele>1719.3</ele>
        <time>2022-08-14T09:43:11Z</time>
      </trkpt>
      <trkpt lat="42.0613170" lon="-2.5228140">
        <ele>1719.5</ele>
        <time>2022-08-14T09:43:16Z</time>
      </trkpt>
      <trkpt lat="42.0613460" lon="-2.5228030">
        <ele>1719.6</ele>
        <time>2022-08-14T09:45:00Z</time>
      </trkpt>
      <trkpt lat="42.0613650" lon="-2.5227960">
        <ele>1719.6</ele>
        <time>2022-08-14T09:45:01Z</time>
      </trkpt>
      <trkpt lat="42.0613800" lon="-2.5227890">
        <ele>1719.6</ele>
        <time>2022-08-14T09:45:02Z</time>
      </trkpt>
      <trkpt lat="42.0614060" lon="-2.5227760">
        <ele>1719.7</ele>
        <time>2022-08-14T09:45:03Z</time>
      </trkpt>
      <trkpt lat="42.0614540" lon="-2.5227470">
        <ele>1719.8</ele>
        <time>2022-08-14T09:45:05Z</time>
      </trkpt>
      <trkpt lat="42.0615000" lon="-2.5227240">
        <ele>1719.9</ele>
        <time>2022-08-14T09:45:07Z</time>
      </trkpt>
      <trkpt lat="42.0615840" lon="-2.5226790">
        <ele>1720.3</ele>
        <time>2022-08-14T09:45:10Z</time>
      </trkpt>
      <trkpt lat="42.0616660" lon="-2.5226310">
        <ele>1720.7</ele>
        <time>2022-08-14T09:45:13Z</time>
      </trkpt>
      <trkpt lat="42.0617970" lon="-2.5225420">
        <ele>1721.6</ele>
        <time>2022-08-14T09:45:18Z</time>
      </trkpt>
      <trkpt lat="42.0618220" lon="-2.5225240">
        <ele>1721.8</ele>
        <time>2022-08-14T09:45:19Z</time>
      </trkpt>
      <trkpt lat="42.0618430" lon="-2.5225080">
        <ele>1722.0</ele>
        <time>2022-08-14T09:45:20Z</time>
      </trkpt>
      <trkpt lat="42.0619040" lon="-2.5224650">
        <ele>1722.5</ele>
        <time>2022-08-14T09:45:22Z</time>
      </trkpt>
      <trkpt lat="42.0619730" lon="-2.5224000">
        <ele>1723.1</ele>
        <time>2022-08-14T09:45:25Z</time>
      </trkpt>
      <trkpt lat="42.0619960" lon="-2.5223790">
        <ele>1723.3</ele>
        <time>2022-08-14T09:45:26Z</time>
      </trkpt>
      <trkpt lat="42.0620170" lon="-2.5223600">
        <ele>1723.4</ele>
        <time>2022-08-14T09:45:27Z</time>
      </trkpt>
      <trkpt lat="42.0620840" lon="-2.5222930">
        <ele>1724.0</ele>
        <time>2022-08-14T09:45:30Z</time>
      </trkpt>
      <trkpt lat="42.0621930" lon="-2.5221840">
        <ele>1724.5</ele>
        <time>2022-08-14T09:45:35Z</time>
      </trkpt>
      <trkpt lat="42.0622380" lon="-2.5221370">
        <ele>1724.7</ele>
        <time>2022-08-14T09:45:37Z</time>
      </trkpt>
      <trkpt lat="42.0623570" lon="-2.5220340">
        <ele>1725.1</ele>
        <time>2022-08-14T09:45:42Z</time>
      </trkpt>
      <trkpt lat="42.0624930" lon="-2.5219320">
        <ele>1725.4</ele>
        <time>2022-08-14T09:45:47Z</time>
      </trkpt>
      <trkpt lat="42.0625200" lon="-2.5219120">
        <ele>1725.4</ele>
        <time>2022-08-14T09:45:48Z</time>
      </trkpt>
      <trkpt lat="42.0627500" lon="-2.5217780">
        <ele>1725.7</ele>
        <time>2022-08-14T09:45:56Z</time>
      </trkpt>
      <trkpt lat="42.0630690" lon="-2.5215790">
        <ele>1725.7</ele>
        <time>2022-08-14T09:46:06Z</time>
      </trkpt>
      <trkpt lat="42.0633800" lon="-2.5213960">
        <ele>1725.7</ele>
        <time>2022-08-14T09:46:15Z</time>
      </trkpt>
      <trkpt lat="42.0634090" lon="-2.5213770">
        <ele>1725.7</ele>
        <time>2022-08-14T09:46:16Z</time>
      </trkpt>
      <trkpt lat="42.0635600" lon="-2.5212740">
        <ele>1725.5</ele>
        <time>2022-08-14T09:46:20Z</time>
      </trkpt>
      <trkpt lat="42.0636690" lon="-2.5212020">
        <ele>1725.3</ele>
        <time>2022-08-14T09:46:23Z</time>
      </trkpt>
      <trkpt lat="42.0637330" lon="-2.5211490">
        <ele>1725.3</ele>
        <time>2022-08-14T09:46:25Z</time>
      </trkpt>
      <trkpt lat="42.0639060" lon="-2.5210080">
        <ele>1725.5</ele>
        <time>2022-08-14T09:46:30Z</time>
      </trkpt>
      <trkpt lat="42.0640760" lon="-2.5208380">
        <ele>1725.6</ele>
        <time>2022-08-14T09:46:35Z</time>
      </trkpt>
      <trkpt lat="42.0643850" lon="-2.5204360">
        <ele>1726.1</ele>
        <time>2022-08-14T09:46:46Z</time>
      </trkpt>
      <trkpt lat="42.0646290" lon="-2.5200990">
        <ele>1726.9</ele>
        <time>2022-08-14T09:46:56Z</time>
      </trkpt>
      <trkpt lat="42.0646600" lon="-2.5200580">
        <ele>1726.9</ele>
        <time>2022-08-14T09:46:57Z</time>
      </trkpt>
      <trkpt lat="42.0647830" lon="-2.5198930">
        <ele>1727.3</ele>
        <time>2022-08-14T09:47:02Z</time>
      </trkpt>
      <trkpt lat="42.0648590" lon="-2.5197900">
        <ele>1727.6</ele>
        <time>2022-08-14T09:47:05Z</time>
      </trkpt>
      <trkpt lat="42.0650160" lon="-2.5195820">
        <ele>1728.0</ele>
        <time>2022-08-14T09:47:11Z</time>
      </trkpt>
      <trkpt lat="42.0651160" lon="-2.5194460">
        <ele>1728.2</ele>
        <time>2022-08-14T09:47:15Z</time>
      </trkpt>
      <trkpt lat="42.0652980" lon="-2.5192100">
        <ele>1728.6</ele>
        <time>2022-08-14T09:47:23Z</time>
      </trkpt>
      <trkpt lat="42.0653310" lon="-2.5191690">
        <ele>1728.7</ele>
        <time>2022-08-14T09:47:24Z</time>
      </trkpt>
      <trkpt lat="42.0656230" lon="-2.5187890">
        <ele>1730.1</ele>
        <time>2022-08-14T09:47:37Z</time>
      </trkpt>
      <trkpt lat="42.0658040" lon="-2.5185360">
        <ele>1731.3</ele>
        <time>2022-08-14T09:47:46Z</time>
      </trkpt>
      <trkpt lat="42.0659410" lon="-2.5183050">
        <ele>1732.3</ele>
        <time>2022-08-14T09:47:54Z</time>
      </trkpt>
      <trkpt lat="42.0660360" lon="-2.5180430">
        <ele>1733.2</ele>
        <time>2022-08-14T09:48:02Z</time>
      </trkpt>
      <trkpt lat="42.0660560" lon="-2.5179790">
        <ele>1733.5</ele>
        <time>2022-08-14T09:48:04Z</time>
      </trkpt>
      <trkpt lat="42.0660730" lon="-2.5179130">
        <ele>1733.8</ele>
        <time>2022-08-14T09:48:06Z</time>
      </trkpt>
      <trkpt lat="42.0661220" lon="-2.5176850">
        <ele>1734.8</ele>
        <time>2022-08-14T09:48:13Z</time>
      </trkpt>
      <trkpt lat="42.0661580" lon="-2.5175250">
        <ele>1735.3</ele>
        <time>2022-08-14T09:48:18Z</time>
      </trkpt>
      <trkpt lat="42.0662010" lon="-2.5173190">
        <ele>1735.8</ele>
        <time>2022-08-14T09:48:24Z</time>
      </trkpt>
      <trkpt lat="42.0662140" lon="-2.5172550">
        <ele>1736.0</ele>
        <time>2022-08-14T09:48:26Z</time>
      </trkpt>
      <trkpt lat="42.0662720" lon="-2.5169910">
        <ele>1736.8</ele>
        <time>2022-08-14T09:48:34Z</time>
      </trkpt>
      <trkpt lat="42.0662970" lon="-2.5168940">
        <ele>1737.2</ele>
        <time>2022-08-14T09:48:37Z</time>
      </trkpt>
      <trkpt lat="42.0663500" lon="-2.5167060">
        <ele>1737.9</ele>
        <time>2022-08-14T09:48:43Z</time>
      </trkpt>
      <trkpt lat="42.0664340" lon="-2.5165160">
        <ele>1738.3</ele>
        <time>2022-08-14T09:48:49Z</time>
      </trkpt>
      <trkpt lat="42.0664910" lon="-2.5164230">
        <ele>1738.3</ele>
        <time>2022-08-14T09:48:52Z</time>
      </trkpt>
      <trkpt lat="42.0666290" lon="-2.5162230">
        <ele>1738.6</ele>
        <time>2022-08-14T09:48:59Z</time>
      </trkpt>
      <trkpt lat="42.0667130" lon="-2.5161010">
        <ele>1738.7</ele>
        <time>2022-08-14T09:49:03Z</time>
      </trkpt>
      <trkpt lat="42.0668940" lon="-2.5158110">
        <ele>1738.6</ele>
        <time>2022-08-14T09:49:12Z</time>
      </trkpt>
      <trkpt lat="42.0669520" lon="-2.5155660">
        <ele>1738.8</ele>
        <time>2022-08-14T09:49:18Z</time>
      </trkpt>
      <trkpt lat="42.0669800" lon="-2.5152740">
        <ele>1738.6</ele>
        <time>2022-08-14T09:49:24Z</time>
      </trkpt>
      <trkpt lat="42.0669820" lon="-2.5151210">
        <ele>1738.5</ele>
        <time>2022-08-14T09:49:27Z</time>
      </trkpt>
      <trkpt lat="42.0669700" lon="-2.5147980">
        <ele>1738.3</ele>
        <time>2022-08-14T09:49:34Z</time>
      </trkpt>
      <trkpt lat="42.0669650" lon="-2.5147400">
        <ele>1738.3</ele>
        <time>2022-08-14T09:49:35Z</time>
      </trkpt>
      <trkpt lat="42.0669630" lon="-2.5144860">
        <ele>1738.4</ele>
        <time>2022-08-14T09:49:40Z</time>
      </trkpt>
      <trkpt lat="42.0669540" lon="-2.5143900">
        <ele>1738.5</ele>
        <time>2022-08-14T09:49:42Z</time>
      </trkpt>
      <trkpt lat="42.0669550" lon="-2.5143530">
        <ele>1738.5</ele>
        <time>2022-08-14T09:49:43Z</time>
      </trkpt>
      <trkpt lat="42.0669410" lon="-2.5140200">
        <ele>1738.8</ele>
        <time>2022-08-14T09:49:50Z</time>
      </trkpt>
      <trkpt lat="42.0669450" lon="-2.5135750">
        <ele>1738.9</ele>
        <time>2022-08-14T09:49:59Z</time>
      </trkpt>
      <trkpt lat="42.0669430" lon="-2.5130660">
        <ele>1739.0</ele>
        <time>2022-08-14T09:50:09Z</time>
      </trkpt>
      <trkpt lat="42.0669310" lon="-2.5126650">
        <ele>1739.3</ele>
        <time>2022-08-14T09:50:17Z</time>
      </trkpt>
      <trkpt lat="42.0669260" lon="-2.5124700">
        <ele>1739.3</ele>
        <time>2022-08-14T09:50:21Z</time>
      </trkpt>
      <trkpt lat="42.0669250" lon="-2.5119320">
        <ele>1739.5</ele>
        <time>2022-08-14T09:50:32Z</time>
      </trkpt>
      <trkpt lat="42.0669280" lon="-2.5117490">
        <ele>1739.7</ele>
        <time>2022-08-14T09:50:36Z</time>
      </trkpt>
      <trkpt lat="42.0669160" lon="-2.5115730">
        <ele>1740.0</ele>
        <time>2022-08-14T09:50:40Z</time>
      </trkpt>
      <trkpt lat="42.0669090" lon="-2.5114330">
        <ele>1740.3</ele>
        <time>2022-08-14T09:50:43Z</time>
      </trkpt>
      <trkpt lat="42.0669060" lon="-2.5112240">
        <ele>1740.7</ele>
        <time>2022-08-14T09:50:48Z</time>
      </trkpt>
      <trkpt lat="42.0669120" lon="-2.5111810">
        <ele>1740.8</ele>
        <time>2022-08-14T09:50:49Z</time>
      </trkpt>
      <trkpt lat="42.0670100" lon="-2.5110070">
        <ele>1740.9</ele>
        <time>2022-08-14T09:50:54Z</time>
      </trkpt>
      <trkpt lat="42.0671240" lon="-2.5109800">
        <ele>1740.5</ele>
        <time>2022-08-14T09:50:58Z</time>
      </trkpt>
      <trkpt lat="42.0672400" lon="-2.5110240">
        <ele>1740.0</ele>
        <time>2022-08-14T09:51:01Z</time>
      </trkpt>
      <trkpt lat="42.0673140" lon="-2.5110910">
        <ele>1739.5</ele>
        <time>2022-08-14T09:51:03Z</time>
      </trkpt>
      <trkpt lat="42.0673930" lon="-2.5112090">
        <ele>1738.9</ele>
        <time>2022-08-14T09:51:06Z</time>
      </trkpt>
      <trkpt lat="42.0674340" lon="-2.5112870">
        <ele>1738.5</ele>
        <time>2022-08-14T09:51:08Z</time>
      </trkpt>
      <trkpt lat="42.0675410" lon="-2.5115550">
        <ele>1737.3</ele>
        <time>2022-08-14T09:51:14Z</time>
      </trkpt>
      <trkpt lat="42.0675920" lon="-2.5116390">
        <ele>1736.9</ele>
        <time>2022-08-14T09:51:15Z</time>
      </trkpt>
      <trkpt lat="42.0677560" lon="-2.5118490">
        <ele>1735.7</ele>
        <time>2022-08-14T09:51:19Z</time>
      </trkpt>
      <trkpt lat="42.0678500" lon="-2.5119550">
        <ele>1735.1</ele>
        <time>2022-08-14T09:51:21Z</time>
      </trkpt>
      <trkpt lat="42.0678980" lon="-2.5120100">
        <ele>1734.7</ele>
        <time>2022-08-14T09:51:22Z</time>
      </trkpt>
      <trkpt lat="42.0680890" lon="-2.5122340">
        <ele>1733.6</ele>
        <time>2022-08-14T09:51:26Z</time>
      </trkpt>
      <trkpt lat="42.0682030" lon="-2.5123610">
        <ele>1732.9</ele>
        <time>2022-08-14T09:51:28Z</time>
      </trkpt>
      <trkpt lat="42.0684190" lon="-2.5125640">
        <ele>1731.5</ele>
        <time>2022-08-14T09:51:32Z</time>
      </trkpt>
      <trkpt lat="42.0684760" lon="-2.5126060">
        <ele>1731.1</ele>
        <time>2022-08-14T09:51:33Z</time>
      </trkpt>
      <trkpt lat="42.0685350" lon="-2.5126450">
        <ele>1730.8</ele>
        <time>2022-08-14T09:51:34Z</time>
      </trkpt>
      <trkpt lat="42.0688630" lon="-2.5127750">
        <ele>1728.8</ele>
        <time>2022-08-14T09:51:39Z</time>
      </trkpt>
      <trkpt lat="42.0691290" lon="-2.5128210">
        <ele>1727.2</ele>
        <time>2022-08-14T09:51:43Z</time>
      </trkpt>
      <trkpt lat="42.0692150" lon="-2.5128320">
        <ele>1726.7</ele>
        <time>2022-08-14T09:51:44Z</time>
      </trkpt>
      <trkpt lat="42.0693560" lon="-2.5128470">
        <ele>1725.9</ele>
        <time>2022-08-14T09:51:46Z</time>
      </trkpt>
      <trkpt lat="42.0695670" lon="-2.5128670">
        <ele>1724.8</ele>
        <time>2022-08-14T09:51:49Z</time>
      </trkpt>
      <trkpt lat="42.0697820" lon="-2.5128980">
        <ele>1723.6</ele>
        <time>2022-08-14T09:51:52Z</time>
      </trkpt>
      <trkpt lat="42.0700100" lon="-2.5129330">
        <ele>1722.3</ele>
        <time>2022-08-14T09:51:55Z</time>
      </trkpt>
      <trkpt lat="42.0701630" lon="-2.5129590">
        <ele>1721.3</ele>
        <time>2022-08-14T09:51:57Z</time>
      </trkpt>
      <trkpt lat="42.0703200" lon="-2.5129850">
        <ele>1720.3</ele>
        <time>2022-08-14T09:51:59Z</time>
      </trkpt>
      <trkpt lat="42.0706180" lon="-2.5130310">
        <ele>1718.3</ele>
        <time>2022-08-14T09:52:03Z</time>
      </trkpt>
      <trkpt lat="42.0706870" lon="-2.5130410">
        <ele>1717.9</ele>
        <time>2022-08-14T09:52:04Z</time>
      </trkpt>
      <trkpt lat="42.0707530" lon="-2.5130490">
        <ele>1717.4</ele>
        <time>2022-08-14T09:52:05Z</time>
      </trkpt>
      <trkpt lat="42.0708890" lon="-2.5130620">
        <ele>1716.6</ele>
        <time>2022-08-14T09:52:07Z</time>
      </trkpt>
      <trkpt lat="42.0710800" lon="-2.5130610">
        <ele>1715.5</ele>
        <time>2022-08-14T09:52:10Z</time>
      </trkpt>
      <trkpt lat="42.0711360" lon="-2.5130570">
        <ele>1715.1</ele>
        <time>2022-08-14T09:52:11Z</time>
      </trkpt>
      <trkpt lat="42.0713610" lon="-2.5130230">
        <ele>1713.9</ele>
        <time>2022-08-14T09:52:16Z</time>
      </trkpt>
      <trkpt lat="42.0714270" lon="-2.5129920">
        <ele>1713.5</ele>
        <time>2022-08-14T09:52:20Z</time>
      </trkpt>
      <trkpt lat="42.0714330" lon="-2.5130020">
        <ele>1713.5</ele>
        <time>2022-08-14T09:56:31Z</time>
      </trkpt>
      <trkpt lat="42.0714330" lon="-2.5130020">
        <ele>1713.5</ele>
        <time>2022-08-14T09:56:32Z</time>
      </trkpt>
      <trkpt lat="42.0714520" lon="-2.5129940">
        <ele>1713.4</ele>
        <time>2022-08-14T09:56:40Z</time>
      </trkpt>
      <trkpt lat="42.0714970" lon="-2.5129720">
        <ele>1713.1</ele>
        <time>2022-08-14T09:56:42Z</time>
      </trkpt>
      <trkpt lat="42.0715930" lon="-2.5129190">
        <ele>1712.5</ele>
        <time>2022-08-14T09:56:45Z</time>
      </trkpt>
      <trkpt lat="42.0716650" lon="-2.5128650">
        <ele>1712.0</ele>
        <time>2022-08-14T09:56:47Z</time>
      </trkpt>
      <trkpt lat="42.0719360" lon="-2.5126840">
        <ele>1710.4</ele>
        <time>2022-08-14T09:56:53Z</time>
      </trkpt>
      <trkpt lat="42.0721400" lon="-2.5125170">
        <ele>1709.0</ele>
        <time>2022-08-14T09:56:57Z</time>
      </trkpt>
      <trkpt lat="42.0722330" lon="-2.5124050">
        <ele>1708.2</ele>
        <time>2022-08-14T09:56:59Z</time>
      </trkpt>
      <trkpt lat="42.0722800" lon="-2.5123420">
        <ele>1707.7</ele>
        <time>2022-08-14T09:57:00Z</time>
      </trkpt>
      <trkpt lat="42.0723250" lon="-2.5122750">
        <ele>1707.2</ele>
        <time>2022-08-14T09:57:01Z</time>
      </trkpt>
      <trkpt lat="42.0724460" lon="-2.5120740">
        <ele>1705.8</ele>
        <time>2022-08-14T09:57:04Z</time>
      </trkpt>
      <trkpt lat="42.0724850" lon="-2.5120030">
        <ele>1705.3</ele>
        <time>2022-08-14T09:57:05Z</time>
      </trkpt>
      <trkpt lat="42.0725250" lon="-2.5119220">
        <ele>1704.7</ele>
        <time>2022-08-14T09:57:06Z</time>
      </trkpt>
      <trkpt lat="42.0725990" lon="-2.5117650">
        <ele>1703.7</ele>
        <time>2022-08-14T09:57:08Z</time>
      </trkpt>
      <trkpt lat="42.0726960" lon="-2.5115810">
        <ele>1702.6</ele>
        <time>2022-08-14T09:57:10Z</time>
      </trkpt>
      <trkpt lat="42.0727880" lon="-2.5114060">
        <ele>1701.5</ele>
        <time>2022-08-14T09:57:12Z</time>
      </trkpt>
      <trkpt lat="42.0729560" lon="-2.5110590">
        <ele>1699.4</ele>
        <time>2022-08-14T09:57:16Z</time>
      </trkpt>
      <trkpt lat="42.0729910" lon="-2.5109780">
        <ele>1698.9</ele>
        <time>2022-08-14T09:57:17Z</time>
      </trkpt>
      <trkpt lat="42.0730280" lon="-2.5108960">
        <ele>1698.4</ele>
        <time>2022-08-14T09:57:18Z</time>
      </trkpt>
      <trkpt lat="42.0730660" lon="-2.5108130">
        <ele>1698.0</ele>
        <time>2022-08-14T09:57:19Z</time>
      </trkpt>
      <trkpt lat="42.0731760" lon="-2.5105530">
        <ele>1696.9</ele>
        <time>2022-08-14T09:57:22Z</time>
      </trkpt>
      <trkpt lat="42.0732490" lon="-2.5103780">
        <ele>1696.1</ele>
        <time>2022-08-14T09:57:24Z</time>
      </trkpt>
      <trkpt lat="42.0733330" lon="-2.5102040">
        <ele>1695.2</ele>
        <time>2022-08-14T09:57:26Z</time>
      </trkpt>
      <trkpt lat="42.0733740" lon="-2.5101170">
        <ele>1694.8</ele>
        <time>2022-08-14T09:57:27Z</time>
      </trkpt>
      <trkpt lat="42.0734980" lon="-2.5098510">
        <ele>1693.6</ele>
        <time>2022-08-14T09:57:30Z</time>
      </trkpt>
      <trkpt lat="42.0735810" lon="-2.5096810">
        <ele>1692.7</ele>
        <time>2022-08-14T09:57:32Z</time>
      </trkpt>
      <trkpt lat="42.0736630" lon="-2.5095030">
        <ele>1691.7</ele>
        <time>2022-08-14T09:57:34Z</time>
      </trkpt>
      <trkpt lat="42.0737520" lon="-2.5093190">
        <ele>1690.9</ele>
        <time>2022-08-14T09:57:36Z</time>
      </trkpt>
      <trkpt lat="42.0738380" lon="-2.5091330">
        <ele>1690.1</ele>
        <time>2022-08-14T09:57:38Z</time>
      </trkpt>
      <trkpt lat="42.0740300" lon="-2.5087080">
        <ele>1688.5</ele>
        <time>2022-08-14T09:57:43Z</time>
      </trkpt>
      <trkpt lat="42.0740820" lon="-2.5085860">
        <ele>1688.0</ele>
        <time>2022-08-14T09:57:44Z</time>
      </trkpt>
      <trkpt lat="42.0741540" lon="-2.5084170">
        <ele>1687.2</ele>
        <time>2022-08-14T09:57:47Z</time>
      </trkpt>
      <trkpt lat="42.0741680" lon="-2.5083790">
        <ele>1687.0</ele>
        <time>2022-08-14T09:57:50Z</time>
      </trkpt>
      <trkpt lat="42.0741810" lon="-2.5083540">
        <ele>1686.9</ele>
        <time>2022-08-14T09:59:17Z</time>
      </trkpt>
      <trkpt lat="42.0741950" lon="-2.5083240">
        <ele>1686.8</ele>
        <time>2022-08-14T09:59:18Z</time>
      </trkpt>
      <trkpt lat="42.0742110" lon="-2.5082900">
        <ele>1686.6</ele>
        <time>2022-08-14T09:59:19Z</time>
      </trkpt>
      <trkpt lat="42.0742290" lon="-2.5082480">
        <ele>1686.4</ele>
        <time>2022-08-14T09:59:20Z</time>
      </trkpt>
      <trkpt lat="42.0742500" lon="-2.5082030">
        <ele>1686.2</ele>
        <time>2022-08-14T09:59:21Z</time>
      </trkpt>
      <trkpt lat="42.0742720" lon="-2.5081520">
        <ele>1685.9</ele>
        <time>2022-08-14T09:59:22Z</time>
      </trkpt>
      <trkpt lat="42.0743230" lon="-2.5080420">
        <ele>1685.4</ele>
        <time>2022-08-14T09:59:24Z</time>
      </trkpt>
      <trkpt lat="42.0743490" lon="-2.5079840">
        <ele>1685.1</ele>
        <time>2022-08-14T09:59:25Z</time>
      </trkpt>
      <trkpt lat="42.0743950" lon="-2.5078740">
        <ele>1684.6</ele>
        <time>2022-08-14T09:59:27Z</time>
      </trkpt>
      <trkpt lat="42.0744180" lon="-2.5078230">
        <ele>1684.3</ele>
        <time>2022-08-14T09:59:28Z</time>
      </trkpt>
      <trkpt lat="42.0744680" lon="-2.5077300">
        <ele>1683.8</ele>
        <time>2022-08-14T09:59:30Z</time>
      </trkpt>
      <trkpt lat="42.0745010" lon="-2.5076920">
        <ele>1683.5</ele>
        <time>2022-08-14T09:59:31Z</time>
      </trkpt>
      <trkpt lat="42.0745360" lon="-2.5076590">
        <ele>1683.2</ele>
        <time>2022-08-14T09:59:32Z</time>
      </trkpt>
      <trkpt lat="42.0746510" lon="-2.5076140">
        <ele>1682.3</ele>
        <time>2022-08-14T09:59:35Z</time>
      </trkpt>
      <trkpt lat="42.0747260" lon="-2.5076510">
        <ele>1681.6</ele>
        <time>2022-08-14T09:59:37Z</time>
      </trkpt>
      <trkpt lat="42.0747650" lon="-2.5076850">
        <ele>1681.2</ele>
        <time>2022-08-14T09:59:38Z</time>
      </trkpt>
      <trkpt lat="42.0748010" lon="-2.5077260">
        <ele>1680.8</ele>
        <time>2022-08-14T09:59:39Z</time>
      </trkpt>
      <trkpt lat="42.0748370" lon="-2.5077730">
        <ele>1680.4</ele>
        <time>2022-08-14T09:59:40Z</time>
      </trkpt>
      <trkpt lat="42.0748970" lon="-2.5078800">
        <ele>1679.6</ele>
        <time>2022-08-14T09:59:42Z</time>
      </trkpt>
      <trkpt lat="42.0749150" lon="-2.5079440">
        <ele>1679.1</ele>
        <time>2022-08-14T09:59:43Z</time>
      </trkpt>
      <trkpt lat="42.0750080" lon="-2.5082870">
        <ele>1676.8</ele>
        <time>2022-08-14T09:59:48Z</time>
      </trkpt>
      <trkpt lat="42.0750550" lon="-2.5084800">
        <ele>1675.5</ele>
        <time>2022-08-14T09:59:51Z</time>
      </trkpt>
      <trkpt lat="42.0750910" lon="-2.5086100">
        <ele>1674.6</ele>
        <time>2022-08-14T09:59:53Z</time>
      </trkpt>
      <trkpt lat="42.0751100" lon="-2.5086760">
        <ele>1674.2</ele>
        <time>2022-08-14T09:59:54Z</time>
      </trkpt>
      <trkpt lat="42.0751920" lon="-2.5089430">
        <ele>1672.6</ele>
        <time>2022-08-14T09:59:58Z</time>
      </trkpt>
      <trkpt lat="42.0752510" lon="-2.5091340">
        <ele>1671.6</ele>
        <time>2022-08-14T10:00:01Z</time>
      </trkpt>
      <trkpt lat="42.0753260" lon="-2.5093830">
        <ele>1670.3</ele>
        <time>2022-08-14T10:00:05Z</time>
      </trkpt>
      <trkpt lat="42.0753620" lon="-2.5095030">
        <ele>1669.7</ele>
        <time>2022-08-14T10:00:07Z</time>
      </trkpt>
      <trkpt lat="42.0753780" lon="-2.5095630">
        <ele>1669.4</ele>
        <time>2022-08-14T10:00:08Z</time>
      </trkpt>
      <trkpt lat="42.0754170" lon="-2.5096800">
        <ele>1668.9</ele>
        <time>2022-08-14T10:00:10Z</time>
      </trkpt>
      <trkpt lat="42.0754640" lon="-2.5098250">
        <ele>1668.2</ele>
        <time>2022-08-14T10:00:13Z</time>
      </trkpt>
      <trkpt lat="42.0755050" lon="-2.5099560">
        <ele>1667.6</ele>
        <time>2022-08-14T10:00:15Z</time>
      </trkpt>
      <trkpt lat="42.0755460" lon="-2.5100930">
        <ele>1667.1</ele>
        <time>2022-08-14T10:00:17Z</time>
      </trkpt>
      <trkpt lat="42.0755850" lon="-2.5102080">
        <ele>1666.5</ele>
        <time>2022-08-14T10:00:19Z</time>
      </trkpt>
      <trkpt lat="42.0756170" lon="-2.5103190">
        <ele>1666.0</ele>
        <time>2022-08-14T10:00:21Z</time>
      </trkpt>
      <trkpt lat="42.0756430" lon="-2.5104260">
        <ele>1665.5</ele>
        <time>2022-08-14T10:00:23Z</time>
      </trkpt>
      <trkpt lat="42.0756560" lon="-2.5104810">
        <ele>1665.3</ele>
        <time>2022-08-14T10:00:24Z</time>
      </trkpt>
      <trkpt lat="42.0756710" lon="-2.5105370">
        <ele>1665.0</ele>
        <time>2022-08-14T10:00:25Z</time>
      </trkpt>
      <trkpt lat="42.0757060" lon="-2.5106510">
        <ele>1664.4</ele>
        <time>2022-08-14T10:00:27Z</time>
      </trkpt>
      <trkpt lat="42.0757770" lon="-2.5108230">
        <ele>1663.5</ele>
        <time>2022-08-14T10:00:30Z</time>
      </trkpt>
      <trkpt lat="42.0758080" lon="-2.5108780">
        <ele>1663.1</ele>
        <time>2022-08-14T10:00:31Z</time>
      </trkpt>
      <trkpt lat="42.0758350" lon="-2.5109340">
        <ele>1662.8</ele>
        <time>2022-08-14T10:00:32Z</time>
      </trkpt>
      <trkpt lat="42.0758890" lon="-2.5110470">
        <ele>1662.1</ele>
        <time>2022-08-14T10:00:34Z</time>
      </trkpt>
      <trkpt lat="42.0759140" lon="-2.5110900">
        <ele>1661.8</ele>
        <time>2022-08-14T10:00:35Z</time>
      </trkpt>
      <trkpt lat="42.0759750" lon="-2.5111990">
        <ele>1661.1</ele>
        <time>2022-08-14T10:00:37Z</time>
      </trkpt>
      <trkpt lat="42.0760230" lon="-2.5112960">
        <ele>1660.5</ele>
        <time>2022-08-14T10:00:39Z</time>
      </trkpt>
      <trkpt lat="42.0760450" lon="-2.5113420">
        <ele>1660.3</ele>
        <time>2022-08-14T10:00:40Z</time>
      </trkpt>
      <trkpt lat="42.0760900" lon="-2.5114330">
        <ele>1659.7</ele>
        <time>2022-08-14T10:00:42Z</time>
      </trkpt>
      <trkpt lat="42.0761150" lon="-2.5114820">
        <ele>1659.4</ele>
        <time>2022-08-14T10:00:43Z</time>
      </trkpt>
      <trkpt lat="42.0761920" lon="-2.5116260">
        <ele>1658.4</ele>
        <time>2022-08-14T10:00:46Z</time>
      </trkpt>
      <trkpt lat="42.0762220" lon="-2.5116720">
        <ele>1658.1</ele>
        <time>2022-08-14T10:00:47Z</time>
      </trkpt>
      <trkpt lat="42.0762830" lon="-2.5117650">
        <ele>1657.4</ele>
        <time>2022-08-14T10:00:49Z</time>
      </trkpt>
      <trkpt lat="42.0763960" lon="-2.5118880">
        <ele>1656.2</ele>
        <time>2022-08-14T10:00:52Z</time>
      </trkpt>
      <trkpt lat="42.0764780" lon="-2.5119610">
        <ele>1655.5</ele>
        <time>2022-08-14T10:00:54Z</time>
      </trkpt>
      <trkpt lat="42.0765230" lon="-2.5119900">
        <ele>1655.1</ele>
        <time>2022-08-14T10:00:55Z</time>
      </trkpt>
      <trkpt lat="42.0766050" lon="-2.5120470">
        <ele>1654.4</ele>
        <time>2022-08-14T10:00:57Z</time>
      </trkpt>
      <trkpt lat="42.0767900" lon="-2.5121740">
        <ele>1652.8</ele>
        <time>2022-08-14T10:01:01Z</time>
      </trkpt>
      <trkpt lat="42.0768350" lon="-2.5122050">
        <ele>1652.5</ele>
        <time>2022-08-14T10:01:02Z</time>
      </trkpt>
      <trkpt lat="42.0769240" lon="-2.5122670">
        <ele>1651.7</ele>
        <time>2022-08-14T10:01:04Z</time>
      </trkpt>
      <trkpt lat="42.0770830" lon="-2.5123830">
        <ele>1650.3</ele>
        <time>2022-08-14T10:01:08Z</time>
      </trkpt>
      <trkpt lat="42.0771640" lon="-2.5124380">
        <ele>1649.5</ele>
        <time>2022-08-14T10:01:10Z</time>
      </trkpt>
      <trkpt lat="42.0772100" lon="-2.5124650">
        <ele>1649.1</ele>
        <time>2022-08-14T10:01:11Z</time>
      </trkpt>
      <trkpt lat="42.0773880" lon="-2.5125670">
        <ele>1647.4</ele>
        <time>2022-08-14T10:01:15Z</time>
      </trkpt>
      <trkpt lat="42.0775280" lon="-2.5126510">
        <ele>1646.2</ele>
        <time>2022-08-14T10:01:18Z</time>
      </trkpt>
      <trkpt lat="42.0776260" lon="-2.5127090">
        <ele>1645.5</ele>
        <time>2022-08-14T10:01:20Z</time>
      </trkpt>
      <trkpt lat="42.0777230" lon="-2.5127590">
        <ele>1644.8</ele>
        <time>2022-08-14T10:01:22Z</time>
      </trkpt>
      <trkpt lat="42.0777700" lon="-2.5127820">
        <ele>1644.5</ele>
        <time>2022-08-14T10:01:23Z</time>
      </trkpt>
      <trkpt lat="42.0779190" lon="-2.5128610">
        <ele>1643.4</ele>
        <time>2022-08-14T10:01:26Z</time>
      </trkpt>
      <trkpt lat="42.0779610" lon="-2.5128840">
        <ele>1643.2</ele>
        <time>2022-08-14T10:01:27Z</time>
      </trkpt>
      <trkpt lat="42.0780210" lon="-2.5129170">
        <ele>1642.7</ele>
        <time>2022-08-14T10:01:28Z</time>
      </trkpt>
      <trkpt lat="42.0782190" lon="-2.5130080">
        <ele>1641.4</ele>
        <time>2022-08-14T10:01:32Z</time>
      </trkpt>
      <trkpt lat="42.0783340" lon="-2.5130590">
        <ele>1640.7</ele>
        <time>2022-08-14T10:01:34Z</time>
      </trkpt>
      <trkpt lat="42.0784300" lon="-2.5131030">
        <ele>1640.2</ele>
        <time>2022-08-14T10:01:36Z</time>
      </trkpt>
      <trkpt lat="42.0785530" lon="-2.5131560">
        <ele>1639.5</ele>
        <time>2022-08-14T10:01:38Z</time>
      </trkpt>
      <trkpt lat="42.0786570" lon="-2.5131820">
        <ele>1639.0</ele>
        <time>2022-08-14T10:01:40Z</time>
      </trkpt>
      <trkpt lat="42.0787050" lon="-2.5131960">
        <ele>1638.7</ele>
        <time>2022-08-14T10:01:41Z</time>
      </trkpt>
      <trkpt lat="42.0788660" lon="-2.5132240">
        <ele>1637.9</ele>
        <time>2022-08-14T10:01:44Z</time>
      </trkpt>
      <trkpt lat="42.0789110" lon="-2.5132310">
        <ele>1637.7</ele>
        <time>2022-08-14T10:01:45Z</time>
      </trkpt>
      <trkpt lat="42.0789750" lon="-2.5132490">
        <ele>1637.4</ele>
        <time>2022-08-14T10:01:46Z</time>
      </trkpt>
      <trkpt lat="42.0790860" lon="-2.5132730">
        <ele>1636.9</ele>
        <time>2022-08-14T10:01:48Z</time>
      </trkpt>
      <trkpt lat="42.0792050" lon="-2.5132870">
        <ele>1636.3</ele>
        <time>2022-08-14T10:01:50Z</time>
      </trkpt>
      <trkpt lat="42.0792640" lon="-2.5132940">
        <ele>1636.0</ele>
        <time>2022-08-14T10:01:51Z</time>
      </trkpt>
      <trkpt lat="42.0794220" lon="-2.5133150">
        <ele>1635.1</ele>
        <time>2022-08-14T10:01:54Z</time>
      </trkpt>
      <trkpt lat="42.0795940" lon="-2.5133350">
        <ele>1633.9</ele>
        <time>2022-08-14T10:01:57Z</time>
      </trkpt>
      <trkpt lat="42.0796340" lon="-2.5133400">
        <ele>1633.5</ele>
        <time>2022-08-14T10:01:58Z</time>
      </trkpt>
      <trkpt lat="42.0797890" lon="-2.5133630">
        <ele>1632.0</ele>
        <time>2022-08-14T10:02:01Z</time>
      </trkpt>
      <trkpt lat="42.0798230" lon="-2.5133690">
        <ele>1631.7</ele>
        <time>2022-08-14T10:02:02Z</time>
      </trkpt>
      <trkpt lat="42.0798740" lon="-2.5133660">
        <ele>1631.2</ele>
        <time>2022-08-14T10:02:03Z</time>
      </trkpt>
      <trkpt lat="42.0799160" lon="-2.5133560">
        <ele>1630.8</ele>
        <time>2022-08-14T10:02:04Z</time>
      </trkpt>
      <trkpt lat="42.0799420" lon="-2.5133330">
        <ele>1630.5</ele>
        <time>2022-08-14T10:02:05Z</time>
      </trkpt>
      <trkpt lat="42.0799620" lon="-2.5132990">
        <ele>1630.3</ele>
        <time>2022-08-14T10:02:06Z</time>
      </trkpt>
      <trkpt lat="42.0800050" lon="-2.5132510">
        <ele>1629.8</ele>
        <time>2022-08-14T10:02:07Z</time>
      </trkpt>
      <trkpt lat="42.0800570" lon="-2.5131240">
        <ele>1629.0</ele>
        <time>2022-08-14T10:02:09Z</time>
      </trkpt>
      <trkpt lat="42.0800500" lon="-2.5130780">
        <ele>1628.7</ele>
        <time>2022-08-14T10:02:10Z</time>
      </trkpt>
      <trkpt lat="42.0800040" lon="-2.5129840">
        <ele>1628.2</ele>
        <time>2022-08-14T10:02:12Z</time>
      </trkpt>
      <trkpt lat="42.0799750" lon="-2.5129580">
        <ele>1628.0</ele>
        <time>2022-08-14T10:02:13Z</time>
      </trkpt>
      <trkpt lat="42.0798990" lon="-2.5128910">
        <ele>1627.4</ele>
        <time>2022-08-14T10:02:15Z</time>
      </trkpt>
      <trkpt lat="42.0798660" lon="-2.5128650">
        <ele>1627.2</ele>
        <time>2022-08-14T10:02:16Z</time>
      </trkpt>
      <trkpt lat="42.0797830" lon="-2.5127910">
        <ele>1626.5</ele>
        <time>2022-08-14T10:02:18Z</time>
      </trkpt>
      <trkpt lat="42.0797490" lon="-2.5127630">
        <ele>1626.2</ele>
        <time>2022-08-14T10:02:19Z</time>
      </trkpt>
      <trkpt lat="42.0796620" lon="-2.5126930">
        <ele>1625.5</ele>
        <time>2022-08-14T10:02:21Z</time>
      </trkpt>
      <trkpt lat="42.0795840" lon="-2.5126240">
        <ele>1624.8</ele>
        <time>2022-08-14T10:02:23Z</time>
      </trkpt>
      <trkpt lat="42.0795550" lon="-2.5125900">
        <ele>1624.6</ele>
        <time>2022-08-14T10:02:24Z</time>
      </trkpt>
      <trkpt lat="42.0794000" lon="-2.5124080">
        <ele>1623.1</ele>
        <time>2022-08-14T10:02:28Z</time>
      </trkpt>
      <trkpt lat="42.0793530" lon="-2.5123510">
        <ele>1622.7</ele>
        <time>2022-08-14T10:02:29Z</time>
      </trkpt>
      <trkpt lat="42.0793160" lon="-2.5123040">
        <ele>1622.3</ele>
        <time>2022-08-14T10:02:30Z</time>
      </trkpt>
      <trkpt lat="42.0792470" lon="-2.5121980">
        <ele>1621.5</ele>
        <time>2022-08-14T10:02:32Z</time>
      </trkpt>
      <trkpt lat="42.0791450" lon="-2.5120340">
        <ele>1620.5</ele>
        <time>2022-08-14T10:02:35Z</time>
      </trkpt>
      <trkpt lat="42.0790780" lon="-2.5119460">
        <ele>1619.8</ele>
        <time>2022-08-14T10:02:37Z</time>
      </trkpt>
      <trkpt lat="42.0789700" lon="-2.5117830">
        <ele>1618.5</ele>
        <time>2022-08-14T10:02:40Z</time>
      </trkpt>
      <trkpt lat="42.0788160" lon="-2.5115980">
        <ele>1616.9</ele>
        <time>2022-08-14T10:02:44Z</time>
      </trkpt>
      <trkpt lat="42.0787740" lon="-2.5115570">
        <ele>1616.5</ele>
        <time>2022-08-14T10:02:45Z</time>
      </trkpt>
      <trkpt lat="42.0787030" lon="-2.5114790">
        <ele>1615.9</ele>
        <time>2022-08-14T10:02:47Z</time>
      </trkpt>
      <trkpt lat="42.0786290" lon="-2.5113720">
        <ele>1615.1</ele>
        <time>2022-08-14T10:02:49Z</time>
      </trkpt>
      <trkpt lat="42.0785720" lon="-2.5112660">
        <ele>1614.5</ele>
        <time>2022-08-14T10:02:51Z</time>
      </trkpt>
      <trkpt lat="42.0785160" lon="-2.5111610">
        <ele>1613.8</ele>
        <time>2022-08-14T10:02:53Z</time>
      </trkpt>
      <trkpt lat="42.0784930" lon="-2.5111100">
        <ele>1613.5</ele>
        <time>2022-08-14T10:02:54Z</time>
      </trkpt>
      <trkpt lat="42.0784660" lon="-2.5110190">
        <ele>1612.9</ele>
        <time>2022-08-14T10:02:56Z</time>
      </trkpt>
      <trkpt lat="42.0784460" lon="-2.5109540">
        <ele>1612.5</ele>
        <time>2022-08-14T10:02:57Z</time>
      </trkpt>
      <trkpt lat="42.0784060" lon="-2.5108380">
        <ele>1611.7</ele>
        <time>2022-08-14T10:02:59Z</time>
      </trkpt>
      <trkpt lat="42.0783860" lon="-2.5107800">
        <ele>1611.3</ele>
        <time>2022-08-14T10:03:00Z</time>
      </trkpt>
      <trkpt lat="42.0783350" lon="-2.5106000">
        <ele>1610.2</ele>
        <time>2022-08-14T10:03:03Z</time>
      </trkpt>
      <trkpt lat="42.0783100" lon="-2.5105380">
        <ele>1609.8</ele>
        <time>2022-08-14T10:03:04Z</time>
      </trkpt>
      <trkpt lat="42.0782610" lon="-2.5104010">
        <ele>1608.8</ele>
        <time>2022-08-14T10:03:06Z</time>
      </trkpt>
      <trkpt lat="42.0782410" lon="-2.5103280">
        <ele>1608.4</ele>
        <time>2022-08-14T10:03:07Z</time>
      </trkpt>
      <trkpt lat="42.0782170" lon="-2.5102540">
        <ele>1607.9</ele>
        <time>2022-08-14T10:03:08Z</time>
      </trkpt>
      <trkpt lat="42.0781690" lon="-2.5101160">
        <ele>1607.0</ele>
        <time>2022-08-14T10:03:10Z</time>
      </trkpt>
      <trkpt lat="42.0781480" lon="-2.5100620">
        <ele>1606.7</ele>
        <time>2022-08-14T10:03:11Z</time>
      </trkpt>
      <trkpt lat="42.0780850" lon="-2.5098490">
        <ele>1605.5</ele>
        <time>2022-08-14T10:03:14Z</time>
      </trkpt>
      <trkpt lat="42.0780690" lon="-2.5097900">
        <ele>1605.1</ele>
        <time>2022-08-14T10:03:15Z</time>
      </trkpt>
      <trkpt lat="42.0780180" lon="-2.5096650">
        <ele>1604.3</ele>
        <time>2022-08-14T10:03:17Z</time>
      </trkpt>
      <trkpt lat="42.0779920" lon="-2.5096120">
        <ele>1603.9</ele>
        <time>2022-08-14T10:03:18Z</time>
      </trkpt>
      <trkpt lat="42.0779730" lon="-2.5095490">
        <ele>1603.4</ele>
        <time>2022-08-14T10:03:19Z</time>
      </trkpt>
      <trkpt lat="42.0779670" lon="-2.5094850">
        <ele>1603.0</ele>
        <time>2022-08-14T10:03:20Z</time>
      </trkpt>
      <trkpt lat="42.0779540" lon="-2.5093460">
        <ele>1602.1</ele>
        <time>2022-08-14T10:03:22Z</time>
      </trkpt>
      <trkpt lat="42.0779600" lon="-2.5092740">
        <ele>1601.7</ele>
        <time>2022-08-14T10:03:23Z</time>
      </trkpt>
      <trkpt lat="42.0779570" lon="-2.5092170">
        <ele>1601.3</ele>
        <time>2022-08-14T10:03:24Z</time>
      </trkpt>
      <trkpt lat="42.0779730" lon="-2.5091690">
        <ele>1601.0</ele>
        <time>2022-08-14T10:03:25Z</time>
      </trkpt>
      <trkpt lat="42.0779890" lon="-2.5091270">
        <ele>1600.7</ele>
        <time>2022-08-14T10:03:26Z</time>
      </trkpt>
      <trkpt lat="42.0780770" lon="-2.5090220">
        <ele>1599.7</ele>
        <time>2022-08-14T10:03:29Z</time>
      </trkpt>
      <trkpt lat="42.0780900" lon="-2.5090080">
        <ele>1599.7</ele>
        <time>2022-08-14T10:03:30Z</time>
      </trkpt>
      <trkpt lat="42.0781240" lon="-2.5089890">
        <ele>1599.6</ele>
        <time>2022-08-14T10:03:33Z</time>
      </trkpt>
      <trkpt lat="42.0781210" lon="-2.5089870">
        <ele>1599.6</ele>
        <time>2022-08-14T10:07:02Z</time>
      </trkpt>
      <trkpt lat="42.0781390" lon="-2.5089140">
        <ele>1599.6</ele>
        <time>2022-08-14T10:07:05Z</time>
      </trkpt>
      <trkpt lat="42.0781530" lon="-2.5088450">
        <ele>1599.5</ele>
        <time>2022-08-14T10:07:07Z</time>
      </trkpt>
      <trkpt lat="42.0781600" lon="-2.5088100">
        <ele>1599.5</ele>
        <time>2022-08-14T10:07:08Z</time>
      </trkpt>
      <trkpt lat="42.0781740" lon="-2.5087740">
        <ele>1599.5</ele>
        <time>2022-08-14T10:07:09Z</time>
      </trkpt>
      <trkpt lat="42.0782170" lon="-2.5086850">
        <ele>1599.4</ele>
        <time>2022-08-14T10:07:11Z</time>
      </trkpt>
      <trkpt lat="42.0782400" lon="-2.5086350">
        <ele>1599.3</ele>
        <time>2022-08-14T10:07:12Z</time>
      </trkpt>
      <trkpt lat="42.0782840" lon="-2.5085260">
        <ele>1599.2</ele>
        <time>2022-08-14T10:07:14Z</time>
      </trkpt>
      <trkpt lat="42.0783260" lon="-2.5084180">
        <ele>1599.1</ele>
        <time>2022-08-14T10:07:16Z</time>
      </trkpt>
      <trkpt lat="42.0783510" lon="-2.5083630">
        <ele>1599.1</ele>
        <time>2022-08-14T10:07:17Z</time>
      </trkpt>
      <trkpt lat="42.0783970" lon="-2.5082610">
        <ele>1599.0</ele>
        <time>2022-08-14T10:07:19Z</time>
      </trkpt>
      <trkpt lat="42.0784170" lon="-2.5082120">
        <ele>1599.0</ele>
        <time>2022-08-14T10:07:20Z</time>
      </trkpt>
      <trkpt lat="42.0786330" lon="-2.5077380">
        <ele>1598.6</ele>
        <time>2022-08-14T10:07:28Z</time>
      </trkpt>
      <trkpt lat="42.0787300" lon="-2.5074930">
        <ele>1598.3</ele>
        <time>2022-08-14T10:07:32Z</time>
      </trkpt>
      <trkpt lat="42.0788260" lon="-2.5072350">
        <ele>1598.1</ele>
        <time>2022-08-14T10:07:36Z</time>
      </trkpt>
      <trkpt lat="42.0788510" lon="-2.5071700">
        <ele>1598.1</ele>
        <time>2022-08-14T10:07:37Z</time>
      </trkpt>
      <trkpt lat="42.0789370" lon="-2.5069100">
        <ele>1597.9</ele>
        <time>2022-08-14T10:07:41Z</time>
      </trkpt>
      <trkpt lat="42.0789630" lon="-2.5067840">
        <ele>1597.8</ele>
        <time>2022-08-14T10:07:43Z</time>
      </trkpt>
      <trkpt lat="42.0789930" lon="-2.5066650">
        <ele>1597.7</ele>
        <time>2022-08-14T10:07:45Z</time>
      </trkpt>
      <trkpt lat="42.0790490" lon="-2.5065090">
        <ele>1597.5</ele>
        <time>2022-08-14T10:07:48Z</time>
      </trkpt>
      <trkpt lat="42.0790630" lon="-2.5064550">
        <ele>1597.5</ele>
        <time>2022-08-14T10:07:49Z</time>
      </trkpt>
      <trkpt lat="42.0790770" lon="-2.5064000">
        <ele>1597.5</ele>
        <time>2022-08-14T10:07:50Z</time>
      </trkpt>
      <trkpt lat="42.0791270" lon="-2.5062080">
        <ele>1597.3</ele>
        <time>2022-08-14T10:07:53Z</time>
      </trkpt>
      <trkpt lat="42.0792060" lon="-2.5057390">
        <ele>1596.1</ele>
        <time>2022-08-14T10:07:58Z</time>
      </trkpt>
      <trkpt lat="42.0792180" lon="-2.5056390">
        <ele>1595.9</ele>
        <time>2022-08-14T10:07:59Z</time>
      </trkpt>
      <trkpt lat="42.0792510" lon="-2.5054390">
        <ele>1595.4</ele>
        <time>2022-08-14T10:08:01Z</time>
      </trkpt>
      <trkpt lat="42.0792890" lon="-2.5052320">
        <ele>1594.8</ele>
        <time>2022-08-14T10:08:03Z</time>
      </trkpt>
      <trkpt lat="42.0792930" lon="-2.5051280">
        <ele>1594.6</ele>
        <time>2022-08-14T10:08:04Z</time>
      </trkpt>
      <trkpt lat="42.0792930" lon="-2.5050270">
        <ele>1594.3</ele>
        <time>2022-08-14T10:08:05Z</time>
      </trkpt>
      <trkpt lat="42.0792870" lon="-2.5049260">
        <ele>1594.1</ele>
        <time>2022-08-14T10:08:06Z</time>
      </trkpt>
      <trkpt lat="42.0793010" lon="-2.5047310">
        <ele>1593.6</ele>
        <time>2022-08-14T10:08:08Z</time>
      </trkpt>
      <trkpt lat="42.0793040" lon="-2.5046380">
        <ele>1593.4</ele>
        <time>2022-08-14T10:08:09Z</time>
      </trkpt>
      <trkpt lat="42.0793020" lon="-2.5045500">
        <ele>1593.1</ele>
        <time>2022-08-14T10:08:10Z</time>
      </trkpt>
      <trkpt lat="42.0792940" lon="-2.5044640">
        <ele>1592.9</ele>
        <time>2022-08-14T10:08:11Z</time>
      </trkpt>
      <trkpt lat="42.0792820" lon="-2.5043820">
        <ele>1592.7</ele>
        <time>2022-08-14T10:08:12Z</time>
      </trkpt>
      <trkpt lat="42.0792680" lon="-2.5043010">
        <ele>1592.5</ele>
        <time>2022-08-14T10:08:13Z</time>
      </trkpt>
      <trkpt lat="42.0792360" lon="-2.5041540">
        <ele>1592.1</ele>
        <time>2022-08-14T10:08:15Z</time>
      </trkpt>
      <trkpt lat="42.0791660" lon="-2.5039010">
        <ele>1591.5</ele>
        <time>2022-08-14T10:08:18Z</time>
      </trkpt>
      <trkpt lat="42.0791090" lon="-2.5036670">
        <ele>1590.8</ele>
        <time>2022-08-14T10:08:21Z</time>
      </trkpt>
      <trkpt lat="42.0790850" lon="-2.5035060">
        <ele>1590.4</ele>
        <time>2022-08-14T10:08:23Z</time>
      </trkpt>
      <trkpt lat="42.0790570" lon="-2.5034210">
        <ele>1590.2</ele>
        <time>2022-08-14T10:08:24Z</time>
      </trkpt>
      <trkpt lat="42.0790370" lon="-2.5033570">
        <ele>1590.0</ele>
        <time>2022-08-14T10:08:25Z</time>
      </trkpt>
      <trkpt lat="42.0789650" lon="-2.5031700">
        <ele>1589.5</ele>
        <time>2022-08-14T10:08:27Z</time>
      </trkpt>
      <trkpt lat="42.0789090" lon="-2.5029970">
        <ele>1589.0</ele>
        <time>2022-08-14T10:08:29Z</time>
      </trkpt>
      <trkpt lat="42.0787730" lon="-2.5026240">
        <ele>1588.0</ele>
        <time>2022-08-14T10:08:33Z</time>
      </trkpt>
      <trkpt lat="42.0787490" lon="-2.5025290">
        <ele>1587.7</ele>
        <time>2022-08-14T10:08:34Z</time>
      </trkpt>
      <trkpt lat="42.0786730" lon="-2.5020300">
        <ele>1586.5</ele>
        <time>2022-08-14T10:08:39Z</time>
      </trkpt>
      <trkpt lat="42.0786410" lon="-2.5018280">
        <ele>1586.0</ele>
        <time>2022-08-14T10:08:41Z</time>
      </trkpt>
      <trkpt lat="42.0786130" lon="-2.5016310">
        <ele>1585.5</ele>
        <time>2022-08-14T10:08:43Z</time>
      </trkpt>
      <trkpt lat="42.0785870" lon="-2.5012750">
        <ele>1584.6</ele>
        <time>2022-08-14T10:08:47Z</time>
      </trkpt>
      <trkpt lat="42.0785820" lon="-2.5010630">
        <ele>1584.0</ele>
        <time>2022-08-14T10:08:49Z</time>
      </trkpt>
      <trkpt lat="42.0785890" lon="-2.5008710">
        <ele>1583.6</ele>
        <time>2022-08-14T10:08:51Z</time>
      </trkpt>
      <trkpt lat="42.0786030" lon="-2.5005890">
        <ele>1582.9</ele>
        <time>2022-08-14T10:08:54Z</time>
      </trkpt>
      <trkpt lat="42.0786110" lon="-2.5004970">
        <ele>1582.6</ele>
        <time>2022-08-14T10:08:55Z</time>
      </trkpt>
      <trkpt lat="42.0786380" lon="-2.5001270">
        <ele>1581.7</ele>
        <time>2022-08-14T10:08:59Z</time>
      </trkpt>
      <trkpt lat="42.0786390" lon="-2.5000400">
        <ele>1581.5</ele>
        <time>2022-08-14T10:09:00Z</time>
      </trkpt>
      <trkpt lat="42.0786490" lon="-2.4997990">
        <ele>1580.9</ele>
        <time>2022-08-14T10:09:03Z</time>
      </trkpt>
      <trkpt lat="42.0786230" lon="-2.4995300">
        <ele>1580.2</ele>
        <time>2022-08-14T10:09:06Z</time>
      </trkpt>
      <trkpt lat="42.0785690" lon="-2.4992850">
        <ele>1579.6</ele>
        <time>2022-08-14T10:09:09Z</time>
      </trkpt>
      <trkpt lat="42.0785030" lon="-2.4991430">
        <ele>1579.2</ele>
        <time>2022-08-14T10:09:11Z</time>
      </trkpt>
      <trkpt lat="42.0784220" lon="-2.4990170">
        <ele>1578.7</ele>
        <time>2022-08-14T10:09:13Z</time>
      </trkpt>
      <trkpt lat="42.0783690" lon="-2.4989700">
        <ele>1578.5</ele>
        <time>2022-08-14T10:09:14Z</time>
      </trkpt>
      <trkpt lat="42.0783130" lon="-2.4989280">
        <ele>1578.3</ele>
        <time>2022-08-14T10:09:15Z</time>
      </trkpt>
      <trkpt lat="42.0782620" lon="-2.4989000">
        <ele>1578.1</ele>
        <time>2022-08-14T10:09:16Z</time>
      </trkpt>
      <trkpt lat="42.0781260" lon="-2.4988490">
        <ele>1577.7</ele>
        <time>2022-08-14T10:09:18Z</time>
      </trkpt>
      <trkpt lat="42.0780620" lon="-2.4988490">
        <ele>1577.4</ele>
        <time>2022-08-14T10:09:19Z</time>
      </trkpt>
      <trkpt lat="42.0780020" lon="-2.4988620">
        <ele>1577.2</ele>
        <time>2022-08-14T10:09:20Z</time>
      </trkpt>
      <trkpt lat="42.0778880" lon="-2.4989250">
        <ele>1576.8</ele>
        <time>2022-08-14T10:09:22Z</time>
      </trkpt>
      <trkpt lat="42.0778340" lon="-2.4989630">
        <ele>1576.6</ele>
        <time>2022-08-14T10:09:23Z</time>
      </trkpt>
      <trkpt lat="42.0777910" lon="-2.4990010">
        <ele>1576.4</ele>
        <time>2022-08-14T10:09:24Z</time>
      </trkpt>
      <trkpt lat="42.0776750" lon="-2.4991200">
        <ele>1576.0</ele>
        <time>2022-08-14T10:09:26Z</time>
      </trkpt>
      <trkpt lat="42.0776260" lon="-2.4991840">
        <ele>1575.7</ele>
        <time>2022-08-14T10:09:27Z</time>
      </trkpt>
      <trkpt lat="42.0775860" lon="-2.4992360">
        <ele>1575.5</ele>
        <time>2022-08-14T10:09:28Z</time>
      </trkpt>
      <trkpt lat="42.0774920" lon="-2.4993690">
        <ele>1575.1</ele>
        <time>2022-08-14T10:09:30Z</time>
      </trkpt>
      <trkpt lat="42.0773400" lon="-2.4995740">
        <ele>1574.4</ele>
        <time>2022-08-14T10:09:33Z</time>
      </trkpt>
      <trkpt lat="42.0772780" lon="-2.4996600">
        <ele>1574.1</ele>
        <time>2022-08-14T10:09:34Z</time>
      </trkpt>
      <trkpt lat="42.0772260" lon="-2.4997330">
        <ele>1573.8</ele>
        <time>2022-08-14T10:09:35Z</time>
      </trkpt>
      <trkpt lat="42.0770310" lon="-2.5000160">
        <ele>1572.8</ele>
        <time>2022-08-14T10:09:39Z</time>
      </trkpt>
      <trkpt lat="42.0769250" lon="-2.5001760">
        <ele>1572.3</ele>
        <time>2022-08-14T10:09:41Z</time>
      </trkpt>
      <trkpt lat="42.0768310" lon="-2.5003170">
        <ele>1571.8</ele>
        <time>2022-08-14T10:09:43Z</time>
      </trkpt>
      <trkpt lat="42.0767230" lon="-2.5004460">
        <ele>1571.4</ele>
        <time>2022-08-14T10:09:45Z</time>
      </trkpt>
      <trkpt lat="42.0765620" lon="-2.5005780">
        <ele>1570.7</ele>
        <time>2022-08-14T10:09:48Z</time>
      </trkpt>
      <trkpt lat="42.0764480" lon="-2.5006290">
        <ele>1570.3</ele>
        <time>2022-08-14T10:09:50Z</time>
      </trkpt>
      <trkpt lat="42.0762680" lon="-2.5006900">
        <ele>1569.7</ele>
        <time>2022-08-14T10:09:53Z</time>
      </trkpt>
      <trkpt lat="42.0762140" lon="-2.5007120">
        <ele>1569.5</ele>
        <time>2022-08-14T10:09:54Z</time>
      </trkpt>
      <trkpt lat="42.0761130" lon="-2.5007550">
        <ele>1569.1</ele>
        <time>2022-08-14T10:09:56Z</time>
      </trkpt>
      <trkpt lat="42.0759400" lon="-2.5007940">
        <ele>1568.6</ele>
        <time>2022-08-14T10:09:59Z</time>
      </trkpt>
      <trkpt lat="42.0758720" lon="-2.5008090">
        <ele>1568.0</ele>
        <time>2022-08-14T10:10:00Z</time>
      </trkpt>
      <trkpt lat="42.0757520" lon="-2.5008230">
        <ele>1566.8</ele>
        <time>2022-08-14T10:10:02Z</time>
      </trkpt>
      <trkpt lat="42.0756320" lon="-2.5008290">
        <ele>1565.6</ele>
        <time>2022-08-14T10:10:04Z</time>
      </trkpt>
      <trkpt lat="42.0755650" lon="-2.5008370">
        <ele>1565.0</ele>
        <time>2022-08-14T10:10:05Z</time>
      </trkpt>
      <trkpt lat="42.0754890" lon="-2.5008480">
        <ele>1564.2</ele>
        <time>2022-08-14T10:10:06Z</time>
      </trkpt>
      <trkpt lat="42.0754290" lon="-2.5008560">
        <ele>1563.7</ele>
        <time>2022-08-14T10:10:07Z</time>
      </trkpt>
      <trkpt lat="42.0752940" lon="-2.5008630">
        <ele>1562.3</ele>
        <time>2022-08-14T10:10:09Z</time>
      </trkpt>
      <trkpt lat="42.0752280" lon="-2.5008640">
        <ele>1561.7</ele>
        <time>2022-08-14T10:10:10Z</time>
      </trkpt>
      <trkpt lat="42.0751780" lon="-2.5008690">
        <ele>1561.2</ele>
        <time>2022-08-14T10:10:11Z</time>
      </trkpt>
      <trkpt lat="42.0751170" lon="-2.5008770">
        <ele>1560.6</ele>
        <time>2022-08-14T10:10:12Z</time>
      </trkpt>
      <trkpt lat="42.0750020" lon="-2.5008900">
        <ele>1559.5</ele>
        <time>2022-08-14T10:10:14Z</time>
      </trkpt>
      <trkpt lat="42.0749360" lon="-2.5009050">
        <ele>1558.8</ele>
        <time>2022-08-14T10:10:15Z</time>
      </trkpt>
      <trkpt lat="42.0748390" lon="-2.5009350">
        <ele>1557.9</ele>
        <time>2022-08-14T10:10:17Z</time>
      </trkpt>
      <trkpt lat="42.0747190" lon="-2.5009620">
        <ele>1556.7</ele>
        <time>2022-08-14T10:10:19Z</time>
      </trkpt>
      <trkpt lat="42.0746750" lon="-2.5009750">
        <ele>1556.2</ele>
        <time>2022-08-14T10:10:20Z</time>
      </trkpt>
      <trkpt lat="42.0745590" lon="-2.5010020">
        <ele>1555.1</ele>
        <time>2022-08-14T10:10:22Z</time>
      </trkpt>
      <trkpt lat="42.0744260" lon="-2.5010220">
        <ele>1553.8</ele>
        <time>2022-08-14T10:10:24Z</time>
      </trkpt>
      <trkpt lat="42.0743120" lon="-2.5010360">
        <ele>1552.7</ele>
        <time>2022-08-14T10:10:26Z</time>
      </trkpt>
      <trkpt lat="42.0742460" lon="-2.5010330">
        <ele>1552.0</ele>
        <time>2022-08-14T10:10:27Z</time>
      </trkpt>
      <trkpt lat="42.0741950" lon="-2.5010280">
        <ele>1551.5</ele>
        <time>2022-08-14T10:10:28Z</time>
      </trkpt>
      <trkpt lat="42.0741070" lon="-2.5010120">
        <ele>1550.7</ele>
        <time>2022-08-14T10:10:30Z</time>
      </trkpt>
      <trkpt lat="42.0740550" lon="-2.5010010">
        <ele>1550.1</ele>
        <time>2022-08-14T10:10:31Z</time>
      </trkpt>
      <trkpt lat="42.0739680" lon="-2.5009720">
        <ele>1549.3</ele>
        <time>2022-08-14T10:10:33Z</time>
      </trkpt>
      <trkpt lat="42.0737680" lon="-2.5009220">
        <ele>1547.3</ele>
        <time>2022-08-14T10:10:37Z</time>
      </trkpt>
      <trkpt lat="42.0737090" lon="-2.5009130">
        <ele>1546.7</ele>
        <time>2022-08-14T10:10:38Z</time>
      </trkpt>
      <trkpt lat="42.0735920" lon="-2.5008990">
        <ele>1545.6</ele>
        <time>2022-08-14T10:10:40Z</time>
      </trkpt>
      <trkpt lat="42.0735290" lon="-2.5008970">
        <ele>1545.0</ele>
        <time>2022-08-14T10:10:41Z</time>
      </trkpt>
      <trkpt lat="42.0734170" lon="-2.5009030">
        <ele>1543.9</ele>
        <time>2022-08-14T10:10:43Z</time>
      </trkpt>
      <trkpt lat="42.0733650" lon="-2.5009120">
        <ele>1543.3</ele>
        <time>2022-08-14T10:10:44Z</time>
      </trkpt>
      <trkpt lat="42.0733140" lon="-2.5009260">
        <ele>1542.8</ele>
        <time>2022-08-14T10:10:45Z</time>
      </trkpt>
      <trkpt lat="42.0731660" lon="-2.5009880">
        <ele>1541.3</ele>
        <time>2022-08-14T10:10:48Z</time>
      </trkpt>
      <trkpt lat="42.0730610" lon="-2.5010270">
        <ele>1540.3</ele>
        <time>2022-08-14T10:10:50Z</time>
      </trkpt>
      <trkpt lat="42.0729030" lon="-2.5010840">
        <ele>1538.7</ele>
        <time>2022-08-14T10:10:53Z</time>
      </trkpt>
      <trkpt lat="42.0727840" lon="-2.5011230">
        <ele>1537.5</ele>
        <time>2022-08-14T10:10:55Z</time>
      </trkpt>
      <trkpt lat="42.0727320" lon="-2.5011410">
        <ele>1537.0</ele>
        <time>2022-08-14T10:10:56Z</time>
      </trkpt>
      <trkpt lat="42.0726820" lon="-2.5011620">
        <ele>1536.4</ele>
        <time>2022-08-14T10:10:57Z</time>
      </trkpt>
      <trkpt lat="42.0726360" lon="-2.5011820">
        <ele>1536.0</ele>
        <time>2022-08-14T10:10:58Z</time>
      </trkpt>
      <trkpt lat="42.0725970" lon="-2.5011970">
        <ele>1535.6</ele>
        <time>2022-08-14T10:10:59Z</time>
      </trkpt>
      <trkpt lat="42.0725590" lon="-2.5012090">
        <ele>1535.2</ele>
        <time>2022-08-14T10:11:00Z</time>
      </trkpt>
      <trkpt lat="42.0725190" lon="-2.5012200">
        <ele>1534.8</ele>
        <time>2022-08-14T10:11:01Z</time>
      </trkpt>
      <trkpt lat="42.0724470" lon="-2.5012180">
        <ele>1534.1</ele>
        <time>2022-08-14T10:11:03Z</time>
      </trkpt>
      <trkpt lat="42.0724180" lon="-2.5012070">
        <ele>1533.8</ele>
        <time>2022-08-14T10:11:04Z</time>
      </trkpt>
      <trkpt lat="42.0724020" lon="-2.5011930">
        <ele>1533.6</ele>
        <time>2022-08-14T10:11:05Z</time>
      </trkpt>
      <trkpt lat="42.0723590" lon="-2.5011480">
        <ele>1533.1</ele>
        <time>2022-08-14T10:11:07Z</time>
      </trkpt>
      <trkpt lat="42.0723440" lon="-2.5011340">
        <ele>1532.9</ele>
        <time>2022-08-14T10:11:08Z</time>
      </trkpt>
      <trkpt lat="42.0723270" lon="-2.5011200">
        <ele>1532.7</ele>
        <time>2022-08-14T10:11:09Z</time>
      </trkpt>
      <trkpt lat="42.0722660" lon="-2.5010700">
        <ele>1532.0</ele>
        <time>2022-08-14T10:11:12Z</time>
      </trkpt>
      <trkpt lat="42.0722550" lon="-2.5010490">
        <ele>1531.8</ele>
        <time>2022-08-14T10:11:13Z</time>
      </trkpt>
      <trkpt lat="42.0722440" lon="-2.5010320">
        <ele>1531.7</ele>
        <time>2022-08-14T10:11:14Z</time>
      </trkpt>
      <trkpt lat="42.0722390" lon="-2.5010260">
        <ele>1531.6</ele>
        <time>2022-08-14T10:11:15Z</time>
      </trkpt>
      <trkpt lat="42.0722390" lon="-2.5010260">
        <ele>1531.6</ele>
        <time>2022-08-14T10:11:16Z</time>
      </trkpt>
      <trkpt lat="42.0722400" lon="-2.5010230">
        <ele>1531.6</ele>
        <time>2022-08-14T10:11:53Z</time>
      </trkpt>
      <trkpt lat="42.0722430" lon="-2.5009970">
        <ele>1531.4</ele>
        <time>2022-08-14T10:11:54Z</time>
      </trkpt>
      <trkpt lat="42.0722450" lon="-2.5009250">
        <ele>1530.9</ele>
        <time>2022-08-14T10:11:56Z</time>
      </trkpt>
      <trkpt lat="42.0722410" lon="-2.5008350">
        <ele>1530.2</ele>
        <time>2022-08-14T10:11:58Z</time>
      </trkpt>
      <trkpt lat="42.0722420" lon="-2.5007820">
        <ele>1529.8</ele>
        <time>2022-08-14T10:11:59Z</time>
      </trkpt>
      <trkpt lat="42.0722610" lon="-2.5007230">
        <ele>1529.4</ele>
        <time>2022-08-14T10:12:00Z</time>
      </trkpt>
      <trkpt lat="42.0722810" lon="-2.5006550">
        <ele>1528.8</ele>
        <time>2022-08-14T10:12:01Z</time>
      </trkpt>
      <trkpt lat="42.0723250" lon="-2.5004190">
        <ele>1527.1</ele>
        <time>2022-08-14T10:12:04Z</time>
      </trkpt>
      <trkpt lat="42.0723410" lon="-2.5003360">
        <ele>1526.5</ele>
        <time>2022-08-14T10:12:05Z</time>
      </trkpt>
      <trkpt lat="42.0723600" lon="-2.5002550">
        <ele>1525.8</ele>
        <time>2022-08-14T10:12:06Z</time>
      </trkpt>
      <trkpt lat="42.0723910" lon="-2.5000710">
        <ele>1524.5</ele>
        <time>2022-08-14T10:12:08Z</time>
      </trkpt>
      <trkpt lat="42.0724260" lon="-2.4998800">
        <ele>1523.0</ele>
        <time>2022-08-14T10:12:10Z</time>
      </trkpt>
      <trkpt lat="42.0724530" lon="-2.4996980">
        <ele>1521.7</ele>
        <time>2022-08-14T10:12:12Z</time>
      </trkpt>
      <trkpt lat="42.0724810" lon="-2.4995320">
        <ele>1520.5</ele>
        <time>2022-08-14T10:12:14Z</time>
      </trkpt>
      <trkpt lat="42.0725030" lon="-2.4993480">
        <ele>1519.1</ele>
        <time>2022-08-14T10:12:16Z</time>
      </trkpt>
      <trkpt lat="42.0725170" lon="-2.4990600">
        <ele>1517.0</ele>
        <time>2022-08-14T10:12:19Z</time>
      </trkpt>
      <trkpt lat="42.0725150" lon="-2.4988170">
        <ele>1515.3</ele>
        <time>2022-08-14T10:12:22Z</time>
      </trkpt>
      <trkpt lat="42.0725330" lon="-2.4986820">
        <ele>1514.3</ele>
        <time>2022-08-14T10:12:24Z</time>
      </trkpt>
      <trkpt lat="42.0725230" lon="-2.4986090">
        <ele>1513.7</ele>
        <time>2022-08-14T10:12:25Z</time>
      </trkpt>
      <trkpt lat="42.0725230" lon="-2.4984590">
        <ele>1512.7</ele>
        <time>2022-08-14T10:12:27Z</time>
      </trkpt>
      <trkpt lat="42.0725480" lon="-2.4983060">
        <ele>1511.5</ele>
        <time>2022-08-14T10:12:29Z</time>
      </trkpt>
      <trkpt lat="42.0725640" lon="-2.4982180">
        <ele>1510.9</ele>
        <time>2022-08-14T10:12:30Z</time>
      </trkpt>
      <trkpt lat="42.0725700" lon="-2.4981330">
        <ele>1510.3</ele>
        <time>2022-08-14T10:12:31Z</time>
      </trkpt>
      <trkpt lat="42.0725860" lon="-2.4979670">
        <ele>1509.0</ele>
        <time>2022-08-14T10:12:33Z</time>
      </trkpt>
      <trkpt lat="42.0725600" lon="-2.4978600">
        <ele>1508.2</ele>
        <time>2022-08-14T10:12:34Z</time>
      </trkpt>
      <trkpt lat="42.0725660" lon="-2.4977730">
        <ele>1507.6</ele>
        <time>2022-08-14T10:12:35Z</time>
      </trkpt>
      <trkpt lat="42.0725930" lon="-2.4977020">
        <ele>1507.0</ele>
        <time>2022-08-14T10:12:36Z</time>
      </trkpt>
      <trkpt lat="42.0726220" lon="-2.4976230">
        <ele>1506.4</ele>
        <time>2022-08-14T10:12:37Z</time>
      </trkpt>
      <trkpt lat="42.0727010" lon="-2.4974820">
        <ele>1505.1</ele>
        <time>2022-08-14T10:12:39Z</time>
      </trkpt>
      <trkpt lat="42.0727460" lon="-2.4974260">
        <ele>1504.5</ele>
        <time>2022-08-14T10:12:40Z</time>
      </trkpt>
      <trkpt lat="42.0728000" lon="-2.4973810">
        <ele>1503.9</ele>
        <time>2022-08-14T10:12:41Z</time>
      </trkpt>
      <trkpt lat="42.0729210" lon="-2.4972760">
        <ele>1502.5</ele>
        <time>2022-08-14T10:12:43Z</time>
      </trkpt>
      <trkpt lat="42.0730070" lon="-2.4972160">
        <ele>1501.5</ele>
        <time>2022-08-14T10:12:45Z</time>
      </trkpt>
      <trkpt lat="42.0730670" lon="-2.4971980">
        <ele>1500.9</ele>
        <time>2022-08-14T10:12:46Z</time>
      </trkpt>
      <trkpt lat="42.0731170" lon="-2.4971930">
        <ele>1500.4</ele>
        <time>2022-08-14T10:12:47Z</time>
      </trkpt>
      <trkpt lat="42.0731630" lon="-2.4971930">
        <ele>1500.0</ele>
        <time>2022-08-14T10:12:48Z</time>
      </trkpt>
      <trkpt lat="42.0732220" lon="-2.4972030">
        <ele>1499.4</ele>
        <time>2022-08-14T10:12:49Z</time>
      </trkpt>
      <trkpt lat="42.0732810" lon="-2.4971980">
        <ele>1498.8</ele>
        <time>2022-08-14T10:12:50Z</time>
      </trkpt>
      <trkpt lat="42.0734680" lon="-2.4971820">
        <ele>1497.0</ele>
        <time>2022-08-14T10:12:53Z</time>
      </trkpt>
      <trkpt lat="42.0735170" lon="-2.4971710">
        <ele>1496.5</ele>
        <time>2022-08-14T10:12:54Z</time>
      </trkpt>
      <trkpt lat="42.0736790" lon="-2.4971270">
        <ele>1494.9</ele>
        <time>2022-08-14T10:12:56Z</time>
      </trkpt>
      <trkpt lat="42.0737370" lon="-2.4971100">
        <ele>1494.3</ele>
        <time>2022-08-14T10:12:57Z</time>
      </trkpt>
      <trkpt lat="42.0737920" lon="-2.4970930">
        <ele>1493.8</ele>
        <time>2022-08-14T10:12:58Z</time>
      </trkpt>
      <trkpt lat="42.0738540" lon="-2.4970710">
        <ele>1493.2</ele>
        <time>2022-08-14T10:12:59Z</time>
      </trkpt>
      <trkpt lat="42.0739080" lon="-2.4970600">
        <ele>1492.6</ele>
        <time>2022-08-14T10:13:00Z</time>
      </trkpt>
      <trkpt lat="42.0739630" lon="-2.4970440">
        <ele>1492.1</ele>
        <time>2022-08-14T10:13:01Z</time>
      </trkpt>
      <trkpt lat="42.0740460" lon="-2.4970400">
        <ele>1491.3</ele>
        <time>2022-08-14T10:13:03Z</time>
      </trkpt>
      <trkpt lat="42.0741420" lon="-2.4970740">
        <ele>1490.3</ele>
        <time>2022-08-14T10:13:05Z</time>
      </trkpt>
      <trkpt lat="42.0741760" lon="-2.4971050">
        <ele>1489.9</ele>
        <time>2022-08-14T10:13:06Z</time>
      </trkpt>
      <trkpt lat="42.0742110" lon="-2.4971470">
        <ele>1489.4</ele>
        <time>2022-08-14T10:13:07Z</time>
      </trkpt>
      <trkpt lat="42.0742900" lon="-2.4972630">
        <ele>1488.3</ele>
        <time>2022-08-14T10:13:09Z</time>
      </trkpt>
      <trkpt lat="42.0743100" lon="-2.4973170">
        <ele>1487.9</ele>
        <time>2022-08-14T10:13:10Z</time>
      </trkpt>
      <trkpt lat="42.0743370" lon="-2.4974160">
        <ele>1487.1</ele>
        <time>2022-08-14T10:13:12Z</time>
      </trkpt>
      <trkpt lat="42.0743470" lon="-2.4974710">
        <ele>1486.7</ele>
        <time>2022-08-14T10:13:13Z</time>
      </trkpt>
      <trkpt lat="42.0743500" lon="-2.4975840">
        <ele>1485.9</ele>
        <time>2022-08-14T10:13:15Z</time>
      </trkpt>
      <trkpt lat="42.0744230" lon="-2.4977740">
        <ele>1484.3</ele>
        <time>2022-08-14T10:13:19Z</time>
      </trkpt>
      <trkpt lat="42.0744550" lon="-2.4977850">
        <ele>1484.0</ele>
        <time>2022-08-14T10:13:20Z</time>
      </trkpt>
      <trkpt lat="42.0745300" lon="-2.4977760">
        <ele>1483.3</ele>
        <time>2022-08-14T10:13:22Z</time>
      </trkpt>
      <trkpt lat="42.0745520" lon="-2.4977730">
        <ele>1483.1</ele>
        <time>2022-08-14T10:13:23Z</time>
      </trkpt>
      <trkpt lat="42.0746140" lon="-2.4977160">
        <ele>1482.3</ele>
        <time>2022-08-14T10:13:25Z</time>
      </trkpt>
      <trkpt lat="42.0746520" lon="-2.4976670">
        <ele>1481.8</ele>
        <time>2022-08-14T10:13:26Z</time>
      </trkpt>
      <trkpt lat="42.0747000" lon="-2.4975900">
        <ele>1480.7</ele>
        <time>2022-08-14T10:13:27Z</time>
      </trkpt>
      <trkpt lat="42.0747400" lon="-2.4975330">
        <ele>1480.0</ele>
        <time>2022-08-14T10:13:28Z</time>
      </trkpt>
      <trkpt lat="42.0747760" lon="-2.4974730">
        <ele>1479.4</ele>
        <time>2022-08-14T10:13:29Z</time>
      </trkpt>
      <trkpt lat="42.0748360" lon="-2.4973470">
        <ele>1478.1</ele>
        <time>2022-08-14T10:13:31Z</time>
      </trkpt>
      <trkpt lat="42.0748550" lon="-2.4973000">
        <ele>1477.7</ele>
        <time>2022-08-14T10:13:32Z</time>
      </trkpt>
      <trkpt lat="42.0748800" lon="-2.4972560">
        <ele>1477.2</ele>
        <time>2022-08-14T10:13:33Z</time>
      </trkpt>
      <trkpt lat="42.0749360" lon="-2.4971880">
        <ele>1476.4</ele>
        <time>2022-08-14T10:13:35Z</time>
      </trkpt>
      <trkpt lat="42.0750030" lon="-2.4970920">
        <ele>1475.2</ele>
        <time>2022-08-14T10:13:37Z</time>
      </trkpt>
      <trkpt lat="42.0750400" lon="-2.4970460">
        <ele>1474.7</ele>
        <time>2022-08-14T10:13:38Z</time>
      </trkpt>
      <trkpt lat="42.0750810" lon="-2.4969910">
        <ele>1474.0</ele>
        <time>2022-08-14T10:13:39Z</time>
      </trkpt>
      <trkpt lat="42.0751500" lon="-2.4968640">
        <ele>1472.7</ele>
        <time>2022-08-14T10:13:41Z</time>
      </trkpt>
      <trkpt lat="42.0751840" lon="-2.4967950">
        <ele>1472.0</ele>
        <time>2022-08-14T10:13:42Z</time>
      </trkpt>
      <trkpt lat="42.0752360" lon="-2.4966440">
        <ele>1470.6</ele>
        <time>2022-08-14T10:13:44Z</time>
      </trkpt>
      <trkpt lat="42.0752570" lon="-2.4965670">
        <ele>1469.9</ele>
        <time>2022-08-14T10:13:45Z</time>
      </trkpt>
      <trkpt lat="42.0752830" lon="-2.4964930">
        <ele>1469.2</ele>
        <time>2022-08-14T10:13:46Z</time>
      </trkpt>
      <trkpt lat="42.0753180" lon="-2.4964200">
        <ele>1468.5</ele>
        <time>2022-08-14T10:13:47Z</time>
      </trkpt>
      <trkpt lat="42.0753500" lon="-2.4963520">
        <ele>1467.8</ele>
        <time>2022-08-14T10:13:48Z</time>
      </trkpt>
      <trkpt lat="42.0753920" lon="-2.4962800">
        <ele>1467.0</ele>
        <time>2022-08-14T10:13:49Z</time>
      </trkpt>
      <trkpt lat="42.0754230" lon="-2.4962190">
        <ele>1466.4</ele>
        <time>2022-08-14T10:13:50Z</time>
      </trkpt>
      <trkpt lat="42.0755010" lon="-2.4961150">
        <ele>1465.1</ele>
        <time>2022-08-14T10:13:52Z</time>
      </trkpt>
      <trkpt lat="42.0755510" lon="-2.4960650">
        <ele>1464.4</ele>
        <time>2022-08-14T10:13:53Z</time>
      </trkpt>
      <trkpt lat="42.0756450" lon="-2.4959610">
        <ele>1463.1</ele>
        <time>2022-08-14T10:13:55Z</time>
      </trkpt>
      <trkpt lat="42.0757240" lon="-2.4958470">
        <ele>1461.7</ele>
        <time>2022-08-14T10:13:57Z</time>
      </trkpt>
      <trkpt lat="42.0757640" lon="-2.4957970">
        <ele>1461.1</ele>
        <time>2022-08-14T10:13:58Z</time>
      </trkpt>
      <trkpt lat="42.0758060" lon="-2.4957410">
        <ele>1460.4</ele>
        <time>2022-08-14T10:13:59Z</time>
      </trkpt>
      <trkpt lat="42.0758690" lon="-2.4956290">
        <ele>1459.3</ele>
        <time>2022-08-14T10:14:01Z</time>
      </trkpt>
      <trkpt lat="42.0759560" lon="-2.4955120">
        <ele>1457.9</ele>
        <time>2022-08-14T10:14:03Z</time>
      </trkpt>
      <trkpt lat="42.0759930" lon="-2.4954420">
        <ele>1457.1</ele>
        <time>2022-08-14T10:14:04Z</time>
      </trkpt>
      <trkpt lat="42.0760110" lon="-2.4953770">
        <ele>1456.6</ele>
        <time>2022-08-14T10:14:05Z</time>
      </trkpt>
      <trkpt lat="42.0760060" lon="-2.4953110">
        <ele>1456.0</ele>
        <time>2022-08-14T10:14:06Z</time>
      </trkpt>
      <trkpt lat="42.0759810" lon="-2.4952420">
        <ele>1455.3</ele>
        <time>2022-08-14T10:14:07Z</time>
      </trkpt>
      <trkpt lat="42.0759700" lon="-2.4951660">
        <ele>1454.7</ele>
        <time>2022-08-14T10:14:08Z</time>
      </trkpt>
      <trkpt lat="42.0759400" lon="-2.4950980">
        <ele>1454.0</ele>
        <time>2022-08-14T10:14:09Z</time>
      </trkpt>
      <trkpt lat="42.0759150" lon="-2.4949690">
        <ele>1452.9</ele>
        <time>2022-08-14T10:14:11Z</time>
      </trkpt>
      <trkpt lat="42.0759090" lon="-2.4949060">
        <ele>1452.4</ele>
        <time>2022-08-14T10:14:12Z</time>
      </trkpt>
      <trkpt lat="42.0759100" lon="-2.4948610">
        <ele>1452.0</ele>
        <time>2022-08-14T10:14:13Z</time>
      </trkpt>
      <trkpt lat="42.0759170" lon="-2.4948130">
        <ele>1451.6</ele>
        <time>2022-08-14T10:14:14Z</time>
      </trkpt>
      <trkpt lat="42.0759330" lon="-2.4947890">
        <ele>1451.3</ele>
        <time>2022-08-14T10:14:15Z</time>
      </trkpt>
      <trkpt lat="42.0759520" lon="-2.4947730">
        <ele>1451.0</ele>
        <time>2022-08-14T10:14:16Z</time>
      </trkpt>
      <trkpt lat="42.0759730" lon="-2.4947610">
        <ele>1450.8</ele>
        <time>2022-08-14T10:14:17Z</time>
      </trkpt>
      <trkpt lat="42.0760280" lon="-2.4947270">
        <ele>1450.1</ele>
        <time>2022-08-14T10:14:19Z</time>
      </trkpt>
      <trkpt lat="42.0760560" lon="-2.4947090">
        <ele>1449.7</ele>
        <time>2022-08-14T10:14:20Z</time>
      </trkpt>
      <trkpt lat="42.0760870" lon="-2.4946850">
        <ele>1449.3</ele>
        <time>2022-08-14T10:14:21Z</time>
      </trkpt>
      <trkpt lat="42.0761190" lon="-2.4946560">
        <ele>1448.9</ele>
        <time>2022-08-14T10:14:22Z</time>
      </trkpt>
      <trkpt lat="42.0761460" lon="-2.4946200">
        <ele>1448.5</ele>
        <time>2022-08-14T10:14:23Z</time>
      </trkpt>
      <trkpt lat="42.0761700" lon="-2.4945690">
        <ele>1448.0</ele>
        <time>2022-08-14T10:14:24Z</time>
      </trkpt>
      <trkpt lat="42.0761940" lon="-2.4945180">
        <ele>1447.5</ele>
        <time>2022-08-14T10:14:25Z</time>
      </trkpt>
      <trkpt lat="42.0762140" lon="-2.4944740">
        <ele>1447.0</ele>
        <time>2022-08-14T10:14:26Z</time>
      </trkpt>
      <trkpt lat="42.0762250" lon="-2.4944310">
        <ele>1446.6</ele>
        <time>2022-08-14T10:14:27Z</time>
      </trkpt>
      <trkpt lat="42.0762310" lon="-2.4943920">
        <ele>1446.3</ele>
        <time>2022-08-14T10:14:28Z</time>
      </trkpt>
      <trkpt lat="42.0762310" lon="-2.4943370">
        <ele>1445.8</ele>
        <time>2022-08-14T10:14:30Z</time>
      </trkpt>
      <trkpt lat="42.0762280" lon="-2.4943240">
        <ele>1445.7</ele>
        <time>2022-08-14T10:14:32Z</time>
      </trkpt>
      <trkpt lat="42.0762280" lon="-2.4943050">
        <ele>1445.6</ele>
        <time>2022-08-14T10:15:56Z</time>
      </trkpt>
      <trkpt lat="42.0762270" lon="-2.4943010">
        <ele>1445.5</ele>
        <time>2022-08-14T10:15:57Z</time>
      </trkpt>
      <trkpt lat="42.0762100" lon="-2.4942310">
        <ele>1444.9</ele>
        <time>2022-08-14T10:15:59Z</time>
      </trkpt>
      <trkpt lat="42.0761970" lon="-2.4941460">
        <ele>1444.2</ele>
        <time>2022-08-14T10:16:01Z</time>
      </trkpt>
      <trkpt lat="42.0761950" lon="-2.4940970">
        <ele>1443.8</ele>
        <time>2022-08-14T10:16:02Z</time>
      </trkpt>
      <trkpt lat="42.0761980" lon="-2.4940460">
        <ele>1443.3</ele>
        <time>2022-08-14T10:16:03Z</time>
      </trkpt>
      <trkpt lat="42.0761980" lon="-2.4939980">
        <ele>1442.9</ele>
        <time>2022-08-14T10:16:04Z</time>
      </trkpt>
      <trkpt lat="42.0761610" lon="-2.4939130">
        <ele>1442.1</ele>
        <time>2022-08-14T10:16:06Z</time>
      </trkpt>
      <trkpt lat="42.0761270" lon="-2.4938400">
        <ele>1441.4</ele>
        <time>2022-08-14T10:16:08Z</time>
      </trkpt>
      <trkpt lat="42.0761190" lon="-2.4938040">
        <ele>1441.0</ele>
        <time>2022-08-14T10:16:09Z</time>
      </trkpt>
      <trkpt lat="42.0761290" lon="-2.4937610">
        <ele>1440.7</ele>
        <time>2022-08-14T10:16:10Z</time>
      </trkpt>
      <trkpt lat="42.0761520" lon="-2.4937140">
        <ele>1440.2</ele>
        <time>2022-08-14T10:16:12Z</time>
      </trkpt>
      <trkpt lat="42.0761950" lon="-2.4936480">
        <ele>1439.4</ele>
        <time>2022-08-14T10:16:14Z</time>
      </trkpt>
      <trkpt lat="42.0762350" lon="-2.4935750">
        <ele>1438.7</ele>
        <time>2022-08-14T10:16:16Z</time>
      </trkpt>
      <trkpt lat="42.0762450" lon="-2.4935230">
        <ele>1438.2</ele>
        <time>2022-08-14T10:16:17Z</time>
      </trkpt>
      <trkpt lat="42.0762750" lon="-2.4934720">
        <ele>1437.7</ele>
        <time>2022-08-14T10:16:18Z</time>
      </trkpt>
      <trkpt lat="42.0763180" lon="-2.4934050">
        <ele>1436.9</ele>
        <time>2022-08-14T10:16:19Z</time>
      </trkpt>
      <trkpt lat="42.0763720" lon="-2.4932720">
        <ele>1435.7</ele>
        <time>2022-08-14T10:16:21Z</time>
      </trkpt>
      <trkpt lat="42.0763770" lon="-2.4931530">
        <ele>1434.6</ele>
        <time>2022-08-14T10:16:23Z</time>
      </trkpt>
      <trkpt lat="42.0763740" lon="-2.4930970">
        <ele>1434.2</ele>
        <time>2022-08-14T10:16:24Z</time>
      </trkpt>
      <trkpt lat="42.0763420" lon="-2.4930500">
        <ele>1433.6</ele>
        <time>2022-08-14T10:16:25Z</time>
      </trkpt>
      <trkpt lat="42.0762580" lon="-2.4929920">
        <ele>1432.6</ele>
        <time>2022-08-14T10:16:27Z</time>
      </trkpt>
      <trkpt lat="42.0761850" lon="-2.4928980">
        <ele>1431.4</ele>
        <time>2022-08-14T10:16:30Z</time>
      </trkpt>
      <trkpt lat="42.0761850" lon="-2.4928580">
        <ele>1431.1</ele>
        <time>2022-08-14T10:16:31Z</time>
      </trkpt>
      <trkpt lat="42.0761650" lon="-2.4927650">
        <ele>1430.3</ele>
        <time>2022-08-14T10:16:33Z</time>
      </trkpt>
      <trkpt lat="42.0762590" lon="-2.4926020">
        <ele>1428.5</ele>
        <time>2022-08-14T10:16:36Z</time>
      </trkpt>
      <trkpt lat="42.0762950" lon="-2.4925610">
        <ele>1428.0</ele>
        <time>2022-08-14T10:16:37Z</time>
      </trkpt>
      <trkpt lat="42.0763270" lon="-2.4925440">
        <ele>1427.6</ele>
        <time>2022-08-14T10:16:38Z</time>
      </trkpt>
      <trkpt lat="42.0764480" lon="-2.4925140">
        <ele>1426.2</ele>
        <time>2022-08-14T10:16:41Z</time>
      </trkpt>
      <trkpt lat="42.0765480" lon="-2.4924790">
        <ele>1425.0</ele>
        <time>2022-08-14T10:16:43Z</time>
      </trkpt>
      <trkpt lat="42.0766050" lon="-2.4924750">
        <ele>1424.4</ele>
        <time>2022-08-14T10:16:44Z</time>
      </trkpt>
      <trkpt lat="42.0766490" lon="-2.4924850">
        <ele>1423.9</ele>
        <time>2022-08-14T10:16:45Z</time>
      </trkpt>
      <trkpt lat="42.0767340" lon="-2.4925780">
        <ele>1422.6</ele>
        <time>2022-08-14T10:16:47Z</time>
      </trkpt>
      <trkpt lat="42.0767560" lon="-2.4926390">
        <ele>1422.1</ele>
        <time>2022-08-14T10:16:48Z</time>
      </trkpt>
      <trkpt lat="42.0767800" lon="-2.4927030">
        <ele>1421.4</ele>
        <time>2022-08-14T10:16:49Z</time>
      </trkpt>
      <trkpt lat="42.0767990" lon="-2.4927620">
        <ele>1420.9</ele>
        <time>2022-08-14T10:16:50Z</time>
      </trkpt>
      <trkpt lat="42.0768210" lon="-2.4928620">
        <ele>1420.0</ele>
        <time>2022-08-14T10:16:52Z</time>
      </trkpt>
      <trkpt lat="42.0768330" lon="-2.4929060">
        <ele>1419.6</ele>
        <time>2022-08-14T10:16:53Z</time>
      </trkpt>
      <trkpt lat="42.0768400" lon="-2.4930120">
        <ele>1418.7</ele>
        <time>2022-08-14T10:16:55Z</time>
      </trkpt>
      <trkpt lat="42.0768470" lon="-2.4930660">
        <ele>1418.3</ele>
        <time>2022-08-14T10:16:56Z</time>
      </trkpt>
      <trkpt lat="42.0768610" lon="-2.4931210">
        <ele>1417.8</ele>
        <time>2022-08-14T10:16:57Z</time>
      </trkpt>
      <trkpt lat="42.0768820" lon="-2.4931570">
        <ele>1417.4</ele>
        <time>2022-08-14T10:16:58Z</time>
      </trkpt>
      <trkpt lat="42.0769460" lon="-2.4931870">
        <ele>1416.6</ele>
        <time>2022-08-14T10:17:00Z</time>
      </trkpt>
      <trkpt lat="42.0770110" lon="-2.4931610">
        <ele>1415.9</ele>
        <time>2022-08-14T10:17:02Z</time>
      </trkpt>
      <trkpt lat="42.0770790" lon="-2.4930560">
        <ele>1414.7</ele>
        <time>2022-08-14T10:17:04Z</time>
      </trkpt>
      <trkpt lat="42.0771560" lon="-2.4929480">
        <ele>1413.4</ele>
        <time>2022-08-14T10:17:06Z</time>
      </trkpt>
      <trkpt lat="42.0771900" lon="-2.4928920">
        <ele>1412.8</ele>
        <time>2022-08-14T10:17:07Z</time>
      </trkpt>
      <trkpt lat="42.0772070" lon="-2.4928310">
        <ele>1412.3</ele>
        <time>2022-08-14T10:17:08Z</time>
      </trkpt>
      <trkpt lat="42.0772420" lon="-2.4927050">
        <ele>1411.1</ele>
        <time>2022-08-14T10:17:10Z</time>
      </trkpt>
      <trkpt lat="42.0772580" lon="-2.4925670">
        <ele>1409.9</ele>
        <time>2022-08-14T10:17:12Z</time>
      </trkpt>
      <trkpt lat="42.0772850" lon="-2.4924290">
        <ele>1408.7</ele>
        <time>2022-08-14T10:17:14Z</time>
      </trkpt>
      <trkpt lat="42.0773000" lon="-2.4923610">
        <ele>1408.1</ele>
        <time>2022-08-14T10:17:15Z</time>
      </trkpt>
      <trkpt lat="42.0773310" lon="-2.4922320">
        <ele>1407.0</ele>
        <time>2022-08-14T10:17:17Z</time>
      </trkpt>
      <trkpt lat="42.0773660" lon="-2.4921100">
        <ele>1405.9</ele>
        <time>2022-08-14T10:17:19Z</time>
      </trkpt>
      <trkpt lat="42.0773860" lon="-2.4919850">
        <ele>1404.8</ele>
        <time>2022-08-14T10:17:21Z</time>
      </trkpt>
      <trkpt lat="42.0773890" lon="-2.4919190">
        <ele>1404.3</ele>
        <time>2022-08-14T10:17:22Z</time>
      </trkpt>
      <trkpt lat="42.0773890" lon="-2.4918560">
        <ele>1403.7</ele>
        <time>2022-08-14T10:17:23Z</time>
      </trkpt>
      <trkpt lat="42.0773790" lon="-2.4917980">
        <ele>1403.2</ele>
        <time>2022-08-14T10:17:24Z</time>
      </trkpt>
      <trkpt lat="42.0773660" lon="-2.4917420">
        <ele>1402.7</ele>
        <time>2022-08-14T10:17:25Z</time>
      </trkpt>
      <trkpt lat="42.0773500" lon="-2.4916890">
        <ele>1402.2</ele>
        <time>2022-08-14T10:17:26Z</time>
      </trkpt>
      <trkpt lat="42.0773240" lon="-2.4916390">
        <ele>1401.7</ele>
        <time>2022-08-14T10:17:27Z</time>
      </trkpt>
      <trkpt lat="42.0772900" lon="-2.4915950">
        <ele>1401.2</ele>
        <time>2022-08-14T10:17:28Z</time>
      </trkpt>
      <trkpt lat="42.0772530" lon="-2.4915550">
        <ele>1400.7</ele>
        <time>2022-08-14T10:17:29Z</time>
      </trkpt>
      <trkpt lat="42.0772200" lon="-2.4915140">
        <ele>1400.1</ele>
        <time>2022-08-14T10:17:30Z</time>
      </trkpt>
      <trkpt lat="42.0771690" lon="-2.4913890">
        <ele>1398.9</ele>
        <time>2022-08-14T10:17:33Z</time>
      </trkpt>
      <trkpt lat="42.0771720" lon="-2.4913480">
        <ele>1398.6</ele>
        <time>2022-08-14T10:17:34Z</time>
      </trkpt>
      <trkpt lat="42.0771860" lon="-2.4913110">
        <ele>1398.2</ele>
        <time>2022-08-14T10:17:35Z</time>
      </trkpt>
      <trkpt lat="42.0772100" lon="-2.4912780">
        <ele>1397.9</ele>
        <time>2022-08-14T10:17:36Z</time>
      </trkpt>
      <trkpt lat="42.0772970" lon="-2.4912240">
        <ele>1396.8</ele>
        <time>2022-08-14T10:17:39Z</time>
      </trkpt>
      <trkpt lat="42.0773320" lon="-2.4912050">
        <ele>1396.3</ele>
        <time>2022-08-14T10:17:40Z</time>
      </trkpt>
      <trkpt lat="42.0773620" lon="-2.4911970">
        <ele>1396.0</ele>
        <time>2022-08-14T10:17:41Z</time>
      </trkpt>
      <trkpt lat="42.0773880" lon="-2.4911890">
        <ele>1395.7</ele>
        <time>2022-08-14T10:17:42Z</time>
      </trkpt>
      <trkpt lat="42.0774450" lon="-2.4911380">
        <ele>1394.9</ele>
        <time>2022-08-14T10:17:44Z</time>
      </trkpt>
      <trkpt lat="42.0774690" lon="-2.4910970">
        <ele>1394.5</ele>
        <time>2022-08-14T10:17:45Z</time>
      </trkpt>
      <trkpt lat="42.0774830" lon="-2.4910090">
        <ele>1393.7</ele>
        <time>2022-08-14T10:17:47Z</time>
      </trkpt>
      <trkpt lat="42.0774750" lon="-2.4909750">
        <ele>1393.4</ele>
        <time>2022-08-14T10:17:48Z</time>
      </trkpt>
      <trkpt lat="42.0774540" lon="-2.4909480">
        <ele>1393.1</ele>
        <time>2022-08-14T10:17:49Z</time>
      </trkpt>
      <trkpt lat="42.0774230" lon="-2.4909280">
        <ele>1392.7</ele>
        <time>2022-08-14T10:17:50Z</time>
      </trkpt>
      <trkpt lat="42.0773270" lon="-2.4908890">
        <ele>1391.5</ele>
        <time>2022-08-14T10:17:53Z</time>
      </trkpt>
      <trkpt lat="42.0772710" lon="-2.4908820">
        <ele>1390.9</ele>
        <time>2022-08-14T10:17:55Z</time>
      </trkpt>
      <trkpt lat="42.0772070" lon="-2.4908550">
        <ele>1390.1</ele>
        <time>2022-08-14T10:17:57Z</time>
      </trkpt>
      <trkpt lat="42.0771610" lon="-2.4907900">
        <ele>1389.4</ele>
        <time>2022-08-14T10:17:59Z</time>
      </trkpt>
      <trkpt lat="42.0771520" lon="-2.4907480">
        <ele>1389.0</ele>
        <time>2022-08-14T10:18:00Z</time>
      </trkpt>
      <trkpt lat="42.0771520" lon="-2.4907010">
        <ele>1388.6</ele>
        <time>2022-08-14T10:18:01Z</time>
      </trkpt>
      <trkpt lat="42.0771570" lon="-2.4906520">
        <ele>1388.2</ele>
        <time>2022-08-14T10:18:02Z</time>
      </trkpt>
      <trkpt lat="42.0771700" lon="-2.4906170">
        <ele>1387.9</ele>
        <time>2022-08-14T10:18:03Z</time>
      </trkpt>
      <trkpt lat="42.0771890" lon="-2.4905870">
        <ele>1387.5</ele>
        <time>2022-08-14T10:18:04Z</time>
      </trkpt>
      <trkpt lat="42.0772560" lon="-2.4905180">
        <ele>1386.6</ele>
        <time>2022-08-14T10:18:06Z</time>
      </trkpt>
      <trkpt lat="42.0773130" lon="-2.4904740">
        <ele>1385.8</ele>
        <time>2022-08-14T10:18:08Z</time>
      </trkpt>
      <trkpt lat="42.0774000" lon="-2.4904010">
        <ele>1384.7</ele>
        <time>2022-08-14T10:18:10Z</time>
      </trkpt>
      <trkpt lat="42.0774380" lon="-2.4903420">
        <ele>1384.0</ele>
        <time>2022-08-14T10:18:11Z</time>
      </trkpt>
      <trkpt lat="42.0774550" lon="-2.4902790">
        <ele>1383.5</ele>
        <time>2022-08-14T10:18:12Z</time>
      </trkpt>
      <trkpt lat="42.0774650" lon="-2.4902200">
        <ele>1383.1</ele>
        <time>2022-08-14T10:18:13Z</time>
      </trkpt>
      <trkpt lat="42.0774600" lon="-2.4901090">
        <ele>1382.3</ele>
        <time>2022-08-14T10:18:15Z</time>
      </trkpt>
      <trkpt lat="42.0774540" lon="-2.4900570">
        <ele>1381.9</ele>
        <time>2022-08-14T10:18:16Z</time>
      </trkpt>
      <trkpt lat="42.0774380" lon="-2.4900160">
        <ele>1381.6</ele>
        <time>2022-08-14T10:18:17Z</time>
      </trkpt>
      <trkpt lat="42.0773840" lon="-2.4899540">
        <ele>1381.0</ele>
        <time>2022-08-14T10:18:19Z</time>
      </trkpt>
      <trkpt lat="42.0773400" lon="-2.4899170">
        <ele>1380.5</ele>
        <time>2022-08-14T10:18:20Z</time>
      </trkpt>
      <trkpt lat="42.0773210" lon="-2.4898770">
        <ele>1380.1</ele>
        <time>2022-08-14T10:18:21Z</time>
      </trkpt>
      <trkpt lat="42.0772560" lon="-2.4897730">
        <ele>1379.2</ele>
        <time>2022-08-14T10:18:23Z</time>
      </trkpt>
      <trkpt lat="42.0772060" lon="-2.4896770">
        <ele>1378.4</ele>
        <time>2022-08-14T10:18:25Z</time>
      </trkpt>
      <trkpt lat="42.0771850" lon="-2.4896360">
        <ele>1378.0</ele>
        <time>2022-08-14T10:18:26Z</time>
      </trkpt>
      <trkpt lat="42.0771470" lon="-2.4895750">
        <ele>1377.5</ele>
        <time>2022-08-14T10:18:27Z</time>
      </trkpt>
      <trkpt lat="42.0771310" lon="-2.4895260">
        <ele>1377.1</ele>
        <time>2022-08-14T10:18:28Z</time>
      </trkpt>
      <trkpt lat="42.0770800" lon="-2.4894260">
        <ele>1376.3</ele>
        <time>2022-08-14T10:18:30Z</time>
      </trkpt>
      <trkpt lat="42.0770470" lon="-2.4893990">
        <ele>1375.9</ele>
        <time>2022-08-14T10:18:31Z</time>
      </trkpt>
      <trkpt lat="42.0770260" lon="-2.4893840">
        <ele>1375.7</ele>
        <time>2022-08-14T10:18:32Z</time>
      </trkpt>
      <trkpt lat="42.0769990" lon="-2.4893600">
        <ele>1375.4</ele>
        <time>2022-08-14T10:18:33Z</time>
      </trkpt>
      <trkpt lat="42.0769720" lon="-2.4893310">
        <ele>1375.1</ele>
        <time>2022-08-14T10:18:34Z</time>
      </trkpt>
      <trkpt lat="42.0768290" lon="-2.4892470">
        <ele>1373.6</ele>
        <time>2022-08-14T10:18:36Z</time>
      </trkpt>
      <trkpt lat="42.0767780" lon="-2.4892190">
        <ele>1373.1</ele>
        <time>2022-08-14T10:18:37Z</time>
      </trkpt>
      <trkpt lat="42.0767470" lon="-2.4891920">
        <ele>1372.7</ele>
        <time>2022-08-14T10:18:38Z</time>
      </trkpt>
      <trkpt lat="42.0767140" lon="-2.4891600">
        <ele>1372.4</ele>
        <time>2022-08-14T10:18:39Z</time>
      </trkpt>
      <trkpt lat="42.0766750" lon="-2.4891170">
        <ele>1371.9</ele>
        <time>2022-08-14T10:18:40Z</time>
      </trkpt>
      <trkpt lat="42.0766310" lon="-2.4889950">
        <ele>1371.0</ele>
        <time>2022-08-14T10:18:42Z</time>
      </trkpt>
      <trkpt lat="42.0765950" lon="-2.4889180">
        <ele>1370.3</ele>
        <time>2022-08-14T10:18:43Z</time>
      </trkpt>
      <trkpt lat="42.0765580" lon="-2.4888340">
        <ele>1369.6</ele>
        <time>2022-08-14T10:18:44Z</time>
      </trkpt>
      <trkpt lat="42.0765400" lon="-2.4886740">
        <ele>1368.5</ele>
        <time>2022-08-14T10:18:46Z</time>
      </trkpt>
      <trkpt lat="42.0765500" lon="-2.4886170">
        <ele>1368.1</ele>
        <time>2022-08-14T10:18:47Z</time>
      </trkpt>
      <trkpt lat="42.0765800" lon="-2.4885360">
        <ele>1367.5</ele>
        <time>2022-08-14T10:18:49Z</time>
      </trkpt>
      <trkpt lat="42.0766340" lon="-2.4885390">
        <ele>1367.0</ele>
        <time>2022-08-14T10:18:51Z</time>
      </trkpt>
      <trkpt lat="42.0766660" lon="-2.4885660">
        <ele>1366.6</ele>
        <time>2022-08-14T10:18:52Z</time>
      </trkpt>
      <trkpt lat="42.0766920" lon="-2.4885930">
        <ele>1366.3</ele>
        <time>2022-08-14T10:18:53Z</time>
      </trkpt>
      <trkpt lat="42.0767170" lon="-2.4886230">
        <ele>1366.0</ele>
        <time>2022-08-14T10:18:54Z</time>
      </trkpt>
      <trkpt lat="42.0767740" lon="-2.4886680">
        <ele>1365.4</ele>
        <time>2022-08-14T10:18:56Z</time>
      </trkpt>
      <trkpt lat="42.0768730" lon="-2.4887460">
        <ele>1364.3</ele>
        <time>2022-08-14T10:18:59Z</time>
      </trkpt>
      <trkpt lat="42.0769090" lon="-2.4887640">
        <ele>1364.0</ele>
        <time>2022-08-14T10:19:00Z</time>
      </trkpt>
      <trkpt lat="42.0769370" lon="-2.4887650">
        <ele>1363.7</ele>
        <time>2022-08-14T10:19:01Z</time>
      </trkpt>
      <trkpt lat="42.0769640" lon="-2.4887390">
        <ele>1363.4</ele>
        <time>2022-08-14T10:19:02Z</time>
      </trkpt>
      <trkpt lat="42.0769590" lon="-2.4886920">
        <ele>1363.1</ele>
        <time>2022-08-14T10:19:04Z</time>
      </trkpt>
      <trkpt lat="42.0769270" lon="-2.4886720">
        <ele>1362.7</ele>
        <time>2022-08-14T10:19:05Z</time>
      </trkpt>
      <trkpt lat="42.0768880" lon="-2.4886530">
        <ele>1362.3</ele>
        <time>2022-08-14T10:19:06Z</time>
      </trkpt>
      <trkpt lat="42.0768320" lon="-2.4885760">
        <ele>1361.6</ele>
        <time>2022-08-14T10:19:08Z</time>
      </trkpt>
      <trkpt lat="42.0768160" lon="-2.4885460">
        <ele>1361.3</ele>
        <time>2022-08-14T10:19:09Z</time>
      </trkpt>
      <trkpt lat="42.0768090" lon="-2.4885180">
        <ele>1361.1</ele>
        <time>2022-08-14T10:19:10Z</time>
      </trkpt>
      <trkpt lat="42.0768110" lon="-2.4884910">
        <ele>1361.0</ele>
        <time>2022-08-14T10:19:11Z</time>
      </trkpt>
      <trkpt lat="42.0768160" lon="-2.4884660">
        <ele>1360.8</ele>
        <time>2022-08-14T10:19:12Z</time>
      </trkpt>
      <trkpt lat="42.0768230" lon="-2.4884490">
        <ele>1360.6</ele>
        <time>2022-08-14T10:19:13Z</time>
      </trkpt>
      <trkpt lat="42.0768340" lon="-2.4884310">
        <ele>1360.5</ele>
        <time>2022-08-14T10:19:16Z</time>
      </trkpt>
      <trkpt lat="42.0768480" lon="-2.4884350">
        <ele>1360.3</ele>
        <time>2022-08-14T10:19:17Z</time>
      </trkpt>
      <trkpt lat="42.0768590" lon="-2.4884410">
        <ele>1360.2</ele>
        <time>2022-08-14T10:19:18Z</time>
      </trkpt>
      <trkpt lat="42.0768830" lon="-2.4884650">
        <ele>1360.0</ele>
        <time>2022-08-14T10:19:20Z</time>
      </trkpt>
      <trkpt lat="42.0769270" lon="-2.4884920">
        <ele>1359.5</ele>
        <time>2022-08-14T10:19:22Z</time>
      </trkpt>
      <trkpt lat="42.0769460" lon="-2.4884990">
        <ele>1359.3</ele>
        <time>2022-08-14T10:19:23Z</time>
      </trkpt>
      <trkpt lat="42.0769700" lon="-2.4885010">
        <ele>1359.1</ele>
        <time>2022-08-14T10:19:24Z</time>
      </trkpt>
      <trkpt lat="42.0770010" lon="-2.4885000">
        <ele>1358.8</ele>
        <time>2022-08-14T10:19:25Z</time>
      </trkpt>
      <trkpt lat="42.0770580" lon="-2.4884930">
        <ele>1358.3</ele>
        <time>2022-08-14T10:19:27Z</time>
      </trkpt>
      <trkpt lat="42.0770980" lon="-2.4884860">
        <ele>1357.9</ele>
        <time>2022-08-14T10:19:28Z</time>
      </trkpt>
      <trkpt lat="42.0771270" lon="-2.4884730">
        <ele>1357.6</ele>
        <time>2022-08-14T10:19:29Z</time>
      </trkpt>
      <trkpt lat="42.0771730" lon="-2.4884550">
        <ele>1357.2</ele>
        <time>2022-08-14T10:19:31Z</time>
      </trkpt>
      <trkpt lat="42.0771900" lon="-2.4884430">
        <ele>1357.0</ele>
        <time>2022-08-14T10:19:32Z</time>
      </trkpt>
      <trkpt lat="42.0772500" lon="-2.4884170">
        <ele>1356.4</ele>
        <time>2022-08-14T10:19:34Z</time>
      </trkpt>
      <trkpt lat="42.0773080" lon="-2.4883730">
        <ele>1355.8</ele>
        <time>2022-08-14T10:19:35Z</time>
      </trkpt>
      <trkpt lat="42.0773660" lon="-2.4883210">
        <ele>1355.1</ele>
        <time>2022-08-14T10:19:36Z</time>
      </trkpt>
      <trkpt lat="42.0774350" lon="-2.4882810">
        <ele>1354.4</ele>
        <time>2022-08-14T10:19:37Z</time>
      </trkpt>
      <trkpt lat="42.0775240" lon="-2.4882230">
        <ele>1353.5</ele>
        <time>2022-08-14T10:19:39Z</time>
      </trkpt>
      <trkpt lat="42.0775690" lon="-2.4881870">
        <ele>1353.0</ele>
        <time>2022-08-14T10:19:40Z</time>
      </trkpt>
      <trkpt lat="42.0776050" lon="-2.4881420">
        <ele>1352.5</ele>
        <time>2022-08-14T10:19:41Z</time>
      </trkpt>
      <trkpt lat="42.0776440" lon="-2.4880740">
        <ele>1351.9</ele>
        <time>2022-08-14T10:19:42Z</time>
      </trkpt>
      <trkpt lat="42.0777020" lon="-2.4879790">
        <ele>1351.1</ele>
        <time>2022-08-14T10:19:44Z</time>
      </trkpt>
      <trkpt lat="42.0777890" lon="-2.4878860">
        <ele>1350.1</ele>
        <time>2022-08-14T10:19:46Z</time>
      </trkpt>
      <trkpt lat="42.0778050" lon="-2.4878450">
        <ele>1349.7</ele>
        <time>2022-08-14T10:19:47Z</time>
      </trkpt>
      <trkpt lat="42.0778530" lon="-2.4877730">
        <ele>1349.1</ele>
        <time>2022-08-14T10:19:49Z</time>
      </trkpt>
      <trkpt lat="42.0778790" lon="-2.4877090">
        <ele>1348.6</ele>
        <time>2022-08-14T10:19:50Z</time>
      </trkpt>
      <trkpt lat="42.0779260" lon="-2.4876530">
        <ele>1348.0</ele>
        <time>2022-08-14T10:19:51Z</time>
      </trkpt>
      <trkpt lat="42.0779660" lon="-2.4876200">
        <ele>1347.5</ele>
        <time>2022-08-14T10:19:52Z</time>
      </trkpt>
      <trkpt lat="42.0779960" lon="-2.4875780">
        <ele>1347.1</ele>
        <time>2022-08-14T10:19:53Z</time>
      </trkpt>
      <trkpt lat="42.0780580" lon="-2.4875530">
        <ele>1346.5</ele>
        <time>2022-08-14T10:19:55Z</time>
      </trkpt>
      <trkpt lat="42.0780870" lon="-2.4875350">
        <ele>1346.2</ele>
        <time>2022-08-14T10:19:56Z</time>
      </trkpt>
      <trkpt lat="42.0781200" lon="-2.4875240">
        <ele>1345.9</ele>
        <time>2022-08-14T10:19:57Z</time>
      </trkpt>
      <trkpt lat="42.0781450" lon="-2.4874980">
        <ele>1345.6</ele>
        <time>2022-08-14T10:19:58Z</time>
      </trkpt>
      <trkpt lat="42.0782200" lon="-2.4874070">
        <ele>1344.7</ele>
        <time>2022-08-14T10:20:00Z</time>
      </trkpt>
      <trkpt lat="42.0783410" lon="-2.4873250">
        <ele>1343.4</ele>
        <time>2022-08-14T10:20:02Z</time>
      </trkpt>
      <trkpt lat="42.0783910" lon="-2.4872830">
        <ele>1342.9</ele>
        <time>2022-08-14T10:20:03Z</time>
      </trkpt>
      <trkpt lat="42.0784380" lon="-2.4872370">
        <ele>1342.3</ele>
        <time>2022-08-14T10:20:04Z</time>
      </trkpt>
      <trkpt lat="42.0784730" lon="-2.4871930">
        <ele>1341.9</ele>
        <time>2022-08-14T10:20:05Z</time>
      </trkpt>
      <trkpt lat="42.0785490" lon="-2.4871310">
        <ele>1341.0</ele>
        <time>2022-08-14T10:20:07Z</time>
      </trkpt>
      <trkpt lat="42.0785580" lon="-2.4870990">
        <ele>1340.8</ele>
        <time>2022-08-14T10:20:08Z</time>
      </trkpt>
      <trkpt lat="42.0785780" lon="-2.4870650">
        <ele>1340.5</ele>
        <time>2022-08-14T10:20:09Z</time>
      </trkpt>
      <trkpt lat="42.0785980" lon="-2.4870160">
        <ele>1340.1</ele>
        <time>2022-08-14T10:20:10Z</time>
      </trkpt>
      <trkpt lat="42.0787480" lon="-2.4868700">
        <ele>1338.4</ele>
        <time>2022-08-14T10:20:15Z</time>
      </trkpt>
      <trkpt lat="42.0787720" lon="-2.4868490">
        <ele>1338.1</ele>
        <time>2022-08-14T10:20:16Z</time>
      </trkpt>
      <trkpt lat="42.0788310" lon="-2.4867750">
        <ele>1337.4</ele>
        <time>2022-08-14T10:20:19Z</time>
      </trkpt>
      <trkpt lat="42.0788580" lon="-2.4867460">
        <ele>1337.0</ele>
        <time>2022-08-14T10:20:20Z</time>
      </trkpt>
      <trkpt lat="42.0789210" lon="-2.4866810">
        <ele>1336.3</ele>
        <time>2022-08-14T10:20:22Z</time>
      </trkpt>
      <trkpt lat="42.0789760" lon="-2.4866460">
        <ele>1335.7</ele>
        <time>2022-08-14T10:20:24Z</time>
      </trkpt>
      <trkpt lat="42.0790340" lon="-2.4866330">
        <ele>1335.2</ele>
        <time>2022-08-14T10:20:26Z</time>
      </trkpt>
      <trkpt lat="42.0790660" lon="-2.4866190">
        <ele>1334.9</ele>
        <time>2022-08-14T10:20:27Z</time>
      </trkpt>
      <trkpt lat="42.0791100" lon="-2.4866210">
        <ele>1334.5</ele>
        <time>2022-08-14T10:20:29Z</time>
      </trkpt>
      <trkpt lat="42.0791230" lon="-2.4866240">
        <ele>1334.3</ele>
        <time>2022-08-14T10:20:30Z</time>
      </trkpt>
      <trkpt lat="42.0791270" lon="-2.4866240">
        <ele>1334.3</ele>
        <time>2022-08-14T10:22:45Z</time>
      </trkpt>
      <trkpt lat="42.0791290" lon="-2.4866260">
        <ele>1334.3</ele>
        <time>2022-08-14T10:22:46Z</time>
      </trkpt>
      <trkpt lat="42.0792140" lon="-2.4866920">
        <ele>1333.4</ele>
        <time>2022-08-14T10:22:49Z</time>
      </trkpt>
      <trkpt lat="42.0792440" lon="-2.4867180">
        <ele>1333.0</ele>
        <time>2022-08-14T10:22:50Z</time>
      </trkpt>
      <trkpt lat="42.0793210" lon="-2.4868230">
        <ele>1332.0</ele>
        <time>2022-08-14T10:22:53Z</time>
      </trkpt>
      <trkpt lat="42.0793870" lon="-2.4869010">
        <ele>1331.2</ele>
        <time>2022-08-14T10:22:55Z</time>
      </trkpt>
      <trkpt lat="42.0794220" lon="-2.4869380">
        <ele>1330.8</ele>
        <time>2022-08-14T10:22:56Z</time>
      </trkpt>
      <trkpt lat="42.0794600" lon="-2.4869740">
        <ele>1330.3</ele>
        <time>2022-08-14T10:22:57Z</time>
      </trkpt>
      <trkpt lat="42.0795340" lon="-2.4870490">
        <ele>1329.5</ele>
        <time>2022-08-14T10:22:59Z</time>
      </trkpt>
      <trkpt lat="42.0795700" lon="-2.4870790">
        <ele>1329.1</ele>
        <time>2022-08-14T10:23:00Z</time>
      </trkpt>
      <trkpt lat="42.0796340" lon="-2.4871230">
        <ele>1328.4</ele>
        <time>2022-08-14T10:23:02Z</time>
      </trkpt>
      <trkpt lat="42.0796580" lon="-2.4871500">
        <ele>1328.1</ele>
        <time>2022-08-14T10:23:03Z</time>
      </trkpt>
      <trkpt lat="42.0796830" lon="-2.4871760">
        <ele>1327.8</ele>
        <time>2022-08-14T10:23:04Z</time>
      </trkpt>
      <trkpt lat="42.0797200" lon="-2.4872040">
        <ele>1327.4</ele>
        <time>2022-08-14T10:23:05Z</time>
      </trkpt>
      <trkpt lat="42.0798080" lon="-2.4872440">
        <ele>1326.5</ele>
        <time>2022-08-14T10:23:08Z</time>
      </trkpt>
      <trkpt lat="42.0798390" lon="-2.4872440">
        <ele>1326.3</ele>
        <time>2022-08-14T10:23:09Z</time>
      </trkpt>
      <trkpt lat="42.0798670" lon="-2.4872330">
        <ele>1326.0</ele>
        <time>2022-08-14T10:23:10Z</time>
      </trkpt>
      <trkpt lat="42.0798920" lon="-2.4872280">
        <ele>1325.7</ele>
        <time>2022-08-14T10:23:11Z</time>
      </trkpt>
      <trkpt lat="42.0799180" lon="-2.4872120">
        <ele>1325.5</ele>
        <time>2022-08-14T10:23:13Z</time>
      </trkpt>
      <trkpt lat="42.0799390" lon="-2.4871880">
        <ele>1325.2</ele>
        <time>2022-08-14T10:23:15Z</time>
      </trkpt>
      <trkpt lat="42.0799410" lon="-2.4871830">
        <ele>1325.2</ele>
        <time>2022-08-14T10:23:16Z</time>
      </trkpt>
      <trkpt lat="42.0799520" lon="-2.4871630">
        <ele>1325.0</ele>
        <time>2022-08-14T10:23:17Z</time>
      </trkpt>
      <trkpt lat="42.0799730" lon="-2.4871460">
        <ele>1324.8</ele>
        <time>2022-08-14T10:23:19Z</time>
      </trkpt>
      <trkpt lat="42.0799930" lon="-2.4871240">
        <ele>1324.5</ele>
        <time>2022-08-14T10:23:20Z</time>
      </trkpt>
      <trkpt lat="42.0800370" lon="-2.4870780">
        <ele>1324.0</ele>
        <time>2022-08-14T10:23:22Z</time>
      </trkpt>
      <trkpt lat="42.0800560" lon="-2.4870600">
        <ele>1323.8</ele>
        <time>2022-08-14T10:23:24Z</time>
      </trkpt>
      <trkpt lat="42.0800560" lon="-2.4870600">
        <ele>1323.8</ele>
        <time>2022-08-14T10:23:27Z</time>
      </trkpt>
      <trkpt lat="42.0800570" lon="-2.4870590">
        <ele>1323.8</ele>
        <time>2022-08-14T10:25:42Z</time>
      </trkpt>
      <trkpt lat="42.0800570" lon="-2.4870500">
        <ele>1323.7</ele>
        <time>2022-08-14T10:25:43Z</time>
      </trkpt>
      <trkpt lat="42.0800450" lon="-2.4870380">
        <ele>1323.6</ele>
        <time>2022-08-14T10:25:44Z</time>
      </trkpt>
      <trkpt lat="42.0799890" lon="-2.4869810">
        <ele>1320.7</ele>
        <time>2022-08-14T10:25:47Z</time>
      </trkpt>
      <trkpt lat="42.0799570" lon="-2.4869160">
        <ele>1320.4</ele>
        <time>2022-08-14T10:25:49Z</time>
      </trkpt>
      <trkpt lat="42.0799450" lon="-2.4868680">
        <ele>1320.2</ele>
        <time>2022-08-14T10:25:50Z</time>
      </trkpt>
      <trkpt lat="42.0798970" lon="-2.4867850">
        <ele>1319.8</ele>
        <time>2022-08-14T10:25:52Z</time>
      </trkpt>
      <trkpt lat="42.0798360" lon="-2.4866960">
        <ele>1319.2</ele>
        <time>2022-08-14T10:25:54Z</time>
      </trkpt>
      <trkpt lat="42.0797650" lon="-2.4865940">
        <ele>1318.7</ele>
        <time>2022-08-14T10:25:56Z</time>
      </trkpt>
      <trkpt lat="42.0797010" lon="-2.4864460">
        <ele>1318.0</ele>
        <time>2022-08-14T10:25:58Z</time>
      </trkpt>
      <trkpt lat="42.0796720" lon="-2.4863550">
        <ele>1317.8</ele>
        <time>2022-08-14T10:25:59Z</time>
      </trkpt>
      <trkpt lat="42.0796490" lon="-2.4862540">
        <ele>1317.5</ele>
        <time>2022-08-14T10:26:00Z</time>
      </trkpt>
      <trkpt lat="42.0796370" lon="-2.4861630">
        <ele>1317.4</ele>
        <time>2022-08-14T10:26:01Z</time>
      </trkpt>
      <trkpt lat="42.0795990" lon="-2.4859430">
        <ele>1316.9</ele>
        <time>2022-08-14T10:26:04Z</time>
      </trkpt>
      <trkpt lat="42.0795780" lon="-2.4858740">
        <ele>1316.8</ele>
        <time>2022-08-14T10:26:05Z</time>
      </trkpt>
      <trkpt lat="42.0795550" lon="-2.4858090">
        <ele>1316.6</ele>
        <time>2022-08-14T10:26:06Z</time>
      </trkpt>
      <trkpt lat="42.0794760" lon="-2.4856950">
        <ele>1316.1</ele>
        <time>2022-08-14T10:26:08Z</time>
      </trkpt>
      <trkpt lat="42.0794340" lon="-2.4856220">
        <ele>1315.8</ele>
        <time>2022-08-14T10:26:09Z</time>
      </trkpt>
      <trkpt lat="42.0793620" lon="-2.4854290">
        <ele>1315.1</ele>
        <time>2022-08-14T10:26:11Z</time>
      </trkpt>
      <trkpt lat="42.0792930" lon="-2.4852680">
        <ele>1314.7</ele>
        <time>2022-08-14T10:26:13Z</time>
      </trkpt>
      <trkpt lat="42.0792200" lon="-2.4851170">
        <ele>1314.4</ele>
        <time>2022-08-14T10:26:15Z</time>
      </trkpt>
      <trkpt lat="42.0791780" lon="-2.4850350">
        <ele>1314.2</ele>
        <time>2022-08-14T10:26:16Z</time>
      </trkpt>
      <trkpt lat="42.0790140" lon="-2.4848320">
        <ele>1313.5</ele>
        <time>2022-08-14T10:26:19Z</time>
      </trkpt>
      <trkpt lat="42.0788490" lon="-2.4847460">
        <ele>1312.7</ele>
        <time>2022-08-14T10:26:22Z</time>
      </trkpt>
      <trkpt lat="42.0787040" lon="-2.4846930">
        <ele>1311.7</ele>
        <time>2022-08-14T10:26:24Z</time>
      </trkpt>
      <trkpt lat="42.0785560" lon="-2.4846020">
        <ele>1310.6</ele>
        <time>2022-08-14T10:26:26Z</time>
      </trkpt>
      <trkpt lat="42.0783790" lon="-2.4844920">
        <ele>1309.7</ele>
        <time>2022-08-14T10:26:28Z</time>
      </trkpt>
      <trkpt lat="42.0782420" lon="-2.4843890">
        <ele>1309.4</ele>
        <time>2022-08-14T10:26:30Z</time>
      </trkpt>
      <trkpt lat="42.0781810" lon="-2.4842560">
        <ele>1309.3</ele>
        <time>2022-08-14T10:26:32Z</time>
      </trkpt>
      <trkpt lat="42.0781100" lon="-2.4841110">
        <ele>1309.2</ele>
        <time>2022-08-14T10:26:34Z</time>
      </trkpt>
      <trkpt lat="42.0780730" lon="-2.4840400">
        <ele>1309.1</ele>
        <time>2022-08-14T10:26:35Z</time>
      </trkpt>
      <trkpt lat="42.0780100" lon="-2.4839040">
        <ele>1308.9</ele>
        <time>2022-08-14T10:26:37Z</time>
      </trkpt>
      <trkpt lat="42.0779470" lon="-2.4837660">
        <ele>1308.5</ele>
        <time>2022-08-14T10:26:39Z</time>
      </trkpt>
      <trkpt lat="42.0779170" lon="-2.4836950">
        <ele>1308.3</ele>
        <time>2022-08-14T10:26:40Z</time>
      </trkpt>
      <trkpt lat="42.0778910" lon="-2.4836220">
        <ele>1308.0</ele>
        <time>2022-08-14T10:26:41Z</time>
      </trkpt>
      <trkpt lat="42.0777870" lon="-2.4833180">
        <ele>1306.6</ele>
        <time>2022-08-14T10:26:45Z</time>
      </trkpt>
      <trkpt lat="42.0777610" lon="-2.4832430">
        <ele>1306.1</ele>
        <time>2022-08-14T10:26:46Z</time>
      </trkpt>
      <trkpt lat="42.0777340" lon="-2.4831670">
        <ele>1305.6</ele>
        <time>2022-08-14T10:26:47Z</time>
      </trkpt>
      <trkpt lat="42.0777150" lon="-2.4830920">
        <ele>1305.2</ele>
        <time>2022-08-14T10:26:48Z</time>
      </trkpt>
      <trkpt lat="42.0776620" lon="-2.4829270">
        <ele>1304.3</ele>
        <time>2022-08-14T10:26:50Z</time>
      </trkpt>
      <trkpt lat="42.0775890" lon="-2.4827680">
        <ele>1303.5</ele>
        <time>2022-08-14T10:26:52Z</time>
      </trkpt>
      <trkpt lat="42.0775090" lon="-2.4826310">
        <ele>1302.7</ele>
        <time>2022-08-14T10:26:54Z</time>
      </trkpt>
      <trkpt lat="42.0774660" lon="-2.4825740">
        <ele>1302.3</ele>
        <time>2022-08-14T10:26:55Z</time>
      </trkpt>
      <trkpt lat="42.0773150" lon="-2.4824310">
        <ele>1301.2</ele>
        <time>2022-08-14T10:26:58Z</time>
      </trkpt>
      <trkpt lat="42.0772200" lon="-2.4823440">
        <ele>1300.6</ele>
        <time>2022-08-14T10:27:00Z</time>
      </trkpt>
      <trkpt lat="42.0771580" lon="-2.4822870">
        <ele>1300.3</ele>
        <time>2022-08-14T10:27:01Z</time>
      </trkpt>
      <trkpt lat="42.0771050" lon="-2.4822350">
        <ele>1300.0</ele>
        <time>2022-08-14T10:27:02Z</time>
      </trkpt>
      <trkpt lat="42.0770510" lon="-2.4821730">
        <ele>1299.7</ele>
        <time>2022-08-14T10:27:03Z</time>
      </trkpt>
      <trkpt lat="42.0769930" lon="-2.4821140">
        <ele>1299.4</ele>
        <time>2022-08-14T10:27:04Z</time>
      </trkpt>
      <trkpt lat="42.0769410" lon="-2.4820610">
        <ele>1299.1</ele>
        <time>2022-08-14T10:27:05Z</time>
      </trkpt>
      <trkpt lat="42.0768070" lon="-2.4819270">
        <ele>1298.6</ele>
        <time>2022-08-14T10:27:07Z</time>
      </trkpt>
      <trkpt lat="42.0767540" lon="-2.4818660">
        <ele>1298.3</ele>
        <time>2022-08-14T10:27:08Z</time>
      </trkpt>
      <trkpt lat="42.0766340" lon="-2.4817400">
        <ele>1297.8</ele>
        <time>2022-08-14T10:27:10Z</time>
      </trkpt>
      <trkpt lat="42.0765830" lon="-2.4816790">
        <ele>1297.5</ele>
        <time>2022-08-14T10:27:11Z</time>
      </trkpt>
      <trkpt lat="42.0764940" lon="-2.4815470">
        <ele>1296.8</ele>
        <time>2022-08-14T10:27:13Z</time>
      </trkpt>
      <trkpt lat="42.0764440" lon="-2.4814440">
        <ele>1296.2</ele>
        <time>2022-08-14T10:27:14Z</time>
      </trkpt>
      <trkpt lat="42.0764040" lon="-2.4813630">
        <ele>1295.8</ele>
        <time>2022-08-14T10:27:15Z</time>
      </trkpt>
      <trkpt lat="42.0763180" lon="-2.4812110">
        <ele>1295.0</ele>
        <time>2022-08-14T10:27:17Z</time>
      </trkpt>
      <trkpt lat="42.0762910" lon="-2.4811220">
        <ele>1294.7</ele>
        <time>2022-08-14T10:27:18Z</time>
      </trkpt>
      <trkpt lat="42.0761760" lon="-2.4808440">
        <ele>1294.1</ele>
        <time>2022-08-14T10:27:21Z</time>
      </trkpt>
      <trkpt lat="42.0760320" lon="-2.4806220">
        <ele>1293.5</ele>
        <time>2022-08-14T10:27:24Z</time>
      </trkpt>
      <trkpt lat="42.0760020" lon="-2.4805410">
        <ele>1293.3</ele>
        <time>2022-08-14T10:27:25Z</time>
      </trkpt>
      <trkpt lat="42.0759750" lon="-2.4804680">
        <ele>1293.2</ele>
        <time>2022-08-14T10:27:26Z</time>
      </trkpt>
      <trkpt lat="42.0759170" lon="-2.4803910">
        <ele>1292.9</ele>
        <time>2022-08-14T10:27:27Z</time>
      </trkpt>
      <trkpt lat="42.0756690" lon="-2.4799910">
        <ele>1292.1</ele>
        <time>2022-08-14T10:27:32Z</time>
      </trkpt>
      <trkpt lat="42.0756220" lon="-2.4799120">
        <ele>1292.0</ele>
        <time>2022-08-14T10:27:33Z</time>
      </trkpt>
      <trkpt lat="42.0754920" lon="-2.4797940">
        <ele>1291.7</ele>
        <time>2022-08-14T10:27:35Z</time>
      </trkpt>
      <trkpt lat="42.0754250" lon="-2.4797560">
        <ele>1291.5</ele>
        <time>2022-08-14T10:27:36Z</time>
      </trkpt>
      <trkpt lat="42.0753840" lon="-2.4796990">
        <ele>1291.3</ele>
        <time>2022-08-14T10:27:37Z</time>
      </trkpt>
      <trkpt lat="42.0753130" lon="-2.4796110">
        <ele>1290.9</ele>
        <time>2022-08-14T10:27:39Z</time>
      </trkpt>
      <trkpt lat="42.0752690" lon="-2.4795220">
        <ele>1290.5</ele>
        <time>2022-08-14T10:27:40Z</time>
      </trkpt>
      <trkpt lat="42.0752230" lon="-2.4794670">
        <ele>1290.2</ele>
        <time>2022-08-14T10:27:41Z</time>
      </trkpt>
      <trkpt lat="42.0751060" lon="-2.4793190">
        <ele>1289.5</ele>
        <time>2022-08-14T10:27:43Z</time>
      </trkpt>
      <trkpt lat="42.0750450" lon="-2.4792690">
        <ele>1289.2</ele>
        <time>2022-08-14T10:27:44Z</time>
      </trkpt>
      <trkpt lat="42.0749770" lon="-2.4791870">
        <ele>1289.0</ele>
        <time>2022-08-14T10:27:45Z</time>
      </trkpt>
      <trkpt lat="42.0749330" lon="-2.4791250">
        <ele>1288.8</ele>
        <time>2022-08-14T10:27:46Z</time>
      </trkpt>
      <trkpt lat="42.0748840" lon="-2.4790730">
        <ele>1288.6</ele>
        <time>2022-08-14T10:27:47Z</time>
      </trkpt>
      <trkpt lat="42.0748200" lon="-2.4790270">
        <ele>1288.5</ele>
        <time>2022-08-14T10:27:48Z</time>
      </trkpt>
      <trkpt lat="42.0747360" lon="-2.4788990">
        <ele>1288.4</ele>
        <time>2022-08-14T10:27:50Z</time>
      </trkpt>
      <trkpt lat="42.0746930" lon="-2.4788460">
        <ele>1288.3</ele>
        <time>2022-08-14T10:27:51Z</time>
      </trkpt>
      <trkpt lat="42.0745890" lon="-2.4787440">
        <ele>1288.3</ele>
        <time>2022-08-14T10:27:53Z</time>
      </trkpt>
      <trkpt lat="42.0745290" lon="-2.4786890">
        <ele>1288.2</ele>
        <time>2022-08-14T10:27:54Z</time>
      </trkpt>
      <trkpt lat="42.0744370" lon="-2.4786230">
        <ele>1287.8</ele>
        <time>2022-08-14T10:27:56Z</time>
      </trkpt>
      <trkpt lat="42.0743890" lon="-2.4786080">
        <ele>1287.6</ele>
        <time>2022-08-14T10:27:57Z</time>
      </trkpt>
      <trkpt lat="42.0743410" lon="-2.4785930">
        <ele>1287.4</ele>
        <time>2022-08-14T10:27:58Z</time>
      </trkpt>
      <trkpt lat="42.0742460" lon="-2.4785630">
        <ele>1286.9</ele>
        <time>2022-08-14T10:28:00Z</time>
      </trkpt>
      <trkpt lat="42.0741380" lon="-2.4785280">
        <ele>1286.3</ele>
        <time>2022-08-14T10:28:02Z</time>
      </trkpt>
      <trkpt lat="42.0740260" lon="-2.4784650">
        <ele>1285.6</ele>
        <time>2022-08-14T10:28:04Z</time>
      </trkpt>
      <trkpt lat="42.0739710" lon="-2.4784240">
        <ele>1285.2</ele>
        <time>2022-08-14T10:28:05Z</time>
      </trkpt>
      <trkpt lat="42.0739170" lon="-2.4783740">
        <ele>1284.7</ele>
        <time>2022-08-14T10:28:06Z</time>
      </trkpt>
      <trkpt lat="42.0738490" lon="-2.4782720">
        <ele>1284.1</ele>
        <time>2022-08-14T10:28:08Z</time>
      </trkpt>
      <trkpt lat="42.0738000" lon="-2.4782220">
        <ele>1283.7</ele>
        <time>2022-08-14T10:28:09Z</time>
      </trkpt>
      <trkpt lat="42.0737550" lon="-2.4781810">
        <ele>1283.4</ele>
        <time>2022-08-14T10:28:10Z</time>
      </trkpt>
      <trkpt lat="42.0737020" lon="-2.4781410">
        <ele>1283.0</ele>
        <time>2022-08-14T10:28:11Z</time>
      </trkpt>
      <trkpt lat="42.0736580" lon="-2.4780890">
        <ele>1282.7</ele>
        <time>2022-08-14T10:28:12Z</time>
      </trkpt>
      <trkpt lat="42.0736150" lon="-2.4780310">
        <ele>1282.4</ele>
        <time>2022-08-14T10:28:13Z</time>
      </trkpt>
      <trkpt lat="42.0735690" lon="-2.4779710">
        <ele>1282.1</ele>
        <time>2022-08-14T10:28:14Z</time>
      </trkpt>
      <trkpt lat="42.0734650" lon="-2.4778740">
        <ele>1281.3</ele>
        <time>2022-08-14T10:28:16Z</time>
      </trkpt>
      <trkpt lat="42.0734110" lon="-2.4778340">
        <ele>1280.9</ele>
        <time>2022-08-14T10:28:17Z</time>
      </trkpt>
      <trkpt lat="42.0731770" lon="-2.4775950">
        <ele>1278.8</ele>
        <time>2022-08-14T10:28:22Z</time>
      </trkpt>
      <trkpt lat="42.0731340" lon="-2.4775280">
        <ele>1278.3</ele>
        <time>2022-08-14T10:28:23Z</time>
      </trkpt>
      <trkpt lat="42.0730900" lon="-2.4774720">
        <ele>1277.8</ele>
        <time>2022-08-14T10:28:24Z</time>
      </trkpt>
      <trkpt lat="42.0730120" lon="-2.4773950">
        <ele>1277.1</ele>
        <time>2022-08-14T10:28:26Z</time>
      </trkpt>
      <trkpt lat="42.0729300" lon="-2.4772820">
        <ele>1276.2</ele>
        <time>2022-08-14T10:28:28Z</time>
      </trkpt>
      <trkpt lat="42.0728720" lon="-2.4772190">
        <ele>1275.6</ele>
        <time>2022-08-14T10:28:29Z</time>
      </trkpt>
      <trkpt lat="42.0728300" lon="-2.4771520">
        <ele>1275.2</ele>
        <time>2022-08-14T10:28:30Z</time>
      </trkpt>
      <trkpt lat="42.0727830" lon="-2.4770960">
        <ele>1274.8</ele>
        <time>2022-08-14T10:28:31Z</time>
      </trkpt>
      <trkpt lat="42.0726680" lon="-2.4769700">
        <ele>1273.9</ele>
        <time>2022-08-14T10:28:33Z</time>
      </trkpt>
      <trkpt lat="42.0726310" lon="-2.4768880">
        <ele>1273.5</ele>
        <time>2022-08-14T10:28:34Z</time>
      </trkpt>
      <trkpt lat="42.0725580" lon="-2.4767860">
        <ele>1272.9</ele>
        <time>2022-08-14T10:28:36Z</time>
      </trkpt>
      <trkpt lat="42.0725190" lon="-2.4767490">
        <ele>1272.6</ele>
        <time>2022-08-14T10:28:37Z</time>
      </trkpt>
      <trkpt lat="42.0724640" lon="-2.4766980">
        <ele>1272.2</ele>
        <time>2022-08-14T10:28:38Z</time>
      </trkpt>
      <trkpt lat="42.0723590" lon="-2.4766090">
        <ele>1271.5</ele>
        <time>2022-08-14T10:28:40Z</time>
      </trkpt>
      <trkpt lat="42.0723040" lon="-2.4765730">
        <ele>1271.1</ele>
        <time>2022-08-14T10:28:41Z</time>
      </trkpt>
      <trkpt lat="42.0722570" lon="-2.4765330">
        <ele>1270.8</ele>
        <time>2022-08-14T10:28:42Z</time>
      </trkpt>
      <trkpt lat="42.0721740" lon="-2.4764470">
        <ele>1270.3</ele>
        <time>2022-08-14T10:28:44Z</time>
      </trkpt>
      <trkpt lat="42.0721410" lon="-2.4764010">
        <ele>1270.1</ele>
        <time>2022-08-14T10:28:45Z</time>
      </trkpt>
      <trkpt lat="42.0720850" lon="-2.4763430">
        <ele>1269.8</ele>
        <time>2022-08-14T10:28:46Z</time>
      </trkpt>
      <trkpt lat="42.0719870" lon="-2.4762100">
        <ele>1269.1</ele>
        <time>2022-08-14T10:28:48Z</time>
      </trkpt>
      <trkpt lat="42.0719390" lon="-2.4761380">
        <ele>1268.7</ele>
        <time>2022-08-14T10:28:49Z</time>
      </trkpt>
      <trkpt lat="42.0718820" lon="-2.4760460">
        <ele>1268.0</ele>
        <time>2022-08-14T10:28:50Z</time>
      </trkpt>
      <trkpt lat="42.0718140" lon="-2.4759280">
        <ele>1267.1</ele>
        <time>2022-08-14T10:28:52Z</time>
      </trkpt>
      <trkpt lat="42.0717700" lon="-2.4758780">
        <ele>1266.6</ele>
        <time>2022-08-14T10:28:53Z</time>
      </trkpt>
      <trkpt lat="42.0717310" lon="-2.4758280">
        <ele>1266.2</ele>
        <time>2022-08-14T10:28:54Z</time>
      </trkpt>
      <trkpt lat="42.0716470" lon="-2.4756810">
        <ele>1265.0</ele>
        <time>2022-08-14T10:28:56Z</time>
      </trkpt>
      <trkpt lat="42.0715820" lon="-2.4754810">
        <ele>1263.9</ele>
        <time>2022-08-14T10:28:58Z</time>
      </trkpt>
      <trkpt lat="42.0714850" lon="-2.4752230">
        <ele>1262.9</ele>
        <time>2022-08-14T10:29:01Z</time>
      </trkpt>
      <trkpt lat="42.0714090" lon="-2.4750320">
        <ele>1262.2</ele>
        <time>2022-08-14T10:29:03Z</time>
      </trkpt>
      <trkpt lat="42.0713420" lon="-2.4748570">
        <ele>1261.5</ele>
        <time>2022-08-14T10:29:05Z</time>
      </trkpt>
      <trkpt lat="42.0712860" lon="-2.4747070">
        <ele>1260.8</ele>
        <time>2022-08-14T10:29:07Z</time>
      </trkpt>
      <trkpt lat="42.0712460" lon="-2.4746410">
        <ele>1260.4</ele>
        <time>2022-08-14T10:29:08Z</time>
      </trkpt>
      <trkpt lat="42.0711860" lon="-2.4745170">
        <ele>1259.8</ele>
        <time>2022-08-14T10:29:10Z</time>
      </trkpt>
      <trkpt lat="42.0711530" lon="-2.4744470">
        <ele>1259.4</ele>
        <time>2022-08-14T10:29:11Z</time>
      </trkpt>
      <trkpt lat="42.0711090" lon="-2.4743710">
        <ele>1258.9</ele>
        <time>2022-08-14T10:29:12Z</time>
      </trkpt>
      <trkpt lat="42.0710400" lon="-2.4742270">
        <ele>1258.0</ele>
        <time>2022-08-14T10:29:14Z</time>
      </trkpt>
      <trkpt lat="42.0709740" lon="-2.4740710">
        <ele>1256.9</ele>
        <time>2022-08-14T10:29:16Z</time>
      </trkpt>
      <trkpt lat="42.0709340" lon="-2.4740000">
        <ele>1256.2</ele>
        <time>2022-08-14T10:29:17Z</time>
      </trkpt>
      <trkpt lat="42.0708950" lon="-2.4739360">
        <ele>1255.5</ele>
        <time>2022-08-14T10:29:18Z</time>
      </trkpt>
      <trkpt lat="42.0708480" lon="-2.4738680">
        <ele>1254.7</ele>
        <time>2022-08-14T10:29:19Z</time>
      </trkpt>
      <trkpt lat="42.0706760" lon="-2.4736930">
        <ele>1252.3</ele>
        <time>2022-08-14T10:29:22Z</time>
      </trkpt>
      <trkpt lat="42.0706160" lon="-2.4736510">
        <ele>1251.5</ele>
        <time>2022-08-14T10:29:23Z</time>
      </trkpt>
      <trkpt lat="42.0704940" lon="-2.4735560">
        <ele>1249.9</ele>
        <time>2022-08-14T10:29:25Z</time>
      </trkpt>
      <trkpt lat="42.0704430" lon="-2.4734910">
        <ele>1249.2</ele>
        <time>2022-08-14T10:29:26Z</time>
      </trkpt>
      <trkpt lat="42.0704050" lon="-2.4734030">
        <ele>1248.4</ele>
        <time>2022-08-14T10:29:27Z</time>
      </trkpt>
      <trkpt lat="42.0703760" lon="-2.4733150">
        <ele>1247.8</ele>
        <time>2022-08-14T10:29:28Z</time>
      </trkpt>
      <trkpt lat="42.0703640" lon="-2.4732270">
        <ele>1247.4</ele>
        <time>2022-08-14T10:29:29Z</time>
      </trkpt>
      <trkpt lat="42.0703570" lon="-2.4731410">
        <ele>1247.1</ele>
        <time>2022-08-14T10:29:30Z</time>
      </trkpt>
      <trkpt lat="42.0703620" lon="-2.4729550">
        <ele>1246.6</ele>
        <time>2022-08-14T10:29:32Z</time>
      </trkpt>
      <trkpt lat="42.0703500" lon="-2.4727100">
        <ele>1246.1</ele>
        <time>2022-08-14T10:29:35Z</time>
      </trkpt>
      <trkpt lat="42.0703400" lon="-2.4725600">
        <ele>1245.9</ele>
        <time>2022-08-14T10:29:37Z</time>
      </trkpt>
      <trkpt lat="42.0703360" lon="-2.4723960">
        <ele>1245.7</ele>
        <time>2022-08-14T10:29:39Z</time>
      </trkpt>
      <trkpt lat="42.0702940" lon="-2.4721730">
        <ele>1245.6</ele>
        <time>2022-08-14T10:29:42Z</time>
      </trkpt>
      <trkpt lat="42.0702780" lon="-2.4721070">
        <ele>1245.6</ele>
        <time>2022-08-14T10:29:43Z</time>
      </trkpt>
      <trkpt lat="42.0702240" lon="-2.4719220">
        <ele>1245.5</ele>
        <time>2022-08-14T10:29:46Z</time>
      </trkpt>
      <trkpt lat="42.0701930" lon="-2.4718160">
        <ele>1245.5</ele>
        <time>2022-08-14T10:29:48Z</time>
      </trkpt>
      <trkpt lat="42.0701350" lon="-2.4716600">
        <ele>1245.4</ele>
        <time>2022-08-14T10:29:51Z</time>
      </trkpt>
      <trkpt lat="42.0701050" lon="-2.4715520">
        <ele>1245.4</ele>
        <time>2022-08-14T10:29:53Z</time>
      </trkpt>
      <trkpt lat="42.0700780" lon="-2.4714400">
        <ele>1245.3</ele>
        <time>2022-08-14T10:29:55Z</time>
      </trkpt>
      <trkpt lat="42.0700370" lon="-2.4713210">
        <ele>1245.1</ele>
        <time>2022-08-14T10:29:57Z</time>
      </trkpt>
      <trkpt lat="42.0699400" lon="-2.4710930">
        <ele>1245.0</ele>
        <time>2022-08-14T10:30:01Z</time>
      </trkpt>
      <trkpt lat="42.0699170" lon="-2.4710440">
        <ele>1245.0</ele>
        <time>2022-08-14T10:30:02Z</time>
      </trkpt>
      <trkpt lat="42.0698740" lon="-2.4709510">
        <ele>1245.0</ele>
        <time>2022-08-14T10:30:04Z</time>
      </trkpt>
      <trkpt lat="42.0697790" lon="-2.4707720">
        <ele>1245.2</ele>
        <time>2022-08-14T10:30:08Z</time>
      </trkpt>
      <trkpt lat="42.0696840" lon="-2.4706040">
        <ele>1245.4</ele>
        <time>2022-08-14T10:30:12Z</time>
      </trkpt>
      <trkpt lat="42.0696600" lon="-2.4705610">
        <ele>1245.5</ele>
        <time>2022-08-14T10:30:13Z</time>
      </trkpt>
      <trkpt lat="42.0695470" lon="-2.4703340">
        <ele>1245.9</ele>
        <time>2022-08-14T10:30:19Z</time>
      </trkpt>
      <trkpt lat="42.0695030" lon="-2.4702610">
        <ele>1246.1</ele>
        <time>2022-08-14T10:30:21Z</time>
      </trkpt>
      <trkpt lat="42.0694310" lon="-2.4700680">
        <ele>1246.8</ele>
        <time>2022-08-14T10:30:26Z</time>
      </trkpt>
      <trkpt lat="42.0694200" lon="-2.4700290">
        <ele>1246.9</ele>
        <time>2022-08-14T10:30:27Z</time>
      </trkpt>
      <trkpt lat="42.0693610" lon="-2.4698420">
        <ele>1247.3</ele>
        <time>2022-08-14T10:30:32Z</time>
      </trkpt>
      <trkpt lat="42.0693390" lon="-2.4697710">
        <ele>1247.4</ele>
        <time>2022-08-14T10:30:34Z</time>
      </trkpt>
      <trkpt lat="42.0693180" lon="-2.4697010">
        <ele>1247.4</ele>
        <time>2022-08-14T10:30:36Z</time>
      </trkpt>
      <trkpt lat="42.0692810" lon="-2.4695550">
        <ele>1247.5</ele>
        <time>2022-08-14T10:30:40Z</time>
      </trkpt>
      <trkpt lat="42.0692420" lon="-2.4694410">
        <ele>1248.0</ele>
        <time>2022-08-14T10:30:43Z</time>
      </trkpt>
      <trkpt lat="42.0692220" lon="-2.4693670">
        <ele>1248.2</ele>
        <time>2022-08-14T10:30:45Z</time>
      </trkpt>
      <trkpt lat="42.0692230" lon="-2.4691940">
        <ele>1247.9</ele>
        <time>2022-08-14T10:30:49Z</time>
      </trkpt>
      <trkpt lat="42.0692330" lon="-2.4691420">
        <ele>1247.5</ele>
        <time>2022-08-14T10:30:50Z</time>
      </trkpt>
      <trkpt lat="42.0693020" lon="-2.4688720">
        <ele>1245.7</ele>
        <time>2022-08-14T10:30:54Z</time>
      </trkpt>
      <trkpt lat="42.0693720" lon="-2.4686360">
        <ele>1244.4</ele>
        <time>2022-08-14T10:30:57Z</time>
      </trkpt>
      <trkpt lat="42.0693850" lon="-2.4685600">
        <ele>1244.2</ele>
        <time>2022-08-14T10:30:58Z</time>
      </trkpt>
      <trkpt lat="42.0693890" lon="-2.4684840">
        <ele>1244.1</ele>
        <time>2022-08-14T10:30:59Z</time>
      </trkpt>
      <trkpt lat="42.0693820" lon="-2.4684200">
        <ele>1244.1</ele>
        <time>2022-08-14T10:31:00Z</time>
      </trkpt>
      <trkpt lat="42.0693620" lon="-2.4683680">
        <ele>1244.1</ele>
        <time>2022-08-14T10:31:01Z</time>
      </trkpt>
      <trkpt lat="42.0693330" lon="-2.4683280">
        <ele>1244.2</ele>
        <time>2022-08-14T10:31:02Z</time>
      </trkpt>
      <trkpt lat="42.0692980" lon="-2.4683020">
        <ele>1244.3</ele>
        <time>2022-08-14T10:31:03Z</time>
      </trkpt>
      <trkpt lat="42.0692600" lon="-2.4682830">
        <ele>1244.3</ele>
        <time>2022-08-14T10:31:04Z</time>
      </trkpt>
      <trkpt lat="42.0691900" lon="-2.4682580">
        <ele>1244.5</ele>
        <time>2022-08-14T10:31:06Z</time>
      </trkpt>
      <trkpt lat="42.0691160" lon="-2.4682490">
        <ele>1244.6</ele>
        <time>2022-08-14T10:31:08Z</time>
      </trkpt>
      <trkpt lat="42.0689600" lon="-2.4682300">
        <ele>1244.9</ele>
        <time>2022-08-14T10:31:12Z</time>
      </trkpt>
      <trkpt lat="42.0689220" lon="-2.4682230">
        <ele>1244.9</ele>
        <time>2022-08-14T10:31:13Z</time>
      </trkpt>
      <trkpt lat="42.0687780" lon="-2.4680890">
        <ele>1244.4</ele>
        <time>2022-08-14T10:31:18Z</time>
      </trkpt>
      <trkpt lat="42.0686230" lon="-2.4677450">
        <ele>1242.2</ele>
        <time>2022-08-14T10:31:24Z</time>
      </trkpt>
      <trkpt lat="42.0685040" lon="-2.4675260">
        <ele>1240.6</ele>
        <time>2022-08-14T10:31:27Z</time>
      </trkpt>
      <trkpt lat="42.0684090" lon="-2.4673670">
        <ele>1239.8</ele>
        <time>2022-08-14T10:31:29Z</time>
      </trkpt>
      <trkpt lat="42.0682530" lon="-2.4671250">
        <ele>1239.0</ele>
        <time>2022-08-14T10:31:32Z</time>
      </trkpt>
      <trkpt lat="42.0681470" lon="-2.4669660">
        <ele>1238.6</ele>
        <time>2022-08-14T10:31:34Z</time>
      </trkpt>
      <trkpt lat="42.0680450" lon="-2.4668120">
        <ele>1238.2</ele>
        <time>2022-08-14T10:31:36Z</time>
      </trkpt>
      <trkpt lat="42.0679070" lon="-2.4665680">
        <ele>1237.3</ele>
        <time>2022-08-14T10:31:39Z</time>
      </trkpt>
      <trkpt lat="42.0678220" lon="-2.4663950">
        <ele>1236.7</ele>
        <time>2022-08-14T10:31:41Z</time>
      </trkpt>
      <trkpt lat="42.0677820" lon="-2.4663040">
        <ele>1236.4</ele>
        <time>2022-08-14T10:31:42Z</time>
      </trkpt>
      <trkpt lat="42.0677010" lon="-2.4661120">
        <ele>1235.7</ele>
        <time>2022-08-14T10:31:44Z</time>
      </trkpt>
      <trkpt lat="42.0675450" lon="-2.4657420">
        <ele>1234.4</ele>
        <time>2022-08-14T10:31:48Z</time>
      </trkpt>
      <trkpt lat="42.0675050" lon="-2.4656460">
        <ele>1234.1</ele>
        <time>2022-08-14T10:31:49Z</time>
      </trkpt>
      <trkpt lat="42.0674120" lon="-2.4654280">
        <ele>1233.5</ele>
        <time>2022-08-14T10:31:51Z</time>
      </trkpt>
      <trkpt lat="42.0672440" lon="-2.4650300">
        <ele>1232.3</ele>
        <time>2022-08-14T10:31:55Z</time>
      </trkpt>
      <trkpt lat="42.0671280" lon="-2.4647480">
        <ele>1231.5</ele>
        <time>2022-08-14T10:31:58Z</time>
      </trkpt>
      <trkpt lat="42.0670800" lon="-2.4646290">
        <ele>1231.0</ele>
        <time>2022-08-14T10:31:59Z</time>
      </trkpt>
      <trkpt lat="42.0669010" lon="-2.4642210">
        <ele>1229.1</ele>
        <time>2022-08-14T10:32:03Z</time>
      </trkpt>
      <trkpt lat="42.0667980" lon="-2.4640180">
        <ele>1228.4</ele>
        <time>2022-08-14T10:32:05Z</time>
      </trkpt>
      <trkpt lat="42.0667450" lon="-2.4639190">
        <ele>1228.1</ele>
        <time>2022-08-14T10:32:06Z</time>
      </trkpt>
      <trkpt lat="42.0667050" lon="-2.4638400">
        <ele>1227.9</ele>
        <time>2022-08-14T10:32:07Z</time>
      </trkpt>
      <trkpt lat="42.0665480" lon="-2.4635310">
        <ele>1227.1</ele>
        <time>2022-08-14T10:32:10Z</time>
      </trkpt>
      <trkpt lat="42.0663440" lon="-2.4631430">
        <ele>1225.5</ele>
        <time>2022-08-14T10:32:14Z</time>
      </trkpt>
      <trkpt lat="42.0662900" lon="-2.4630470">
        <ele>1225.0</ele>
        <time>2022-08-14T10:32:15Z</time>
      </trkpt>
      <trkpt lat="42.0660660" lon="-2.4626590">
        <ele>1222.3</ele>
        <time>2022-08-14T10:32:19Z</time>
      </trkpt>
      <trkpt lat="42.0660190" lon="-2.4625800">
        <ele>1221.7</ele>
        <time>2022-08-14T10:32:20Z</time>
      </trkpt>
      <trkpt lat="42.0659470" lon="-2.4624610">
        <ele>1220.9</ele>
        <time>2022-08-14T10:32:21Z</time>
      </trkpt>
      <trkpt lat="42.0658910" lon="-2.4623610">
        <ele>1220.2</ele>
        <time>2022-08-14T10:32:22Z</time>
      </trkpt>
      <trkpt lat="42.0657890" lon="-2.4621510">
        <ele>1219.0</ele>
        <time>2022-08-14T10:32:24Z</time>
      </trkpt>
      <trkpt lat="42.0657020" lon="-2.4619280">
        <ele>1217.8</ele>
        <time>2022-08-14T10:32:26Z</time>
      </trkpt>
      <trkpt lat="42.0656660" lon="-2.4618140">
        <ele>1217.3</ele>
        <time>2022-08-14T10:32:27Z</time>
      </trkpt>
      <trkpt lat="42.0655970" lon="-2.4615810">
        <ele>1216.5</ele>
        <time>2022-08-14T10:32:29Z</time>
      </trkpt>
      <trkpt lat="42.0655310" lon="-2.4613740">
        <ele>1215.8</ele>
        <time>2022-08-14T10:32:31Z</time>
      </trkpt>
      <trkpt lat="42.0654840" lon="-2.4612400">
        <ele>1215.3</ele>
        <time>2022-08-14T10:32:32Z</time>
      </trkpt>
      <trkpt lat="42.0654500" lon="-2.4611280">
        <ele>1214.9</ele>
        <time>2022-08-14T10:32:33Z</time>
      </trkpt>
      <trkpt lat="42.0653800" lon="-2.4609090">
        <ele>1214.4</ele>
        <time>2022-08-14T10:32:35Z</time>
      </trkpt>
      <trkpt lat="42.0652370" lon="-2.4604860">
        <ele>1213.6</ele>
        <time>2022-08-14T10:32:39Z</time>
      </trkpt>
      <trkpt lat="42.0652090" lon="-2.4603840">
        <ele>1213.5</ele>
        <time>2022-08-14T10:32:40Z</time>
      </trkpt>
      <trkpt lat="42.0651790" lon="-2.4602800">
        <ele>1213.4</ele>
        <time>2022-08-14T10:32:41Z</time>
      </trkpt>
      <trkpt lat="42.0651170" lon="-2.4600810">
        <ele>1213.0</ele>
        <time>2022-08-14T10:32:43Z</time>
      </trkpt>
      <trkpt lat="42.0650330" lon="-2.4598070">
        <ele>1212.5</ele>
        <time>2022-08-14T10:32:46Z</time>
      </trkpt>
      <trkpt lat="42.0650080" lon="-2.4597190">
        <ele>1212.4</ele>
        <time>2022-08-14T10:32:47Z</time>
      </trkpt>
      <trkpt lat="42.0649030" lon="-2.4593550">
        <ele>1212.2</ele>
        <time>2022-08-14T10:32:51Z</time>
      </trkpt>
      <trkpt lat="42.0648620" lon="-2.4591680">
        <ele>1212.1</ele>
        <time>2022-08-14T10:32:53Z</time>
      </trkpt>
      <trkpt lat="42.0648110" lon="-2.4588890">
        <ele>1212.2</ele>
        <time>2022-08-14T10:32:56Z</time>
      </trkpt>
      <trkpt lat="42.0647580" lon="-2.4586240">
        <ele>1212.2</ele>
        <time>2022-08-14T10:32:59Z</time>
      </trkpt>
      <trkpt lat="42.0646990" lon="-2.4583540">
        <ele>1212.1</ele>
        <time>2022-08-14T10:33:02Z</time>
      </trkpt>
      <trkpt lat="42.0645710" lon="-2.4577490">
        <ele>1211.7</ele>
        <time>2022-08-14T10:33:09Z</time>
      </trkpt>
      <trkpt lat="42.0644400" lon="-2.4570580">
        <ele>1210.8</ele>
        <time>2022-08-14T10:33:17Z</time>
      </trkpt>
      <trkpt lat="42.0643730" lon="-2.4568000">
        <ele>1210.3</ele>
        <time>2022-08-14T10:33:20Z</time>
      </trkpt>
      <trkpt lat="42.0643480" lon="-2.4567130">
        <ele>1210.0</ele>
        <time>2022-08-14T10:33:21Z</time>
      </trkpt>
      <trkpt lat="42.0641870" lon="-2.4562820">
        <ele>1207.9</ele>
        <time>2022-08-14T10:33:26Z</time>
      </trkpt>
      <trkpt lat="42.0640200" lon="-2.4559040">
        <ele>1206.9</ele>
        <time>2022-08-14T10:33:30Z</time>
      </trkpt>
      <trkpt lat="42.0639740" lon="-2.4558160">
        <ele>1206.7</ele>
        <time>2022-08-14T10:33:31Z</time>
      </trkpt>
      <trkpt lat="42.0639250" lon="-2.4557350">
        <ele>1206.4</ele>
        <time>2022-08-14T10:33:32Z</time>
      </trkpt>
      <trkpt lat="42.0638160" lon="-2.4555910">
        <ele>1205.7</ele>
        <time>2022-08-14T10:33:34Z</time>
      </trkpt>
      <trkpt lat="42.0636420" lon="-2.4553690">
        <ele>1204.8</ele>
        <time>2022-08-14T10:33:37Z</time>
      </trkpt>
      <trkpt lat="42.0635550" lon="-2.4552360">
        <ele>1204.2</ele>
        <time>2022-08-14T10:33:38Z</time>
      </trkpt>
      <trkpt lat="42.0635060" lon="-2.4551480">
        <ele>1203.8</ele>
        <time>2022-08-14T10:33:39Z</time>
      </trkpt>
      <trkpt lat="42.0634570" lon="-2.4550610">
        <ele>1203.3</ele>
        <time>2022-08-14T10:33:41Z</time>
      </trkpt>
      <trkpt lat="42.0633920" lon="-2.4549370">
        <ele>1202.7</ele>
        <time>2022-08-14T10:33:42Z</time>
      </trkpt>
      <trkpt lat="42.0633510" lon="-2.4548450">
        <ele>1202.3</ele>
        <time>2022-08-14T10:33:43Z</time>
      </trkpt>
      <trkpt lat="42.0633090" lon="-2.4547310">
        <ele>1201.7</ele>
        <time>2022-08-14T10:33:44Z</time>
      </trkpt>
      <trkpt lat="42.0632480" lon="-2.4545420">
        <ele>1200.5</ele>
        <time>2022-08-14T10:33:46Z</time>
      </trkpt>
      <trkpt lat="42.0632220" lon="-2.4544680">
        <ele>1199.9</ele>
        <time>2022-08-14T10:33:47Z</time>
      </trkpt>
      <trkpt lat="42.0631580" lon="-2.4543440">
        <ele>1198.8</ele>
        <time>2022-08-14T10:33:49Z</time>
      </trkpt>
      <trkpt lat="42.0630800" lon="-2.4542600">
        <ele>1197.8</ele>
        <time>2022-08-14T10:33:51Z</time>
      </trkpt>
      <trkpt lat="42.0630310" lon="-2.4542310">
        <ele>1197.2</ele>
        <time>2022-08-14T10:33:52Z</time>
      </trkpt>
      <trkpt lat="42.0629790" lon="-2.4542060">
        <ele>1196.7</ele>
        <time>2022-08-14T10:33:53Z</time>
      </trkpt>
      <trkpt lat="42.0628640" lon="-2.4541430">
        <ele>1195.4</ele>
        <time>2022-08-14T10:33:55Z</time>
      </trkpt>
      <trkpt lat="42.0627510" lon="-2.4540450">
        <ele>1194.0</ele>
        <time>2022-08-14T10:33:57Z</time>
      </trkpt>
      <trkpt lat="42.0627030" lon="-2.4539820">
        <ele>1193.4</ele>
        <time>2022-08-14T10:33:58Z</time>
      </trkpt>
      <trkpt lat="42.0626620" lon="-2.4539080">
        <ele>1192.8</ele>
        <time>2022-08-14T10:33:59Z</time>
      </trkpt>
      <trkpt lat="42.0625780" lon="-2.4537380">
        <ele>1191.7</ele>
        <time>2022-08-14T10:34:01Z</time>
      </trkpt>
      <trkpt lat="42.0625320" lon="-2.4536500">
        <ele>1191.1</ele>
        <time>2022-08-14T10:34:02Z</time>
      </trkpt>
      <trkpt lat="42.0624950" lon="-2.4535530">
        <ele>1190.6</ele>
        <time>2022-08-14T10:34:03Z</time>
      </trkpt>
      <trkpt lat="42.0624680" lon="-2.4534680">
        <ele>1190.2</ele>
        <time>2022-08-14T10:34:04Z</time>
      </trkpt>
      <trkpt lat="42.0624410" lon="-2.4533580">
        <ele>1189.8</ele>
        <time>2022-08-14T10:34:05Z</time>
      </trkpt>
      <trkpt lat="42.0624220" lon="-2.4532470">
        <ele>1189.4</ele>
        <time>2022-08-14T10:34:06Z</time>
      </trkpt>
      <trkpt lat="42.0624010" lon="-2.4531130">
        <ele>1188.9</ele>
        <time>2022-08-14T10:34:07Z</time>
      </trkpt>
      <trkpt lat="42.0623790" lon="-2.4529180">
        <ele>1188.4</ele>
        <time>2022-08-14T10:34:09Z</time>
      </trkpt>
      <trkpt lat="42.0623570" lon="-2.4526390">
        <ele>1188.2</ele>
        <time>2022-08-14T10:34:12Z</time>
      </trkpt>
      <trkpt lat="42.0623460" lon="-2.4525520">
        <ele>1188.1</ele>
        <time>2022-08-14T10:34:13Z</time>
      </trkpt>
      <trkpt lat="42.0623190" lon="-2.4523940">
        <ele>1188.0</ele>
        <time>2022-08-14T10:34:15Z</time>
      </trkpt>
      <trkpt lat="42.0623020" lon="-2.4523050">
        <ele>1188.0</ele>
        <time>2022-08-14T10:34:16Z</time>
      </trkpt>
      <trkpt lat="42.0622870" lon="-2.4522340">
        <ele>1188.1</ele>
        <time>2022-08-14T10:34:17Z</time>
      </trkpt>
      <trkpt lat="42.0622620" lon="-2.4520290">
        <ele>1188.3</ele>
        <time>2022-08-14T10:34:20Z</time>
      </trkpt>
      <trkpt lat="42.0622420" lon="-2.4519210">
        <ele>1188.4</ele>
        <time>2022-08-14T10:34:22Z</time>
      </trkpt>
      <trkpt lat="42.0622130" lon="-2.4517580">
        <ele>1188.7</ele>
        <time>2022-08-14T10:34:25Z</time>
      </trkpt>
      <trkpt lat="42.0622050" lon="-2.4517170">
        <ele>1188.8</ele>
        <time>2022-08-14T10:34:27Z</time>
      </trkpt>
      <trkpt lat="42.0622000" lon="-2.4517120">
        <ele>1188.8</ele>
        <time>2022-08-14T10:34:28Z</time>
      </trkpt>
      <trkpt lat="42.0621980" lon="-2.4516840">
        <ele>1189.0</ele>
        <time>2022-08-14T10:36:43Z</time>
      </trkpt>
      <trkpt lat="42.0621990" lon="-2.4516550">
        <ele>1189.2</ele>
        <time>2022-08-14T10:36:44Z</time>
      </trkpt>
      <trkpt lat="42.0622030" lon="-2.4516260">
        <ele>1189.4</ele>
        <time>2022-08-14T10:36:45Z</time>
      </trkpt>
      <trkpt lat="42.0622150" lon="-2.4515420">
        <ele>1190.0</ele>
        <time>2022-08-14T10:36:48Z</time>
      </trkpt>
      <trkpt lat="42.0622190" lon="-2.4514970">
        <ele>1190.3</ele>
        <time>2022-08-14T10:36:50Z</time>
      </trkpt>
      <trkpt lat="42.0622180" lon="-2.4514590">
        <ele>1190.5</ele>
        <time>2022-08-14T10:36:52Z</time>
      </trkpt>
      <trkpt lat="42.0622180" lon="-2.4514400">
        <ele>1190.6</ele>
        <time>2022-08-14T10:36:53Z</time>
      </trkpt>
      <trkpt lat="42.0622160" lon="-2.4514000">
        <ele>1190.9</ele>
        <time>2022-08-14T10:36:55Z</time>
      </trkpt>
      <trkpt lat="42.0622100" lon="-2.4513580">
        <ele>1191.2</ele>
        <time>2022-08-14T10:36:57Z</time>
      </trkpt>
      <trkpt lat="42.0622000" lon="-2.4513340">
        <ele>1191.4</ele>
        <time>2022-08-14T10:36:58Z</time>
      </trkpt>
      <trkpt lat="42.0621820" lon="-2.4512490">
        <ele>1192.0</ele>
        <time>2022-08-14T10:37:02Z</time>
      </trkpt>
      <trkpt lat="42.0621740" lon="-2.4512020">
        <ele>1192.3</ele>
        <time>2022-08-14T10:37:04Z</time>
      </trkpt>
      <trkpt lat="42.0621620" lon="-2.4511170">
        <ele>1193.0</ele>
        <time>2022-08-14T10:37:08Z</time>
      </trkpt>
      <trkpt lat="42.0621580" lon="-2.4510950">
        <ele>1193.2</ele>
        <time>2022-08-14T10:37:09Z</time>
      </trkpt>
      <trkpt lat="42.0621170" lon="-2.4509590">
        <ele>1194.2</ele>
        <time>2022-08-14T10:37:15Z</time>
      </trkpt>
      <trkpt lat="42.0620870" lon="-2.4508380">
        <ele>1194.9</ele>
        <time>2022-08-14T10:37:20Z</time>
      </trkpt>
      <trkpt lat="42.0620810" lon="-2.4507850">
        <ele>1195.2</ele>
        <time>2022-08-14T10:37:22Z</time>
      </trkpt>
      <trkpt lat="42.0620810" lon="-2.4507590">
        <ele>1195.3</ele>
        <time>2022-08-14T10:37:23Z</time>
      </trkpt>
      <trkpt lat="42.0620740" lon="-2.4506600">
        <ele>1195.9</ele>
        <time>2022-08-14T10:37:27Z</time>
      </trkpt>
      <trkpt lat="42.0620680" lon="-2.4505760">
        <ele>1196.4</ele>
        <time>2022-08-14T10:37:30Z</time>
      </trkpt>
      <trkpt lat="42.0620610" lon="-2.4504190">
        <ele>1197.6</ele>
        <time>2022-08-14T10:37:36Z</time>
      </trkpt>
      <trkpt lat="42.0620490" lon="-2.4502980">
        <ele>1198.7</ele>
        <time>2022-08-14T10:37:41Z</time>
      </trkpt>
      <trkpt lat="42.0620460" lon="-2.4502750">
        <ele>1198.9</ele>
        <time>2022-08-14T10:37:42Z</time>
      </trkpt>
      <trkpt lat="42.0620510" lon="-2.4501600">
        <ele>1199.9</ele>
        <time>2022-08-14T10:37:47Z</time>
      </trkpt>
      <trkpt lat="42.0620520" lon="-2.4501120">
        <ele>1200.3</ele>
        <time>2022-08-14T10:37:49Z</time>
      </trkpt>
      <trkpt lat="42.0620590" lon="-2.4499880">
        <ele>1201.4</ele>
        <time>2022-08-14T10:37:54Z</time>
      </trkpt>
      <trkpt lat="42.0620710" lon="-2.4499190">
        <ele>1202.0</ele>
        <time>2022-08-14T10:37:57Z</time>
      </trkpt>
      <trkpt lat="42.0620860" lon="-2.4498720">
        <ele>1202.4</ele>
        <time>2022-08-14T10:37:59Z</time>
      </trkpt>
      <trkpt lat="42.0621120" lon="-2.4497600">
        <ele>1203.4</ele>
        <time>2022-08-14T10:38:04Z</time>
      </trkpt>
      <trkpt lat="42.0621170" lon="-2.4497350">
        <ele>1203.6</ele>
        <time>2022-08-14T10:38:05Z</time>
      </trkpt>
      <trkpt lat="42.0621520" lon="-2.4496240">
        <ele>1204.8</ele>
        <time>2022-08-14T10:38:10Z</time>
      </trkpt>
      <trkpt lat="42.0621690" lon="-2.4495840">
        <ele>1205.4</ele>
        <time>2022-08-14T10:38:12Z</time>
      </trkpt>
      <trkpt lat="42.0622130" lon="-2.4494870">
        <ele>1206.7</ele>
        <time>2022-08-14T10:38:17Z</time>
      </trkpt>
      <trkpt lat="42.0622230" lon="-2.4494730">
        <ele>1207.0</ele>
        <time>2022-08-14T10:38:18Z</time>
      </trkpt>
      <trkpt lat="42.0622620" lon="-2.4494000">
        <ele>1208.0</ele>
        <time>2022-08-14T10:38:22Z</time>
      </trkpt>
      <trkpt lat="42.0622860" lon="-2.4493650">
        <ele>1208.5</ele>
        <time>2022-08-14T10:38:24Z</time>
      </trkpt>
      <trkpt lat="42.0623290" lon="-2.4492680">
        <ele>1209.8</ele>
        <time>2022-08-14T10:38:29Z</time>
      </trkpt>
      <trkpt lat="42.0623330" lon="-2.4492500">
        <ele>1210.0</ele>
        <time>2022-08-14T10:38:30Z</time>
      </trkpt>
      <trkpt lat="42.0623670" lon="-2.4491700">
        <ele>1211.1</ele>
        <time>2022-08-14T10:38:34Z</time>
      </trkpt>
      <trkpt lat="42.0624170" lon="-2.4490670">
        <ele>1212.3</ele>
        <time>2022-08-14T10:38:39Z</time>
      </trkpt>
      <trkpt lat="42.0624840" lon="-2.4488950">
        <ele>1213.5</ele>
        <time>2022-08-14T10:38:47Z</time>
      </trkpt>
      <trkpt lat="42.0624860" lon="-2.4488780">
        <ele>1213.5</ele>
        <time>2022-08-14T10:38:48Z</time>
      </trkpt>
      <trkpt lat="42.0624830" lon="-2.4488570">
        <ele>1213.5</ele>
        <time>2022-08-14T10:38:51Z</time>
      </trkpt>
      <trkpt lat="42.0624660" lon="-2.4488670">
        <ele>1213.6</ele>
        <time>2022-08-14T10:42:22Z</time>
      </trkpt>
      <trkpt lat="42.0624640" lon="-2.4488500">
        <ele>1213.6</ele>
        <time>2022-08-14T10:42:23Z</time>
      </trkpt>
      <trkpt lat="42.0624610" lon="-2.4487870">
        <ele>1213.7</ele>
        <time>2022-08-14T10:42:26Z</time>
      </trkpt>
      <trkpt lat="42.0624610" lon="-2.4487560">
        <ele>1213.8</ele>
        <time>2022-08-14T10:42:28Z</time>
      </trkpt>
      <trkpt lat="42.0624640" lon="-2.4487430">
        <ele>1213.8</ele>
        <time>2022-08-14T10:42:30Z</time>
      </trkpt>
      <trkpt lat="42.0624720" lon="-2.4486690">
        <ele>1213.9</ele>
        <time>2022-08-14T10:42:36Z</time>
      </trkpt>
      <trkpt lat="42.0624880" lon="-2.4486210">
        <ele>1214.0</ele>
        <time>2022-08-14T10:42:39Z</time>
      </trkpt>
      <trkpt lat="42.0624900" lon="-2.4485740">
        <ele>1214.1</ele>
        <time>2022-08-14T10:42:42Z</time>
      </trkpt>
      <trkpt lat="42.0624940" lon="-2.4485340">
        <ele>1214.1</ele>
        <time>2022-08-14T10:42:44Z</time>
      </trkpt>
      <trkpt lat="42.0625000" lon="-2.4484820">
        <ele>1214.2</ele>
        <time>2022-08-14T10:42:47Z</time>
      </trkpt>
      <trkpt lat="42.0625290" lon="-2.4484240">
        <ele>1214.4</ele>
        <time>2022-08-14T10:42:52Z</time>
      </trkpt>
      <trkpt lat="42.0625410" lon="-2.4483880">
        <ele>1214.4</ele>
        <time>2022-08-14T10:42:56Z</time>
      </trkpt>
      <trkpt lat="42.0625550" lon="-2.4483580">
        <ele>1214.5</ele>
        <time>2022-08-14T10:43:03Z</time>
      </trkpt>
      <trkpt lat="42.0625600" lon="-2.4483410">
        <ele>1214.8</ele>
        <time>2022-08-14T10:43:04Z</time>
      </trkpt>
      <trkpt lat="42.0625630" lon="-2.4482120">
        <ele>1217.0</ele>
        <time>2022-08-14T10:43:10Z</time>
      </trkpt>
      <trkpt lat="42.0625660" lon="-2.4481650">
        <ele>1217.7</ele>
        <time>2022-08-14T10:43:12Z</time>
      </trkpt>
      <trkpt lat="42.0625710" lon="-2.4481010">
        <ele>1218.8</ele>
        <time>2022-08-14T10:43:14Z</time>
      </trkpt>
      <trkpt lat="42.0625860" lon="-2.4478950">
        <ele>1219.4</ele>
        <time>2022-08-14T10:43:21Z</time>
      </trkpt>
      <trkpt lat="42.0625960" lon="-2.4476480">
        <ele>1218.4</ele>
        <time>2022-08-14T10:43:29Z</time>
      </trkpt>
      <trkpt lat="42.0625960" lon="-2.4475760">
        <ele>1218.0</ele>
        <time>2022-08-14T10:43:31Z</time>
      </trkpt>
      <trkpt lat="42.0625860" lon="-2.4474010">
        <ele>1217.0</ele>
        <time>2022-08-14T10:43:36Z</time>
      </trkpt>
      <trkpt lat="42.0625830" lon="-2.4472910">
        <ele>1216.4</ele>
        <time>2022-08-14T10:43:39Z</time>
      </trkpt>
      <trkpt lat="42.0625850" lon="-2.4469670">
        <ele>1214.4</ele>
        <time>2022-08-14T10:43:46Z</time>
      </trkpt>
      <trkpt lat="42.0625890" lon="-2.4468960">
        <ele>1213.9</ele>
        <time>2022-08-14T10:43:48Z</time>
      </trkpt>
      <trkpt lat="42.0625930" lon="-2.4467940">
        <ele>1213.2</ele>
        <time>2022-08-14T10:43:51Z</time>
      </trkpt>
      <trkpt lat="42.0625890" lon="-2.4467300">
        <ele>1212.9</ele>
        <time>2022-08-14T10:43:53Z</time>
      </trkpt>
      <trkpt lat="42.0626220" lon="-2.4464000">
        <ele>1212.5</ele>
        <time>2022-08-14T10:44:01Z</time>
      </trkpt>
      <trkpt lat="42.0626450" lon="-2.4462600">
        <ele>1212.5</ele>
        <time>2022-08-14T10:44:04Z</time>
      </trkpt>
      <trkpt lat="42.0626670" lon="-2.4461230">
        <ele>1212.5</ele>
        <time>2022-08-14T10:44:07Z</time>
      </trkpt>
      <trkpt lat="42.0627070" lon="-2.4459680">
        <ele>1212.6</ele>
        <time>2022-08-14T10:44:11Z</time>
      </trkpt>
      <trkpt lat="42.0627740" lon="-2.4457280">
        <ele>1212.8</ele>
        <time>2022-08-14T10:44:16Z</time>
      </trkpt>
      <trkpt lat="42.0628220" lon="-2.4456160">
        <ele>1212.9</ele>
        <time>2022-08-14T10:44:19Z</time>
      </trkpt>
      <trkpt lat="42.0628750" lon="-2.4454700">
        <ele>1213.0</ele>
        <time>2022-08-14T10:44:22Z</time>
      </trkpt>
      <trkpt lat="42.0629740" lon="-2.4451750">
        <ele>1213.4</ele>
        <time>2022-08-14T10:44:28Z</time>
      </trkpt>
      <trkpt lat="42.0629940" lon="-2.4451130">
        <ele>1213.5</ele>
        <time>2022-08-14T10:44:29Z</time>
      </trkpt>
      <trkpt lat="42.0631460" lon="-2.4446600">
        <ele>1214.9</ele>
        <time>2022-08-14T10:44:39Z</time>
      </trkpt>
      <trkpt lat="42.0631560" lon="-2.4446270">
        <ele>1215.1</ele>
        <time>2022-08-14T10:44:40Z</time>
      </trkpt>
      <trkpt lat="42.0631980" lon="-2.4445040">
        <ele>1215.6</ele>
        <time>2022-08-14T10:44:43Z</time>
      </trkpt>
      <trkpt lat="42.0632370" lon="-2.4443760">
        <ele>1216.1</ele>
        <time>2022-08-14T10:44:46Z</time>
      </trkpt>
      <trkpt lat="42.0632680" lon="-2.4442880">
        <ele>1216.4</ele>
        <time>2022-08-14T10:44:48Z</time>
      </trkpt>
      <trkpt lat="42.0633120" lon="-2.4441660">
        <ele>1216.9</ele>
        <time>2022-08-14T10:44:51Z</time>
      </trkpt>
      <trkpt lat="42.0633390" lon="-2.4440910">
        <ele>1217.2</ele>
        <time>2022-08-14T10:44:53Z</time>
      </trkpt>
      <trkpt lat="42.0634560" lon="-2.4438070">
        <ele>1218.2</ele>
        <time>2022-08-14T10:45:00Z</time>
      </trkpt>
      <trkpt lat="42.0634880" lon="-2.4437380">
        <ele>1218.4</ele>
        <time>2022-08-14T10:45:02Z</time>
      </trkpt>
      <trkpt lat="42.0636360" lon="-2.4434260">
        <ele>1219.3</ele>
        <time>2022-08-14T10:45:10Z</time>
      </trkpt>
      <trkpt lat="42.0636510" lon="-2.4433880">
        <ele>1219.4</ele>
        <time>2022-08-14T10:45:11Z</time>
      </trkpt>
      <trkpt lat="42.0637850" lon="-2.4430400">
        <ele>1220.6</ele>
        <time>2022-08-14T10:45:20Z</time>
      </trkpt>
      <trkpt lat="42.0638010" lon="-2.4430040">
        <ele>1220.7</ele>
        <time>2022-08-14T10:45:21Z</time>
      </trkpt>
      <trkpt lat="42.0638880" lon="-2.4427480">
        <ele>1221.8</ele>
        <time>2022-08-14T10:45:28Z</time>
      </trkpt>
      <trkpt lat="42.0639010" lon="-2.4427130">
        <ele>1222.0</ele>
        <time>2022-08-14T10:45:29Z</time>
      </trkpt>
      <trkpt lat="42.0640040" lon="-2.4425020">
        <ele>1223.1</ele>
        <time>2022-08-14T10:45:35Z</time>
      </trkpt>
      <trkpt lat="42.0640870" lon="-2.4423820">
        <ele>1223.8</ele>
        <time>2022-08-14T10:45:39Z</time>
      </trkpt>
      <trkpt lat="42.0641150" lon="-2.4423410">
        <ele>1224.0</ele>
        <time>2022-08-14T10:45:40Z</time>
      </trkpt>
      <trkpt lat="42.0642090" lon="-2.4422220">
        <ele>1224.8</ele>
        <time>2022-08-14T10:45:45Z</time>
      </trkpt>
      <trkpt lat="42.0642930" lon="-2.4421030">
        <ele>1225.5</ele>
        <time>2022-08-14T10:45:49Z</time>
      </trkpt>
      <trkpt lat="42.0644150" lon="-2.4418310">
        <ele>1226.9</ele>
        <time>2022-08-14T10:45:57Z</time>
      </trkpt>
      <trkpt lat="42.0644280" lon="-2.4417970">
        <ele>1227.1</ele>
        <time>2022-08-14T10:45:58Z</time>
      </trkpt>
      <trkpt lat="42.0645460" lon="-2.4414550">
        <ele>1228.8</ele>
        <time>2022-08-14T10:46:07Z</time>
      </trkpt>
      <trkpt lat="42.0645600" lon="-2.4414220">
        <ele>1229.0</ele>
        <time>2022-08-14T10:46:08Z</time>
      </trkpt>
      <trkpt lat="42.0646450" lon="-2.4411940">
        <ele>1230.6</ele>
        <time>2022-08-14T10:46:15Z</time>
      </trkpt>
      <trkpt lat="42.0646780" lon="-2.4411060">
        <ele>1231.1</ele>
        <time>2022-08-14T10:46:18Z</time>
      </trkpt>
      <trkpt lat="42.0647270" lon="-2.4409960">
        <ele>1231.8</ele>
        <time>2022-08-14T10:46:22Z</time>
      </trkpt>
      <trkpt lat="42.0647830" lon="-2.4408440">
        <ele>1232.8</ele>
        <time>2022-08-14T10:46:27Z</time>
      </trkpt>
      <trkpt lat="42.0647930" lon="-2.4408110">
        <ele>1233.0</ele>
        <time>2022-08-14T10:46:28Z</time>
      </trkpt>
      <trkpt lat="42.0648330" lon="-2.4406960">
        <ele>1233.8</ele>
        <time>2022-08-14T10:46:32Z</time>
      </trkpt>
      <trkpt lat="42.0648830" lon="-2.4405440">
        <ele>1234.8</ele>
        <time>2022-08-14T10:46:37Z</time>
      </trkpt>
      <trkpt lat="42.0648920" lon="-2.4405110">
        <ele>1234.9</ele>
        <time>2022-08-14T10:46:38Z</time>
      </trkpt>
      <trkpt lat="42.0649450" lon="-2.4403350">
        <ele>1235.9</ele>
        <time>2022-08-14T10:46:44Z</time>
      </trkpt>
      <trkpt lat="42.0649880" lon="-2.4401870">
        <ele>1236.4</ele>
        <time>2022-08-14T10:46:48Z</time>
      </trkpt>
      <trkpt lat="42.0650040" lon="-2.4401100">
        <ele>1236.7</ele>
        <time>2022-08-14T10:46:50Z</time>
      </trkpt>
      <trkpt lat="42.0650850" lon="-2.4398210">
        <ele>1237.3</ele>
        <time>2022-08-14T10:46:58Z</time>
      </trkpt>
      <trkpt lat="42.0651330" lon="-2.4397100">
        <ele>1237.4</ele>
        <time>2022-08-14T10:47:01Z</time>
      </trkpt>
      <trkpt lat="42.0651940" lon="-2.4396080">
        <ele>1237.6</ele>
        <time>2022-08-14T10:47:04Z</time>
      </trkpt>
      <trkpt lat="42.0652370" lon="-2.4395410">
        <ele>1237.6</ele>
        <time>2022-08-14T10:47:06Z</time>
      </trkpt>
      <trkpt lat="42.0654060" lon="-2.4393200">
        <ele>1237.9</ele>
        <time>2022-08-14T10:47:13Z</time>
      </trkpt>
      <trkpt lat="42.0655500" lon="-2.4391620">
        <ele>1238.2</ele>
        <time>2022-08-14T10:47:18Z</time>
      </trkpt>
      <trkpt lat="42.0656600" lon="-2.4390340">
        <ele>1238.4</ele>
        <time>2022-08-14T10:47:22Z</time>
      </trkpt>
      <trkpt lat="42.0657450" lon="-2.4389370">
        <ele>1238.7</ele>
        <time>2022-08-14T10:47:25Z</time>
      </trkpt>
      <trkpt lat="42.0658660" lon="-2.4387610">
        <ele>1239.3</ele>
        <time>2022-08-14T10:47:30Z</time>
      </trkpt>
      <trkpt lat="42.0658810" lon="-2.4386190">
        <ele>1239.7</ele>
        <time>2022-08-14T10:47:33Z</time>
      </trkpt>
      <trkpt lat="42.0658750" lon="-2.4385710">
        <ele>1239.8</ele>
        <time>2022-08-14T10:47:34Z</time>
      </trkpt>
      <trkpt lat="42.0658020" lon="-2.4384340">
        <ele>1240.3</ele>
        <time>2022-08-14T10:47:38Z</time>
      </trkpt>
      <trkpt lat="42.0656870" lon="-2.4383880">
        <ele>1240.6</ele>
        <time>2022-08-14T10:47:42Z</time>
      </trkpt>
      <trkpt lat="42.0656530" lon="-2.4383770">
        <ele>1240.7</ele>
        <time>2022-08-14T10:47:43Z</time>
      </trkpt>
      <trkpt lat="42.0656300" lon="-2.4383720">
        <ele>1240.8</ele>
        <time>2022-08-14T10:47:44Z</time>
      </trkpt>
      <trkpt lat="42.0655090" lon="-2.4383580">
        <ele>1241.2</ele>
        <time>2022-08-14T10:47:48Z</time>
      </trkpt>
      <trkpt lat="42.0654270" lon="-2.4383560">
        <ele>1241.5</ele>
        <time>2022-08-14T10:47:51Z</time>
      </trkpt>
      <trkpt lat="42.0653060" lon="-2.4383470">
        <ele>1242.2</ele>
        <time>2022-08-14T10:47:55Z</time>
      </trkpt>
      <trkpt lat="42.0651670" lon="-2.4383350">
        <ele>1243.0</ele>
        <time>2022-08-14T10:48:00Z</time>
      </trkpt>
      <trkpt lat="42.0651020" lon="-2.4383280">
        <ele>1243.5</ele>
        <time>2022-08-14T10:48:02Z</time>
      </trkpt>
      <trkpt lat="42.0650490" lon="-2.4383180">
        <ele>1243.8</ele>
        <time>2022-08-14T10:48:04Z</time>
      </trkpt>
      <trkpt lat="42.0649560" lon="-2.4382950">
        <ele>1244.4</ele>
        <time>2022-08-14T10:48:07Z</time>
      </trkpt>
      <trkpt lat="42.0648360" lon="-2.4382280">
        <ele>1245.3</ele>
        <time>2022-08-14T10:48:11Z</time>
      </trkpt>
      <trkpt lat="42.0647410" lon="-2.4381160">
        <ele>1246.2</ele>
        <time>2022-08-14T10:48:16Z</time>
      </trkpt>
      <trkpt lat="42.0647110" lon="-2.4380670">
        <ele>1246.6</ele>
        <time>2022-08-14T10:48:18Z</time>
      </trkpt>
      <trkpt lat="42.0646500" lon="-2.4379560">
        <ele>1247.4</ele>
        <time>2022-08-14T10:48:22Z</time>
      </trkpt>
      <trkpt lat="42.0646100" lon="-2.4378590">
        <ele>1248.0</ele>
        <time>2022-08-14T10:48:25Z</time>
      </trkpt>
      <trkpt lat="42.0645730" lon="-2.4377800">
        <ele>1248.5</ele>
        <time>2022-08-14T10:48:28Z</time>
      </trkpt>
      <trkpt lat="42.0645010" lon="-2.4375890">
        <ele>1249.6</ele>
        <time>2022-08-14T10:48:34Z</time>
      </trkpt>
      <trkpt lat="42.0644370" lon="-2.4374460">
        <ele>1250.4</ele>
        <time>2022-08-14T10:48:39Z</time>
      </trkpt>
      <trkpt lat="42.0643740" lon="-2.4372910">
        <ele>1251.1</ele>
        <time>2022-08-14T10:48:45Z</time>
      </trkpt>
      <trkpt lat="42.0643630" lon="-2.4372580">
        <ele>1251.3</ele>
        <time>2022-08-14T10:48:46Z</time>
      </trkpt>
      <trkpt lat="42.0643090" lon="-2.4370320">
        <ele>1251.7</ele>
        <time>2022-08-14T10:48:53Z</time>
      </trkpt>
      <trkpt lat="42.0643030" lon="-2.4369920">
        <ele>1251.7</ele>
        <time>2022-08-14T10:48:54Z</time>
      </trkpt>
      <trkpt lat="42.0642790" lon="-2.4367420">
        <ele>1250.9</ele>
        <time>2022-08-14T10:49:00Z</time>
      </trkpt>
      <trkpt lat="42.0642600" lon="-2.4366420">
        <ele>1250.4</ele>
        <time>2022-08-14T10:49:02Z</time>
      </trkpt>
      <trkpt lat="42.0642000" lon="-2.4365280">
        <ele>1249.8</ele>
        <time>2022-08-14T10:49:04Z</time>
      </trkpt>
      <trkpt lat="42.0641430" lon="-2.4364700">
        <ele>1249.3</ele>
        <time>2022-08-14T10:49:05Z</time>
      </trkpt>
      <trkpt lat="42.0640970" lon="-2.4364430">
        <ele>1248.9</ele>
        <time>2022-08-14T10:49:06Z</time>
      </trkpt>
      <trkpt lat="42.0639670" lon="-2.4364060">
        <ele>1248.0</ele>
        <time>2022-08-14T10:49:08Z</time>
      </trkpt>
      <trkpt lat="42.0637640" lon="-2.4363770">
        <ele>1246.5</ele>
        <time>2022-08-14T10:49:11Z</time>
      </trkpt>
      <trkpt lat="42.0636360" lon="-2.4363450">
        <ele>1245.5</ele>
        <time>2022-08-14T10:49:13Z</time>
      </trkpt>
      <trkpt lat="42.0635860" lon="-2.4363140">
        <ele>1245.1</ele>
        <time>2022-08-14T10:49:14Z</time>
      </trkpt>
      <trkpt lat="42.0635500" lon="-2.4362770">
        <ele>1244.8</ele>
        <time>2022-08-14T10:49:15Z</time>
      </trkpt>
      <trkpt lat="42.0635010" lon="-2.4362090">
        <ele>1244.3</ele>
        <time>2022-08-14T10:49:16Z</time>
      </trkpt>
      <trkpt lat="42.0634720" lon="-2.4361410">
        <ele>1243.8</ele>
        <time>2022-08-14T10:49:17Z</time>
      </trkpt>
      <trkpt lat="42.0634560" lon="-2.4359800">
        <ele>1243.0</ele>
        <time>2022-08-14T10:49:19Z</time>
      </trkpt>
      <trkpt lat="42.0634900" lon="-2.4358090">
        <ele>1242.1</ele>
        <time>2022-08-14T10:49:21Z</time>
      </trkpt>
      <trkpt lat="42.0635190" lon="-2.4357200">
        <ele>1241.6</ele>
        <time>2022-08-14T10:49:22Z</time>
      </trkpt>
      <trkpt lat="42.0635490" lon="-2.4356290">
        <ele>1241.0</ele>
        <time>2022-08-14T10:49:23Z</time>
      </trkpt>
      <trkpt lat="42.0636180" lon="-2.4354340">
        <ele>1239.6</ele>
        <time>2022-08-14T10:49:25Z</time>
      </trkpt>
      <trkpt lat="42.0636900" lon="-2.4352350">
        <ele>1238.1</ele>
        <time>2022-08-14T10:49:27Z</time>
      </trkpt>
      <trkpt lat="42.0637310" lon="-2.4351440">
        <ele>1237.3</ele>
        <time>2022-08-14T10:49:28Z</time>
      </trkpt>
      <trkpt lat="42.0638330" lon="-2.4349980">
        <ele>1235.8</ele>
        <time>2022-08-14T10:49:30Z</time>
      </trkpt>
      <trkpt lat="42.0638980" lon="-2.4349440">
        <ele>1235.0</ele>
        <time>2022-08-14T10:49:31Z</time>
      </trkpt>
      <trkpt lat="42.0639680" lon="-2.4349100">
        <ele>1234.3</ele>
        <time>2022-08-14T10:49:32Z</time>
      </trkpt>
      <trkpt lat="42.0641020" lon="-2.4348860">
        <ele>1232.8</ele>
        <time>2022-08-14T10:49:34Z</time>
      </trkpt>
      <trkpt lat="42.0642810" lon="-2.4349060">
        <ele>1230.9</ele>
        <time>2022-08-14T10:49:36Z</time>
      </trkpt>
      <trkpt lat="42.0644340" lon="-2.4349370">
        <ele>1229.4</ele>
        <time>2022-08-14T10:49:38Z</time>
      </trkpt>
      <trkpt lat="42.0645290" lon="-2.4349360">
        <ele>1228.6</ele>
        <time>2022-08-14T10:49:39Z</time>
      </trkpt>
      <trkpt lat="42.0646030" lon="-2.4349190">
        <ele>1228.1</ele>
        <time>2022-08-14T10:49:40Z</time>
      </trkpt>
      <trkpt lat="42.0646720" lon="-2.4348940">
        <ele>1227.6</ele>
        <time>2022-08-14T10:49:41Z</time>
      </trkpt>
      <trkpt lat="42.0647860" lon="-2.4348090">
        <ele>1226.7</ele>
        <time>2022-08-14T10:49:43Z</time>
      </trkpt>
      <trkpt lat="42.0648210" lon="-2.4347270">
        <ele>1226.3</ele>
        <time>2022-08-14T10:49:44Z</time>
      </trkpt>
      <trkpt lat="42.0648490" lon="-2.4346380">
        <ele>1226.0</ele>
        <time>2022-08-14T10:49:45Z</time>
      </trkpt>
      <trkpt lat="42.0647830" lon="-2.4344620">
        <ele>1225.4</ele>
        <time>2022-08-14T10:49:47Z</time>
      </trkpt>
      <trkpt lat="42.0647350" lon="-2.4343860">
        <ele>1225.2</ele>
        <time>2022-08-14T10:49:48Z</time>
      </trkpt>
      <trkpt lat="42.0646650" lon="-2.4342980">
        <ele>1225.0</ele>
        <time>2022-08-14T10:49:49Z</time>
      </trkpt>
      <trkpt lat="42.0645690" lon="-2.4341670">
        <ele>1224.9</ele>
        <time>2022-08-14T10:49:51Z</time>
      </trkpt>
      <trkpt lat="42.0645130" lon="-2.4340840">
        <ele>1225.0</ele>
        <time>2022-08-14T10:49:52Z</time>
      </trkpt>
      <trkpt lat="42.0644630" lon="-2.4340160">
        <ele>1225.1</ele>
        <time>2022-08-14T10:49:53Z</time>
      </trkpt>
      <trkpt lat="42.0643100" lon="-2.4338130">
        <ele>1225.7</ele>
        <time>2022-08-14T10:49:56Z</time>
      </trkpt>
      <trkpt lat="42.0642140" lon="-2.4336950">
        <ele>1226.3</ele>
        <time>2022-08-14T10:49:58Z</time>
      </trkpt>
      <trkpt lat="42.0641330" lon="-2.4335960">
        <ele>1227.1</ele>
        <time>2022-08-14T10:50:00Z</time>
      </trkpt>
      <trkpt lat="42.0640800" lon="-2.4335390">
        <ele>1227.6</ele>
        <time>2022-08-14T10:50:01Z</time>
      </trkpt>
      <trkpt lat="42.0639680" lon="-2.4334510">
        <ele>1228.6</ele>
        <time>2022-08-14T10:50:04Z</time>
      </trkpt>
      <trkpt lat="42.0638140" lon="-2.4333610">
        <ele>1230.0</ele>
        <time>2022-08-14T10:50:09Z</time>
      </trkpt>
      <trkpt lat="42.0637290" lon="-2.4333100">
        <ele>1230.8</ele>
        <time>2022-08-14T10:50:12Z</time>
      </trkpt>
      <trkpt lat="42.0636470" lon="-2.4332770">
        <ele>1231.5</ele>
        <time>2022-08-14T10:50:15Z</time>
      </trkpt>
      <trkpt lat="42.0636000" lon="-2.4332650">
        <ele>1231.9</ele>
        <time>2022-08-14T10:50:17Z</time>
      </trkpt>
      <trkpt lat="42.0635220" lon="-2.4332300">
        <ele>1232.6</ele>
        <time>2022-08-14T10:50:20Z</time>
      </trkpt>
      <trkpt lat="42.0634770" lon="-2.4332110">
        <ele>1233.0</ele>
        <time>2022-08-14T10:50:22Z</time>
      </trkpt>
      <trkpt lat="42.0634210" lon="-2.4331920">
        <ele>1233.5</ele>
        <time>2022-08-14T10:50:24Z</time>
      </trkpt>
      <trkpt lat="42.0633750" lon="-2.4331760">
        <ele>1233.8</ele>
        <time>2022-08-14T10:50:26Z</time>
      </trkpt>
      <trkpt lat="42.0633010" lon="-2.4331430">
        <ele>1234.5</ele>
        <time>2022-08-14T10:50:29Z</time>
      </trkpt>
      <trkpt lat="42.0632560" lon="-2.4331180">
        <ele>1234.8</ele>
        <time>2022-08-14T10:50:31Z</time>
      </trkpt>
      <trkpt lat="42.0631680" lon="-2.4330680">
        <ele>1235.6</ele>
        <time>2022-08-14T10:50:35Z</time>
      </trkpt>
      <trkpt lat="42.0631460" lon="-2.4330520">
        <ele>1235.7</ele>
        <time>2022-08-14T10:50:36Z</time>
      </trkpt>
      <trkpt lat="42.0630690" lon="-2.4329630">
        <ele>1236.4</ele>
        <time>2022-08-14T10:50:40Z</time>
      </trkpt>
      <trkpt lat="42.0630200" lon="-2.4329030">
        <ele>1236.8</ele>
        <time>2022-08-14T10:50:42Z</time>
      </trkpt>
      <trkpt lat="42.0629680" lon="-2.4328000">
        <ele>1237.2</ele>
        <time>2022-08-14T10:50:46Z</time>
      </trkpt>
      <trkpt lat="42.0629130" lon="-2.4326410">
        <ele>1237.7</ele>
        <time>2022-08-14T10:50:51Z</time>
      </trkpt>
      <trkpt lat="42.0628660" lon="-2.4324640">
        <ele>1237.9</ele>
        <time>2022-08-14T10:50:56Z</time>
      </trkpt>
      <trkpt lat="42.0628430" lon="-2.4323040">
        <ele>1238.1</ele>
        <time>2022-08-14T10:51:00Z</time>
      </trkpt>
      <trkpt lat="42.0628590" lon="-2.4320480">
        <ele>1238.1</ele>
        <time>2022-08-14T10:51:06Z</time>
      </trkpt>
      <trkpt lat="42.0628660" lon="-2.4319960">
        <ele>1238.1</ele>
        <time>2022-08-14T10:51:07Z</time>
      </trkpt>
      <trkpt lat="42.0629080" lon="-2.4317520">
        <ele>1238.0</ele>
        <time>2022-08-14T10:51:12Z</time>
      </trkpt>
      <trkpt lat="42.0629510" lon="-2.4315400">
        <ele>1237.9</ele>
        <time>2022-08-14T10:51:16Z</time>
      </trkpt>
      <trkpt lat="42.0629740" lon="-2.4314250">
        <ele>1237.9</ele>
        <time>2022-08-14T10:51:18Z</time>
      </trkpt>
      <trkpt lat="42.0630340" lon="-2.4311470">
        <ele>1238.0</ele>
        <time>2022-08-14T10:51:23Z</time>
      </trkpt>
      <trkpt lat="42.0630600" lon="-2.4310110">
        <ele>1237.9</ele>
        <time>2022-08-14T10:51:25Z</time>
      </trkpt>
      <trkpt lat="42.0630710" lon="-2.4309620">
        <ele>1237.9</ele>
        <time>2022-08-14T10:51:26Z</time>
      </trkpt>
      <trkpt lat="42.0631240" lon="-2.4307080">
        <ele>1238.1</ele>
        <time>2022-08-14T10:51:30Z</time>
      </trkpt>
      <trkpt lat="42.0631680" lon="-2.4304650">
        <ele>1238.4</ele>
        <time>2022-08-14T10:51:34Z</time>
      </trkpt>
      <trkpt lat="42.0632000" lon="-2.4303020">
        <ele>1238.6</ele>
        <time>2022-08-14T10:51:37Z</time>
      </trkpt>
      <trkpt lat="42.0633060" lon="-2.4297960">
        <ele>1239.6</ele>
        <time>2022-08-14T10:51:46Z</time>
      </trkpt>
      <trkpt lat="42.0633410" lon="-2.4296240">
        <ele>1240.0</ele>
        <time>2022-08-14T10:51:49Z</time>
      </trkpt>
      <trkpt lat="42.0633850" lon="-2.4294030">
        <ele>1240.4</ele>
        <time>2022-08-14T10:51:53Z</time>
      </trkpt>
      <trkpt lat="42.0633950" lon="-2.4293610">
        <ele>1240.5</ele>
        <time>2022-08-14T10:51:54Z</time>
      </trkpt>
      <trkpt lat="42.0634550" lon="-2.4291320">
        <ele>1240.8</ele>
        <time>2022-08-14T10:51:58Z</time>
      </trkpt>
      <trkpt lat="42.0635910" lon="-2.4286400">
        <ele>1241.4</ele>
        <time>2022-08-14T10:52:07Z</time>
      </trkpt>
      <trkpt lat="42.0636700" lon="-2.4283390">
        <ele>1241.7</ele>
        <time>2022-08-14T10:52:12Z</time>
      </trkpt>
      <trkpt lat="42.0638190" lon="-2.4280020">
        <ele>1241.9</ele>
        <time>2022-08-14T10:52:19Z</time>
      </trkpt>
      <trkpt lat="42.0638720" lon="-2.4279130">
        <ele>1241.9</ele>
        <time>2022-08-14T10:52:21Z</time>
      </trkpt>
      <trkpt lat="42.0639560" lon="-2.4277560">
        <ele>1241.9</ele>
        <time>2022-08-14T10:52:24Z</time>
      </trkpt>
      <trkpt lat="42.0640040" lon="-2.4276700">
        <ele>1242.0</ele>
        <time>2022-08-14T10:52:26Z</time>
      </trkpt>
      <trkpt lat="42.0640890" lon="-2.4275210">
        <ele>1242.0</ele>
        <time>2022-08-14T10:52:29Z</time>
      </trkpt>
      <trkpt lat="42.0641460" lon="-2.4274260">
        <ele>1241.9</ele>
        <time>2022-08-14T10:52:31Z</time>
      </trkpt>
      <trkpt lat="42.0644930" lon="-2.4268420">
        <ele>1241.6</ele>
        <time>2022-08-14T10:52:43Z</time>
      </trkpt>
      <trkpt lat="42.0645590" lon="-2.4267420">
        <ele>1241.5</ele>
        <time>2022-08-14T10:52:45Z</time>
      </trkpt>
      <trkpt lat="42.0647800" lon="-2.4264780">
        <ele>1241.0</ele>
        <time>2022-08-14T10:52:51Z</time>
      </trkpt>
      <trkpt lat="42.0648980" lon="-2.4263460">
        <ele>1240.8</ele>
        <time>2022-08-14T10:52:54Z</time>
      </trkpt>
      <trkpt lat="42.0650980" lon="-2.4261510">
        <ele>1240.9</ele>
        <time>2022-08-14T10:52:59Z</time>
      </trkpt>
      <trkpt lat="42.0651440" lon="-2.4261210">
        <ele>1241.0</ele>
        <time>2022-08-14T10:53:00Z</time>
      </trkpt>
      <trkpt lat="42.0651900" lon="-2.4260980">
        <ele>1241.0</ele>
        <time>2022-08-14T10:53:01Z</time>
      </trkpt>
      <trkpt lat="42.0652820" lon="-2.4260650">
        <ele>1241.2</ele>
        <time>2022-08-14T10:53:03Z</time>
      </trkpt>
      <trkpt lat="42.0654600" lon="-2.4260400">
        <ele>1241.6</ele>
        <time>2022-08-14T10:53:07Z</time>
      </trkpt>
      <trkpt lat="42.0656000" lon="-2.4260380">
        <ele>1241.7</ele>
        <time>2022-08-14T10:53:10Z</time>
      </trkpt>
      <trkpt lat="42.0658250" lon="-2.4260290">
        <ele>1242.2</ele>
        <time>2022-08-14T10:53:15Z</time>
      </trkpt>
      <trkpt lat="42.0659100" lon="-2.4260200">
        <ele>1242.4</ele>
        <time>2022-08-14T10:53:17Z</time>
      </trkpt>
      <trkpt lat="42.0661960" lon="-2.4259980">
        <ele>1243.6</ele>
        <time>2022-08-14T10:53:24Z</time>
      </trkpt>
      <trkpt lat="42.0662750" lon="-2.4259930">
        <ele>1244.0</ele>
        <time>2022-08-14T10:53:26Z</time>
      </trkpt>
      <trkpt lat="42.0663150" lon="-2.4259960">
        <ele>1244.2</ele>
        <time>2022-08-14T10:53:27Z</time>
      </trkpt>
      <trkpt lat="42.0665450" lon="-2.4260630">
        <ele>1245.3</ele>
        <time>2022-08-14T10:53:33Z</time>
      </trkpt>
      <trkpt lat="42.0666630" lon="-2.4261140">
        <ele>1245.8</ele>
        <time>2022-08-14T10:53:36Z</time>
      </trkpt>
      <trkpt lat="42.0669310" lon="-2.4262080">
        <ele>1247.3</ele>
        <time>2022-08-14T10:53:42Z</time>
      </trkpt>
      <trkpt lat="42.0670950" lon="-2.4261440">
        <ele>1248.3</ele>
        <time>2022-08-14T10:53:47Z</time>
      </trkpt>
      <trkpt lat="42.0671470" lon="-2.4260840">
        <ele>1248.8</ele>
        <time>2022-08-14T10:53:49Z</time>
      </trkpt>
      <trkpt lat="42.0672440" lon="-2.4259790">
        <ele>1249.5</ele>
        <time>2022-08-14T10:53:53Z</time>
      </trkpt>
      <trkpt lat="42.0672660" lon="-2.4259520">
        <ele>1249.7</ele>
        <time>2022-08-14T10:53:54Z</time>
      </trkpt>
      <trkpt lat="42.0673480" lon="-2.4258570">
        <ele>1250.3</ele>
        <time>2022-08-14T10:53:58Z</time>
      </trkpt>
      <trkpt lat="42.0673930" lon="-2.4258100">
        <ele>1250.6</ele>
        <time>2022-08-14T10:54:00Z</time>
      </trkpt>
      <trkpt lat="42.0674760" lon="-2.4257120">
        <ele>1251.4</ele>
        <time>2022-08-14T10:54:04Z</time>
      </trkpt>
      <trkpt lat="42.0675890" lon="-2.4256280">
        <ele>1252.3</ele>
        <time>2022-08-14T10:54:09Z</time>
      </trkpt>
      <trkpt lat="42.0676100" lon="-2.4256140">
        <ele>1252.5</ele>
        <time>2022-08-14T10:54:10Z</time>
      </trkpt>
      <trkpt lat="42.0677130" lon="-2.4255590">
        <ele>1253.2</ele>
        <time>2022-08-14T10:54:14Z</time>
      </trkpt>
      <trkpt lat="42.0677870" lon="-2.4255190">
        <ele>1253.7</ele>
        <time>2022-08-14T10:54:17Z</time>
      </trkpt>
      <trkpt lat="42.0678590" lon="-2.4254820">
        <ele>1254.3</ele>
        <time>2022-08-14T10:54:20Z</time>
      </trkpt>
      <trkpt lat="42.0679080" lon="-2.4254580">
        <ele>1254.6</ele>
        <time>2022-08-14T10:54:22Z</time>
      </trkpt>
      <trkpt lat="42.0681040" lon="-2.4253660">
        <ele>1256.0</ele>
        <time>2022-08-14T10:54:30Z</time>
      </trkpt>
      <trkpt lat="42.0681710" lon="-2.4253350">
        <ele>1256.5</ele>
        <time>2022-08-14T10:54:33Z</time>
      </trkpt>
      <trkpt lat="42.0682840" lon="-2.4252600">
        <ele>1257.4</ele>
        <time>2022-08-14T10:54:38Z</time>
      </trkpt>
      <trkpt lat="42.0683780" lon="-2.4251750">
        <ele>1258.3</ele>
        <time>2022-08-14T10:54:43Z</time>
      </trkpt>
      <trkpt lat="42.0684290" lon="-2.4251010">
        <ele>1258.8</ele>
        <time>2022-08-14T10:54:46Z</time>
      </trkpt>
      <trkpt lat="42.0684600" lon="-2.4250480">
        <ele>1259.2</ele>
        <time>2022-08-14T10:54:48Z</time>
      </trkpt>
      <trkpt lat="42.0685350" lon="-2.4249120">
        <ele>1260.1</ele>
        <time>2022-08-14T10:54:53Z</time>
      </trkpt>
      <trkpt lat="42.0685760" lon="-2.4248190">
        <ele>1260.7</ele>
        <time>2022-08-14T10:54:56Z</time>
      </trkpt>
      <trkpt lat="42.0686260" lon="-2.4245910">
        <ele>1262.0</ele>
        <time>2022-08-14T10:55:03Z</time>
      </trkpt>
      <trkpt lat="42.0686270" lon="-2.4245560">
        <ele>1262.2</ele>
        <time>2022-08-14T10:55:04Z</time>
      </trkpt>
      <trkpt lat="42.0686230" lon="-2.4244090">
        <ele>1262.9</ele>
        <time>2022-08-14T10:55:08Z</time>
      </trkpt>
      <trkpt lat="42.0686190" lon="-2.4243810">
        <ele>1263.1</ele>
        <time>2022-08-14T10:55:09Z</time>
      </trkpt>
      <trkpt lat="42.0686110" lon="-2.4243130">
        <ele>1263.4</ele>
        <time>2022-08-14T10:55:11Z</time>
      </trkpt>
      <trkpt lat="42.0686010" lon="-2.4242460">
        <ele>1263.8</ele>
        <time>2022-08-14T10:55:13Z</time>
      </trkpt>
      <trkpt lat="42.0685840" lon="-2.4241440">
        <ele>1264.2</ele>
        <time>2022-08-14T10:55:16Z</time>
      </trkpt>
      <trkpt lat="42.0685470" lon="-2.4239500">
        <ele>1265.2</ele>
        <time>2022-08-14T10:55:22Z</time>
      </trkpt>
      <trkpt lat="42.0685400" lon="-2.4239160">
        <ele>1265.3</ele>
        <time>2022-08-14T10:55:23Z</time>
      </trkpt>
      <trkpt lat="42.0685050" lon="-2.4237150">
        <ele>1266.3</ele>
        <time>2022-08-14T10:55:29Z</time>
      </trkpt>
      <trkpt lat="42.0684930" lon="-2.4236470">
        <ele>1266.7</ele>
        <time>2022-08-14T10:55:31Z</time>
      </trkpt>
      <trkpt lat="42.0685050" lon="-2.4233850">
        <ele>1268.0</ele>
        <time>2022-08-14T10:55:39Z</time>
      </trkpt>
      <trkpt lat="42.0685110" lon="-2.4233530">
        <ele>1268.2</ele>
        <time>2022-08-14T10:55:40Z</time>
      </trkpt>
      <trkpt lat="42.0685920" lon="-2.4231350">
        <ele>1269.3</ele>
        <time>2022-08-14T10:55:48Z</time>
      </trkpt>
      <trkpt lat="42.0686060" lon="-2.4231090">
        <ele>1269.4</ele>
        <time>2022-08-14T10:55:49Z</time>
      </trkpt>
      <trkpt lat="42.0686850" lon="-2.4229570">
        <ele>1270.1</ele>
        <time>2022-08-14T10:55:55Z</time>
      </trkpt>
      <trkpt lat="42.0687370" lon="-2.4228530">
        <ele>1270.5</ele>
        <time>2022-08-14T10:55:59Z</time>
      </trkpt>
      <trkpt lat="42.0687660" lon="-2.4227980">
        <ele>1270.6</ele>
        <time>2022-08-14T10:56:01Z</time>
      </trkpt>
      <trkpt lat="42.0688590" lon="-2.4226010">
        <ele>1270.6</ele>
        <time>2022-08-14T10:56:07Z</time>
      </trkpt>
      <trkpt lat="42.0688990" lon="-2.4225410">
        <ele>1270.4</ele>
        <time>2022-08-14T10:56:09Z</time>
      </trkpt>
      <trkpt lat="42.0690000" lon="-2.4224000">
        <ele>1269.8</ele>
        <time>2022-08-14T10:56:12Z</time>
      </trkpt>
      <trkpt lat="42.0690320" lon="-2.4223580">
        <ele>1269.6</ele>
        <time>2022-08-14T10:56:13Z</time>
      </trkpt>
      <trkpt lat="42.0691760" lon="-2.4221960">
        <ele>1268.4</ele>
        <time>2022-08-14T10:56:17Z</time>
      </trkpt>
      <trkpt lat="42.0692770" lon="-2.4220930">
        <ele>1267.4</ele>
        <time>2022-08-14T10:56:19Z</time>
      </trkpt>
      <trkpt lat="42.0693900" lon="-2.4219800">
        <ele>1266.2</ele>
        <time>2022-08-14T10:56:21Z</time>
      </trkpt>
      <trkpt lat="42.0695170" lon="-2.4218540">
        <ele>1264.9</ele>
        <time>2022-08-14T10:56:23Z</time>
      </trkpt>
      <trkpt lat="42.0695720" lon="-2.4217990">
        <ele>1264.2</ele>
        <time>2022-08-14T10:56:24Z</time>
      </trkpt>
      <trkpt lat="42.0696450" lon="-2.4217300">
        <ele>1263.4</ele>
        <time>2022-08-14T10:56:25Z</time>
      </trkpt>
      <trkpt lat="42.0697250" lon="-2.4216680">
        <ele>1262.5</ele>
        <time>2022-08-14T10:56:26Z</time>
      </trkpt>
      <trkpt lat="42.0698350" lon="-2.4216100">
        <ele>1261.6</ele>
        <time>2022-08-14T10:56:27Z</time>
      </trkpt>
      <trkpt lat="42.0699160" lon="-2.4215940">
        <ele>1261.1</ele>
        <time>2022-08-14T10:56:28Z</time>
      </trkpt>
      <trkpt lat="42.0701420" lon="-2.4215960">
        <ele>1259.7</ele>
        <time>2022-08-14T10:56:30Z</time>
      </trkpt>
      <trkpt lat="42.0703440" lon="-2.4215810">
        <ele>1258.7</ele>
        <time>2022-08-14T10:56:32Z</time>
      </trkpt>
      <trkpt lat="42.0704180" lon="-2.4215420">
        <ele>1258.5</ele>
        <time>2022-08-14T10:56:33Z</time>
      </trkpt>
      <trkpt lat="42.0705030" lon="-2.4214720">
        <ele>1258.4</ele>
        <time>2022-08-14T10:56:34Z</time>
      </trkpt>
      <trkpt lat="42.0706310" lon="-2.4212890">
        <ele>1258.7</ele>
        <time>2022-08-14T10:56:36Z</time>
      </trkpt>
      <trkpt lat="42.0707420" lon="-2.4211100">
        <ele>1259.3</ele>
        <time>2022-08-14T10:56:38Z</time>
      </trkpt>
      <trkpt lat="42.0708780" lon="-2.4208800">
        <ele>1260.1</ele>
        <time>2022-08-14T10:56:41Z</time>
      </trkpt>
      <trkpt lat="42.0710520" lon="-2.4205690">
        <ele>1261.1</ele>
        <time>2022-08-14T10:56:46Z</time>
      </trkpt>
      <trkpt lat="42.0712800" lon="-2.4201700">
        <ele>1262.1</ele>
        <time>2022-08-14T10:56:53Z</time>
      </trkpt>
      <trkpt lat="42.0713130" lon="-2.4201130">
        <ele>1262.2</ele>
        <time>2022-08-14T10:56:54Z</time>
      </trkpt>
      <trkpt lat="42.0713800" lon="-2.4199970">
        <ele>1262.4</ele>
        <time>2022-08-14T10:56:56Z</time>
      </trkpt>
      <trkpt lat="42.0716790" lon="-2.4194830">
        <ele>1264.1</ele>
        <time>2022-08-14T10:57:05Z</time>
      </trkpt>
      <trkpt lat="42.0717420" lon="-2.4193810">
        <ele>1264.5</ele>
        <time>2022-08-14T10:57:07Z</time>
      </trkpt>
      <trkpt lat="42.0717930" lon="-2.4192760">
        <ele>1264.9</ele>
        <time>2022-08-14T10:57:10Z</time>
      </trkpt>
      <trkpt lat="42.0718050" lon="-2.4191980">
        <ele>1264.5</ele>
        <time>2022-08-14T10:57:13Z</time>
      </trkpt>
      <trkpt lat="42.0717990" lon="-2.4191840">
        <ele>1264.4</ele>
        <time>2022-08-14T10:57:15Z</time>
      </trkpt>
      <trkpt lat="42.0717920" lon="-2.4191700">
        <ele>1264.3</ele>
        <time>2022-08-14T10:57:16Z</time>
      </trkpt>
      <trkpt lat="42.0717860" lon="-2.4191560">
        <ele>1264.3</ele>
        <time>2022-08-14T10:59:11Z</time>
      </trkpt>
      <trkpt lat="42.0717800" lon="-2.4191420">
        <ele>1264.2</ele>
        <time>2022-08-14T10:59:12Z</time>
      </trkpt>
      <trkpt lat="42.0717490" lon="-2.4191230">
        <ele>1264.0</ele>
        <time>2022-08-14T10:59:13Z</time>
      </trkpt>
      <trkpt lat="42.0717160" lon="-2.4190940">
        <ele>1263.8</ele>
        <time>2022-08-14T10:59:14Z</time>
      </trkpt>
      <trkpt lat="42.0716490" lon="-2.4190120">
        <ele>1263.4</ele>
        <time>2022-08-14T10:59:16Z</time>
      </trkpt>
      <trkpt lat="42.0716180" lon="-2.4189610">
        <ele>1263.2</ele>
        <time>2022-08-14T10:59:17Z</time>
      </trkpt>
      <trkpt lat="42.0714990" lon="-2.4187010">
        <ele>1262.5</ele>
        <time>2022-08-14T10:59:21Z</time>
      </trkpt>
      <trkpt lat="42.0714720" lon="-2.4186290">
        <ele>1262.3</ele>
        <time>2022-08-14T10:59:22Z</time>
      </trkpt>
      <trkpt lat="42.0714000" lon="-2.4184060">
        <ele>1262.0</ele>
        <time>2022-08-14T10:59:25Z</time>
      </trkpt>
      <trkpt lat="42.0713780" lon="-2.4183280">
        <ele>1261.8</ele>
        <time>2022-08-14T10:59:26Z</time>
      </trkpt>
      <trkpt lat="42.0713360" lon="-2.4181700">
        <ele>1261.6</ele>
        <time>2022-08-14T10:59:28Z</time>
      </trkpt>
      <trkpt lat="42.0713170" lon="-2.4180920">
        <ele>1261.4</ele>
        <time>2022-08-14T10:59:29Z</time>
      </trkpt>
      <trkpt lat="42.0712790" lon="-2.4179400">
        <ele>1261.1</ele>
        <time>2022-08-14T10:59:31Z</time>
      </trkpt>
      <trkpt lat="42.0711960" lon="-2.4176450">
        <ele>1260.8</ele>
        <time>2022-08-14T10:59:35Z</time>
      </trkpt>
      <trkpt lat="42.0711560" lon="-2.4174920">
        <ele>1260.7</ele>
        <time>2022-08-14T10:59:37Z</time>
      </trkpt>
      <trkpt lat="42.0711130" lon="-2.4173350">
        <ele>1260.7</ele>
        <time>2022-08-14T10:59:39Z</time>
      </trkpt>
      <trkpt lat="42.0710900" lon="-2.4172560">
        <ele>1260.7</ele>
        <time>2022-08-14T10:59:40Z</time>
      </trkpt>
      <trkpt lat="42.0710030" lon="-2.4169310">
        <ele>1260.6</ele>
        <time>2022-08-14T10:59:44Z</time>
      </trkpt>
      <trkpt lat="42.0709540" lon="-2.4167620">
        <ele>1260.5</ele>
        <time>2022-08-14T10:59:46Z</time>
      </trkpt>
      <trkpt lat="42.0709310" lon="-2.4166810">
        <ele>1260.4</ele>
        <time>2022-08-14T10:59:47Z</time>
      </trkpt>
      <trkpt lat="42.0707460" lon="-2.4160550">
        <ele>1260.1</ele>
        <time>2022-08-14T10:59:55Z</time>
      </trkpt>
      <trkpt lat="42.0707000" lon="-2.4158990">
        <ele>1260.0</ele>
        <time>2022-08-14T10:59:57Z</time>
      </trkpt>
      <trkpt lat="42.0706540" lon="-2.4157360">
        <ele>1259.9</ele>
        <time>2022-08-14T10:59:59Z</time>
      </trkpt>
      <trkpt lat="42.0705020" lon="-2.4151620">
        <ele>1259.3</ele>
        <time>2022-08-14T11:00:06Z</time>
      </trkpt>
      <trkpt lat="42.0704150" lon="-2.4148620">
        <ele>1258.6</ele>
        <time>2022-08-14T11:00:09Z</time>
      </trkpt>
      <trkpt lat="42.0703780" lon="-2.4147250">
        <ele>1258.3</ele>
        <time>2022-08-14T11:00:11Z</time>
      </trkpt>
      <trkpt lat="42.0703220" lon="-2.4144760">
        <ele>1257.8</ele>
        <time>2022-08-14T11:00:14Z</time>
      </trkpt>
      <trkpt lat="42.0703040" lon="-2.4143860">
        <ele>1257.5</ele>
        <time>2022-08-14T11:00:15Z</time>
      </trkpt>
      <trkpt lat="42.0702530" lon="-2.4141010">
        <ele>1256.6</ele>
        <time>2022-08-14T11:00:18Z</time>
      </trkpt>
      <trkpt lat="42.0702340" lon="-2.4140030">
        <ele>1256.3</ele>
        <time>2022-08-14T11:00:19Z</time>
      </trkpt>
      <trkpt lat="42.0702010" lon="-2.4138030">
        <ele>1255.7</ele>
        <time>2022-08-14T11:00:21Z</time>
      </trkpt>
      <trkpt lat="42.0701640" lon="-2.4135970">
        <ele>1254.8</ele>
        <time>2022-08-14T11:00:23Z</time>
      </trkpt>
      <trkpt lat="42.0701110" lon="-2.4132790">
        <ele>1253.5</ele>
        <time>2022-08-14T11:00:26Z</time>
      </trkpt>
      <trkpt lat="42.0700370" lon="-2.4128160">
        <ele>1250.9</ele>
        <time>2022-08-14T11:00:30Z</time>
      </trkpt>
      <trkpt lat="42.0699960" lon="-2.4125650">
        <ele>1249.4</ele>
        <time>2022-08-14T11:00:32Z</time>
      </trkpt>
      <trkpt lat="42.0699760" lon="-2.4124350">
        <ele>1248.7</ele>
        <time>2022-08-14T11:00:33Z</time>
      </trkpt>
      <trkpt lat="42.0699100" lon="-2.4120380">
        <ele>1246.7</ele>
        <time>2022-08-14T11:00:36Z</time>
      </trkpt>
      <trkpt lat="42.0698910" lon="-2.4119020">
        <ele>1246.1</ele>
        <time>2022-08-14T11:00:37Z</time>
      </trkpt>
      <trkpt lat="42.0698690" lon="-2.4117630">
        <ele>1245.5</ele>
        <time>2022-08-14T11:00:38Z</time>
      </trkpt>
      <trkpt lat="42.0698000" lon="-2.4113300">
        <ele>1243.3</ele>
        <time>2022-08-14T11:00:41Z</time>
      </trkpt>
      <trkpt lat="42.0697760" lon="-2.4111810">
        <ele>1242.5</ele>
        <time>2022-08-14T11:00:42Z</time>
      </trkpt>
      <trkpt lat="42.0697510" lon="-2.4110330">
        <ele>1241.9</ele>
        <time>2022-08-14T11:00:43Z</time>
      </trkpt>
      <trkpt lat="42.0697240" lon="-2.4108870">
        <ele>1241.4</ele>
        <time>2022-08-14T11:00:44Z</time>
      </trkpt>
      <trkpt lat="42.0696980" lon="-2.4107410">
        <ele>1240.9</ele>
        <time>2022-08-14T11:00:45Z</time>
      </trkpt>
      <trkpt lat="42.0696480" lon="-2.4104460">
        <ele>1239.7</ele>
        <time>2022-08-14T11:00:47Z</time>
      </trkpt>
      <trkpt lat="42.0696010" lon="-2.4101480">
        <ele>1238.5</ele>
        <time>2022-08-14T11:00:49Z</time>
      </trkpt>
      <trkpt lat="42.0695780" lon="-2.4100000">
        <ele>1238.0</ele>
        <time>2022-08-14T11:00:50Z</time>
      </trkpt>
      <trkpt lat="42.0695540" lon="-2.4098530">
        <ele>1237.4</ele>
        <time>2022-08-14T11:00:51Z</time>
      </trkpt>
      <trkpt lat="42.0695310" lon="-2.4097030">
        <ele>1236.8</ele>
        <time>2022-08-14T11:00:52Z</time>
      </trkpt>
      <trkpt lat="42.0695080" lon="-2.4095510">
        <ele>1236.2</ele>
        <time>2022-08-14T11:00:53Z</time>
      </trkpt>
      <trkpt lat="42.0694590" lon="-2.4092450">
        <ele>1235.1</ele>
        <time>2022-08-14T11:00:55Z</time>
      </trkpt>
      <trkpt lat="42.0694020" lon="-2.4089440">
        <ele>1234.1</ele>
        <time>2022-08-14T11:00:57Z</time>
      </trkpt>
      <trkpt lat="42.0693720" lon="-2.4087980">
        <ele>1233.7</ele>
        <time>2022-08-14T11:00:58Z</time>
      </trkpt>
      <trkpt lat="42.0693450" lon="-2.4086570">
        <ele>1233.2</ele>
        <time>2022-08-14T11:00:59Z</time>
      </trkpt>
      <trkpt lat="42.0693200" lon="-2.4085160">
        <ele>1232.8</ele>
        <time>2022-08-14T11:01:00Z</time>
      </trkpt>
      <trkpt lat="42.0692770" lon="-2.4082330">
        <ele>1232.1</ele>
        <time>2022-08-14T11:01:02Z</time>
      </trkpt>
      <trkpt lat="42.0692580" lon="-2.4080920">
        <ele>1231.6</ele>
        <time>2022-08-14T11:01:03Z</time>
      </trkpt>
      <trkpt lat="42.0692400" lon="-2.4079480">
        <ele>1231.1</ele>
        <time>2022-08-14T11:01:04Z</time>
      </trkpt>
      <trkpt lat="42.0691970" lon="-2.4076560">
        <ele>1229.7</ele>
        <time>2022-08-14T11:01:06Z</time>
      </trkpt>
      <trkpt lat="42.0691730" lon="-2.4075020">
        <ele>1228.8</ele>
        <time>2022-08-14T11:01:07Z</time>
      </trkpt>
      <trkpt lat="42.0690730" lon="-2.4068700">
        <ele>1225.2</ele>
        <time>2022-08-14T11:01:11Z</time>
      </trkpt>
      <trkpt lat="42.0690480" lon="-2.4067110">
        <ele>1224.2</ele>
        <time>2022-08-14T11:01:12Z</time>
      </trkpt>
      <trkpt lat="42.0689960" lon="-2.4063920">
        <ele>1222.6</ele>
        <time>2022-08-14T11:01:14Z</time>
      </trkpt>
      <trkpt lat="42.0689430" lon="-2.4060760">
        <ele>1221.8</ele>
        <time>2022-08-14T11:01:16Z</time>
      </trkpt>
      <trkpt lat="42.0688930" lon="-2.4057640">
        <ele>1221.3</ele>
        <time>2022-08-14T11:01:18Z</time>
      </trkpt>
      <trkpt lat="42.0688670" lon="-2.4056100">
        <ele>1221.3</ele>
        <time>2022-08-14T11:01:19Z</time>
      </trkpt>
      <trkpt lat="42.0688430" lon="-2.4054580">
        <ele>1221.0</ele>
        <time>2022-08-14T11:01:20Z</time>
      </trkpt>
      <trkpt lat="42.0688180" lon="-2.4053100">
        <ele>1220.5</ele>
        <time>2022-08-14T11:01:21Z</time>
      </trkpt>
      <trkpt lat="42.0687680" lon="-2.4049940">
        <ele>1220.0</ele>
        <time>2022-08-14T11:01:23Z</time>
      </trkpt>
      <trkpt lat="42.0687520" lon="-2.4048830">
        <ele>1219.9</ele>
        <time>2022-08-14T11:01:24Z</time>
      </trkpt>
      <trkpt lat="42.0687340" lon="-2.4047500">
        <ele>1219.9</ele>
        <time>2022-08-14T11:01:25Z</time>
      </trkpt>
      <trkpt lat="42.0686350" lon="-2.4041210">
        <ele>1219.9</ele>
        <time>2022-08-14T11:01:30Z</time>
      </trkpt>
      <trkpt lat="42.0686100" lon="-2.4040000">
        <ele>1219.8</ele>
        <time>2022-08-14T11:01:31Z</time>
      </trkpt>
      <trkpt lat="42.0684410" lon="-2.4032970">
        <ele>1218.6</ele>
        <time>2022-08-14T11:01:37Z</time>
      </trkpt>
      <trkpt lat="42.0683080" lon="-2.4027880">
        <ele>1217.6</ele>
        <time>2022-08-14T11:01:41Z</time>
      </trkpt>
      <trkpt lat="42.0683080" lon="-2.4027880">
        <ele>1217.6</ele>
        <time>2022-08-14T11:01:42Z</time>
      </trkpt>
      <trkpt lat="42.0682560" lon="-2.4026260">
        <ele>1217.4</ele>
        <time>2022-08-14T11:01:43Z</time>
      </trkpt>
      <trkpt lat="42.0681990" lon="-2.4024450">
        <ele>1217.1</ele>
        <time>2022-08-14T11:01:45Z</time>
      </trkpt>
      <trkpt lat="42.0680670" lon="-2.4020430">
        <ele>1216.6</ele>
        <time>2022-08-14T11:01:49Z</time>
      </trkpt>
      <trkpt lat="42.0680030" lon="-2.4018430">
        <ele>1216.1</ele>
        <time>2022-08-14T11:01:51Z</time>
      </trkpt>
      <trkpt lat="42.0679000" lon="-2.4015190">
        <ele>1215.4</ele>
        <time>2022-08-14T11:01:54Z</time>
      </trkpt>
      <trkpt lat="42.0678730" lon="-2.4014370">
        <ele>1215.1</ele>
        <time>2022-08-14T11:01:55Z</time>
      </trkpt>
      <trkpt lat="42.0678410" lon="-2.4013350">
        <ele>1214.7</ele>
        <time>2022-08-14T11:01:56Z</time>
      </trkpt>
      <trkpt lat="42.0677730" lon="-2.4011240">
        <ele>1213.6</ele>
        <time>2022-08-14T11:01:58Z</time>
      </trkpt>
      <trkpt lat="42.0676990" lon="-2.4009060">
        <ele>1212.4</ele>
        <time>2022-08-14T11:02:00Z</time>
      </trkpt>
      <trkpt lat="42.0676600" lon="-2.4007940">
        <ele>1211.8</ele>
        <time>2022-08-14T11:02:01Z</time>
      </trkpt>
      <trkpt lat="42.0675720" lon="-2.4005430">
        <ele>1210.3</ele>
        <time>2022-08-14T11:02:03Z</time>
      </trkpt>
      <trkpt lat="42.0674490" lon="-2.4002070">
        <ele>1207.9</ele>
        <time>2022-08-14T11:02:06Z</time>
      </trkpt>
      <trkpt lat="42.0674000" lon="-2.4000790">
        <ele>1206.9</ele>
        <time>2022-08-14T11:02:07Z</time>
      </trkpt>
      <trkpt lat="42.0672920" lon="-2.3998260">
        <ele>1205.1</ele>
        <time>2022-08-14T11:02:09Z</time>
      </trkpt>
      <trkpt lat="42.0671640" lon="-2.3995780">
        <ele>1203.0</ele>
        <time>2022-08-14T11:02:11Z</time>
      </trkpt>
      <trkpt lat="42.0670970" lon="-2.3994530">
        <ele>1201.7</ele>
        <time>2022-08-14T11:02:12Z</time>
      </trkpt>
      <trkpt lat="42.0670290" lon="-2.3993270">
        <ele>1200.4</ele>
        <time>2022-08-14T11:02:13Z</time>
      </trkpt>
      <trkpt lat="42.0669590" lon="-2.3992010">
        <ele>1199.1</ele>
        <time>2022-08-14T11:02:14Z</time>
      </trkpt>
      <trkpt lat="42.0668850" lon="-2.3990730">
        <ele>1197.6</ele>
        <time>2022-08-14T11:02:15Z</time>
      </trkpt>
      <trkpt lat="42.0668080" lon="-2.3989420">
        <ele>1196.2</ele>
        <time>2022-08-14T11:02:16Z</time>
      </trkpt>
      <trkpt lat="42.0666520" lon="-2.3986680">
        <ele>1193.0</ele>
        <time>2022-08-14T11:02:18Z</time>
      </trkpt>
      <trkpt lat="42.0665700" lon="-2.3985260">
        <ele>1191.3</ele>
        <time>2022-08-14T11:02:19Z</time>
      </trkpt>
      <trkpt lat="42.0664110" lon="-2.3982370">
        <ele>1188.4</ele>
        <time>2022-08-14T11:02:21Z</time>
      </trkpt>
      <trkpt lat="42.0662490" lon="-2.3979510">
        <ele>1186.3</ele>
        <time>2022-08-14T11:02:23Z</time>
      </trkpt>
      <trkpt lat="42.0660900" lon="-2.3976650">
        <ele>1184.8</ele>
        <time>2022-08-14T11:02:25Z</time>
      </trkpt>
      <trkpt lat="42.0660110" lon="-2.3975290">
        <ele>1184.2</ele>
        <time>2022-08-14T11:02:26Z</time>
      </trkpt>
      <trkpt lat="42.0658660" lon="-2.3972730">
        <ele>1183.1</ele>
        <time>2022-08-14T11:02:28Z</time>
      </trkpt>
      <trkpt lat="42.0657320" lon="-2.3970330">
        <ele>1182.5</ele>
        <time>2022-08-14T11:02:30Z</time>
      </trkpt>
      <trkpt lat="42.0655510" lon="-2.3967110">
        <ele>1182.6</ele>
        <time>2022-08-14T11:02:33Z</time>
      </trkpt>
      <trkpt lat="42.0654460" lon="-2.3965480">
        <ele>1183.0</ele>
        <time>2022-08-14T11:02:35Z</time>
      </trkpt>
      <trkpt lat="42.0653960" lon="-2.3964690">
        <ele>1183.2</ele>
        <time>2022-08-14T11:02:36Z</time>
      </trkpt>
      <trkpt lat="42.0653040" lon="-2.3963130">
        <ele>1183.5</ele>
        <time>2022-08-14T11:02:38Z</time>
      </trkpt>
      <trkpt lat="42.0651770" lon="-2.3960910">
        <ele>1183.7</ele>
        <time>2022-08-14T11:02:41Z</time>
      </trkpt>
      <trkpt lat="42.0650560" lon="-2.3958710">
        <ele>1183.9</ele>
        <time>2022-08-14T11:02:44Z</time>
      </trkpt>
      <trkpt lat="42.0649820" lon="-2.3957190">
        <ele>1184.2</ele>
        <time>2022-08-14T11:02:46Z</time>
      </trkpt>
      <trkpt lat="42.0648990" lon="-2.3955660">
        <ele>1183.6</ele>
        <time>2022-08-14T11:02:48Z</time>
      </trkpt>
      <trkpt lat="42.0648160" lon="-2.3954100">
        <ele>1182.9</ele>
        <time>2022-08-14T11:02:50Z</time>
      </trkpt>
      <trkpt lat="42.0646300" lon="-2.3950840">
        <ele>1180.4</ele>
        <time>2022-08-14T11:02:54Z</time>
      </trkpt>
      <trkpt lat="42.0645190" lon="-2.3948950">
        <ele>1178.8</ele>
        <time>2022-08-14T11:02:56Z</time>
      </trkpt>
      <trkpt lat="42.0644650" lon="-2.3947820">
        <ele>1177.9</ele>
        <time>2022-08-14T11:02:57Z</time>
      </trkpt>
      <trkpt lat="42.0644160" lon="-2.3946560">
        <ele>1177.1</ele>
        <time>2022-08-14T11:02:58Z</time>
      </trkpt>
      <trkpt lat="42.0643770" lon="-2.3945200">
        <ele>1176.3</ele>
        <time>2022-08-14T11:02:59Z</time>
      </trkpt>
      <trkpt lat="42.0643110" lon="-2.3942360">
        <ele>1174.6</ele>
        <time>2022-08-14T11:03:01Z</time>
      </trkpt>
      <trkpt lat="42.0642800" lon="-2.3940930">
        <ele>1173.8</ele>
        <time>2022-08-14T11:03:02Z</time>
      </trkpt>
      <trkpt lat="42.0642240" lon="-2.3938010">
        <ele>1172.2</ele>
        <time>2022-08-14T11:03:04Z</time>
      </trkpt>
      <trkpt lat="42.0641980" lon="-2.3936530">
        <ele>1171.3</ele>
        <time>2022-08-14T11:03:05Z</time>
      </trkpt>
      <trkpt lat="42.0641710" lon="-2.3935020">
        <ele>1170.5</ele>
        <time>2022-08-14T11:03:06Z</time>
      </trkpt>
      <trkpt lat="42.0641120" lon="-2.3931970">
        <ele>1168.7</ele>
        <time>2022-08-14T11:03:08Z</time>
      </trkpt>
      <trkpt lat="42.0640460" lon="-2.3928820">
        <ele>1167.0</ele>
        <time>2022-08-14T11:03:10Z</time>
      </trkpt>
      <trkpt lat="42.0640100" lon="-2.3927250">
        <ele>1166.1</ele>
        <time>2022-08-14T11:03:11Z</time>
      </trkpt>
      <trkpt lat="42.0639690" lon="-2.3925700">
        <ele>1165.3</ele>
        <time>2022-08-14T11:03:12Z</time>
      </trkpt>
      <trkpt lat="42.0639250" lon="-2.3924170">
        <ele>1164.7</ele>
        <time>2022-08-14T11:03:13Z</time>
      </trkpt>
      <trkpt lat="42.0638750" lon="-2.3922350">
        <ele>1164.1</ele>
        <time>2022-08-14T11:03:14Z</time>
      </trkpt>
      <trkpt lat="42.0638380" lon="-2.3921150">
        <ele>1163.7</ele>
        <time>2022-08-14T11:03:15Z</time>
      </trkpt>
      <trkpt lat="42.0637930" lon="-2.3919710">
        <ele>1163.1</ele>
        <time>2022-08-14T11:03:16Z</time>
      </trkpt>
      <trkpt lat="42.0637150" lon="-2.3916870">
        <ele>1162.0</ele>
        <time>2022-08-14T11:03:18Z</time>
      </trkpt>
      <trkpt lat="42.0636780" lon="-2.3915470">
        <ele>1161.5</ele>
        <time>2022-08-14T11:03:19Z</time>
      </trkpt>
      <trkpt lat="42.0636390" lon="-2.3914090">
        <ele>1161.0</ele>
        <time>2022-08-14T11:03:20Z</time>
      </trkpt>
      <trkpt lat="42.0635910" lon="-2.3912450">
        <ele>1160.4</ele>
        <time>2022-08-14T11:03:21Z</time>
      </trkpt>
      <trkpt lat="42.0635560" lon="-2.3911370">
        <ele>1160.0</ele>
        <time>2022-08-14T11:03:22Z</time>
      </trkpt>
      <trkpt lat="42.0634700" lon="-2.3908640">
        <ele>1158.9</ele>
        <time>2022-08-14T11:03:24Z</time>
      </trkpt>
      <trkpt lat="42.0633870" lon="-2.3905870">
        <ele>1158.0</ele>
        <time>2022-08-14T11:03:26Z</time>
      </trkpt>
      <trkpt lat="42.0633470" lon="-2.3904480">
        <ele>1157.5</ele>
        <time>2022-08-14T11:03:27Z</time>
      </trkpt>
      <trkpt lat="42.0633080" lon="-2.3903100">
        <ele>1157.0</ele>
        <time>2022-08-14T11:03:28Z</time>
      </trkpt>
      <trkpt lat="42.0632670" lon="-2.3901740">
        <ele>1156.4</ele>
        <time>2022-08-14T11:03:29Z</time>
      </trkpt>
      <trkpt lat="42.0632230" lon="-2.3900370">
        <ele>1155.9</ele>
        <time>2022-08-14T11:03:30Z</time>
      </trkpt>
      <trkpt lat="42.0631300" lon="-2.3897390">
        <ele>1154.6</ele>
        <time>2022-08-14T11:03:32Z</time>
      </trkpt>
      <trkpt lat="42.0630030" lon="-2.3893410">
        <ele>1152.2</ele>
        <time>2022-08-14T11:03:35Z</time>
      </trkpt>
      <trkpt lat="42.0629240" lon="-2.3891310">
        <ele>1150.6</ele>
        <time>2022-08-14T11:03:37Z</time>
      </trkpt>
      <trkpt lat="42.0628340" lon="-2.3888950">
        <ele>1148.6</ele>
        <time>2022-08-14T11:03:39Z</time>
      </trkpt>
      <trkpt lat="42.0628000" lon="-2.3888050">
        <ele>1147.8</ele>
        <time>2022-08-14T11:03:40Z</time>
      </trkpt>
      <trkpt lat="42.0627460" lon="-2.3886670">
        <ele>1146.5</ele>
        <time>2022-08-14T11:03:41Z</time>
      </trkpt>
      <trkpt lat="42.0626560" lon="-2.3884690">
        <ele>1144.7</ele>
        <time>2022-08-14T11:03:43Z</time>
      </trkpt>
      <trkpt lat="42.0626090" lon="-2.3883720">
        <ele>1143.8</ele>
        <time>2022-08-14T11:03:44Z</time>
      </trkpt>
      <trkpt lat="42.0625230" lon="-2.3881990">
        <ele>1142.3</ele>
        <time>2022-08-14T11:03:46Z</time>
      </trkpt>
      <trkpt lat="42.0624830" lon="-2.3881220">
        <ele>1141.7</ele>
        <time>2022-08-14T11:03:47Z</time>
      </trkpt>
      <trkpt lat="42.0624060" lon="-2.3879880">
        <ele>1140.6</ele>
        <time>2022-08-14T11:03:49Z</time>
      </trkpt>
      <trkpt lat="42.0623300" lon="-2.3878750">
        <ele>1139.9</ele>
        <time>2022-08-14T11:03:51Z</time>
      </trkpt>
      <trkpt lat="42.0622840" lon="-2.3878390">
        <ele>1139.6</ele>
        <time>2022-08-14T11:03:52Z</time>
      </trkpt>
      <trkpt lat="42.0622230" lon="-2.3878220">
        <ele>1139.4</ele>
        <time>2022-08-14T11:03:53Z</time>
      </trkpt>
      <trkpt lat="42.0621480" lon="-2.3878800">
        <ele>1139.2</ele>
        <time>2022-08-14T11:03:55Z</time>
      </trkpt>
      <trkpt lat="42.0621130" lon="-2.3879240">
        <ele>1139.0</ele>
        <time>2022-08-14T11:03:56Z</time>
      </trkpt>
      <trkpt lat="42.0620480" lon="-2.3880190">
        <ele>1138.7</ele>
        <time>2022-08-14T11:03:58Z</time>
      </trkpt>
      <trkpt lat="42.0620150" lon="-2.3880720">
        <ele>1138.6</ele>
        <time>2022-08-14T11:03:59Z</time>
      </trkpt>
      <trkpt lat="42.0619850" lon="-2.3881310">
        <ele>1138.4</ele>
        <time>2022-08-14T11:04:00Z</time>
      </trkpt>
      <trkpt lat="42.0619590" lon="-2.3881970">
        <ele>1138.3</ele>
        <time>2022-08-14T11:04:01Z</time>
      </trkpt>
      <trkpt lat="42.0619320" lon="-2.3883550">
        <ele>1138.1</ele>
        <time>2022-08-14T11:04:03Z</time>
      </trkpt>
      <trkpt lat="42.0619320" lon="-2.3884320">
        <ele>1138.0</ele>
        <time>2022-08-14T11:04:04Z</time>
      </trkpt>
      <trkpt lat="42.0619350" lon="-2.3884940">
        <ele>1138.0</ele>
        <time>2022-08-14T11:04:05Z</time>
      </trkpt>
      <trkpt lat="42.0619470" lon="-2.3885890">
        <ele>1137.9</ele>
        <time>2022-08-14T11:04:06Z</time>
      </trkpt>
      <trkpt lat="42.0619600" lon="-2.3886540">
        <ele>1137.8</ele>
        <time>2022-08-14T11:04:07Z</time>
      </trkpt>
      <trkpt lat="42.0619920" lon="-2.3888120">
        <ele>1137.7</ele>
        <time>2022-08-14T11:04:09Z</time>
      </trkpt>
      <trkpt lat="42.0620770" lon="-2.3891470">
        <ele>1137.2</ele>
        <time>2022-08-14T11:04:13Z</time>
      </trkpt>
      <trkpt lat="42.0621170" lon="-2.3892950">
        <ele>1136.9</ele>
        <time>2022-08-14T11:04:15Z</time>
      </trkpt>
      <trkpt lat="42.0621400" lon="-2.3893640">
        <ele>1136.7</ele>
        <time>2022-08-14T11:04:16Z</time>
      </trkpt>
      <trkpt lat="42.0621990" lon="-2.3895750">
        <ele>1135.8</ele>
        <time>2022-08-14T11:04:19Z</time>
      </trkpt>
      <trkpt lat="42.0622150" lon="-2.3896490">
        <ele>1135.5</ele>
        <time>2022-08-14T11:04:20Z</time>
      </trkpt>
      <trkpt lat="42.0622260" lon="-2.3897310">
        <ele>1135.2</ele>
        <time>2022-08-14T11:04:21Z</time>
      </trkpt>
      <trkpt lat="42.0622280" lon="-2.3898180">
        <ele>1134.9</ele>
        <time>2022-08-14T11:04:22Z</time>
      </trkpt>
      <trkpt lat="42.0622200" lon="-2.3899060">
        <ele>1134.7</ele>
        <time>2022-08-14T11:04:23Z</time>
      </trkpt>
      <trkpt lat="42.0621790" lon="-2.3900570">
        <ele>1134.6</ele>
        <time>2022-08-14T11:04:25Z</time>
      </trkpt>
      <trkpt lat="42.0621130" lon="-2.3901680">
        <ele>1134.5</ele>
        <time>2022-08-14T11:04:27Z</time>
      </trkpt>
      <trkpt lat="42.0620300" lon="-2.3902220">
        <ele>1134.3</ele>
        <time>2022-08-14T11:04:29Z</time>
      </trkpt>
      <trkpt lat="42.0619090" lon="-2.3902110">
        <ele>1134.2</ele>
        <time>2022-08-14T11:04:33Z</time>
      </trkpt>
      <trkpt lat="42.0618890" lon="-2.3902070">
        <ele>1134.2</ele>
        <time>2022-08-14T11:04:34Z</time>
      </trkpt>
      <trkpt lat="42.0618090" lon="-2.3901500">
        <ele>1134.1</ele>
        <time>2022-08-14T11:04:39Z</time>
      </trkpt>
      <trkpt lat="42.0617630" lon="-2.3901010">
        <ele>1134.1</ele>
        <time>2022-08-14T11:04:41Z</time>
      </trkpt>
      <trkpt lat="42.0617380" lon="-2.3900750">
        <ele>1134.0</ele>
        <time>2022-08-14T11:04:42Z</time>
      </trkpt>
      <trkpt lat="42.0616840" lon="-2.3900150">
        <ele>1133.9</ele>
        <time>2022-08-14T11:04:44Z</time>
      </trkpt>
      <trkpt lat="42.0616540" lon="-2.3899840">
        <ele>1133.9</ele>
        <time>2022-08-14T11:04:45Z</time>
      </trkpt>
      <trkpt lat="42.0614610" lon="-2.3897710">
        <ele>1133.2</ele>
        <time>2022-08-14T11:04:51Z</time>
      </trkpt>
      <trkpt lat="42.0613020" lon="-2.3895850">
        <ele>1132.3</ele>
        <time>2022-08-14T11:04:55Z</time>
      </trkpt>
      <trkpt lat="42.0612140" lon="-2.3894760">
        <ele>1131.9</ele>
        <time>2022-08-14T11:04:57Z</time>
      </trkpt>
      <trkpt lat="42.0611680" lon="-2.3894170">
        <ele>1131.7</ele>
        <time>2022-08-14T11:04:58Z</time>
      </trkpt>
      <trkpt lat="42.0610010" lon="-2.3891530">
        <ele>1130.8</ele>
        <time>2022-08-14T11:05:02Z</time>
      </trkpt>
      <trkpt lat="42.0609670" lon="-2.3890760">
        <ele>1130.5</ele>
        <time>2022-08-14T11:05:03Z</time>
      </trkpt>
      <trkpt lat="42.0608890" lon="-2.3887180">
        <ele>1128.7</ele>
        <time>2022-08-14T11:05:07Z</time>
      </trkpt>
      <trkpt lat="42.0608830" lon="-2.3886200">
        <ele>1128.1</ele>
        <time>2022-08-14T11:05:08Z</time>
      </trkpt>
      <trkpt lat="42.0608840" lon="-2.3885170">
        <ele>1127.4</ele>
        <time>2022-08-14T11:05:09Z</time>
      </trkpt>
      <trkpt lat="42.0609050" lon="-2.3882000">
        <ele>1125.2</ele>
        <time>2022-08-14T11:05:12Z</time>
      </trkpt>
      <trkpt lat="42.0609250" lon="-2.3880880">
        <ele>1124.5</ele>
        <time>2022-08-14T11:05:13Z</time>
      </trkpt>
      <trkpt lat="42.0609500" lon="-2.3879760">
        <ele>1124.0</ele>
        <time>2022-08-14T11:05:14Z</time>
      </trkpt>
      <trkpt lat="42.0609750" lon="-2.3878690">
        <ele>1123.4</ele>
        <time>2022-08-14T11:05:15Z</time>
      </trkpt>
      <trkpt lat="42.0610100" lon="-2.3876760">
        <ele>1122.3</ele>
        <time>2022-08-14T11:05:17Z</time>
      </trkpt>
      <trkpt lat="42.0610260" lon="-2.3875880">
        <ele>1121.7</ele>
        <time>2022-08-14T11:05:18Z</time>
      </trkpt>
      <trkpt lat="42.0610340" lon="-2.3875100">
        <ele>1121.1</ele>
        <time>2022-08-14T11:05:19Z</time>
      </trkpt>
      <trkpt lat="42.0610380" lon="-2.3874440">
        <ele>1120.5</ele>
        <time>2022-08-14T11:05:20Z</time>
      </trkpt>
      <trkpt lat="42.0610340" lon="-2.3873370">
        <ele>1119.6</ele>
        <time>2022-08-14T11:05:22Z</time>
      </trkpt>
      <trkpt lat="42.0610350" lon="-2.3872890">
        <ele>1119.2</ele>
        <time>2022-08-14T11:05:23Z</time>
      </trkpt>
      <trkpt lat="42.0610410" lon="-2.3871990">
        <ele>1118.5</ele>
        <time>2022-08-14T11:05:25Z</time>
      </trkpt>
      <trkpt lat="42.0610460" lon="-2.3870800">
        <ele>1117.6</ele>
        <time>2022-08-14T11:05:28Z</time>
      </trkpt>
      <trkpt lat="42.0610480" lon="-2.3870160">
        <ele>1117.1</ele>
        <time>2022-08-14T11:05:30Z</time>
      </trkpt>
      <trkpt lat="42.0610460" lon="-2.3869890">
        <ele>1116.9</ele>
        <time>2022-08-14T11:05:31Z</time>
      </trkpt>
      <trkpt lat="42.0610400" lon="-2.3869380">
        <ele>1116.4</ele>
        <time>2022-08-14T11:05:33Z</time>
      </trkpt>
      <trkpt lat="42.0610310" lon="-2.3869000">
        <ele>1116.1</ele>
        <time>2022-08-14T11:05:34Z</time>
      </trkpt>
      <trkpt lat="42.0610270" lon="-2.3868820">
        <ele>1116.0</ele>
        <time>2022-08-14T11:05:36Z</time>
      </trkpt>
      <trkpt lat="42.0610230" lon="-2.3868630">
        <ele>1115.9</ele>
        <time>2022-08-14T11:05:37Z</time>
      </trkpt>
      <trkpt lat="42.0610190" lon="-2.3868440">
        <ele>1115.7</ele>
        <time>2022-08-14T11:06:52Z</time>
      </trkpt>
      <trkpt lat="42.0610150" lon="-2.3868260">
        <ele>1115.6</ele>
        <time>2022-08-14T11:06:53Z</time>
      </trkpt>
      <trkpt lat="42.0609250" lon="-2.3866160">
        <ele>1114.5</ele>
        <time>2022-08-14T11:06:57Z</time>
      </trkpt>
      <trkpt lat="42.0608990" lon="-2.3865560">
        <ele>1114.3</ele>
        <time>2022-08-14T11:06:58Z</time>
      </trkpt>
      <trkpt lat="42.0608730" lon="-2.3864950">
        <ele>1114.1</ele>
        <time>2022-08-14T11:06:59Z</time>
      </trkpt>
      <trkpt lat="42.0608480" lon="-2.3864340">
        <ele>1114.0</ele>
        <time>2022-08-14T11:07:00Z</time>
      </trkpt>
      <trkpt lat="42.0608230" lon="-2.3863740">
        <ele>1113.8</ele>
        <time>2022-08-14T11:07:01Z</time>
      </trkpt>
      <trkpt lat="42.0607690" lon="-2.3862640">
        <ele>1113.5</ele>
        <time>2022-08-14T11:07:03Z</time>
      </trkpt>
      <trkpt lat="42.0607100" lon="-2.3861420">
        <ele>1113.0</ele>
        <time>2022-08-14T11:07:05Z</time>
      </trkpt>
      <trkpt lat="42.0606800" lon="-2.3860740">
        <ele>1112.7</ele>
        <time>2022-08-14T11:07:06Z</time>
      </trkpt>
      <trkpt lat="42.0605040" lon="-2.3856790">
        <ele>1110.5</ele>
        <time>2022-08-14T11:07:11Z</time>
      </trkpt>
      <trkpt lat="42.0604600" lon="-2.3855880">
        <ele>1109.9</ele>
        <time>2022-08-14T11:07:12Z</time>
      </trkpt>
      <trkpt lat="42.0603690" lon="-2.3853910">
        <ele>1108.6</ele>
        <time>2022-08-14T11:07:14Z</time>
      </trkpt>
      <trkpt lat="42.0602780" lon="-2.3851740">
        <ele>1107.3</ele>
        <time>2022-08-14T11:07:16Z</time>
      </trkpt>
      <trkpt lat="42.0602370" lon="-2.3850590">
        <ele>1106.6</ele>
        <time>2022-08-14T11:07:17Z</time>
      </trkpt>
      <trkpt lat="42.0601980" lon="-2.3849360">
        <ele>1105.7</ele>
        <time>2022-08-14T11:07:18Z</time>
      </trkpt>
      <trkpt lat="42.0601600" lon="-2.3846670">
        <ele>1104.0</ele>
        <time>2022-08-14T11:07:20Z</time>
      </trkpt>
      <trkpt lat="42.0601640" lon="-2.3845250">
        <ele>1103.1</ele>
        <time>2022-08-14T11:07:21Z</time>
      </trkpt>
      <trkpt lat="42.0601990" lon="-2.3842430">
        <ele>1101.3</ele>
        <time>2022-08-14T11:07:23Z</time>
      </trkpt>
      <trkpt lat="42.0602490" lon="-2.3839670">
        <ele>1099.9</ele>
        <time>2022-08-14T11:07:25Z</time>
      </trkpt>
      <trkpt lat="42.0603070" lon="-2.3836960">
        <ele>1098.3</ele>
        <time>2022-08-14T11:07:27Z</time>
      </trkpt>
      <trkpt lat="42.0603260" lon="-2.3835650">
        <ele>1097.4</ele>
        <time>2022-08-14T11:07:28Z</time>
      </trkpt>
      <trkpt lat="42.0603060" lon="-2.3833130">
        <ele>1095.5</ele>
        <time>2022-08-14T11:07:30Z</time>
      </trkpt>
      <trkpt lat="42.0602630" lon="-2.3831990">
        <ele>1094.6</ele>
        <time>2022-08-14T11:07:31Z</time>
      </trkpt>
      <trkpt lat="42.0601410" lon="-2.3829950">
        <ele>1092.6</ele>
        <time>2022-08-14T11:07:33Z</time>
      </trkpt>
      <trkpt lat="42.0600630" lon="-2.3829020">
        <ele>1091.5</ele>
        <time>2022-08-14T11:07:34Z</time>
      </trkpt>
      <trkpt lat="42.0599870" lon="-2.3828100">
        <ele>1090.4</ele>
        <time>2022-08-14T11:07:35Z</time>
      </trkpt>
      <trkpt lat="42.0598670" lon="-2.3826120">
        <ele>1088.3</ele>
        <time>2022-08-14T11:07:37Z</time>
      </trkpt>
      <trkpt lat="42.0598310" lon="-2.3825020">
        <ele>1087.4</ele>
        <time>2022-08-14T11:07:38Z</time>
      </trkpt>
      <trkpt lat="42.0598140" lon="-2.3823800">
        <ele>1086.5</ele>
        <time>2022-08-14T11:07:39Z</time>
      </trkpt>
      <trkpt lat="42.0598130" lon="-2.3822500">
        <ele>1085.8</ele>
        <time>2022-08-14T11:07:40Z</time>
      </trkpt>
      <trkpt lat="42.0598270" lon="-2.3821080">
        <ele>1085.5</ele>
        <time>2022-08-14T11:07:41Z</time>
      </trkpt>
      <trkpt lat="42.0598420" lon="-2.3818460">
        <ele>1085.8</ele>
        <time>2022-08-14T11:07:43Z</time>
      </trkpt>
      <trkpt lat="42.0598410" lon="-2.3816170">
        <ele>1086.5</ele>
        <time>2022-08-14T11:07:45Z</time>
      </trkpt>
      <trkpt lat="42.0598360" lon="-2.3815160">
        <ele>1086.9</ele>
        <time>2022-08-14T11:07:46Z</time>
      </trkpt>
      <trkpt lat="42.0598280" lon="-2.3814220">
        <ele>1087.3</ele>
        <time>2022-08-14T11:07:47Z</time>
      </trkpt>
      <trkpt lat="42.0598220" lon="-2.3813330">
        <ele>1087.6</ele>
        <time>2022-08-14T11:07:48Z</time>
      </trkpt>
      <trkpt lat="42.0598170" lon="-2.3812560">
        <ele>1088.0</ele>
        <time>2022-08-14T11:07:49Z</time>
      </trkpt>
      <trkpt lat="42.0598150" lon="-2.3811850">
        <ele>1088.2</ele>
        <time>2022-08-14T11:07:50Z</time>
      </trkpt>
      <trkpt lat="42.0598170" lon="-2.3811140">
        <ele>1088.5</ele>
        <time>2022-08-14T11:07:51Z</time>
      </trkpt>
      <trkpt lat="42.0598120" lon="-2.3808870">
        <ele>1089.5</ele>
        <time>2022-08-14T11:07:55Z</time>
      </trkpt>
      <trkpt lat="42.0598250" lon="-2.3807470">
        <ele>1090.2</ele>
        <time>2022-08-14T11:07:58Z</time>
      </trkpt>
      <trkpt lat="42.0598390" lon="-2.3806530">
        <ele>1090.7</ele>
        <time>2022-08-14T11:08:00Z</time>
      </trkpt>
      <trkpt lat="42.0598460" lon="-2.3806050">
        <ele>1090.9</ele>
        <time>2022-08-14T11:08:01Z</time>
      </trkpt>
      <trkpt lat="42.0598500" lon="-2.3805690">
        <ele>1091.1</ele>
        <time>2022-08-14T11:08:02Z</time>
      </trkpt>
      <trkpt lat="42.0598560" lon="-2.3804230">
        <ele>1091.9</ele>
        <time>2022-08-14T11:08:05Z</time>
      </trkpt>
      <trkpt lat="42.0598500" lon="-2.3802480">
        <ele>1092.9</ele>
        <time>2022-08-14T11:08:09Z</time>
      </trkpt>
      <trkpt lat="42.0598320" lon="-2.3801450">
        <ele>1093.6</ele>
        <time>2022-08-14T11:08:12Z</time>
      </trkpt>
      <trkpt lat="42.0598000" lon="-2.3800450">
        <ele>1094.4</ele>
        <time>2022-08-14T11:08:15Z</time>
      </trkpt>
      <trkpt lat="42.0597830" lon="-2.3799870">
        <ele>1094.8</ele>
        <time>2022-08-14T11:08:17Z</time>
      </trkpt>
      <trkpt lat="42.0597410" lon="-2.3798540">
        <ele>1095.9</ele>
        <time>2022-08-14T11:08:21Z</time>
      </trkpt>
      <trkpt lat="42.0597180" lon="-2.3797990">
        <ele>1096.4</ele>
        <time>2022-08-14T11:08:23Z</time>
      </trkpt>
      <trkpt lat="42.0596640" lon="-2.3796850">
        <ele>1097.5</ele>
        <time>2022-08-14T11:08:27Z</time>
      </trkpt>
      <trkpt lat="42.0596480" lon="-2.3796510">
        <ele>1097.7</ele>
        <time>2022-08-14T11:08:28Z</time>
      </trkpt>
      <trkpt lat="42.0595740" lon="-2.3795060">
        <ele>1098.9</ele>
        <time>2022-08-14T11:08:33Z</time>
      </trkpt>
      <trkpt lat="42.0595270" lon="-2.3794300">
        <ele>1099.6</ele>
        <time>2022-08-14T11:08:36Z</time>
      </trkpt>
      <trkpt lat="42.0594920" lon="-2.3793710">
        <ele>1100.1</ele>
        <time>2022-08-14T11:08:38Z</time>
      </trkpt>
      <trkpt lat="42.0594270" lon="-2.3792680">
        <ele>1101.1</ele>
        <time>2022-08-14T11:08:43Z</time>
      </trkpt>
      <trkpt lat="42.0593350" lon="-2.3791560">
        <ele>1102.4</ele>
        <time>2022-08-14T11:08:49Z</time>
      </trkpt>
      <trkpt lat="42.0593210" lon="-2.3791350">
        <ele>1102.6</ele>
        <time>2022-08-14T11:08:50Z</time>
      </trkpt>
      <trkpt lat="42.0592770" lon="-2.3790860">
        <ele>1103.2</ele>
        <time>2022-08-14T11:08:53Z</time>
      </trkpt>
      <trkpt lat="42.0591820" lon="-2.3789930">
        <ele>1104.4</ele>
        <time>2022-08-14T11:08:59Z</time>
      </trkpt>
      <trkpt lat="42.0591680" lon="-2.3789760">
        <ele>1104.6</ele>
        <time>2022-08-14T11:09:00Z</time>
      </trkpt>
      <trkpt lat="42.0590900" lon="-2.3788850">
        <ele>1105.7</ele>
        <time>2022-08-14T11:09:05Z</time>
      </trkpt>
      <trkpt lat="42.0590520" lon="-2.3788240">
        <ele>1106.3</ele>
        <time>2022-08-14T11:09:08Z</time>
      </trkpt>
      <trkpt lat="42.0590120" lon="-2.3787400">
        <ele>1107.0</ele>
        <time>2022-08-14T11:09:12Z</time>
      </trkpt>
      <trkpt lat="42.0589690" lon="-2.3786130">
        <ele>1107.8</ele>
        <time>2022-08-14T11:09:17Z</time>
      </trkpt>
      <trkpt lat="42.0589050" lon="-2.3783180">
        <ele>1109.0</ele>
        <time>2022-08-14T11:09:27Z</time>
      </trkpt>
      <trkpt lat="42.0588980" lon="-2.3782870">
        <ele>1109.1</ele>
        <time>2022-08-14T11:09:28Z</time>
      </trkpt>
      <trkpt lat="42.0588060" lon="-2.3779450">
        <ele>1110.1</ele>
        <time>2022-08-14T11:09:38Z</time>
      </trkpt>
      <trkpt lat="42.0587440" lon="-2.3776100">
        <ele>1110.8</ele>
        <time>2022-08-14T11:09:47Z</time>
      </trkpt>
      <trkpt lat="42.0587030" lon="-2.3774010">
        <ele>1110.9</ele>
        <time>2022-08-14T11:09:51Z</time>
      </trkpt>
      <trkpt lat="42.0586440" lon="-2.3772480">
        <ele>1110.9</ele>
        <time>2022-08-14T11:09:55Z</time>
      </trkpt>
      <trkpt lat="42.0584720" lon="-2.3769390">
        <ele>1111.0</ele>
        <time>2022-08-14T11:10:02Z</time>
      </trkpt>
      <trkpt lat="42.0584430" lon="-2.3768960">
        <ele>1111.0</ele>
        <time>2022-08-14T11:10:03Z</time>
      </trkpt>
      <trkpt lat="42.0583500" lon="-2.3767660">
        <ele>1110.9</ele>
        <time>2022-08-14T11:10:06Z</time>
      </trkpt>
      <trkpt lat="42.0582950" lon="-2.3766690">
        <ele>1110.7</ele>
        <time>2022-08-14T11:10:08Z</time>
      </trkpt>
      <trkpt lat="42.0582630" lon="-2.3765610">
        <ele>1110.5</ele>
        <time>2022-08-14T11:10:10Z</time>
      </trkpt>
      <trkpt lat="42.0582680" lon="-2.3764320">
        <ele>1110.2</ele>
        <time>2022-08-14T11:10:12Z</time>
      </trkpt>
      <trkpt lat="42.0582850" lon="-2.3763670">
        <ele>1110.0</ele>
        <time>2022-08-14T11:10:13Z</time>
      </trkpt>
      <trkpt lat="42.0583080" lon="-2.3762970">
        <ele>1109.7</ele>
        <time>2022-08-14T11:10:14Z</time>
      </trkpt>
      <trkpt lat="42.0584030" lon="-2.3760660">
        <ele>1108.7</ele>
        <time>2022-08-14T11:10:17Z</time>
      </trkpt>
      <trkpt lat="42.0584430" lon="-2.3759910">
        <ele>1108.2</ele>
        <time>2022-08-14T11:10:18Z</time>
      </trkpt>
      <trkpt lat="42.0585530" lon="-2.3758510">
        <ele>1107.1</ele>
        <time>2022-08-14T11:10:20Z</time>
      </trkpt>
      <trkpt lat="42.0586960" lon="-2.3757390">
        <ele>1105.6</ele>
        <time>2022-08-14T11:10:22Z</time>
      </trkpt>
      <trkpt lat="42.0587810" lon="-2.3756960">
        <ele>1104.6</ele>
        <time>2022-08-14T11:10:23Z</time>
      </trkpt>
      <trkpt lat="42.0590410" lon="-2.3755790">
        <ele>1102.0</ele>
        <time>2022-08-14T11:10:26Z</time>
      </trkpt>
      <trkpt lat="42.0591390" lon="-2.3755330">
        <ele>1101.0</ele>
        <time>2022-08-14T11:10:27Z</time>
      </trkpt>
      <trkpt lat="42.0592400" lon="-2.3754790">
        <ele>1100.1</ele>
        <time>2022-08-14T11:10:28Z</time>
      </trkpt>
      <trkpt lat="42.0593400" lon="-2.3754070">
        <ele>1099.3</ele>
        <time>2022-08-14T11:10:29Z</time>
      </trkpt>
      <trkpt lat="42.0594330" lon="-2.3753210">
        <ele>1098.5</ele>
        <time>2022-08-14T11:10:30Z</time>
      </trkpt>
      <trkpt lat="42.0595110" lon="-2.3752140">
        <ele>1098.0</ele>
        <time>2022-08-14T11:10:31Z</time>
      </trkpt>
      <trkpt lat="42.0595690" lon="-2.3750840">
        <ele>1097.2</ele>
        <time>2022-08-14T11:10:32Z</time>
      </trkpt>
      <trkpt lat="42.0596060" lon="-2.3749440">
        <ele>1096.3</ele>
        <time>2022-08-14T11:10:33Z</time>
      </trkpt>
      <trkpt lat="42.0596540" lon="-2.3746470">
        <ele>1094.5</ele>
        <time>2022-08-14T11:10:35Z</time>
      </trkpt>
      <trkpt lat="42.0597330" lon="-2.3742000">
        <ele>1092.2</ele>
        <time>2022-08-14T11:10:38Z</time>
      </trkpt>
      <trkpt lat="42.0598130" lon="-2.3739040">
        <ele>1090.4</ele>
        <time>2022-08-14T11:10:40Z</time>
      </trkpt>
      <trkpt lat="42.0598670" lon="-2.3737590">
        <ele>1089.6</ele>
        <time>2022-08-14T11:10:41Z</time>
      </trkpt>
      <trkpt lat="42.0599330" lon="-2.3736190">
        <ele>1088.7</ele>
        <time>2022-08-14T11:10:42Z</time>
      </trkpt>
      <trkpt lat="42.0600050" lon="-2.3734810">
        <ele>1087.7</ele>
        <time>2022-08-14T11:10:43Z</time>
      </trkpt>
      <trkpt lat="42.0600820" lon="-2.3733430">
        <ele>1086.8</ele>
        <time>2022-08-14T11:10:44Z</time>
      </trkpt>
      <trkpt lat="42.0602450" lon="-2.3730550">
        <ele>1085.0</ele>
        <time>2022-08-14T11:10:46Z</time>
      </trkpt>
      <trkpt lat="42.0603290" lon="-2.3729090">
        <ele>1084.1</ele>
        <time>2022-08-14T11:10:47Z</time>
      </trkpt>
      <trkpt lat="42.0604300" lon="-2.3727330">
        <ele>1083.0</ele>
        <time>2022-08-14T11:10:48Z</time>
      </trkpt>
      <trkpt lat="42.0605160" lon="-2.3725810">
        <ele>1082.0</ele>
        <time>2022-08-14T11:10:49Z</time>
      </trkpt>
      <trkpt lat="42.0606910" lon="-2.3722760">
        <ele>1079.9</ele>
        <time>2022-08-14T11:10:51Z</time>
      </trkpt>
      <trkpt lat="42.0607780" lon="-2.3721210">
        <ele>1078.9</ele>
        <time>2022-08-14T11:10:52Z</time>
      </trkpt>
      <trkpt lat="42.0608640" lon="-2.3719650">
        <ele>1078.1</ele>
        <time>2022-08-14T11:10:53Z</time>
      </trkpt>
      <trkpt lat="42.0609340" lon="-2.3718420">
        <ele>1077.3</ele>
        <time>2022-08-14T11:10:54Z</time>
      </trkpt>
      <trkpt lat="42.0611140" lon="-2.3715400">
        <ele>1075.3</ele>
        <time>2022-08-14T11:10:56Z</time>
      </trkpt>
      <trkpt lat="42.0612250" lon="-2.3713630">
        <ele>1074.2</ele>
        <time>2022-08-14T11:10:57Z</time>
      </trkpt>
      <trkpt lat="42.0614190" lon="-2.3710740">
        <ele>1072.2</ele>
        <time>2022-08-14T11:10:59Z</time>
      </trkpt>
      <trkpt lat="42.0616900" lon="-2.3706860">
        <ele>1069.7</ele>
        <time>2022-08-14T11:11:02Z</time>
      </trkpt>
      <trkpt lat="42.0617780" lon="-2.3705790">
        <ele>1068.9</ele>
        <time>2022-08-14T11:11:03Z</time>
      </trkpt>
      <trkpt lat="42.0618720" lon="-2.3704830">
        <ele>1068.1</ele>
        <time>2022-08-14T11:11:04Z</time>
      </trkpt>
      <trkpt lat="42.0620780" lon="-2.3703190">
        <ele>1066.8</ele>
        <time>2022-08-14T11:11:06Z</time>
      </trkpt>
      <trkpt lat="42.0621850" lon="-2.3702460">
        <ele>1066.2</ele>
        <time>2022-08-14T11:11:07Z</time>
      </trkpt>
      <trkpt lat="42.0622920" lon="-2.3701710">
        <ele>1065.6</ele>
        <time>2022-08-14T11:11:08Z</time>
      </trkpt>
      <trkpt lat="42.0625070" lon="-2.3700170">
        <ele>1064.5</ele>
        <time>2022-08-14T11:11:10Z</time>
      </trkpt>
      <trkpt lat="42.0627090" lon="-2.3698860">
        <ele>1063.3</ele>
        <time>2022-08-14T11:11:12Z</time>
      </trkpt>
      <trkpt lat="42.0628110" lon="-2.3698400">
        <ele>1062.9</ele>
        <time>2022-08-14T11:11:13Z</time>
      </trkpt>
      <trkpt lat="42.0628940" lon="-2.3698220">
        <ele>1062.4</ele>
        <time>2022-08-14T11:11:14Z</time>
      </trkpt>
      <trkpt lat="42.0630230" lon="-2.3698130">
        <ele>1061.7</ele>
        <time>2022-08-14T11:11:15Z</time>
      </trkpt>
      <trkpt lat="42.0631320" lon="-2.3698230">
        <ele>1061.0</ele>
        <time>2022-08-14T11:11:16Z</time>
      </trkpt>
      <trkpt lat="42.0633510" lon="-2.3698550">
        <ele>1060.2</ele>
        <time>2022-08-14T11:11:18Z</time>
      </trkpt>
      <trkpt lat="42.0635600" lon="-2.3698440">
        <ele>1058.9</ele>
        <time>2022-08-14T11:11:20Z</time>
      </trkpt>
      <trkpt lat="42.0636530" lon="-2.3697940">
        <ele>1058.2</ele>
        <time>2022-08-14T11:11:21Z</time>
      </trkpt>
      <trkpt lat="42.0637120" lon="-2.3697030">
        <ele>1057.6</ele>
        <time>2022-08-14T11:11:22Z</time>
      </trkpt>
      <trkpt lat="42.0637430" lon="-2.3696130">
        <ele>1057.1</ele>
        <time>2022-08-14T11:11:23Z</time>
      </trkpt>
      <trkpt lat="42.0637900" lon="-2.3694740">
        <ele>1056.4</ele>
        <time>2022-08-14T11:11:24Z</time>
      </trkpt>
      <trkpt lat="42.0638340" lon="-2.3693600">
        <ele>1055.9</ele>
        <time>2022-08-14T11:11:25Z</time>
      </trkpt>
      <trkpt lat="42.0639510" lon="-2.3691400">
        <ele>1054.8</ele>
        <time>2022-08-14T11:11:27Z</time>
      </trkpt>
      <trkpt lat="42.0640980" lon="-2.3689380">
        <ele>1053.3</ele>
        <time>2022-08-14T11:11:29Z</time>
      </trkpt>
      <trkpt lat="42.0643530" lon="-2.3686560">
        <ele>1051.2</ele>
        <time>2022-08-14T11:11:32Z</time>
      </trkpt>
      <trkpt lat="42.0645440" lon="-2.3684790">
        <ele>1049.5</ele>
        <time>2022-08-14T11:11:34Z</time>
      </trkpt>
      <trkpt lat="42.0647520" lon="-2.3683140">
        <ele>1047.9</ele>
        <time>2022-08-14T11:11:36Z</time>
      </trkpt>
      <trkpt lat="42.0649690" lon="-2.3681480">
        <ele>1046.3</ele>
        <time>2022-08-14T11:11:38Z</time>
      </trkpt>
      <trkpt lat="42.0651890" lon="-2.3679800">
        <ele>1044.5</ele>
        <time>2022-08-14T11:11:40Z</time>
      </trkpt>
      <trkpt lat="42.0654100" lon="-2.3678050">
        <ele>1042.8</ele>
        <time>2022-08-14T11:11:42Z</time>
      </trkpt>
      <trkpt lat="42.0655180" lon="-2.3677050">
        <ele>1041.8</ele>
        <time>2022-08-14T11:11:43Z</time>
      </trkpt>
      <trkpt lat="42.0656200" lon="-2.3675960">
        <ele>1040.8</ele>
        <time>2022-08-14T11:11:44Z</time>
      </trkpt>
      <trkpt lat="42.0657180" lon="-2.3674830">
        <ele>1039.9</ele>
        <time>2022-08-14T11:11:45Z</time>
      </trkpt>
      <trkpt lat="42.0659090" lon="-2.3672560">
        <ele>1037.8</ele>
        <time>2022-08-14T11:11:47Z</time>
      </trkpt>
      <trkpt lat="42.0660950" lon="-2.3670150">
        <ele>1035.6</ele>
        <time>2022-08-14T11:11:49Z</time>
      </trkpt>
      <trkpt lat="42.0661850" lon="-2.3668960">
        <ele>1034.5</ele>
        <time>2022-08-14T11:11:50Z</time>
      </trkpt>
      <trkpt lat="42.0662780" lon="-2.3667840">
        <ele>1033.4</ele>
        <time>2022-08-14T11:11:51Z</time>
      </trkpt>
      <trkpt lat="42.0664740" lon="-2.3665650">
        <ele>1031.2</ele>
        <time>2022-08-14T11:11:53Z</time>
      </trkpt>
      <trkpt lat="42.0665760" lon="-2.3664610">
        <ele>1030.2</ele>
        <time>2022-08-14T11:11:54Z</time>
      </trkpt>
      <trkpt lat="42.0666790" lon="-2.3663600">
        <ele>1029.2</ele>
        <time>2022-08-14T11:11:55Z</time>
      </trkpt>
      <trkpt lat="42.0668990" lon="-2.3661880">
        <ele>1027.6</ele>
        <time>2022-08-14T11:11:57Z</time>
      </trkpt>
      <trkpt lat="42.0670120" lon="-2.3661260">
        <ele>1027.0</ele>
        <time>2022-08-14T11:11:58Z</time>
      </trkpt>
      <trkpt lat="42.0671260" lon="-2.3660770">
        <ele>1026.4</ele>
        <time>2022-08-14T11:11:59Z</time>
      </trkpt>
      <trkpt lat="42.0672360" lon="-2.3660220">
        <ele>1025.9</ele>
        <time>2022-08-14T11:12:00Z</time>
      </trkpt>
      <trkpt lat="42.0673440" lon="-2.3659620">
        <ele>1025.5</ele>
        <time>2022-08-14T11:12:01Z</time>
      </trkpt>
      <trkpt lat="42.0675570" lon="-2.3658400">
        <ele>1024.7</ele>
        <time>2022-08-14T11:12:03Z</time>
      </trkpt>
      <trkpt lat="42.0678620" lon="-2.3656560">
        <ele>1023.8</ele>
        <time>2022-08-14T11:12:06Z</time>
      </trkpt>
      <trkpt lat="42.0681480" lon="-2.3654610">
        <ele>1023.1</ele>
        <time>2022-08-14T11:12:09Z</time>
      </trkpt>
      <trkpt lat="42.0682400" lon="-2.3653950">
        <ele>1022.9</ele>
        <time>2022-08-14T11:12:10Z</time>
      </trkpt>
      <trkpt lat="42.0684190" lon="-2.3652600">
        <ele>1022.4</ele>
        <time>2022-08-14T11:12:12Z</time>
      </trkpt>
      <trkpt lat="42.0687410" lon="-2.3649460">
        <ele>1022.3</ele>
        <time>2022-08-14T11:12:16Z</time>
      </trkpt>
      <trkpt lat="42.0690570" lon="-2.3645640">
        <ele>1023.2</ele>
        <time>2022-08-14T11:12:21Z</time>
      </trkpt>
      <trkpt lat="42.0691160" lon="-2.3645010">
        <ele>1023.4</ele>
        <time>2022-08-14T11:12:22Z</time>
      </trkpt>
      <trkpt lat="42.0692330" lon="-2.3643920">
        <ele>1023.8</ele>
        <time>2022-08-14T11:12:24Z</time>
      </trkpt>
      <trkpt lat="42.0693510" lon="-2.3642940">
        <ele>1024.2</ele>
        <time>2022-08-14T11:12:26Z</time>
      </trkpt>
      <trkpt lat="42.0694040" lon="-2.3642500">
        <ele>1024.3</ele>
        <time>2022-08-14T11:12:27Z</time>
      </trkpt>
      <trkpt lat="42.0695050" lon="-2.3641610">
        <ele>1024.6</ele>
        <time>2022-08-14T11:12:29Z</time>
      </trkpt>
      <trkpt lat="42.0696480" lon="-2.3640450">
        <ele>1025.2</ele>
        <time>2022-08-14T11:12:32Z</time>
      </trkpt>
      <trkpt lat="42.0696870" lon="-2.3640160">
        <ele>1025.3</ele>
        <time>2022-08-14T11:12:33Z</time>
      </trkpt>
      <trkpt lat="42.0697880" lon="-2.3639380">
        <ele>1025.8</ele>
        <time>2022-08-14T11:12:35Z</time>
      </trkpt>
      <trkpt lat="42.0698790" lon="-2.3638690">
        <ele>1026.2</ele>
        <time>2022-08-14T11:12:37Z</time>
      </trkpt>
      <trkpt lat="42.0699610" lon="-2.3638140">
        <ele>1026.6</ele>
        <time>2022-08-14T11:12:39Z</time>
      </trkpt>
      <trkpt lat="42.0701000" lon="-2.3637160">
        <ele>1027.3</ele>
        <time>2022-08-14T11:12:42Z</time>
      </trkpt>
      <trkpt lat="42.0702340" lon="-2.3635960">
        <ele>1027.9</ele>
        <time>2022-08-14T11:12:45Z</time>
      </trkpt>
      <trkpt lat="42.0704110" lon="-2.3634050">
        <ele>1028.8</ele>
        <time>2022-08-14T11:12:49Z</time>
      </trkpt>
      <trkpt lat="42.0704920" lon="-2.3633130">
        <ele>1029.2</ele>
        <time>2022-08-14T11:12:51Z</time>
      </trkpt>
      <trkpt lat="42.0706940" lon="-2.3630060">
        <ele>1030.2</ele>
        <time>2022-08-14T11:12:57Z</time>
      </trkpt>
      <trkpt lat="42.0707310" lon="-2.3629390">
        <ele>1030.5</ele>
        <time>2022-08-14T11:12:58Z</time>
      </trkpt>
      <trkpt lat="42.0708370" lon="-2.3627120">
        <ele>1031.3</ele>
        <time>2022-08-14T11:13:02Z</time>
      </trkpt>
      <trkpt lat="42.0708590" lon="-2.3626530">
        <ele>1031.5</ele>
        <time>2022-08-14T11:13:03Z</time>
      </trkpt>
      <trkpt lat="42.0708940" lon="-2.3625420">
        <ele>1031.8</ele>
        <time>2022-08-14T11:13:05Z</time>
      </trkpt>
      <trkpt lat="42.0709780" lon="-2.3623030">
        <ele>1032.2</ele>
        <time>2022-08-14T11:13:09Z</time>
      </trkpt>
      <trkpt lat="42.0710000" lon="-2.3622570">
        <ele>1032.2</ele>
        <time>2022-08-14T11:13:10Z</time>
      </trkpt>
      <trkpt lat="42.0710730" lon="-2.3621370">
        <ele>1032.0</ele>
        <time>2022-08-14T11:13:12Z</time>
      </trkpt>
      <trkpt lat="42.0713000" lon="-2.3618790">
        <ele>1030.9</ele>
        <time>2022-08-14T11:13:17Z</time>
      </trkpt>
      <trkpt lat="42.0714730" lon="-2.3617360">
        <ele>1030.0</ele>
        <time>2022-08-14T11:13:20Z</time>
      </trkpt>
      <trkpt lat="42.0716080" lon="-2.3616550">
        <ele>1029.3</ele>
        <time>2022-08-14T11:13:22Z</time>
      </trkpt>
      <trkpt lat="42.0718310" lon="-2.3615550">
        <ele>1028.3</ele>
        <time>2022-08-14T11:13:25Z</time>
      </trkpt>
      <trkpt lat="42.0719820" lon="-2.3614650">
        <ele>1027.8</ele>
        <time>2022-08-14T11:13:27Z</time>
      </trkpt>
      <trkpt lat="42.0720400" lon="-2.3614190">
        <ele>1027.6</ele>
        <time>2022-08-14T11:13:28Z</time>
      </trkpt>
      <trkpt lat="42.0721190" lon="-2.3613420">
        <ele>1027.6</ele>
        <time>2022-08-14T11:13:29Z</time>
      </trkpt>
      <trkpt lat="42.0721750" lon="-2.3612740">
        <ele>1027.6</ele>
        <time>2022-08-14T11:13:30Z</time>
      </trkpt>
      <trkpt lat="42.0722770" lon="-2.3611390">
        <ele>1027.7</ele>
        <time>2022-08-14T11:13:32Z</time>
      </trkpt>
      <trkpt lat="42.0724230" lon="-2.3609680">
        <ele>1027.8</ele>
        <time>2022-08-14T11:13:35Z</time>
      </trkpt>
      <trkpt lat="42.0725770" lon="-2.3608330">
        <ele>1027.9</ele>
        <time>2022-08-14T11:13:38Z</time>
      </trkpt>
      <trkpt lat="42.0730420" lon="-2.3604430">
        <ele>1028.0</ele>
        <time>2022-08-14T11:13:47Z</time>
      </trkpt>
      <trkpt lat="42.0733490" lon="-2.3601360">
        <ele>1027.8</ele>
        <time>2022-08-14T11:13:53Z</time>
      </trkpt>
      <trkpt lat="42.0734320" lon="-2.3600280">
        <ele>1027.6</ele>
        <time>2022-08-14T11:13:55Z</time>
      </trkpt>
      <trkpt lat="42.0737010" lon="-2.3596410">
        <ele>1027.2</ele>
        <time>2022-08-14T11:14:01Z</time>
      </trkpt>
      <trkpt lat="42.0737450" lon="-2.3595780">
        <ele>1027.1</ele>
        <time>2022-08-14T11:14:02Z</time>
      </trkpt>
      <trkpt lat="42.0737800" lon="-2.3595280">
        <ele>1027.0</ele>
        <time>2022-08-14T11:14:03Z</time>
      </trkpt>
      <trkpt lat="42.0739130" lon="-2.3593170">
        <ele>1026.6</ele>
        <time>2022-08-14T11:14:06Z</time>
      </trkpt>
      <trkpt lat="42.0739460" lon="-2.3592590">
        <ele>1026.5</ele>
        <time>2022-08-14T11:14:07Z</time>
      </trkpt>
      <trkpt lat="42.0740740" lon="-2.3590120">
        <ele>1025.8</ele>
        <time>2022-08-14T11:14:10Z</time>
      </trkpt>
      <trkpt lat="42.0741500" lon="-2.3588520">
        <ele>1025.4</ele>
        <time>2022-08-14T11:14:12Z</time>
      </trkpt>
      <trkpt lat="42.0741900" lon="-2.3587690">
        <ele>1025.2</ele>
        <time>2022-08-14T11:14:13Z</time>
      </trkpt>
      <trkpt lat="42.0742300" lon="-2.3586850">
        <ele>1025.0</ele>
        <time>2022-08-14T11:14:14Z</time>
      </trkpt>
      <trkpt lat="42.0743030" lon="-2.3585310">
        <ele>1024.6</ele>
        <time>2022-08-14T11:14:16Z</time>
      </trkpt>
      <trkpt lat="42.0743890" lon="-2.3583410">
        <ele>1024.2</ele>
        <time>2022-08-14T11:14:18Z</time>
      </trkpt>
      <trkpt lat="42.0744720" lon="-2.3581660">
        <ele>1023.7</ele>
        <time>2022-08-14T11:14:20Z</time>
      </trkpt>
      <trkpt lat="42.0745130" lon="-2.3580780">
        <ele>1023.4</ele>
        <time>2022-08-14T11:14:21Z</time>
      </trkpt>
      <trkpt lat="42.0745970" lon="-2.3578950">
        <ele>1022.9</ele>
        <time>2022-08-14T11:14:23Z</time>
      </trkpt>
      <trkpt lat="42.0746400" lon="-2.3578020">
        <ele>1022.6</ele>
        <time>2022-08-14T11:14:24Z</time>
      </trkpt>
      <trkpt lat="42.0746840" lon="-2.3577090">
        <ele>1022.4</ele>
        <time>2022-08-14T11:14:25Z</time>
      </trkpt>
      <trkpt lat="42.0747190" lon="-2.3576360">
        <ele>1022.2</ele>
        <time>2022-08-14T11:14:26Z</time>
      </trkpt>
      <trkpt lat="42.0748940" lon="-2.3572630">
        <ele>1021.0</ele>
        <time>2022-08-14T11:14:30Z</time>
      </trkpt>
      <trkpt lat="42.0749910" lon="-2.3570590">
        <ele>1020.5</ele>
        <time>2022-08-14T11:14:32Z</time>
      </trkpt>
      <trkpt lat="42.0751090" lon="-2.3568020">
        <ele>1019.3</ele>
        <time>2022-08-14T11:14:35Z</time>
      </trkpt>
      <trkpt lat="42.0751750" lon="-2.3566630">
        <ele>1018.5</ele>
        <time>2022-08-14T11:14:37Z</time>
      </trkpt>
      <trkpt lat="42.0752500" lon="-2.3564660">
        <ele>1017.5</ele>
        <time>2022-08-14T11:14:40Z</time>
      </trkpt>
      <trkpt lat="42.0752730" lon="-2.3563390">
        <ele>1017.1</ele>
        <time>2022-08-14T11:14:42Z</time>
      </trkpt>
      <trkpt lat="42.0752800" lon="-2.3562650">
        <ele>1017.0</ele>
        <time>2022-08-14T11:14:43Z</time>
      </trkpt>
      <trkpt lat="42.0752660" lon="-2.3561210">
        <ele>1016.9</ele>
        <time>2022-08-14T11:14:45Z</time>
      </trkpt>
      <trkpt lat="42.0752470" lon="-2.3560360">
        <ele>1016.8</ele>
        <time>2022-08-14T11:14:46Z</time>
      </trkpt>
      <trkpt lat="42.0751890" lon="-2.3556710">
        <ele>1016.4</ele>
        <time>2022-08-14T11:14:51Z</time>
      </trkpt>
      <trkpt lat="42.0751870" lon="-2.3556270">
        <ele>1016.4</ele>
        <time>2022-08-14T11:14:52Z</time>
      </trkpt>
      <trkpt lat="42.0751940" lon="-2.3555050">
        <ele>1016.3</ele>
        <time>2022-08-14T11:14:54Z</time>
      </trkpt>
      <trkpt lat="42.0752170" lon="-2.3553860">
        <ele>1016.3</ele>
        <time>2022-08-14T11:14:56Z</time>
      </trkpt>
      <trkpt lat="42.0752300" lon="-2.3553280">
        <ele>1016.2</ele>
        <time>2022-08-14T11:14:57Z</time>
      </trkpt>
      <trkpt lat="42.0752440" lon="-2.3552660">
        <ele>1016.2</ele>
        <time>2022-08-14T11:14:58Z</time>
      </trkpt>
      <trkpt lat="42.0752600" lon="-2.3552020">
        <ele>1016.2</ele>
        <time>2022-08-14T11:14:59Z</time>
      </trkpt>
      <trkpt lat="42.0752770" lon="-2.3551400">
        <ele>1016.1</ele>
        <time>2022-08-14T11:15:00Z</time>
      </trkpt>
      <trkpt lat="42.0753450" lon="-2.3549070">
        <ele>1015.9</ele>
        <time>2022-08-14T11:15:04Z</time>
      </trkpt>
      <trkpt lat="42.0753590" lon="-2.3548520">
        <ele>1015.8</ele>
        <time>2022-08-14T11:15:05Z</time>
      </trkpt>
      <trkpt lat="42.0753760" lon="-2.3547980">
        <ele>1015.8</ele>
        <time>2022-08-14T11:15:06Z</time>
      </trkpt>
      <trkpt lat="42.0754210" lon="-2.3544930">
        <ele>1015.2</ele>
        <time>2022-08-14T11:15:12Z</time>
      </trkpt>
      <trkpt lat="42.0754120" lon="-2.3543800">
        <ele>1014.9</ele>
        <time>2022-08-14T11:15:16Z</time>
      </trkpt>
      <trkpt lat="42.0754040" lon="-2.3543530">
        <ele>1014.9</ele>
        <time>2022-08-14T11:15:23Z</time>
      </trkpt>
      <trkpt lat="42.0753970" lon="-2.3543260">
        <ele>1014.8</ele>
        <time>2022-08-14T11:15:24Z</time>
      </trkpt>
      <trkpt lat="42.0753820" lon="-2.3542810">
        <ele>1014.7</ele>
        <time>2022-08-14T11:15:25Z</time>
      </trkpt>
      <trkpt lat="42.0753700" lon="-2.3542220">
        <ele>1014.5</ele>
        <time>2022-08-14T11:15:26Z</time>
      </trkpt>
      <trkpt lat="42.0753630" lon="-2.3541540">
        <ele>1014.3</ele>
        <time>2022-08-14T11:15:27Z</time>
      </trkpt>
      <trkpt lat="42.0753670" lon="-2.3539240">
        <ele>1013.7</ele>
        <time>2022-08-14T11:15:30Z</time>
      </trkpt>
      <trkpt lat="42.0753940" lon="-2.3534530">
        <ele>1012.5</ele>
        <time>2022-08-14T11:15:36Z</time>
      </trkpt>
      <trkpt lat="42.0753980" lon="-2.3533530">
        <ele>1012.2</ele>
        <time>2022-08-14T11:15:37Z</time>
      </trkpt>
      <trkpt lat="42.0753920" lon="-2.3530890">
        <ele>1011.4</ele>
        <time>2022-08-14T11:15:39Z</time>
      </trkpt>
      <trkpt lat="42.0753910" lon="-2.3530360">
        <ele>1011.2</ele>
        <time>2022-08-14T11:15:40Z</time>
      </trkpt>
      <trkpt lat="42.0753800" lon="-2.3526280">
        <ele>1009.7</ele>
        <time>2022-08-14T11:15:46Z</time>
      </trkpt>
      <trkpt lat="42.0754000" lon="-2.3520390">
        <ele>1007.4</ele>
        <time>2022-08-14T11:15:52Z</time>
      </trkpt>
      <trkpt lat="42.0753970" lon="-2.3518460">
        <ele>1006.9</ele>
        <time>2022-08-14T11:15:54Z</time>
      </trkpt>
      <trkpt lat="42.0753960" lon="-2.3515630">
        <ele>1006.2</ele>
        <time>2022-08-14T11:15:57Z</time>
      </trkpt>
      <trkpt lat="42.0754030" lon="-2.3512940">
        <ele>1005.8</ele>
        <time>2022-08-14T11:16:00Z</time>
      </trkpt>
      <trkpt lat="42.0754090" lon="-2.3511200">
        <ele>1005.6</ele>
        <time>2022-08-14T11:16:02Z</time>
      </trkpt>
      <trkpt lat="42.0754100" lon="-2.3509560">
        <ele>1005.5</ele>
        <time>2022-08-14T11:16:04Z</time>
      </trkpt>
      <trkpt lat="42.0754070" lon="-2.3508080">
        <ele>1005.5</ele>
        <time>2022-08-14T11:16:06Z</time>
      </trkpt>
      <trkpt lat="42.0754020" lon="-2.3507400">
        <ele>1005.5</ele>
        <time>2022-08-14T11:16:07Z</time>
      </trkpt>
      <trkpt lat="42.0753930" lon="-2.3506730">
        <ele>1005.5</ele>
        <time>2022-08-14T11:16:08Z</time>
      </trkpt>
      <trkpt lat="42.0753900" lon="-2.3506090">
        <ele>1005.5</ele>
        <time>2022-08-14T11:16:09Z</time>
      </trkpt>
      <trkpt lat="42.0753570" lon="-2.3503740">
        <ele>1005.3</ele>
        <time>2022-08-14T11:16:13Z</time>
      </trkpt>
      <trkpt lat="42.0753090" lon="-2.3502520">
        <ele>1004.8</ele>
        <time>2022-08-14T11:16:15Z</time>
      </trkpt>
      <trkpt lat="42.0752850" lon="-2.3501920">
        <ele>1004.6</ele>
        <time>2022-08-14T11:16:16Z</time>
      </trkpt>
      <trkpt lat="42.0752280" lon="-2.3500790">
        <ele>1004.3</ele>
        <time>2022-08-14T11:16:18Z</time>
      </trkpt>
      <trkpt lat="42.0752000" lon="-2.3500260">
        <ele>1004.2</ele>
        <time>2022-08-14T11:16:19Z</time>
      </trkpt>
      <trkpt lat="42.0751410" lon="-2.3498830">
        <ele>1004.1</ele>
        <time>2022-08-14T11:16:22Z</time>
      </trkpt>
      <trkpt lat="42.0751220" lon="-2.3498370">
        <ele>1004.1</ele>
        <time>2022-08-14T11:16:23Z</time>
      </trkpt>
      <trkpt lat="42.0751060" lon="-2.3498040">
        <ele>1004.0</ele>
        <time>2022-08-14T11:16:24Z</time>
      </trkpt>
      <trkpt lat="42.0750990" lon="-2.3496950">
        <ele>1004.0</ele>
        <time>2022-08-14T11:16:27Z</time>
      </trkpt>
      <trkpt lat="42.0751190" lon="-2.3496600">
        <ele>1003.8</ele>
        <time>2022-08-14T11:16:28Z</time>
      </trkpt>
      <trkpt lat="42.0751460" lon="-2.3496260">
        <ele>1003.6</ele>
        <time>2022-08-14T11:16:29Z</time>
      </trkpt>
      <trkpt lat="42.0751800" lon="-2.3495850">
        <ele>1003.5</ele>
        <time>2022-08-14T11:16:30Z</time>
      </trkpt>
      <trkpt lat="42.0752420" lon="-2.3494860">
        <ele>1003.2</ele>
        <time>2022-08-14T11:16:32Z</time>
      </trkpt>
      <trkpt lat="42.0752660" lon="-2.3494380">
        <ele>1003.1</ele>
        <time>2022-08-14T11:16:33Z</time>
      </trkpt>
      <trkpt lat="42.0753210" lon="-2.3493010">
        <ele>1002.7</ele>
        <time>2022-08-14T11:16:35Z</time>
      </trkpt>
      <trkpt lat="42.0753850" lon="-2.3491050">
        <ele>1002.4</ele>
        <time>2022-08-14T11:16:38Z</time>
      </trkpt>
      <trkpt lat="42.0754080" lon="-2.3490280">
        <ele>1002.4</ele>
        <time>2022-08-14T11:16:39Z</time>
      </trkpt>
      <trkpt lat="42.0755450" lon="-2.3485770">
        <ele>1001.9</ele>
        <time>2022-08-14T11:16:45Z</time>
      </trkpt>
      <trkpt lat="42.0755620" lon="-2.3485170">
        <ele>1001.8</ele>
        <time>2022-08-14T11:16:46Z</time>
      </trkpt>
      <trkpt lat="42.0756430" lon="-2.3482760">
        <ele>1001.5</ele>
        <time>2022-08-14T11:16:49Z</time>
      </trkpt>
      <trkpt lat="42.0756910" lon="-2.3481440">
        <ele>1001.4</ele>
        <time>2022-08-14T11:16:51Z</time>
      </trkpt>
      <trkpt lat="42.0757210" lon="-2.3480560">
        <ele>1001.3</ele>
        <time>2022-08-14T11:16:52Z</time>
      </trkpt>
      <trkpt lat="42.0757720" lon="-2.3479140">
        <ele>1001.2</ele>
        <time>2022-08-14T11:16:54Z</time>
      </trkpt>
      <trkpt lat="42.0758490" lon="-2.3476950">
        <ele>1001.1</ele>
        <time>2022-08-14T11:16:57Z</time>
      </trkpt>
      <trkpt lat="42.0759860" lon="-2.3473180">
        <ele>1001.0</ele>
        <time>2022-08-14T11:17:02Z</time>
      </trkpt>
      <trkpt lat="42.0760150" lon="-2.3472380">
        <ele>1001.0</ele>
        <time>2022-08-14T11:17:03Z</time>
      </trkpt>
      <trkpt lat="42.0760650" lon="-2.3470870">
        <ele>1001.0</ele>
        <time>2022-08-14T11:17:05Z</time>
      </trkpt>
      <trkpt lat="42.0760890" lon="-2.3470120">
        <ele>1001.0</ele>
        <time>2022-08-14T11:17:06Z</time>
      </trkpt>
      <trkpt lat="42.0762170" lon="-2.3466350">
        <ele>1001.0</ele>
        <time>2022-08-14T11:17:11Z</time>
      </trkpt>
      <trkpt lat="42.0762880" lon="-2.3464250">
        <ele>1000.9</ele>
        <time>2022-08-14T11:17:14Z</time>
      </trkpt>
      <trkpt lat="42.0763420" lon="-2.3462750">
        <ele>1000.8</ele>
        <time>2022-08-14T11:17:16Z</time>
      </trkpt>
      <trkpt lat="42.0765020" lon="-2.3458350">
        <ele>1000.5</ele>
        <time>2022-08-14T11:17:22Z</time>
      </trkpt>
      <trkpt lat="42.0765280" lon="-2.3457570">
        <ele>1000.4</ele>
        <time>2022-08-14T11:17:23Z</time>
      </trkpt>
      <trkpt lat="42.0767230" lon="-2.3451880">
        <ele>1000.1</ele>
        <time>2022-08-14T11:17:30Z</time>
      </trkpt>
      <trkpt lat="42.0768040" lon="-2.3449590">
        <ele>1000.2</ele>
        <time>2022-08-14T11:17:33Z</time>
      </trkpt>
      <trkpt lat="42.0768260" lon="-2.3448950">
        <ele>1000.2</ele>
        <time>2022-08-14T11:17:34Z</time>
      </trkpt>
      <trkpt lat="42.0770290" lon="-2.3442930">
        <ele>1000.7</ele>
        <time>2022-08-14T11:17:42Z</time>
      </trkpt>
      <trkpt lat="42.0770760" lon="-2.3441440">
        <ele>1000.9</ele>
        <time>2022-08-14T11:17:44Z</time>
      </trkpt>
      <trkpt lat="42.0771960" lon="-2.3437720">
        <ele>1001.5</ele>
        <time>2022-08-14T11:17:49Z</time>
      </trkpt>
      <trkpt lat="42.0772930" lon="-2.3433990">
        <ele>1002.4</ele>
        <time>2022-08-14T11:17:54Z</time>
      </trkpt>
      <trkpt lat="42.0773380" lon="-2.3431420">
        <ele>1003.2</ele>
        <time>2022-08-14T11:17:58Z</time>
      </trkpt>
      <trkpt lat="42.0773640" lon="-2.3429500">
        <ele>1003.8</ele>
        <time>2022-08-14T11:18:01Z</time>
      </trkpt>
      <trkpt lat="42.0773720" lon="-2.3428870">
        <ele>1004.0</ele>
        <time>2022-08-14T11:18:02Z</time>
      </trkpt>
      <trkpt lat="42.0773980" lon="-2.3425810">
        <ele>1004.9</ele>
        <time>2022-08-14T11:18:07Z</time>
      </trkpt>
      <trkpt lat="42.0774050" lon="-2.3424640">
        <ele>1005.3</ele>
        <time>2022-08-14T11:18:09Z</time>
      </trkpt>
      <trkpt lat="42.0774080" lon="-2.3424060">
        <ele>1005.5</ele>
        <time>2022-08-14T11:18:10Z</time>
      </trkpt>
      <trkpt lat="42.0774150" lon="-2.3422930">
        <ele>1005.9</ele>
        <time>2022-08-14T11:18:12Z</time>
      </trkpt>
      <trkpt lat="42.0774450" lon="-2.3418530">
        <ele>1007.4</ele>
        <time>2022-08-14T11:18:20Z</time>
      </trkpt>
      <trkpt lat="42.0774520" lon="-2.3417530">
        <ele>1007.7</ele>
        <time>2022-08-14T11:18:22Z</time>
      </trkpt>
      <trkpt lat="42.0775060" lon="-2.3414070">
        <ele>1008.8</ele>
        <time>2022-08-14T11:18:29Z</time>
      </trkpt>
      <trkpt lat="42.0776300" lon="-2.3410360">
        <ele>1010.2</ele>
        <time>2022-08-14T11:18:37Z</time>
      </trkpt>
      <trkpt lat="42.0776450" lon="-2.3410050">
        <ele>1010.3</ele>
        <time>2022-08-14T11:18:38Z</time>
      </trkpt>
      <trkpt lat="42.0778350" lon="-2.3406890">
        <ele>1011.0</ele>
        <time>2022-08-14T11:18:46Z</time>
      </trkpt>
      <trkpt lat="42.0780240" lon="-2.3404690">
        <ele>1011.2</ele>
        <time>2022-08-14T11:18:52Z</time>
      </trkpt>
      <trkpt lat="42.0781420" lon="-2.3403760">
        <ele>1011.1</ele>
        <time>2022-08-14T11:18:55Z</time>
      </trkpt>
      <trkpt lat="42.0782280" lon="-2.3403160">
        <ele>1011.0</ele>
        <time>2022-08-14T11:18:57Z</time>
      </trkpt>
      <trkpt lat="42.0784100" lon="-2.3402110">
        <ele>1010.4</ele>
        <time>2022-08-14T11:19:01Z</time>
      </trkpt>
      <trkpt lat="42.0785120" lon="-2.3401660">
        <ele>1010.1</ele>
        <time>2022-08-14T11:19:03Z</time>
      </trkpt>
      <trkpt lat="42.0786240" lon="-2.3401230">
        <ele>1009.6</ele>
        <time>2022-08-14T11:19:05Z</time>
      </trkpt>
      <trkpt lat="42.0788770" lon="-2.3400170">
        <ele>1008.5</ele>
        <time>2022-08-14T11:19:09Z</time>
      </trkpt>
      <trkpt lat="42.0789460" lon="-2.3399900">
        <ele>1008.2</ele>
        <time>2022-08-14T11:19:10Z</time>
      </trkpt>
      <trkpt lat="42.0791610" lon="-2.3399100">
        <ele>1007.2</ele>
        <time>2022-08-14T11:19:12Z</time>
      </trkpt>
      <trkpt lat="42.0791910" lon="-2.3398980">
        <ele>1007.0</ele>
        <time>2022-08-14T11:19:13Z</time>
      </trkpt>
      <trkpt lat="42.0793430" lon="-2.3398420">
        <ele>1006.3</ele>
        <time>2022-08-14T11:19:15Z</time>
      </trkpt>
      <trkpt lat="42.0793910" lon="-2.3398250">
        <ele>1006.0</ele>
        <time>2022-08-14T11:19:16Z</time>
      </trkpt>
      <trkpt lat="42.0798020" lon="-2.3396650">
        <ele>1004.1</ele>
        <time>2022-08-14T11:19:21Z</time>
      </trkpt>
      <trkpt lat="42.0798870" lon="-2.3396300">
        <ele>1003.6</ele>
        <time>2022-08-14T11:19:22Z</time>
      </trkpt>
      <trkpt lat="42.0799740" lon="-2.3395950">
        <ele>1003.2</ele>
        <time>2022-08-14T11:19:23Z</time>
      </trkpt>
      <trkpt lat="42.0800630" lon="-2.3395580">
        <ele>1002.7</ele>
        <time>2022-08-14T11:19:24Z</time>
      </trkpt>
      <trkpt lat="42.0802470" lon="-2.3394880">
        <ele>1001.8</ele>
        <time>2022-08-14T11:19:26Z</time>
      </trkpt>
      <trkpt lat="42.0805260" lon="-2.3393780">
        <ele>1000.3</ele>
        <time>2022-08-14T11:19:29Z</time>
      </trkpt>
      <trkpt lat="42.0806230" lon="-2.3393410">
        <ele>999.7</ele>
        <time>2022-08-14T11:19:30Z</time>
      </trkpt>
      <trkpt lat="42.0807200" lon="-2.3393030">
        <ele>999.2</ele>
        <time>2022-08-14T11:19:31Z</time>
      </trkpt>
      <trkpt lat="42.0808160" lon="-2.3392630">
        <ele>998.6</ele>
        <time>2022-08-14T11:19:32Z</time>
      </trkpt>
      <trkpt lat="42.0809130" lon="-2.3392210">
        <ele>998.0</ele>
        <time>2022-08-14T11:19:33Z</time>
      </trkpt>
      <trkpt lat="42.0811140" lon="-2.3391420">
        <ele>996.8</ele>
        <time>2022-08-14T11:19:35Z</time>
      </trkpt>
      <trkpt lat="42.0813200" lon="-2.3390600">
        <ele>995.7</ele>
        <time>2022-08-14T11:19:37Z</time>
      </trkpt>
      <trkpt lat="42.0816170" lon="-2.3389430">
        <ele>994.4</ele>
        <time>2022-08-14T11:19:40Z</time>
      </trkpt>
      <trkpt lat="42.0818290" lon="-2.3388590">
        <ele>993.8</ele>
        <time>2022-08-14T11:19:42Z</time>
      </trkpt>
      <trkpt lat="42.0820390" lon="-2.3387740">
        <ele>993.2</ele>
        <time>2022-08-14T11:19:44Z</time>
      </trkpt>
      <trkpt lat="42.0821420" lon="-2.3387340">
        <ele>993.0</ele>
        <time>2022-08-14T11:19:45Z</time>
      </trkpt>
      <trkpt lat="42.0823510" lon="-2.3386500">
        <ele>992.6</ele>
        <time>2022-08-14T11:19:47Z</time>
      </trkpt>
      <trkpt lat="42.0827560" lon="-2.3384890">
        <ele>992.1</ele>
        <time>2022-08-14T11:19:51Z</time>
      </trkpt>
      <trkpt lat="42.0832460" lon="-2.3382890">
        <ele>991.8</ele>
        <time>2022-08-14T11:19:56Z</time>
      </trkpt>
      <trkpt lat="42.0836180" lon="-2.3381340">
        <ele>991.5</ele>
        <time>2022-08-14T11:20:00Z</time>
      </trkpt>
      <trkpt lat="42.0837990" lon="-2.3380650">
        <ele>991.3</ele>
        <time>2022-08-14T11:20:02Z</time>
      </trkpt>
      <trkpt lat="42.0838910" lon="-2.3380310">
        <ele>991.2</ele>
        <time>2022-08-14T11:20:03Z</time>
      </trkpt>
      <trkpt lat="42.0840690" lon="-2.3379610">
        <ele>991.0</ele>
        <time>2022-08-14T11:20:05Z</time>
      </trkpt>
      <trkpt lat="42.0842400" lon="-2.3378800">
        <ele>990.7</ele>
        <time>2022-08-14T11:20:07Z</time>
      </trkpt>
      <trkpt lat="42.0844110" lon="-2.3377900">
        <ele>990.4</ele>
        <time>2022-08-14T11:20:09Z</time>
      </trkpt>
      <trkpt lat="42.0845790" lon="-2.3376970">
        <ele>990.1</ele>
        <time>2022-08-14T11:20:11Z</time>
      </trkpt>
      <trkpt lat="42.0846620" lon="-2.3376460">
        <ele>990.0</ele>
        <time>2022-08-14T11:20:12Z</time>
      </trkpt>
      <trkpt lat="42.0848700" lon="-2.3375020">
        <ele>989.5</ele>
        <time>2022-08-14T11:20:14Z</time>
      </trkpt>
      <trkpt lat="42.0849790" lon="-2.3374160">
        <ele>989.4</ele>
        <time>2022-08-14T11:20:16Z</time>
      </trkpt>
      <trkpt lat="42.0850560" lon="-2.3373530">
        <ele>989.3</ele>
        <time>2022-08-14T11:20:17Z</time>
      </trkpt>
      <trkpt lat="42.0851320" lon="-2.3372890">
        <ele>989.3</ele>
        <time>2022-08-14T11:20:18Z</time>
      </trkpt>
      <trkpt lat="42.0852070" lon="-2.3372260">
        <ele>989.3</ele>
        <time>2022-08-14T11:20:19Z</time>
      </trkpt>
      <trkpt lat="42.0854820" lon="-2.3369810">
        <ele>989.5</ele>
        <time>2022-08-14T11:20:23Z</time>
      </trkpt>
      <trkpt lat="42.0855460" lon="-2.3369240">
        <ele>989.6</ele>
        <time>2022-08-14T11:20:24Z</time>
      </trkpt>
      <trkpt lat="42.0856070" lon="-2.3368700">
        <ele>989.6</ele>
        <time>2022-08-14T11:20:25Z</time>
      </trkpt>
      <trkpt lat="42.0856670" lon="-2.3368160">
        <ele>989.7</ele>
        <time>2022-08-14T11:20:26Z</time>
      </trkpt>
      <trkpt lat="42.0857850" lon="-2.3367090">
        <ele>989.9</ele>
        <time>2022-08-14T11:20:28Z</time>
      </trkpt>
      <trkpt lat="42.0859020" lon="-2.3366060">
        <ele>990.0</ele>
        <time>2022-08-14T11:20:30Z</time>
      </trkpt>
      <trkpt lat="42.0860150" lon="-2.3365020">
        <ele>990.2</ele>
        <time>2022-08-14T11:20:32Z</time>
      </trkpt>
      <trkpt lat="42.0860720" lon="-2.3364510">
        <ele>990.2</ele>
        <time>2022-08-14T11:20:33Z</time>
      </trkpt>
      <trkpt lat="42.0862400" lon="-2.3363070">
        <ele>990.4</ele>
        <time>2022-08-14T11:20:36Z</time>
      </trkpt>
      <trkpt lat="42.0864610" lon="-2.3361120">
        <ele>990.5</ele>
        <time>2022-08-14T11:20:40Z</time>
      </trkpt>
      <trkpt lat="42.0866260" lon="-2.3359780">
        <ele>990.5</ele>
        <time>2022-08-14T11:20:43Z</time>
      </trkpt>
      <trkpt lat="42.0869250" lon="-2.3357720">
        <ele>990.4</ele>
        <time>2022-08-14T11:20:48Z</time>
      </trkpt>
      <trkpt lat="42.0871210" lon="-2.3356650">
        <ele>990.2</ele>
        <time>2022-08-14T11:20:51Z</time>
      </trkpt>
      <trkpt lat="42.0876000" lon="-2.3354300">
        <ele>989.5</ele>
        <time>2022-08-14T11:20:58Z</time>
      </trkpt>
      <trkpt lat="42.0877400" lon="-2.3353630">
        <ele>989.2</ele>
        <time>2022-08-14T11:21:00Z</time>
      </trkpt>
      <trkpt lat="42.0878070" lon="-2.3353310">
        <ele>989.1</ele>
        <time>2022-08-14T11:21:01Z</time>
      </trkpt>
      <trkpt lat="42.0878740" lon="-2.3352990">
        <ele>988.9</ele>
        <time>2022-08-14T11:21:02Z</time>
      </trkpt>
      <trkpt lat="42.0881440" lon="-2.3351810">
        <ele>988.2</ele>
        <time>2022-08-14T11:21:06Z</time>
      </trkpt>
      <trkpt lat="42.0884930" lon="-2.3350850">
        <ele>987.4</ele>
        <time>2022-08-14T11:21:11Z</time>
      </trkpt>
      <trkpt lat="42.0886870" lon="-2.3350570">
        <ele>986.8</ele>
        <time>2022-08-14T11:21:13Z</time>
      </trkpt>
      <trkpt lat="42.0888840" lon="-2.3350320">
        <ele>986.0</ele>
        <time>2022-08-14T11:21:16Z</time>
      </trkpt>
      <trkpt lat="42.0891230" lon="-2.3350050">
        <ele>985.1</ele>
        <time>2022-08-14T11:21:19Z</time>
      </trkpt>
      <trkpt lat="42.0891880" lon="-2.3350000">
        <ele>984.8</ele>
        <time>2022-08-14T11:21:20Z</time>
      </trkpt>
      <trkpt lat="42.0892890" lon="-2.3349890">
        <ele>984.3</ele>
        <time>2022-08-14T11:21:21Z</time>
      </trkpt>
      <trkpt lat="42.0894410" lon="-2.3349760">
        <ele>983.6</ele>
        <time>2022-08-14T11:21:23Z</time>
      </trkpt>
      <trkpt lat="42.0896320" lon="-2.3349620">
        <ele>982.9</ele>
        <time>2022-08-14T11:21:25Z</time>
      </trkpt>
      <trkpt lat="42.0898780" lon="-2.3349670">
        <ele>982.1</ele>
        <time>2022-08-14T11:21:28Z</time>
      </trkpt>
      <trkpt lat="42.0899660" lon="-2.3349820">
        <ele>981.8</ele>
        <time>2022-08-14T11:21:29Z</time>
      </trkpt>
      <trkpt lat="42.0903220" lon="-2.3350830">
        <ele>980.9</ele>
        <time>2022-08-14T11:21:33Z</time>
      </trkpt>
      <trkpt lat="42.0904300" lon="-2.3351180">
        <ele>980.7</ele>
        <time>2022-08-14T11:21:34Z</time>
      </trkpt>
      <trkpt lat="42.0906820" lon="-2.3351760">
        <ele>980.8</ele>
        <time>2022-08-14T11:21:37Z</time>
      </trkpt>
      <trkpt lat="42.0908570" lon="-2.3351760">
        <ele>981.1</ele>
        <time>2022-08-14T11:21:39Z</time>
      </trkpt>
      <trkpt lat="42.0910200" lon="-2.3351530">
        <ele>981.5</ele>
        <time>2022-08-14T11:21:41Z</time>
      </trkpt>
      <trkpt lat="42.0913270" lon="-2.3350890">
        <ele>982.4</ele>
        <time>2022-08-14T11:21:45Z</time>
      </trkpt>
      <trkpt lat="42.0913980" lon="-2.3350750">
        <ele>982.6</ele>
        <time>2022-08-14T11:21:46Z</time>
      </trkpt>
      <trkpt lat="42.0914670" lon="-2.3350620">
        <ele>982.9</ele>
        <time>2022-08-14T11:21:47Z</time>
      </trkpt>
      <trkpt lat="42.0916010" lon="-2.3350340">
        <ele>983.3</ele>
        <time>2022-08-14T11:21:49Z</time>
      </trkpt>
      <trkpt lat="42.0918630" lon="-2.3349530">
        <ele>984.0</ele>
        <time>2022-08-14T11:21:53Z</time>
      </trkpt>
      <trkpt lat="42.0919870" lon="-2.3348910">
        <ele>984.4</ele>
        <time>2022-08-14T11:21:55Z</time>
      </trkpt>
      <trkpt lat="42.0920450" lon="-2.3348510">
        <ele>984.5</ele>
        <time>2022-08-14T11:21:56Z</time>
      </trkpt>
      <trkpt lat="42.0921460" lon="-2.3347740">
        <ele>984.8</ele>
        <time>2022-08-14T11:21:58Z</time>
      </trkpt>
      <trkpt lat="42.0922680" lon="-2.3346780">
        <ele>985.1</ele>
        <time>2022-08-14T11:22:00Z</time>
      </trkpt>
      <trkpt lat="42.0923690" lon="-2.3346120">
        <ele>985.1</ele>
        <time>2022-08-14T11:22:02Z</time>
      </trkpt>
      <trkpt lat="42.0925690" lon="-2.3345310">
        <ele>985.0</ele>
        <time>2022-08-14T11:22:05Z</time>
      </trkpt>
      <trkpt lat="42.0928520" lon="-2.3345320">
        <ele>984.2</ele>
        <time>2022-08-14T11:22:09Z</time>
      </trkpt>
      <trkpt lat="42.0931500" lon="-2.3345810">
        <ele>982.5</ele>
        <time>2022-08-14T11:22:13Z</time>
      </trkpt>
      <trkpt lat="42.0933210" lon="-2.3346210">
        <ele>981.4</ele>
        <time>2022-08-14T11:22:15Z</time>
      </trkpt>
      <trkpt lat="42.0935220" lon="-2.3346940">
        <ele>980.0</ele>
        <time>2022-08-14T11:22:17Z</time>
      </trkpt>
      <trkpt lat="42.0937130" lon="-2.3347990">
        <ele>978.8</ele>
        <time>2022-08-14T11:22:19Z</time>
      </trkpt>
      <trkpt lat="42.0939050" lon="-2.3349360">
        <ele>977.7</ele>
        <time>2022-08-14T11:22:21Z</time>
      </trkpt>
      <trkpt lat="42.0940900" lon="-2.3350860">
        <ele>976.9</ele>
        <time>2022-08-14T11:22:23Z</time>
      </trkpt>
      <trkpt lat="42.0941640" lon="-2.3351480">
        <ele>976.8</ele>
        <time>2022-08-14T11:22:24Z</time>
      </trkpt>
      <trkpt lat="42.0943470" lon="-2.3353030">
        <ele>976.6</ele>
        <time>2022-08-14T11:22:26Z</time>
      </trkpt>
      <trkpt lat="42.0945380" lon="-2.3354600">
        <ele>976.4</ele>
        <time>2022-08-14T11:22:28Z</time>
      </trkpt>
      <trkpt lat="42.0946040" lon="-2.3355160">
        <ele>976.2</ele>
        <time>2022-08-14T11:22:29Z</time>
      </trkpt>
      <trkpt lat="42.0947840" lon="-2.3356570">
        <ele>975.7</ele>
        <time>2022-08-14T11:22:31Z</time>
      </trkpt>
      <trkpt lat="42.0948700" lon="-2.3357110">
        <ele>975.4</ele>
        <time>2022-08-14T11:22:32Z</time>
      </trkpt>
      <trkpt lat="42.0950340" lon="-2.3357670">
        <ele>974.7</ele>
        <time>2022-08-14T11:22:34Z</time>
      </trkpt>
      <trkpt lat="42.0952460" lon="-2.3357620">
        <ele>973.8</ele>
        <time>2022-08-14T11:22:36Z</time>
      </trkpt>
      <trkpt lat="42.0953450" lon="-2.3357460">
        <ele>973.4</ele>
        <time>2022-08-14T11:22:37Z</time>
      </trkpt>
      <trkpt lat="42.0954260" lon="-2.3357370">
        <ele>973.0</ele>
        <time>2022-08-14T11:22:38Z</time>
      </trkpt>
      <trkpt lat="42.0955300" lon="-2.3357350">
        <ele>972.7</ele>
        <time>2022-08-14T11:22:39Z</time>
      </trkpt>
      <trkpt lat="42.0956530" lon="-2.3357590">
        <ele>972.3</ele>
        <time>2022-08-14T11:22:40Z</time>
      </trkpt>
      <trkpt lat="42.0957320" lon="-2.3357940">
        <ele>972.0</ele>
        <time>2022-08-14T11:22:41Z</time>
      </trkpt>
      <trkpt lat="42.0958220" lon="-2.3358600">
        <ele>971.8</ele>
        <time>2022-08-14T11:22:42Z</time>
      </trkpt>
      <trkpt lat="42.0959310" lon="-2.3359600">
        <ele>971.5</ele>
        <time>2022-08-14T11:22:43Z</time>
      </trkpt>
      <trkpt lat="42.0959980" lon="-2.3360360">
        <ele>971.3</ele>
        <time>2022-08-14T11:22:44Z</time>
      </trkpt>
      <trkpt lat="42.0962330" lon="-2.3363460">
        <ele>970.9</ele>
        <time>2022-08-14T11:22:47Z</time>
      </trkpt>
      <trkpt lat="42.0964040" lon="-2.3365650">
        <ele>970.6</ele>
        <time>2022-08-14T11:22:49Z</time>
      </trkpt>
      <trkpt lat="42.0964810" lon="-2.3366610">
        <ele>970.5</ele>
        <time>2022-08-14T11:22:50Z</time>
      </trkpt>
      <trkpt lat="42.0965620" lon="-2.3367500">
        <ele>970.2</ele>
        <time>2022-08-14T11:22:51Z</time>
      </trkpt>
      <trkpt lat="42.0966440" lon="-2.3368220">
        <ele>970.0</ele>
        <time>2022-08-14T11:22:52Z</time>
      </trkpt>
      <trkpt lat="42.0967340" lon="-2.3368730">
        <ele>969.6</ele>
        <time>2022-08-14T11:22:53Z</time>
      </trkpt>
      <trkpt lat="42.0968360" lon="-2.3369110">
        <ele>969.2</ele>
        <time>2022-08-14T11:22:54Z</time>
      </trkpt>
      <trkpt lat="42.0970410" lon="-2.3369410">
        <ele>968.2</ele>
        <time>2022-08-14T11:22:56Z</time>
      </trkpt>
      <trkpt lat="42.0972460" lon="-2.3369180">
        <ele>967.1</ele>
        <time>2022-08-14T11:22:58Z</time>
      </trkpt>
      <trkpt lat="42.0974280" lon="-2.3368760">
        <ele>966.1</ele>
        <time>2022-08-14T11:23:00Z</time>
      </trkpt>
      <trkpt lat="42.0975530" lon="-2.3368450">
        <ele>965.5</ele>
        <time>2022-08-14T11:23:01Z</time>
      </trkpt>
      <trkpt lat="42.0976580" lon="-2.3368190">
        <ele>965.1</ele>
        <time>2022-08-14T11:23:02Z</time>
      </trkpt>
      <trkpt lat="42.0979810" lon="-2.3367550">
        <ele>963.9</ele>
        <time>2022-08-14T11:23:05Z</time>
      </trkpt>
      <trkpt lat="42.0981850" lon="-2.3367560">
        <ele>963.4</ele>
        <time>2022-08-14T11:23:07Z</time>
      </trkpt>
      <trkpt lat="42.0983580" lon="-2.3367690">
        <ele>963.2</ele>
        <time>2022-08-14T11:23:09Z</time>
      </trkpt>
      <trkpt lat="42.0986570" lon="-2.3368070">
        <ele>962.9</ele>
        <time>2022-08-14T11:23:12Z</time>
      </trkpt>
      <trkpt lat="42.0988180" lon="-2.3368250">
        <ele>962.7</ele>
        <time>2022-08-14T11:23:14Z</time>
      </trkpt>
      <trkpt lat="42.0989680" lon="-2.3368330">
        <ele>962.5</ele>
        <time>2022-08-14T11:23:16Z</time>
      </trkpt>
      <trkpt lat="42.0991890" lon="-2.3368450">
        <ele>962.1</ele>
        <time>2022-08-14T11:23:19Z</time>
      </trkpt>
      <trkpt lat="42.0993860" lon="-2.3368630">
        <ele>961.7</ele>
        <time>2022-08-14T11:23:22Z</time>
      </trkpt>
      <trkpt lat="42.0995010" lon="-2.3368780">
        <ele>961.6</ele>
        <time>2022-08-14T11:23:24Z</time>
      </trkpt>
      <trkpt lat="42.0995900" lon="-2.3368900">
        <ele>961.5</ele>
        <time>2022-08-14T11:23:26Z</time>
      </trkpt>
      <trkpt lat="42.0996430" lon="-2.3369000">
        <ele>961.5</ele>
        <time>2022-08-14T11:23:27Z</time>
      </trkpt>
      <trkpt lat="42.0997010" lon="-2.3369070">
        <ele>961.5</ele>
        <time>2022-08-14T11:23:28Z</time>
      </trkpt>
      <trkpt lat="42.0998930" lon="-2.3369110">
        <ele>961.2</ele>
        <time>2022-08-14T11:23:32Z</time>
      </trkpt>
      <trkpt lat="42.0999510" lon="-2.3369100">
        <ele>961.1</ele>
        <time>2022-08-14T11:23:33Z</time>
      </trkpt>
      <trkpt lat="42.1000050" lon="-2.3369090">
        <ele>961.0</ele>
        <time>2022-08-14T11:23:34Z</time>
      </trkpt>
      <trkpt lat="42.1000550" lon="-2.3369210">
        <ele>960.8</ele>
        <time>2022-08-14T11:23:35Z</time>
      </trkpt>
      <trkpt lat="42.1002160" lon="-2.3369330">
        <ele>960.5</ele>
        <time>2022-08-14T11:23:38Z</time>
      </trkpt>
      <trkpt lat="42.1002710" lon="-2.3369380">
        <ele>960.4</ele>
        <time>2022-08-14T11:23:39Z</time>
      </trkpt>
      <trkpt lat="42.1004900" lon="-2.3369210">
        <ele>960.0</ele>
        <time>2022-08-14T11:23:43Z</time>
      </trkpt>
      <trkpt lat="42.1005420" lon="-2.3369080">
        <ele>959.9</ele>
        <time>2022-08-14T11:23:44Z</time>
      </trkpt>
      <trkpt lat="42.1006520" lon="-2.3369020">
        <ele>959.7</ele>
        <time>2022-08-14T11:23:46Z</time>
      </trkpt>
      <trkpt lat="42.1007580" lon="-2.3369070">
        <ele>959.5</ele>
        <time>2022-08-14T11:23:48Z</time>
      </trkpt>
      <trkpt lat="42.1008110" lon="-2.3369140">
        <ele>959.4</ele>
        <time>2022-08-14T11:23:49Z</time>
      </trkpt>
      <trkpt lat="42.1008630" lon="-2.3369220">
        <ele>959.3</ele>
        <time>2022-08-14T11:23:50Z</time>
      </trkpt>
      <trkpt lat="42.1012320" lon="-2.3370030">
        <ele>959.1</ele>
        <time>2022-08-14T11:23:56Z</time>
      </trkpt>
      <trkpt lat="42.1012800" lon="-2.3370210">
        <ele>959.1</ele>
        <time>2022-08-14T11:23:58Z</time>
      </trkpt>
      <trkpt lat="42.1013850" lon="-2.3370470">
        <ele>959.1</ele>
        <time>2022-08-14T11:24:00Z</time>
      </trkpt>
      <trkpt lat="42.1014780" lon="-2.3370740">
        <ele>959.1</ele>
        <time>2022-08-14T11:24:02Z</time>
      </trkpt>
      <trkpt lat="42.1015240" lon="-2.3370820">
        <ele>959.1</ele>
        <time>2022-08-14T11:24:03Z</time>
      </trkpt>
      <trkpt lat="42.1016670" lon="-2.3371280">
        <ele>959.2</ele>
        <time>2022-08-14T11:24:05Z</time>
      </trkpt>
      <trkpt lat="42.1017190" lon="-2.3371430">
        <ele>959.2</ele>
        <time>2022-08-14T11:24:07Z</time>
      </trkpt>
      <trkpt lat="42.1018180" lon="-2.3371710">
        <ele>959.2</ele>
        <time>2022-08-14T11:24:08Z</time>
      </trkpt>
      <trkpt lat="42.1019920" lon="-2.3372850">
        <ele>959.2</ele>
        <time>2022-08-14T11:24:12Z</time>
      </trkpt>
      <trkpt lat="42.1020900" lon="-2.3373520">
        <ele>959.3</ele>
        <time>2022-08-14T11:24:15Z</time>
      </trkpt>
      <trkpt lat="42.1023250" lon="-2.3375200">
        <ele>959.6</ele>
        <time>2022-08-14T11:24:20Z</time>
      </trkpt>
      <trkpt lat="42.1023660" lon="-2.3375510">
        <ele>959.7</ele>
        <time>2022-08-14T11:24:21Z</time>
      </trkpt>
      <trkpt lat="42.1024400" lon="-2.3376040">
        <ele>959.9</ele>
        <time>2022-08-14T11:24:24Z</time>
      </trkpt>
      <trkpt lat="42.1024830" lon="-2.3376290">
        <ele>960.0</ele>
        <time>2022-08-14T11:24:25Z</time>
      </trkpt>
      <trkpt lat="42.1026290" lon="-2.3376600">
        <ele>960.4</ele>
        <time>2022-08-14T11:24:27Z</time>
      </trkpt>
      <trkpt lat="42.1027180" lon="-2.3376560">
        <ele>960.7</ele>
        <time>2022-08-14T11:24:29Z</time>
      </trkpt>
      <trkpt lat="42.1028050" lon="-2.3376370">
        <ele>961.0</ele>
        <time>2022-08-14T11:24:31Z</time>
      </trkpt>
      <trkpt lat="42.1028470" lon="-2.3376200">
        <ele>961.1</ele>
        <time>2022-08-14T11:24:33Z</time>
      </trkpt>
      <trkpt lat="42.1029320" lon="-2.3375860">
        <ele>961.4</ele>
        <time>2022-08-14T11:24:35Z</time>
      </trkpt>
      <trkpt lat="42.1029690" lon="-2.3375620">
        <ele>961.5</ele>
        <time>2022-08-14T11:24:36Z</time>
      </trkpt>
      <trkpt lat="42.1030470" lon="-2.3375100">
        <ele>961.7</ele>
        <time>2022-08-14T11:24:37Z</time>
      </trkpt>
      <trkpt lat="42.1031950" lon="-2.3374060">
        <ele>961.7</ele>
        <time>2022-08-14T11:24:41Z</time>
      </trkpt>
      <trkpt lat="42.1032790" lon="-2.3373560">
        <ele>961.6</ele>
        <time>2022-08-14T11:24:43Z</time>
      </trkpt>
      <trkpt lat="42.1034550" lon="-2.3372370">
        <ele>961.2</ele>
        <time>2022-08-14T11:24:47Z</time>
      </trkpt>
      <trkpt lat="42.1038040" lon="-2.3369880">
        <ele>959.9</ele>
        <time>2022-08-14T11:24:54Z</time>
      </trkpt>
      <trkpt lat="42.1039690" lon="-2.3368630">
        <ele>959.0</ele>
        <time>2022-08-14T11:24:57Z</time>
      </trkpt>
      <trkpt lat="42.1040900" lon="-2.3367760">
        <ele>958.3</ele>
        <time>2022-08-14T11:24:59Z</time>
      </trkpt>
      <trkpt lat="42.1041470" lon="-2.3367210">
        <ele>958.0</ele>
        <time>2022-08-14T11:25:00Z</time>
      </trkpt>
      <trkpt lat="42.1042410" lon="-2.3365810">
        <ele>957.3</ele>
        <time>2022-08-14T11:25:02Z</time>
      </trkpt>
      <trkpt lat="42.1043130" lon="-2.3364430">
        <ele>956.8</ele>
        <time>2022-08-14T11:25:04Z</time>
      </trkpt>
      <trkpt lat="42.1043910" lon="-2.3363490">
        <ele>956.4</ele>
        <time>2022-08-14T11:25:06Z</time>
      </trkpt>
      <trkpt lat="42.1044320" lon="-2.3363310">
        <ele>956.2</ele>
        <time>2022-08-14T11:25:07Z</time>
      </trkpt>
      <trkpt lat="42.1045060" lon="-2.3363040">
        <ele>955.8</ele>
        <time>2022-08-14T11:25:09Z</time>
      </trkpt>
      <trkpt lat="42.1046180" lon="-2.3362600">
        <ele>955.1</ele>
        <time>2022-08-14T11:25:12Z</time>
      </trkpt>
      <trkpt lat="42.1046560" lon="-2.3362370">
        <ele>954.9</ele>
        <time>2022-08-14T11:25:13Z</time>
      </trkpt>
      <trkpt lat="42.1046930" lon="-2.3361900">
        <ele>954.6</ele>
        <time>2022-08-14T11:25:14Z</time>
      </trkpt>
      <trkpt lat="42.1047300" lon="-2.3361300">
        <ele>954.3</ele>
        <time>2022-08-14T11:25:15Z</time>
      </trkpt>
      <trkpt lat="42.1047680" lon="-2.3360640">
        <ele>954.0</ele>
        <time>2022-08-14T11:25:16Z</time>
      </trkpt>
      <trkpt lat="42.1048040" lon="-2.3359960">
        <ele>953.7</ele>
        <time>2022-08-14T11:25:17Z</time>
      </trkpt>
      <trkpt lat="42.1048650" lon="-2.3358500">
        <ele>953.2</ele>
        <time>2022-08-14T11:25:19Z</time>
      </trkpt>
      <trkpt lat="42.1048910" lon="-2.3357690">
        <ele>952.9</ele>
        <time>2022-08-14T11:25:20Z</time>
      </trkpt>
      <trkpt lat="42.1049160" lon="-2.3356860">
        <ele>952.7</ele>
        <time>2022-08-14T11:25:21Z</time>
      </trkpt>
      <trkpt lat="42.1049390" lon="-2.3356020">
        <ele>952.5</ele>
        <time>2022-08-14T11:25:22Z</time>
      </trkpt>
      <trkpt lat="42.1049570" lon="-2.3355260">
        <ele>952.4</ele>
        <time>2022-08-14T11:25:23Z</time>
      </trkpt>
      <trkpt lat="42.1049700" lon="-2.3354560">
        <ele>952.2</ele>
        <time>2022-08-14T11:25:24Z</time>
      </trkpt>
      <trkpt lat="42.1049880" lon="-2.3353160">
        <ele>951.9</ele>
        <time>2022-08-14T11:25:26Z</time>
      </trkpt>
      <trkpt lat="42.1050020" lon="-2.3351630">
        <ele>951.6</ele>
        <time>2022-08-14T11:25:28Z</time>
      </trkpt>
      <trkpt lat="42.1050120" lon="-2.3350720">
        <ele>951.4</ele>
        <time>2022-08-14T11:25:29Z</time>
      </trkpt>
      <trkpt lat="42.1050230" lon="-2.3349790">
        <ele>951.3</ele>
        <time>2022-08-14T11:25:30Z</time>
      </trkpt>
      <trkpt lat="42.1050210" lon="-2.3348930">
        <ele>951.1</ele>
        <time>2022-08-14T11:25:31Z</time>
      </trkpt>
      <trkpt lat="42.1050150" lon="-2.3348120">
        <ele>950.9</ele>
        <time>2022-08-14T11:25:32Z</time>
      </trkpt>
      <trkpt lat="42.1049850" lon="-2.3347310">
        <ele>950.7</ele>
        <time>2022-08-14T11:25:33Z</time>
      </trkpt>
      <trkpt lat="42.1049550" lon="-2.3346510">
        <ele>950.5</ele>
        <time>2022-08-14T11:25:34Z</time>
      </trkpt>
      <trkpt lat="42.1048960" lon="-2.3344950">
        <ele>950.2</ele>
        <time>2022-08-14T11:25:36Z</time>
      </trkpt>
      <trkpt lat="42.1048070" lon="-2.3343650">
        <ele>949.9</ele>
        <time>2022-08-14T11:25:38Z</time>
      </trkpt>
      <trkpt lat="42.1047570" lon="-2.3343090">
        <ele>949.8</ele>
        <time>2022-08-14T11:25:39Z</time>
      </trkpt>
      <trkpt lat="42.1046560" lon="-2.3342130">
        <ele>949.6</ele>
        <time>2022-08-14T11:25:41Z</time>
      </trkpt>
      <trkpt lat="42.1044970" lon="-2.3340980">
        <ele>949.3</ele>
        <time>2022-08-14T11:25:44Z</time>
      </trkpt>
      <trkpt lat="42.1043170" lon="-2.3338600">
        <ele>948.9</ele>
        <time>2022-08-14T11:25:48Z</time>
      </trkpt>
      <trkpt lat="42.1042770" lon="-2.3337930">
        <ele>948.8</ele>
        <time>2022-08-14T11:25:49Z</time>
      </trkpt>
      <trkpt lat="42.1042480" lon="-2.3337170">
        <ele>948.7</ele>
        <time>2022-08-14T11:25:50Z</time>
      </trkpt>
      <trkpt lat="42.1042000" lon="-2.3335530">
        <ele>948.6</ele>
        <time>2022-08-14T11:25:52Z</time>
      </trkpt>
      <trkpt lat="42.1041820" lon="-2.3334690">
        <ele>948.5</ele>
        <time>2022-08-14T11:25:53Z</time>
      </trkpt>
      <trkpt lat="42.1041740" lon="-2.3333750">
        <ele>948.4</ele>
        <time>2022-08-14T11:25:54Z</time>
      </trkpt>
      <trkpt lat="42.1041560" lon="-2.3331820">
        <ele>948.1</ele>
        <time>2022-08-14T11:25:56Z</time>
      </trkpt>
      <trkpt lat="42.1041300" lon="-2.3329710">
        <ele>947.8</ele>
        <time>2022-08-14T11:25:58Z</time>
      </trkpt>
      <trkpt lat="42.1042070" lon="-2.3327750">
        <ele>947.4</ele>
        <time>2022-08-14T11:26:00Z</time>
      </trkpt>
      <trkpt lat="42.1043450" lon="-2.3327190">
        <ele>947.0</ele>
        <time>2022-08-14T11:26:01Z</time>
      </trkpt>
      <trkpt lat="42.1044460" lon="-2.3326070">
        <ele>946.5</ele>
        <time>2022-08-14T11:26:03Z</time>
      </trkpt>
      <trkpt lat="42.1045390" lon="-2.3323840">
        <ele>945.9</ele>
        <time>2022-08-14T11:26:06Z</time>
      </trkpt>
      <trkpt lat="42.1046420" lon="-2.3322690">
        <ele>945.5</ele>
        <time>2022-08-14T11:26:08Z</time>
      </trkpt>
      <trkpt lat="42.1047460" lon="-2.3321450">
        <ele>945.2</ele>
        <time>2022-08-14T11:26:10Z</time>
      </trkpt>
      <trkpt lat="42.1047980" lon="-2.3320870">
        <ele>945.1</ele>
        <time>2022-08-14T11:26:11Z</time>
      </trkpt>
      <trkpt lat="42.1048490" lon="-2.3320310">
        <ele>945.0</ele>
        <time>2022-08-14T11:26:12Z</time>
      </trkpt>
      <trkpt lat="42.1048980" lon="-2.3319750">
        <ele>944.8</ele>
        <time>2022-08-14T11:26:13Z</time>
      </trkpt>
      <trkpt lat="42.1049910" lon="-2.3318650">
        <ele>944.6</ele>
        <time>2022-08-14T11:26:15Z</time>
      </trkpt>
      <trkpt lat="42.1050360" lon="-2.3318050">
        <ele>944.4</ele>
        <time>2022-08-14T11:26:16Z</time>
      </trkpt>
      <trkpt lat="42.1051660" lon="-2.3316270">
        <ele>944.1</ele>
        <time>2022-08-14T11:26:19Z</time>
      </trkpt>
      <trkpt lat="42.1052500" lon="-2.3315080">
        <ele>943.9</ele>
        <time>2022-08-14T11:26:21Z</time>
      </trkpt>
      <trkpt lat="42.1053310" lon="-2.3313800">
        <ele>943.6</ele>
        <time>2022-08-14T11:26:23Z</time>
      </trkpt>
      <trkpt lat="42.1054560" lon="-2.3311810">
        <ele>943.3</ele>
        <time>2022-08-14T11:26:26Z</time>
      </trkpt>
      <trkpt lat="42.1055430" lon="-2.3310620">
        <ele>943.1</ele>
        <time>2022-08-14T11:26:28Z</time>
      </trkpt>
      <trkpt lat="42.1055890" lon="-2.3310060">
        <ele>943.0</ele>
        <time>2022-08-14T11:26:29Z</time>
      </trkpt>
      <trkpt lat="42.1056950" lon="-2.3309030">
        <ele>942.8</ele>
        <time>2022-08-14T11:26:31Z</time>
      </trkpt>
      <trkpt lat="42.1058730" lon="-2.3307590">
        <ele>942.6</ele>
        <time>2022-08-14T11:26:34Z</time>
      </trkpt>
      <trkpt lat="42.1061000" lon="-2.3305620">
        <ele>942.5</ele>
        <time>2022-08-14T11:26:38Z</time>
      </trkpt>
      <trkpt lat="42.1063250" lon="-2.3303830">
        <ele>942.4</ele>
        <time>2022-08-14T11:26:42Z</time>
      </trkpt>
      <trkpt lat="42.1063790" lon="-2.3303430">
        <ele>942.4</ele>
        <time>2022-08-14T11:26:43Z</time>
      </trkpt>
      <trkpt lat="42.1067340" lon="-2.3300210">
        <ele>942.4</ele>
        <time>2022-08-14T11:26:50Z</time>
      </trkpt>
      <trkpt lat="42.1068860" lon="-2.3297950">
        <ele>942.1</ele>
        <time>2022-08-14T11:26:54Z</time>
      </trkpt>
      <trkpt lat="42.1069570" lon="-2.3296760">
        <ele>942.0</ele>
        <time>2022-08-14T11:26:56Z</time>
      </trkpt>
      <trkpt lat="42.1070640" lon="-2.3294930">
        <ele>941.8</ele>
        <time>2022-08-14T11:26:59Z</time>
      </trkpt>
      <trkpt lat="42.1072050" lon="-2.3292430">
        <ele>941.7</ele>
        <time>2022-08-14T11:27:03Z</time>
      </trkpt>
      <trkpt lat="42.1073020" lon="-2.3290480">
        <ele>941.6</ele>
        <time>2022-08-14T11:27:06Z</time>
      </trkpt>
      <trkpt lat="42.1073330" lon="-2.3289790">
        <ele>941.6</ele>
        <time>2022-08-14T11:27:07Z</time>
      </trkpt>
      <trkpt lat="42.1073900" lon="-2.3288530">
        <ele>941.5</ele>
        <time>2022-08-14T11:27:09Z</time>
      </trkpt>
      <trkpt lat="42.1074740" lon="-2.3286620">
        <ele>941.4</ele>
        <time>2022-08-14T11:27:12Z</time>
      </trkpt>
      <trkpt lat="42.1075580" lon="-2.3284720">
        <ele>941.4</ele>
        <time>2022-08-14T11:27:15Z</time>
      </trkpt>
      <trkpt lat="42.1076320" lon="-2.3282770">
        <ele>941.3</ele>
        <time>2022-08-14T11:27:18Z</time>
      </trkpt>
      <trkpt lat="42.1077990" lon="-2.3278240">
        <ele>941.2</ele>
        <time>2022-08-14T11:27:25Z</time>
      </trkpt>
      <trkpt lat="42.1078200" lon="-2.3277600">
        <ele>941.2</ele>
        <time>2022-08-14T11:27:26Z</time>
      </trkpt>
      <trkpt lat="42.1078980" lon="-2.3274980">
        <ele>941.1</ele>
        <time>2022-08-14T11:27:30Z</time>
      </trkpt>
      <trkpt lat="42.1079090" lon="-2.3273610">
        <ele>941.0</ele>
        <time>2022-08-14T11:27:32Z</time>
      </trkpt>
      <trkpt lat="42.1078650" lon="-2.3269360">
        <ele>940.6</ele>
        <time>2022-08-14T11:27:38Z</time>
      </trkpt>
      <trkpt lat="42.1077960" lon="-2.3267970">
        <ele>940.4</ele>
        <time>2022-08-14T11:27:40Z</time>
      </trkpt>
      <trkpt lat="42.1077540" lon="-2.3267430">
        <ele>940.3</ele>
        <time>2022-08-14T11:27:41Z</time>
      </trkpt>
      <trkpt lat="42.1077140" lon="-2.3267110">
        <ele>940.3</ele>
        <time>2022-08-14T11:27:42Z</time>
      </trkpt>
      <trkpt lat="42.1076110" lon="-2.3266460">
        <ele>940.1</ele>
        <time>2022-08-14T11:27:44Z</time>
      </trkpt>
      <trkpt lat="42.1075620" lon="-2.3266160">
        <ele>940.0</ele>
        <time>2022-08-14T11:27:45Z</time>
      </trkpt>
      <trkpt lat="42.1073940" lon="-2.3265260">
        <ele>939.8</ele>
        <time>2022-08-14T11:27:48Z</time>
      </trkpt>
      <trkpt lat="42.1073330" lon="-2.3264940">
        <ele>939.8</ele>
        <time>2022-08-14T11:27:49Z</time>
      </trkpt>
      <trkpt lat="42.1072050" lon="-2.3264200">
        <ele>939.7</ele>
        <time>2022-08-14T11:27:51Z</time>
      </trkpt>
      <trkpt lat="42.1069060" lon="-2.3261740">
        <ele>939.7</ele>
        <time>2022-08-14T11:27:57Z</time>
      </trkpt>
      <trkpt lat="42.1068110" lon="-2.3260950">
        <ele>939.7</ele>
        <time>2022-08-14T11:27:59Z</time>
      </trkpt>
      <trkpt lat="42.1065780" lon="-2.3259110">
        <ele>939.5</ele>
        <time>2022-08-14T11:28:04Z</time>
      </trkpt>
      <trkpt lat="42.1061770" lon="-2.3255910">
        <ele>938.5</ele>
        <time>2022-08-14T11:28:12Z</time>
      </trkpt>
      <trkpt lat="42.1060940" lon="-2.3254740">
        <ele>938.3</ele>
        <time>2022-08-14T11:28:14Z</time>
      </trkpt>
      <trkpt lat="42.1060540" lon="-2.3254120">
        <ele>938.1</ele>
        <time>2022-08-14T11:28:15Z</time>
      </trkpt>
      <trkpt lat="42.1060170" lon="-2.3253430">
        <ele>938.0</ele>
        <time>2022-08-14T11:28:16Z</time>
      </trkpt>
      <trkpt lat="42.1059880" lon="-2.3252650">
        <ele>937.8</ele>
        <time>2022-08-14T11:28:17Z</time>
      </trkpt>
      <trkpt lat="42.1059670" lon="-2.3251820">
        <ele>937.6</ele>
        <time>2022-08-14T11:28:18Z</time>
      </trkpt>
      <trkpt lat="42.1059360" lon="-2.3249370">
        <ele>937.2</ele>
        <time>2022-08-14T11:28:21Z</time>
      </trkpt>
      <trkpt lat="42.1059430" lon="-2.3247680">
        <ele>936.9</ele>
        <time>2022-08-14T11:28:23Z</time>
      </trkpt>
      <trkpt lat="42.1059600" lon="-2.3245010">
        <ele>936.3</ele>
        <time>2022-08-14T11:28:26Z</time>
      </trkpt>
      <trkpt lat="42.1059670" lon="-2.3244030">
        <ele>936.0</ele>
        <time>2022-08-14T11:28:27Z</time>
      </trkpt>
      <trkpt lat="42.1059750" lon="-2.3242090">
        <ele>935.6</ele>
        <time>2022-08-14T11:28:29Z</time>
      </trkpt>
      <trkpt lat="42.1059710" lon="-2.3239480">
        <ele>935.1</ele>
        <time>2022-08-14T11:28:32Z</time>
      </trkpt>
      <trkpt lat="42.1059630" lon="-2.3238660">
        <ele>934.9</ele>
        <time>2022-08-14T11:28:33Z</time>
      </trkpt>
      <trkpt lat="42.1059580" lon="-2.3237890">
        <ele>934.8</ele>
        <time>2022-08-14T11:28:34Z</time>
      </trkpt>
      <trkpt lat="42.1059570" lon="-2.3236390">
        <ele>934.4</ele>
        <time>2022-08-14T11:28:36Z</time>
      </trkpt>
      <trkpt lat="42.1059810" lon="-2.3234820">
        <ele>933.9</ele>
        <time>2022-08-14T11:28:38Z</time>
      </trkpt>
      <trkpt lat="42.1060070" lon="-2.3234040">
        <ele>933.7</ele>
        <time>2022-08-14T11:28:39Z</time>
      </trkpt>
      <trkpt lat="42.1060440" lon="-2.3233300">
        <ele>933.5</ele>
        <time>2022-08-14T11:28:40Z</time>
      </trkpt>
      <trkpt lat="42.1061440" lon="-2.3232020">
        <ele>932.9</ele>
        <time>2022-08-14T11:28:42Z</time>
      </trkpt>
      <trkpt lat="42.1063350" lon="-2.3230530">
        <ele>932.2</ele>
        <time>2022-08-14T11:28:45Z</time>
      </trkpt>
      <trkpt lat="42.1064030" lon="-2.3230090">
        <ele>932.0</ele>
        <time>2022-08-14T11:28:46Z</time>
      </trkpt>
      <trkpt lat="42.1064700" lon="-2.3229650">
        <ele>931.7</ele>
        <time>2022-08-14T11:28:47Z</time>
      </trkpt>
      <trkpt lat="42.1067440" lon="-2.3227800">
        <ele>930.7</ele>
        <time>2022-08-14T11:28:51Z</time>
      </trkpt>
      <trkpt lat="42.1068840" lon="-2.3226860">
        <ele>930.3</ele>
        <time>2022-08-14T11:28:53Z</time>
      </trkpt>
      <trkpt lat="42.1070170" lon="-2.3225860">
        <ele>929.8</ele>
        <time>2022-08-14T11:28:55Z</time>
      </trkpt>
      <trkpt lat="42.1070770" lon="-2.3225270">
        <ele>929.6</ele>
        <time>2022-08-14T11:28:56Z</time>
      </trkpt>
      <trkpt lat="42.1071340" lon="-2.3224590">
        <ele>929.3</ele>
        <time>2022-08-14T11:28:57Z</time>
      </trkpt>
      <trkpt lat="42.1072810" lon="-2.3222230">
        <ele>928.8</ele>
        <time>2022-08-14T11:29:00Z</time>
      </trkpt>
      <trkpt lat="42.1073180" lon="-2.3221400">
        <ele>928.6</ele>
        <time>2022-08-14T11:29:01Z</time>
      </trkpt>
      <trkpt lat="42.1073460" lon="-2.3220500">
        <ele>928.5</ele>
        <time>2022-08-14T11:29:02Z</time>
      </trkpt>
      <trkpt lat="42.1073660" lon="-2.3219580">
        <ele>928.4</ele>
        <time>2022-08-14T11:29:03Z</time>
      </trkpt>
      <trkpt lat="42.1073790" lon="-2.3218590">
        <ele>928.3</ele>
        <time>2022-08-14T11:29:04Z</time>
      </trkpt>
      <trkpt lat="42.1073790" lon="-2.3217590">
        <ele>928.1</ele>
        <time>2022-08-14T11:29:05Z</time>
      </trkpt>
      <trkpt lat="42.1073680" lon="-2.3216600">
        <ele>928.0</ele>
        <time>2022-08-14T11:29:06Z</time>
      </trkpt>
      <trkpt lat="42.1073440" lon="-2.3215660">
        <ele>927.9</ele>
        <time>2022-08-14T11:29:07Z</time>
      </trkpt>
      <trkpt lat="42.1072710" lon="-2.3213820">
        <ele>927.7</ele>
        <time>2022-08-14T11:29:09Z</time>
      </trkpt>
      <trkpt lat="42.1071780" lon="-2.3211340">
        <ele>927.7</ele>
        <time>2022-08-14T11:29:12Z</time>
      </trkpt>
      <trkpt lat="42.1071610" lon="-2.3210860">
        <ele>927.7</ele>
        <time>2022-08-14T11:29:13Z</time>
      </trkpt>
      <trkpt lat="42.1071380" lon="-2.3210110">
        <ele>927.8</ele>
        <time>2022-08-14T11:29:14Z</time>
      </trkpt>
      <trkpt lat="42.1070860" lon="-2.3207590">
        <ele>928.2</ele>
        <time>2022-08-14T11:29:17Z</time>
      </trkpt>
      <trkpt lat="42.1070960" lon="-2.3206910">
        <ele>928.3</ele>
        <time>2022-08-14T11:29:18Z</time>
      </trkpt>
      <trkpt lat="42.1071240" lon="-2.3206230">
        <ele>928.3</ele>
        <time>2022-08-14T11:29:19Z</time>
      </trkpt>
      <trkpt lat="42.1071970" lon="-2.3205460">
        <ele>928.2</ele>
        <time>2022-08-14T11:29:21Z</time>
      </trkpt>
      <trkpt lat="42.1072440" lon="-2.3205430">
        <ele>928.1</ele>
        <time>2022-08-14T11:29:22Z</time>
      </trkpt>
      <trkpt lat="42.1073000" lon="-2.3205570">
        <ele>928.0</ele>
        <time>2022-08-14T11:29:23Z</time>
      </trkpt>
      <trkpt lat="42.1073560" lon="-2.3205770">
        <ele>927.9</ele>
        <time>2022-08-14T11:29:24Z</time>
      </trkpt>
      <trkpt lat="42.1074640" lon="-2.3206220">
        <ele>927.6</ele>
        <time>2022-08-14T11:29:26Z</time>
      </trkpt>
      <trkpt lat="42.1075200" lon="-2.3206460">
        <ele>927.4</ele>
        <time>2022-08-14T11:29:27Z</time>
      </trkpt>
      <trkpt lat="42.1079820" lon="-2.3208630">
        <ele>925.9</ele>
        <time>2022-08-14T11:29:35Z</time>
      </trkpt>
      <trkpt lat="42.1082290" lon="-2.3209580">
        <ele>924.7</ele>
        <time>2022-08-14T11:29:39Z</time>
      </trkpt>
      <trkpt lat="42.1083740" lon="-2.3209640">
        <ele>923.9</ele>
        <time>2022-08-14T11:29:41Z</time>
      </trkpt>
      <trkpt lat="42.1084470" lon="-2.3209530">
        <ele>923.4</ele>
        <time>2022-08-14T11:29:42Z</time>
      </trkpt>
      <trkpt lat="42.1086610" lon="-2.3208720">
        <ele>922.0</ele>
        <time>2022-08-14T11:29:45Z</time>
      </trkpt>
      <trkpt lat="42.1088440" lon="-2.3207060">
        <ele>920.8</ele>
        <time>2022-08-14T11:29:48Z</time>
      </trkpt>
      <trkpt lat="42.1088900" lon="-2.3206290">
        <ele>920.5</ele>
        <time>2022-08-14T11:29:49Z</time>
      </trkpt>
      <trkpt lat="42.1089270" lon="-2.3205380">
        <ele>920.1</ele>
        <time>2022-08-14T11:29:50Z</time>
      </trkpt>
      <trkpt lat="42.1089530" lon="-2.3204350">
        <ele>919.8</ele>
        <time>2022-08-14T11:29:51Z</time>
      </trkpt>
      <trkpt lat="42.1089730" lon="-2.3203320">
        <ele>919.5</ele>
        <time>2022-08-14T11:29:52Z</time>
      </trkpt>
      <trkpt lat="42.1089810" lon="-2.3202290">
        <ele>919.3</ele>
        <time>2022-08-14T11:29:53Z</time>
      </trkpt>
      <trkpt lat="42.1089780" lon="-2.3200150">
        <ele>919.1</ele>
        <time>2022-08-14T11:29:55Z</time>
      </trkpt>
      <trkpt lat="42.1089710" lon="-2.3199100">
        <ele>919.0</ele>
        <time>2022-08-14T11:29:56Z</time>
      </trkpt>
      <trkpt lat="42.1089630" lon="-2.3196040">
        <ele>919.3</ele>
        <time>2022-08-14T11:29:59Z</time>
      </trkpt>
      <trkpt lat="42.1089640" lon="-2.3194030">
        <ele>919.7</ele>
        <time>2022-08-14T11:30:01Z</time>
      </trkpt>
      <trkpt lat="42.1089650" lon="-2.3193100">
        <ele>920.0</ele>
        <time>2022-08-14T11:30:02Z</time>
      </trkpt>
      <trkpt lat="42.1089630" lon="-2.3191450">
        <ele>920.6</ele>
        <time>2022-08-14T11:30:04Z</time>
      </trkpt>
      <trkpt lat="42.1089560" lon="-2.3189240">
        <ele>921.6</ele>
        <time>2022-08-14T11:30:07Z</time>
      </trkpt>
      <trkpt lat="42.1089500" lon="-2.3188010">
        <ele>922.1</ele>
        <time>2022-08-14T11:30:09Z</time>
      </trkpt>
      <trkpt lat="42.1089410" lon="-2.3186960">
        <ele>922.5</ele>
        <time>2022-08-14T11:30:11Z</time>
      </trkpt>
      <trkpt lat="42.1089340" lon="-2.3186470">
        <ele>922.7</ele>
        <time>2022-08-14T11:30:12Z</time>
      </trkpt>
      <trkpt lat="42.1089260" lon="-2.3185560">
        <ele>923.1</ele>
        <time>2022-08-14T11:30:14Z</time>
      </trkpt>
      <trkpt lat="42.1089330" lon="-2.3184570">
        <ele>923.4</ele>
        <time>2022-08-14T11:30:16Z</time>
      </trkpt>
      <trkpt lat="42.1089530" lon="-2.3183490">
        <ele>923.7</ele>
        <time>2022-08-14T11:30:18Z</time>
      </trkpt>
      <trkpt lat="42.1089880" lon="-2.3182390">
        <ele>923.9</ele>
        <time>2022-08-14T11:30:20Z</time>
      </trkpt>
      <trkpt lat="42.1090100" lon="-2.3181830">
        <ele>924.1</ele>
        <time>2022-08-14T11:30:21Z</time>
      </trkpt>
      <trkpt lat="42.1090800" lon="-2.3180230">
        <ele>924.3</ele>
        <time>2022-08-14T11:30:24Z</time>
      </trkpt>
      <trkpt lat="42.1093230" lon="-2.3176790">
        <ele>924.7</ele>
        <time>2022-08-14T11:30:32Z</time>
      </trkpt>
      <trkpt lat="42.1093980" lon="-2.3176110">
        <ele>924.7</ele>
        <time>2022-08-14T11:30:34Z</time>
      </trkpt>
      <trkpt lat="42.1094890" lon="-2.3175590">
        <ele>924.7</ele>
        <time>2022-08-14T11:30:36Z</time>
      </trkpt>
      <trkpt lat="42.1095860" lon="-2.3175360">
        <ele>924.6</ele>
        <time>2022-08-14T11:30:38Z</time>
      </trkpt>
      <trkpt lat="42.1098550" lon="-2.3175170">
        <ele>924.1</ele>
        <time>2022-08-14T11:30:43Z</time>
      </trkpt>
      <trkpt lat="42.1099090" lon="-2.3175230">
        <ele>924.0</ele>
        <time>2022-08-14T11:30:44Z</time>
      </trkpt>
      <trkpt lat="42.1100760" lon="-2.3175660">
        <ele>923.5</ele>
        <time>2022-08-14T11:30:47Z</time>
      </trkpt>
      <trkpt lat="42.1102370" lon="-2.3176380">
        <ele>923.0</ele>
        <time>2022-08-14T11:30:50Z</time>
      </trkpt>
      <trkpt lat="42.1103440" lon="-2.3177010">
        <ele>922.7</ele>
        <time>2022-08-14T11:30:52Z</time>
      </trkpt>
      <trkpt lat="42.1105190" lon="-2.3177890">
        <ele>922.0</ele>
        <time>2022-08-14T11:30:55Z</time>
      </trkpt>
      <trkpt lat="42.1106470" lon="-2.3178360">
        <ele>921.4</ele>
        <time>2022-08-14T11:30:57Z</time>
      </trkpt>
      <trkpt lat="42.1109180" lon="-2.3178870">
        <ele>920.3</ele>
        <time>2022-08-14T11:31:01Z</time>
      </trkpt>
      <trkpt lat="42.1109880" lon="-2.3178940">
        <ele>920.0</ele>
        <time>2022-08-14T11:31:02Z</time>
      </trkpt>
      <trkpt lat="42.1111940" lon="-2.3178960">
        <ele>918.9</ele>
        <time>2022-08-14T11:31:05Z</time>
      </trkpt>
      <trkpt lat="42.1112650" lon="-2.3178870">
        <ele>918.5</ele>
        <time>2022-08-14T11:31:06Z</time>
      </trkpt>
      <trkpt lat="42.1113350" lon="-2.3178640">
        <ele>918.1</ele>
        <time>2022-08-14T11:31:07Z</time>
      </trkpt>
      <trkpt lat="42.1114020" lon="-2.3178310">
        <ele>917.6</ele>
        <time>2022-08-14T11:31:08Z</time>
      </trkpt>
      <trkpt lat="42.1114720" lon="-2.3177900">
        <ele>917.2</ele>
        <time>2022-08-14T11:31:09Z</time>
      </trkpt>
      <trkpt lat="42.1115420" lon="-2.3177440">
        <ele>916.7</ele>
        <time>2022-08-14T11:31:10Z</time>
      </trkpt>
      <trkpt lat="42.1116770" lon="-2.3176240">
        <ele>915.7</ele>
        <time>2022-08-14T11:31:12Z</time>
      </trkpt>
      <trkpt lat="42.1117410" lon="-2.3175520">
        <ele>915.2</ele>
        <time>2022-08-14T11:31:13Z</time>
      </trkpt>
      <trkpt lat="42.1118040" lon="-2.3174720">
        <ele>914.7</ele>
        <time>2022-08-14T11:31:15Z</time>
      </trkpt>
      <trkpt lat="42.1119170" lon="-2.3172920">
        <ele>913.7</ele>
        <time>2022-08-14T11:31:16Z</time>
      </trkpt>
      <trkpt lat="42.1119600" lon="-2.3171880">
        <ele>913.2</ele>
        <time>2022-08-14T11:31:17Z</time>
      </trkpt>
      <trkpt lat="42.1119960" lon="-2.3170680">
        <ele>912.6</ele>
        <time>2022-08-14T11:31:18Z</time>
      </trkpt>
      <trkpt lat="42.1120300" lon="-2.3169480">
        <ele>912.1</ele>
        <time>2022-08-14T11:31:19Z</time>
      </trkpt>
      <trkpt lat="42.1120670" lon="-2.3168310">
        <ele>911.7</ele>
        <time>2022-08-14T11:31:20Z</time>
      </trkpt>
      <trkpt lat="42.1121010" lon="-2.3167120">
        <ele>911.2</ele>
        <time>2022-08-14T11:31:21Z</time>
      </trkpt>
      <trkpt lat="42.1121680" lon="-2.3164660">
        <ele>910.2</ele>
        <time>2022-08-14T11:31:23Z</time>
      </trkpt>
      <trkpt lat="42.1122760" lon="-2.3160970">
        <ele>908.9</ele>
        <time>2022-08-14T11:31:26Z</time>
      </trkpt>
      <trkpt lat="42.1123060" lon="-2.3159770">
        <ele>908.5</ele>
        <time>2022-08-14T11:31:27Z</time>
      </trkpt>
      <trkpt lat="42.1123370" lon="-2.3158660">
        <ele>908.2</ele>
        <time>2022-08-14T11:31:28Z</time>
      </trkpt>
      <trkpt lat="42.1123940" lon="-2.3156580">
        <ele>907.7</ele>
        <time>2022-08-14T11:31:30Z</time>
      </trkpt>
      <trkpt lat="42.1124320" lon="-2.3155690">
        <ele>907.6</ele>
        <time>2022-08-14T11:31:31Z</time>
      </trkpt>
      <trkpt lat="42.1125140" lon="-2.3154390">
        <ele>907.3</ele>
        <time>2022-08-14T11:31:33Z</time>
      </trkpt>
      <trkpt lat="42.1126090" lon="-2.3153980">
        <ele>907.1</ele>
        <time>2022-08-14T11:31:35Z</time>
      </trkpt>
      <trkpt lat="42.1127680" lon="-2.3154060">
        <ele>906.7</ele>
        <time>2022-08-14T11:31:37Z</time>
      </trkpt>
      <trkpt lat="42.1128450" lon="-2.3154090">
        <ele>906.6</ele>
        <time>2022-08-14T11:31:38Z</time>
      </trkpt>
      <trkpt lat="42.1129160" lon="-2.3154080">
        <ele>906.5</ele>
        <time>2022-08-14T11:31:39Z</time>
      </trkpt>
      <trkpt lat="42.1129840" lon="-2.3154010">
        <ele>906.4</ele>
        <time>2022-08-14T11:31:40Z</time>
      </trkpt>
      <trkpt lat="42.1131210" lon="-2.3153840">
        <ele>906.2</ele>
        <time>2022-08-14T11:31:42Z</time>
      </trkpt>
      <trkpt lat="42.1132530" lon="-2.3153320">
        <ele>905.9</ele>
        <time>2022-08-14T11:31:44Z</time>
      </trkpt>
      <trkpt lat="42.1135000" lon="-2.3151860">
        <ele>905.7</ele>
        <time>2022-08-14T11:31:48Z</time>
      </trkpt>
      <trkpt lat="42.1135490" lon="-2.3151340">
        <ele>905.7</ele>
        <time>2022-08-14T11:31:49Z</time>
      </trkpt>
      <trkpt lat="42.1135950" lon="-2.3150790">
        <ele>905.7</ele>
        <time>2022-08-14T11:31:50Z</time>
      </trkpt>
      <trkpt lat="42.1136820" lon="-2.3149660">
        <ele>905.7</ele>
        <time>2022-08-14T11:31:52Z</time>
      </trkpt>
      <trkpt lat="42.1137260" lon="-2.3149150">
        <ele>905.8</ele>
        <time>2022-08-14T11:31:53Z</time>
      </trkpt>
      <trkpt lat="42.1137690" lon="-2.3148730">
        <ele>905.8</ele>
        <time>2022-08-14T11:31:54Z</time>
      </trkpt>
      <trkpt lat="42.1138140" lon="-2.3148350">
        <ele>905.8</ele>
        <time>2022-08-14T11:31:55Z</time>
      </trkpt>
      <trkpt lat="42.1139220" lon="-2.3147310">
        <ele>905.9</ele>
        <time>2022-08-14T11:31:58Z</time>
      </trkpt>
      <trkpt lat="42.1140420" lon="-2.3146480">
        <ele>907.1</ele>
        <time>2022-08-14T11:32:02Z</time>
      </trkpt>
      <trkpt lat="42.1140700" lon="-2.3146510">
        <ele>908.8</ele>
        <time>2022-08-14T11:32:03Z</time>
      </trkpt>
      <trkpt lat="42.1140960" lon="-2.3146580">
        <ele>910.4</ele>
        <time>2022-08-14T11:32:04Z</time>
      </trkpt>
      <trkpt lat="42.1141420" lon="-2.3146700">
        <ele>913.3</ele>
        <time>2022-08-14T11:32:06Z</time>
      </trkpt>
      <trkpt lat="42.1141620" lon="-2.3146850">
        <ele>914.7</ele>
        <time>2022-08-14T11:32:07Z</time>
      </trkpt>
      <trkpt lat="42.1141840" lon="-2.3147040">
        <ele>916.3</ele>
        <time>2022-08-14T11:32:08Z</time>
      </trkpt>
      <trkpt lat="42.1142060" lon="-2.3147240">
        <ele>917.9</ele>
        <time>2022-08-14T11:32:09Z</time>
      </trkpt>
      <trkpt lat="42.1142550" lon="-2.3147750">
        <ele>921.6</ele>
        <time>2022-08-14T11:32:11Z</time>
      </trkpt>
      <trkpt lat="42.1142970" lon="-2.3148210">
        <ele>925.0</ele>
        <time>2022-08-14T11:32:13Z</time>
      </trkpt>
      <trkpt lat="42.1143140" lon="-2.3148420">
        <ele>923.9</ele>
        <time>2022-08-14T11:32:15Z</time>
      </trkpt>
      <trkpt lat="42.1143140" lon="-2.3148420">
        <ele>923.9</ele>
        <time>2022-08-14T11:32:17Z</time>
      </trkpt>
      <trkpt lat="42.1143140" lon="-2.3148420">
        <ele>923.9</ele>
        <time>2022-08-14T11:32:18Z</time>
      </trkpt>
      <trkpt lat="42.1143100" lon="-2.3148300">
        <ele>923.4</ele>
        <time>2022-08-14T11:35:54Z</time>
      </trkpt>
      <trkpt lat="42.1143090" lon="-2.3148270">
        <ele>923.3</ele>
        <time>2022-08-14T11:35:56Z</time>
      </trkpt>
      <trkpt lat="42.1143070" lon="-2.3148130">
        <ele>922.7</ele>
        <time>2022-08-14T11:35:57Z</time>
      </trkpt>
      <trkpt lat="42.1142850" lon="-2.3147950">
        <ele>921.4</ele>
        <time>2022-08-14T11:35:59Z</time>
      </trkpt>
      <trkpt lat="42.1142740" lon="-2.3147850">
        <ele>920.8</ele>
        <time>2022-08-14T11:36:00Z</time>
      </trkpt>
      <trkpt lat="42.1142550" lon="-2.3147610">
        <ele>919.4</ele>
        <time>2022-08-14T11:36:02Z</time>
      </trkpt>
      <trkpt lat="42.1142410" lon="-2.3147530">
        <ele>918.7</ele>
        <time>2022-08-14T11:36:03Z</time>
      </trkpt>
      <trkpt lat="42.1142300" lon="-2.3147430">
        <ele>918.0</ele>
        <time>2022-08-14T11:36:04Z</time>
      </trkpt>
      <trkpt lat="42.1141650" lon="-2.3146890">
        <ele>914.1</ele>
        <time>2022-08-14T11:36:11Z</time>
      </trkpt>
      <trkpt lat="42.1141350" lon="-2.3146680">
        <ele>912.4</ele>
        <time>2022-08-14T11:36:14Z</time>
      </trkpt>
      <trkpt lat="42.1140930" lon="-2.3146460">
        <ele>910.1</ele>
        <time>2022-08-14T11:36:18Z</time>
      </trkpt>
      <trkpt lat="42.1140720" lon="-2.3146350">
        <ele>906.0</ele>
        <time>2022-08-14T11:36:22Z</time>
      </trkpt>
      <trkpt lat="42.1140570" lon="-2.3146160">
        <ele>906.0</ele>
        <time>2022-08-14T11:37:12Z</time>
      </trkpt>
      <trkpt lat="42.1140590" lon="-2.3146120">
        <ele>906.0</ele>
        <time>2022-08-14T11:37:13Z</time>
      </trkpt>
      <trkpt lat="42.1140760" lon="-2.3145720">
        <ele>906.0</ele>
        <time>2022-08-14T11:37:14Z</time>
      </trkpt>
      <trkpt lat="42.1141150" lon="-2.3144630">
        <ele>905.9</ele>
        <time>2022-08-14T11:37:16Z</time>
      </trkpt>
      <trkpt lat="42.1141480" lon="-2.3143490">
        <ele>905.9</ele>
        <time>2022-08-14T11:37:18Z</time>
      </trkpt>
      <trkpt lat="42.1141800" lon="-2.3142300">
        <ele>905.9</ele>
        <time>2022-08-14T11:37:20Z</time>
      </trkpt>
      <trkpt lat="42.1142190" lon="-2.3140900">
        <ele>905.9</ele>
        <time>2022-08-14T11:37:22Z</time>
      </trkpt>
      <trkpt lat="42.1142430" lon="-2.3139640">
        <ele>905.8</ele>
        <time>2022-08-14T11:37:24Z</time>
      </trkpt>
      <trkpt lat="42.1142790" lon="-2.3137770">
        <ele>905.8</ele>
        <time>2022-08-14T11:37:27Z</time>
      </trkpt>
      <trkpt lat="42.1142870" lon="-2.3136490">
        <ele>905.8</ele>
        <time>2022-08-14T11:37:29Z</time>
      </trkpt>
      <trkpt lat="42.1142900" lon="-2.3135880">
        <ele>905.8</ele>
        <time>2022-08-14T11:37:30Z</time>
      </trkpt>
      <trkpt lat="42.1142800" lon="-2.3134570">
        <ele>905.8</ele>
        <time>2022-08-14T11:37:32Z</time>
      </trkpt>
      <trkpt lat="42.1142340" lon="-2.3132630">
        <ele>905.8</ele>
        <time>2022-08-14T11:37:35Z</time>
      </trkpt>
      <trkpt lat="42.1141880" lon="-2.3130270">
        <ele>906.0</ele>
        <time>2022-08-14T11:37:39Z</time>
      </trkpt>
      <trkpt lat="42.1141480" lon="-2.3129130">
        <ele>906.0</ele>
        <time>2022-08-14T11:37:41Z</time>
      </trkpt>
      <trkpt lat="42.1141290" lon="-2.3128590">
        <ele>906.1</ele>
        <time>2022-08-14T11:37:42Z</time>
      </trkpt>
      <trkpt lat="42.1141100" lon="-2.3128040">
        <ele>906.1</ele>
        <time>2022-08-14T11:37:43Z</time>
      </trkpt>
      <trkpt lat="42.1140710" lon="-2.3126910">
        <ele>906.2</ele>
        <time>2022-08-14T11:37:45Z</time>
      </trkpt>
      <trkpt lat="42.1139240" lon="-2.3122360">
        <ele>906.8</ele>
        <time>2022-08-14T11:37:53Z</time>
      </trkpt>
      <trkpt lat="42.1138680" lon="-2.3120650">
        <ele>907.0</ele>
        <time>2022-08-14T11:37:56Z</time>
      </trkpt>
      <trkpt lat="42.1137590" lon="-2.3117170">
        <ele>907.7</ele>
        <time>2022-08-14T11:38:02Z</time>
      </trkpt>
      <trkpt lat="42.1136640" lon="-2.3112900">
        <ele>908.5</ele>
        <time>2022-08-14T11:38:09Z</time>
      </trkpt>
      <trkpt lat="42.1136600" lon="-2.3111710">
        <ele>908.8</ele>
        <time>2022-08-14T11:38:11Z</time>
      </trkpt>
      <trkpt lat="42.1136720" lon="-2.3110490">
        <ele>909.1</ele>
        <time>2022-08-14T11:38:13Z</time>
      </trkpt>
      <trkpt lat="42.1136900" lon="-2.3109370">
        <ele>909.4</ele>
        <time>2022-08-14T11:38:15Z</time>
      </trkpt>
      <trkpt lat="42.1137710" lon="-2.3106240">
        <ele>910.5</ele>
        <time>2022-08-14T11:38:22Z</time>
      </trkpt>
      <trkpt lat="42.1138860" lon="-2.3104390">
        <ele>911.2</ele>
        <time>2022-08-14T11:38:28Z</time>
      </trkpt>
      <trkpt lat="42.1139310" lon="-2.3103870">
        <ele>911.4</ele>
        <time>2022-08-14T11:38:30Z</time>
      </trkpt>
      <trkpt lat="42.1140650" lon="-2.3102820">
        <ele>911.7</ele>
        <time>2022-08-14T11:38:35Z</time>
      </trkpt>
      <trkpt lat="42.1141290" lon="-2.3102450">
        <ele>911.8</ele>
        <time>2022-08-14T11:38:37Z</time>
      </trkpt>
      <trkpt lat="42.1143280" lon="-2.3101370">
        <ele>911.8</ele>
        <time>2022-08-14T11:38:43Z</time>
      </trkpt>
      <trkpt lat="42.1144560" lon="-2.3100650">
        <ele>911.7</ele>
        <time>2022-08-14T11:38:46Z</time>
      </trkpt>
      <trkpt lat="42.1147750" lon="-2.3099070">
        <ele>910.6</ele>
        <time>2022-08-14T11:38:53Z</time>
      </trkpt>
      <trkpt lat="42.1150500" lon="-2.3097590">
        <ele>909.3</ele>
        <time>2022-08-14T11:38:58Z</time>
      </trkpt>
      <trkpt lat="42.1150970" lon="-2.3097350">
        <ele>909.0</ele>
        <time>2022-08-14T11:38:59Z</time>
      </trkpt>
      <trkpt lat="42.1152200" lon="-2.3096750">
        <ele>908.6</ele>
        <time>2022-08-14T11:39:01Z</time>
      </trkpt>
      <trkpt lat="42.1154230" lon="-2.3095720">
        <ele>907.8</ele>
        <time>2022-08-14T11:39:04Z</time>
      </trkpt>
      <trkpt lat="42.1155460" lon="-2.3095100">
        <ele>907.5</ele>
        <time>2022-08-14T11:39:06Z</time>
      </trkpt>
      <trkpt lat="42.1156070" lon="-2.3094780">
        <ele>907.3</ele>
        <time>2022-08-14T11:39:07Z</time>
      </trkpt>
      <trkpt lat="42.1156710" lon="-2.3094460">
        <ele>907.2</ele>
        <time>2022-08-14T11:39:08Z</time>
      </trkpt>
      <trkpt lat="42.1159140" lon="-2.3093190">
        <ele>906.7</ele>
        <time>2022-08-14T11:39:12Z</time>
      </trkpt>
      <trkpt lat="42.1160300" lon="-2.3092580">
        <ele>906.6</ele>
        <time>2022-08-14T11:39:14Z</time>
      </trkpt>
      <trkpt lat="42.1161920" lon="-2.3091640">
        <ele>906.5</ele>
        <time>2022-08-14T11:39:17Z</time>
      </trkpt>
      <trkpt lat="42.1162390" lon="-2.3091300">
        <ele>906.5</ele>
        <time>2022-08-14T11:39:18Z</time>
      </trkpt>
      <trkpt lat="42.1163310" lon="-2.3090620">
        <ele>906.5</ele>
        <time>2022-08-14T11:39:20Z</time>
      </trkpt>
      <trkpt lat="42.1164710" lon="-2.3089400">
        <ele>906.7</ele>
        <time>2022-08-14T11:39:23Z</time>
      </trkpt>
      <trkpt lat="42.1165130" lon="-2.3088980">
        <ele>906.7</ele>
        <time>2022-08-14T11:39:24Z</time>
      </trkpt>
      <trkpt lat="42.1165970" lon="-2.3088140">
        <ele>906.8</ele>
        <time>2022-08-14T11:39:26Z</time>
      </trkpt>
      <trkpt lat="42.1166700" lon="-2.3087390">
        <ele>906.9</ele>
        <time>2022-08-14T11:39:28Z</time>
      </trkpt>
      <trkpt lat="42.1168740" lon="-2.3085020">
        <ele>907.1</ele>
        <time>2022-08-14T11:39:33Z</time>
      </trkpt>
      <trkpt lat="42.1169530" lon="-2.3083090">
        <ele>907.1</ele>
        <time>2022-08-14T11:39:36Z</time>
      </trkpt>
      <trkpt lat="42.1169630" lon="-2.3082580">
        <ele>907.1</ele>
        <time>2022-08-14T11:39:37Z</time>
      </trkpt>
      <trkpt lat="42.1170470" lon="-2.3077410">
        <ele>905.7</ele>
        <time>2022-08-14T11:39:44Z</time>
      </trkpt>
      <trkpt lat="42.1170820" lon="-2.3075690">
        <ele>905.0</ele>
        <time>2022-08-14T11:39:46Z</time>
      </trkpt>
      <trkpt lat="42.1171740" lon="-2.3073370">
        <ele>904.1</ele>
        <time>2022-08-14T11:39:49Z</time>
      </trkpt>
      <trkpt lat="42.1172120" lon="-2.3072610">
        <ele>903.7</ele>
        <time>2022-08-14T11:39:50Z</time>
      </trkpt>
      <trkpt lat="42.1172610" lon="-2.3071790">
        <ele>903.3</ele>
        <time>2022-08-14T11:39:51Z</time>
      </trkpt>
      <trkpt lat="42.1173570" lon="-2.3070790">
        <ele>902.7</ele>
        <time>2022-08-14T11:39:53Z</time>
      </trkpt>
      <trkpt lat="42.1174740" lon="-2.3070570">
        <ele>902.0</ele>
        <time>2022-08-14T11:39:55Z</time>
      </trkpt>
      <trkpt lat="42.1175560" lon="-2.3070850">
        <ele>901.4</ele>
        <time>2022-08-14T11:39:56Z</time>
      </trkpt>
      <trkpt lat="42.1176230" lon="-2.3071290">
        <ele>900.9</ele>
        <time>2022-08-14T11:39:57Z</time>
      </trkpt>
      <trkpt lat="42.1176750" lon="-2.3071700">
        <ele>900.5</ele>
        <time>2022-08-14T11:39:58Z</time>
      </trkpt>
      <trkpt lat="42.1178220" lon="-2.3072960">
        <ele>899.3</ele>
        <time>2022-08-14T11:40:00Z</time>
      </trkpt>
      <trkpt lat="42.1179680" lon="-2.3074090">
        <ele>898.3</ele>
        <time>2022-08-14T11:40:02Z</time>
      </trkpt>
      <trkpt lat="42.1182140" lon="-2.3075500">
        <ele>896.7</ele>
        <time>2022-08-14T11:40:05Z</time>
      </trkpt>
      <trkpt lat="42.1183930" lon="-2.3076330">
        <ele>895.6</ele>
        <time>2022-08-14T11:40:07Z</time>
      </trkpt>
      <trkpt lat="42.1184850" lon="-2.3076770">
        <ele>895.0</ele>
        <time>2022-08-14T11:40:08Z</time>
      </trkpt>
      <trkpt lat="42.1188620" lon="-2.3078380">
        <ele>892.8</ele>
        <time>2022-08-14T11:40:12Z</time>
      </trkpt>
      <trkpt lat="42.1189670" lon="-2.3078520">
        <ele>892.3</ele>
        <time>2022-08-14T11:40:13Z</time>
      </trkpt>
      <trkpt lat="42.1191760" lon="-2.3078380">
        <ele>891.1</ele>
        <time>2022-08-14T11:40:15Z</time>
      </trkpt>
      <trkpt lat="42.1192800" lon="-2.3078150">
        <ele>890.5</ele>
        <time>2022-08-14T11:40:16Z</time>
      </trkpt>
      <trkpt lat="42.1195690" lon="-2.3077010">
        <ele>888.8</ele>
        <time>2022-08-14T11:40:19Z</time>
      </trkpt>
      <trkpt lat="42.1197230" lon="-2.3075590">
        <ele>887.7</ele>
        <time>2022-08-14T11:40:21Z</time>
      </trkpt>
      <trkpt lat="42.1197870" lon="-2.3074610">
        <ele>887.1</ele>
        <time>2022-08-14T11:40:22Z</time>
      </trkpt>
      <trkpt lat="42.1198380" lon="-2.3073510">
        <ele>886.4</ele>
        <time>2022-08-14T11:40:23Z</time>
      </trkpt>
      <trkpt lat="42.1199050" lon="-2.3070870">
        <ele>885.2</ele>
        <time>2022-08-14T11:40:25Z</time>
      </trkpt>
      <trkpt lat="42.1199120" lon="-2.3069430">
        <ele>884.7</ele>
        <time>2022-08-14T11:40:26Z</time>
      </trkpt>
      <trkpt lat="42.1199000" lon="-2.3067920">
        <ele>884.0</ele>
        <time>2022-08-14T11:40:27Z</time>
      </trkpt>
      <trkpt lat="42.1198770" lon="-2.3066480">
        <ele>883.4</ele>
        <time>2022-08-14T11:40:28Z</time>
      </trkpt>
      <trkpt lat="42.1197350" lon="-2.3063930">
        <ele>882.0</ele>
        <time>2022-08-14T11:40:30Z</time>
      </trkpt>
      <trkpt lat="42.1195970" lon="-2.3061410">
        <ele>880.8</ele>
        <time>2022-08-14T11:40:32Z</time>
      </trkpt>
      <trkpt lat="42.1194560" lon="-2.3059110">
        <ele>879.8</ele>
        <time>2022-08-14T11:40:34Z</time>
      </trkpt>
      <trkpt lat="42.1193850" lon="-2.3057950">
        <ele>879.3</ele>
        <time>2022-08-14T11:40:35Z</time>
      </trkpt>
      <trkpt lat="42.1192490" lon="-2.3055810">
        <ele>878.6</ele>
        <time>2022-08-14T11:40:37Z</time>
      </trkpt>
      <trkpt lat="42.1190330" lon="-2.3053200">
        <ele>877.6</ele>
        <time>2022-08-14T11:40:40Z</time>
      </trkpt>
      <trkpt lat="42.1187450" lon="-2.3050370">
        <ele>876.6</ele>
        <time>2022-08-14T11:40:44Z</time>
      </trkpt>
      <trkpt lat="42.1186840" lon="-2.3049690">
        <ele>876.4</ele>
        <time>2022-08-14T11:40:45Z</time>
      </trkpt>
      <trkpt lat="42.1185430" lon="-2.3048730">
        <ele>876.0</ele>
        <time>2022-08-14T11:40:47Z</time>
      </trkpt>
      <trkpt lat="42.1184760" lon="-2.3048100">
        <ele>875.8</ele>
        <time>2022-08-14T11:40:48Z</time>
      </trkpt>
      <trkpt lat="42.1183530" lon="-2.3047060">
        <ele>875.5</ele>
        <time>2022-08-14T11:40:50Z</time>
      </trkpt>
      <trkpt lat="42.1182750" lon="-2.3046450">
        <ele>875.3</ele>
        <time>2022-08-14T11:40:51Z</time>
      </trkpt>
      <trkpt lat="42.1180570" lon="-2.3044830">
        <ele>875.1</ele>
        <time>2022-08-14T11:40:55Z</time>
      </trkpt>
      <trkpt lat="42.1179990" lon="-2.3044440">
        <ele>875.0</ele>
        <time>2022-08-14T11:40:56Z</time>
      </trkpt>
      <trkpt lat="42.1178890" lon="-2.3043740">
        <ele>874.9</ele>
        <time>2022-08-14T11:40:58Z</time>
      </trkpt>
      <trkpt lat="42.1178330" lon="-2.3043410">
        <ele>874.9</ele>
        <time>2022-08-14T11:40:59Z</time>
      </trkpt>
      <trkpt lat="42.1177800" lon="-2.3043090">
        <ele>874.9</ele>
        <time>2022-08-14T11:41:00Z</time>
      </trkpt>
      <trkpt lat="42.1176240" lon="-2.3042010">
        <ele>875.0</ele>
        <time>2022-08-14T11:41:03Z</time>
      </trkpt>
      <trkpt lat="42.1174460" lon="-2.3040210">
        <ele>875.7</ele>
        <time>2022-08-14T11:41:07Z</time>
      </trkpt>
      <trkpt lat="42.1173740" lon="-2.3039330">
        <ele>876.1</ele>
        <time>2022-08-14T11:41:09Z</time>
      </trkpt>
      <trkpt lat="42.1172390" lon="-2.3037300">
        <ele>877.1</ele>
        <time>2022-08-14T11:41:14Z</time>
      </trkpt>
      <trkpt lat="42.1172200" lon="-2.3036940">
        <ele>877.4</ele>
        <time>2022-08-14T11:41:15Z</time>
      </trkpt>
      <trkpt lat="42.1171750" lon="-2.3035820">
        <ele>877.9</ele>
        <time>2022-08-14T11:41:18Z</time>
      </trkpt>
      <trkpt lat="42.1171170" lon="-2.3034370">
        <ele>878.8</ele>
        <time>2022-08-14T11:41:22Z</time>
      </trkpt>
      <trkpt lat="42.1170810" lon="-2.3033270">
        <ele>879.4</ele>
        <time>2022-08-14T11:41:25Z</time>
      </trkpt>
      <trkpt lat="42.1170530" lon="-2.3032600">
        <ele>879.8</ele>
        <time>2022-08-14T11:41:27Z</time>
      </trkpt>
      <trkpt lat="42.1170430" lon="-2.3032240">
        <ele>880.0</ele>
        <time>2022-08-14T11:41:28Z</time>
      </trkpt>
      <trkpt lat="42.1170290" lon="-2.3031450">
        <ele>880.4</ele>
        <time>2022-08-14T11:41:30Z</time>
      </trkpt>
      <trkpt lat="42.1169870" lon="-2.3029450">
        <ele>881.5</ele>
        <time>2022-08-14T11:41:35Z</time>
      </trkpt>
      <trkpt lat="42.1169160" lon="-2.3027260">
        <ele>882.6</ele>
        <time>2022-08-14T11:41:41Z</time>
      </trkpt>
      <trkpt lat="42.1169000" lon="-2.3026410">
        <ele>883.0</ele>
        <time>2022-08-14T11:41:43Z</time>
      </trkpt>
      <trkpt lat="42.1168570" lon="-2.3024800">
        <ele>883.8</ele>
        <time>2022-08-14T11:41:47Z</time>
      </trkpt>
      <trkpt lat="42.1168470" lon="-2.3024510">
        <ele>883.9</ele>
        <time>2022-08-14T11:41:48Z</time>
      </trkpt>
      <trkpt lat="42.1168000" lon="-2.3023390">
        <ele>884.5</ele>
        <time>2022-08-14T11:41:51Z</time>
      </trkpt>
      <trkpt lat="42.1167760" lon="-2.3022690">
        <ele>884.8</ele>
        <time>2022-08-14T11:41:53Z</time>
      </trkpt>
      <trkpt lat="42.1167190" lon="-2.3021570">
        <ele>885.5</ele>
        <time>2022-08-14T11:41:56Z</time>
      </trkpt>
      <trkpt lat="42.1166250" lon="-2.3020030">
        <ele>886.4</ele>
        <time>2022-08-14T11:42:01Z</time>
      </trkpt>
      <trkpt lat="42.1165830" lon="-2.3019480">
        <ele>886.7</ele>
        <time>2022-08-14T11:42:03Z</time>
      </trkpt>
      <trkpt lat="42.1165420" lon="-2.3018960">
        <ele>887.1</ele>
        <time>2022-08-14T11:42:05Z</time>
      </trkpt>
      <trkpt lat="42.1164760" lon="-2.3018250">
        <ele>887.6</ele>
        <time>2022-08-14T11:42:08Z</time>
      </trkpt>
      <trkpt lat="42.1164340" lon="-2.3017760">
        <ele>887.9</ele>
        <time>2022-08-14T11:42:10Z</time>
      </trkpt>
      <trkpt lat="42.1163090" lon="-2.3016440">
        <ele>888.8</ele>
        <time>2022-08-14T11:42:16Z</time>
      </trkpt>
      <trkpt lat="42.1162480" lon="-2.3015760">
        <ele>889.3</ele>
        <time>2022-08-14T11:42:19Z</time>
      </trkpt>
      <trkpt lat="42.1161500" lon="-2.3014860">
        <ele>889.9</ele>
        <time>2022-08-14T11:42:23Z</time>
      </trkpt>
      <trkpt lat="42.1160390" lon="-2.3013350">
        <ele>890.7</ele>
        <time>2022-08-14T11:42:29Z</time>
      </trkpt>
      <trkpt lat="42.1159450" lon="-2.3011860">
        <ele>891.2</ele>
        <time>2022-08-14T11:42:35Z</time>
      </trkpt>
      <trkpt lat="42.1158930" lon="-2.3009740">
        <ele>891.6</ele>
        <time>2022-08-14T11:42:41Z</time>
      </trkpt>
      <trkpt lat="42.1158870" lon="-2.3009350">
        <ele>891.6</ele>
        <time>2022-08-14T11:42:42Z</time>
      </trkpt>
      <trkpt lat="42.1158720" lon="-2.3005960">
        <ele>891.5</ele>
        <time>2022-08-14T11:42:50Z</time>
      </trkpt>
      <trkpt lat="42.1159220" lon="-2.3003600">
        <ele>891.1</ele>
        <time>2022-08-14T11:42:55Z</time>
      </trkpt>
      <trkpt lat="42.1159450" lon="-2.3003120">
        <ele>891.0</ele>
        <time>2022-08-14T11:42:56Z</time>
      </trkpt>
      <trkpt lat="42.1159720" lon="-2.3002640">
        <ele>890.9</ele>
        <time>2022-08-14T11:42:57Z</time>
      </trkpt>
      <trkpt lat="42.1161010" lon="-2.3000960">
        <ele>890.2</ele>
        <time>2022-08-14T11:43:01Z</time>
      </trkpt>
      <trkpt lat="42.1161390" lon="-2.3000630">
        <ele>890.0</ele>
        <time>2022-08-14T11:43:02Z</time>
      </trkpt>
      <trkpt lat="42.1162280" lon="-2.3000000">
        <ele>889.6</ele>
        <time>2022-08-14T11:43:04Z</time>
      </trkpt>
      <trkpt lat="42.1163180" lon="-2.2999580">
        <ele>889.2</ele>
        <time>2022-08-14T11:43:06Z</time>
      </trkpt>
      <trkpt lat="42.1164140" lon="-2.2999300">
        <ele>888.8</ele>
        <time>2022-08-14T11:43:08Z</time>
      </trkpt>
      <trkpt lat="42.1165170" lon="-2.2999190">
        <ele>888.4</ele>
        <time>2022-08-14T11:43:10Z</time>
      </trkpt>
      <trkpt lat="42.1166220" lon="-2.2999270">
        <ele>887.9</ele>
        <time>2022-08-14T11:43:12Z</time>
      </trkpt>
      <trkpt lat="42.1166740" lon="-2.2999400">
        <ele>887.7</ele>
        <time>2022-08-14T11:43:13Z</time>
      </trkpt>
      <trkpt lat="42.1167240" lon="-2.2999600">
        <ele>887.5</ele>
        <time>2022-08-14T11:43:14Z</time>
      </trkpt>
      <trkpt lat="42.1169170" lon="-2.3000830">
        <ele>886.7</ele>
        <time>2022-08-14T11:43:18Z</time>
      </trkpt>
      <trkpt lat="42.1169650" lon="-2.3001250">
        <ele>886.5</ele>
        <time>2022-08-14T11:43:19Z</time>
      </trkpt>
      <trkpt lat="42.1172310" lon="-2.3003500">
        <ele>885.5</ele>
        <time>2022-08-14T11:43:24Z</time>
      </trkpt>
      <trkpt lat="42.1173260" lon="-2.3004310">
        <ele>885.3</ele>
        <time>2022-08-14T11:43:26Z</time>
      </trkpt>
      <trkpt lat="42.1173890" lon="-2.3004860">
        <ele>885.2</ele>
        <time>2022-08-14T11:43:27Z</time>
      </trkpt>
      <trkpt lat="42.1174910" lon="-2.3005770">
        <ele>885.2</ele>
        <time>2022-08-14T11:43:29Z</time>
      </trkpt>
      <trkpt lat="42.1175890" lon="-2.3006620">
        <ele>885.4</ele>
        <time>2022-08-14T11:43:31Z</time>
      </trkpt>
      <trkpt lat="42.1176830" lon="-2.3007400">
        <ele>885.8</ele>
        <time>2022-08-14T11:43:33Z</time>
      </trkpt>
      <trkpt lat="42.1178510" lon="-2.3008680">
        <ele>886.6</ele>
        <time>2022-08-14T11:43:37Z</time>
      </trkpt>
      <trkpt lat="42.1179220" lon="-2.3009210">
        <ele>887.0</ele>
        <time>2022-08-14T11:43:39Z</time>
      </trkpt>
      <trkpt lat="42.1180410" lon="-2.3009960">
        <ele>887.8</ele>
        <time>2022-08-14T11:43:42Z</time>
      </trkpt>
      <trkpt lat="42.1180890" lon="-2.3010230">
        <ele>888.2</ele>
        <time>2022-08-14T11:43:44Z</time>
      </trkpt>
      <trkpt lat="42.1182340" lon="-2.3011060">
        <ele>889.2</ele>
        <time>2022-08-14T11:43:48Z</time>
      </trkpt>
      <trkpt lat="42.1183070" lon="-2.3011460">
        <ele>889.8</ele>
        <time>2022-08-14T11:43:50Z</time>
      </trkpt>
      <trkpt lat="42.1183400" lon="-2.3011590">
        <ele>890.0</ele>
        <time>2022-08-14T11:43:51Z</time>
      </trkpt>
      <trkpt lat="42.1183990" lon="-2.3011880">
        <ele>890.4</ele>
        <time>2022-08-14T11:43:53Z</time>
      </trkpt>
      <trkpt lat="42.1184320" lon="-2.3012000">
        <ele>890.6</ele>
        <time>2022-08-14T11:43:54Z</time>
      </trkpt>
      <trkpt lat="42.1186220" lon="-2.3012690">
        <ele>891.9</ele>
        <time>2022-08-14T11:44:00Z</time>
      </trkpt>
      <trkpt lat="42.1188740" lon="-2.3013260">
        <ele>893.5</ele>
        <time>2022-08-14T11:44:08Z</time>
      </trkpt>
      <trkpt lat="42.1189730" lon="-2.3013430">
        <ele>894.1</ele>
        <time>2022-08-14T11:44:11Z</time>
      </trkpt>
      <trkpt lat="42.1191130" lon="-2.3013570">
        <ele>894.8</ele>
        <time>2022-08-14T11:44:16Z</time>
      </trkpt>
      <trkpt lat="42.1191960" lon="-2.3013630">
        <ele>895.3</ele>
        <time>2022-08-14T11:44:19Z</time>
      </trkpt>
      <trkpt lat="42.1193920" lon="-2.3013720">
        <ele>896.3</ele>
        <time>2022-08-14T11:44:26Z</time>
      </trkpt>
      <trkpt lat="42.1194190" lon="-2.3013710">
        <ele>896.4</ele>
        <time>2022-08-14T11:44:27Z</time>
      </trkpt>
      <trkpt lat="42.1196910" lon="-2.3013200">
        <ele>897.5</ele>
        <time>2022-08-14T11:44:37Z</time>
      </trkpt>
      <trkpt lat="42.1197220" lon="-2.3013120">
        <ele>897.6</ele>
        <time>2022-08-14T11:44:38Z</time>
      </trkpt>
      <trkpt lat="42.1199100" lon="-2.3012390">
        <ele>898.0</ele>
        <time>2022-08-14T11:44:44Z</time>
      </trkpt>
      <trkpt lat="42.1201310" lon="-2.3010790">
        <ele>898.4</ele>
        <time>2022-08-14T11:44:51Z</time>
      </trkpt>
      <trkpt lat="42.1202680" lon="-2.3009470">
        <ele>898.7</ele>
        <time>2022-08-14T11:44:56Z</time>
      </trkpt>
      <trkpt lat="42.1203470" lon="-2.3008450">
        <ele>898.8</ele>
        <time>2022-08-14T11:44:59Z</time>
      </trkpt>
      <trkpt lat="42.1203990" lon="-2.3007730">
        <ele>898.8</ele>
        <time>2022-08-14T11:45:01Z</time>
      </trkpt>
      <trkpt lat="42.1205450" lon="-2.3005870">
        <ele>899.1</ele>
        <time>2022-08-14T11:45:07Z</time>
      </trkpt>
      <trkpt lat="42.1207060" lon="-2.3002940">
        <ele>899.1</ele>
        <time>2022-08-14T11:45:15Z</time>
      </trkpt>
      <trkpt lat="42.1207510" lon="-2.3002180">
        <ele>899.2</ele>
        <time>2022-08-14T11:45:17Z</time>
      </trkpt>
      <trkpt lat="42.1207720" lon="-2.3001810">
        <ele>899.2</ele>
        <time>2022-08-14T11:45:18Z</time>
      </trkpt>
      <trkpt lat="42.1208640" lon="-2.3000320">
        <ele>899.2</ele>
        <time>2022-08-14T11:45:22Z</time>
      </trkpt>
      <trkpt lat="42.1209140" lon="-2.2999740">
        <ele>899.2</ele>
        <time>2022-08-14T11:45:24Z</time>
      </trkpt>
      <trkpt lat="42.1211790" lon="-2.2998020">
        <ele>898.9</ele>
        <time>2022-08-14T11:45:32Z</time>
      </trkpt>
      <trkpt lat="42.1214350" lon="-2.2997650">
        <ele>898.3</ele>
        <time>2022-08-14T11:45:38Z</time>
      </trkpt>
      <trkpt lat="42.1214810" lon="-2.2997750">
        <ele>898.2</ele>
        <time>2022-08-14T11:45:39Z</time>
      </trkpt>
      <trkpt lat="42.1215310" lon="-2.2997920">
        <ele>898.0</ele>
        <time>2022-08-14T11:45:40Z</time>
      </trkpt>
      <trkpt lat="42.1216500" lon="-2.2998480">
        <ele>897.6</ele>
        <time>2022-08-14T11:45:43Z</time>
      </trkpt>
      <trkpt lat="42.1216990" lon="-2.2998810">
        <ele>897.4</ele>
        <time>2022-08-14T11:45:44Z</time>
      </trkpt>
      <trkpt lat="42.1217460" lon="-2.2999200">
        <ele>897.2</ele>
        <time>2022-08-14T11:45:45Z</time>
      </trkpt>
      <trkpt lat="42.1218180" lon="-2.2999960">
        <ele>896.9</ele>
        <time>2022-08-14T11:45:46Z</time>
      </trkpt>
      <trkpt lat="42.1218610" lon="-2.3000530">
        <ele>896.7</ele>
        <time>2022-08-14T11:45:47Z</time>
      </trkpt>
      <trkpt lat="42.1219030" lon="-2.3001150">
        <ele>896.5</ele>
        <time>2022-08-14T11:45:48Z</time>
      </trkpt>
      <trkpt lat="42.1219730" lon="-2.3002300">
        <ele>896.1</ele>
        <time>2022-08-14T11:45:50Z</time>
      </trkpt>
      <trkpt lat="42.1221170" lon="-2.3005120">
        <ele>895.3</ele>
        <time>2022-08-14T11:45:54Z</time>
      </trkpt>
      <trkpt lat="42.1221560" lon="-2.3005890">
        <ele>895.0</ele>
        <time>2022-08-14T11:45:55Z</time>
      </trkpt>
      <trkpt lat="42.1222960" lon="-2.3008080">
        <ele>894.2</ele>
        <time>2022-08-14T11:45:58Z</time>
      </trkpt>
      <trkpt lat="42.1223540" lon="-2.3008720">
        <ele>893.9</ele>
        <time>2022-08-14T11:45:59Z</time>
      </trkpt>
      <trkpt lat="42.1224310" lon="-2.3009390">
        <ele>893.5</ele>
        <time>2022-08-14T11:46:00Z</time>
      </trkpt>
      <trkpt lat="42.1225630" lon="-2.3010110">
        <ele>892.9</ele>
        <time>2022-08-14T11:46:02Z</time>
      </trkpt>
      <trkpt lat="42.1227150" lon="-2.3010510">
        <ele>892.3</ele>
        <time>2022-08-14T11:46:04Z</time>
      </trkpt>
      <trkpt lat="42.1228710" lon="-2.3010390">
        <ele>891.7</ele>
        <time>2022-08-14T11:46:06Z</time>
      </trkpt>
      <trkpt lat="42.1230210" lon="-2.3009730">
        <ele>891.1</ele>
        <time>2022-08-14T11:46:08Z</time>
      </trkpt>
      <trkpt lat="42.1230900" lon="-2.3009220">
        <ele>890.8</ele>
        <time>2022-08-14T11:46:09Z</time>
      </trkpt>
      <trkpt lat="42.1231540" lon="-2.3008620">
        <ele>890.5</ele>
        <time>2022-08-14T11:46:10Z</time>
      </trkpt>
      <trkpt lat="42.1232640" lon="-2.3007190">
        <ele>889.9</ele>
        <time>2022-08-14T11:46:12Z</time>
      </trkpt>
      <trkpt lat="42.1233110" lon="-2.3006390">
        <ele>889.6</ele>
        <time>2022-08-14T11:46:13Z</time>
      </trkpt>
      <trkpt lat="42.1233520" lon="-2.3005550">
        <ele>889.3</ele>
        <time>2022-08-14T11:46:14Z</time>
      </trkpt>
      <trkpt lat="42.1234200" lon="-2.3003840">
        <ele>888.8</ele>
        <time>2022-08-14T11:46:16Z</time>
      </trkpt>
      <trkpt lat="42.1234510" lon="-2.3003030">
        <ele>888.5</ele>
        <time>2022-08-14T11:46:17Z</time>
      </trkpt>
      <trkpt lat="42.1235780" lon="-2.2999570">
        <ele>887.6</ele>
        <time>2022-08-14T11:46:21Z</time>
      </trkpt>
      <trkpt lat="42.1236430" lon="-2.2997910">
        <ele>887.2</ele>
        <time>2022-08-14T11:46:23Z</time>
      </trkpt>
      <trkpt lat="42.1237450" lon="-2.2995510">
        <ele>886.7</ele>
        <time>2022-08-14T11:46:26Z</time>
      </trkpt>
      <trkpt lat="42.1239380" lon="-2.2991830">
        <ele>886.3</ele>
        <time>2022-08-14T11:46:31Z</time>
      </trkpt>
      <trkpt lat="42.1240900" lon="-2.2989350">
        <ele>886.3</ele>
        <time>2022-08-14T11:46:35Z</time>
      </trkpt>
      <trkpt lat="42.1242480" lon="-2.2987030">
        <ele>886.5</ele>
        <time>2022-08-14T11:46:39Z</time>
      </trkpt>
      <trkpt lat="42.1243650" lon="-2.2985410">
        <ele>886.9</ele>
        <time>2022-08-14T11:46:42Z</time>
      </trkpt>
      <trkpt lat="42.1244760" lon="-2.2983940">
        <ele>887.2</ele>
        <time>2022-08-14T11:46:45Z</time>
      </trkpt>
      <trkpt lat="42.1245720" lon="-2.2982580">
        <ele>887.6</ele>
        <time>2022-08-14T11:46:48Z</time>
      </trkpt>
      <trkpt lat="42.1246050" lon="-2.2982110">
        <ele>887.7</ele>
        <time>2022-08-14T11:46:49Z</time>
      </trkpt>
      <trkpt lat="42.1247510" lon="-2.2979600">
        <ele>888.6</ele>
        <time>2022-08-14T11:46:54Z</time>
      </trkpt>
      <trkpt lat="42.1248060" lon="-2.2978660">
        <ele>889.0</ele>
        <time>2022-08-14T11:46:56Z</time>
      </trkpt>
      <trkpt lat="42.1249000" lon="-2.2976630">
        <ele>889.9</ele>
        <time>2022-08-14T11:47:00Z</time>
      </trkpt>
      <trkpt lat="42.1249530" lon="-2.2975300">
        <ele>890.4</ele>
        <time>2022-08-14T11:47:03Z</time>
      </trkpt>
      <trkpt lat="42.1249720" lon="-2.2974810">
        <ele>890.6</ele>
        <time>2022-08-14T11:47:04Z</time>
      </trkpt>
      <trkpt lat="42.1250230" lon="-2.2973350">
        <ele>891.2</ele>
        <time>2022-08-14T11:47:07Z</time>
      </trkpt>
      <trkpt lat="42.1250730" lon="-2.2971940">
        <ele>891.8</ele>
        <time>2022-08-14T11:47:10Z</time>
      </trkpt>
      <trkpt lat="42.1251570" lon="-2.2969700">
        <ele>892.8</ele>
        <time>2022-08-14T11:47:15Z</time>
      </trkpt>
      <trkpt lat="42.1251690" lon="-2.2969360">
        <ele>892.9</ele>
        <time>2022-08-14T11:47:16Z</time>
      </trkpt>
      <trkpt lat="42.1252430" lon="-2.2967790">
        <ele>893.6</ele>
        <time>2022-08-14T11:47:20Z</time>
      </trkpt>
      <trkpt lat="42.1252610" lon="-2.2967430">
        <ele>893.7</ele>
        <time>2022-08-14T11:47:21Z</time>
      </trkpt>
      <trkpt lat="42.1253060" lon="-2.2966770">
        <ele>894.0</ele>
        <time>2022-08-14T11:47:23Z</time>
      </trkpt>
      <trkpt lat="42.1254690" lon="-2.2964940">
        <ele>894.6</ele>
        <time>2022-08-14T11:47:29Z</time>
      </trkpt>
      <trkpt lat="42.1255000" lon="-2.2964710">
        <ele>894.7</ele>
        <time>2022-08-14T11:47:30Z</time>
      </trkpt>
      <trkpt lat="42.1255710" lon="-2.2964210">
        <ele>894.7</ele>
        <time>2022-08-14T11:47:32Z</time>
      </trkpt>
      <trkpt lat="42.1258670" lon="-2.2963240">
        <ele>894.4</ele>
        <time>2022-08-14T11:47:40Z</time>
      </trkpt>
      <trkpt lat="42.1259880" lon="-2.2963280">
        <ele>894.0</ele>
        <time>2022-08-14T11:47:43Z</time>
      </trkpt>
      <trkpt lat="42.1261280" lon="-2.2963550">
        <ele>893.3</ele>
        <time>2022-08-14T11:47:46Z</time>
      </trkpt>
      <trkpt lat="42.1261790" lon="-2.2963730">
        <ele>892.9</ele>
        <time>2022-08-14T11:47:47Z</time>
      </trkpt>
      <trkpt lat="42.1264220" lon="-2.2964560">
        <ele>891.2</ele>
        <time>2022-08-14T11:47:51Z</time>
      </trkpt>
      <trkpt lat="42.1265630" lon="-2.2964890">
        <ele>890.2</ele>
        <time>2022-08-14T11:47:53Z</time>
      </trkpt>
      <trkpt lat="42.1266390" lon="-2.2964970">
        <ele>889.7</ele>
        <time>2022-08-14T11:47:54Z</time>
      </trkpt>
      <trkpt lat="42.1268000" lon="-2.2964880">
        <ele>888.7</ele>
        <time>2022-08-14T11:47:56Z</time>
      </trkpt>
      <trkpt lat="42.1268660" lon="-2.2964730">
        <ele>888.4</ele>
        <time>2022-08-14T11:47:57Z</time>
      </trkpt>
      <trkpt lat="42.1270460" lon="-2.2964130">
        <ele>887.7</ele>
        <time>2022-08-14T11:47:59Z</time>
      </trkpt>
      <trkpt lat="42.1271100" lon="-2.2963890">
        <ele>887.5</ele>
        <time>2022-08-14T11:48:00Z</time>
      </trkpt>
      <trkpt lat="42.1272700" lon="-2.2963280">
        <ele>887.3</ele>
        <time>2022-08-14T11:48:02Z</time>
      </trkpt>
      <trkpt lat="42.1273480" lon="-2.2962970">
        <ele>887.3</ele>
        <time>2022-08-14T11:48:03Z</time>
      </trkpt>
      <trkpt lat="42.1275660" lon="-2.2962140">
        <ele>887.6</ele>
        <time>2022-08-14T11:48:06Z</time>
      </trkpt>
      <trkpt lat="42.1276980" lon="-2.2961630">
        <ele>887.9</ele>
        <time>2022-08-14T11:48:08Z</time>
      </trkpt>
      <trkpt lat="42.1277690" lon="-2.2961360">
        <ele>888.1</ele>
        <time>2022-08-14T11:48:09Z</time>
      </trkpt>
      <trkpt lat="42.1278740" lon="-2.2960910">
        <ele>888.4</ele>
        <time>2022-08-14T11:48:11Z</time>
      </trkpt>
      <trkpt lat="42.1280010" lon="-2.2960400">
        <ele>888.8</ele>
        <time>2022-08-14T11:48:14Z</time>
      </trkpt>
      <trkpt lat="42.1281350" lon="-2.2959890">
        <ele>889.3</ele>
        <time>2022-08-14T11:48:17Z</time>
      </trkpt>
      <trkpt lat="42.1281810" lon="-2.2959690">
        <ele>889.4</ele>
        <time>2022-08-14T11:48:18Z</time>
      </trkpt>
      <trkpt lat="42.1282720" lon="-2.2959240">
        <ele>889.8</ele>
        <time>2022-08-14T11:48:20Z</time>
      </trkpt>
      <trkpt lat="42.1283580" lon="-2.2958670">
        <ele>890.2</ele>
        <time>2022-08-14T11:48:22Z</time>
      </trkpt>
      <trkpt lat="42.1284110" lon="-2.2958320">
        <ele>890.5</ele>
        <time>2022-08-14T11:48:23Z</time>
      </trkpt>
      <trkpt lat="42.1284940" lon="-2.2957730">
        <ele>890.9</ele>
        <time>2022-08-14T11:48:25Z</time>
      </trkpt>
      <trkpt lat="42.1285730" lon="-2.2957020">
        <ele>891.3</ele>
        <time>2022-08-14T11:48:27Z</time>
      </trkpt>
      <trkpt lat="42.1286370" lon="-2.2956240">
        <ele>891.6</ele>
        <time>2022-08-14T11:48:29Z</time>
      </trkpt>
      <trkpt lat="42.1286670" lon="-2.2955840">
        <ele>891.8</ele>
        <time>2022-08-14T11:48:30Z</time>
      </trkpt>
      <trkpt lat="42.1287930" lon="-2.2954340">
        <ele>892.4</ele>
        <time>2022-08-14T11:48:34Z</time>
      </trkpt>
      <trkpt lat="42.1288550" lon="-2.2953630">
        <ele>892.7</ele>
        <time>2022-08-14T11:48:36Z</time>
      </trkpt>
      <trkpt lat="42.1288900" lon="-2.2953320">
        <ele>892.9</ele>
        <time>2022-08-14T11:48:37Z</time>
      </trkpt>
      <trkpt lat="42.1289570" lon="-2.2952730">
        <ele>893.3</ele>
        <time>2022-08-14T11:48:39Z</time>
      </trkpt>
      <trkpt lat="42.1290790" lon="-2.2952010">
        <ele>893.9</ele>
        <time>2022-08-14T11:48:43Z</time>
      </trkpt>
      <trkpt lat="42.1292700" lon="-2.2951490">
        <ele>894.7</ele>
        <time>2022-08-14T11:48:47Z</time>
      </trkpt>
      <trkpt lat="42.1293540" lon="-2.2951300">
        <ele>895.1</ele>
        <time>2022-08-14T11:48:49Z</time>
      </trkpt>
      <trkpt lat="42.1294380" lon="-2.2951230">
        <ele>895.4</ele>
        <time>2022-08-14T11:48:51Z</time>
      </trkpt>
      <trkpt lat="42.1296060" lon="-2.2950950">
        <ele>896.2</ele>
        <time>2022-08-14T11:48:55Z</time>
      </trkpt>
      <trkpt lat="42.1297560" lon="-2.2950220">
        <ele>896.9</ele>
        <time>2022-08-14T11:48:59Z</time>
      </trkpt>
      <trkpt lat="42.1299320" lon="-2.2948560">
        <ele>898.1</ele>
        <time>2022-08-14T11:49:05Z</time>
      </trkpt>
      <trkpt lat="42.1299620" lon="-2.2948140">
        <ele>898.4</ele>
        <time>2022-08-14T11:49:06Z</time>
      </trkpt>
      <trkpt lat="42.1300640" lon="-2.2945960">
        <ele>899.8</ele>
        <time>2022-08-14T11:49:12Z</time>
      </trkpt>
      <trkpt lat="42.1300740" lon="-2.2945610">
        <ele>900.1</ele>
        <time>2022-08-14T11:49:13Z</time>
      </trkpt>
      <trkpt lat="42.1301210" lon="-2.2943450">
        <ele>901.7</ele>
        <time>2022-08-14T11:49:19Z</time>
      </trkpt>
      <trkpt lat="42.1301200" lon="-2.2942750">
        <ele>902.2</ele>
        <time>2022-08-14T11:49:21Z</time>
      </trkpt>
      <trkpt lat="42.1301190" lon="-2.2942010">
        <ele>902.7</ele>
        <time>2022-08-14T11:49:23Z</time>
      </trkpt>
      <trkpt lat="42.1301150" lon="-2.2941310">
        <ele>903.3</ele>
        <time>2022-08-14T11:49:25Z</time>
      </trkpt>
      <trkpt lat="42.1301080" lon="-2.2940960">
        <ele>903.5</ele>
        <time>2022-08-14T11:49:26Z</time>
      </trkpt>
      <trkpt lat="42.1300800" lon="-2.2939550">
        <ele>904.6</ele>
        <time>2022-08-14T11:49:30Z</time>
      </trkpt>
      <trkpt lat="42.1300520" lon="-2.2937760">
        <ele>905.9</ele>
        <time>2022-08-14T11:49:35Z</time>
      </trkpt>
      <trkpt lat="42.1300330" lon="-2.2936760">
        <ele>906.7</ele>
        <time>2022-08-14T11:49:38Z</time>
      </trkpt>
      <trkpt lat="42.1300200" lon="-2.2936110">
        <ele>907.2</ele>
        <time>2022-08-14T11:49:40Z</time>
      </trkpt>
      <trkpt lat="42.1300070" lon="-2.2935010">
        <ele>908.0</ele>
        <time>2022-08-14T11:49:44Z</time>
      </trkpt>
      <trkpt lat="42.1299850" lon="-2.2933400">
        <ele>909.2</ele>
        <time>2022-08-14T11:49:49Z</time>
      </trkpt>
      <trkpt lat="42.1299790" lon="-2.2932820">
        <ele>909.6</ele>
        <time>2022-08-14T11:49:51Z</time>
      </trkpt>
      <trkpt lat="42.1299720" lon="-2.2931930">
        <ele>910.2</ele>
        <time>2022-08-14T11:49:54Z</time>
      </trkpt>
      <trkpt lat="42.1299570" lon="-2.2930360">
        <ele>911.2</ele>
        <time>2022-08-14T11:49:59Z</time>
      </trkpt>
      <trkpt lat="42.1299570" lon="-2.2930060">
        <ele>911.4</ele>
        <time>2022-08-14T11:50:00Z</time>
      </trkpt>
      <trkpt lat="42.1299370" lon="-2.2927670">
        <ele>912.8</ele>
        <time>2022-08-14T11:50:08Z</time>
      </trkpt>
      <trkpt lat="42.1299320" lon="-2.2927290">
        <ele>913.0</ele>
        <time>2022-08-14T11:50:09Z</time>
      </trkpt>
      <trkpt lat="42.1298870" lon="-2.2924630">
        <ele>914.2</ele>
        <time>2022-08-14T11:50:18Z</time>
      </trkpt>
      <trkpt lat="42.1298660" lon="-2.2923630">
        <ele>914.6</ele>
        <time>2022-08-14T11:50:21Z</time>
      </trkpt>
      <trkpt lat="42.1298540" lon="-2.2922940">
        <ele>914.8</ele>
        <time>2022-08-14T11:50:23Z</time>
      </trkpt>
      <trkpt lat="42.1298240" lon="-2.2921550">
        <ele>915.1</ele>
        <time>2022-08-14T11:50:27Z</time>
      </trkpt>
      <trkpt lat="42.1298140" lon="-2.2921120">
        <ele>915.2</ele>
        <time>2022-08-14T11:50:28Z</time>
      </trkpt>
      <trkpt lat="42.1297450" lon="-2.2917690">
        <ele>915.4</ele>
        <time>2022-08-14T11:50:37Z</time>
      </trkpt>
      <trkpt lat="42.1297400" lon="-2.2916900">
        <ele>915.3</ele>
        <time>2022-08-14T11:50:39Z</time>
      </trkpt>
      <trkpt lat="42.1297350" lon="-2.2914980">
        <ele>915.1</ele>
        <time>2022-08-14T11:50:43Z</time>
      </trkpt>
      <trkpt lat="42.1297410" lon="-2.2913350">
        <ele>914.7</ele>
        <time>2022-08-14T11:50:46Z</time>
      </trkpt>
      <trkpt lat="42.1297440" lon="-2.2912790">
        <ele>914.6</ele>
        <time>2022-08-14T11:50:47Z</time>
      </trkpt>
      <trkpt lat="42.1297960" lon="-2.2910500">
        <ele>913.9</ele>
        <time>2022-08-14T11:50:51Z</time>
      </trkpt>
      <trkpt lat="42.1299600" lon="-2.2906850">
        <ele>912.5</ele>
        <time>2022-08-14T11:50:57Z</time>
      </trkpt>
      <trkpt lat="42.1300880" lon="-2.2905200">
        <ele>911.6</ele>
        <time>2022-08-14T11:51:00Z</time>
      </trkpt>
      <trkpt lat="42.1301390" lon="-2.2904740">
        <ele>911.4</ele>
        <time>2022-08-14T11:51:01Z</time>
      </trkpt>
      <trkpt lat="42.1301820" lon="-2.2904370">
        <ele>911.1</ele>
        <time>2022-08-14T11:51:02Z</time>
      </trkpt>
      <trkpt lat="42.1302370" lon="-2.2903940">
        <ele>910.9</ele>
        <time>2022-08-14T11:51:03Z</time>
      </trkpt>
      <trkpt lat="42.1303490" lon="-2.2903220">
        <ele>910.3</ele>
        <time>2022-08-14T11:51:05Z</time>
      </trkpt>
      <trkpt lat="42.1304660" lon="-2.2902680">
        <ele>909.8</ele>
        <time>2022-08-14T11:51:07Z</time>
      </trkpt>
      <trkpt lat="42.1305260" lon="-2.2902500">
        <ele>909.5</ele>
        <time>2022-08-14T11:51:08Z</time>
      </trkpt>
      <trkpt lat="42.1305880" lon="-2.2902370">
        <ele>909.3</ele>
        <time>2022-08-14T11:51:09Z</time>
      </trkpt>
      <trkpt lat="42.1306510" lon="-2.2902290">
        <ele>909.0</ele>
        <time>2022-08-14T11:51:10Z</time>
      </trkpt>
      <trkpt lat="42.1308150" lon="-2.2902390">
        <ele>908.3</ele>
        <time>2022-08-14T11:51:13Z</time>
      </trkpt>
      <trkpt lat="42.1311850" lon="-2.2903870">
        <ele>906.6</ele>
        <time>2022-08-14T11:51:18Z</time>
      </trkpt>
      <trkpt lat="42.1313800" lon="-2.2905350">
        <ele>905.7</ele>
        <time>2022-08-14T11:51:21Z</time>
      </trkpt>
      <trkpt lat="42.1314320" lon="-2.2905780">
        <ele>905.5</ele>
        <time>2022-08-14T11:51:22Z</time>
      </trkpt>
      <trkpt lat="42.1314980" lon="-2.2906330">
        <ele>905.2</ele>
        <time>2022-08-14T11:51:23Z</time>
      </trkpt>
      <trkpt lat="42.1315670" lon="-2.2906860">
        <ele>904.9</ele>
        <time>2022-08-14T11:51:24Z</time>
      </trkpt>
      <trkpt lat="42.1317760" lon="-2.2908380">
        <ele>904.0</ele>
        <time>2022-08-14T11:51:27Z</time>
      </trkpt>
      <trkpt lat="42.1320120" lon="-2.2909480">
        <ele>902.9</ele>
        <time>2022-08-14T11:51:30Z</time>
      </trkpt>
      <trkpt lat="42.1320920" lon="-2.2909760">
        <ele>902.6</ele>
        <time>2022-08-14T11:51:31Z</time>
      </trkpt>
      <trkpt lat="42.1323330" lon="-2.2910210">
        <ele>901.6</ele>
        <time>2022-08-14T11:51:34Z</time>
      </trkpt>
      <trkpt lat="42.1324150" lon="-2.2910220">
        <ele>901.2</ele>
        <time>2022-08-14T11:51:35Z</time>
      </trkpt>
      <trkpt lat="42.1325140" lon="-2.2910160">
        <ele>900.8</ele>
        <time>2022-08-14T11:51:36Z</time>
      </trkpt>
      <trkpt lat="42.1327480" lon="-2.2909670">
        <ele>899.8</ele>
        <time>2022-08-14T11:51:39Z</time>
      </trkpt>
      <trkpt lat="42.1328300" lon="-2.2909430">
        <ele>899.4</ele>
        <time>2022-08-14T11:51:40Z</time>
      </trkpt>
      <trkpt lat="42.1330060" lon="-2.2908830">
        <ele>898.6</ele>
        <time>2022-08-14T11:51:42Z</time>
      </trkpt>
      <trkpt lat="42.1332280" lon="-2.2908080">
        <ele>897.7</ele>
        <time>2022-08-14T11:51:45Z</time>
      </trkpt>
      <trkpt lat="42.1333220" lon="-2.2907860">
        <ele>897.3</ele>
        <time>2022-08-14T11:51:46Z</time>
      </trkpt>
      <trkpt lat="42.1334020" lon="-2.2907770">
        <ele>896.9</ele>
        <time>2022-08-14T11:51:47Z</time>
      </trkpt>
      <trkpt lat="42.1335600" lon="-2.2907730">
        <ele>896.3</ele>
        <time>2022-08-14T11:51:49Z</time>
      </trkpt>
      <trkpt lat="42.1336220" lon="-2.2907800">
        <ele>896.0</ele>
        <time>2022-08-14T11:51:50Z</time>
      </trkpt>
      <trkpt lat="42.1336980" lon="-2.2907990">
        <ele>895.7</ele>
        <time>2022-08-14T11:51:51Z</time>
      </trkpt>
      <trkpt lat="42.1338440" lon="-2.2908660">
        <ele>895.0</ele>
        <time>2022-08-14T11:51:53Z</time>
      </trkpt>
      <trkpt lat="42.1339810" lon="-2.2909710">
        <ele>894.3</ele>
        <time>2022-08-14T11:51:55Z</time>
      </trkpt>
      <trkpt lat="42.1341120" lon="-2.2911070">
        <ele>893.5</ele>
        <time>2022-08-14T11:51:57Z</time>
      </trkpt>
      <trkpt lat="42.1342210" lon="-2.2912760">
        <ele>892.7</ele>
        <time>2022-08-14T11:51:59Z</time>
      </trkpt>
      <trkpt lat="42.1342680" lon="-2.2913680">
        <ele>892.4</ele>
        <time>2022-08-14T11:52:00Z</time>
      </trkpt>
      <trkpt lat="42.1344820" lon="-2.2918750">
        <ele>891.1</ele>
        <time>2022-08-14T11:52:05Z</time>
      </trkpt>
      <trkpt lat="42.1345250" lon="-2.2919830">
        <ele>890.9</ele>
        <time>2022-08-14T11:52:06Z</time>
      </trkpt>
      <trkpt lat="42.1345750" lon="-2.2920850">
        <ele>890.9</ele>
        <time>2022-08-14T11:52:07Z</time>
      </trkpt>
      <trkpt lat="42.1347140" lon="-2.2922810">
        <ele>891.0</ele>
        <time>2022-08-14T11:52:09Z</time>
      </trkpt>
      <trkpt lat="42.1347740" lon="-2.2923390">
        <ele>891.0</ele>
        <time>2022-08-14T11:52:10Z</time>
      </trkpt>
      <trkpt lat="42.1348530" lon="-2.2923930">
        <ele>891.1</ele>
        <time>2022-08-14T11:52:11Z</time>
      </trkpt>
      <trkpt lat="42.1349520" lon="-2.2924350">
        <ele>891.3</ele>
        <time>2022-08-14T11:52:12Z</time>
      </trkpt>
      <trkpt lat="42.1350320" lon="-2.2924520">
        <ele>891.5</ele>
        <time>2022-08-14T11:52:13Z</time>
      </trkpt>
      <trkpt lat="42.1351850" lon="-2.2924490">
        <ele>892.0</ele>
        <time>2022-08-14T11:52:15Z</time>
      </trkpt>
      <trkpt lat="42.1353810" lon="-2.2923710">
        <ele>892.9</ele>
        <time>2022-08-14T11:52:18Z</time>
      </trkpt>
      <trkpt lat="42.1354330" lon="-2.2923370">
        <ele>893.1</ele>
        <time>2022-08-14T11:52:19Z</time>
      </trkpt>
      <trkpt lat="42.1355110" lon="-2.2922660">
        <ele>893.6</ele>
        <time>2022-08-14T11:52:21Z</time>
      </trkpt>
      <trkpt lat="42.1355760" lon="-2.2921770">
        <ele>894.0</ele>
        <time>2022-08-14T11:52:23Z</time>
      </trkpt>
      <trkpt lat="42.1356810" lon="-2.2920070">
        <ele>894.7</ele>
        <time>2022-08-14T11:52:27Z</time>
      </trkpt>
      <trkpt lat="42.1357010" lon="-2.2919590">
        <ele>894.8</ele>
        <time>2022-08-14T11:52:28Z</time>
      </trkpt>
      <trkpt lat="42.1357180" lon="-2.2919080">
        <ele>894.9</ele>
        <time>2022-08-14T11:52:29Z</time>
      </trkpt>
      <trkpt lat="42.1357540" lon="-2.2917910">
        <ele>895.1</ele>
        <time>2022-08-14T11:52:31Z</time>
      </trkpt>
      <trkpt lat="42.1357690" lon="-2.2917380">
        <ele>895.2</ele>
        <time>2022-08-14T11:52:32Z</time>
      </trkpt>
      <trkpt lat="42.1357920" lon="-2.2916420">
        <ele>895.2</ele>
        <time>2022-08-14T11:52:34Z</time>
      </trkpt>
      <trkpt lat="42.1358330" lon="-2.2914760">
        <ele>895.2</ele>
        <time>2022-08-14T11:52:37Z</time>
      </trkpt>
      <trkpt lat="42.1358700" lon="-2.2913500">
        <ele>895.0</ele>
        <time>2022-08-14T11:52:39Z</time>
      </trkpt>
      <trkpt lat="42.1360750" lon="-2.2907530">
        <ele>893.2</ele>
        <time>2022-08-14T11:52:49Z</time>
      </trkpt>
      <trkpt lat="42.1362090" lon="-2.2904790">
        <ele>891.6</ele>
        <time>2022-08-14T11:52:53Z</time>
      </trkpt>
      <trkpt lat="42.1362500" lon="-2.2904080">
        <ele>891.2</ele>
        <time>2022-08-14T11:52:54Z</time>
      </trkpt>
      <trkpt lat="42.1364330" lon="-2.2900880">
        <ele>889.4</ele>
        <time>2022-08-14T11:52:58Z</time>
      </trkpt>
      <trkpt lat="42.1364830" lon="-2.2899990">
        <ele>889.0</ele>
        <time>2022-08-14T11:52:59Z</time>
      </trkpt>
      <trkpt lat="42.1365330" lon="-2.2899050">
        <ele>888.7</ele>
        <time>2022-08-14T11:53:00Z</time>
      </trkpt>
      <trkpt lat="42.1365720" lon="-2.2898270">
        <ele>888.5</ele>
        <time>2022-08-14T11:53:01Z</time>
      </trkpt>
      <trkpt lat="42.1366590" lon="-2.2896280">
        <ele>888.1</ele>
        <time>2022-08-14T11:53:03Z</time>
      </trkpt>
      <trkpt lat="42.1367670" lon="-2.2893270">
        <ele>888.2</ele>
        <time>2022-08-14T11:53:06Z</time>
      </trkpt>
      <trkpt lat="42.1368010" lon="-2.2892100">
        <ele>888.5</ele>
        <time>2022-08-14T11:53:07Z</time>
      </trkpt>
      <trkpt lat="42.1368260" lon="-2.2891180">
        <ele>888.7</ele>
        <time>2022-08-14T11:53:08Z</time>
      </trkpt>
      <trkpt lat="42.1368940" lon="-2.2888970">
        <ele>889.5</ele>
        <time>2022-08-14T11:53:11Z</time>
      </trkpt>
      <trkpt lat="42.1369400" lon="-2.2887750">
        <ele>890.0</ele>
        <time>2022-08-14T11:53:13Z</time>
      </trkpt>
      <trkpt lat="42.1369950" lon="-2.2886620">
        <ele>890.6</ele>
        <time>2022-08-14T11:53:15Z</time>
      </trkpt>
      <trkpt lat="42.1370210" lon="-2.2886130">
        <ele>891.0</ele>
        <time>2022-08-14T11:53:16Z</time>
      </trkpt>
      <trkpt lat="42.1371180" lon="-2.2884990">
        <ele>891.9</ele>
        <time>2022-08-14T11:53:19Z</time>
      </trkpt>
      <trkpt lat="42.1371700" lon="-2.2884440">
        <ele>892.3</ele>
        <time>2022-08-14T11:53:21Z</time>
      </trkpt>
      <trkpt lat="42.1372030" lon="-2.2884160">
        <ele>892.6</ele>
        <time>2022-08-14T11:53:22Z</time>
      </trkpt>
      <trkpt lat="42.1372950" lon="-2.2883680">
        <ele>893.2</ele>
        <time>2022-08-14T11:53:24Z</time>
      </trkpt>
      <trkpt lat="42.1374150" lon="-2.2883250">
        <ele>894.1</ele>
        <time>2022-08-14T11:53:27Z</time>
      </trkpt>
      <trkpt lat="42.1375300" lon="-2.2883090">
        <ele>894.7</ele>
        <time>2022-08-14T11:53:30Z</time>
      </trkpt>
      <trkpt lat="42.1376060" lon="-2.2883100">
        <ele>895.0</ele>
        <time>2022-08-14T11:53:32Z</time>
      </trkpt>
      <trkpt lat="42.1377240" lon="-2.2883360">
        <ele>895.5</ele>
        <time>2022-08-14T11:53:35Z</time>
      </trkpt>
      <trkpt lat="42.1378600" lon="-2.2884100">
        <ele>895.9</ele>
        <time>2022-08-14T11:53:39Z</time>
      </trkpt>
      <trkpt lat="42.1378930" lon="-2.2884370">
        <ele>896.0</ele>
        <time>2022-08-14T11:53:40Z</time>
      </trkpt>
      <trkpt lat="42.1379240" lon="-2.2884680">
        <ele>896.1</ele>
        <time>2022-08-14T11:53:41Z</time>
      </trkpt>
      <trkpt lat="42.1379540" lon="-2.2885010">
        <ele>896.1</ele>
        <time>2022-08-14T11:53:42Z</time>
      </trkpt>
      <trkpt lat="42.1381550" lon="-2.2887470">
        <ele>895.8</ele>
        <time>2022-08-14T11:53:48Z</time>
      </trkpt>
      <trkpt lat="42.1382130" lon="-2.2888540">
        <ele>895.5</ele>
        <time>2022-08-14T11:53:50Z</time>
      </trkpt>
      <trkpt lat="42.1383080" lon="-2.2890110">
        <ele>894.8</ele>
        <time>2022-08-14T11:53:53Z</time>
      </trkpt>
      <trkpt lat="42.1384370" lon="-2.2891750">
        <ele>893.8</ele>
        <time>2022-08-14T11:53:56Z</time>
      </trkpt>
      <trkpt lat="42.1384910" lon="-2.2892280">
        <ele>893.5</ele>
        <time>2022-08-14T11:53:57Z</time>
      </trkpt>
      <trkpt lat="42.1385630" lon="-2.2892830">
        <ele>893.0</ele>
        <time>2022-08-14T11:53:58Z</time>
      </trkpt>
      <trkpt lat="42.1386130" lon="-2.2893140">
        <ele>892.7</ele>
        <time>2022-08-14T11:53:59Z</time>
      </trkpt>
      <trkpt lat="42.1386800" lon="-2.2893440">
        <ele>892.2</ele>
        <time>2022-08-14T11:54:00Z</time>
      </trkpt>
      <trkpt lat="42.1387670" lon="-2.2893600">
        <ele>891.7</ele>
        <time>2022-08-14T11:54:01Z</time>
      </trkpt>
      <trkpt lat="42.1388270" lon="-2.2893590">
        <ele>891.3</ele>
        <time>2022-08-14T11:54:02Z</time>
      </trkpt>
      <trkpt lat="42.1389060" lon="-2.2893480">
        <ele>890.8</ele>
        <time>2022-08-14T11:54:03Z</time>
      </trkpt>
      <trkpt lat="42.1391580" lon="-2.2892200">
        <ele>889.1</ele>
        <time>2022-08-14T11:54:06Z</time>
      </trkpt>
      <trkpt lat="42.1392300" lon="-2.2891580">
        <ele>888.6</ele>
        <time>2022-08-14T11:54:07Z</time>
      </trkpt>
      <trkpt lat="42.1392950" lon="-2.2890790">
        <ele>888.0</ele>
        <time>2022-08-14T11:54:08Z</time>
      </trkpt>
      <trkpt lat="42.1393410" lon="-2.2890080">
        <ele>887.5</ele>
        <time>2022-08-14T11:54:09Z</time>
      </trkpt>
      <trkpt lat="42.1394070" lon="-2.2888960">
        <ele>886.8</ele>
        <time>2022-08-14T11:54:10Z</time>
      </trkpt>
      <trkpt lat="42.1394580" lon="-2.2887960">
        <ele>886.2</ele>
        <time>2022-08-14T11:54:11Z</time>
      </trkpt>
      <trkpt lat="42.1395570" lon="-2.2886000">
        <ele>885.0</ele>
        <time>2022-08-14T11:54:13Z</time>
      </trkpt>
      <trkpt lat="42.1395960" lon="-2.2885180">
        <ele>884.4</ele>
        <time>2022-08-14T11:54:14Z</time>
      </trkpt>
      <trkpt lat="42.1396600" lon="-2.2883990">
        <ele>883.6</ele>
        <time>2022-08-14T11:54:15Z</time>
      </trkpt>
      <trkpt lat="42.1397690" lon="-2.2882390">
        <ele>882.4</ele>
        <time>2022-08-14T11:54:17Z</time>
      </trkpt>
      <trkpt lat="42.1398360" lon="-2.2881610">
        <ele>881.7</ele>
        <time>2022-08-14T11:54:18Z</time>
      </trkpt>
      <trkpt lat="42.1399850" lon="-2.2880170">
        <ele>880.3</ele>
        <time>2022-08-14T11:54:20Z</time>
      </trkpt>
      <trkpt lat="42.1400790" lon="-2.2879420">
        <ele>879.4</ele>
        <time>2022-08-14T11:54:21Z</time>
      </trkpt>
      <trkpt lat="42.1402270" lon="-2.2878540">
        <ele>878.2</ele>
        <time>2022-08-14T11:54:23Z</time>
      </trkpt>
      <trkpt lat="42.1404230" lon="-2.2877760">
        <ele>876.9</ele>
        <time>2022-08-14T11:54:25Z</time>
      </trkpt>
      <trkpt lat="42.1406100" lon="-2.2877270">
        <ele>875.8</ele>
        <time>2022-08-14T11:54:27Z</time>
      </trkpt>
      <trkpt lat="42.1406820" lon="-2.2877120">
        <ele>875.5</ele>
        <time>2022-08-14T11:54:28Z</time>
      </trkpt>
      <trkpt lat="42.1409710" lon="-2.2876490">
        <ele>874.3</ele>
        <time>2022-08-14T11:54:31Z</time>
      </trkpt>
      <trkpt lat="42.1412390" lon="-2.2875960">
        <ele>873.5</ele>
        <time>2022-08-14T11:54:34Z</time>
      </trkpt>
      <trkpt lat="42.1413080" lon="-2.2875820">
        <ele>873.4</ele>
        <time>2022-08-14T11:54:35Z</time>
      </trkpt>
      <trkpt lat="42.1414750" lon="-2.2875480">
        <ele>873.2</ele>
        <time>2022-08-14T11:54:37Z</time>
      </trkpt>
      <trkpt lat="42.1415690" lon="-2.2875280">
        <ele>873.3</ele>
        <time>2022-08-14T11:54:38Z</time>
      </trkpt>
      <trkpt lat="42.1417810" lon="-2.2874870">
        <ele>873.8</ele>
        <time>2022-08-14T11:54:41Z</time>
      </trkpt>
      <trkpt lat="42.1419010" lon="-2.2874610">
        <ele>874.2</ele>
        <time>2022-08-14T11:54:43Z</time>
      </trkpt>
      <trkpt lat="42.1421040" lon="-2.2874030">
        <ele>875.0</ele>
        <time>2022-08-14T11:54:47Z</time>
      </trkpt>
      <trkpt lat="42.1421500" lon="-2.2873830">
        <ele>875.2</ele>
        <time>2022-08-14T11:54:48Z</time>
      </trkpt>
      <trkpt lat="42.1421960" lon="-2.2873580">
        <ele>875.5</ele>
        <time>2022-08-14T11:54:49Z</time>
      </trkpt>
      <trkpt lat="42.1422770" lon="-2.2873100">
        <ele>876.1</ele>
        <time>2022-08-14T11:54:51Z</time>
      </trkpt>
      <trkpt lat="42.1423740" lon="-2.2872320">
        <ele>876.8</ele>
        <time>2022-08-14T11:54:54Z</time>
      </trkpt>
      <trkpt lat="42.1424250" lon="-2.2871600">
        <ele>877.4</ele>
        <time>2022-08-14T11:54:56Z</time>
      </trkpt>
      <trkpt lat="42.1424910" lon="-2.2870490">
        <ele>878.2</ele>
        <time>2022-08-14T11:54:59Z</time>
      </trkpt>
      <trkpt lat="42.1425310" lon="-2.2869790">
        <ele>878.8</ele>
        <time>2022-08-14T11:55:01Z</time>
      </trkpt>
      <trkpt lat="42.1425580" lon="-2.2869080">
        <ele>879.3</ele>
        <time>2022-08-14T11:55:03Z</time>
      </trkpt>
      <trkpt lat="42.1425730" lon="-2.2868730">
        <ele>879.5</ele>
        <time>2022-08-14T11:55:04Z</time>
      </trkpt>
      <trkpt lat="42.1426140" lon="-2.2867710">
        <ele>880.3</ele>
        <time>2022-08-14T11:55:07Z</time>
      </trkpt>
      <trkpt lat="42.1426310" lon="-2.2867320">
        <ele>880.6</ele>
        <time>2022-08-14T11:55:08Z</time>
      </trkpt>
      <trkpt lat="42.1426570" lon="-2.2866670">
        <ele>881.2</ele>
        <time>2022-08-14T11:55:10Z</time>
      </trkpt>
      <trkpt lat="42.1427030" lon="-2.2865610">
        <ele>882.0</ele>
        <time>2022-08-14T11:55:13Z</time>
      </trkpt>
      <trkpt lat="42.1427180" lon="-2.2865260">
        <ele>882.3</ele>
        <time>2022-08-14T11:55:14Z</time>
      </trkpt>
      <trkpt lat="42.1427670" lon="-2.2864310">
        <ele>883.1</ele>
        <time>2022-08-14T11:55:17Z</time>
      </trkpt>
      <trkpt lat="42.1427830" lon="-2.2864000">
        <ele>883.4</ele>
        <time>2022-08-14T11:55:18Z</time>
      </trkpt>
      <trkpt lat="42.1428200" lon="-2.2863490">
        <ele>883.9</ele>
        <time>2022-08-14T11:55:20Z</time>
      </trkpt>
      <trkpt lat="42.1429050" lon="-2.2862450">
        <ele>885.0</ele>
        <time>2022-08-14T11:55:24Z</time>
      </trkpt>
      <trkpt lat="42.1430390" lon="-2.2861230">
        <ele>886.5</ele>
        <time>2022-08-14T11:55:30Z</time>
      </trkpt>
      <trkpt lat="42.1430590" lon="-2.2861090">
        <ele>886.7</ele>
        <time>2022-08-14T11:55:31Z</time>
      </trkpt>
      <trkpt lat="42.1431470" lon="-2.2860850">
        <ele>887.6</ele>
        <time>2022-08-14T11:55:35Z</time>
      </trkpt>
      <trkpt lat="42.1432030" lon="-2.2860700">
        <ele>888.1</ele>
        <time>2022-08-14T11:55:37Z</time>
      </trkpt>
      <trkpt lat="42.1433460" lon="-2.2860460">
        <ele>889.4</ele>
        <time>2022-08-14T11:55:42Z</time>
      </trkpt>
      <trkpt lat="42.1433780" lon="-2.2860490">
        <ele>889.6</ele>
        <time>2022-08-14T11:55:43Z</time>
      </trkpt>
      <trkpt lat="42.1434790" lon="-2.2860780">
        <ele>890.5</ele>
        <time>2022-08-14T11:55:47Z</time>
      </trkpt>
      <trkpt lat="42.1435030" lon="-2.2860820">
        <ele>890.7</ele>
        <time>2022-08-14T11:55:48Z</time>
      </trkpt>
      <trkpt lat="42.1436360" lon="-2.2861150">
        <ele>891.9</ele>
        <time>2022-08-14T11:55:54Z</time>
      </trkpt>
      <trkpt lat="42.1436560" lon="-2.2861200">
        <ele>892.0</ele>
        <time>2022-08-14T11:55:55Z</time>
      </trkpt>
      <trkpt lat="42.1437550" lon="-2.2861520">
        <ele>892.9</ele>
        <time>2022-08-14T11:56:00Z</time>
      </trkpt>
      <trkpt lat="42.1438680" lon="-2.2861900">
        <ele>893.8</ele>
        <time>2022-08-14T11:56:05Z</time>
      </trkpt>
      <trkpt lat="42.1438950" lon="-2.2861950">
        <ele>894.0</ele>
        <time>2022-08-14T11:56:06Z</time>
      </trkpt>
      <trkpt lat="42.1440500" lon="-2.2862070">
        <ele>895.2</ele>
        <time>2022-08-14T11:56:12Z</time>
      </trkpt>
      <trkpt lat="42.1440820" lon="-2.2862090">
        <ele>895.5</ele>
        <time>2022-08-14T11:56:14Z</time>
      </trkpt>
      <trkpt lat="42.1441820" lon="-2.2861990">
        <ele>896.3</ele>
        <time>2022-08-14T11:56:18Z</time>
      </trkpt>
      <trkpt lat="42.1442680" lon="-2.2861790">
        <ele>897.0</ele>
        <time>2022-08-14T11:56:22Z</time>
      </trkpt>
      <trkpt lat="42.1443150" lon="-2.2861610">
        <ele>897.3</ele>
        <time>2022-08-14T11:56:24Z</time>
      </trkpt>
      <trkpt lat="42.1443540" lon="-2.2861370">
        <ele>897.7</ele>
        <time>2022-08-14T11:56:26Z</time>
      </trkpt>
      <trkpt lat="42.1445040" lon="-2.2860120">
        <ele>899.0</ele>
        <time>2022-08-14T11:56:34Z</time>
      </trkpt>
      <trkpt lat="42.1445210" lon="-2.2859940">
        <ele>899.1</ele>
        <time>2022-08-14T11:56:35Z</time>
      </trkpt>
      <trkpt lat="42.1446220" lon="-2.2858500">
        <ele>900.2</ele>
        <time>2022-08-14T11:56:42Z</time>
      </trkpt>
      <trkpt lat="42.1446450" lon="-2.2858000">
        <ele>900.6</ele>
        <time>2022-08-14T11:56:44Z</time>
      </trkpt>
      <trkpt lat="42.1447040" lon="-2.2856100">
        <ele>901.6</ele>
        <time>2022-08-14T11:56:51Z</time>
      </trkpt>
      <trkpt lat="42.1447180" lon="-2.2855190">
        <ele>902.0</ele>
        <time>2022-08-14T11:56:54Z</time>
      </trkpt>
      <trkpt lat="42.1447330" lon="-2.2853600">
        <ele>902.7</ele>
        <time>2022-08-14T11:56:59Z</time>
      </trkpt>
      <trkpt lat="42.1447240" lon="-2.2852370">
        <ele>903.2</ele>
        <time>2022-08-14T11:57:03Z</time>
      </trkpt>
      <trkpt lat="42.1447150" lon="-2.2851070">
        <ele>903.7</ele>
        <time>2022-08-14T11:57:07Z</time>
      </trkpt>
      <trkpt lat="42.1447010" lon="-2.2850460">
        <ele>903.9</ele>
        <time>2022-08-14T11:57:09Z</time>
      </trkpt>
      <trkpt lat="42.1446450" lon="-2.2848160">
        <ele>904.6</ele>
        <time>2022-08-14T11:57:16Z</time>
      </trkpt>
      <trkpt lat="42.1445950" lon="-2.2846610">
        <ele>905.0</ele>
        <time>2022-08-14T11:57:20Z</time>
      </trkpt>
      <trkpt lat="42.1445530" lon="-2.2845380">
        <ele>905.3</ele>
        <time>2022-08-14T11:57:23Z</time>
      </trkpt>
      <trkpt lat="42.1445310" lon="-2.2844560">
        <ele>905.5</ele>
        <time>2022-08-14T11:57:25Z</time>
      </trkpt>
      <trkpt lat="42.1445100" lon="-2.2843770">
        <ele>905.6</ele>
        <time>2022-08-14T11:57:27Z</time>
      </trkpt>
      <trkpt lat="42.1444640" lon="-2.2842150">
        <ele>905.8</ele>
        <time>2022-08-14T11:57:31Z</time>
      </trkpt>
      <trkpt lat="42.1444350" lon="-2.2840880">
        <ele>906.0</ele>
        <time>2022-08-14T11:57:34Z</time>
      </trkpt>
      <trkpt lat="42.1443880" lon="-2.2838710">
        <ele>906.1</ele>
        <time>2022-08-14T11:57:40Z</time>
      </trkpt>
      <trkpt lat="42.1443470" lon="-2.2834520">
        <ele>905.9</ele>
        <time>2022-08-14T11:57:47Z</time>
      </trkpt>
      <trkpt lat="42.1443510" lon="-2.2832980">
        <ele>905.7</ele>
        <time>2022-08-14T11:57:50Z</time>
      </trkpt>
      <trkpt lat="42.1443620" lon="-2.2831930">
        <ele>905.5</ele>
        <time>2022-08-14T11:57:52Z</time>
      </trkpt>
      <trkpt lat="42.1443910" lon="-2.2830400">
        <ele>905.2</ele>
        <time>2022-08-14T11:57:55Z</time>
      </trkpt>
      <trkpt lat="42.1444210" lon="-2.2829440">
        <ele>905.0</ele>
        <time>2022-08-14T11:57:57Z</time>
      </trkpt>
      <trkpt lat="42.1444570" lon="-2.2828480">
        <ele>904.8</ele>
        <time>2022-08-14T11:57:59Z</time>
      </trkpt>
      <trkpt lat="42.1445240" lon="-2.2827020">
        <ele>904.4</ele>
        <time>2022-08-14T11:58:02Z</time>
      </trkpt>
      <trkpt lat="42.1446560" lon="-2.2825150">
        <ele>903.6</ele>
        <time>2022-08-14T11:58:06Z</time>
      </trkpt>
      <trkpt lat="42.1446960" lon="-2.2824720">
        <ele>903.3</ele>
        <time>2022-08-14T11:58:07Z</time>
      </trkpt>
      <trkpt lat="42.1447400" lon="-2.2824330">
        <ele>903.1</ele>
        <time>2022-08-14T11:58:08Z</time>
      </trkpt>
      <trkpt lat="42.1448400" lon="-2.2823620">
        <ele>902.5</ele>
        <time>2022-08-14T11:58:10Z</time>
      </trkpt>
      <trkpt lat="42.1450160" lon="-2.2822730">
        <ele>901.5</ele>
        <time>2022-08-14T11:58:13Z</time>
      </trkpt>
      <trkpt lat="42.1450810" lon="-2.2822550">
        <ele>901.2</ele>
        <time>2022-08-14T11:58:14Z</time>
      </trkpt>
      <trkpt lat="42.1452970" lon="-2.2822430">
        <ele>900.0</ele>
        <time>2022-08-14T11:58:17Z</time>
      </trkpt>
      <trkpt lat="42.1456250" lon="-2.2822560">
        <ele>898.1</ele>
        <time>2022-08-14T11:58:21Z</time>
      </trkpt>
      <trkpt lat="42.1458040" lon="-2.2822490">
        <ele>896.8</ele>
        <time>2022-08-14T11:58:23Z</time>
      </trkpt>
      <trkpt lat="42.1458960" lon="-2.2822310">
        <ele>896.1</ele>
        <time>2022-08-14T11:58:24Z</time>
      </trkpt>
      <trkpt lat="42.1460750" lon="-2.2821400">
        <ele>894.6</ele>
        <time>2022-08-14T11:58:26Z</time>
      </trkpt>
      <trkpt lat="42.1462390" lon="-2.2819770">
        <ele>893.1</ele>
        <time>2022-08-14T11:58:28Z</time>
      </trkpt>
      <trkpt lat="42.1463090" lon="-2.2818750">
        <ele>892.4</ele>
        <time>2022-08-14T11:58:29Z</time>
      </trkpt>
      <trkpt lat="42.1463670" lon="-2.2817620">
        <ele>891.6</ele>
        <time>2022-08-14T11:58:30Z</time>
      </trkpt>
      <trkpt lat="42.1464400" lon="-2.2814980">
        <ele>889.9</ele>
        <time>2022-08-14T11:58:32Z</time>
      </trkpt>
      <trkpt lat="42.1464510" lon="-2.2813490">
        <ele>889.0</ele>
        <time>2022-08-14T11:58:33Z</time>
      </trkpt>
      <trkpt lat="42.1464290" lon="-2.2811910">
        <ele>888.0</ele>
        <time>2022-08-14T11:58:34Z</time>
      </trkpt>
      <trkpt lat="42.1464040" lon="-2.2810420">
        <ele>886.9</ele>
        <time>2022-08-14T11:58:35Z</time>
      </trkpt>
      <trkpt lat="42.1463270" lon="-2.2807500">
        <ele>884.7</ele>
        <time>2022-08-14T11:58:37Z</time>
      </trkpt>
      <trkpt lat="42.1462450" lon="-2.2804620">
        <ele>882.6</ele>
        <time>2022-08-14T11:58:39Z</time>
      </trkpt>
      <trkpt lat="42.1462020" lon="-2.2803140">
        <ele>881.5</ele>
        <time>2022-08-14T11:58:40Z</time>
      </trkpt>
      <trkpt lat="42.1461610" lon="-2.2801630">
        <ele>880.4</ele>
        <time>2022-08-14T11:58:41Z</time>
      </trkpt>
      <trkpt lat="42.1461140" lon="-2.2798500">
        <ele>878.2</ele>
        <time>2022-08-14T11:58:43Z</time>
      </trkpt>
      <trkpt lat="42.1461100" lon="-2.2796860">
        <ele>877.0</ele>
        <time>2022-08-14T11:58:44Z</time>
      </trkpt>
      <trkpt lat="42.1461150" lon="-2.2795200">
        <ele>875.8</ele>
        <time>2022-08-14T11:58:45Z</time>
      </trkpt>
      <trkpt lat="42.1461300" lon="-2.2793550">
        <ele>874.6</ele>
        <time>2022-08-14T11:58:46Z</time>
      </trkpt>
      <trkpt lat="42.1461560" lon="-2.2791870">
        <ele>873.5</ele>
        <time>2022-08-14T11:58:47Z</time>
      </trkpt>
      <trkpt lat="42.1461940" lon="-2.2790290">
        <ele>872.4</ele>
        <time>2022-08-14T11:58:48Z</time>
      </trkpt>
      <trkpt lat="42.1463000" lon="-2.2787360">
        <ele>870.3</ele>
        <time>2022-08-14T11:58:50Z</time>
      </trkpt>
      <trkpt lat="42.1463680" lon="-2.2786050">
        <ele>869.6</ele>
        <time>2022-08-14T11:58:51Z</time>
      </trkpt>
      <trkpt lat="42.1464440" lon="-2.2784840">
        <ele>868.9</ele>
        <time>2022-08-14T11:58:52Z</time>
      </trkpt>
      <trkpt lat="42.1465260" lon="-2.2783730">
        <ele>868.2</ele>
        <time>2022-08-14T11:58:53Z</time>
      </trkpt>
      <trkpt lat="42.1466130" lon="-2.2782760">
        <ele>867.5</ele>
        <time>2022-08-14T11:58:54Z</time>
      </trkpt>
      <trkpt lat="42.1467030" lon="-2.2781910">
        <ele>866.9</ele>
        <time>2022-08-14T11:58:55Z</time>
      </trkpt>
      <trkpt lat="42.1467970" lon="-2.2781200">
        <ele>866.3</ele>
        <time>2022-08-14T11:58:56Z</time>
      </trkpt>
      <trkpt lat="42.1468930" lon="-2.2780610">
        <ele>865.7</ele>
        <time>2022-08-14T11:58:57Z</time>
      </trkpt>
      <trkpt lat="42.1469910" lon="-2.2780150">
        <ele>865.2</ele>
        <time>2022-08-14T11:58:58Z</time>
      </trkpt>
      <trkpt lat="42.1470910" lon="-2.2779810">
        <ele>864.8</ele>
        <time>2022-08-14T11:58:59Z</time>
      </trkpt>
      <trkpt lat="42.1472090" lon="-2.2779500">
        <ele>864.4</ele>
        <time>2022-08-14T11:59:00Z</time>
      </trkpt>
      <trkpt lat="42.1472890" lon="-2.2779360">
        <ele>864.1</ele>
        <time>2022-08-14T11:59:01Z</time>
      </trkpt>
      <trkpt lat="42.1474060" lon="-2.2779330">
        <ele>863.7</ele>
        <time>2022-08-14T11:59:02Z</time>
      </trkpt>
      <trkpt lat="42.1475070" lon="-2.2779440">
        <ele>863.3</ele>
        <time>2022-08-14T11:59:03Z</time>
      </trkpt>
      <trkpt lat="42.1475860" lon="-2.2779690">
        <ele>863.0</ele>
        <time>2022-08-14T11:59:04Z</time>
      </trkpt>
      <trkpt lat="42.1476830" lon="-2.2780060">
        <ele>862.6</ele>
        <time>2022-08-14T11:59:05Z</time>
      </trkpt>
      <trkpt lat="42.1479710" lon="-2.2781250">
        <ele>861.3</ele>
        <time>2022-08-14T11:59:08Z</time>
      </trkpt>
      <trkpt lat="42.1481640" lon="-2.2782240">
        <ele>860.3</ele>
        <time>2022-08-14T11:59:10Z</time>
      </trkpt>
      <trkpt lat="42.1483800" lon="-2.2783420">
        <ele>859.2</ele>
        <time>2022-08-14T11:59:12Z</time>
      </trkpt>
      <trkpt lat="42.1484800" lon="-2.2783930">
        <ele>858.7</ele>
        <time>2022-08-14T11:59:13Z</time>
      </trkpt>
      <trkpt lat="42.1486600" lon="-2.2784910">
        <ele>857.6</ele>
        <time>2022-08-14T11:59:15Z</time>
      </trkpt>
      <trkpt lat="42.1488780" lon="-2.2786060">
        <ele>856.1</ele>
        <time>2022-08-14T11:59:17Z</time>
      </trkpt>
      <trkpt lat="42.1490810" lon="-2.2787070">
        <ele>854.7</ele>
        <time>2022-08-14T11:59:19Z</time>
      </trkpt>
      <trkpt lat="42.1492900" lon="-2.2788200">
        <ele>852.8</ele>
        <time>2022-08-14T11:59:21Z</time>
      </trkpt>
      <trkpt lat="42.1493960" lon="-2.2788800">
        <ele>851.9</ele>
        <time>2022-08-14T11:59:22Z</time>
      </trkpt>
      <trkpt lat="42.1496100" lon="-2.2789950">
        <ele>850.2</ele>
        <time>2022-08-14T11:59:24Z</time>
      </trkpt>
      <trkpt lat="42.1498250" lon="-2.2791160">
        <ele>848.5</ele>
        <time>2022-08-14T11:59:26Z</time>
      </trkpt>
      <trkpt lat="42.1500430" lon="-2.2792210">
        <ele>847.0</ele>
        <time>2022-08-14T11:59:28Z</time>
      </trkpt>
      <trkpt lat="42.1502670" lon="-2.2792380">
        <ele>845.4</ele>
        <time>2022-08-14T11:59:30Z</time>
      </trkpt>
      <trkpt lat="42.1503830" lon="-2.2791980">
        <ele>844.3</ele>
        <time>2022-08-14T11:59:31Z</time>
      </trkpt>
      <trkpt lat="42.1504880" lon="-2.2791270">
        <ele>843.3</ele>
        <time>2022-08-14T11:59:32Z</time>
      </trkpt>
      <trkpt lat="42.1505880" lon="-2.2790280">
        <ele>842.0</ele>
        <time>2022-08-14T11:59:33Z</time>
      </trkpt>
      <trkpt lat="42.1506780" lon="-2.2789070">
        <ele>840.7</ele>
        <time>2022-08-14T11:59:34Z</time>
      </trkpt>
      <trkpt lat="42.1507510" lon="-2.2787650">
        <ele>839.2</ele>
        <time>2022-08-14T11:59:35Z</time>
      </trkpt>
      <trkpt lat="42.1508060" lon="-2.2786040">
        <ele>837.8</ele>
        <time>2022-08-14T11:59:36Z</time>
      </trkpt>
      <trkpt lat="42.1508390" lon="-2.2784280">
        <ele>836.4</ele>
        <time>2022-08-14T11:59:37Z</time>
      </trkpt>
      <trkpt lat="42.1508380" lon="-2.2782460">
        <ele>835.0</ele>
        <time>2022-08-14T11:59:38Z</time>
      </trkpt>
      <trkpt lat="42.1507680" lon="-2.2778810">
        <ele>832.3</ele>
        <time>2022-08-14T11:59:40Z</time>
      </trkpt>
      <trkpt lat="42.1506900" lon="-2.2777230">
        <ele>830.8</ele>
        <time>2022-08-14T11:59:41Z</time>
      </trkpt>
      <trkpt lat="42.1505900" lon="-2.2775830">
        <ele>829.3</ele>
        <time>2022-08-14T11:59:42Z</time>
      </trkpt>
      <trkpt lat="42.1504690" lon="-2.2774570">
        <ele>827.8</ele>
        <time>2022-08-14T11:59:43Z</time>
      </trkpt>
      <trkpt lat="42.1502050" lon="-2.2772200">
        <ele>824.7</ele>
        <time>2022-08-14T11:59:45Z</time>
      </trkpt>
      <trkpt lat="42.1500800" lon="-2.2771000">
        <ele>823.2</ele>
        <time>2022-08-14T11:59:46Z</time>
      </trkpt>
      <trkpt lat="42.1498540" lon="-2.2768820">
        <ele>820.5</ele>
        <time>2022-08-14T11:59:48Z</time>
      </trkpt>
      <trkpt lat="42.1495700" lon="-2.2766240">
        <ele>817.5</ele>
        <time>2022-08-14T11:59:50Z</time>
      </trkpt>
      <trkpt lat="42.1493090" lon="-2.2763790">
        <ele>814.7</ele>
        <time>2022-08-14T11:59:52Z</time>
      </trkpt>
      <trkpt lat="42.1491760" lon="-2.2762610">
        <ele>813.3</ele>
        <time>2022-08-14T11:59:53Z</time>
      </trkpt>
      <trkpt lat="42.1490460" lon="-2.2761440">
        <ele>812.0</ele>
        <time>2022-08-14T11:59:54Z</time>
      </trkpt>
      <trkpt lat="42.1489230" lon="-2.2760140">
        <ele>810.7</ele>
        <time>2022-08-14T11:59:55Z</time>
      </trkpt>
      <trkpt lat="42.1488090" lon="-2.2758720">
        <ele>809.5</ele>
        <time>2022-08-14T11:59:56Z</time>
      </trkpt>
      <trkpt lat="42.1487060" lon="-2.2757210">
        <ele>808.3</ele>
        <time>2022-08-14T11:59:57Z</time>
      </trkpt>
      <trkpt lat="42.1486170" lon="-2.2755510">
        <ele>807.1</ele>
        <time>2022-08-14T11:59:58Z</time>
      </trkpt>
      <trkpt lat="42.1485440" lon="-2.2753620">
        <ele>805.8</ele>
        <time>2022-08-14T11:59:59Z</time>
      </trkpt>
      <trkpt lat="42.1484860" lon="-2.2751700">
        <ele>804.5</ele>
        <time>2022-08-14T12:00:00Z</time>
      </trkpt>
      <trkpt lat="42.1483990" lon="-2.2747850">
        <ele>801.9</ele>
        <time>2022-08-14T12:00:02Z</time>
      </trkpt>
      <trkpt lat="42.1483780" lon="-2.2745840">
        <ele>800.6</ele>
        <time>2022-08-14T12:00:03Z</time>
      </trkpt>
      <trkpt lat="42.1483710" lon="-2.2743810">
        <ele>799.4</ele>
        <time>2022-08-14T12:00:04Z</time>
      </trkpt>
      <trkpt lat="42.1483760" lon="-2.2741820">
        <ele>798.2</ele>
        <time>2022-08-14T12:00:05Z</time>
      </trkpt>
      <trkpt lat="42.1483910" lon="-2.2739860">
        <ele>797.0</ele>
        <time>2022-08-14T12:00:06Z</time>
      </trkpt>
      <trkpt lat="42.1484100" lon="-2.2737940">
        <ele>795.7</ele>
        <time>2022-08-14T12:00:07Z</time>
      </trkpt>
      <trkpt lat="42.1484310" lon="-2.2734870">
        <ele>793.8</ele>
        <time>2022-08-14T12:00:09Z</time>
      </trkpt>
      <trkpt lat="42.1484270" lon="-2.2732990">
        <ele>792.7</ele>
        <time>2022-08-14T12:00:10Z</time>
      </trkpt>
      <trkpt lat="42.1484110" lon="-2.2731120">
        <ele>791.5</ele>
        <time>2022-08-14T12:00:11Z</time>
      </trkpt>
      <trkpt lat="42.1483720" lon="-2.2728560">
        <ele>790.0</ele>
        <time>2022-08-14T12:00:12Z</time>
      </trkpt>
      <trkpt lat="42.1482820" lon="-2.2725100">
        <ele>788.4</ele>
        <time>2022-08-14T12:00:14Z</time>
      </trkpt>
      <trkpt lat="42.1481690" lon="-2.2721720">
        <ele>785.9</ele>
        <time>2022-08-14T12:00:16Z</time>
      </trkpt>
      <trkpt lat="42.1481110" lon="-2.2720010">
        <ele>784.7</ele>
        <time>2022-08-14T12:00:17Z</time>
      </trkpt>
      <trkpt lat="42.1480540" lon="-2.2718340">
        <ele>783.6</ele>
        <time>2022-08-14T12:00:18Z</time>
      </trkpt>
      <trkpt lat="42.1479970" lon="-2.2716680">
        <ele>782.7</ele>
        <time>2022-08-14T12:00:19Z</time>
      </trkpt>
      <trkpt lat="42.1479420" lon="-2.2715040">
        <ele>781.9</ele>
        <time>2022-08-14T12:00:20Z</time>
      </trkpt>
      <trkpt lat="42.1478910" lon="-2.2713470">
        <ele>781.2</ele>
        <time>2022-08-14T12:00:21Z</time>
      </trkpt>
      <trkpt lat="42.1477940" lon="-2.2710720">
        <ele>780.0</ele>
        <time>2022-08-14T12:00:23Z</time>
      </trkpt>
      <trkpt lat="42.1477520" lon="-2.2709460">
        <ele>779.4</ele>
        <time>2022-08-14T12:00:24Z</time>
      </trkpt>
      <trkpt lat="42.1476900" lon="-2.2707300">
        <ele>778.6</ele>
        <time>2022-08-14T12:00:26Z</time>
      </trkpt>
      <trkpt lat="42.1476590" lon="-2.2705890">
        <ele>778.3</ele>
        <time>2022-08-14T12:00:27Z</time>
      </trkpt>
      <trkpt lat="42.1476420" lon="-2.2704680">
        <ele>778.1</ele>
        <time>2022-08-14T12:00:28Z</time>
      </trkpt>
      <trkpt lat="42.1476140" lon="-2.2702350">
        <ele>777.8</ele>
        <time>2022-08-14T12:00:30Z</time>
      </trkpt>
      <trkpt lat="42.1476210" lon="-2.2700150">
        <ele>777.8</ele>
        <time>2022-08-14T12:00:32Z</time>
      </trkpt>
      <trkpt lat="42.1476400" lon="-2.2699130">
        <ele>777.9</ele>
        <time>2022-08-14T12:00:33Z</time>
      </trkpt>
      <trkpt lat="42.1476600" lon="-2.2698390">
        <ele>778.0</ele>
        <time>2022-08-14T12:00:34Z</time>
      </trkpt>
      <trkpt lat="42.1477030" lon="-2.2696590">
        <ele>778.2</ele>
        <time>2022-08-14T12:00:36Z</time>
      </trkpt>
      <trkpt lat="42.1477220" lon="-2.2695840">
        <ele>778.2</ele>
        <time>2022-08-14T12:00:37Z</time>
      </trkpt>
      <trkpt lat="42.1477340" lon="-2.2695260">
        <ele>778.2</ele>
        <time>2022-08-14T12:00:38Z</time>
      </trkpt>
      <trkpt lat="42.1477630" lon="-2.2693810">
        <ele>778.3</ele>
        <time>2022-08-14T12:00:40Z</time>
      </trkpt>
      <trkpt lat="42.1477890" lon="-2.2692630">
        <ele>778.4</ele>
        <time>2022-08-14T12:00:42Z</time>
      </trkpt>
      <trkpt lat="42.1478170" lon="-2.2691550">
        <ele>778.5</ele>
        <time>2022-08-14T12:00:44Z</time>
      </trkpt>
      <trkpt lat="42.1478420" lon="-2.2690690">
        <ele>778.6</ele>
        <time>2022-08-14T12:00:46Z</time>
      </trkpt>
      <trkpt lat="42.1478540" lon="-2.2690310">
        <ele>778.7</ele>
        <time>2022-08-14T12:00:47Z</time>
      </trkpt>
      <trkpt lat="42.1478720" lon="-2.2689670">
        <ele>778.8</ele>
        <time>2022-08-14T12:00:49Z</time>
      </trkpt>
      <trkpt lat="42.1478920" lon="-2.2689210">
        <ele>778.9</ele>
        <time>2022-08-14T12:00:51Z</time>
      </trkpt>
      <trkpt lat="42.1479140" lon="-2.2688770">
        <ele>779.0</ele>
        <time>2022-08-14T12:00:53Z</time>
      </trkpt>
      <trkpt lat="42.1479260" lon="-2.2688610">
        <ele>779.1</ele>
        <time>2022-08-14T12:00:54Z</time>
      </trkpt>
      <trkpt lat="42.1479600" lon="-2.2688190">
        <ele>779.2</ele>
        <time>2022-08-14T12:00:56Z</time>
      </trkpt>
      <trkpt lat="42.1480300" lon="-2.2687220">
        <ele>779.4</ele>
        <time>2022-08-14T12:01:00Z</time>
      </trkpt>
      <trkpt lat="42.1480490" lon="-2.2686840">
        <ele>779.5</ele>
        <time>2022-08-14T12:01:01Z</time>
      </trkpt>
      <trkpt lat="42.1481180" lon="-2.2685560">
        <ele>779.7</ele>
        <time>2022-08-14T12:01:04Z</time>
      </trkpt>
      <trkpt lat="42.1481920" lon="-2.2684270">
        <ele>779.9</ele>
        <time>2022-08-14T12:01:07Z</time>
      </trkpt>
      <trkpt lat="42.1483320" lon="-2.2682250">
        <ele>780.2</ele>
        <time>2022-08-14T12:01:12Z</time>
      </trkpt>
      <trkpt lat="42.1483590" lon="-2.2681840">
        <ele>780.2</ele>
        <time>2022-08-14T12:01:13Z</time>
      </trkpt>
      <trkpt lat="42.1484470" lon="-2.2680630">
        <ele>780.3</ele>
        <time>2022-08-14T12:01:17Z</time>
      </trkpt>
      <trkpt lat="42.1484750" lon="-2.2680400">
        <ele>780.3</ele>
        <time>2022-08-14T12:01:18Z</time>
      </trkpt>
      <trkpt lat="42.1485320" lon="-2.2680000">
        <ele>780.4</ele>
        <time>2022-08-14T12:01:21Z</time>
      </trkpt>
      <trkpt lat="42.1485590" lon="-2.2679670">
        <ele>780.4</ele>
        <time>2022-08-14T12:01:23Z</time>
      </trkpt>
      <trkpt lat="42.1485660" lon="-2.2679520">
        <ele>780.4</ele>
        <time>2022-08-14T12:01:24Z</time>
      </trkpt>
      <trkpt lat="42.1485670" lon="-2.2679470">
        <ele>780.4</ele>
        <time>2022-08-14T12:01:25Z</time>
      </trkpt>
      <trkpt lat="42.1487030" lon="-2.2677960">
        <ele>780.2</ele>
        <time>2022-08-15T06:02:45Z</time>
      </trkpt>
      <trkpt lat="42.1486910" lon="-2.2678010">
        <ele>780.2</ele>
        <time>2022-08-15T06:02:46Z</time>
      </trkpt>
      <trkpt lat="42.1486550" lon="-2.2678190">
        <ele>780.3</ele>
        <time>2022-08-15T06:02:47Z</time>
      </trkpt>
      <trkpt lat="42.1486260" lon="-2.2679090">
        <ele>780.4</ele>
        <time>2022-08-15T06:02:49Z</time>
      </trkpt>
      <trkpt lat="42.1484550" lon="-2.2679130">
        <ele>780.3</ele>
        <time>2022-08-15T06:02:52Z</time>
      </trkpt>
      <trkpt lat="42.1483790" lon="-2.2679590">
        <ele>780.3</ele>
        <time>2022-08-15T06:02:55Z</time>
      </trkpt>
      <trkpt lat="42.1482580" lon="-2.2681690">
        <ele>780.1</ele>
        <time>2022-08-15T06:03:01Z</time>
      </trkpt>
      <trkpt lat="42.1481500" lon="-2.2683620">
        <ele>779.9</ele>
        <time>2022-08-15T06:03:06Z</time>
      </trkpt>
      <trkpt lat="42.1481280" lon="-2.2683960">
        <ele>779.8</ele>
        <time>2022-08-15T06:03:07Z</time>
      </trkpt>
      <trkpt lat="42.1480810" lon="-2.2684580">
        <ele>779.7</ele>
        <time>2022-08-15T06:03:09Z</time>
      </trkpt>
      <trkpt lat="42.1480370" lon="-2.2685250">
        <ele>779.6</ele>
        <time>2022-08-15T06:03:11Z</time>
      </trkpt>
      <trkpt lat="42.1479920" lon="-2.2686070">
        <ele>779.5</ele>
        <time>2022-08-15T06:03:13Z</time>
      </trkpt>
      <trkpt lat="42.1479420" lon="-2.2687000">
        <ele>779.3</ele>
        <time>2022-08-15T06:03:15Z</time>
      </trkpt>
      <trkpt lat="42.1478960" lon="-2.2688180">
        <ele>779.1</ele>
        <time>2022-08-15T06:03:17Z</time>
      </trkpt>
      <trkpt lat="42.1477780" lon="-2.2690870">
        <ele>778.6</ele>
        <time>2022-08-15T06:03:21Z</time>
      </trkpt>
      <trkpt lat="42.1477570" lon="-2.2691630">
        <ele>778.5</ele>
        <time>2022-08-15T06:03:22Z</time>
      </trkpt>
      <trkpt lat="42.1477200" lon="-2.2693130">
        <ele>778.3</ele>
        <time>2022-08-15T06:03:24Z</time>
      </trkpt>
      <trkpt lat="42.1476880" lon="-2.2694660">
        <ele>778.2</ele>
        <time>2022-08-15T06:03:26Z</time>
      </trkpt>
      <trkpt lat="42.1476520" lon="-2.2696300">
        <ele>778.2</ele>
        <time>2022-08-15T06:03:28Z</time>
      </trkpt>
      <trkpt lat="42.1476300" lon="-2.2697710">
        <ele>778.0</ele>
        <time>2022-08-15T06:03:30Z</time>
      </trkpt>
      <trkpt lat="42.1476220" lon="-2.2698380">
        <ele>778.0</ele>
        <time>2022-08-15T06:03:31Z</time>
      </trkpt>
      <trkpt lat="42.1476210" lon="-2.2699040">
        <ele>777.9</ele>
        <time>2022-08-15T06:03:32Z</time>
      </trkpt>
      <trkpt lat="42.1476260" lon="-2.2700240">
        <ele>777.8</ele>
        <time>2022-08-15T06:03:34Z</time>
      </trkpt>
      <trkpt lat="42.1476320" lon="-2.2700770">
        <ele>777.8</ele>
        <time>2022-08-15T06:03:35Z</time>
      </trkpt>
      <trkpt lat="42.1476400" lon="-2.2701240">
        <ele>777.8</ele>
        <time>2022-08-15T06:03:36Z</time>
      </trkpt>
      <trkpt lat="42.1476450" lon="-2.2701690">
        <ele>777.8</ele>
        <time>2022-08-15T06:03:37Z</time>
      </trkpt>
      <trkpt lat="42.1476550" lon="-2.2703020">
        <ele>777.9</ele>
        <time>2022-08-15T06:03:40Z</time>
      </trkpt>
      <trkpt lat="42.1476490" lon="-2.2703360">
        <ele>777.9</ele>
        <time>2022-08-15T06:03:41Z</time>
      </trkpt>
      <trkpt lat="42.1476340" lon="-2.2703580">
        <ele>778.0</ele>
        <time>2022-08-15T06:03:42Z</time>
      </trkpt>
      <trkpt lat="42.1475900" lon="-2.2703910">
        <ele>778.3</ele>
        <time>2022-08-15T06:03:44Z</time>
      </trkpt>
      <trkpt lat="42.1474940" lon="-2.2703870">
        <ele>778.4</ele>
        <time>2022-08-15T06:03:47Z</time>
      </trkpt>
      <trkpt lat="42.1474110" lon="-2.2703840">
        <ele>778.4</ele>
        <time>2022-08-15T06:03:49Z</time>
      </trkpt>
      <trkpt lat="42.1473670" lon="-2.2703790">
        <ele>778.4</ele>
        <time>2022-08-15T06:03:50Z</time>
      </trkpt>
      <trkpt lat="42.1472770" lon="-2.2703670">
        <ele>778.4</ele>
        <time>2022-08-15T06:03:52Z</time>
      </trkpt>
      <trkpt lat="42.1472080" lon="-2.2703300">
        <ele>777.8</ele>
        <time>2022-08-15T06:03:54Z</time>
      </trkpt>
      <trkpt lat="42.1472200" lon="-2.2702660">
        <ele>777.6</ele>
        <time>2022-08-15T06:03:55Z</time>
      </trkpt>
      <trkpt lat="42.1472020" lon="-2.2702150">
        <ele>777.4</ele>
        <time>2022-08-15T06:03:56Z</time>
      </trkpt>
      <trkpt lat="42.1471870" lon="-2.2701630">
        <ele>777.2</ele>
        <time>2022-08-15T06:03:57Z</time>
      </trkpt>
      <trkpt lat="42.1471620" lon="-2.2700690">
        <ele>776.9</ele>
        <time>2022-08-15T06:03:59Z</time>
      </trkpt>
      <trkpt lat="42.1471420" lon="-2.2699580">
        <ele>776.8</ele>
        <time>2022-08-15T06:04:01Z</time>
      </trkpt>
      <trkpt lat="42.1471290" lon="-2.2699000">
        <ele>776.7</ele>
        <time>2022-08-15T06:04:02Z</time>
      </trkpt>
      <trkpt lat="42.1471190" lon="-2.2698410">
        <ele>776.7</ele>
        <time>2022-08-15T06:04:03Z</time>
      </trkpt>
      <trkpt lat="42.1471030" lon="-2.2697260">
        <ele>776.8</ele>
        <time>2022-08-15T06:04:05Z</time>
      </trkpt>
      <trkpt lat="42.1470520" lon="-2.2694610">
        <ele>777.4</ele>
        <time>2022-08-15T06:04:10Z</time>
      </trkpt>
      <trkpt lat="42.1469470" lon="-2.2692700">
        <ele>778.2</ele>
        <time>2022-08-15T06:04:14Z</time>
      </trkpt>
      <trkpt lat="42.1469250" lon="-2.2691780">
        <ele>778.5</ele>
        <time>2022-08-15T06:04:16Z</time>
      </trkpt>
      <trkpt lat="42.1468530" lon="-2.2688910">
        <ele>779.4</ele>
        <time>2022-08-15T06:04:22Z</time>
      </trkpt>
      <trkpt lat="42.1468020" lon="-2.2688140">
        <ele>779.8</ele>
        <time>2022-08-15T06:04:24Z</time>
      </trkpt>
      <trkpt lat="42.1466910" lon="-2.2686510">
        <ele>780.7</ele>
        <time>2022-08-15T06:04:29Z</time>
      </trkpt>
      <trkpt lat="42.1466610" lon="-2.2686330">
        <ele>780.8</ele>
        <time>2022-08-15T06:04:30Z</time>
      </trkpt>
      <trkpt lat="42.1465400" lon="-2.2685790">
        <ele>781.5</ele>
        <time>2022-08-15T06:04:38Z</time>
      </trkpt>
      <trkpt lat="42.1465120" lon="-2.2685660">
        <ele>781.6</ele>
        <time>2022-08-15T06:04:39Z</time>
      </trkpt>
      <trkpt lat="42.1464260" lon="-2.2685260">
        <ele>782.0</ele>
        <time>2022-08-15T06:04:42Z</time>
      </trkpt>
      <trkpt lat="42.1462500" lon="-2.2684770">
        <ele>782.8</ele>
        <time>2022-08-15T06:04:47Z</time>
      </trkpt>
      <trkpt lat="42.1460960" lon="-2.2684260">
        <ele>783.4</ele>
        <time>2022-08-15T06:04:52Z</time>
      </trkpt>
      <trkpt lat="42.1460320" lon="-2.2684130">
        <ele>783.7</ele>
        <time>2022-08-15T06:04:54Z</time>
      </trkpt>
      <trkpt lat="42.1459380" lon="-2.2684110">
        <ele>784.0</ele>
        <time>2022-08-15T06:04:57Z</time>
      </trkpt>
      <trkpt lat="42.1458530" lon="-2.2684220">
        <ele>784.4</ele>
        <time>2022-08-15T06:05:00Z</time>
      </trkpt>
      <trkpt lat="42.1457420" lon="-2.2684150">
        <ele>784.8</ele>
        <time>2022-08-15T06:05:04Z</time>
      </trkpt>
      <trkpt lat="42.1456370" lon="-2.2684150">
        <ele>785.4</ele>
        <time>2022-08-15T06:05:08Z</time>
      </trkpt>
      <trkpt lat="42.1456090" lon="-2.2684140">
        <ele>785.5</ele>
        <time>2022-08-15T06:05:09Z</time>
      </trkpt>
      <trkpt lat="42.1455580" lon="-2.2684140">
        <ele>785.7</ele>
        <time>2022-08-15T06:05:11Z</time>
      </trkpt>
      <trkpt lat="42.1453910" lon="-2.2683810">
        <ele>786.6</ele>
        <time>2022-08-15T06:05:18Z</time>
      </trkpt>
      <trkpt lat="42.1453240" lon="-2.2683530">
        <ele>787.1</ele>
        <time>2022-08-15T06:05:21Z</time>
      </trkpt>
      <trkpt lat="42.1452280" lon="-2.2682870">
        <ele>787.7</ele>
        <time>2022-08-15T06:05:25Z</time>
      </trkpt>
      <trkpt lat="42.1452040" lon="-2.2682770">
        <ele>787.8</ele>
        <time>2022-08-15T06:05:26Z</time>
      </trkpt>
      <trkpt lat="42.1451800" lon="-2.2682630">
        <ele>788.0</ele>
        <time>2022-08-15T06:05:27Z</time>
      </trkpt>
      <trkpt lat="42.1450170" lon="-2.2681450">
        <ele>789.1</ele>
        <time>2022-08-15T06:05:34Z</time>
      </trkpt>
      <trkpt lat="42.1449930" lon="-2.2681260">
        <ele>789.2</ele>
        <time>2022-08-15T06:05:35Z</time>
      </trkpt>
      <trkpt lat="42.1448090" lon="-2.2679780">
        <ele>790.3</ele>
        <time>2022-08-15T06:05:43Z</time>
      </trkpt>
      <trkpt lat="42.1447660" lon="-2.2679420">
        <ele>790.5</ele>
        <time>2022-08-15T06:05:45Z</time>
      </trkpt>
      <trkpt lat="42.1447210" lon="-2.2679000">
        <ele>790.8</ele>
        <time>2022-08-15T06:05:47Z</time>
      </trkpt>
      <trkpt lat="42.1446050" lon="-2.2678020">
        <ele>791.4</ele>
        <time>2022-08-15T06:05:52Z</time>
      </trkpt>
      <trkpt lat="42.1445560" lon="-2.2677710">
        <ele>791.7</ele>
        <time>2022-08-15T06:05:54Z</time>
      </trkpt>
      <trkpt lat="42.1444390" lon="-2.2676670">
        <ele>792.4</ele>
        <time>2022-08-15T06:05:59Z</time>
      </trkpt>
      <trkpt lat="42.1443460" lon="-2.2675920">
        <ele>792.9</ele>
        <time>2022-08-15T06:06:03Z</time>
      </trkpt>
      <trkpt lat="42.1442320" lon="-2.2674860">
        <ele>793.6</ele>
        <time>2022-08-15T06:06:08Z</time>
      </trkpt>
      <trkpt lat="42.1442090" lon="-2.2674650">
        <ele>793.8</ele>
        <time>2022-08-15T06:06:09Z</time>
      </trkpt>
      <trkpt lat="42.1441280" lon="-2.2673770">
        <ele>794.4</ele>
        <time>2022-08-15T06:06:13Z</time>
      </trkpt>
      <trkpt lat="42.1441070" lon="-2.2673520">
        <ele>794.5</ele>
        <time>2022-08-15T06:06:15Z</time>
      </trkpt>
      <trkpt lat="42.1439580" lon="-2.2671890">
        <ele>795.5</ele>
        <time>2022-08-15T06:06:21Z</time>
      </trkpt>
      <trkpt lat="42.1439360" lon="-2.2671630">
        <ele>795.7</ele>
        <time>2022-08-15T06:06:22Z</time>
      </trkpt>
      <trkpt lat="42.1437790" lon="-2.2669850">
        <ele>796.9</ele>
        <time>2022-08-15T06:06:30Z</time>
      </trkpt>
      <trkpt lat="42.1437590" lon="-2.2669610">
        <ele>797.0</ele>
        <time>2022-08-15T06:06:31Z</time>
      </trkpt>
      <trkpt lat="42.1437160" lon="-2.2669120">
        <ele>797.4</ele>
        <time>2022-08-15T06:06:33Z</time>
      </trkpt>
      <trkpt lat="42.1436120" lon="-2.2668010">
        <ele>798.0</ele>
        <time>2022-08-15T06:06:38Z</time>
      </trkpt>
      <trkpt lat="42.1435040" lon="-2.2667000">
        <ele>798.7</ele>
        <time>2022-08-15T06:06:43Z</time>
      </trkpt>
      <trkpt lat="42.1434620" lon="-2.2666520">
        <ele>799.0</ele>
        <time>2022-08-15T06:06:45Z</time>
      </trkpt>
      <trkpt lat="42.1433390" lon="-2.2664530">
        <ele>800.0</ele>
        <time>2022-08-15T06:06:52Z</time>
      </trkpt>
      <trkpt lat="42.1431930" lon="-2.2662420">
        <ele>801.1</ele>
        <time>2022-08-15T06:07:00Z</time>
      </trkpt>
      <trkpt lat="42.1431730" lon="-2.2662230">
        <ele>801.3</ele>
        <time>2022-08-15T06:07:01Z</time>
      </trkpt>
      <trkpt lat="42.1431340" lon="-2.2661840">
        <ele>801.5</ele>
        <time>2022-08-15T06:07:03Z</time>
      </trkpt>
      <trkpt lat="42.1430360" lon="-2.2660870">
        <ele>802.1</ele>
        <time>2022-08-15T06:07:08Z</time>
      </trkpt>
      <trkpt lat="42.1430160" lon="-2.2660660">
        <ele>802.3</ele>
        <time>2022-08-15T06:07:09Z</time>
      </trkpt>
      <trkpt lat="42.1428930" lon="-2.2659220">
        <ele>802.9</ele>
        <time>2022-08-15T06:07:15Z</time>
      </trkpt>
      <trkpt lat="42.1428500" lon="-2.2658620">
        <ele>803.1</ele>
        <time>2022-08-15T06:07:17Z</time>
      </trkpt>
      <trkpt lat="42.1427480" lon="-2.2656840">
        <ele>803.6</ele>
        <time>2022-08-15T06:07:23Z</time>
      </trkpt>
      <trkpt lat="42.1427210" lon="-2.2656190">
        <ele>803.7</ele>
        <time>2022-08-15T06:07:25Z</time>
      </trkpt>
      <trkpt lat="42.1426200" lon="-2.2653620">
        <ele>803.7</ele>
        <time>2022-08-15T06:07:32Z</time>
      </trkpt>
      <trkpt lat="42.1425850" lon="-2.2652740">
        <ele>803.7</ele>
        <time>2022-08-15T06:07:34Z</time>
      </trkpt>
      <trkpt lat="42.1425440" lon="-2.2651900">
        <ele>803.6</ele>
        <time>2022-08-15T06:07:36Z</time>
      </trkpt>
      <trkpt lat="42.1424050" lon="-2.2649290">
        <ele>803.0</ele>
        <time>2022-08-15T06:07:42Z</time>
      </trkpt>
      <trkpt lat="42.1423520" lon="-2.2648390">
        <ele>802.6</ele>
        <time>2022-08-15T06:07:44Z</time>
      </trkpt>
      <trkpt lat="42.1422980" lon="-2.2647380">
        <ele>802.2</ele>
        <time>2022-08-15T06:07:46Z</time>
      </trkpt>
      <trkpt lat="42.1422040" lon="-2.2645660">
        <ele>801.5</ele>
        <time>2022-08-15T06:07:49Z</time>
      </trkpt>
      <trkpt lat="42.1421080" lon="-2.2643700">
        <ele>800.8</ele>
        <time>2022-08-15T06:07:52Z</time>
      </trkpt>
      <trkpt lat="42.1420550" lon="-2.2642650">
        <ele>800.4</ele>
        <time>2022-08-15T06:07:54Z</time>
      </trkpt>
      <trkpt lat="42.1420220" lon="-2.2641960">
        <ele>800.1</ele>
        <time>2022-08-15T06:07:55Z</time>
      </trkpt>
      <trkpt lat="42.1418390" lon="-2.2637880">
        <ele>799.6</ele>
        <time>2022-08-15T06:08:00Z</time>
      </trkpt>
      <trkpt lat="42.1417620" lon="-2.2635900">
        <ele>799.7</ele>
        <time>2022-08-15T06:08:03Z</time>
      </trkpt>
      <trkpt lat="42.1416400" lon="-2.2632610">
        <ele>800.4</ele>
        <time>2022-08-15T06:08:10Z</time>
      </trkpt>
      <trkpt lat="42.1416150" lon="-2.2631830">
        <ele>800.7</ele>
        <time>2022-08-15T06:08:12Z</time>
      </trkpt>
      <trkpt lat="42.1415700" lon="-2.2630700">
        <ele>801.1</ele>
        <time>2022-08-15T06:08:15Z</time>
      </trkpt>
      <trkpt lat="42.1415380" lon="-2.2630000">
        <ele>801.4</ele>
        <time>2022-08-15T06:08:17Z</time>
      </trkpt>
      <trkpt lat="42.1415190" lon="-2.2629730">
        <ele>801.6</ele>
        <time>2022-08-15T06:08:18Z</time>
      </trkpt>
      <trkpt lat="42.1414640" lon="-2.2628800">
        <ele>802.0</ele>
        <time>2022-08-15T06:08:21Z</time>
      </trkpt>
      <trkpt lat="42.1413920" lon="-2.2627590">
        <ele>802.7</ele>
        <time>2022-08-15T06:08:25Z</time>
      </trkpt>
      <trkpt lat="42.1413740" lon="-2.2627330">
        <ele>802.8</ele>
        <time>2022-08-15T06:08:26Z</time>
      </trkpt>
      <trkpt lat="42.1413040" lon="-2.2626150">
        <ele>803.5</ele>
        <time>2022-08-15T06:08:30Z</time>
      </trkpt>
      <trkpt lat="42.1412540" lon="-2.2625300">
        <ele>804.1</ele>
        <time>2022-08-15T06:08:33Z</time>
      </trkpt>
      <trkpt lat="42.1412230" lon="-2.2624730">
        <ele>804.4</ele>
        <time>2022-08-15T06:08:35Z</time>
      </trkpt>
      <trkpt lat="42.1411390" lon="-2.2623130">
        <ele>805.3</ele>
        <time>2022-08-15T06:08:40Z</time>
      </trkpt>
      <trkpt lat="42.1410870" lon="-2.2621820">
        <ele>805.9</ele>
        <time>2022-08-15T06:08:44Z</time>
      </trkpt>
      <trkpt lat="42.1410460" lon="-2.2620840">
        <ele>806.4</ele>
        <time>2022-08-15T06:08:47Z</time>
      </trkpt>
      <trkpt lat="42.1409610" lon="-2.2618790">
        <ele>807.4</ele>
        <time>2022-08-15T06:08:53Z</time>
      </trkpt>
      <trkpt lat="42.1409410" lon="-2.2618130">
        <ele>807.7</ele>
        <time>2022-08-15T06:08:55Z</time>
      </trkpt>
      <trkpt lat="42.1408830" lon="-2.2616390">
        <ele>808.5</ele>
        <time>2022-08-15T06:09:00Z</time>
      </trkpt>
      <trkpt lat="42.1408640" lon="-2.2615620">
        <ele>808.8</ele>
        <time>2022-08-15T06:09:02Z</time>
      </trkpt>
      <trkpt lat="42.1408100" lon="-2.2612900">
        <ele>809.8</ele>
        <time>2022-08-15T06:09:09Z</time>
      </trkpt>
      <trkpt lat="42.1407980" lon="-2.2612100">
        <ele>810.0</ele>
        <time>2022-08-15T06:09:11Z</time>
      </trkpt>
      <trkpt lat="42.1407710" lon="-2.2609960">
        <ele>810.6</ele>
        <time>2022-08-15T06:09:16Z</time>
      </trkpt>
      <trkpt lat="42.1407560" lon="-2.2609180">
        <ele>810.8</ele>
        <time>2022-08-15T06:09:18Z</time>
      </trkpt>
      <trkpt lat="42.1407140" lon="-2.2606230">
        <ele>811.4</ele>
        <time>2022-08-15T06:09:25Z</time>
      </trkpt>
      <trkpt lat="42.1406660" lon="-2.2604480">
        <ele>811.7</ele>
        <time>2022-08-15T06:09:29Z</time>
      </trkpt>
      <trkpt lat="42.1406090" lon="-2.2602310">
        <ele>811.9</ele>
        <time>2022-08-15T06:09:34Z</time>
      </trkpt>
      <trkpt lat="42.1405450" lon="-2.2598920">
        <ele>812.2</ele>
        <time>2022-08-15T06:09:41Z</time>
      </trkpt>
      <trkpt lat="42.1405320" lon="-2.2598400">
        <ele>812.3</ele>
        <time>2022-08-15T06:09:42Z</time>
      </trkpt>
      <trkpt lat="42.1404860" lon="-2.2596920">
        <ele>812.3</ele>
        <time>2022-08-15T06:09:45Z</time>
      </trkpt>
      <trkpt lat="42.1404020" lon="-2.2594970">
        <ele>812.4</ele>
        <time>2022-08-15T06:09:49Z</time>
      </trkpt>
      <trkpt lat="42.1403790" lon="-2.2594500">
        <ele>812.5</ele>
        <time>2022-08-15T06:09:50Z</time>
      </trkpt>
      <trkpt lat="42.1402250" lon="-2.2591400">
        <ele>812.6</ele>
        <time>2022-08-15T06:09:57Z</time>
      </trkpt>
      <trkpt lat="42.1402000" lon="-2.2590980">
        <ele>812.6</ele>
        <time>2022-08-15T06:09:58Z</time>
      </trkpt>
      <trkpt lat="42.1399840" lon="-2.2587790">
        <ele>813.1</ele>
        <time>2022-08-15T06:10:06Z</time>
      </trkpt>
      <trkpt lat="42.1399030" lon="-2.2586700">
        <ele>813.4</ele>
        <time>2022-08-15T06:10:09Z</time>
      </trkpt>
      <trkpt lat="42.1397330" lon="-2.2584510">
        <ele>814.1</ele>
        <time>2022-08-15T06:10:16Z</time>
      </trkpt>
      <trkpt lat="42.1396320" lon="-2.2583300">
        <ele>814.5</ele>
        <time>2022-08-15T06:10:19Z</time>
      </trkpt>
      <trkpt lat="42.1395580" lon="-2.2582300">
        <ele>814.9</ele>
        <time>2022-08-15T06:10:22Z</time>
      </trkpt>
      <trkpt lat="42.1394310" lon="-2.2580700">
        <ele>815.5</ele>
        <time>2022-08-15T06:10:27Z</time>
      </trkpt>
      <trkpt lat="42.1392640" lon="-2.2578480">
        <ele>816.6</ele>
        <time>2022-08-15T06:10:34Z</time>
      </trkpt>
      <trkpt lat="42.1392380" lon="-2.2578190">
        <ele>816.7</ele>
        <time>2022-08-15T06:10:35Z</time>
      </trkpt>
      <trkpt lat="42.1390710" lon="-2.2575940">
        <ele>817.7</ele>
        <time>2022-08-15T06:10:42Z</time>
      </trkpt>
      <trkpt lat="42.1390460" lon="-2.2575610">
        <ele>817.8</ele>
        <time>2022-08-15T06:10:43Z</time>
      </trkpt>
      <trkpt lat="42.1388820" lon="-2.2573210">
        <ele>818.8</ele>
        <time>2022-08-15T06:10:50Z</time>
      </trkpt>
      <trkpt lat="42.1388180" lon="-2.2572130">
        <ele>819.3</ele>
        <time>2022-08-15T06:10:53Z</time>
      </trkpt>
      <trkpt lat="42.1387330" lon="-2.2570690">
        <ele>819.9</ele>
        <time>2022-08-15T06:10:57Z</time>
      </trkpt>
      <trkpt lat="42.1386550" lon="-2.2569130">
        <ele>820.4</ele>
        <time>2022-08-15T06:11:01Z</time>
      </trkpt>
      <trkpt lat="42.1385600" lon="-2.2566990">
        <ele>821.1</ele>
        <time>2022-08-15T06:11:06Z</time>
      </trkpt>
      <trkpt lat="42.1385080" lon="-2.2565670">
        <ele>821.4</ele>
        <time>2022-08-15T06:11:09Z</time>
      </trkpt>
      <trkpt lat="42.1383880" lon="-2.2562880">
        <ele>822.1</ele>
        <time>2022-08-15T06:11:16Z</time>
      </trkpt>
      <trkpt lat="42.1383230" lon="-2.2561410">
        <ele>822.4</ele>
        <time>2022-08-15T06:11:20Z</time>
      </trkpt>
      <trkpt lat="42.1382040" lon="-2.2559000">
        <ele>822.8</ele>
        <time>2022-08-15T06:11:26Z</time>
      </trkpt>
      <trkpt lat="42.1381150" lon="-2.2557040">
        <ele>823.1</ele>
        <time>2022-08-15T06:11:31Z</time>
      </trkpt>
      <trkpt lat="42.1380810" lon="-2.2556450">
        <ele>823.2</ele>
        <time>2022-08-15T06:11:33Z</time>
      </trkpt>
      <trkpt lat="42.1379530" lon="-2.2553010">
        <ele>823.7</ele>
        <time>2022-08-15T06:11:41Z</time>
      </trkpt>
      <trkpt lat="42.1379370" lon="-2.2552560">
        <ele>823.7</ele>
        <time>2022-08-15T06:11:42Z</time>
      </trkpt>
      <trkpt lat="42.1378470" lon="-2.2549920">
        <ele>824.1</ele>
        <time>2022-08-15T06:11:48Z</time>
      </trkpt>
      <trkpt lat="42.1378320" lon="-2.2549500">
        <ele>824.1</ele>
        <time>2022-08-15T06:11:49Z</time>
      </trkpt>
      <trkpt lat="42.1376830" lon="-2.2544740">
        <ele>825.2</ele>
        <time>2022-08-15T06:12:00Z</time>
      </trkpt>
      <trkpt lat="42.1376800" lon="-2.2543460">
        <ele>825.6</ele>
        <time>2022-08-15T06:12:03Z</time>
      </trkpt>
      <trkpt lat="42.1376990" lon="-2.2541850">
        <ele>826.2</ele>
        <time>2022-08-15T06:12:07Z</time>
      </trkpt>
      <trkpt lat="42.1377240" lon="-2.2540660">
        <ele>826.6</ele>
        <time>2022-08-15T06:12:10Z</time>
      </trkpt>
      <trkpt lat="42.1377910" lon="-2.2537970">
        <ele>827.7</ele>
        <time>2022-08-15T06:12:17Z</time>
      </trkpt>
      <trkpt lat="42.1378070" lon="-2.2535600">
        <ele>828.7</ele>
        <time>2022-08-15T06:12:23Z</time>
      </trkpt>
      <trkpt lat="42.1378030" lon="-2.2534800">
        <ele>829.0</ele>
        <time>2022-08-15T06:12:25Z</time>
      </trkpt>
      <trkpt lat="42.1377930" lon="-2.2533250">
        <ele>829.5</ele>
        <time>2022-08-15T06:12:29Z</time>
      </trkpt>
      <trkpt lat="42.1377880" lon="-2.2531980">
        <ele>830.0</ele>
        <time>2022-08-15T06:12:32Z</time>
      </trkpt>
      <trkpt lat="42.1377970" lon="-2.2529540">
        <ele>830.7</ele>
        <time>2022-08-15T06:12:38Z</time>
      </trkpt>
      <trkpt lat="42.1378140" lon="-2.2528310">
        <ele>831.1</ele>
        <time>2022-08-15T06:12:41Z</time>
      </trkpt>
      <trkpt lat="42.1378680" lon="-2.2525030">
        <ele>832.0</ele>
        <time>2022-08-15T06:12:49Z</time>
      </trkpt>
      <trkpt lat="42.1378820" lon="-2.2523860">
        <ele>832.3</ele>
        <time>2022-08-15T06:12:52Z</time>
      </trkpt>
      <trkpt lat="42.1378950" lon="-2.2521830">
        <ele>833.0</ele>
        <time>2022-08-15T06:12:57Z</time>
      </trkpt>
      <trkpt lat="42.1379000" lon="-2.2520650">
        <ele>833.3</ele>
        <time>2022-08-15T06:13:00Z</time>
      </trkpt>
      <trkpt lat="42.1379100" lon="-2.2519490">
        <ele>833.7</ele>
        <time>2022-08-15T06:13:03Z</time>
      </trkpt>
      <trkpt lat="42.1379460" lon="-2.2517650">
        <ele>834.4</ele>
        <time>2022-08-15T06:13:08Z</time>
      </trkpt>
      <trkpt lat="42.1379710" lon="-2.2516950">
        <ele>834.6</ele>
        <time>2022-08-15T06:13:10Z</time>
      </trkpt>
      <trkpt lat="42.1380590" lon="-2.2515320">
        <ele>835.2</ele>
        <time>2022-08-15T06:13:15Z</time>
      </trkpt>
      <trkpt lat="42.1380950" lon="-2.2514640">
        <ele>835.4</ele>
        <time>2022-08-15T06:13:17Z</time>
      </trkpt>
      <trkpt lat="42.1381720" lon="-2.2512260">
        <ele>835.7</ele>
        <time>2022-08-15T06:13:23Z</time>
      </trkpt>
      <trkpt lat="42.1381900" lon="-2.2508630">
        <ele>836.0</ele>
        <time>2022-08-15T06:13:31Z</time>
      </trkpt>
      <trkpt lat="42.1381200" lon="-2.2504840">
        <ele>836.1</ele>
        <time>2022-08-15T06:13:39Z</time>
      </trkpt>
      <trkpt lat="42.1381130" lon="-2.2504350">
        <ele>836.2</ele>
        <time>2022-08-15T06:13:40Z</time>
      </trkpt>
      <trkpt lat="42.1380850" lon="-2.2500980">
        <ele>836.3</ele>
        <time>2022-08-15T06:13:47Z</time>
      </trkpt>
      <trkpt lat="42.1380800" lon="-2.2496220">
        <ele>836.6</ele>
        <time>2022-08-15T06:13:57Z</time>
      </trkpt>
      <trkpt lat="42.1380550" lon="-2.2494350">
        <ele>836.9</ele>
        <time>2022-08-15T06:14:01Z</time>
      </trkpt>
      <trkpt lat="42.1380210" lon="-2.2492590">
        <ele>837.1</ele>
        <time>2022-08-15T06:14:05Z</time>
      </trkpt>
      <trkpt lat="42.1379780" lon="-2.2490370">
        <ele>837.5</ele>
        <time>2022-08-15T06:14:10Z</time>
      </trkpt>
      <trkpt lat="42.1379450" lon="-2.2488720">
        <ele>837.7</ele>
        <time>2022-08-15T06:14:14Z</time>
      </trkpt>
      <trkpt lat="42.1379100" lon="-2.2484890">
        <ele>838.5</ele>
        <time>2022-08-15T06:14:22Z</time>
      </trkpt>
      <trkpt lat="42.1379130" lon="-2.2484020">
        <ele>838.7</ele>
        <time>2022-08-15T06:14:24Z</time>
      </trkpt>
      <trkpt lat="42.1379320" lon="-2.2479500">
        <ele>839.7</ele>
        <time>2022-08-15T06:14:34Z</time>
      </trkpt>
      <trkpt lat="42.1379350" lon="-2.2479050">
        <ele>839.8</ele>
        <time>2022-08-15T06:14:35Z</time>
      </trkpt>
      <trkpt lat="42.1379420" lon="-2.2475890">
        <ele>840.7</ele>
        <time>2022-08-15T06:14:42Z</time>
      </trkpt>
      <trkpt lat="42.1379410" lon="-2.2475430">
        <ele>840.8</ele>
        <time>2022-08-15T06:14:43Z</time>
      </trkpt>
      <trkpt lat="42.1379370" lon="-2.2474970">
        <ele>840.9</ele>
        <time>2022-08-15T06:14:44Z</time>
      </trkpt>
      <trkpt lat="42.1379030" lon="-2.2472230">
        <ele>841.6</ele>
        <time>2022-08-15T06:14:50Z</time>
      </trkpt>
      <trkpt lat="42.1378810" lon="-2.2470930">
        <ele>842.0</ele>
        <time>2022-08-15T06:14:53Z</time>
      </trkpt>
      <trkpt lat="42.1378400" lon="-2.2469280">
        <ele>842.4</ele>
        <time>2022-08-15T06:14:57Z</time>
      </trkpt>
      <trkpt lat="42.1377910" lon="-2.2467080">
        <ele>842.9</ele>
        <time>2022-08-15T06:15:02Z</time>
      </trkpt>
      <trkpt lat="42.1377120" lon="-2.2464010">
        <ele>843.7</ele>
        <time>2022-08-15T06:15:09Z</time>
      </trkpt>
      <trkpt lat="42.1377010" lon="-2.2463570">
        <ele>843.8</ele>
        <time>2022-08-15T06:15:10Z</time>
      </trkpt>
      <trkpt lat="42.1375910" lon="-2.2459830">
        <ele>844.9</ele>
        <time>2022-08-15T06:15:19Z</time>
      </trkpt>
      <trkpt lat="42.1375780" lon="-2.2459420">
        <ele>845.1</ele>
        <time>2022-08-15T06:15:20Z</time>
      </trkpt>
      <trkpt lat="42.1374180" lon="-2.2455260">
        <ele>846.1</ele>
        <time>2022-08-15T06:15:30Z</time>
      </trkpt>
      <trkpt lat="42.1373980" lon="-2.2454840">
        <ele>846.2</ele>
        <time>2022-08-15T06:15:31Z</time>
      </trkpt>
      <trkpt lat="42.1372720" lon="-2.2451720">
        <ele>847.0</ele>
        <time>2022-08-15T06:15:39Z</time>
      </trkpt>
      <trkpt lat="42.1372590" lon="-2.2451300">
        <ele>847.1</ele>
        <time>2022-08-15T06:15:40Z</time>
      </trkpt>
      <trkpt lat="42.1371550" lon="-2.2448210">
        <ele>847.8</ele>
        <time>2022-08-15T06:15:48Z</time>
      </trkpt>
      <trkpt lat="42.1371170" lon="-2.2446870">
        <ele>848.1</ele>
        <time>2022-08-15T06:15:51Z</time>
      </trkpt>
      <trkpt lat="42.1370390" lon="-2.2443890">
        <ele>848.5</ele>
        <time>2022-08-15T06:15:58Z</time>
      </trkpt>
      <trkpt lat="42.1370200" lon="-2.2443010">
        <ele>848.6</ele>
        <time>2022-08-15T06:16:00Z</time>
      </trkpt>
      <trkpt lat="42.1370090" lon="-2.2442560">
        <ele>848.6</ele>
        <time>2022-08-15T06:16:01Z</time>
      </trkpt>
      <trkpt lat="42.1369250" lon="-2.2439220">
        <ele>848.7</ele>
        <time>2022-08-15T06:16:08Z</time>
      </trkpt>
      <trkpt lat="42.1369140" lon="-2.2438690">
        <ele>848.7</ele>
        <time>2022-08-15T06:16:09Z</time>
      </trkpt>
      <trkpt lat="42.1368470" lon="-2.2435990">
        <ele>848.4</ele>
        <time>2022-08-15T06:16:14Z</time>
      </trkpt>
      <trkpt lat="42.1368070" lon="-2.2434310">
        <ele>848.0</ele>
        <time>2022-08-15T06:16:17Z</time>
      </trkpt>
      <trkpt lat="42.1367850" lon="-2.2433080">
        <ele>847.7</ele>
        <time>2022-08-15T06:16:19Z</time>
      </trkpt>
      <trkpt lat="42.1367650" lon="-2.2431750">
        <ele>847.3</ele>
        <time>2022-08-15T06:16:21Z</time>
      </trkpt>
      <trkpt lat="42.1367510" lon="-2.2430430">
        <ele>847.0</ele>
        <time>2022-08-15T06:16:23Z</time>
      </trkpt>
      <trkpt lat="42.1367660" lon="-2.2429100">
        <ele>846.6</ele>
        <time>2022-08-15T06:16:25Z</time>
      </trkpt>
      <trkpt lat="42.1368190" lon="-2.2427800">
        <ele>846.5</ele>
        <time>2022-08-15T06:16:27Z</time>
      </trkpt>
      <trkpt lat="42.1368540" lon="-2.2427200">
        <ele>846.4</ele>
        <time>2022-08-15T06:16:28Z</time>
      </trkpt>
      <trkpt lat="42.1368850" lon="-2.2426600">
        <ele>846.4</ele>
        <time>2022-08-15T06:16:29Z</time>
      </trkpt>
      <trkpt lat="42.1369330" lon="-2.2425320">
        <ele>846.4</ele>
        <time>2022-08-15T06:16:31Z</time>
      </trkpt>
      <trkpt lat="42.1369980" lon="-2.2422950">
        <ele>846.4</ele>
        <time>2022-08-15T06:16:35Z</time>
      </trkpt>
      <trkpt lat="42.1370400" lon="-2.2420920">
        <ele>846.5</ele>
        <time>2022-08-15T06:16:39Z</time>
      </trkpt>
      <trkpt lat="42.1370380" lon="-2.2420460">
        <ele>846.5</ele>
        <time>2022-08-15T06:16:40Z</time>
      </trkpt>
      <trkpt lat="42.1370230" lon="-2.2419570">
        <ele>846.7</ele>
        <time>2022-08-15T06:16:42Z</time>
      </trkpt>
      <trkpt lat="42.1369820" lon="-2.2418380">
        <ele>846.8</ele>
        <time>2022-08-15T06:16:45Z</time>
      </trkpt>
      <trkpt lat="42.1369160" lon="-2.2417220">
        <ele>847.1</ele>
        <time>2022-08-15T06:16:48Z</time>
      </trkpt>
      <trkpt lat="42.1368650" lon="-2.2416590">
        <ele>847.3</ele>
        <time>2022-08-15T06:16:50Z</time>
      </trkpt>
      <trkpt lat="42.1368340" lon="-2.2416310">
        <ele>847.4</ele>
        <time>2022-08-15T06:16:51Z</time>
      </trkpt>
      <trkpt lat="42.1368060" lon="-2.2415970">
        <ele>847.5</ele>
        <time>2022-08-15T06:16:52Z</time>
      </trkpt>
      <trkpt lat="42.1367450" lon="-2.2415450">
        <ele>847.8</ele>
        <time>2022-08-15T06:16:54Z</time>
      </trkpt>
      <trkpt lat="42.1366510" lon="-2.2414830">
        <ele>848.1</ele>
        <time>2022-08-15T06:16:57Z</time>
      </trkpt>
      <trkpt lat="42.1365860" lon="-2.2414440">
        <ele>848.3</ele>
        <time>2022-08-15T06:16:59Z</time>
      </trkpt>
      <trkpt lat="42.1364430" lon="-2.2413220">
        <ele>848.8</ele>
        <time>2022-08-15T06:17:04Z</time>
      </trkpt>
      <trkpt lat="42.1363800" lon="-2.2412710">
        <ele>849.0</ele>
        <time>2022-08-15T06:17:06Z</time>
      </trkpt>
      <trkpt lat="42.1362210" lon="-2.2411560">
        <ele>849.7</ele>
        <time>2022-08-15T06:17:11Z</time>
      </trkpt>
      <trkpt lat="42.1360550" lon="-2.2410890">
        <ele>850.3</ele>
        <time>2022-08-15T06:17:16Z</time>
      </trkpt>
      <trkpt lat="42.1360200" lon="-2.2410720">
        <ele>850.4</ele>
        <time>2022-08-15T06:17:17Z</time>
      </trkpt>
      <trkpt lat="42.1358800" lon="-2.2410300">
        <ele>850.9</ele>
        <time>2022-08-15T06:17:21Z</time>
      </trkpt>
      <trkpt lat="42.1357430" lon="-2.2409740">
        <ele>851.5</ele>
        <time>2022-08-15T06:17:25Z</time>
      </trkpt>
      <trkpt lat="42.1356740" lon="-2.2409390">
        <ele>851.7</ele>
        <time>2022-08-15T06:17:27Z</time>
      </trkpt>
      <trkpt lat="42.1354980" lon="-2.2407910">
        <ele>852.4</ele>
        <time>2022-08-15T06:17:33Z</time>
      </trkpt>
      <trkpt lat="42.1354440" lon="-2.2407400">
        <ele>852.6</ele>
        <time>2022-08-15T06:17:35Z</time>
      </trkpt>
      <trkpt lat="42.1352880" lon="-2.2405640">
        <ele>853.2</ele>
        <time>2022-08-15T06:17:41Z</time>
      </trkpt>
      <trkpt lat="42.1351040" lon="-2.2403320">
        <ele>853.8</ele>
        <time>2022-08-15T06:17:48Z</time>
      </trkpt>
      <trkpt lat="42.1350790" lon="-2.2403050">
        <ele>853.9</ele>
        <time>2022-08-15T06:17:49Z</time>
      </trkpt>
      <trkpt lat="42.1348740" lon="-2.2400650">
        <ele>854.7</ele>
        <time>2022-08-15T06:17:57Z</time>
      </trkpt>
      <trkpt lat="42.1348490" lon="-2.2400290">
        <ele>854.8</ele>
        <time>2022-08-15T06:17:58Z</time>
      </trkpt>
      <trkpt lat="42.1346970" lon="-2.2398320">
        <ele>855.4</ele>
        <time>2022-08-15T06:18:04Z</time>
      </trkpt>
      <trkpt lat="42.1346470" lon="-2.2397680">
        <ele>855.6</ele>
        <time>2022-08-15T06:18:06Z</time>
      </trkpt>
      <trkpt lat="42.1345940" lon="-2.2396940">
        <ele>855.8</ele>
        <time>2022-08-15T06:18:08Z</time>
      </trkpt>
      <trkpt lat="42.1345380" lon="-2.2396210">
        <ele>856.0</ele>
        <time>2022-08-15T06:18:10Z</time>
      </trkpt>
      <trkpt lat="42.1344440" lon="-2.2394810">
        <ele>856.4</ele>
        <time>2022-08-15T06:18:14Z</time>
      </trkpt>
      <trkpt lat="42.1343540" lon="-2.2393600">
        <ele>856.8</ele>
        <time>2022-08-15T06:18:18Z</time>
      </trkpt>
      <trkpt lat="42.1343050" lon="-2.2393000">
        <ele>856.9</ele>
        <time>2022-08-15T06:18:20Z</time>
      </trkpt>
      <trkpt lat="42.1341030" lon="-2.2390460">
        <ele>857.8</ele>
        <time>2022-08-15T06:18:28Z</time>
      </trkpt>
      <trkpt lat="42.1339770" lon="-2.2388890">
        <ele>858.4</ele>
        <time>2022-08-15T06:18:33Z</time>
      </trkpt>
      <trkpt lat="42.1339000" lon="-2.2388080">
        <ele>858.7</ele>
        <time>2022-08-15T06:18:36Z</time>
      </trkpt>
      <trkpt lat="42.1337950" lon="-2.2387040">
        <ele>859.2</ele>
        <time>2022-08-15T06:18:40Z</time>
      </trkpt>
      <trkpt lat="42.1336290" lon="-2.2385560">
        <ele>860.0</ele>
        <time>2022-08-15T06:18:46Z</time>
      </trkpt>
      <trkpt lat="42.1335750" lon="-2.2385060">
        <ele>860.3</ele>
        <time>2022-08-15T06:18:48Z</time>
      </trkpt>
      <trkpt lat="42.1333920" lon="-2.2383240">
        <ele>861.3</ele>
        <time>2022-08-15T06:18:55Z</time>
      </trkpt>
      <trkpt lat="42.1332460" lon="-2.2381560">
        <ele>862.2</ele>
        <time>2022-08-15T06:19:01Z</time>
      </trkpt>
      <trkpt lat="42.1332000" lon="-2.2380930">
        <ele>862.5</ele>
        <time>2022-08-15T06:19:03Z</time>
      </trkpt>
      <trkpt lat="42.1330670" lon="-2.2379030">
        <ele>863.3</ele>
        <time>2022-08-15T06:19:09Z</time>
      </trkpt>
      <trkpt lat="42.1330210" lon="-2.2378400">
        <ele>863.6</ele>
        <time>2022-08-15T06:19:11Z</time>
      </trkpt>
      <trkpt lat="42.1328480" lon="-2.2375590">
        <ele>864.5</ele>
        <time>2022-08-15T06:19:19Z</time>
      </trkpt>
      <trkpt lat="42.1327990" lon="-2.2374780">
        <ele>864.8</ele>
        <time>2022-08-15T06:19:21Z</time>
      </trkpt>
      <trkpt lat="42.1326210" lon="-2.2372820">
        <ele>865.6</ele>
        <time>2022-08-15T06:19:28Z</time>
      </trkpt>
      <trkpt lat="42.1325930" lon="-2.2372630">
        <ele>865.7</ele>
        <time>2022-08-15T06:19:29Z</time>
      </trkpt>
      <trkpt lat="42.1323460" lon="-2.2371650">
        <ele>866.5</ele>
        <time>2022-08-15T06:19:37Z</time>
      </trkpt>
      <trkpt lat="42.1323120" lon="-2.2371580">
        <ele>866.7</ele>
        <time>2022-08-15T06:19:38Z</time>
      </trkpt>
      <trkpt lat="42.1321250" lon="-2.2371040">
        <ele>867.4</ele>
        <time>2022-08-15T06:19:44Z</time>
      </trkpt>
      <trkpt lat="42.1319990" lon="-2.2370590">
        <ele>867.9</ele>
        <time>2022-08-15T06:19:48Z</time>
      </trkpt>
      <trkpt lat="42.1319660" lon="-2.2370470">
        <ele>868.1</ele>
        <time>2022-08-15T06:19:49Z</time>
      </trkpt>
      <trkpt lat="42.1317250" lon="-2.2369050">
        <ele>869.0</ele>
        <time>2022-08-15T06:19:57Z</time>
      </trkpt>
      <trkpt lat="42.1316950" lon="-2.2368860">
        <ele>869.2</ele>
        <time>2022-08-15T06:19:58Z</time>
      </trkpt>
      <trkpt lat="42.1314890" lon="-2.2367460">
        <ele>870.0</ele>
        <time>2022-08-15T06:20:05Z</time>
      </trkpt>
      <trkpt lat="42.1312580" lon="-2.2365910">
        <ele>870.9</ele>
        <time>2022-08-15T06:20:14Z</time>
      </trkpt>
      <trkpt lat="42.1311850" lon="-2.2365350">
        <ele>871.2</ele>
        <time>2022-08-15T06:20:16Z</time>
      </trkpt>
      <trkpt lat="42.1309790" lon="-2.2363740">
        <ele>872.1</ele>
        <time>2022-08-15T06:20:23Z</time>
      </trkpt>
      <trkpt lat="42.1307890" lon="-2.2361930">
        <ele>873.0</ele>
        <time>2022-08-15T06:20:30Z</time>
      </trkpt>
      <trkpt lat="42.1307630" lon="-2.2361670">
        <ele>873.2</ele>
        <time>2022-08-15T06:20:31Z</time>
      </trkpt>
      <trkpt lat="42.1305710" lon="-2.2359950">
        <ele>873.9</ele>
        <time>2022-08-15T06:20:38Z</time>
      </trkpt>
      <trkpt lat="42.1303220" lon="-2.2356590">
        <ele>874.5</ele>
        <time>2022-08-15T06:20:48Z</time>
      </trkpt>
      <trkpt lat="42.1303000" lon="-2.2356170">
        <ele>874.6</ele>
        <time>2022-08-15T06:20:49Z</time>
      </trkpt>
      <trkpt lat="42.1301590" lon="-2.2353190">
        <ele>874.9</ele>
        <time>2022-08-15T06:20:56Z</time>
      </trkpt>
      <trkpt lat="42.1301170" lon="-2.2352340">
        <ele>875.0</ele>
        <time>2022-08-15T06:20:58Z</time>
      </trkpt>
      <trkpt lat="42.1299380" lon="-2.2347990">
        <ele>875.5</ele>
        <time>2022-08-15T06:21:08Z</time>
      </trkpt>
      <trkpt lat="42.1298800" lon="-2.2346690">
        <ele>875.7</ele>
        <time>2022-08-15T06:21:11Z</time>
      </trkpt>
      <trkpt lat="42.1297490" lon="-2.2344140">
        <ele>876.2</ele>
        <time>2022-08-15T06:21:17Z</time>
      </trkpt>
      <trkpt lat="42.1295580" lon="-2.2341830">
        <ele>876.9</ele>
        <time>2022-08-15T06:21:24Z</time>
      </trkpt>
      <trkpt lat="42.1295330" lon="-2.2341530">
        <ele>877.0</ele>
        <time>2022-08-15T06:21:25Z</time>
      </trkpt>
      <trkpt lat="42.1294260" lon="-2.2340330">
        <ele>877.5</ele>
        <time>2022-08-15T06:21:29Z</time>
      </trkpt>
      <trkpt lat="42.1293720" lon="-2.2339820">
        <ele>877.8</ele>
        <time>2022-08-15T06:21:31Z</time>
      </trkpt>
      <trkpt lat="42.1293220" lon="-2.2339260">
        <ele>878.1</ele>
        <time>2022-08-15T06:21:33Z</time>
      </trkpt>
      <trkpt lat="42.1291440" lon="-2.2336860">
        <ele>879.1</ele>
        <time>2022-08-15T06:21:41Z</time>
      </trkpt>
      <trkpt lat="42.1290180" lon="-2.2334320">
        <ele>879.9</ele>
        <time>2022-08-15T06:21:48Z</time>
      </trkpt>
      <trkpt lat="42.1290000" lon="-2.2333970">
        <ele>880.0</ele>
        <time>2022-08-15T06:21:49Z</time>
      </trkpt>
      <trkpt lat="42.1289450" lon="-2.2332760">
        <ele>880.5</ele>
        <time>2022-08-15T06:21:52Z</time>
      </trkpt>
      <trkpt lat="42.1288590" lon="-2.2330860">
        <ele>881.1</ele>
        <time>2022-08-15T06:21:57Z</time>
      </trkpt>
      <trkpt lat="42.1288270" lon="-2.2330210">
        <ele>881.3</ele>
        <time>2022-08-15T06:21:59Z</time>
      </trkpt>
      <trkpt lat="42.1287030" lon="-2.2327950">
        <ele>882.0</ele>
        <time>2022-08-15T06:22:05Z</time>
      </trkpt>
      <trkpt lat="42.1286120" lon="-2.2326530">
        <ele>882.5</ele>
        <time>2022-08-15T06:22:09Z</time>
      </trkpt>
      <trkpt lat="42.1285210" lon="-2.2325260">
        <ele>883.0</ele>
        <time>2022-08-15T06:22:13Z</time>
      </trkpt>
      <trkpt lat="42.1283750" lon="-2.2323500">
        <ele>883.7</ele>
        <time>2022-08-15T06:22:19Z</time>
      </trkpt>
      <trkpt lat="42.1283230" lon="-2.2322970">
        <ele>883.9</ele>
        <time>2022-08-15T06:22:21Z</time>
      </trkpt>
      <trkpt lat="42.1281630" lon="-2.2321440">
        <ele>884.6</ele>
        <time>2022-08-15T06:22:27Z</time>
      </trkpt>
      <trkpt lat="42.1280500" lon="-2.2320500">
        <ele>885.1</ele>
        <time>2022-08-15T06:22:31Z</time>
      </trkpt>
      <trkpt lat="42.1279370" lon="-2.2319640">
        <ele>885.5</ele>
        <time>2022-08-15T06:22:35Z</time>
      </trkpt>
      <trkpt lat="42.1277700" lon="-2.2318350">
        <ele>886.2</ele>
        <time>2022-08-15T06:22:41Z</time>
      </trkpt>
      <trkpt lat="42.1276790" lon="-2.2317820">
        <ele>886.6</ele>
        <time>2022-08-15T06:22:44Z</time>
      </trkpt>
      <trkpt lat="42.1275270" lon="-2.2317040">
        <ele>887.1</ele>
        <time>2022-08-15T06:22:49Z</time>
      </trkpt>
      <trkpt lat="42.1274400" lon="-2.2316500">
        <ele>887.4</ele>
        <time>2022-08-15T06:22:52Z</time>
      </trkpt>
      <trkpt lat="42.1272560" lon="-2.2315370">
        <ele>888.1</ele>
        <time>2022-08-15T06:22:58Z</time>
      </trkpt>
      <trkpt lat="42.1271600" lon="-2.2314890">
        <ele>888.4</ele>
        <time>2022-08-15T06:23:01Z</time>
      </trkpt>
      <trkpt lat="42.1269740" lon="-2.2313740">
        <ele>889.1</ele>
        <time>2022-08-15T06:23:07Z</time>
      </trkpt>
      <trkpt lat="42.1269130" lon="-2.2313340">
        <ele>889.3</ele>
        <time>2022-08-15T06:23:09Z</time>
      </trkpt>
      <trkpt lat="42.1267050" lon="-2.2311920">
        <ele>890.1</ele>
        <time>2022-08-15T06:23:16Z</time>
      </trkpt>
      <trkpt lat="42.1266120" lon="-2.2311260">
        <ele>890.4</ele>
        <time>2022-08-15T06:23:19Z</time>
      </trkpt>
      <trkpt lat="42.1263740" lon="-2.2309430">
        <ele>891.2</ele>
        <time>2022-08-15T06:23:27Z</time>
      </trkpt>
      <trkpt lat="42.1263150" lon="-2.2308880">
        <ele>891.3</ele>
        <time>2022-08-15T06:23:29Z</time>
      </trkpt>
      <trkpt lat="42.1262560" lon="-2.2308290">
        <ele>891.5</ele>
        <time>2022-08-15T06:23:31Z</time>
      </trkpt>
      <trkpt lat="42.1260740" lon="-2.2306140">
        <ele>892.3</ele>
        <time>2022-08-15T06:23:38Z</time>
      </trkpt>
      <trkpt lat="42.1260220" lon="-2.2305510">
        <ele>892.5</ele>
        <time>2022-08-15T06:23:40Z</time>
      </trkpt>
      <trkpt lat="42.1258050" lon="-2.2302530">
        <ele>893.5</ele>
        <time>2022-08-15T06:23:49Z</time>
      </trkpt>
      <trkpt lat="42.1257850" lon="-2.2302260">
        <ele>893.6</ele>
        <time>2022-08-15T06:23:50Z</time>
      </trkpt>
      <trkpt lat="42.1256590" lon="-2.2300590">
        <ele>894.4</ele>
        <time>2022-08-15T06:23:55Z</time>
      </trkpt>
      <trkpt lat="42.1255810" lon="-2.2299290">
        <ele>895.0</ele>
        <time>2022-08-15T06:23:59Z</time>
      </trkpt>
      <trkpt lat="42.1254900" lon="-2.2298030">
        <ele>895.6</ele>
        <time>2022-08-15T06:24:03Z</time>
      </trkpt>
      <trkpt lat="42.1254440" lon="-2.2297390">
        <ele>895.9</ele>
        <time>2022-08-15T06:24:05Z</time>
      </trkpt>
      <trkpt lat="42.1253410" lon="-2.2295650">
        <ele>896.8</ele>
        <time>2022-08-15T06:24:10Z</time>
      </trkpt>
      <trkpt lat="42.1252490" lon="-2.2293940">
        <ele>897.6</ele>
        <time>2022-08-15T06:24:15Z</time>
      </trkpt>
      <trkpt lat="42.1252060" lon="-2.2292830">
        <ele>898.2</ele>
        <time>2022-08-15T06:24:18Z</time>
      </trkpt>
      <trkpt lat="42.1251400" lon="-2.2291030">
        <ele>899.0</ele>
        <time>2022-08-15T06:24:23Z</time>
      </trkpt>
      <trkpt lat="42.1251310" lon="-2.2290670">
        <ele>899.2</ele>
        <time>2022-08-15T06:24:24Z</time>
      </trkpt>
      <trkpt lat="42.1251040" lon="-2.2289180">
        <ele>899.8</ele>
        <time>2022-08-15T06:24:28Z</time>
      </trkpt>
      <trkpt lat="42.1250940" lon="-2.2287560">
        <ele>900.5</ele>
        <time>2022-08-15T06:24:32Z</time>
      </trkpt>
      <trkpt lat="42.1250900" lon="-2.2286790">
        <ele>900.8</ele>
        <time>2022-08-15T06:24:34Z</time>
      </trkpt>
      <trkpt lat="42.1250550" lon="-2.2283160">
        <ele>902.0</ele>
        <time>2022-08-15T06:24:43Z</time>
      </trkpt>
      <trkpt lat="42.1250490" lon="-2.2282790">
        <ele>902.1</ele>
        <time>2022-08-15T06:24:44Z</time>
      </trkpt>
      <trkpt lat="42.1249550" lon="-2.2279730">
        <ele>903.4</ele>
        <time>2022-08-15T06:24:52Z</time>
      </trkpt>
      <trkpt lat="42.1248690" lon="-2.2277480">
        <ele>904.3</ele>
        <time>2022-08-15T06:24:58Z</time>
      </trkpt>
      <trkpt lat="42.1248530" lon="-2.2277130">
        <ele>904.5</ele>
        <time>2022-08-15T06:24:59Z</time>
      </trkpt>
      <trkpt lat="42.1247200" lon="-2.2273850">
        <ele>905.8</ele>
        <time>2022-08-15T06:25:08Z</time>
      </trkpt>
      <trkpt lat="42.1245980" lon="-2.2271320">
        <ele>906.7</ele>
        <time>2022-08-15T06:25:15Z</time>
      </trkpt>
      <trkpt lat="42.1245800" lon="-2.2271020">
        <ele>906.8</ele>
        <time>2022-08-15T06:25:16Z</time>
      </trkpt>
      <trkpt lat="42.1244500" lon="-2.2269070">
        <ele>907.5</ele>
        <time>2022-08-15T06:25:23Z</time>
      </trkpt>
      <trkpt lat="42.1243920" lon="-2.2268150">
        <ele>907.8</ele>
        <time>2022-08-15T06:25:26Z</time>
      </trkpt>
      <trkpt lat="42.1242670" lon="-2.2266160">
        <ele>908.6</ele>
        <time>2022-08-15T06:25:32Z</time>
      </trkpt>
      <trkpt lat="42.1242260" lon="-2.2265500">
        <ele>908.8</ele>
        <time>2022-08-15T06:25:34Z</time>
      </trkpt>
      <trkpt lat="42.1241370" lon="-2.2263730">
        <ele>909.3</ele>
        <time>2022-08-15T06:25:39Z</time>
      </trkpt>
      <trkpt lat="42.1240310" lon="-2.2261550">
        <ele>909.8</ele>
        <time>2022-08-15T06:25:45Z</time>
      </trkpt>
      <trkpt lat="42.1239500" lon="-2.2259700">
        <ele>910.2</ele>
        <time>2022-08-15T06:25:50Z</time>
      </trkpt>
      <trkpt lat="42.1239330" lon="-2.2259300">
        <ele>910.2</ele>
        <time>2022-08-15T06:25:51Z</time>
      </trkpt>
      <trkpt lat="42.1238890" lon="-2.2258100">
        <ele>910.4</ele>
        <time>2022-08-15T06:25:54Z</time>
      </trkpt>
      <trkpt lat="42.1238270" lon="-2.2256530">
        <ele>910.7</ele>
        <time>2022-08-15T06:25:58Z</time>
      </trkpt>
      <trkpt lat="42.1237780" lon="-2.2255340">
        <ele>911.0</ele>
        <time>2022-08-15T06:26:01Z</time>
      </trkpt>
      <trkpt lat="42.1237010" lon="-2.2252820">
        <ele>911.5</ele>
        <time>2022-08-15T06:26:07Z</time>
      </trkpt>
      <trkpt lat="42.1236710" lon="-2.2251450">
        <ele>911.6</ele>
        <time>2022-08-15T06:26:10Z</time>
      </trkpt>
      <trkpt lat="42.1236360" lon="-2.2247820">
        <ele>912.2</ele>
        <time>2022-08-15T06:26:18Z</time>
      </trkpt>
      <trkpt lat="42.1236240" lon="-2.2246040">
        <ele>912.6</ele>
        <time>2022-08-15T06:26:22Z</time>
      </trkpt>
      <trkpt lat="42.1235970" lon="-2.2243760">
        <ele>913.3</ele>
        <time>2022-08-15T06:26:27Z</time>
      </trkpt>
      <trkpt lat="42.1235600" lon="-2.2242370">
        <ele>913.9</ele>
        <time>2022-08-15T06:26:30Z</time>
      </trkpt>
      <trkpt lat="42.1234910" lon="-2.2240330">
        <ele>914.8</ele>
        <time>2022-08-15T06:26:35Z</time>
      </trkpt>
      <trkpt lat="42.1234620" lon="-2.2239620">
        <ele>915.1</ele>
        <time>2022-08-15T06:26:37Z</time>
      </trkpt>
      <trkpt lat="42.1233980" lon="-2.2237970">
        <ele>916.0</ele>
        <time>2022-08-15T06:26:42Z</time>
      </trkpt>
      <trkpt lat="42.1233830" lon="-2.2237590">
        <ele>916.2</ele>
        <time>2022-08-15T06:26:43Z</time>
      </trkpt>
      <trkpt lat="42.1233700" lon="-2.2237260">
        <ele>916.4</ele>
        <time>2022-08-15T06:26:44Z</time>
      </trkpt>
      <trkpt lat="42.1233350" lon="-2.2235780">
        <ele>917.1</ele>
        <time>2022-08-15T06:26:48Z</time>
      </trkpt>
      <trkpt lat="42.1232950" lon="-2.2234380">
        <ele>917.9</ele>
        <time>2022-08-15T06:26:52Z</time>
      </trkpt>
      <trkpt lat="42.1232730" lon="-2.2233660">
        <ele>918.2</ele>
        <time>2022-08-15T06:26:54Z</time>
      </trkpt>
      <trkpt lat="42.1232040" lon="-2.2231150">
        <ele>919.4</ele>
        <time>2022-08-15T06:27:01Z</time>
      </trkpt>
      <trkpt lat="42.1231940" lon="-2.2230780">
        <ele>919.6</ele>
        <time>2022-08-15T06:27:02Z</time>
      </trkpt>
      <trkpt lat="42.1231320" lon="-2.2228640">
        <ele>920.6</ele>
        <time>2022-08-15T06:27:08Z</time>
      </trkpt>
      <trkpt lat="42.1230860" lon="-2.2227140">
        <ele>921.3</ele>
        <time>2022-08-15T06:27:12Z</time>
      </trkpt>
      <trkpt lat="42.1230640" lon="-2.2226470">
        <ele>921.6</ele>
        <time>2022-08-15T06:27:14Z</time>
      </trkpt>
      <trkpt lat="42.1229920" lon="-2.2224390">
        <ele>922.7</ele>
        <time>2022-08-15T06:27:20Z</time>
      </trkpt>
      <trkpt lat="42.1229800" lon="-2.2224030">
        <ele>922.9</ele>
        <time>2022-08-15T06:27:21Z</time>
      </trkpt>
      <trkpt lat="42.1229170" lon="-2.2222240">
        <ele>923.6</ele>
        <time>2022-08-15T06:27:26Z</time>
      </trkpt>
      <trkpt lat="42.1228510" lon="-2.2220080">
        <ele>924.5</ele>
        <time>2022-08-15T06:27:32Z</time>
      </trkpt>
      <trkpt lat="42.1228400" lon="-2.2219760">
        <ele>924.6</ele>
        <time>2022-08-15T06:27:33Z</time>
      </trkpt>
      <trkpt lat="42.1227750" lon="-2.2217100">
        <ele>925.5</ele>
        <time>2022-08-15T06:27:40Z</time>
      </trkpt>
      <trkpt lat="42.1226700" lon="-2.2214200">
        <ele>926.6</ele>
        <time>2022-08-15T06:27:48Z</time>
      </trkpt>
      <trkpt lat="42.1226560" lon="-2.2213840">
        <ele>926.7</ele>
        <time>2022-08-15T06:27:49Z</time>
      </trkpt>
      <trkpt lat="42.1225560" lon="-2.2211380">
        <ele>927.8</ele>
        <time>2022-08-15T06:27:56Z</time>
      </trkpt>
      <trkpt lat="42.1224950" lon="-2.2210070">
        <ele>928.4</ele>
        <time>2022-08-15T06:28:00Z</time>
      </trkpt>
      <trkpt lat="42.1224520" lon="-2.2209110">
        <ele>928.8</ele>
        <time>2022-08-15T06:28:03Z</time>
      </trkpt>
      <trkpt lat="42.1223750" lon="-2.2207250">
        <ele>929.8</ele>
        <time>2022-08-15T06:28:09Z</time>
      </trkpt>
      <trkpt lat="42.1223610" lon="-2.2206920">
        <ele>929.9</ele>
        <time>2022-08-15T06:28:10Z</time>
      </trkpt>
      <trkpt lat="42.1222540" lon="-2.2204740">
        <ele>931.1</ele>
        <time>2022-08-15T06:28:17Z</time>
      </trkpt>
      <trkpt lat="42.1221370" lon="-2.2202460">
        <ele>932.4</ele>
        <time>2022-08-15T06:28:25Z</time>
      </trkpt>
      <trkpt lat="42.1221220" lon="-2.2202190">
        <ele>932.5</ele>
        <time>2022-08-15T06:28:26Z</time>
      </trkpt>
      <trkpt lat="42.1220270" lon="-2.2200200">
        <ele>933.6</ele>
        <time>2022-08-15T06:28:33Z</time>
      </trkpt>
      <trkpt lat="42.1220010" lon="-2.2199620">
        <ele>934.0</ele>
        <time>2022-08-15T06:28:35Z</time>
      </trkpt>
      <trkpt lat="42.1219370" lon="-2.2198370">
        <ele>934.8</ele>
        <time>2022-08-15T06:28:40Z</time>
      </trkpt>
      <trkpt lat="42.1219020" lon="-2.2197630">
        <ele>935.2</ele>
        <time>2022-08-15T06:28:43Z</time>
      </trkpt>
      <trkpt lat="42.1218460" lon="-2.2196260">
        <ele>936.1</ele>
        <time>2022-08-15T06:28:48Z</time>
      </trkpt>
      <trkpt lat="42.1218130" lon="-2.2195250">
        <ele>936.7</ele>
        <time>2022-08-15T06:28:52Z</time>
      </trkpt>
      <trkpt lat="42.1217970" lon="-2.2194720">
        <ele>937.0</ele>
        <time>2022-08-15T06:28:54Z</time>
      </trkpt>
      <trkpt lat="42.1217450" lon="-2.2192910">
        <ele>938.1</ele>
        <time>2022-08-15T06:29:01Z</time>
      </trkpt>
      <trkpt lat="42.1217370" lon="-2.2192720">
        <ele>938.2</ele>
        <time>2022-08-15T06:29:02Z</time>
      </trkpt>
      <trkpt lat="42.1217110" lon="-2.2191590">
        <ele>938.9</ele>
        <time>2022-08-15T06:29:06Z</time>
      </trkpt>
      <trkpt lat="42.1216940" lon="-2.2190460">
        <ele>939.6</ele>
        <time>2022-08-15T06:29:10Z</time>
      </trkpt>
      <trkpt lat="42.1216740" lon="-2.2189040">
        <ele>940.5</ele>
        <time>2022-08-15T06:29:15Z</time>
      </trkpt>
      <trkpt lat="42.1216750" lon="-2.2188540">
        <ele>940.8</ele>
        <time>2022-08-15T06:29:17Z</time>
      </trkpt>
      <trkpt lat="42.1216740" lon="-2.2187160">
        <ele>941.6</ele>
        <time>2022-08-15T06:29:22Z</time>
      </trkpt>
      <trkpt lat="42.1216810" lon="-2.2185600">
        <ele>942.4</ele>
        <time>2022-08-15T06:29:27Z</time>
      </trkpt>
      <trkpt lat="42.1216820" lon="-2.2185310">
        <ele>942.6</ele>
        <time>2022-08-15T06:29:28Z</time>
      </trkpt>
      <trkpt lat="42.1216890" lon="-2.2182870">
        <ele>943.9</ele>
        <time>2022-08-15T06:29:36Z</time>
      </trkpt>
      <trkpt lat="42.1216910" lon="-2.2182570">
        <ele>944.0</ele>
        <time>2022-08-15T06:29:37Z</time>
      </trkpt>
      <trkpt lat="42.1216960" lon="-2.2180760">
        <ele>944.9</ele>
        <time>2022-08-15T06:29:43Z</time>
      </trkpt>
      <trkpt lat="42.1217010" lon="-2.2180000">
        <ele>945.3</ele>
        <time>2022-08-15T06:29:46Z</time>
      </trkpt>
      <trkpt lat="42.1217150" lon="-2.2178150">
        <ele>946.2</ele>
        <time>2022-08-15T06:29:52Z</time>
      </trkpt>
      <trkpt lat="42.1217330" lon="-2.2175730">
        <ele>947.3</ele>
        <time>2022-08-15T06:30:00Z</time>
      </trkpt>
      <trkpt lat="42.1217360" lon="-2.2175470">
        <ele>947.4</ele>
        <time>2022-08-15T06:30:01Z</time>
      </trkpt>
      <trkpt lat="42.1217590" lon="-2.2172960">
        <ele>948.6</ele>
        <time>2022-08-15T06:30:09Z</time>
      </trkpt>
      <trkpt lat="42.1217620" lon="-2.2172640">
        <ele>948.7</ele>
        <time>2022-08-15T06:30:10Z</time>
      </trkpt>
      <trkpt lat="42.1218060" lon="-2.2169790">
        <ele>949.9</ele>
        <time>2022-08-15T06:30:19Z</time>
      </trkpt>
      <trkpt lat="42.1218650" lon="-2.2167300">
        <ele>950.8</ele>
        <time>2022-08-15T06:30:27Z</time>
      </trkpt>
      <trkpt lat="42.1218720" lon="-2.2166990">
        <ele>950.8</ele>
        <time>2022-08-15T06:30:28Z</time>
      </trkpt>
      <trkpt lat="42.1219440" lon="-2.2164820">
        <ele>951.5</ele>
        <time>2022-08-15T06:30:35Z</time>
      </trkpt>
      <trkpt lat="42.1219910" lon="-2.2163440">
        <ele>951.8</ele>
        <time>2022-08-15T06:30:39Z</time>
      </trkpt>
      <trkpt lat="42.1220000" lon="-2.2163080">
        <ele>951.9</ele>
        <time>2022-08-15T06:30:40Z</time>
      </trkpt>
      <trkpt lat="42.1220240" lon="-2.2161150">
        <ele>952.2</ele>
        <time>2022-08-15T06:30:45Z</time>
      </trkpt>
      <trkpt lat="42.1220230" lon="-2.2160580">
        <ele>952.3</ele>
        <time>2022-08-15T06:30:47Z</time>
      </trkpt>
      <trkpt lat="42.1220150" lon="-2.2159140">
        <ele>952.5</ele>
        <time>2022-08-15T06:30:50Z</time>
      </trkpt>
      <trkpt lat="42.1220060" lon="-2.2157870">
        <ele>952.6</ele>
        <time>2022-08-15T06:30:53Z</time>
      </trkpt>
      <trkpt lat="42.1219850" lon="-2.2156090">
        <ele>952.8</ele>
        <time>2022-08-15T06:30:57Z</time>
      </trkpt>
      <trkpt lat="42.1219790" lon="-2.2155600">
        <ele>952.9</ele>
        <time>2022-08-15T06:30:58Z</time>
      </trkpt>
      <trkpt lat="42.1219530" lon="-2.2152850">
        <ele>953.1</ele>
        <time>2022-08-15T06:31:04Z</time>
      </trkpt>
      <trkpt lat="42.1219320" lon="-2.2150970">
        <ele>953.3</ele>
        <time>2022-08-15T06:31:08Z</time>
      </trkpt>
      <trkpt lat="42.1218780" lon="-2.2147730">
        <ele>953.5</ele>
        <time>2022-08-15T06:31:15Z</time>
      </trkpt>
      <trkpt lat="42.1218680" lon="-2.2147290">
        <ele>953.5</ele>
        <time>2022-08-15T06:31:16Z</time>
      </trkpt>
      <trkpt lat="42.1217890" lon="-2.2143220">
        <ele>953.9</ele>
        <time>2022-08-15T06:31:25Z</time>
      </trkpt>
      <trkpt lat="42.1217810" lon="-2.2142750">
        <ele>953.9</ele>
        <time>2022-08-15T06:31:26Z</time>
      </trkpt>
      <trkpt lat="42.1217550" lon="-2.2140880">
        <ele>954.1</ele>
        <time>2022-08-15T06:31:30Z</time>
      </trkpt>
      <trkpt lat="42.1217160" lon="-2.2138120">
        <ele>954.4</ele>
        <time>2022-08-15T06:31:36Z</time>
      </trkpt>
      <trkpt lat="42.1216580" lon="-2.2134960">
        <ele>954.9</ele>
        <time>2022-08-15T06:31:43Z</time>
      </trkpt>
      <trkpt lat="42.1216390" lon="-2.2134070">
        <ele>955.1</ele>
        <time>2022-08-15T06:31:45Z</time>
      </trkpt>
      <trkpt lat="42.1215810" lon="-2.2131910">
        <ele>955.8</ele>
        <time>2022-08-15T06:31:50Z</time>
      </trkpt>
      <trkpt lat="42.1215440" lon="-2.2130650">
        <ele>956.2</ele>
        <time>2022-08-15T06:31:53Z</time>
      </trkpt>
      <trkpt lat="42.1215310" lon="-2.2130250">
        <ele>956.4</ele>
        <time>2022-08-15T06:31:54Z</time>
      </trkpt>
      <trkpt lat="42.1214590" lon="-2.2127470">
        <ele>957.6</ele>
        <time>2022-08-15T06:32:01Z</time>
      </trkpt>
      <trkpt lat="42.1214510" lon="-2.2126650">
        <ele>958.0</ele>
        <time>2022-08-15T06:32:03Z</time>
      </trkpt>
      <trkpt lat="42.1214460" lon="-2.2125080">
        <ele>958.9</ele>
        <time>2022-08-15T06:32:07Z</time>
      </trkpt>
      <trkpt lat="42.1214460" lon="-2.2124030">
        <ele>959.5</ele>
        <time>2022-08-15T06:32:10Z</time>
      </trkpt>
      <trkpt lat="42.1214610" lon="-2.2122980">
        <ele>960.2</ele>
        <time>2022-08-15T06:32:13Z</time>
      </trkpt>
      <trkpt lat="42.1214640" lon="-2.2121570">
        <ele>961.1</ele>
        <time>2022-08-15T06:32:17Z</time>
      </trkpt>
      <trkpt lat="42.1214610" lon="-2.2120860">
        <ele>961.6</ele>
        <time>2022-08-15T06:32:19Z</time>
      </trkpt>
      <trkpt lat="42.1214430" lon="-2.2119110">
        <ele>962.6</ele>
        <time>2022-08-15T06:32:24Z</time>
      </trkpt>
      <trkpt lat="42.1214370" lon="-2.2118770">
        <ele>962.8</ele>
        <time>2022-08-15T06:32:25Z</time>
      </trkpt>
      <trkpt lat="42.1214130" lon="-2.2116850">
        <ele>964.0</ele>
        <time>2022-08-15T06:32:31Z</time>
      </trkpt>
      <trkpt lat="42.1214060" lon="-2.2115610">
        <ele>964.8</ele>
        <time>2022-08-15T06:32:35Z</time>
      </trkpt>
      <trkpt lat="42.1214010" lon="-2.2115290">
        <ele>965.0</ele>
        <time>2022-08-15T06:32:36Z</time>
      </trkpt>
      <trkpt lat="42.1213810" lon="-2.2114120">
        <ele>965.8</ele>
        <time>2022-08-15T06:32:40Z</time>
      </trkpt>
      <trkpt lat="42.1213550" lon="-2.2112660">
        <ele>966.8</ele>
        <time>2022-08-15T06:32:45Z</time>
      </trkpt>
      <trkpt lat="42.1213260" lon="-2.2110940">
        <ele>968.1</ele>
        <time>2022-08-15T06:32:51Z</time>
      </trkpt>
      <trkpt lat="42.1213160" lon="-2.2110040">
        <ele>968.6</ele>
        <time>2022-08-15T06:32:54Z</time>
      </trkpt>
      <trkpt lat="42.1213050" lon="-2.2108900">
        <ele>969.3</ele>
        <time>2022-08-15T06:32:58Z</time>
      </trkpt>
      <trkpt lat="42.1213010" lon="-2.2107810">
        <ele>969.8</ele>
        <time>2022-08-15T06:33:02Z</time>
      </trkpt>
      <trkpt lat="42.1212960" lon="-2.2107260">
        <ele>970.1</ele>
        <time>2022-08-15T06:33:04Z</time>
      </trkpt>
      <trkpt lat="42.1212840" lon="-2.2105980">
        <ele>971.0</ele>
        <time>2022-08-15T06:33:08Z</time>
      </trkpt>
      <trkpt lat="42.1212720" lon="-2.2104390">
        <ele>972.3</ele>
        <time>2022-08-15T06:33:13Z</time>
      </trkpt>
      <trkpt lat="42.1212640" lon="-2.2103120">
        <ele>973.2</ele>
        <time>2022-08-15T06:33:17Z</time>
      </trkpt>
      <trkpt lat="42.1212700" lon="-2.2101470">
        <ele>974.3</ele>
        <time>2022-08-15T06:33:22Z</time>
      </trkpt>
      <trkpt lat="42.1212650" lon="-2.2100640">
        <ele>974.8</ele>
        <time>2022-08-15T06:33:25Z</time>
      </trkpt>
      <trkpt lat="42.1212650" lon="-2.2100330">
        <ele>975.0</ele>
        <time>2022-08-15T06:33:26Z</time>
      </trkpt>
      <trkpt lat="42.1212680" lon="-2.2098020">
        <ele>976.1</ele>
        <time>2022-08-15T06:33:33Z</time>
      </trkpt>
      <trkpt lat="42.1212670" lon="-2.2097690">
        <ele>976.3</ele>
        <time>2022-08-15T06:33:34Z</time>
      </trkpt>
      <trkpt lat="42.1212340" lon="-2.2095040">
        <ele>977.7</ele>
        <time>2022-08-15T06:33:42Z</time>
      </trkpt>
      <trkpt lat="42.1212260" lon="-2.2094380">
        <ele>978.2</ele>
        <time>2022-08-15T06:33:44Z</time>
      </trkpt>
      <trkpt lat="42.1212080" lon="-2.2092900">
        <ele>979.1</ele>
        <time>2022-08-15T06:33:49Z</time>
      </trkpt>
      <trkpt lat="42.1212030" lon="-2.2092580">
        <ele>979.3</ele>
        <time>2022-08-15T06:33:50Z</time>
      </trkpt>
      <trkpt lat="42.1211920" lon="-2.2091950">
        <ele>979.6</ele>
        <time>2022-08-15T06:33:52Z</time>
      </trkpt>
      <trkpt lat="42.1211480" lon="-2.2089190">
        <ele>980.9</ele>
        <time>2022-08-15T06:34:01Z</time>
      </trkpt>
      <trkpt lat="42.1211000" lon="-2.2087100">
        <ele>981.9</ele>
        <time>2022-08-15T06:34:08Z</time>
      </trkpt>
      <trkpt lat="42.1210860" lon="-2.2086540">
        <ele>982.1</ele>
        <time>2022-08-15T06:34:10Z</time>
      </trkpt>
      <trkpt lat="42.1210580" lon="-2.2085080">
        <ele>982.9</ele>
        <time>2022-08-15T06:34:15Z</time>
      </trkpt>
      <trkpt lat="42.1210300" lon="-2.2083740">
        <ele>983.6</ele>
        <time>2022-08-15T06:34:20Z</time>
      </trkpt>
      <trkpt lat="42.1210160" lon="-2.2083190">
        <ele>983.8</ele>
        <time>2022-08-15T06:34:22Z</time>
      </trkpt>
      <trkpt lat="42.1209800" lon="-2.2081230">
        <ele>984.9</ele>
        <time>2022-08-15T06:34:29Z</time>
      </trkpt>
      <trkpt lat="42.1209760" lon="-2.2080960">
        <ele>985.1</ele>
        <time>2022-08-15T06:34:30Z</time>
      </trkpt>
      <trkpt lat="42.1209520" lon="-2.2079260">
        <ele>985.9</ele>
        <time>2022-08-15T06:34:36Z</time>
      </trkpt>
      <trkpt lat="42.1209470" lon="-2.2078730">
        <ele>986.1</ele>
        <time>2022-08-15T06:34:38Z</time>
      </trkpt>
      <trkpt lat="42.1209320" lon="-2.2076630">
        <ele>987.1</ele>
        <time>2022-08-15T06:34:45Z</time>
      </trkpt>
      <trkpt lat="42.1209300" lon="-2.2076040">
        <ele>987.4</ele>
        <time>2022-08-15T06:34:48Z</time>
      </trkpt>
      <trkpt lat="42.1209380" lon="-2.2074720">
        <ele>988.4</ele>
        <time>2022-08-15T06:34:52Z</time>
      </trkpt>
      <trkpt lat="42.1209580" lon="-2.2073630">
        <ele>989.2</ele>
        <time>2022-08-15T06:34:56Z</time>
      </trkpt>
      <trkpt lat="42.1209640" lon="-2.2073360">
        <ele>989.3</ele>
        <time>2022-08-15T06:34:57Z</time>
      </trkpt>
      <trkpt lat="42.1210430" lon="-2.2071930">
        <ele>990.4</ele>
        <time>2022-08-15T06:35:03Z</time>
      </trkpt>
      <trkpt lat="42.1211630" lon="-2.2071280">
        <ele>991.6</ele>
        <time>2022-08-15T06:35:09Z</time>
      </trkpt>
      <trkpt lat="42.1212210" lon="-2.2071180">
        <ele>992.1</ele>
        <time>2022-08-15T06:35:12Z</time>
      </trkpt>
      <trkpt lat="42.1213120" lon="-2.2070680">
        <ele>993.0</ele>
        <time>2022-08-15T06:35:17Z</time>
      </trkpt>
      <trkpt lat="42.1213390" lon="-2.2070210">
        <ele>993.4</ele>
        <time>2022-08-15T06:35:19Z</time>
      </trkpt>
      <trkpt lat="42.1213710" lon="-2.2068850">
        <ele>994.2</ele>
        <time>2022-08-15T06:35:24Z</time>
      </trkpt>
      <trkpt lat="42.1213730" lon="-2.2067970">
        <ele>994.8</ele>
        <time>2022-08-15T06:35:27Z</time>
      </trkpt>
      <trkpt lat="42.1213760" lon="-2.2066200">
        <ele>996.0</ele>
        <time>2022-08-15T06:35:33Z</time>
      </trkpt>
      <trkpt lat="42.1213760" lon="-2.2065910">
        <ele>996.2</ele>
        <time>2022-08-15T06:35:34Z</time>
      </trkpt>
      <trkpt lat="42.1213750" lon="-2.2064410">
        <ele>997.1</ele>
        <time>2022-08-15T06:35:39Z</time>
      </trkpt>
      <trkpt lat="42.1213800" lon="-2.2062960">
        <ele>997.9</ele>
        <time>2022-08-15T06:35:44Z</time>
      </trkpt>
      <trkpt lat="42.1213910" lon="-2.2062230">
        <ele>998.2</ele>
        <time>2022-08-15T06:35:47Z</time>
      </trkpt>
      <trkpt lat="42.1214100" lon="-2.2061310">
        <ele>998.8</ele>
        <time>2022-08-15T06:35:50Z</time>
      </trkpt>
      <trkpt lat="42.1214390" lon="-2.2060210">
        <ele>999.5</ele>
        <time>2022-08-15T06:35:54Z</time>
      </trkpt>
      <trkpt lat="42.1214700" lon="-2.2059090">
        <ele>1000.2</ele>
        <time>2022-08-15T06:35:58Z</time>
      </trkpt>
      <trkpt lat="42.1215090" lon="-2.2057740">
        <ele>1001.3</ele>
        <time>2022-08-15T06:36:03Z</time>
      </trkpt>
      <trkpt lat="42.1215480" lon="-2.2056460">
        <ele>1002.4</ele>
        <time>2022-08-15T06:36:08Z</time>
      </trkpt>
      <trkpt lat="42.1215740" lon="-2.2055690">
        <ele>1003.0</ele>
        <time>2022-08-15T06:36:11Z</time>
      </trkpt>
      <trkpt lat="42.1215970" lon="-2.2054840">
        <ele>1003.6</ele>
        <time>2022-08-15T06:36:14Z</time>
      </trkpt>
      <trkpt lat="42.1216260" lon="-2.2053690">
        <ele>1004.4</ele>
        <time>2022-08-15T06:36:18Z</time>
      </trkpt>
      <trkpt lat="42.1216380" lon="-2.2052910">
        <ele>1004.8</ele>
        <time>2022-08-15T06:36:21Z</time>
      </trkpt>
      <trkpt lat="42.1216410" lon="-2.2052680">
        <ele>1004.9</ele>
        <time>2022-08-15T06:36:22Z</time>
      </trkpt>
      <trkpt lat="42.1216650" lon="-2.2050680">
        <ele>1005.9</ele>
        <time>2022-08-15T06:36:29Z</time>
      </trkpt>
      <trkpt lat="42.1216720" lon="-2.2050110">
        <ele>1006.1</ele>
        <time>2022-08-15T06:36:31Z</time>
      </trkpt>
      <trkpt lat="42.1216930" lon="-2.2048750">
        <ele>1006.6</ele>
        <time>2022-08-15T06:36:36Z</time>
      </trkpt>
      <trkpt lat="42.1217180" lon="-2.2047670">
        <ele>1006.9</ele>
        <time>2022-08-15T06:36:40Z</time>
      </trkpt>
      <trkpt lat="42.1217310" lon="-2.2047170">
        <ele>1007.0</ele>
        <time>2022-08-15T06:36:42Z</time>
      </trkpt>
      <trkpt lat="42.1217410" lon="-2.2045890">
        <ele>1007.6</ele>
        <time>2022-08-15T06:36:47Z</time>
      </trkpt>
      <trkpt lat="42.1217450" lon="-2.2045590">
        <ele>1007.7</ele>
        <time>2022-08-15T06:36:48Z</time>
      </trkpt>
      <trkpt lat="42.1217680" lon="-2.2043980">
        <ele>1008.6</ele>
        <time>2022-08-15T06:36:54Z</time>
      </trkpt>
      <trkpt lat="42.1217690" lon="-2.2042510">
        <ele>1009.4</ele>
        <time>2022-08-15T06:37:01Z</time>
      </trkpt>
      <trkpt lat="42.1217690" lon="-2.2042290">
        <ele>1009.6</ele>
        <time>2022-08-15T06:37:02Z</time>
      </trkpt>
      <trkpt lat="42.1217980" lon="-2.2040540">
        <ele>1010.8</ele>
        <time>2022-08-15T06:37:08Z</time>
      </trkpt>
      <trkpt lat="42.1218060" lon="-2.2039740">
        <ele>1011.2</ele>
        <time>2022-08-15T06:37:11Z</time>
      </trkpt>
      <trkpt lat="42.1218280" lon="-2.2038620">
        <ele>1011.8</ele>
        <time>2022-08-15T06:37:15Z</time>
      </trkpt>
      <trkpt lat="42.1218430" lon="-2.2037610">
        <ele>1012.3</ele>
        <time>2022-08-15T06:37:19Z</time>
      </trkpt>
      <trkpt lat="42.1218430" lon="-2.2037380">
        <ele>1012.5</ele>
        <time>2022-08-15T06:37:20Z</time>
      </trkpt>
      <trkpt lat="42.1218520" lon="-2.2035880">
        <ele>1013.3</ele>
        <time>2022-08-15T06:37:26Z</time>
      </trkpt>
      <trkpt lat="42.1218520" lon="-2.2035660">
        <ele>1013.4</ele>
        <time>2022-08-15T06:37:27Z</time>
      </trkpt>
      <trkpt lat="42.1218770" lon="-2.2034160">
        <ele>1014.3</ele>
        <time>2022-08-15T06:37:33Z</time>
      </trkpt>
      <trkpt lat="42.1218850" lon="-2.2033360">
        <ele>1014.9</ele>
        <time>2022-08-15T06:37:36Z</time>
      </trkpt>
      <trkpt lat="42.1218830" lon="-2.2032940">
        <ele>1015.2</ele>
        <time>2022-08-15T06:37:38Z</time>
      </trkpt>
      <trkpt lat="42.1218890" lon="-2.2032210">
        <ele>1015.9</ele>
        <time>2022-08-15T06:37:41Z</time>
      </trkpt>
      <trkpt lat="42.1218900" lon="-2.2031940">
        <ele>1016.1</ele>
        <time>2022-08-15T06:37:42Z</time>
      </trkpt>
      <trkpt lat="42.1218910" lon="-2.2031410">
        <ele>1016.6</ele>
        <time>2022-08-15T06:37:45Z</time>
      </trkpt>
      <trkpt lat="42.1219100" lon="-2.2030050">
        <ele>1017.7</ele>
        <time>2022-08-15T06:37:51Z</time>
      </trkpt>
      <trkpt lat="42.1219200" lon="-2.2029570">
        <ele>1018.1</ele>
        <time>2022-08-15T06:37:53Z</time>
      </trkpt>
      <trkpt lat="42.1219220" lon="-2.2028930">
        <ele>1018.6</ele>
        <time>2022-08-15T06:37:56Z</time>
      </trkpt>
      <trkpt lat="42.1219230" lon="-2.2028150">
        <ele>1019.0</ele>
        <time>2022-08-15T06:37:59Z</time>
      </trkpt>
      <trkpt lat="42.1219440" lon="-2.2027170">
        <ele>1019.6</ele>
        <time>2022-08-15T06:38:03Z</time>
      </trkpt>
      <trkpt lat="42.1219640" lon="-2.2026200">
        <ele>1020.0</ele>
        <time>2022-08-15T06:38:07Z</time>
      </trkpt>
      <trkpt lat="42.1219760" lon="-2.2025430">
        <ele>1020.2</ele>
        <time>2022-08-15T06:38:10Z</time>
      </trkpt>
      <trkpt lat="42.1219900" lon="-2.2024470">
        <ele>1020.6</ele>
        <time>2022-08-15T06:38:14Z</time>
      </trkpt>
      <trkpt lat="42.1219940" lon="-2.2024230">
        <ele>1020.7</ele>
        <time>2022-08-15T06:38:15Z</time>
      </trkpt>
      <trkpt lat="42.1220200" lon="-2.2023010">
        <ele>1021.4</ele>
        <time>2022-08-15T06:38:20Z</time>
      </trkpt>
      <trkpt lat="42.1220420" lon="-2.2022120">
        <ele>1021.9</ele>
        <time>2022-08-15T06:38:24Z</time>
      </trkpt>
      <trkpt lat="42.1220560" lon="-2.2021220">
        <ele>1022.3</ele>
        <time>2022-08-15T06:38:28Z</time>
      </trkpt>
      <trkpt lat="42.1220860" lon="-2.2019750">
        <ele>1023.0</ele>
        <time>2022-08-15T06:38:34Z</time>
      </trkpt>
      <trkpt lat="42.1220900" lon="-2.2019570">
        <ele>1023.1</ele>
        <time>2022-08-15T06:38:35Z</time>
      </trkpt>
      <trkpt lat="42.1221120" lon="-2.2018400">
        <ele>1023.8</ele>
        <time>2022-08-15T06:38:40Z</time>
      </trkpt>
      <trkpt lat="42.1221300" lon="-2.2017190">
        <ele>1024.4</ele>
        <time>2022-08-15T06:38:45Z</time>
      </trkpt>
      <trkpt lat="42.1221370" lon="-2.2016760">
        <ele>1024.7</ele>
        <time>2022-08-15T06:38:47Z</time>
      </trkpt>
      <trkpt lat="42.1221630" lon="-2.2015320">
        <ele>1025.5</ele>
        <time>2022-08-15T06:38:53Z</time>
      </trkpt>
      <trkpt lat="42.1221700" lon="-2.2015040">
        <ele>1025.6</ele>
        <time>2022-08-15T06:38:54Z</time>
      </trkpt>
      <trkpt lat="42.1222450" lon="-2.2014170">
        <ele>1030.6</ele>
        <time>2022-08-15T06:39:00Z</time>
      </trkpt>
      <trkpt lat="42.1222590" lon="-2.2014630">
        <ele>1031.7</ele>
        <time>2022-08-15T06:42:36Z</time>
      </trkpt>
      <trkpt lat="42.1222570" lon="-2.2014840">
        <ele>1032.2</ele>
        <time>2022-08-15T06:42:37Z</time>
      </trkpt>
      <trkpt lat="42.1222530" lon="-2.2015080">
        <ele>1032.7</ele>
        <time>2022-08-15T06:42:38Z</time>
      </trkpt>
      <trkpt lat="42.1222460" lon="-2.2015640">
        <ele>1034.0</ele>
        <time>2022-08-15T06:42:40Z</time>
      </trkpt>
      <trkpt lat="42.1222440" lon="-2.2016270">
        <ele>1035.4</ele>
        <time>2022-08-15T06:42:42Z</time>
      </trkpt>
      <trkpt lat="42.1222450" lon="-2.2017080">
        <ele>1037.2</ele>
        <time>2022-08-15T06:42:45Z</time>
      </trkpt>
      <trkpt lat="42.1222510" lon="-2.2017520">
        <ele>1037.2</ele>
        <time>2022-08-15T06:42:47Z</time>
      </trkpt>
      <trkpt lat="42.1222580" lon="-2.2017860">
        <ele>1037.2</ele>
        <time>2022-08-15T06:42:49Z</time>
      </trkpt>
      <trkpt lat="42.1222600" lon="-2.2018100">
        <ele>1037.2</ele>
        <time>2022-08-15T06:42:51Z</time>
      </trkpt>
      <trkpt lat="42.1222610" lon="-2.2018540">
        <ele>1037.2</ele>
        <time>2022-08-15T06:43:18Z</time>
      </trkpt>
      <trkpt lat="42.1222630" lon="-2.2018950">
        <ele>1037.1</ele>
        <time>2022-08-15T06:43:19Z</time>
      </trkpt>
      <trkpt lat="42.1222650" lon="-2.2019680">
        <ele>1037.1</ele>
        <time>2022-08-15T06:43:21Z</time>
      </trkpt>
      <trkpt lat="42.1222680" lon="-2.2020460">
        <ele>1037.0</ele>
        <time>2022-08-15T06:43:23Z</time>
      </trkpt>
      <trkpt lat="42.1222690" lon="-2.2021220">
        <ele>1037.0</ele>
        <time>2022-08-15T06:43:25Z</time>
      </trkpt>
      <trkpt lat="42.1222720" lon="-2.2022080">
        <ele>1037.0</ele>
        <time>2022-08-15T06:43:27Z</time>
      </trkpt>
      <trkpt lat="42.1222690" lon="-2.2023360">
        <ele>1037.1</ele>
        <time>2022-08-15T06:43:30Z</time>
      </trkpt>
      <trkpt lat="42.1222620" lon="-2.2024990">
        <ele>1037.1</ele>
        <time>2022-08-15T06:43:34Z</time>
      </trkpt>
      <trkpt lat="42.1222580" lon="-2.2025490">
        <ele>1037.1</ele>
        <time>2022-08-15T06:43:35Z</time>
      </trkpt>
      <trkpt lat="42.1222460" lon="-2.2027620">
        <ele>1037.0</ele>
        <time>2022-08-15T06:43:40Z</time>
      </trkpt>
      <trkpt lat="42.1222400" lon="-2.2029990">
        <ele>1036.6</ele>
        <time>2022-08-15T06:43:45Z</time>
      </trkpt>
      <trkpt lat="42.1222500" lon="-2.2031520">
        <ele>1036.2</ele>
        <time>2022-08-15T06:43:48Z</time>
      </trkpt>
      <trkpt lat="42.1222610" lon="-2.2032030">
        <ele>1036.0</ele>
        <time>2022-08-15T06:43:49Z</time>
      </trkpt>
      <trkpt lat="42.1222740" lon="-2.2032530">
        <ele>1035.9</ele>
        <time>2022-08-15T06:43:50Z</time>
      </trkpt>
      <trkpt lat="42.1222900" lon="-2.2033030">
        <ele>1035.8</ele>
        <time>2022-08-15T06:43:51Z</time>
      </trkpt>
      <trkpt lat="42.1223350" lon="-2.2033890">
        <ele>1035.5</ele>
        <time>2022-08-15T06:43:53Z</time>
      </trkpt>
      <trkpt lat="42.1223600" lon="-2.2034270">
        <ele>1035.4</ele>
        <time>2022-08-15T06:43:54Z</time>
      </trkpt>
      <trkpt lat="42.1224170" lon="-2.2034900">
        <ele>1035.2</ele>
        <time>2022-08-15T06:43:56Z</time>
      </trkpt>
      <trkpt lat="42.1224880" lon="-2.2035460">
        <ele>1035.0</ele>
        <time>2022-08-15T06:43:58Z</time>
      </trkpt>
      <trkpt lat="42.1225270" lon="-2.2035710">
        <ele>1034.9</ele>
        <time>2022-08-15T06:43:59Z</time>
      </trkpt>
      <trkpt lat="42.1225590" lon="-2.2035920">
        <ele>1034.8</ele>
        <time>2022-08-15T06:44:00Z</time>
      </trkpt>
      <trkpt lat="42.1227950" lon="-2.2038150">
        <ele>1034.5</ele>
        <time>2022-08-15T06:44:07Z</time>
      </trkpt>
      <trkpt lat="42.1228940" lon="-2.2039900">
        <ele>1034.5</ele>
        <time>2022-08-15T06:44:11Z</time>
      </trkpt>
      <trkpt lat="42.1229550" lon="-2.2041190">
        <ele>1034.4</ele>
        <time>2022-08-15T06:44:14Z</time>
      </trkpt>
      <trkpt lat="42.1230010" lon="-2.2042190">
        <ele>1034.3</ele>
        <time>2022-08-15T06:44:17Z</time>
      </trkpt>
      <trkpt lat="42.1231010" lon="-2.2045250">
        <ele>1033.8</ele>
        <time>2022-08-15T06:44:23Z</time>
      </trkpt>
      <trkpt lat="42.1231190" lon="-2.2046350">
        <ele>1033.7</ele>
        <time>2022-08-15T06:44:25Z</time>
      </trkpt>
      <trkpt lat="42.1231500" lon="-2.2049130">
        <ele>1033.1</ele>
        <time>2022-08-15T06:44:30Z</time>
      </trkpt>
      <trkpt lat="42.1231560" lon="-2.2049690">
        <ele>1032.9</ele>
        <time>2022-08-15T06:44:31Z</time>
      </trkpt>
      <trkpt lat="42.1231820" lon="-2.2051410">
        <ele>1032.6</ele>
        <time>2022-08-15T06:44:34Z</time>
      </trkpt>
      <trkpt lat="42.1232100" lon="-2.2052990">
        <ele>1032.3</ele>
        <time>2022-08-15T06:44:37Z</time>
      </trkpt>
      <trkpt lat="42.1232460" lon="-2.2054840">
        <ele>1032.0</ele>
        <time>2022-08-15T06:44:40Z</time>
      </trkpt>
      <trkpt lat="42.1232550" lon="-2.2055300">
        <ele>1031.9</ele>
        <time>2022-08-15T06:44:41Z</time>
      </trkpt>
      <trkpt lat="42.1233290" lon="-2.2058980">
        <ele>1031.5</ele>
        <time>2022-08-15T06:44:47Z</time>
      </trkpt>
      <trkpt lat="42.1233600" lon="-2.2060640">
        <ele>1031.2</ele>
        <time>2022-08-15T06:44:50Z</time>
      </trkpt>
      <trkpt lat="42.1234130" lon="-2.2063870">
        <ele>1030.4</ele>
        <time>2022-08-15T06:44:55Z</time>
      </trkpt>
      <trkpt lat="42.1234400" lon="-2.2065130">
        <ele>1030.0</ele>
        <time>2022-08-15T06:44:57Z</time>
      </trkpt>
      <trkpt lat="42.1234550" lon="-2.2065750">
        <ele>1029.7</ele>
        <time>2022-08-15T06:44:58Z</time>
      </trkpt>
      <trkpt lat="42.1234730" lon="-2.2066380">
        <ele>1029.4</ele>
        <time>2022-08-15T06:44:59Z</time>
      </trkpt>
      <trkpt lat="42.1234970" lon="-2.2066980">
        <ele>1029.1</ele>
        <time>2022-08-15T06:45:00Z</time>
      </trkpt>
      <trkpt lat="42.1235710" lon="-2.2067960">
        <ele>1028.5</ele>
        <time>2022-08-15T06:45:02Z</time>
      </trkpt>
      <trkpt lat="42.1236100" lon="-2.2068190">
        <ele>1028.3</ele>
        <time>2022-08-15T06:45:03Z</time>
      </trkpt>
      <trkpt lat="42.1236620" lon="-2.2068340">
        <ele>1028.0</ele>
        <time>2022-08-15T06:45:04Z</time>
      </trkpt>
      <trkpt lat="42.1238320" lon="-2.2068470">
        <ele>1027.2</ele>
        <time>2022-08-15T06:45:07Z</time>
      </trkpt>
      <trkpt lat="42.1240780" lon="-2.2068580">
        <ele>1026.7</ele>
        <time>2022-08-15T06:45:12Z</time>
      </trkpt>
      <trkpt lat="42.1241210" lon="-2.2068750">
        <ele>1026.7</ele>
        <time>2022-08-15T06:45:13Z</time>
      </trkpt>
      <trkpt lat="42.1242030" lon="-2.2069320">
        <ele>1026.7</ele>
        <time>2022-08-15T06:45:15Z</time>
      </trkpt>
      <trkpt lat="42.1242550" lon="-2.2070180">
        <ele>1026.7</ele>
        <time>2022-08-15T06:45:17Z</time>
      </trkpt>
      <trkpt lat="42.1242750" lon="-2.2071210">
        <ele>1026.6</ele>
        <time>2022-08-15T06:45:19Z</time>
      </trkpt>
      <trkpt lat="42.1242840" lon="-2.2072290">
        <ele>1026.7</ele>
        <time>2022-08-15T06:45:21Z</time>
      </trkpt>
      <trkpt lat="42.1242990" lon="-2.2073330">
        <ele>1026.8</ele>
        <time>2022-08-15T06:45:23Z</time>
      </trkpt>
      <trkpt lat="42.1243210" lon="-2.2074310">
        <ele>1027.0</ele>
        <time>2022-08-15T06:45:25Z</time>
      </trkpt>
      <trkpt lat="42.1243580" lon="-2.2075740">
        <ele>1027.4</ele>
        <time>2022-08-15T06:45:28Z</time>
      </trkpt>
      <trkpt lat="42.1243740" lon="-2.2076190">
        <ele>1027.5</ele>
        <time>2022-08-15T06:45:29Z</time>
      </trkpt>
      <trkpt lat="42.1244230" lon="-2.2077560">
        <ele>1027.9</ele>
        <time>2022-08-15T06:45:32Z</time>
      </trkpt>
      <trkpt lat="42.1244890" lon="-2.2079190">
        <ele>1028.6</ele>
        <time>2022-08-15T06:45:36Z</time>
      </trkpt>
      <trkpt lat="42.1245080" lon="-2.2079540">
        <ele>1028.8</ele>
        <time>2022-08-15T06:45:37Z</time>
      </trkpt>
      <trkpt lat="42.1245970" lon="-2.2080820">
        <ele>1030.2</ele>
        <time>2022-08-15T06:45:42Z</time>
      </trkpt>
      <trkpt lat="42.1246510" lon="-2.2081550">
        <ele>1031.0</ele>
        <time>2022-08-15T06:45:45Z</time>
      </trkpt>
      <trkpt lat="42.1246680" lon="-2.2081750">
        <ele>1031.3</ele>
        <time>2022-08-15T06:45:47Z</time>
      </trkpt>
      <trkpt lat="42.1247290" lon="-2.2082410">
        <ele>1032.1</ele>
        <time>2022-08-15T06:45:50Z</time>
      </trkpt>
      <trkpt lat="42.1247620" lon="-2.2082720">
        <ele>1032.6</ele>
        <time>2022-08-15T06:45:52Z</time>
      </trkpt>
      <trkpt lat="42.1248070" lon="-2.2083080">
        <ele>1033.2</ele>
        <time>2022-08-15T06:45:54Z</time>
      </trkpt>
      <trkpt lat="42.1248480" lon="-2.2083420">
        <ele>1033.7</ele>
        <time>2022-08-15T06:45:56Z</time>
      </trkpt>
      <trkpt lat="42.1248890" lon="-2.2083710">
        <ele>1034.2</ele>
        <time>2022-08-15T06:45:58Z</time>
      </trkpt>
      <trkpt lat="42.1249400" lon="-2.2084070">
        <ele>1034.8</ele>
        <time>2022-08-15T06:46:01Z</time>
      </trkpt>
      <trkpt lat="42.1249600" lon="-2.2084230">
        <ele>1035.1</ele>
        <time>2022-08-15T06:46:02Z</time>
      </trkpt>
      <trkpt lat="42.1250750" lon="-2.2084900">
        <ele>1036.6</ele>
        <time>2022-08-15T06:46:08Z</time>
      </trkpt>
      <trkpt lat="42.1250920" lon="-2.2084990">
        <ele>1036.8</ele>
        <time>2022-08-15T06:46:09Z</time>
      </trkpt>
      <trkpt lat="42.1251090" lon="-2.2085060">
        <ele>1037.0</ele>
        <time>2022-08-15T06:46:10Z</time>
      </trkpt>
      <trkpt lat="42.1251800" lon="-2.2085350">
        <ele>1038.1</ele>
        <time>2022-08-15T06:46:14Z</time>
      </trkpt>
      <trkpt lat="42.1252710" lon="-2.2085710">
        <ele>1039.5</ele>
        <time>2022-08-15T06:46:19Z</time>
      </trkpt>
      <trkpt lat="42.1252900" lon="-2.2085820">
        <ele>1039.8</ele>
        <time>2022-08-15T06:46:20Z</time>
      </trkpt>
      <trkpt lat="42.1253050" lon="-2.2085970">
        <ele>1040.1</ele>
        <time>2022-08-15T06:46:21Z</time>
      </trkpt>
      <trkpt lat="42.1253560" lon="-2.2086770">
        <ele>1041.1</ele>
        <time>2022-08-15T06:46:25Z</time>
      </trkpt>
      <trkpt lat="42.1253890" lon="-2.2087890">
        <ele>1042.3</ele>
        <time>2022-08-15T06:46:30Z</time>
      </trkpt>
      <trkpt lat="42.1253960" lon="-2.2089750">
        <ele>1044.1</ele>
        <time>2022-08-15T06:46:38Z</time>
      </trkpt>
      <trkpt lat="42.1254010" lon="-2.2089970">
        <ele>1044.3</ele>
        <time>2022-08-15T06:46:39Z</time>
      </trkpt>
      <trkpt lat="42.1254480" lon="-2.2090810">
        <ele>1045.3</ele>
        <time>2022-08-15T06:46:44Z</time>
      </trkpt>
      <trkpt lat="42.1254730" lon="-2.2091060">
        <ele>1045.6</ele>
        <time>2022-08-15T06:46:46Z</time>
      </trkpt>
      <trkpt lat="42.1255090" lon="-2.2091230">
        <ele>1046.1</ele>
        <time>2022-08-15T06:46:48Z</time>
      </trkpt>
      <trkpt lat="42.1255720" lon="-2.2091520">
        <ele>1046.7</ele>
        <time>2022-08-15T06:46:52Z</time>
      </trkpt>
      <trkpt lat="42.1255860" lon="-2.2091570">
        <ele>1046.9</ele>
        <time>2022-08-15T06:46:53Z</time>
      </trkpt>
      <trkpt lat="42.1256470" lon="-2.2091790">
        <ele>1047.5</ele>
        <time>2022-08-15T06:46:57Z</time>
      </trkpt>
      <trkpt lat="42.1257450" lon="-2.2092100">
        <ele>1048.6</ele>
        <time>2022-08-15T06:47:03Z</time>
      </trkpt>
      <trkpt lat="42.1257920" lon="-2.2092310">
        <ele>1049.2</ele>
        <time>2022-08-15T06:47:06Z</time>
      </trkpt>
      <trkpt lat="42.1258720" lon="-2.2092550">
        <ele>1050.5</ele>
        <time>2022-08-15T06:47:11Z</time>
      </trkpt>
      <trkpt lat="42.1259560" lon="-2.2093110">
        <ele>1052.1</ele>
        <time>2022-08-15T06:47:16Z</time>
      </trkpt>
      <trkpt lat="42.1259560" lon="-2.2093110">
        <ele>1052.1</ele>
        <time>2022-08-15T06:47:17Z</time>
      </trkpt>
      <trkpt lat="42.1260470" lon="-2.2093970">
        <ele>1054.1</ele>
        <time>2022-08-15T06:47:24Z</time>
      </trkpt>
      <trkpt lat="42.1260590" lon="-2.2094720">
        <ele>1055.0</ele>
        <time>2022-08-15T06:47:28Z</time>
      </trkpt>
      <trkpt lat="42.1260580" lon="-2.2095560">
        <ele>1055.8</ele>
        <time>2022-08-15T06:47:32Z</time>
      </trkpt>
      <trkpt lat="42.1260140" lon="-2.2096730">
        <ele>1056.7</ele>
        <time>2022-08-15T06:47:38Z</time>
      </trkpt>
      <trkpt lat="42.1259880" lon="-2.2097060">
        <ele>1057.0</ele>
        <time>2022-08-15T06:47:40Z</time>
      </trkpt>
      <trkpt lat="42.1259560" lon="-2.2097530">
        <ele>1057.4</ele>
        <time>2022-08-15T06:47:43Z</time>
      </trkpt>
      <trkpt lat="42.1258810" lon="-2.2098350">
        <ele>1057.9</ele>
        <time>2022-08-15T06:47:49Z</time>
      </trkpt>
      <trkpt lat="42.1258670" lon="-2.2098470">
        <ele>1058.0</ele>
        <time>2022-08-15T06:47:50Z</time>
      </trkpt>
      <trkpt lat="42.1257900" lon="-2.2098970">
        <ele>1058.4</ele>
        <time>2022-08-15T06:47:55Z</time>
      </trkpt>
      <trkpt lat="42.1257130" lon="-2.2099380">
        <ele>1058.9</ele>
        <time>2022-08-15T06:48:00Z</time>
      </trkpt>
      <trkpt lat="42.1256990" lon="-2.2099480">
        <ele>1059.0</ele>
        <time>2022-08-15T06:48:01Z</time>
      </trkpt>
      <trkpt lat="42.1256300" lon="-2.2099920">
        <ele>1059.4</ele>
        <time>2022-08-15T06:48:06Z</time>
      </trkpt>
      <trkpt lat="42.1255700" lon="-2.2100290">
        <ele>1059.9</ele>
        <time>2022-08-15T06:48:10Z</time>
      </trkpt>
      <trkpt lat="42.1255410" lon="-2.2100410">
        <ele>1060.1</ele>
        <time>2022-08-15T06:48:12Z</time>
      </trkpt>
      <trkpt lat="42.1254690" lon="-2.2100910">
        <ele>1060.7</ele>
        <time>2022-08-15T06:48:17Z</time>
      </trkpt>
      <trkpt lat="42.1254480" lon="-2.2100990">
        <ele>1060.8</ele>
        <time>2022-08-15T06:48:18Z</time>
      </trkpt>
      <trkpt lat="42.1253500" lon="-2.2101400">
        <ele>1061.6</ele>
        <time>2022-08-15T06:48:24Z</time>
      </trkpt>
      <trkpt lat="42.1252750" lon="-2.2101860">
        <ele>1062.3</ele>
        <time>2022-08-15T06:48:28Z</time>
      </trkpt>
      <trkpt lat="42.1252070" lon="-2.2102370">
        <ele>1062.9</ele>
        <time>2022-08-15T06:48:32Z</time>
      </trkpt>
      <trkpt lat="42.1251380" lon="-2.2102940">
        <ele>1063.6</ele>
        <time>2022-08-15T06:48:36Z</time>
      </trkpt>
      <trkpt lat="42.1250590" lon="-2.2103700">
        <ele>1064.5</ele>
        <time>2022-08-15T06:48:41Z</time>
      </trkpt>
      <trkpt lat="42.1249970" lon="-2.2104430">
        <ele>1065.3</ele>
        <time>2022-08-15T06:48:45Z</time>
      </trkpt>
      <trkpt lat="42.1249460" lon="-2.2105280">
        <ele>1066.1</ele>
        <time>2022-08-15T06:48:49Z</time>
      </trkpt>
      <trkpt lat="42.1249020" lon="-2.2106400">
        <ele>1067.0</ele>
        <time>2022-08-15T06:48:54Z</time>
      </trkpt>
      <trkpt lat="42.1248660" lon="-2.2107300">
        <ele>1067.7</ele>
        <time>2022-08-15T06:48:58Z</time>
      </trkpt>
      <trkpt lat="42.1248360" lon="-2.2108490">
        <ele>1069.1</ele>
        <time>2022-08-15T06:49:03Z</time>
      </trkpt>
      <trkpt lat="42.1248300" lon="-2.2108720">
        <ele>1069.3</ele>
        <time>2022-08-15T06:49:04Z</time>
      </trkpt>
      <trkpt lat="42.1248060" lon="-2.2109870">
        <ele>1070.4</ele>
        <time>2022-08-15T06:49:09Z</time>
      </trkpt>
      <trkpt lat="42.1247890" lon="-2.2110770">
        <ele>1071.1</ele>
        <time>2022-08-15T06:49:13Z</time>
      </trkpt>
      <trkpt lat="42.1247810" lon="-2.2111290">
        <ele>1071.5</ele>
        <time>2022-08-15T06:49:15Z</time>
      </trkpt>
      <trkpt lat="42.1247680" lon="-2.2112650">
        <ele>1072.6</ele>
        <time>2022-08-15T06:49:21Z</time>
      </trkpt>
      <trkpt lat="42.1247570" lon="-2.2113870">
        <ele>1073.6</ele>
        <time>2022-08-15T06:49:26Z</time>
      </trkpt>
      <trkpt lat="42.1247540" lon="-2.2114130">
        <ele>1073.8</ele>
        <time>2022-08-15T06:49:27Z</time>
      </trkpt>
      <trkpt lat="42.1247550" lon="-2.2115370">
        <ele>1074.8</ele>
        <time>2022-08-15T06:49:32Z</time>
      </trkpt>
      <trkpt lat="42.1247610" lon="-2.2116330">
        <ele>1075.6</ele>
        <time>2022-08-15T06:49:36Z</time>
      </trkpt>
      <trkpt lat="42.1247540" lon="-2.2117750">
        <ele>1077.0</ele>
        <time>2022-08-15T06:49:42Z</time>
      </trkpt>
      <trkpt lat="42.1247520" lon="-2.2118880">
        <ele>1078.2</ele>
        <time>2022-08-15T06:49:47Z</time>
      </trkpt>
      <trkpt lat="42.1247510" lon="-2.2119340">
        <ele>1078.7</ele>
        <time>2022-08-15T06:49:49Z</time>
      </trkpt>
      <trkpt lat="42.1247500" lon="-2.2120700">
        <ele>1080.4</ele>
        <time>2022-08-15T06:49:55Z</time>
      </trkpt>
      <trkpt lat="42.1247570" lon="-2.2121770">
        <ele>1081.7</ele>
        <time>2022-08-15T06:50:00Z</time>
      </trkpt>
      <trkpt lat="42.1247630" lon="-2.2121980">
        <ele>1082.0</ele>
        <time>2022-08-15T06:50:01Z</time>
      </trkpt>
      <trkpt lat="42.1248170" lon="-2.2122860">
        <ele>1083.2</ele>
        <time>2022-08-15T06:50:06Z</time>
      </trkpt>
      <trkpt lat="42.1248470" lon="-2.2123120">
        <ele>1083.6</ele>
        <time>2022-08-15T06:50:08Z</time>
      </trkpt>
      <trkpt lat="42.1249090" lon="-2.2123460">
        <ele>1084.4</ele>
        <time>2022-08-15T06:50:12Z</time>
      </trkpt>
      <trkpt lat="42.1249900" lon="-2.2123790">
        <ele>1085.2</ele>
        <time>2022-08-15T06:50:17Z</time>
      </trkpt>
      <trkpt lat="42.1250070" lon="-2.2123860">
        <ele>1085.3</ele>
        <time>2022-08-15T06:50:18Z</time>
      </trkpt>
      <trkpt lat="42.1251000" lon="-2.2124360">
        <ele>1086.2</ele>
        <time>2022-08-15T06:50:24Z</time>
      </trkpt>
      <trkpt lat="42.1251000" lon="-2.2124360">
        <ele>1086.2</ele>
        <time>2022-08-15T06:50:25Z</time>
      </trkpt>
      <trkpt lat="42.1251820" lon="-2.2124960">
        <ele>1087.0</ele>
        <time>2022-08-15T06:50:30Z</time>
      </trkpt>
      <trkpt lat="42.1252240" lon="-2.2125330">
        <ele>1087.5</ele>
        <time>2022-08-15T06:50:33Z</time>
      </trkpt>
      <trkpt lat="42.1252600" lon="-2.2125710">
        <ele>1088.0</ele>
        <time>2022-08-15T06:50:36Z</time>
      </trkpt>
      <trkpt lat="42.1253170" lon="-2.2126280">
        <ele>1088.7</ele>
        <time>2022-08-15T06:50:41Z</time>
      </trkpt>
      <trkpt lat="42.1253880" lon="-2.2126840">
        <ele>1089.6</ele>
        <time>2022-08-15T06:50:46Z</time>
      </trkpt>
      <trkpt lat="42.1254290" lon="-2.2127160">
        <ele>1090.1</ele>
        <time>2022-08-15T06:50:49Z</time>
      </trkpt>
      <trkpt lat="42.1254410" lon="-2.2127280">
        <ele>1090.2</ele>
        <time>2022-08-15T06:50:50Z</time>
      </trkpt>
      <trkpt lat="42.1255240" lon="-2.2127840">
        <ele>1091.3</ele>
        <time>2022-08-15T06:50:56Z</time>
      </trkpt>
      <trkpt lat="42.1255630" lon="-2.2128130">
        <ele>1091.8</ele>
        <time>2022-08-15T06:50:59Z</time>
      </trkpt>
      <trkpt lat="42.1256170" lon="-2.2128510">
        <ele>1092.5</ele>
        <time>2022-08-15T06:51:03Z</time>
      </trkpt>
      <trkpt lat="42.1256770" lon="-2.2128880">
        <ele>1093.3</ele>
        <time>2022-08-15T06:51:07Z</time>
      </trkpt>
      <trkpt lat="42.1257210" lon="-2.2129190">
        <ele>1093.8</ele>
        <time>2022-08-15T06:51:10Z</time>
      </trkpt>
      <trkpt lat="42.1257590" lon="-2.2129550">
        <ele>1094.4</ele>
        <time>2022-08-15T06:51:13Z</time>
      </trkpt>
      <trkpt lat="42.1258510" lon="-2.2130360">
        <ele>1095.6</ele>
        <time>2022-08-15T06:51:20Z</time>
      </trkpt>
      <trkpt lat="42.1258640" lon="-2.2130520">
        <ele>1095.7</ele>
        <time>2022-08-15T06:51:21Z</time>
      </trkpt>
      <trkpt lat="42.1259250" lon="-2.2131370">
        <ele>1096.6</ele>
        <time>2022-08-15T06:51:26Z</time>
      </trkpt>
      <trkpt lat="42.1259760" lon="-2.2132430">
        <ele>1097.5</ele>
        <time>2022-08-15T06:51:32Z</time>
      </trkpt>
      <trkpt lat="42.1259840" lon="-2.2132660">
        <ele>1097.7</ele>
        <time>2022-08-15T06:51:33Z</time>
      </trkpt>
      <trkpt lat="42.1260110" lon="-2.2133860">
        <ele>1098.5</ele>
        <time>2022-08-15T06:51:39Z</time>
      </trkpt>
      <trkpt lat="42.1260250" lon="-2.2134500">
        <ele>1099.0</ele>
        <time>2022-08-15T06:51:42Z</time>
      </trkpt>
      <trkpt lat="42.1260590" lon="-2.2135700">
        <ele>1099.8</ele>
        <time>2022-08-15T06:51:48Z</time>
      </trkpt>
      <trkpt lat="42.1260950" lon="-2.2136810">
        <ele>1100.6</ele>
        <time>2022-08-15T06:51:53Z</time>
      </trkpt>
      <trkpt lat="42.1261130" lon="-2.2137220">
        <ele>1100.9</ele>
        <time>2022-08-15T06:51:55Z</time>
      </trkpt>
      <trkpt lat="42.1261650" lon="-2.2138770">
        <ele>1102.0</ele>
        <time>2022-08-15T06:52:02Z</time>
      </trkpt>
      <trkpt lat="42.1261760" lon="-2.2139200">
        <ele>1102.3</ele>
        <time>2022-08-15T06:52:04Z</time>
      </trkpt>
      <trkpt lat="42.1262220" lon="-2.2141010">
        <ele>1103.6</ele>
        <time>2022-08-15T06:52:12Z</time>
      </trkpt>
      <trkpt lat="42.1262270" lon="-2.2141230">
        <ele>1103.7</ele>
        <time>2022-08-15T06:52:13Z</time>
      </trkpt>
      <trkpt lat="42.1262660" lon="-2.2142530">
        <ele>1104.7</ele>
        <time>2022-08-15T06:52:19Z</time>
      </trkpt>
      <trkpt lat="42.1263070" lon="-2.2143840">
        <ele>1105.9</ele>
        <time>2022-08-15T06:52:25Z</time>
      </trkpt>
      <trkpt lat="42.1263220" lon="-2.2144230">
        <ele>1106.3</ele>
        <time>2022-08-15T06:52:27Z</time>
      </trkpt>
      <trkpt lat="42.1263710" lon="-2.2145710">
        <ele>1108.4</ele>
        <time>2022-08-15T06:52:34Z</time>
      </trkpt>
      <trkpt lat="42.1264030" lon="-2.2146260">
        <ele>1109.6</ele>
        <time>2022-08-15T06:52:37Z</time>
      </trkpt>
      <trkpt lat="42.1264190" lon="-2.2146380">
        <ele>1110.0</ele>
        <time>2022-08-15T06:52:38Z</time>
      </trkpt>
      <trkpt lat="42.1264830" lon="-2.2146320">
        <ele>1111.4</ele>
        <time>2022-08-15T06:52:42Z</time>
      </trkpt>
      <trkpt lat="42.1265190" lon="-2.2145380">
        <ele>1112.9</ele>
        <time>2022-08-15T06:52:47Z</time>
      </trkpt>
      <trkpt lat="42.1264990" lon="-2.2144580">
        <ele>1113.8</ele>
        <time>2022-08-15T06:52:51Z</time>
      </trkpt>
      <trkpt lat="42.1264740" lon="-2.2144060">
        <ele>1114.4</ele>
        <time>2022-08-15T06:52:54Z</time>
      </trkpt>
      <trkpt lat="42.1264360" lon="-2.2143120">
        <ele>1115.1</ele>
        <time>2022-08-15T06:52:59Z</time>
      </trkpt>
      <trkpt lat="42.1264300" lon="-2.2142700">
        <ele>1115.4</ele>
        <time>2022-08-15T06:53:01Z</time>
      </trkpt>
      <trkpt lat="42.1264170" lon="-2.2141410">
        <ele>1116.1</ele>
        <time>2022-08-15T06:53:07Z</time>
      </trkpt>
      <trkpt lat="42.1264120" lon="-2.2140750">
        <ele>1116.5</ele>
        <time>2022-08-15T06:53:10Z</time>
      </trkpt>
      <trkpt lat="42.1264090" lon="-2.2140320">
        <ele>1116.7</ele>
        <time>2022-08-15T06:53:12Z</time>
      </trkpt>
      <trkpt lat="42.1264080" lon="-2.2139170">
        <ele>1117.3</ele>
        <time>2022-08-15T06:53:17Z</time>
      </trkpt>
      <trkpt lat="42.1264120" lon="-2.2138050">
        <ele>1117.8</ele>
        <time>2022-08-15T06:53:22Z</time>
      </trkpt>
      <trkpt lat="42.1264110" lon="-2.2137620">
        <ele>1118.1</ele>
        <time>2022-08-15T06:53:24Z</time>
      </trkpt>
      <trkpt lat="42.1264100" lon="-2.2136690">
        <ele>1118.5</ele>
        <time>2022-08-15T06:53:28Z</time>
      </trkpt>
      <trkpt lat="42.1263940" lon="-2.2135340">
        <ele>1119.1</ele>
        <time>2022-08-15T06:53:34Z</time>
      </trkpt>
      <trkpt lat="42.1263850" lon="-2.2134890">
        <ele>1119.4</ele>
        <time>2022-08-15T06:53:36Z</time>
      </trkpt>
      <trkpt lat="42.1263680" lon="-2.2133320">
        <ele>1120.2</ele>
        <time>2022-08-15T06:53:43Z</time>
      </trkpt>
      <trkpt lat="42.1263660" lon="-2.2132610">
        <ele>1120.6</ele>
        <time>2022-08-15T06:53:46Z</time>
      </trkpt>
      <trkpt lat="42.1263650" lon="-2.2131930">
        <ele>1121.0</ele>
        <time>2022-08-15T06:53:49Z</time>
      </trkpt>
      <trkpt lat="42.1263720" lon="-2.2130560">
        <ele>1121.7</ele>
        <time>2022-08-15T06:53:55Z</time>
      </trkpt>
      <trkpt lat="42.1263730" lon="-2.2130330">
        <ele>1121.9</ele>
        <time>2022-08-15T06:53:56Z</time>
      </trkpt>
      <trkpt lat="42.1263710" lon="-2.2128970">
        <ele>1122.6</ele>
        <time>2022-08-15T06:54:02Z</time>
      </trkpt>
      <trkpt lat="42.1263660" lon="-2.2128530">
        <ele>1122.9</ele>
        <time>2022-08-15T06:54:04Z</time>
      </trkpt>
      <trkpt lat="42.1263520" lon="-2.2127660">
        <ele>1123.4</ele>
        <time>2022-08-15T06:54:08Z</time>
      </trkpt>
      <trkpt lat="42.1263280" lon="-2.2126780">
        <ele>1123.9</ele>
        <time>2022-08-15T06:54:12Z</time>
      </trkpt>
      <trkpt lat="42.1263150" lon="-2.2126340">
        <ele>1124.2</ele>
        <time>2022-08-15T06:54:14Z</time>
      </trkpt>
      <trkpt lat="42.1262870" lon="-2.2125230">
        <ele>1124.9</ele>
        <time>2022-08-15T06:54:19Z</time>
      </trkpt>
      <trkpt lat="42.1262700" lon="-2.2124580">
        <ele>1125.3</ele>
        <time>2022-08-15T06:54:22Z</time>
      </trkpt>
      <trkpt lat="42.1262420" lon="-2.2123440">
        <ele>1126.1</ele>
        <time>2022-08-15T06:54:27Z</time>
      </trkpt>
      <trkpt lat="42.1262340" lon="-2.2122790">
        <ele>1126.5</ele>
        <time>2022-08-15T06:54:30Z</time>
      </trkpt>
      <trkpt lat="42.1262160" lon="-2.2121830">
        <ele>1127.1</ele>
        <time>2022-08-15T06:54:34Z</time>
      </trkpt>
      <trkpt lat="42.1262030" lon="-2.2120420">
        <ele>1128.0</ele>
        <time>2022-08-15T06:54:40Z</time>
      </trkpt>
      <trkpt lat="42.1262140" lon="-2.2119810">
        <ele>1128.3</ele>
        <time>2022-08-15T06:54:43Z</time>
      </trkpt>
      <trkpt lat="42.1262650" lon="-2.2118960">
        <ele>1128.7</ele>
        <time>2022-08-15T06:54:47Z</time>
      </trkpt>
      <trkpt lat="42.1263620" lon="-2.2118610">
        <ele>1129.0</ele>
        <time>2022-08-15T06:54:53Z</time>
      </trkpt>
      <trkpt lat="42.1264850" lon="-2.2119510">
        <ele>1129.0</ele>
        <time>2022-08-15T06:55:01Z</time>
      </trkpt>
      <trkpt lat="42.1264940" lon="-2.2119680">
        <ele>1129.0</ele>
        <time>2022-08-15T06:55:02Z</time>
      </trkpt>
      <trkpt lat="42.1265340" lon="-2.2120450">
        <ele>1128.9</ele>
        <time>2022-08-15T06:55:06Z</time>
      </trkpt>
      <trkpt lat="42.1265930" lon="-2.2121650">
        <ele>1128.9</ele>
        <time>2022-08-15T06:55:12Z</time>
      </trkpt>
      <trkpt lat="42.1266150" lon="-2.2122060">
        <ele>1128.9</ele>
        <time>2022-08-15T06:55:14Z</time>
      </trkpt>
      <trkpt lat="42.1266570" lon="-2.2122570">
        <ele>1128.9</ele>
        <time>2022-08-15T06:55:17Z</time>
      </trkpt>
      <trkpt lat="42.1267280" lon="-2.2123230">
        <ele>1128.9</ele>
        <time>2022-08-15T06:55:21Z</time>
      </trkpt>
      <trkpt lat="42.1267500" lon="-2.2123360">
        <ele>1129.0</ele>
        <time>2022-08-15T06:55:22Z</time>
      </trkpt>
      <trkpt lat="42.1269280" lon="-2.2123770">
        <ele>1129.3</ele>
        <time>2022-08-15T06:55:29Z</time>
      </trkpt>
      <trkpt lat="42.1269620" lon="-2.2123770">
        <ele>1129.5</ele>
        <time>2022-08-15T06:55:30Z</time>
      </trkpt>
      <trkpt lat="42.1270620" lon="-2.2123710">
        <ele>1129.8</ele>
        <time>2022-08-15T06:55:33Z</time>
      </trkpt>
      <trkpt lat="42.1271000" lon="-2.2123620">
        <ele>1130.0</ele>
        <time>2022-08-15T06:55:34Z</time>
      </trkpt>
      <trkpt lat="42.1271420" lon="-2.2123490">
        <ele>1130.2</ele>
        <time>2022-08-15T06:55:35Z</time>
      </trkpt>
      <trkpt lat="42.1273440" lon="-2.2122830">
        <ele>1131.2</ele>
        <time>2022-08-15T06:55:39Z</time>
      </trkpt>
      <trkpt lat="42.1273960" lon="-2.2122780">
        <ele>1131.5</ele>
        <time>2022-08-15T06:55:40Z</time>
      </trkpt>
      <trkpt lat="42.1274450" lon="-2.2122780">
        <ele>1131.7</ele>
        <time>2022-08-15T06:55:41Z</time>
      </trkpt>
      <trkpt lat="42.1275570" lon="-2.2123130">
        <ele>1132.5</ele>
        <time>2022-08-15T06:55:44Z</time>
      </trkpt>
      <trkpt lat="42.1275860" lon="-2.2123270">
        <ele>1132.7</ele>
        <time>2022-08-15T06:55:45Z</time>
      </trkpt>
      <trkpt lat="42.1276820" lon="-2.2123990">
        <ele>1133.5</ele>
        <time>2022-08-15T06:55:49Z</time>
      </trkpt>
      <trkpt lat="42.1277040" lon="-2.2124170">
        <ele>1133.7</ele>
        <time>2022-08-15T06:55:50Z</time>
      </trkpt>
      <trkpt lat="42.1277680" lon="-2.2124720">
        <ele>1134.3</ele>
        <time>2022-08-15T06:55:53Z</time>
      </trkpt>
      <trkpt lat="42.1278350" lon="-2.2125440">
        <ele>1135.0</ele>
        <time>2022-08-15T06:55:57Z</time>
      </trkpt>
      <trkpt lat="42.1278490" lon="-2.2125610">
        <ele>1135.1</ele>
        <time>2022-08-15T06:55:58Z</time>
      </trkpt>
      <trkpt lat="42.1278790" lon="-2.2125970">
        <ele>1135.5</ele>
        <time>2022-08-15T06:56:00Z</time>
      </trkpt>
      <trkpt lat="42.1279460" lon="-2.2126870">
        <ele>1136.4</ele>
        <time>2022-08-15T06:56:05Z</time>
      </trkpt>
      <trkpt lat="42.1279610" lon="-2.2127050">
        <ele>1136.6</ele>
        <time>2022-08-15T06:56:06Z</time>
      </trkpt>
      <trkpt lat="42.1279760" lon="-2.2127220">
        <ele>1136.8</ele>
        <time>2022-08-15T06:56:07Z</time>
      </trkpt>
      <trkpt lat="42.1280650" lon="-2.2128270">
        <ele>1138.1</ele>
        <time>2022-08-15T06:56:13Z</time>
      </trkpt>
      <trkpt lat="42.1280940" lon="-2.2128660">
        <ele>1138.6</ele>
        <time>2022-08-15T06:56:15Z</time>
      </trkpt>
      <trkpt lat="42.1281230" lon="-2.2129020">
        <ele>1139.0</ele>
        <time>2022-08-15T06:56:17Z</time>
      </trkpt>
      <trkpt lat="42.1281970" lon="-2.2129770">
        <ele>1140.1</ele>
        <time>2022-08-15T06:56:22Z</time>
      </trkpt>
      <trkpt lat="42.1282540" lon="-2.2130380">
        <ele>1141.0</ele>
        <time>2022-08-15T06:56:26Z</time>
      </trkpt>
      <trkpt lat="42.1283030" lon="-2.2130800">
        <ele>1141.7</ele>
        <time>2022-08-15T06:56:29Z</time>
      </trkpt>
      <trkpt lat="42.1283600" lon="-2.2131170">
        <ele>1142.4</ele>
        <time>2022-08-15T06:56:33Z</time>
      </trkpt>
      <trkpt lat="42.1283890" lon="-2.2131230">
        <ele>1142.7</ele>
        <time>2022-08-15T06:56:35Z</time>
      </trkpt>
      <trkpt lat="42.1284060" lon="-2.2131200">
        <ele>1142.9</ele>
        <time>2022-08-15T06:56:36Z</time>
      </trkpt>
      <trkpt lat="42.1284790" lon="-2.2131150">
        <ele>1143.6</ele>
        <time>2022-08-15T06:56:40Z</time>
      </trkpt>
      <trkpt lat="42.1285380" lon="-2.2130950">
        <ele>1144.2</ele>
        <time>2022-08-15T06:56:43Z</time>
      </trkpt>
      <trkpt lat="42.1286040" lon="-2.2130610">
        <ele>1145.0</ele>
        <time>2022-08-15T06:56:47Z</time>
      </trkpt>
      <trkpt lat="42.1286810" lon="-2.2130040">
        <ele>1146.0</ele>
        <time>2022-08-15T06:56:52Z</time>
      </trkpt>
      <trkpt lat="42.1287110" lon="-2.2129790">
        <ele>1146.5</ele>
        <time>2022-08-15T06:56:54Z</time>
      </trkpt>
      <trkpt lat="42.1287910" lon="-2.2129280">
        <ele>1147.7</ele>
        <time>2022-08-15T06:56:59Z</time>
      </trkpt>
      <trkpt lat="42.1288440" lon="-2.2128930">
        <ele>1148.5</ele>
        <time>2022-08-15T06:57:02Z</time>
      </trkpt>
      <trkpt lat="42.1288600" lon="-2.2128850">
        <ele>1148.7</ele>
        <time>2022-08-15T06:57:03Z</time>
      </trkpt>
      <trkpt lat="42.1289870" lon="-2.2128600">
        <ele>1150.4</ele>
        <time>2022-08-15T06:57:10Z</time>
      </trkpt>
      <trkpt lat="42.1290210" lon="-2.2128630">
        <ele>1150.8</ele>
        <time>2022-08-15T06:57:12Z</time>
      </trkpt>
      <trkpt lat="42.1290540" lon="-2.2128700">
        <ele>1151.1</ele>
        <time>2022-08-15T06:57:14Z</time>
      </trkpt>
      <trkpt lat="42.1291030" lon="-2.2128880">
        <ele>1151.6</ele>
        <time>2022-08-15T06:57:17Z</time>
      </trkpt>
      <trkpt lat="42.1291350" lon="-2.2129010">
        <ele>1151.8</ele>
        <time>2022-08-15T06:57:19Z</time>
      </trkpt>
      <trkpt lat="42.1291520" lon="-2.2129060">
        <ele>1151.9</ele>
        <time>2022-08-15T06:57:20Z</time>
      </trkpt>
      <trkpt lat="42.1292440" lon="-2.2129670">
        <ele>1152.4</ele>
        <time>2022-08-15T06:57:26Z</time>
      </trkpt>
      <trkpt lat="42.1292580" lon="-2.2129780">
        <ele>1152.5</ele>
        <time>2022-08-15T06:57:27Z</time>
      </trkpt>
      <trkpt lat="42.1293030" lon="-2.2130100">
        <ele>1152.7</ele>
        <time>2022-08-15T06:57:30Z</time>
      </trkpt>
      <trkpt lat="42.1293500" lon="-2.2130410">
        <ele>1152.9</ele>
        <time>2022-08-15T06:57:33Z</time>
      </trkpt>
      <trkpt lat="42.1294400" lon="-2.2130970">
        <ele>1153.4</ele>
        <time>2022-08-15T06:57:39Z</time>
      </trkpt>
      <trkpt lat="42.1295050" lon="-2.2131220">
        <ele>1153.7</ele>
        <time>2022-08-15T06:57:43Z</time>
      </trkpt>
      <trkpt lat="42.1296050" lon="-2.2131540">
        <ele>1154.4</ele>
        <time>2022-08-15T06:57:49Z</time>
      </trkpt>
      <trkpt lat="42.1296290" lon="-2.2131680">
        <ele>1154.5</ele>
        <time>2022-08-15T06:57:51Z</time>
      </trkpt>
      <trkpt lat="42.1297080" lon="-2.2131810">
        <ele>1155.1</ele>
        <time>2022-08-15T06:57:56Z</time>
      </trkpt>
      <trkpt lat="42.1297260" lon="-2.2131820">
        <ele>1155.3</ele>
        <time>2022-08-15T06:57:57Z</time>
      </trkpt>
      <trkpt lat="42.1298220" lon="-2.2132120">
        <ele>1156.1</ele>
        <time>2022-08-15T06:58:03Z</time>
      </trkpt>
      <trkpt lat="42.1298560" lon="-2.2132140">
        <ele>1156.4</ele>
        <time>2022-08-15T06:58:05Z</time>
      </trkpt>
      <trkpt lat="42.1299220" lon="-2.2132470">
        <ele>1157.1</ele>
        <time>2022-08-15T06:58:09Z</time>
      </trkpt>
      <trkpt lat="42.1299690" lon="-2.2132560">
        <ele>1157.6</ele>
        <time>2022-08-15T06:58:12Z</time>
      </trkpt>
      <trkpt lat="42.1300600" lon="-2.2132710">
        <ele>1158.5</ele>
        <time>2022-08-15T06:58:17Z</time>
      </trkpt>
      <trkpt lat="42.1300920" lon="-2.2132830">
        <ele>1158.9</ele>
        <time>2022-08-15T06:58:19Z</time>
      </trkpt>
      <trkpt lat="42.1301660" lon="-2.2133090">
        <ele>1159.7</ele>
        <time>2022-08-15T06:58:24Z</time>
      </trkpt>
      <trkpt lat="42.1302280" lon="-2.2133310">
        <ele>1160.4</ele>
        <time>2022-08-15T06:58:28Z</time>
      </trkpt>
      <trkpt lat="42.1302840" lon="-2.2133310">
        <ele>1161.0</ele>
        <time>2022-08-15T06:58:31Z</time>
      </trkpt>
      <trkpt lat="42.1303670" lon="-2.2133300">
        <ele>1162.0</ele>
        <time>2022-08-15T06:58:36Z</time>
      </trkpt>
      <trkpt lat="42.1303850" lon="-2.2133280">
        <ele>1162.2</ele>
        <time>2022-08-15T06:58:37Z</time>
      </trkpt>
      <trkpt lat="42.1305050" lon="-2.2132780">
        <ele>1163.7</ele>
        <time>2022-08-15T06:58:45Z</time>
      </trkpt>
      <trkpt lat="42.1305240" lon="-2.2132700">
        <ele>1164.0</ele>
        <time>2022-08-15T06:58:46Z</time>
      </trkpt>
      <trkpt lat="42.1306440" lon="-2.2132270">
        <ele>1165.6</ele>
        <time>2022-08-15T06:58:53Z</time>
      </trkpt>
      <trkpt lat="42.1306970" lon="-2.2132150">
        <ele>1166.3</ele>
        <time>2022-08-15T06:58:56Z</time>
      </trkpt>
      <trkpt lat="42.1307660" lon="-2.2132070">
        <ele>1167.3</ele>
        <time>2022-08-15T06:59:00Z</time>
      </trkpt>
      <trkpt lat="42.1308330" lon="-2.2132160">
        <ele>1168.1</ele>
        <time>2022-08-15T06:59:04Z</time>
      </trkpt>
      <trkpt lat="42.1308630" lon="-2.2132250">
        <ele>1168.5</ele>
        <time>2022-08-15T06:59:06Z</time>
      </trkpt>
      <trkpt lat="42.1309770" lon="-2.2132970">
        <ele>1169.7</ele>
        <time>2022-08-15T06:59:13Z</time>
      </trkpt>
      <trkpt lat="42.1310470" lon="-2.2133830">
        <ele>1170.4</ele>
        <time>2022-08-15T06:59:19Z</time>
      </trkpt>
      <trkpt lat="42.1311050" lon="-2.2134690">
        <ele>1171.0</ele>
        <time>2022-08-15T06:59:24Z</time>
      </trkpt>
      <trkpt lat="42.1311280" lon="-2.2134980">
        <ele>1171.2</ele>
        <time>2022-08-15T06:59:26Z</time>
      </trkpt>
      <trkpt lat="42.1311660" lon="-2.2135620">
        <ele>1171.5</ele>
        <time>2022-08-15T06:59:30Z</time>
      </trkpt>
      <trkpt lat="42.1312170" lon="-2.2136450">
        <ele>1172.0</ele>
        <time>2022-08-15T06:59:35Z</time>
      </trkpt>
      <trkpt lat="42.1312260" lon="-2.2136610">
        <ele>1172.1</ele>
        <time>2022-08-15T06:59:36Z</time>
      </trkpt>
      <trkpt lat="42.1312880" lon="-2.2137710">
        <ele>1172.6</ele>
        <time>2022-08-15T06:59:42Z</time>
      </trkpt>
      <trkpt lat="42.1313180" lon="-2.2138300">
        <ele>1172.9</ele>
        <time>2022-08-15T06:59:45Z</time>
      </trkpt>
      <trkpt lat="42.1313590" lon="-2.2139440">
        <ele>1173.4</ele>
        <time>2022-08-15T06:59:50Z</time>
      </trkpt>
      <trkpt lat="42.1313900" lon="-2.2140240">
        <ele>1173.8</ele>
        <time>2022-08-15T06:59:54Z</time>
      </trkpt>
      <trkpt lat="42.1314500" lon="-2.2141840">
        <ele>1175.3</ele>
        <time>2022-08-15T07:00:02Z</time>
      </trkpt>
      <trkpt lat="42.1314580" lon="-2.2142030">
        <ele>1175.5</ele>
        <time>2022-08-15T07:00:03Z</time>
      </trkpt>
      <trkpt lat="42.1315030" lon="-2.2143220">
        <ele>1176.6</ele>
        <time>2022-08-15T07:00:09Z</time>
      </trkpt>
      <trkpt lat="42.1315110" lon="-2.2143420">
        <ele>1176.8</ele>
        <time>2022-08-15T07:00:10Z</time>
      </trkpt>
      <trkpt lat="42.1315570" lon="-2.2144130">
        <ele>1177.5</ele>
        <time>2022-08-15T07:00:14Z</time>
      </trkpt>
      <trkpt lat="42.1315680" lon="-2.2144220">
        <ele>1177.6</ele>
        <time>2022-08-15T07:00:16Z</time>
      </trkpt>
      <trkpt lat="42.1316340" lon="-2.2144850">
        <ele>1178.3</ele>
        <time>2022-08-15T07:00:21Z</time>
      </trkpt>
      <trkpt lat="42.1316620" lon="-2.2145110">
        <ele>1178.5</ele>
        <time>2022-08-15T07:00:23Z</time>
      </trkpt>
      <trkpt lat="42.1317050" lon="-2.2145630">
        <ele>1178.9</ele>
        <time>2022-08-15T07:00:27Z</time>
      </trkpt>
      <trkpt lat="42.1317620" lon="-2.2146050">
        <ele>1179.3</ele>
        <time>2022-08-15T07:00:31Z</time>
      </trkpt>
      <trkpt lat="42.1317830" lon="-2.2146340">
        <ele>1179.5</ele>
        <time>2022-08-15T07:00:33Z</time>
      </trkpt>
      <trkpt lat="42.1318570" lon="-2.2147200">
        <ele>1180.1</ele>
        <time>2022-08-15T07:00:39Z</time>
      </trkpt>
      <trkpt lat="42.1319600" lon="-2.2148110">
        <ele>1180.9</ele>
        <time>2022-08-15T07:00:46Z</time>
      </trkpt>
      <trkpt lat="42.1320030" lon="-2.2148530">
        <ele>1181.2</ele>
        <time>2022-08-15T07:00:49Z</time>
      </trkpt>
      <trkpt lat="42.1320620" lon="-2.2149100">
        <ele>1181.7</ele>
        <time>2022-08-15T07:00:53Z</time>
      </trkpt>
      <trkpt lat="42.1321010" lon="-2.2149520">
        <ele>1182.1</ele>
        <time>2022-08-15T07:00:56Z</time>
      </trkpt>
      <trkpt lat="42.1321250" lon="-2.2149830">
        <ele>1182.3</ele>
        <time>2022-08-15T07:00:58Z</time>
      </trkpt>
      <trkpt lat="42.1321940" lon="-2.2150550">
        <ele>1183.0</ele>
        <time>2022-08-15T07:01:03Z</time>
      </trkpt>
      <trkpt lat="42.1322080" lon="-2.2150680">
        <ele>1183.1</ele>
        <time>2022-08-15T07:01:04Z</time>
      </trkpt>
      <trkpt lat="42.1323110" lon="-2.2152100">
        <ele>1184.2</ele>
        <time>2022-08-15T07:01:12Z</time>
      </trkpt>
      <trkpt lat="42.1323340" lon="-2.2152450">
        <ele>1184.5</ele>
        <time>2022-08-15T07:01:14Z</time>
      </trkpt>
      <trkpt lat="42.1324490" lon="-2.2153340">
        <ele>1185.6</ele>
        <time>2022-08-15T07:01:22Z</time>
      </trkpt>
      <trkpt lat="42.1324610" lon="-2.2153480">
        <ele>1185.7</ele>
        <time>2022-08-15T07:01:23Z</time>
      </trkpt>
      <trkpt lat="42.1325380" lon="-2.2154000">
        <ele>1186.3</ele>
        <time>2022-08-15T07:01:28Z</time>
      </trkpt>
      <trkpt lat="42.1325470" lon="-2.2154080">
        <ele>1186.4</ele>
        <time>2022-08-15T07:01:29Z</time>
      </trkpt>
      <trkpt lat="42.1325540" lon="-2.2154170">
        <ele>1186.5</ele>
        <time>2022-08-15T07:01:30Z</time>
      </trkpt>
      <trkpt lat="42.1325740" lon="-2.2154380">
        <ele>1186.7</ele>
        <time>2022-08-15T07:01:32Z</time>
      </trkpt>
      <trkpt lat="42.1326080" lon="-2.2154600">
        <ele>1187.0</ele>
        <time>2022-08-15T07:01:34Z</time>
      </trkpt>
      <trkpt lat="42.1326600" lon="-2.2154890">
        <ele>1187.4</ele>
        <time>2022-08-15T07:01:37Z</time>
      </trkpt>
      <trkpt lat="42.1327280" lon="-2.2155370">
        <ele>1187.9</ele>
        <time>2022-08-15T07:01:41Z</time>
      </trkpt>
      <trkpt lat="42.1328320" lon="-2.2156090">
        <ele>1188.7</ele>
        <time>2022-08-15T07:01:47Z</time>
      </trkpt>
      <trkpt lat="42.1328610" lon="-2.2156350">
        <ele>1189.0</ele>
        <time>2022-08-15T07:01:49Z</time>
      </trkpt>
      <trkpt lat="42.1329550" lon="-2.2157210">
        <ele>1189.9</ele>
        <time>2022-08-15T07:01:55Z</time>
      </trkpt>
      <trkpt lat="42.1329680" lon="-2.2157350">
        <ele>1190.0</ele>
        <time>2022-08-15T07:01:56Z</time>
      </trkpt>
      <trkpt lat="42.1330870" lon="-2.2158440">
        <ele>1191.1</ele>
        <time>2022-08-15T07:02:04Z</time>
      </trkpt>
      <trkpt lat="42.1331990" lon="-2.2159670">
        <ele>1192.3</ele>
        <time>2022-08-15T07:02:12Z</time>
      </trkpt>
      <trkpt lat="42.1332150" lon="-2.2159860">
        <ele>1192.4</ele>
        <time>2022-08-15T07:02:13Z</time>
      </trkpt>
      <trkpt lat="42.1333150" lon="-2.2160900">
        <ele>1193.4</ele>
        <time>2022-08-15T07:02:20Z</time>
      </trkpt>
      <trkpt lat="42.1333710" lon="-2.2161270">
        <ele>1193.8</ele>
        <time>2022-08-15T07:02:23Z</time>
      </trkpt>
      <trkpt lat="42.1335090" lon="-2.2161840">
        <ele>1194.8</ele>
        <time>2022-08-15T07:02:30Z</time>
      </trkpt>
      <trkpt lat="42.1336860" lon="-2.2161880">
        <ele>1196.0</ele>
        <time>2022-08-15T07:02:39Z</time>
      </trkpt>
      <trkpt lat="42.1337050" lon="-2.2161890">
        <ele>1196.1</ele>
        <time>2022-08-15T07:02:40Z</time>
      </trkpt>
      <trkpt lat="42.1338700" lon="-2.2161920">
        <ele>1197.4</ele>
        <time>2022-08-15T07:02:48Z</time>
      </trkpt>
      <trkpt lat="42.1338910" lon="-2.2161940">
        <ele>1197.5</ele>
        <time>2022-08-15T07:02:49Z</time>
      </trkpt>
      <trkpt lat="42.1340150" lon="-2.2162120">
        <ele>1198.3</ele>
        <time>2022-08-15T07:02:55Z</time>
      </trkpt>
      <trkpt lat="42.1340920" lon="-2.2162180">
        <ele>1198.9</ele>
        <time>2022-08-15T07:02:59Z</time>
      </trkpt>
      <trkpt lat="42.1341310" lon="-2.2162170">
        <ele>1199.1</ele>
        <time>2022-08-15T07:03:01Z</time>
      </trkpt>
      <trkpt lat="42.1343050" lon="-2.2162220">
        <ele>1200.4</ele>
        <time>2022-08-15T07:03:10Z</time>
      </trkpt>
      <trkpt lat="42.1343430" lon="-2.2162240">
        <ele>1200.7</ele>
        <time>2022-08-15T07:03:12Z</time>
      </trkpt>
      <trkpt lat="42.1344480" lon="-2.2162260">
        <ele>1201.6</ele>
        <time>2022-08-15T07:03:18Z</time>
      </trkpt>
      <trkpt lat="42.1345230" lon="-2.2162280">
        <ele>1202.2</ele>
        <time>2022-08-15T07:03:22Z</time>
      </trkpt>
      <trkpt lat="42.1345750" lon="-2.2162200">
        <ele>1202.7</ele>
        <time>2022-08-15T07:03:25Z</time>
      </trkpt>
      <trkpt lat="42.1346780" lon="-2.2162200">
        <ele>1203.6</ele>
        <time>2022-08-15T07:03:31Z</time>
      </trkpt>
      <trkpt lat="42.1347110" lon="-2.2162200">
        <ele>1203.9</ele>
        <time>2022-08-15T07:03:33Z</time>
      </trkpt>
      <trkpt lat="42.1347810" lon="-2.2162180">
        <ele>1204.6</ele>
        <time>2022-08-15T07:03:37Z</time>
      </trkpt>
      <trkpt lat="42.1348830" lon="-2.2162100">
        <ele>1205.5</ele>
        <time>2022-08-15T07:03:43Z</time>
      </trkpt>
      <trkpt lat="42.1349740" lon="-2.2161940">
        <ele>1206.3</ele>
        <time>2022-08-15T07:03:48Z</time>
      </trkpt>
      <trkpt lat="42.1351030" lon="-2.2161710">
        <ele>1207.6</ele>
        <time>2022-08-15T07:03:55Z</time>
      </trkpt>
      <trkpt lat="42.1352260" lon="-2.2161530">
        <ele>1208.9</ele>
        <time>2022-08-15T07:04:02Z</time>
      </trkpt>
      <trkpt lat="42.1353130" lon="-2.2161610">
        <ele>1209.8</ele>
        <time>2022-08-15T07:04:07Z</time>
      </trkpt>
      <trkpt lat="42.1354060" lon="-2.2161930">
        <ele>1210.7</ele>
        <time>2022-08-15T07:04:12Z</time>
      </trkpt>
      <trkpt lat="42.1354660" lon="-2.2162000">
        <ele>1211.2</ele>
        <time>2022-08-15T07:04:15Z</time>
      </trkpt>
      <trkpt lat="42.1355750" lon="-2.2161810">
        <ele>1211.9</ele>
        <time>2022-08-15T07:04:20Z</time>
      </trkpt>
      <trkpt lat="42.1356450" lon="-2.2161400">
        <ele>1212.3</ele>
        <time>2022-08-15T07:04:24Z</time>
      </trkpt>
      <trkpt lat="42.1357440" lon="-2.2160200">
        <ele>1213.0</ele>
        <time>2022-08-15T07:04:31Z</time>
      </trkpt>
      <trkpt lat="42.1358590" lon="-2.2158250">
        <ele>1213.8</ele>
        <time>2022-08-15T07:04:40Z</time>
      </trkpt>
      <trkpt lat="42.1358810" lon="-2.2157790">
        <ele>1214.0</ele>
        <time>2022-08-15T07:04:42Z</time>
      </trkpt>
      <trkpt lat="42.1359750" lon="-2.2156010">
        <ele>1214.9</ele>
        <time>2022-08-15T07:04:50Z</time>
      </trkpt>
      <trkpt lat="42.1360160" lon="-2.2155080">
        <ele>1215.4</ele>
        <time>2022-08-15T07:04:54Z</time>
      </trkpt>
      <trkpt lat="42.1360340" lon="-2.2154640">
        <ele>1215.6</ele>
        <time>2022-08-15T07:04:56Z</time>
      </trkpt>
      <trkpt lat="42.1360750" lon="-2.2153600">
        <ele>1216.2</ele>
        <time>2022-08-15T07:05:01Z</time>
      </trkpt>
      <trkpt lat="42.1360830" lon="-2.2153400">
        <ele>1216.3</ele>
        <time>2022-08-15T07:05:02Z</time>
      </trkpt>
      <trkpt lat="42.1360920" lon="-2.2153170">
        <ele>1216.4</ele>
        <time>2022-08-15T07:05:03Z</time>
      </trkpt>
      <trkpt lat="42.1361490" lon="-2.2151570">
        <ele>1217.2</ele>
        <time>2022-08-15T07:05:10Z</time>
      </trkpt>
      <trkpt lat="42.1361680" lon="-2.2151070">
        <ele>1217.5</ele>
        <time>2022-08-15T07:05:12Z</time>
      </trkpt>
      <trkpt lat="42.1362300" lon="-2.2149470">
        <ele>1218.3</ele>
        <time>2022-08-15T07:05:19Z</time>
      </trkpt>
      <trkpt lat="42.1362870" lon="-2.2148070">
        <ele>1218.9</ele>
        <time>2022-08-15T07:05:25Z</time>
      </trkpt>
      <trkpt lat="42.1363090" lon="-2.2147610">
        <ele>1219.2</ele>
        <time>2022-08-15T07:05:27Z</time>
      </trkpt>
      <trkpt lat="42.1364000" lon="-2.2146180">
        <ele>1220.0</ele>
        <time>2022-08-15T07:05:34Z</time>
      </trkpt>
      <trkpt lat="42.1364990" lon="-2.2144910">
        <ele>1220.9</ele>
        <time>2022-08-15T07:05:41Z</time>
      </trkpt>
      <trkpt lat="42.1365780" lon="-2.2144070">
        <ele>1221.6</ele>
        <time>2022-08-15T07:05:46Z</time>
      </trkpt>
      <trkpt lat="42.1366090" lon="-2.2143780">
        <ele>1221.8</ele>
        <time>2022-08-15T07:05:48Z</time>
      </trkpt>
      <trkpt lat="42.1367520" lon="-2.2142900">
        <ele>1222.7</ele>
        <time>2022-08-15T07:05:56Z</time>
      </trkpt>
      <trkpt lat="42.1369800" lon="-2.2142220">
        <ele>1224.1</ele>
        <time>2022-08-15T07:06:06Z</time>
      </trkpt>
      <trkpt lat="42.1371980" lon="-2.2141650">
        <ele>1225.6</ele>
        <time>2022-08-15T07:06:16Z</time>
      </trkpt>
      <trkpt lat="42.1372190" lon="-2.2141570">
        <ele>1225.8</ele>
        <time>2022-08-15T07:06:17Z</time>
      </trkpt>
      <trkpt lat="42.1372580" lon="-2.2141440">
        <ele>1226.1</ele>
        <time>2022-08-15T07:06:19Z</time>
      </trkpt>
      <trkpt lat="42.1374000" lon="-2.2140540">
        <ele>1227.3</ele>
        <time>2022-08-15T07:06:26Z</time>
      </trkpt>
      <trkpt lat="42.1374700" lon="-2.2139790">
        <ele>1227.9</ele>
        <time>2022-08-15T07:06:30Z</time>
      </trkpt>
      <trkpt lat="42.1375420" lon="-2.2138570">
        <ele>1228.7</ele>
        <time>2022-08-15T07:06:35Z</time>
      </trkpt>
      <trkpt lat="42.1376190" lon="-2.2137070">
        <ele>1229.6</ele>
        <time>2022-08-15T07:06:41Z</time>
      </trkpt>
      <trkpt lat="42.1376930" lon="-2.2135770">
        <ele>1230.8</ele>
        <time>2022-08-15T07:06:47Z</time>
      </trkpt>
      <trkpt lat="42.1377500" lon="-2.2134920">
        <ele>1231.7</ele>
        <time>2022-08-15T07:06:51Z</time>
      </trkpt>
      <trkpt lat="42.1378150" lon="-2.2133910">
        <ele>1232.7</ele>
        <time>2022-08-15T07:06:56Z</time>
      </trkpt>
      <trkpt lat="42.1378300" lon="-2.2133730">
        <ele>1232.8</ele>
        <time>2022-08-15T07:06:57Z</time>
      </trkpt>
      <trkpt lat="42.1378970" lon="-2.2132720">
        <ele>1233.8</ele>
        <time>2022-08-15T07:07:02Z</time>
      </trkpt>
      <trkpt lat="42.1379120" lon="-2.2132540">
        <ele>1233.9</ele>
        <time>2022-08-15T07:07:03Z</time>
      </trkpt>
      <trkpt lat="42.1379720" lon="-2.2131900">
        <ele>1234.6</ele>
        <time>2022-08-15T07:07:07Z</time>
      </trkpt>
      <trkpt lat="42.1379880" lon="-2.2131740">
        <ele>1234.8</ele>
        <time>2022-08-15T07:07:08Z</time>
      </trkpt>
      <trkpt lat="42.1380650" lon="-2.2131010">
        <ele>1235.6</ele>
        <time>2022-08-15T07:07:13Z</time>
      </trkpt>
      <trkpt lat="42.1381580" lon="-2.2130060">
        <ele>1236.6</ele>
        <time>2022-08-15T07:07:19Z</time>
      </trkpt>
      <trkpt lat="42.1382570" lon="-2.2129230">
        <ele>1237.5</ele>
        <time>2022-08-15T07:07:25Z</time>
      </trkpt>
      <trkpt lat="42.1383510" lon="-2.2128740">
        <ele>1237.9</ele>
        <time>2022-08-15T07:07:30Z</time>
      </trkpt>
      <trkpt lat="42.1383700" lon="-2.2128660">
        <ele>1237.9</ele>
        <time>2022-08-15T07:07:31Z</time>
      </trkpt>
      <trkpt lat="42.1384810" lon="-2.2128350">
        <ele>1237.7</ele>
        <time>2022-08-15T07:07:37Z</time>
      </trkpt>
      <trkpt lat="42.1385270" lon="-2.2128350">
        <ele>1237.5</ele>
        <time>2022-08-15T07:07:40Z</time>
      </trkpt>
      <trkpt lat="42.1385420" lon="-2.2128350">
        <ele>1237.4</ele>
        <time>2022-08-15T07:07:41Z</time>
      </trkpt>
      <trkpt lat="42.1385650" lon="-2.2128340">
        <ele>1237.3</ele>
        <time>2022-08-15T07:07:43Z</time>
      </trkpt>
      <trkpt lat="42.1385610" lon="-2.2128230">
        <ele>1237.3</ele>
        <time>2022-08-15T07:10:41Z</time>
      </trkpt>
      <trkpt lat="42.1385580" lon="-2.2128340">
        <ele>1237.2</ele>
        <time>2022-08-15T07:10:42Z</time>
      </trkpt>
      <trkpt lat="42.1385620" lon="-2.2128480">
        <ele>1237.2</ele>
        <time>2022-08-15T07:10:43Z</time>
      </trkpt>
      <trkpt lat="42.1385710" lon="-2.2128860">
        <ele>1237.0</ele>
        <time>2022-08-15T07:10:45Z</time>
      </trkpt>
      <trkpt lat="42.1385870" lon="-2.2129460">
        <ele>1236.7</ele>
        <time>2022-08-15T07:10:47Z</time>
      </trkpt>
      <trkpt lat="42.1386120" lon="-2.2130380">
        <ele>1236.3</ele>
        <time>2022-08-15T07:10:49Z</time>
      </trkpt>
      <trkpt lat="42.1386430" lon="-2.2131590">
        <ele>1235.8</ele>
        <time>2022-08-15T07:10:51Z</time>
      </trkpt>
      <trkpt lat="42.1387610" lon="-2.2135930">
        <ele>1233.7</ele>
        <time>2022-08-15T07:10:57Z</time>
      </trkpt>
      <trkpt lat="42.1387900" lon="-2.2136640">
        <ele>1233.2</ele>
        <time>2022-08-15T07:10:58Z</time>
      </trkpt>
      <trkpt lat="42.1389020" lon="-2.2138740">
        <ele>1231.7</ele>
        <time>2022-08-15T07:11:01Z</time>
      </trkpt>
      <trkpt lat="42.1389880" lon="-2.2140160">
        <ele>1230.6</ele>
        <time>2022-08-15T07:11:03Z</time>
      </trkpt>
      <trkpt lat="42.1390790" lon="-2.2141510">
        <ele>1229.3</ele>
        <time>2022-08-15T07:11:05Z</time>
      </trkpt>
      <trkpt lat="42.1391900" lon="-2.2142490">
        <ele>1228.1</ele>
        <time>2022-08-15T07:11:07Z</time>
      </trkpt>
      <trkpt lat="42.1392500" lon="-2.2142800">
        <ele>1227.5</ele>
        <time>2022-08-15T07:11:08Z</time>
      </trkpt>
      <trkpt lat="42.1393140" lon="-2.2142970">
        <ele>1226.8</ele>
        <time>2022-08-15T07:11:09Z</time>
      </trkpt>
      <trkpt lat="42.1393820" lon="-2.2143090">
        <ele>1226.1</ele>
        <time>2022-08-15T07:11:10Z</time>
      </trkpt>
      <trkpt lat="42.1394550" lon="-2.2143170">
        <ele>1225.4</ele>
        <time>2022-08-15T07:11:11Z</time>
      </trkpt>
      <trkpt lat="42.1395310" lon="-2.2143230">
        <ele>1224.7</ele>
        <time>2022-08-15T07:11:12Z</time>
      </trkpt>
      <trkpt lat="42.1397560" lon="-2.2143750">
        <ele>1222.3</ele>
        <time>2022-08-15T07:11:15Z</time>
      </trkpt>
      <trkpt lat="42.1398240" lon="-2.2144130">
        <ele>1221.6</ele>
        <time>2022-08-15T07:11:16Z</time>
      </trkpt>
      <trkpt lat="42.1398930" lon="-2.2144610">
        <ele>1220.9</ele>
        <time>2022-08-15T07:11:17Z</time>
      </trkpt>
      <trkpt lat="42.1399640" lon="-2.2145140">
        <ele>1220.3</ele>
        <time>2022-08-15T07:11:18Z</time>
      </trkpt>
      <trkpt lat="42.1400430" lon="-2.2145620">
        <ele>1219.7</ele>
        <time>2022-08-15T07:11:19Z</time>
      </trkpt>
      <trkpt lat="42.1401300" lon="-2.2146040">
        <ele>1219.2</ele>
        <time>2022-08-15T07:11:20Z</time>
      </trkpt>
      <trkpt lat="42.1402210" lon="-2.2146360">
        <ele>1218.7</ele>
        <time>2022-08-15T07:11:21Z</time>
      </trkpt>
      <trkpt lat="42.1403140" lon="-2.2146580">
        <ele>1218.4</ele>
        <time>2022-08-15T07:11:22Z</time>
      </trkpt>
      <trkpt lat="42.1404070" lon="-2.2146750">
        <ele>1218.2</ele>
        <time>2022-08-15T07:11:23Z</time>
      </trkpt>
      <trkpt lat="42.1405800" lon="-2.2147000">
        <ele>1217.7</ele>
        <time>2022-08-15T07:11:25Z</time>
      </trkpt>
      <trkpt lat="42.1406570" lon="-2.2147270">
        <ele>1217.3</ele>
        <time>2022-08-15T07:11:26Z</time>
      </trkpt>
      <trkpt lat="42.1407250" lon="-2.2147660">
        <ele>1216.8</ele>
        <time>2022-08-15T07:11:27Z</time>
      </trkpt>
      <trkpt lat="42.1407860" lon="-2.2148110">
        <ele>1216.3</ele>
        <time>2022-08-15T07:11:28Z</time>
      </trkpt>
      <trkpt lat="42.1408830" lon="-2.2149360">
        <ele>1215.3</ele>
        <time>2022-08-15T07:11:30Z</time>
      </trkpt>
      <trkpt lat="42.1409660" lon="-2.2150950">
        <ele>1214.4</ele>
        <time>2022-08-15T07:11:32Z</time>
      </trkpt>
      <trkpt lat="42.1410570" lon="-2.2152450">
        <ele>1213.5</ele>
        <time>2022-08-15T07:11:34Z</time>
      </trkpt>
      <trkpt lat="42.1411080" lon="-2.2152980">
        <ele>1213.1</ele>
        <time>2022-08-15T07:11:35Z</time>
      </trkpt>
      <trkpt lat="42.1411630" lon="-2.2153350">
        <ele>1212.8</ele>
        <time>2022-08-15T07:11:36Z</time>
      </trkpt>
      <trkpt lat="42.1412300" lon="-2.2153590">
        <ele>1212.5</ele>
        <time>2022-08-15T07:11:37Z</time>
      </trkpt>
      <trkpt lat="42.1413010" lon="-2.2153830">
        <ele>1212.2</ele>
        <time>2022-08-15T07:11:38Z</time>
      </trkpt>
      <trkpt lat="42.1413710" lon="-2.2154180">
        <ele>1211.9</ele>
        <time>2022-08-15T07:11:39Z</time>
      </trkpt>
      <trkpt lat="42.1414340" lon="-2.2154690">
        <ele>1211.6</ele>
        <time>2022-08-15T07:11:40Z</time>
      </trkpt>
      <trkpt lat="42.1414930" lon="-2.2155350">
        <ele>1211.3</ele>
        <time>2022-08-15T07:11:41Z</time>
      </trkpt>
      <trkpt lat="42.1415490" lon="-2.2156100">
        <ele>1211.0</ele>
        <time>2022-08-15T07:11:42Z</time>
      </trkpt>
      <trkpt lat="42.1415960" lon="-2.2156900">
        <ele>1210.7</ele>
        <time>2022-08-15T07:11:43Z</time>
      </trkpt>
      <trkpt lat="42.1416920" lon="-2.2158420">
        <ele>1210.3</ele>
        <time>2022-08-15T07:11:45Z</time>
      </trkpt>
      <trkpt lat="42.1418110" lon="-2.2159580">
        <ele>1210.0</ele>
        <time>2022-08-15T07:11:47Z</time>
      </trkpt>
      <trkpt lat="42.1418790" lon="-2.2160010">
        <ele>1210.0</ele>
        <time>2022-08-15T07:11:48Z</time>
      </trkpt>
      <trkpt lat="42.1419490" lon="-2.2160290">
        <ele>1210.1</ele>
        <time>2022-08-15T07:11:49Z</time>
      </trkpt>
      <trkpt lat="42.1420820" lon="-2.2160550">
        <ele>1210.3</ele>
        <time>2022-08-15T07:11:51Z</time>
      </trkpt>
      <trkpt lat="42.1422010" lon="-2.2160530">
        <ele>1210.6</ele>
        <time>2022-08-15T07:11:53Z</time>
      </trkpt>
      <trkpt lat="42.1423020" lon="-2.2160230">
        <ele>1211.0</ele>
        <time>2022-08-15T07:11:55Z</time>
      </trkpt>
      <trkpt lat="42.1423950" lon="-2.2159700">
        <ele>1211.5</ele>
        <time>2022-08-15T07:11:57Z</time>
      </trkpt>
      <trkpt lat="42.1424830" lon="-2.2159090">
        <ele>1211.9</ele>
        <time>2022-08-15T07:11:59Z</time>
      </trkpt>
      <trkpt lat="42.1425610" lon="-2.2158580">
        <ele>1212.3</ele>
        <time>2022-08-15T07:12:01Z</time>
      </trkpt>
      <trkpt lat="42.1426390" lon="-2.2158150">
        <ele>1212.7</ele>
        <time>2022-08-15T07:12:03Z</time>
      </trkpt>
      <trkpt lat="42.1428350" lon="-2.2157740">
        <ele>1213.6</ele>
        <time>2022-08-15T07:12:08Z</time>
      </trkpt>
      <trkpt lat="42.1428720" lon="-2.2157770">
        <ele>1213.8</ele>
        <time>2022-08-15T07:12:09Z</time>
      </trkpt>
      <trkpt lat="42.1431150" lon="-2.2157550">
        <ele>1214.9</ele>
        <time>2022-08-15T07:12:15Z</time>
      </trkpt>
      <trkpt lat="42.1431500" lon="-2.2157430">
        <ele>1215.1</ele>
        <time>2022-08-15T07:12:17Z</time>
      </trkpt>
      <trkpt lat="42.1432540" lon="-2.2156780">
        <ele>1215.8</ele>
        <time>2022-08-15T07:12:20Z</time>
      </trkpt>
      <trkpt lat="42.1433410" lon="-2.2156030">
        <ele>1216.3</ele>
        <time>2022-08-15T07:12:23Z</time>
      </trkpt>
      <trkpt lat="42.1433670" lon="-2.2155770">
        <ele>1216.5</ele>
        <time>2022-08-15T07:12:24Z</time>
      </trkpt>
      <trkpt lat="42.1434640" lon="-2.2154600">
        <ele>1217.1</ele>
        <time>2022-08-15T07:12:28Z</time>
      </trkpt>
      <trkpt lat="42.1435140" lon="-2.2153950">
        <ele>1217.4</ele>
        <time>2022-08-15T07:12:30Z</time>
      </trkpt>
      <trkpt lat="42.1435380" lon="-2.2153610">
        <ele>1217.6</ele>
        <time>2022-08-15T07:12:31Z</time>
      </trkpt>
      <trkpt lat="42.1436240" lon="-2.2152120">
        <ele>1218.3</ele>
        <time>2022-08-15T07:12:35Z</time>
      </trkpt>
      <trkpt lat="42.1436610" lon="-2.2151360">
        <ele>1218.7</ele>
        <time>2022-08-15T07:12:37Z</time>
      </trkpt>
      <trkpt lat="42.1436930" lon="-2.2150590">
        <ele>1219.1</ele>
        <time>2022-08-15T07:12:39Z</time>
      </trkpt>
      <trkpt lat="42.1438010" lon="-2.2148270">
        <ele>1220.2</ele>
        <time>2022-08-15T07:12:45Z</time>
      </trkpt>
      <trkpt lat="42.1439080" lon="-2.2146570">
        <ele>1221.1</ele>
        <time>2022-08-15T07:12:50Z</time>
      </trkpt>
      <trkpt lat="42.1440880" lon="-2.2144640">
        <ele>1222.3</ele>
        <time>2022-08-15T07:12:57Z</time>
      </trkpt>
      <trkpt lat="42.1441400" lon="-2.2144130">
        <ele>1222.7</ele>
        <time>2022-08-15T07:12:59Z</time>
      </trkpt>
      <trkpt lat="42.1442410" lon="-2.2143210">
        <ele>1223.4</ele>
        <time>2022-08-15T07:13:03Z</time>
      </trkpt>
      <trkpt lat="42.1443140" lon="-2.2142520">
        <ele>1223.9</ele>
        <time>2022-08-15T07:13:06Z</time>
      </trkpt>
      <trkpt lat="42.1443820" lon="-2.2141730">
        <ele>1224.4</ele>
        <time>2022-08-15T07:13:09Z</time>
      </trkpt>
      <trkpt lat="42.1444860" lon="-2.2140190">
        <ele>1225.1</ele>
        <time>2022-08-15T07:13:14Z</time>
      </trkpt>
      <trkpt lat="42.1445320" lon="-2.2139220">
        <ele>1225.5</ele>
        <time>2022-08-15T07:13:16Z</time>
      </trkpt>
      <trkpt lat="42.1446290" lon="-2.2136330">
        <ele>1226.2</ele>
        <time>2022-08-15T07:13:24Z</time>
      </trkpt>
      <trkpt lat="42.1446530" lon="-2.2135520">
        <ele>1226.4</ele>
        <time>2022-08-15T07:13:26Z</time>
      </trkpt>
      <trkpt lat="42.1448060" lon="-2.2131910">
        <ele>1227.0</ele>
        <time>2022-08-15T07:13:35Z</time>
      </trkpt>
      <trkpt lat="42.1449910" lon="-2.2130560">
        <ele>1227.1</ele>
        <time>2022-08-15T07:13:41Z</time>
      </trkpt>
      <trkpt lat="42.1453150" lon="-2.2130140">
        <ele>1226.5</ele>
        <time>2022-08-15T07:13:49Z</time>
      </trkpt>
      <trkpt lat="42.1454020" lon="-2.2130380">
        <ele>1226.3</ele>
        <time>2022-08-15T07:13:51Z</time>
      </trkpt>
      <trkpt lat="42.1455230" lon="-2.2130950">
        <ele>1225.8</ele>
        <time>2022-08-15T07:13:54Z</time>
      </trkpt>
      <trkpt lat="42.1455630" lon="-2.2131170">
        <ele>1225.6</ele>
        <time>2022-08-15T07:13:55Z</time>
      </trkpt>
      <trkpt lat="42.1456000" lon="-2.2131440">
        <ele>1225.4</ele>
        <time>2022-08-15T07:13:56Z</time>
      </trkpt>
      <trkpt lat="42.1456370" lon="-2.2131770">
        <ele>1225.2</ele>
        <time>2022-08-15T07:13:57Z</time>
      </trkpt>
      <trkpt lat="42.1456750" lon="-2.2132170">
        <ele>1224.9</ele>
        <time>2022-08-15T07:13:58Z</time>
      </trkpt>
      <trkpt lat="42.1457450" lon="-2.2133260">
        <ele>1224.3</ele>
        <time>2022-08-15T07:14:00Z</time>
      </trkpt>
      <trkpt lat="42.1458210" lon="-2.2135490">
        <ele>1223.4</ele>
        <time>2022-08-15T07:14:03Z</time>
      </trkpt>
      <trkpt lat="42.1458430" lon="-2.2136310">
        <ele>1223.1</ele>
        <time>2022-08-15T07:14:04Z</time>
      </trkpt>
      <trkpt lat="42.1458650" lon="-2.2137170">
        <ele>1222.8</ele>
        <time>2022-08-15T07:14:05Z</time>
      </trkpt>
      <trkpt lat="42.1459300" lon="-2.2138870">
        <ele>1222.3</ele>
        <time>2022-08-15T07:14:07Z</time>
      </trkpt>
      <trkpt lat="42.1459780" lon="-2.2139640">
        <ele>1222.1</ele>
        <time>2022-08-15T07:14:08Z</time>
      </trkpt>
      <trkpt lat="42.1460340" lon="-2.2140360">
        <ele>1222.0</ele>
        <time>2022-08-15T07:14:09Z</time>
      </trkpt>
      <trkpt lat="42.1461660" lon="-2.2141400">
        <ele>1222.0</ele>
        <time>2022-08-15T07:14:11Z</time>
      </trkpt>
      <trkpt lat="42.1463040" lon="-2.2141910">
        <ele>1222.1</ele>
        <time>2022-08-15T07:14:13Z</time>
      </trkpt>
      <trkpt lat="42.1463670" lon="-2.2142030">
        <ele>1222.2</ele>
        <time>2022-08-15T07:14:14Z</time>
      </trkpt>
      <trkpt lat="42.1464270" lon="-2.2142120">
        <ele>1222.2</ele>
        <time>2022-08-15T07:14:15Z</time>
      </trkpt>
      <trkpt lat="42.1464790" lon="-2.2142170">
        <ele>1222.2</ele>
        <time>2022-08-15T07:14:16Z</time>
      </trkpt>
      <trkpt lat="42.1465260" lon="-2.2142080">
        <ele>1222.2</ele>
        <time>2022-08-15T07:14:17Z</time>
      </trkpt>
      <trkpt lat="42.1466160" lon="-2.2141690">
        <ele>1222.1</ele>
        <time>2022-08-15T07:14:19Z</time>
      </trkpt>
      <trkpt lat="42.1466650" lon="-2.2141450">
        <ele>1221.9</ele>
        <time>2022-08-15T07:14:20Z</time>
      </trkpt>
      <trkpt lat="42.1467660" lon="-2.2141010">
        <ele>1221.6</ele>
        <time>2022-08-15T07:14:22Z</time>
      </trkpt>
      <trkpt lat="42.1468580" lon="-2.2140750">
        <ele>1221.3</ele>
        <time>2022-08-15T07:14:23Z</time>
      </trkpt>
      <trkpt lat="42.1469840" lon="-2.2140860">
        <ele>1220.8</ele>
        <time>2022-08-15T07:14:26Z</time>
      </trkpt>
      <trkpt lat="42.1470700" lon="-2.2141070">
        <ele>1220.4</ele>
        <time>2022-08-15T07:14:27Z</time>
      </trkpt>
      <trkpt lat="42.1471320" lon="-2.2141330">
        <ele>1220.1</ele>
        <time>2022-08-15T07:14:28Z</time>
      </trkpt>
      <trkpt lat="42.1471860" lon="-2.2141680">
        <ele>1219.7</ele>
        <time>2022-08-15T07:14:29Z</time>
      </trkpt>
      <trkpt lat="42.1472350" lon="-2.2142210">
        <ele>1219.4</ele>
        <time>2022-08-15T07:14:30Z</time>
      </trkpt>
      <trkpt lat="42.1472790" lon="-2.2142850">
        <ele>1219.0</ele>
        <time>2022-08-15T07:14:31Z</time>
      </trkpt>
      <trkpt lat="42.1473970" lon="-2.2145150">
        <ele>1217.8</ele>
        <time>2022-08-15T07:14:34Z</time>
      </trkpt>
      <trkpt lat="42.1474840" lon="-2.2146770">
        <ele>1217.0</ele>
        <time>2022-08-15T07:14:36Z</time>
      </trkpt>
      <trkpt lat="42.1475310" lon="-2.2147570">
        <ele>1216.7</ele>
        <time>2022-08-15T07:14:37Z</time>
      </trkpt>
      <trkpt lat="42.1476860" lon="-2.2149840">
        <ele>1215.7</ele>
        <time>2022-08-15T07:14:40Z</time>
      </trkpt>
      <trkpt lat="42.1477430" lon="-2.2150490">
        <ele>1215.5</ele>
        <time>2022-08-15T07:14:41Z</time>
      </trkpt>
      <trkpt lat="42.1478030" lon="-2.2151030">
        <ele>1215.2</ele>
        <time>2022-08-15T07:14:42Z</time>
      </trkpt>
      <trkpt lat="42.1479230" lon="-2.2151900">
        <ele>1214.6</ele>
        <time>2022-08-15T07:14:44Z</time>
      </trkpt>
      <trkpt lat="42.1479820" lon="-2.2152240">
        <ele>1213.7</ele>
        <time>2022-08-15T07:14:45Z</time>
      </trkpt>
      <trkpt lat="42.1480420" lon="-2.2152470">
        <ele>1212.7</ele>
        <time>2022-08-15T07:14:46Z</time>
      </trkpt>
      <trkpt lat="42.1481000" lon="-2.2152620">
        <ele>1211.9</ele>
        <time>2022-08-15T07:14:47Z</time>
      </trkpt>
      <trkpt lat="42.1482470" lon="-2.2152730">
        <ele>1211.3</ele>
        <time>2022-08-15T07:14:50Z</time>
      </trkpt>
      <trkpt lat="42.1482840" lon="-2.2152720">
        <ele>1211.2</ele>
        <time>2022-08-15T07:14:51Z</time>
      </trkpt>
      <trkpt lat="42.1484010" lon="-2.2152690">
        <ele>1210.8</ele>
        <time>2022-08-15T07:14:55Z</time>
      </trkpt>
      <trkpt lat="42.1484440" lon="-2.2152650">
        <ele>1210.6</ele>
        <time>2022-08-15T07:14:57Z</time>
      </trkpt>
      <trkpt lat="42.1485440" lon="-2.2152580">
        <ele>1210.1</ele>
        <time>2022-08-15T07:15:02Z</time>
      </trkpt>
      <trkpt lat="42.1485640" lon="-2.2152570">
        <ele>1210.0</ele>
        <time>2022-08-15T07:15:03Z</time>
      </trkpt>
      <trkpt lat="42.1486020" lon="-2.2152540">
        <ele>1209.8</ele>
        <time>2022-08-15T07:15:05Z</time>
      </trkpt>
      <trkpt lat="42.1486840" lon="-2.2152130">
        <ele>1209.5</ele>
        <time>2022-08-15T07:15:09Z</time>
      </trkpt>
      <trkpt lat="42.1487090" lon="-2.2151750">
        <ele>1209.5</ele>
        <time>2022-08-15T07:15:11Z</time>
      </trkpt>
      <trkpt lat="42.1487120" lon="-2.2151680">
        <ele>1209.5</ele>
        <time>2022-08-15T07:15:12Z</time>
      </trkpt>
      <trkpt lat="42.1487120" lon="-2.2151500">
        <ele>1209.6</ele>
        <time>2022-08-15T07:19:19Z</time>
      </trkpt>
      <trkpt lat="42.1487150" lon="-2.2151300">
        <ele>1209.6</ele>
        <time>2022-08-15T07:19:20Z</time>
      </trkpt>
      <trkpt lat="42.1487180" lon="-2.2151040">
        <ele>1209.6</ele>
        <time>2022-08-15T07:19:21Z</time>
      </trkpt>
      <trkpt lat="42.1487220" lon="-2.2150730">
        <ele>1209.6</ele>
        <time>2022-08-15T07:19:22Z</time>
      </trkpt>
      <trkpt lat="42.1487450" lon="-2.2149580">
        <ele>1209.6</ele>
        <time>2022-08-15T07:19:25Z</time>
      </trkpt>
      <trkpt lat="42.1487870" lon="-2.2148310">
        <ele>1209.0</ele>
        <time>2022-08-15T07:19:28Z</time>
      </trkpt>
      <trkpt lat="42.1488140" lon="-2.2146870">
        <ele>1208.3</ele>
        <time>2022-08-15T07:19:31Z</time>
      </trkpt>
      <trkpt lat="42.1488130" lon="-2.2144960">
        <ele>1207.3</ele>
        <time>2022-08-15T07:19:34Z</time>
      </trkpt>
      <trkpt lat="42.1487950" lon="-2.2143470">
        <ele>1206.5</ele>
        <time>2022-08-15T07:19:36Z</time>
      </trkpt>
      <trkpt lat="42.1487480" lon="-2.2141060">
        <ele>1205.2</ele>
        <time>2022-08-15T07:19:39Z</time>
      </trkpt>
      <trkpt lat="42.1487320" lon="-2.2140190">
        <ele>1204.7</ele>
        <time>2022-08-15T07:19:40Z</time>
      </trkpt>
      <trkpt lat="42.1487150" lon="-2.2139320">
        <ele>1204.2</ele>
        <time>2022-08-15T07:19:41Z</time>
      </trkpt>
      <trkpt lat="42.1487010" lon="-2.2138410">
        <ele>1203.6</ele>
        <time>2022-08-15T07:19:42Z</time>
      </trkpt>
      <trkpt lat="42.1486800" lon="-2.2136480">
        <ele>1202.3</ele>
        <time>2022-08-15T07:19:44Z</time>
      </trkpt>
      <trkpt lat="42.1486740" lon="-2.2135440">
        <ele>1201.6</ele>
        <time>2022-08-15T07:19:45Z</time>
      </trkpt>
      <trkpt lat="42.1486740" lon="-2.2134370">
        <ele>1200.8</ele>
        <time>2022-08-15T07:19:46Z</time>
      </trkpt>
      <trkpt lat="42.1486780" lon="-2.2133280">
        <ele>1200.1</ele>
        <time>2022-08-15T07:19:47Z</time>
      </trkpt>
      <trkpt lat="42.1487030" lon="-2.2129760">
        <ele>1197.7</ele>
        <time>2022-08-15T07:19:50Z</time>
      </trkpt>
      <trkpt lat="42.1487130" lon="-2.2127150">
        <ele>1196.1</ele>
        <time>2022-08-15T07:19:52Z</time>
      </trkpt>
      <trkpt lat="42.1487160" lon="-2.2123770">
        <ele>1194.6</ele>
        <time>2022-08-15T07:19:54Z</time>
      </trkpt>
      <trkpt lat="42.1487160" lon="-2.2123770">
        <ele>1194.6</ele>
        <time>2022-08-15T07:19:55Z</time>
      </trkpt>
      <trkpt lat="42.1487280" lon="-2.2120720">
        <ele>1193.5</ele>
        <time>2022-08-15T07:19:57Z</time>
      </trkpt>
      <trkpt lat="42.1487380" lon="-2.2119460">
        <ele>1193.0</ele>
        <time>2022-08-15T07:19:58Z</time>
      </trkpt>
      <trkpt lat="42.1487700" lon="-2.2116900">
        <ele>1192.3</ele>
        <time>2022-08-15T07:20:00Z</time>
      </trkpt>
      <trkpt lat="42.1488010" lon="-2.2113160">
        <ele>1191.9</ele>
        <time>2022-08-15T07:20:03Z</time>
      </trkpt>
      <trkpt lat="42.1488120" lon="-2.2112060">
        <ele>1192.0</ele>
        <time>2022-08-15T07:20:04Z</time>
      </trkpt>
      <trkpt lat="42.1488290" lon="-2.2111090">
        <ele>1192.0</ele>
        <time>2022-08-15T07:20:05Z</time>
      </trkpt>
      <trkpt lat="42.1488730" lon="-2.2109320">
        <ele>1192.2</ele>
        <time>2022-08-15T07:20:07Z</time>
      </trkpt>
      <trkpt lat="42.1489010" lon="-2.2108480">
        <ele>1192.2</ele>
        <time>2022-08-15T07:20:08Z</time>
      </trkpt>
      <trkpt lat="42.1489270" lon="-2.2107620">
        <ele>1192.2</ele>
        <time>2022-08-15T07:20:09Z</time>
      </trkpt>
      <trkpt lat="42.1489520" lon="-2.2106770">
        <ele>1192.2</ele>
        <time>2022-08-15T07:20:10Z</time>
      </trkpt>
      <trkpt lat="42.1489780" lon="-2.2105910">
        <ele>1192.1</ele>
        <time>2022-08-15T07:20:11Z</time>
      </trkpt>
      <trkpt lat="42.1490040" lon="-2.2105060">
        <ele>1192.1</ele>
        <time>2022-08-15T07:20:12Z</time>
      </trkpt>
      <trkpt lat="42.1490580" lon="-2.2103370">
        <ele>1192.1</ele>
        <time>2022-08-15T07:20:14Z</time>
      </trkpt>
      <trkpt lat="42.1490860" lon="-2.2102570">
        <ele>1192.1</ele>
        <time>2022-08-15T07:20:15Z</time>
      </trkpt>
      <trkpt lat="42.1491500" lon="-2.2100230">
        <ele>1191.9</ele>
        <time>2022-08-15T07:20:18Z</time>
      </trkpt>
      <trkpt lat="42.1491620" lon="-2.2099420">
        <ele>1191.8</ele>
        <time>2022-08-15T07:20:19Z</time>
      </trkpt>
      <trkpt lat="42.1491700" lon="-2.2098590">
        <ele>1191.7</ele>
        <time>2022-08-15T07:20:20Z</time>
      </trkpt>
      <trkpt lat="42.1491870" lon="-2.2096870">
        <ele>1191.2</ele>
        <time>2022-08-15T07:20:22Z</time>
      </trkpt>
      <trkpt lat="42.1492240" lon="-2.2091390">
        <ele>1188.8</ele>
        <time>2022-08-15T07:20:28Z</time>
      </trkpt>
      <trkpt lat="42.1492390" lon="-2.2090410">
        <ele>1188.2</ele>
        <time>2022-08-15T07:20:29Z</time>
      </trkpt>
      <trkpt lat="42.1493460" lon="-2.2086590">
        <ele>1186.5</ele>
        <time>2022-08-15T07:20:33Z</time>
      </trkpt>
      <trkpt lat="42.1494130" lon="-2.2084630">
        <ele>1186.0</ele>
        <time>2022-08-15T07:20:35Z</time>
      </trkpt>
      <trkpt lat="42.1494670" lon="-2.2082680">
        <ele>1185.9</ele>
        <time>2022-08-15T07:20:37Z</time>
      </trkpt>
      <trkpt lat="42.1494800" lon="-2.2081770">
        <ele>1185.9</ele>
        <time>2022-08-15T07:20:38Z</time>
      </trkpt>
      <trkpt lat="42.1494870" lon="-2.2080900">
        <ele>1185.9</ele>
        <time>2022-08-15T07:20:39Z</time>
      </trkpt>
      <trkpt lat="42.1494890" lon="-2.2079370">
        <ele>1186.0</ele>
        <time>2022-08-15T07:20:41Z</time>
      </trkpt>
      <trkpt lat="42.1494770" lon="-2.2078100">
        <ele>1186.2</ele>
        <time>2022-08-15T07:20:43Z</time>
      </trkpt>
      <trkpt lat="42.1494640" lon="-2.2076890">
        <ele>1186.6</ele>
        <time>2022-08-15T07:20:45Z</time>
      </trkpt>
      <trkpt lat="42.1494550" lon="-2.2076350">
        <ele>1186.7</ele>
        <time>2022-08-15T07:20:46Z</time>
      </trkpt>
      <trkpt lat="42.1494430" lon="-2.2075830">
        <ele>1186.9</ele>
        <time>2022-08-15T07:20:47Z</time>
      </trkpt>
      <trkpt lat="42.1494300" lon="-2.2075350">
        <ele>1187.1</ele>
        <time>2022-08-15T07:20:48Z</time>
      </trkpt>
      <trkpt lat="42.1494170" lon="-2.2074900">
        <ele>1187.2</ele>
        <time>2022-08-15T07:20:49Z</time>
      </trkpt>
      <trkpt lat="42.1494020" lon="-2.2074460">
        <ele>1187.4</ele>
        <time>2022-08-15T07:20:50Z</time>
      </trkpt>
      <trkpt lat="42.1493720" lon="-2.2073520">
        <ele>1187.8</ele>
        <time>2022-08-15T07:20:52Z</time>
      </trkpt>
      <trkpt lat="42.1493450" lon="-2.2072580">
        <ele>1188.3</ele>
        <time>2022-08-15T07:20:54Z</time>
      </trkpt>
      <trkpt lat="42.1493070" lon="-2.2071170">
        <ele>1189.0</ele>
        <time>2022-08-15T07:20:57Z</time>
      </trkpt>
      <trkpt lat="42.1492950" lon="-2.2070660">
        <ele>1189.2</ele>
        <time>2022-08-15T07:20:58Z</time>
      </trkpt>
      <trkpt lat="42.1492740" lon="-2.2069580">
        <ele>1189.7</ele>
        <time>2022-08-15T07:21:00Z</time>
      </trkpt>
      <trkpt lat="42.1492660" lon="-2.2069050">
        <ele>1190.0</ele>
        <time>2022-08-15T07:21:01Z</time>
      </trkpt>
      <trkpt lat="42.1492450" lon="-2.2067410">
        <ele>1190.7</ele>
        <time>2022-08-15T07:21:04Z</time>
      </trkpt>
      <trkpt lat="42.1492320" lon="-2.2066360">
        <ele>1191.2</ele>
        <time>2022-08-15T07:21:06Z</time>
      </trkpt>
      <trkpt lat="42.1492100" lon="-2.2064830">
        <ele>1191.9</ele>
        <time>2022-08-15T07:21:09Z</time>
      </trkpt>
      <trkpt lat="42.1491910" lon="-2.2063850">
        <ele>1192.4</ele>
        <time>2022-08-15T07:21:11Z</time>
      </trkpt>
      <trkpt lat="42.1491370" lon="-2.2061240">
        <ele>1193.6</ele>
        <time>2022-08-15T07:21:16Z</time>
      </trkpt>
      <trkpt lat="42.1491160" lon="-2.2060130">
        <ele>1194.0</ele>
        <time>2022-08-15T07:21:19Z</time>
      </trkpt>
      <trkpt lat="42.1490980" lon="-2.2059170">
        <ele>1194.3</ele>
        <time>2022-08-15T07:21:21Z</time>
      </trkpt>
      <trkpt lat="42.1490470" lon="-2.2057060">
        <ele>1194.7</ele>
        <time>2022-08-15T07:21:25Z</time>
      </trkpt>
      <trkpt lat="42.1490080" lon="-2.2056020">
        <ele>1194.9</ele>
        <time>2022-08-15T07:21:27Z</time>
      </trkpt>
      <trkpt lat="42.1489300" lon="-2.2054720">
        <ele>1195.2</ele>
        <time>2022-08-15T07:21:30Z</time>
      </trkpt>
      <trkpt lat="42.1489000" lon="-2.2054330">
        <ele>1195.3</ele>
        <time>2022-08-15T07:21:31Z</time>
      </trkpt>
      <trkpt lat="42.1488670" lon="-2.2053950">
        <ele>1195.4</ele>
        <time>2022-08-15T07:21:32Z</time>
      </trkpt>
      <trkpt lat="42.1486930" lon="-2.2052330">
        <ele>1195.9</ele>
        <time>2022-08-15T07:21:37Z</time>
      </trkpt>
      <trkpt lat="42.1486270" lon="-2.2051730">
        <ele>1196.1</ele>
        <time>2022-08-15T07:21:39Z</time>
      </trkpt>
      <trkpt lat="42.1484850" lon="-2.2050700">
        <ele>1196.7</ele>
        <time>2022-08-15T07:21:43Z</time>
      </trkpt>
      <trkpt lat="42.1483760" lon="-2.2050060">
        <ele>1197.2</ele>
        <time>2022-08-15T07:21:46Z</time>
      </trkpt>
      <trkpt lat="42.1482150" lon="-2.2049080">
        <ele>1198.1</ele>
        <time>2022-08-15T07:21:51Z</time>
      </trkpt>
      <trkpt lat="42.1481330" lon="-2.2048190">
        <ele>1198.6</ele>
        <time>2022-08-15T07:21:54Z</time>
      </trkpt>
      <trkpt lat="42.1480610" lon="-2.2047230">
        <ele>1199.0</ele>
        <time>2022-08-15T07:21:57Z</time>
      </trkpt>
      <trkpt lat="42.1479320" lon="-2.2045270">
        <ele>1199.7</ele>
        <time>2022-08-15T07:22:03Z</time>
      </trkpt>
      <trkpt lat="42.1479100" lon="-2.2044470">
        <ele>1199.8</ele>
        <time>2022-08-15T07:22:05Z</time>
      </trkpt>
      <trkpt lat="42.1479110" lon="-2.2043510">
        <ele>1200.0</ele>
        <time>2022-08-15T07:22:07Z</time>
      </trkpt>
      <trkpt lat="42.1479850" lon="-2.2041100">
        <ele>1200.1</ele>
        <time>2022-08-15T07:22:12Z</time>
      </trkpt>
      <trkpt lat="42.1481470" lon="-2.2036810">
        <ele>1200.6</ele>
        <time>2022-08-15T07:22:21Z</time>
      </trkpt>
      <trkpt lat="42.1481580" lon="-2.2036330">
        <ele>1200.7</ele>
        <time>2022-08-15T07:22:22Z</time>
      </trkpt>
      <trkpt lat="42.1482170" lon="-2.2033320">
        <ele>1201.0</ele>
        <time>2022-08-15T07:22:28Z</time>
      </trkpt>
      <trkpt lat="42.1482480" lon="-2.2028820">
        <ele>1201.0</ele>
        <time>2022-08-15T07:22:36Z</time>
      </trkpt>
      <trkpt lat="42.1482670" lon="-2.2026900">
        <ele>1200.9</ele>
        <time>2022-08-15T07:22:39Z</time>
      </trkpt>
      <trkpt lat="42.1483030" lon="-2.2023500">
        <ele>1200.7</ele>
        <time>2022-08-15T07:22:44Z</time>
      </trkpt>
      <trkpt lat="42.1483030" lon="-2.2023500">
        <ele>1200.7</ele>
        <time>2022-08-15T07:22:45Z</time>
      </trkpt>
      <trkpt lat="42.1483160" lon="-2.2022030">
        <ele>1200.5</ele>
        <time>2022-08-15T07:22:47Z</time>
      </trkpt>
      <trkpt lat="42.1483170" lon="-2.2019490">
        <ele>1200.3</ele>
        <time>2022-08-15T07:22:51Z</time>
      </trkpt>
      <trkpt lat="42.1483070" lon="-2.2018230">
        <ele>1200.3</ele>
        <time>2022-08-15T07:22:53Z</time>
      </trkpt>
      <trkpt lat="42.1482770" lon="-2.2016460">
        <ele>1200.5</ele>
        <time>2022-08-15T07:22:56Z</time>
      </trkpt>
      <trkpt lat="42.1482150" lon="-2.2013110">
        <ele>1201.1</ele>
        <time>2022-08-15T07:23:02Z</time>
      </trkpt>
      <trkpt lat="42.1481840" lon="-2.2011070">
        <ele>1201.6</ele>
        <time>2022-08-15T07:23:06Z</time>
      </trkpt>
      <trkpt lat="42.1481780" lon="-2.2010570">
        <ele>1201.8</ele>
        <time>2022-08-15T07:23:07Z</time>
      </trkpt>
      <trkpt lat="42.1481610" lon="-2.2009090">
        <ele>1202.3</ele>
        <time>2022-08-15T07:23:10Z</time>
      </trkpt>
      <trkpt lat="42.1481550" lon="-2.2008600">
        <ele>1202.5</ele>
        <time>2022-08-15T07:23:11Z</time>
      </trkpt>
      <trkpt lat="42.1481400" lon="-2.2007650">
        <ele>1202.8</ele>
        <time>2022-08-15T07:23:13Z</time>
      </trkpt>
      <trkpt lat="42.1481070" lon="-2.2005350">
        <ele>1203.6</ele>
        <time>2022-08-15T07:23:18Z</time>
      </trkpt>
      <trkpt lat="42.1481000" lon="-2.2004870">
        <ele>1203.7</ele>
        <time>2022-08-15T07:23:19Z</time>
      </trkpt>
      <trkpt lat="42.1480770" lon="-2.2001070">
        <ele>1204.9</ele>
        <time>2022-08-15T07:23:27Z</time>
      </trkpt>
      <trkpt lat="42.1480730" lon="-2.2000150">
        <ele>1205.2</ele>
        <time>2022-08-15T07:23:29Z</time>
      </trkpt>
      <trkpt lat="42.1480640" lon="-2.1997860">
        <ele>1205.9</ele>
        <time>2022-08-15T07:23:34Z</time>
      </trkpt>
      <trkpt lat="42.1480520" lon="-2.1996490">
        <ele>1206.4</ele>
        <time>2022-08-15T07:23:37Z</time>
      </trkpt>
      <trkpt lat="42.1480140" lon="-2.1994750">
        <ele>1207.1</ele>
        <time>2022-08-15T07:23:41Z</time>
      </trkpt>
      <trkpt lat="42.1479410" lon="-2.1992940">
        <ele>1207.9</ele>
        <time>2022-08-15T07:23:46Z</time>
      </trkpt>
      <trkpt lat="42.1478950" lon="-2.1991850">
        <ele>1208.4</ele>
        <time>2022-08-15T07:23:49Z</time>
      </trkpt>
      <trkpt lat="42.1478820" lon="-2.1991480">
        <ele>1208.6</ele>
        <time>2022-08-15T07:23:50Z</time>
      </trkpt>
      <trkpt lat="42.1477720" lon="-2.1988560">
        <ele>1210.3</ele>
        <time>2022-08-15T07:23:58Z</time>
      </trkpt>
      <trkpt lat="42.1477330" lon="-2.1987530">
        <ele>1211.0</ele>
        <time>2022-08-15T07:24:01Z</time>
      </trkpt>
      <trkpt lat="42.1476910" lon="-2.1986500">
        <ele>1211.7</ele>
        <time>2022-08-15T07:24:04Z</time>
      </trkpt>
      <trkpt lat="42.1476570" lon="-2.1985440">
        <ele>1212.5</ele>
        <time>2022-08-15T07:24:07Z</time>
      </trkpt>
      <trkpt lat="42.1476360" lon="-2.1984720">
        <ele>1212.9</ele>
        <time>2022-08-15T07:24:09Z</time>
      </trkpt>
      <trkpt lat="42.1476170" lon="-2.1983970">
        <ele>1213.4</ele>
        <time>2022-08-15T07:24:11Z</time>
      </trkpt>
      <trkpt lat="42.1475810" lon="-2.1981660">
        <ele>1213.5</ele>
        <time>2022-08-15T07:24:16Z</time>
      </trkpt>
      <trkpt lat="42.1475770" lon="-2.1981200">
        <ele>1213.4</ele>
        <time>2022-08-15T07:24:18Z</time>
      </trkpt>
      <trkpt lat="42.1475580" lon="-2.1978760">
        <ele>1212.7</ele>
        <time>2022-08-15T07:24:22Z</time>
      </trkpt>
      <trkpt lat="42.1475560" lon="-2.1978110">
        <ele>1212.5</ele>
        <time>2022-08-15T07:24:23Z</time>
      </trkpt>
      <trkpt lat="42.1475440" lon="-2.1976030">
        <ele>1211.8</ele>
        <time>2022-08-15T07:24:26Z</time>
      </trkpt>
      <trkpt lat="42.1475250" lon="-2.1973860">
        <ele>1211.2</ele>
        <time>2022-08-15T07:24:29Z</time>
      </trkpt>
      <trkpt lat="42.1474890" lon="-2.1971660">
        <ele>1210.6</ele>
        <time>2022-08-15T07:24:32Z</time>
      </trkpt>
      <trkpt lat="42.1474620" lon="-2.1970210">
        <ele>1210.2</ele>
        <time>2022-08-15T07:24:34Z</time>
      </trkpt>
      <trkpt lat="42.1474320" lon="-2.1968780">
        <ele>1209.8</ele>
        <time>2022-08-15T07:24:36Z</time>
      </trkpt>
      <trkpt lat="42.1474050" lon="-2.1967380">
        <ele>1209.4</ele>
        <time>2022-08-15T07:24:38Z</time>
      </trkpt>
      <trkpt lat="42.1473760" lon="-2.1965290">
        <ele>1208.6</ele>
        <time>2022-08-15T07:24:41Z</time>
      </trkpt>
      <trkpt lat="42.1473540" lon="-2.1963060">
        <ele>1207.8</ele>
        <time>2022-08-15T07:24:44Z</time>
      </trkpt>
      <trkpt lat="42.1473480" lon="-2.1962280">
        <ele>1207.6</ele>
        <time>2022-08-15T07:24:45Z</time>
      </trkpt>
      <trkpt lat="42.1473410" lon="-2.1961470">
        <ele>1207.3</ele>
        <time>2022-08-15T07:24:46Z</time>
      </trkpt>
      <trkpt lat="42.1473340" lon="-2.1960650">
        <ele>1207.0</ele>
        <time>2022-08-15T07:24:47Z</time>
      </trkpt>
      <trkpt lat="42.1473270" lon="-2.1959810">
        <ele>1206.8</ele>
        <time>2022-08-15T07:24:48Z</time>
      </trkpt>
      <trkpt lat="42.1472990" lon="-2.1957290">
        <ele>1206.3</ele>
        <time>2022-08-15T07:24:51Z</time>
      </trkpt>
      <trkpt lat="42.1472410" lon="-2.1954140">
        <ele>1206.4</ele>
        <time>2022-08-15T07:24:55Z</time>
      </trkpt>
      <trkpt lat="42.1472230" lon="-2.1953470">
        <ele>1206.6</ele>
        <time>2022-08-15T07:24:56Z</time>
      </trkpt>
      <trkpt lat="42.1471750" lon="-2.1951590">
        <ele>1207.1</ele>
        <time>2022-08-15T07:24:59Z</time>
      </trkpt>
      <trkpt lat="42.1471620" lon="-2.1951010">
        <ele>1207.3</ele>
        <time>2022-08-15T07:25:00Z</time>
      </trkpt>
      <trkpt lat="42.1471380" lon="-2.1949950">
        <ele>1207.6</ele>
        <time>2022-08-15T07:25:02Z</time>
      </trkpt>
      <trkpt lat="42.1470900" lon="-2.1947480">
        <ele>1208.6</ele>
        <time>2022-08-15T07:25:07Z</time>
      </trkpt>
      <trkpt lat="42.1470680" lon="-2.1946220">
        <ele>1209.2</ele>
        <time>2022-08-15T07:25:10Z</time>
      </trkpt>
      <trkpt lat="42.1470520" lon="-2.1945470">
        <ele>1209.6</ele>
        <time>2022-08-15T07:25:12Z</time>
      </trkpt>
      <trkpt lat="42.1470380" lon="-2.1944820">
        <ele>1210.2</ele>
        <time>2022-08-15T07:25:14Z</time>
      </trkpt>
      <trkpt lat="42.1470320" lon="-2.1944150">
        <ele>1210.8</ele>
        <time>2022-08-15T07:25:16Z</time>
      </trkpt>
      <trkpt lat="42.1470260" lon="-2.1943840">
        <ele>1211.1</ele>
        <time>2022-08-15T07:25:17Z</time>
      </trkpt>
      <trkpt lat="42.1470120" lon="-2.1942900">
        <ele>1211.9</ele>
        <time>2022-08-15T07:25:20Z</time>
      </trkpt>
      <trkpt lat="42.1470080" lon="-2.1942590">
        <ele>1212.2</ele>
        <time>2022-08-15T07:25:21Z</time>
      </trkpt>
      <trkpt lat="42.1469890" lon="-2.1941120">
        <ele>1213.3</ele>
        <time>2022-08-15T07:25:26Z</time>
      </trkpt>
      <trkpt lat="42.1469950" lon="-2.1940640">
        <ele>1213.7</ele>
        <time>2022-08-15T07:25:28Z</time>
      </trkpt>
      <trkpt lat="42.1470120" lon="-2.1940250">
        <ele>1214.0</ele>
        <time>2022-08-15T07:25:30Z</time>
      </trkpt>
      <trkpt lat="42.1470460" lon="-2.1939870">
        <ele>1214.4</ele>
        <time>2022-08-15T07:25:33Z</time>
      </trkpt>
      <trkpt lat="42.1470510" lon="-2.1939810">
        <ele>1214.5</ele>
        <time>2022-08-15T07:25:35Z</time>
      </trkpt>
      <trkpt lat="42.1470680" lon="-2.1939930">
        <ele>1214.7</ele>
        <time>2022-08-15T07:27:52Z</time>
      </trkpt>
      <trkpt lat="42.1470640" lon="-2.1939920">
        <ele>1214.7</ele>
        <time>2022-08-15T07:27:53Z</time>
      </trkpt>
      <trkpt lat="42.1470630" lon="-2.1940060">
        <ele>1214.8</ele>
        <time>2022-08-15T07:29:24Z</time>
      </trkpt>
      <trkpt lat="42.1470480" lon="-2.1940170">
        <ele>1215.0</ele>
        <time>2022-08-15T07:29:27Z</time>
      </trkpt>
      <trkpt lat="42.1470360" lon="-2.1940290">
        <ele>1215.1</ele>
        <time>2022-08-15T07:29:43Z</time>
      </trkpt>
      <trkpt lat="42.1470360" lon="-2.1940290">
        <ele>1215.1</ele>
        <time>2022-08-15T07:29:45Z</time>
      </trkpt>
      <trkpt lat="42.1470320" lon="-2.1940300">
        <ele>1215.2</ele>
        <time>2022-08-15T07:29:46Z</time>
      </trkpt>
      <trkpt lat="42.1469890" lon="-2.1940270">
        <ele>1215.6</ele>
        <time>2022-08-15T07:30:12Z</time>
      </trkpt>
      <trkpt lat="42.1469850" lon="-2.1940090">
        <ele>1215.7</ele>
        <time>2022-08-15T07:30:13Z</time>
      </trkpt>
      <trkpt lat="42.1469800" lon="-2.1939870">
        <ele>1215.9</ele>
        <time>2022-08-15T07:30:14Z</time>
      </trkpt>
      <trkpt lat="42.1469710" lon="-2.1939370">
        <ele>1216.3</ele>
        <time>2022-08-15T07:30:16Z</time>
      </trkpt>
      <trkpt lat="42.1469610" lon="-2.1938830">
        <ele>1216.7</ele>
        <time>2022-08-15T07:30:18Z</time>
      </trkpt>
      <trkpt lat="42.1469560" lon="-2.1938560">
        <ele>1216.8</ele>
        <time>2022-08-15T07:30:19Z</time>
      </trkpt>
      <trkpt lat="42.1469430" lon="-2.1938040">
        <ele>1217.2</ele>
        <time>2022-08-15T07:30:21Z</time>
      </trkpt>
      <trkpt lat="42.1469350" lon="-2.1937770">
        <ele>1217.4</ele>
        <time>2022-08-15T07:30:22Z</time>
      </trkpt>
      <trkpt lat="42.1469260" lon="-2.1937210">
        <ele>1217.8</ele>
        <time>2022-08-15T07:30:24Z</time>
      </trkpt>
      <trkpt lat="42.1469140" lon="-2.1936620">
        <ele>1218.3</ele>
        <time>2022-08-15T07:30:26Z</time>
      </trkpt>
      <trkpt lat="42.1468890" lon="-2.1935380">
        <ele>1219.1</ele>
        <time>2022-08-15T07:30:30Z</time>
      </trkpt>
      <trkpt lat="42.1468640" lon="-2.1934180">
        <ele>1219.8</ele>
        <time>2022-08-15T07:30:34Z</time>
      </trkpt>
      <trkpt lat="42.1468510" lon="-2.1933550">
        <ele>1220.1</ele>
        <time>2022-08-15T07:30:36Z</time>
      </trkpt>
      <trkpt lat="42.1468450" lon="-2.1933230">
        <ele>1220.3</ele>
        <time>2022-08-15T07:30:37Z</time>
      </trkpt>
      <trkpt lat="42.1468110" lon="-2.1931710">
        <ele>1221.2</ele>
        <time>2022-08-15T07:30:42Z</time>
      </trkpt>
      <trkpt lat="42.1467940" lon="-2.1930800">
        <ele>1221.8</ele>
        <time>2022-08-15T07:30:45Z</time>
      </trkpt>
      <trkpt lat="42.1467590" lon="-2.1929030">
        <ele>1223.0</ele>
        <time>2022-08-15T07:30:51Z</time>
      </trkpt>
      <trkpt lat="42.1467470" lon="-2.1928440">
        <ele>1223.4</ele>
        <time>2022-08-15T07:30:53Z</time>
      </trkpt>
      <trkpt lat="42.1467120" lon="-2.1927060">
        <ele>1224.4</ele>
        <time>2022-08-15T07:30:58Z</time>
      </trkpt>
      <trkpt lat="42.1466890" lon="-2.1926210">
        <ele>1225.0</ele>
        <time>2022-08-15T07:31:01Z</time>
      </trkpt>
      <trkpt lat="42.1466630" lon="-2.1925380">
        <ele>1225.6</ele>
        <time>2022-08-15T07:31:04Z</time>
      </trkpt>
      <trkpt lat="42.1466330" lon="-2.1923990">
        <ele>1226.6</ele>
        <time>2022-08-15T07:31:09Z</time>
      </trkpt>
      <trkpt lat="42.1466190" lon="-2.1923120">
        <ele>1227.1</ele>
        <time>2022-08-15T07:31:12Z</time>
      </trkpt>
      <trkpt lat="42.1466020" lon="-2.1922010">
        <ele>1227.8</ele>
        <time>2022-08-15T07:31:15Z</time>
      </trkpt>
      <trkpt lat="42.1465790" lon="-2.1920380">
        <ele>1228.6</ele>
        <time>2022-08-15T07:31:21Z</time>
      </trkpt>
      <trkpt lat="42.1465300" lon="-2.1917850">
        <ele>1229.6</ele>
        <time>2022-08-15T07:31:29Z</time>
      </trkpt>
      <trkpt lat="42.1465110" lon="-2.1917250">
        <ele>1229.9</ele>
        <time>2022-08-15T07:31:31Z</time>
      </trkpt>
      <trkpt lat="42.1464520" lon="-2.1915750">
        <ele>1230.3</ele>
        <time>2022-08-15T07:31:36Z</time>
      </trkpt>
      <trkpt lat="42.1463900" lon="-2.1914190">
        <ele>1230.7</ele>
        <time>2022-08-15T07:31:41Z</time>
      </trkpt>
      <trkpt lat="42.1463680" lon="-2.1913190">
        <ele>1231.0</ele>
        <time>2022-08-15T07:31:44Z</time>
      </trkpt>
      <trkpt lat="42.1463610" lon="-2.1912830">
        <ele>1231.1</ele>
        <time>2022-08-15T07:31:45Z</time>
      </trkpt>
      <trkpt lat="42.1463540" lon="-2.1911760">
        <ele>1231.3</ele>
        <time>2022-08-15T07:31:48Z</time>
      </trkpt>
      <trkpt lat="42.1463660" lon="-2.1909050">
        <ele>1231.0</ele>
        <time>2022-08-15T07:31:55Z</time>
      </trkpt>
      <trkpt lat="42.1463770" lon="-2.1908070">
        <ele>1230.6</ele>
        <time>2022-08-15T07:31:57Z</time>
      </trkpt>
      <trkpt lat="42.1463930" lon="-2.1907020">
        <ele>1230.1</ele>
        <time>2022-08-15T07:31:59Z</time>
      </trkpt>
      <trkpt lat="42.1464040" lon="-2.1906480">
        <ele>1229.7</ele>
        <time>2022-08-15T07:32:00Z</time>
      </trkpt>
      <trkpt lat="42.1464270" lon="-2.1905460">
        <ele>1229.1</ele>
        <time>2022-08-15T07:32:02Z</time>
      </trkpt>
      <trkpt lat="42.1464410" lon="-2.1904610">
        <ele>1228.5</ele>
        <time>2022-08-15T07:32:04Z</time>
      </trkpt>
      <trkpt lat="42.1464430" lon="-2.1903430">
        <ele>1227.8</ele>
        <time>2022-08-15T07:32:07Z</time>
      </trkpt>
      <trkpt lat="42.1464400" lon="-2.1902680">
        <ele>1227.3</ele>
        <time>2022-08-15T07:32:09Z</time>
      </trkpt>
      <trkpt lat="42.1464380" lon="-2.1902380">
        <ele>1227.1</ele>
        <time>2022-08-15T07:32:10Z</time>
      </trkpt>
      <trkpt lat="42.1464370" lon="-2.1902170">
        <ele>1227.0</ele>
        <time>2022-08-15T07:32:11Z</time>
      </trkpt>
      <trkpt lat="42.1464360" lon="-2.1902080">
        <ele>1226.9</ele>
        <time>2022-08-15T07:33:15Z</time>
      </trkpt>
      <trkpt lat="42.1464360" lon="-2.1902040">
        <ele>1226.9</ele>
        <time>2022-08-15T07:33:16Z</time>
      </trkpt>
      <trkpt lat="42.1464300" lon="-2.1901160">
        <ele>1226.3</ele>
        <time>2022-08-15T07:33:18Z</time>
      </trkpt>
      <trkpt lat="42.1464250" lon="-2.1900610">
        <ele>1226.0</ele>
        <time>2022-08-15T07:33:20Z</time>
      </trkpt>
      <trkpt lat="42.1464130" lon="-2.1897590">
        <ele>1224.0</ele>
        <time>2022-08-15T07:33:23Z</time>
      </trkpt>
      <trkpt lat="42.1464100" lon="-2.1896670">
        <ele>1223.5</ele>
        <time>2022-08-15T07:33:25Z</time>
      </trkpt>
      <trkpt lat="42.1463890" lon="-2.1892810">
        <ele>1221.0</ele>
        <time>2022-08-15T07:33:28Z</time>
      </trkpt>
      <trkpt lat="42.1463890" lon="-2.1892810">
        <ele>1221.0</ele>
        <time>2022-08-15T07:33:29Z</time>
      </trkpt>
      <trkpt lat="42.1463680" lon="-2.1889520">
        <ele>1218.8</ele>
        <time>2022-08-15T07:33:31Z</time>
      </trkpt>
      <trkpt lat="42.1463610" lon="-2.1888340">
        <ele>1218.0</ele>
        <time>2022-08-15T07:33:32Z</time>
      </trkpt>
      <trkpt lat="42.1463500" lon="-2.1885880">
        <ele>1216.4</ele>
        <time>2022-08-15T07:33:34Z</time>
      </trkpt>
      <trkpt lat="42.1463380" lon="-2.1883350">
        <ele>1215.0</ele>
        <time>2022-08-15T07:33:36Z</time>
      </trkpt>
      <trkpt lat="42.1463300" lon="-2.1882050">
        <ele>1214.3</ele>
        <time>2022-08-15T07:33:38Z</time>
      </trkpt>
      <trkpt lat="42.1462980" lon="-2.1877710">
        <ele>1212.6</ele>
        <time>2022-08-15T07:33:41Z</time>
      </trkpt>
      <trkpt lat="42.1462930" lon="-2.1876340">
        <ele>1211.9</ele>
        <time>2022-08-15T07:33:42Z</time>
      </trkpt>
      <trkpt lat="42.1463140" lon="-2.1873970">
        <ele>1210.5</ele>
        <time>2022-08-15T07:33:44Z</time>
      </trkpt>
      <trkpt lat="42.1463340" lon="-2.1873050">
        <ele>1209.8</ele>
        <time>2022-08-15T07:33:45Z</time>
      </trkpt>
      <trkpt lat="42.1463590" lon="-2.1872120">
        <ele>1209.1</ele>
        <time>2022-08-15T07:33:47Z</time>
      </trkpt>
      <trkpt lat="42.1464270" lon="-2.1870280">
        <ele>1207.6</ele>
        <time>2022-08-15T07:33:48Z</time>
      </trkpt>
      <trkpt lat="42.1464720" lon="-2.1869350">
        <ele>1206.8</ele>
        <time>2022-08-15T07:33:49Z</time>
      </trkpt>
      <trkpt lat="42.1465220" lon="-2.1868440">
        <ele>1206.0</ele>
        <time>2022-08-15T07:33:50Z</time>
      </trkpt>
      <trkpt lat="42.1466190" lon="-2.1866610">
        <ele>1204.3</ele>
        <time>2022-08-15T07:33:52Z</time>
      </trkpt>
      <trkpt lat="42.1466960" lon="-2.1864430">
        <ele>1202.7</ele>
        <time>2022-08-15T07:33:54Z</time>
      </trkpt>
      <trkpt lat="42.1467250" lon="-2.1863200">
        <ele>1201.9</ele>
        <time>2022-08-15T07:33:56Z</time>
      </trkpt>
      <trkpt lat="42.1467890" lon="-2.1859880">
        <ele>1199.9</ele>
        <time>2022-08-15T07:33:58Z</time>
      </trkpt>
      <trkpt lat="42.1468150" lon="-2.1858960">
        <ele>1199.3</ele>
        <time>2022-08-15T07:33:59Z</time>
      </trkpt>
      <trkpt lat="42.1468490" lon="-2.1858070">
        <ele>1198.8</ele>
        <time>2022-08-15T07:34:00Z</time>
      </trkpt>
      <trkpt lat="42.1468870" lon="-2.1857200">
        <ele>1198.2</ele>
        <time>2022-08-15T07:34:01Z</time>
      </trkpt>
      <trkpt lat="42.1469760" lon="-2.1855410">
        <ele>1196.8</ele>
        <time>2022-08-15T07:34:03Z</time>
      </trkpt>
      <trkpt lat="42.1470220" lon="-2.1854460">
        <ele>1196.1</ele>
        <time>2022-08-15T07:34:04Z</time>
      </trkpt>
      <trkpt lat="42.1471490" lon="-2.1851460">
        <ele>1193.8</ele>
        <time>2022-08-15T07:34:07Z</time>
      </trkpt>
      <trkpt lat="42.1471830" lon="-2.1850410">
        <ele>1193.0</ele>
        <time>2022-08-15T07:34:09Z</time>
      </trkpt>
      <trkpt lat="42.1472530" lon="-2.1848280">
        <ele>1191.4</ele>
        <time>2022-08-15T07:34:10Z</time>
      </trkpt>
      <trkpt lat="42.1472890" lon="-2.1847200">
        <ele>1190.6</ele>
        <time>2022-08-15T07:34:12Z</time>
      </trkpt>
      <trkpt lat="42.1473790" lon="-2.1845050">
        <ele>1189.3</ele>
        <time>2022-08-15T07:34:13Z</time>
      </trkpt>
      <trkpt lat="42.1474790" lon="-2.1843010">
        <ele>1188.1</ele>
        <time>2022-08-15T07:34:15Z</time>
      </trkpt>
      <trkpt lat="42.1475250" lon="-2.1842090">
        <ele>1187.5</ele>
        <time>2022-08-15T07:34:16Z</time>
      </trkpt>
      <trkpt lat="42.1476050" lon="-2.1840680">
        <ele>1186.5</ele>
        <time>2022-08-15T07:34:18Z</time>
      </trkpt>
      <trkpt lat="42.1476480" lon="-2.1840140">
        <ele>1186.0</ele>
        <time>2022-08-15T07:34:19Z</time>
      </trkpt>
      <trkpt lat="42.1476950" lon="-2.1839690">
        <ele>1185.5</ele>
        <time>2022-08-15T07:34:20Z</time>
      </trkpt>
      <trkpt lat="42.1477460" lon="-2.1839310">
        <ele>1184.9</ele>
        <time>2022-08-15T07:34:21Z</time>
      </trkpt>
      <trkpt lat="42.1477900" lon="-2.1839060">
        <ele>1184.4</ele>
        <time>2022-08-15T07:34:22Z</time>
      </trkpt>
      <trkpt lat="42.1478610" lon="-2.1838710">
        <ele>1183.4</ele>
        <time>2022-08-15T07:34:23Z</time>
      </trkpt>
      <trkpt lat="42.1479260" lon="-2.1838460">
        <ele>1182.6</ele>
        <time>2022-08-15T07:34:24Z</time>
      </trkpt>
      <trkpt lat="42.1479910" lon="-2.1838220">
        <ele>1181.7</ele>
        <time>2022-08-15T07:34:25Z</time>
      </trkpt>
      <trkpt lat="42.1480540" lon="-2.1837850">
        <ele>1180.8</ele>
        <time>2022-08-15T07:34:26Z</time>
      </trkpt>
      <trkpt lat="42.1481020" lon="-2.1837470">
        <ele>1180.2</ele>
        <time>2022-08-15T07:34:27Z</time>
      </trkpt>
      <trkpt lat="42.1481720" lon="-2.1836770">
        <ele>1179.3</ele>
        <time>2022-08-15T07:34:28Z</time>
      </trkpt>
      <trkpt lat="42.1482770" lon="-2.1835280">
        <ele>1177.9</ele>
        <time>2022-08-15T07:34:30Z</time>
      </trkpt>
      <trkpt lat="42.1483190" lon="-2.1834630">
        <ele>1177.4</ele>
        <time>2022-08-15T07:34:31Z</time>
      </trkpt>
      <trkpt lat="42.1483810" lon="-2.1833650">
        <ele>1176.5</ele>
        <time>2022-08-15T07:34:32Z</time>
      </trkpt>
      <trkpt lat="42.1484870" lon="-2.1832120">
        <ele>1174.9</ele>
        <time>2022-08-15T07:34:34Z</time>
      </trkpt>
      <trkpt lat="42.1485370" lon="-2.1831580">
        <ele>1174.2</ele>
        <time>2022-08-15T07:34:35Z</time>
      </trkpt>
      <trkpt lat="42.1485860" lon="-2.1831160">
        <ele>1173.6</ele>
        <time>2022-08-15T07:34:36Z</time>
      </trkpt>
      <trkpt lat="42.1486360" lon="-2.1830780">
        <ele>1172.6</ele>
        <time>2022-08-15T07:34:37Z</time>
      </trkpt>
      <trkpt lat="42.1486860" lon="-2.1830400">
        <ele>1171.9</ele>
        <time>2022-08-15T07:34:38Z</time>
      </trkpt>
      <trkpt lat="42.1487280" lon="-2.1829920">
        <ele>1171.2</ele>
        <time>2022-08-15T07:34:39Z</time>
      </trkpt>
      <trkpt lat="42.1487880" lon="-2.1828730">
        <ele>1169.8</ele>
        <time>2022-08-15T07:34:41Z</time>
      </trkpt>
      <trkpt lat="42.1488030" lon="-2.1828100">
        <ele>1169.2</ele>
        <time>2022-08-15T07:34:42Z</time>
      </trkpt>
      <trkpt lat="42.1488030" lon="-2.1827480">
        <ele>1168.6</ele>
        <time>2022-08-15T07:34:43Z</time>
      </trkpt>
      <trkpt lat="42.1487900" lon="-2.1826840">
        <ele>1167.9</ele>
        <time>2022-08-15T07:34:44Z</time>
      </trkpt>
      <trkpt lat="42.1487560" lon="-2.1825510">
        <ele>1166.4</ele>
        <time>2022-08-15T07:34:46Z</time>
      </trkpt>
      <trkpt lat="42.1487230" lon="-2.1824120">
        <ele>1164.9</ele>
        <time>2022-08-15T07:34:48Z</time>
      </trkpt>
      <trkpt lat="42.1487070" lon="-2.1822440">
        <ele>1163.2</ele>
        <time>2022-08-15T07:34:50Z</time>
      </trkpt>
      <trkpt lat="42.1487040" lon="-2.1821490">
        <ele>1162.2</ele>
        <time>2022-08-15T07:34:52Z</time>
      </trkpt>
      <trkpt lat="42.1486980" lon="-2.1819360">
        <ele>1160.1</ele>
        <time>2022-08-15T07:34:53Z</time>
      </trkpt>
      <trkpt lat="42.1487000" lon="-2.1816940">
        <ele>1157.9</ele>
        <time>2022-08-15T07:34:55Z</time>
      </trkpt>
      <trkpt lat="42.1487040" lon="-2.1815660">
        <ele>1156.6</ele>
        <time>2022-08-15T07:34:56Z</time>
      </trkpt>
      <trkpt lat="42.1487070" lon="-2.1814330">
        <ele>1155.3</ele>
        <time>2022-08-15T07:34:57Z</time>
      </trkpt>
      <trkpt lat="42.1487170" lon="-2.1811640">
        <ele>1152.6</ele>
        <time>2022-08-15T07:34:59Z</time>
      </trkpt>
      <trkpt lat="42.1487240" lon="-2.1810310">
        <ele>1151.3</ele>
        <time>2022-08-15T07:35:00Z</time>
      </trkpt>
      <trkpt lat="42.1487290" lon="-2.1808970">
        <ele>1149.9</ele>
        <time>2022-08-15T07:35:02Z</time>
      </trkpt>
      <trkpt lat="42.1487440" lon="-2.1804910">
        <ele>1145.8</ele>
        <time>2022-08-15T07:35:04Z</time>
      </trkpt>
      <trkpt lat="42.1487590" lon="-2.1802240">
        <ele>1143.7</ele>
        <time>2022-08-15T07:35:06Z</time>
      </trkpt>
      <trkpt lat="42.1487680" lon="-2.1800880">
        <ele>1142.9</ele>
        <time>2022-08-15T07:35:07Z</time>
      </trkpt>
      <trkpt lat="42.1487750" lon="-2.1799570">
        <ele>1142.2</ele>
        <time>2022-08-15T07:35:08Z</time>
      </trkpt>
      <trkpt lat="42.1487820" lon="-2.1798320">
        <ele>1141.7</ele>
        <time>2022-08-15T07:35:09Z</time>
      </trkpt>
      <trkpt lat="42.1487920" lon="-2.1795940">
        <ele>1141.4</ele>
        <time>2022-08-15T07:35:11Z</time>
      </trkpt>
      <trkpt lat="42.1487950" lon="-2.1794820">
        <ele>1141.3</ele>
        <time>2022-08-15T07:35:12Z</time>
      </trkpt>
      <trkpt lat="42.1487960" lon="-2.1793760">
        <ele>1141.4</ele>
        <time>2022-08-15T07:35:13Z</time>
      </trkpt>
      <trkpt lat="42.1487980" lon="-2.1792000">
        <ele>1141.5</ele>
        <time>2022-08-15T07:35:15Z</time>
      </trkpt>
      <trkpt lat="42.1488040" lon="-2.1790070">
        <ele>1141.9</ele>
        <time>2022-08-15T07:35:17Z</time>
      </trkpt>
      <trkpt lat="42.1488090" lon="-2.1789300">
        <ele>1142.1</ele>
        <time>2022-08-15T07:35:18Z</time>
      </trkpt>
      <trkpt lat="42.1488220" lon="-2.1787910">
        <ele>1142.6</ele>
        <time>2022-08-15T07:35:20Z</time>
      </trkpt>
      <trkpt lat="42.1488280" lon="-2.1787300">
        <ele>1142.8</ele>
        <time>2022-08-15T07:35:21Z</time>
      </trkpt>
      <trkpt lat="42.1488330" lon="-2.1786730">
        <ele>1143.0</ele>
        <time>2022-08-15T07:35:22Z</time>
      </trkpt>
      <trkpt lat="42.1488370" lon="-2.1786160">
        <ele>1143.2</ele>
        <time>2022-08-15T07:35:24Z</time>
      </trkpt>
      <trkpt lat="42.1488470" lon="-2.1785070">
        <ele>1143.7</ele>
        <time>2022-08-15T07:35:25Z</time>
      </trkpt>
      <trkpt lat="42.1488550" lon="-2.1784000">
        <ele>1144.2</ele>
        <time>2022-08-15T07:35:27Z</time>
      </trkpt>
      <trkpt lat="42.1488580" lon="-2.1783480">
        <ele>1144.5</ele>
        <time>2022-08-15T07:35:28Z</time>
      </trkpt>
      <trkpt lat="42.1488570" lon="-2.1782510">
        <ele>1145.1</ele>
        <time>2022-08-15T07:35:30Z</time>
      </trkpt>
      <trkpt lat="42.1488530" lon="-2.1781810">
        <ele>1145.5</ele>
        <time>2022-08-15T07:35:32Z</time>
      </trkpt>
      <trkpt lat="42.1488350" lon="-2.1781160">
        <ele>1145.9</ele>
        <time>2022-08-15T07:35:34Z</time>
      </trkpt>
      <trkpt lat="42.1488270" lon="-2.1780760">
        <ele>1146.2</ele>
        <time>2022-08-15T07:35:35Z</time>
      </trkpt>
      <trkpt lat="42.1488200" lon="-2.1779760">
        <ele>1146.8</ele>
        <time>2022-08-15T07:35:37Z</time>
      </trkpt>
      <trkpt lat="42.1488140" lon="-2.1778770">
        <ele>1147.4</ele>
        <time>2022-08-15T07:35:39Z</time>
      </trkpt>
      <trkpt lat="42.1488100" lon="-2.1778280">
        <ele>1147.7</ele>
        <time>2022-08-15T07:35:40Z</time>
      </trkpt>
      <trkpt lat="42.1488020" lon="-2.1777810">
        <ele>1147.9</ele>
        <time>2022-08-15T07:35:41Z</time>
      </trkpt>
      <trkpt lat="42.1487840" lon="-2.1776350">
        <ele>1148.7</ele>
        <time>2022-08-15T07:35:44Z</time>
      </trkpt>
      <trkpt lat="42.1487780" lon="-2.1775870">
        <ele>1148.9</ele>
        <time>2022-08-15T07:35:45Z</time>
      </trkpt>
      <trkpt lat="42.1487530" lon="-2.1773060">
        <ele>1150.2</ele>
        <time>2022-08-15T07:35:51Z</time>
      </trkpt>
      <trkpt lat="42.1487480" lon="-2.1772620">
        <ele>1150.4</ele>
        <time>2022-08-15T07:35:52Z</time>
      </trkpt>
      <trkpt lat="42.1487130" lon="-2.1770620">
        <ele>1151.4</ele>
        <time>2022-08-15T07:35:57Z</time>
      </trkpt>
      <trkpt lat="42.1486850" lon="-2.1769480">
        <ele>1152.0</ele>
        <time>2022-08-15T07:36:00Z</time>
      </trkpt>
      <trkpt lat="42.1486640" lon="-2.1768770">
        <ele>1152.3</ele>
        <time>2022-08-15T07:36:02Z</time>
      </trkpt>
      <trkpt lat="42.1486060" lon="-2.1767020">
        <ele>1153.2</ele>
        <time>2022-08-15T07:36:07Z</time>
      </trkpt>
      <trkpt lat="42.1485760" lon="-2.1765990">
        <ele>1153.6</ele>
        <time>2022-08-15T07:36:10Z</time>
      </trkpt>
      <trkpt lat="42.1485630" lon="-2.1765650">
        <ele>1153.7</ele>
        <time>2022-08-15T07:36:11Z</time>
      </trkpt>
      <trkpt lat="42.1485150" lon="-2.1763490">
        <ele>1154.0</ele>
        <time>2022-08-15T07:36:17Z</time>
      </trkpt>
      <trkpt lat="42.1485170" lon="-2.1762710">
        <ele>1153.9</ele>
        <time>2022-08-15T07:36:19Z</time>
      </trkpt>
      <trkpt lat="42.1485530" lon="-2.1761160">
        <ele>1153.3</ele>
        <time>2022-08-15T07:36:23Z</time>
      </trkpt>
      <trkpt lat="42.1485910" lon="-2.1760320">
        <ele>1152.8</ele>
        <time>2022-08-15T07:36:25Z</time>
      </trkpt>
      <trkpt lat="42.1487610" lon="-2.1757270">
        <ele>1150.3</ele>
        <time>2022-08-15T07:36:30Z</time>
      </trkpt>
      <trkpt lat="42.1489040" lon="-2.1754870">
        <ele>1149.0</ele>
        <time>2022-08-15T07:36:33Z</time>
      </trkpt>
      <trkpt lat="42.1490480" lon="-2.1752350">
        <ele>1148.8</ele>
        <time>2022-08-15T07:36:36Z</time>
      </trkpt>
      <trkpt lat="42.1490860" lon="-2.1751570">
        <ele>1149.0</ele>
        <time>2022-08-15T07:36:37Z</time>
      </trkpt>
      <trkpt lat="42.1491640" lon="-2.1749750">
        <ele>1149.8</ele>
        <time>2022-08-15T07:36:40Z</time>
      </trkpt>
      <trkpt lat="42.1492200" lon="-2.1747940">
        <ele>1150.8</ele>
        <time>2022-08-15T07:36:45Z</time>
      </trkpt>
      <trkpt lat="42.1492740" lon="-2.1745580">
        <ele>1152.3</ele>
        <time>2022-08-15T07:36:52Z</time>
      </trkpt>
      <trkpt lat="42.1492800" lon="-2.1745270">
        <ele>1152.6</ele>
        <time>2022-08-15T07:36:53Z</time>
      </trkpt>
      <trkpt lat="42.1493090" lon="-2.1743760">
        <ele>1153.8</ele>
        <time>2022-08-15T07:36:58Z</time>
      </trkpt>
      <trkpt lat="42.1493230" lon="-2.1743180">
        <ele>1154.3</ele>
        <time>2022-08-15T07:37:00Z</time>
      </trkpt>
      <trkpt lat="42.1493510" lon="-2.1742040">
        <ele>1155.4</ele>
        <time>2022-08-15T07:37:04Z</time>
      </trkpt>
      <trkpt lat="42.1493650" lon="-2.1741250">
        <ele>1156.1</ele>
        <time>2022-08-15T07:37:07Z</time>
      </trkpt>
      <trkpt lat="42.1493810" lon="-2.1740460">
        <ele>1156.7</ele>
        <time>2022-08-15T07:37:10Z</time>
      </trkpt>
      <trkpt lat="42.1493940" lon="-2.1739920">
        <ele>1157.2</ele>
        <time>2022-08-15T07:37:12Z</time>
      </trkpt>
      <trkpt lat="42.1494250" lon="-2.1738770">
        <ele>1158.0</ele>
        <time>2022-08-15T07:37:16Z</time>
      </trkpt>
      <trkpt lat="42.1494480" lon="-2.1737640">
        <ele>1158.8</ele>
        <time>2022-08-15T07:37:20Z</time>
      </trkpt>
      <trkpt lat="42.1494580" lon="-2.1736790">
        <ele>1159.3</ele>
        <time>2022-08-15T07:37:23Z</time>
      </trkpt>
      <trkpt lat="42.1494800" lon="-2.1734510">
        <ele>1160.5</ele>
        <time>2022-08-15T07:37:31Z</time>
      </trkpt>
      <trkpt lat="42.1494990" lon="-2.1732560">
        <ele>1161.5</ele>
        <time>2022-08-15T07:37:38Z</time>
      </trkpt>
      <trkpt lat="42.1495080" lon="-2.1731700">
        <ele>1162.0</ele>
        <time>2022-08-15T07:37:42Z</time>
      </trkpt>
      <trkpt lat="42.1495330" lon="-2.1729460">
        <ele>1163.2</ele>
        <time>2022-08-15T07:37:49Z</time>
      </trkpt>
      <trkpt lat="42.1495410" lon="-2.1728660">
        <ele>1163.7</ele>
        <time>2022-08-15T07:37:52Z</time>
      </trkpt>
      <trkpt lat="42.1495570" lon="-2.1727930">
        <ele>1164.1</ele>
        <time>2022-08-15T07:37:55Z</time>
      </trkpt>
      <trkpt lat="42.1495910" lon="-2.1726710">
        <ele>1165.1</ele>
        <time>2022-08-15T07:38:00Z</time>
      </trkpt>
      <trkpt lat="42.1496070" lon="-2.1726210">
        <ele>1165.5</ele>
        <time>2022-08-15T07:38:02Z</time>
      </trkpt>
      <trkpt lat="42.1496240" lon="-2.1725730">
        <ele>1165.8</ele>
        <time>2022-08-15T07:38:04Z</time>
      </trkpt>
      <trkpt lat="42.1496760" lon="-2.1724230">
        <ele>1166.9</ele>
        <time>2022-08-15T07:38:10Z</time>
      </trkpt>
      <trkpt lat="42.1496960" lon="-2.1722920">
        <ele>1167.8</ele>
        <time>2022-08-15T07:38:15Z</time>
      </trkpt>
      <trkpt lat="42.1496970" lon="-2.1722100">
        <ele>1168.3</ele>
        <time>2022-08-15T07:38:18Z</time>
      </trkpt>
      <trkpt lat="42.1496920" lon="-2.1720420">
        <ele>1169.4</ele>
        <time>2022-08-15T07:38:24Z</time>
      </trkpt>
      <trkpt lat="42.1496880" lon="-2.1719610">
        <ele>1169.9</ele>
        <time>2022-08-15T07:38:27Z</time>
      </trkpt>
      <trkpt lat="42.1496970" lon="-2.1718520">
        <ele>1170.6</ele>
        <time>2022-08-15T07:38:31Z</time>
      </trkpt>
      <trkpt lat="42.1497060" lon="-2.1717490">
        <ele>1171.3</ele>
        <time>2022-08-15T07:38:35Z</time>
      </trkpt>
      <trkpt lat="42.1497220" lon="-2.1716460">
        <ele>1172.0</ele>
        <time>2022-08-15T07:38:40Z</time>
      </trkpt>
      <trkpt lat="42.1497410" lon="-2.1714880">
        <ele>1173.0</ele>
        <time>2022-08-15T07:38:45Z</time>
      </trkpt>
      <trkpt lat="42.1497480" lon="-2.1714620">
        <ele>1173.2</ele>
        <time>2022-08-15T07:38:46Z</time>
      </trkpt>
      <trkpt lat="42.1497800" lon="-2.1713040">
        <ele>1174.2</ele>
        <time>2022-08-15T07:38:52Z</time>
      </trkpt>
      <trkpt lat="42.1497930" lon="-2.1712390">
        <ele>1174.6</ele>
        <time>2022-08-15T07:38:55Z</time>
      </trkpt>
      <trkpt lat="42.1498140" lon="-2.1711480">
        <ele>1175.0</ele>
        <time>2022-08-15T07:38:58Z</time>
      </trkpt>
      <trkpt lat="42.1498690" lon="-2.1709800">
        <ele>1175.1</ele>
        <time>2022-08-15T07:39:04Z</time>
      </trkpt>
      <trkpt lat="42.1499220" lon="-2.1708610">
        <ele>1174.6</ele>
        <time>2022-08-15T07:39:07Z</time>
      </trkpt>
      <trkpt lat="42.1499710" lon="-2.1707730">
        <ele>1174.1</ele>
        <time>2022-08-15T07:39:09Z</time>
      </trkpt>
      <trkpt lat="42.1500200" lon="-2.1706650">
        <ele>1173.5</ele>
        <time>2022-08-15T07:39:11Z</time>
      </trkpt>
      <trkpt lat="42.1500740" lon="-2.1705360">
        <ele>1172.8</ele>
        <time>2022-08-15T07:39:13Z</time>
      </trkpt>
      <trkpt lat="42.1501310" lon="-2.1703800">
        <ele>1172.1</ele>
        <time>2022-08-15T07:39:15Z</time>
      </trkpt>
      <trkpt lat="42.1502210" lon="-2.1701070">
        <ele>1170.8</ele>
        <time>2022-08-15T07:39:18Z</time>
      </trkpt>
      <trkpt lat="42.1502790" lon="-2.1699020">
        <ele>1170.0</ele>
        <time>2022-08-15T07:39:20Z</time>
      </trkpt>
      <trkpt lat="42.1503080" lon="-2.1697960">
        <ele>1169.5</ele>
        <time>2022-08-15T07:39:21Z</time>
      </trkpt>
      <trkpt lat="42.1503590" lon="-2.1695790">
        <ele>1168.6</ele>
        <time>2022-08-15T07:39:23Z</time>
      </trkpt>
      <trkpt lat="42.1503790" lon="-2.1694690">
        <ele>1168.1</ele>
        <time>2022-08-15T07:39:24Z</time>
      </trkpt>
      <trkpt lat="42.1504080" lon="-2.1692560">
        <ele>1167.4</ele>
        <time>2022-08-15T07:39:26Z</time>
      </trkpt>
      <trkpt lat="42.1504230" lon="-2.1690640">
        <ele>1167.3</ele>
        <time>2022-08-15T07:39:28Z</time>
      </trkpt>
      <trkpt lat="42.1504360" lon="-2.1688920">
        <ele>1166.3</ele>
        <time>2022-08-15T07:39:30Z</time>
      </trkpt>
      <trkpt lat="42.1504390" lon="-2.1688120">
        <ele>1165.9</ele>
        <time>2022-08-15T07:39:31Z</time>
      </trkpt>
      <trkpt lat="42.1504480" lon="-2.1687370">
        <ele>1165.5</ele>
        <time>2022-08-15T07:39:32Z</time>
      </trkpt>
      <trkpt lat="42.1504880" lon="-2.1684930">
        <ele>1163.9</ele>
        <time>2022-08-15T07:39:35Z</time>
      </trkpt>
      <trkpt lat="42.1505050" lon="-2.1684080">
        <ele>1163.3</ele>
        <time>2022-08-15T07:39:36Z</time>
      </trkpt>
      <trkpt lat="42.1505280" lon="-2.1683250">
        <ele>1162.8</ele>
        <time>2022-08-15T07:39:37Z</time>
      </trkpt>
      <trkpt lat="42.1506330" lon="-2.1680510">
        <ele>1160.9</ele>
        <time>2022-08-15T07:39:41Z</time>
      </trkpt>
      <trkpt lat="42.1506670" lon="-2.1679840">
        <ele>1160.5</ele>
        <time>2022-08-15T07:39:42Z</time>
      </trkpt>
      <trkpt lat="42.1507060" lon="-2.1679140">
        <ele>1160.0</ele>
        <time>2022-08-15T07:39:43Z</time>
      </trkpt>
      <trkpt lat="42.1507880" lon="-2.1677690">
        <ele>1159.0</ele>
        <time>2022-08-15T07:39:45Z</time>
      </trkpt>
      <trkpt lat="42.1509000" lon="-2.1675380">
        <ele>1157.6</ele>
        <time>2022-08-15T07:39:48Z</time>
      </trkpt>
      <trkpt lat="42.1509300" lon="-2.1674480">
        <ele>1157.2</ele>
        <time>2022-08-15T07:39:49Z</time>
      </trkpt>
      <trkpt lat="42.1510100" lon="-2.1669490">
        <ele>1154.8</ele>
        <time>2022-08-15T07:39:54Z</time>
      </trkpt>
      <trkpt lat="42.1510510" lon="-2.1667420">
        <ele>1153.8</ele>
        <time>2022-08-15T07:39:56Z</time>
      </trkpt>
      <trkpt lat="42.1511020" lon="-2.1665290">
        <ele>1152.8</ele>
        <time>2022-08-15T07:39:58Z</time>
      </trkpt>
      <trkpt lat="42.1511580" lon="-2.1663160">
        <ele>1151.6</ele>
        <time>2022-08-15T07:40:00Z</time>
      </trkpt>
      <trkpt lat="42.1512460" lon="-2.1660080">
        <ele>1149.9</ele>
        <time>2022-08-15T07:40:03Z</time>
      </trkpt>
      <trkpt lat="42.1512650" lon="-2.1659010">
        <ele>1149.4</ele>
        <time>2022-08-15T07:40:04Z</time>
      </trkpt>
      <trkpt lat="42.1512780" lon="-2.1657920">
        <ele>1149.0</ele>
        <time>2022-08-15T07:40:05Z</time>
      </trkpt>
      <trkpt lat="42.1512820" lon="-2.1656820">
        <ele>1148.6</ele>
        <time>2022-08-15T07:40:06Z</time>
      </trkpt>
      <trkpt lat="42.1512520" lon="-2.1653640">
        <ele>1147.8</ele>
        <time>2022-08-15T07:40:09Z</time>
      </trkpt>
      <trkpt lat="42.1512010" lon="-2.1651700">
        <ele>1147.4</ele>
        <time>2022-08-15T07:40:11Z</time>
      </trkpt>
      <trkpt lat="42.1511240" lon="-2.1650030">
        <ele>1147.1</ele>
        <time>2022-08-15T07:40:13Z</time>
      </trkpt>
      <trkpt lat="42.1510260" lon="-2.1648650">
        <ele>1146.8</ele>
        <time>2022-08-15T07:40:15Z</time>
      </trkpt>
      <trkpt lat="42.1509760" lon="-2.1647990">
        <ele>1146.6</ele>
        <time>2022-08-15T07:40:16Z</time>
      </trkpt>
      <trkpt lat="42.1509390" lon="-2.1647220">
        <ele>1146.4</ele>
        <time>2022-08-15T07:40:17Z</time>
      </trkpt>
      <trkpt lat="42.1509090" lon="-2.1646350">
        <ele>1146.1</ele>
        <time>2022-08-15T07:40:18Z</time>
      </trkpt>
      <trkpt lat="42.1508800" lon="-2.1644490">
        <ele>1145.3</ele>
        <time>2022-08-15T07:40:20Z</time>
      </trkpt>
      <trkpt lat="42.1508640" lon="-2.1642550">
        <ele>1144.6</ele>
        <time>2022-08-15T07:40:22Z</time>
      </trkpt>
      <trkpt lat="42.1508340" lon="-2.1640560">
        <ele>1143.7</ele>
        <time>2022-08-15T07:40:24Z</time>
      </trkpt>
      <trkpt lat="42.1507920" lon="-2.1638580">
        <ele>1142.8</ele>
        <time>2022-08-15T07:40:26Z</time>
      </trkpt>
      <trkpt lat="42.1507710" lon="-2.1637700">
        <ele>1142.4</ele>
        <time>2022-08-15T07:40:27Z</time>
      </trkpt>
      <trkpt lat="42.1507070" lon="-2.1636040">
        <ele>1141.4</ele>
        <time>2022-08-15T07:40:29Z</time>
      </trkpt>
      <trkpt lat="42.1506710" lon="-2.1635230">
        <ele>1140.9</ele>
        <time>2022-08-15T07:40:30Z</time>
      </trkpt>
      <trkpt lat="42.1506400" lon="-2.1634400">
        <ele>1140.5</ele>
        <time>2022-08-15T07:40:31Z</time>
      </trkpt>
      <trkpt lat="42.1506040" lon="-2.1632750">
        <ele>1139.5</ele>
        <time>2022-08-15T07:40:33Z</time>
      </trkpt>
      <trkpt lat="42.1506000" lon="-2.1631930">
        <ele>1139.1</ele>
        <time>2022-08-15T07:40:34Z</time>
      </trkpt>
      <trkpt lat="42.1505950" lon="-2.1630220">
        <ele>1138.2</ele>
        <time>2022-08-15T07:40:36Z</time>
      </trkpt>
      <trkpt lat="42.1505860" lon="-2.1629270">
        <ele>1137.7</ele>
        <time>2022-08-15T07:40:37Z</time>
      </trkpt>
      <trkpt lat="42.1505750" lon="-2.1628290">
        <ele>1137.2</ele>
        <time>2022-08-15T07:40:38Z</time>
      </trkpt>
      <trkpt lat="42.1505480" lon="-2.1626360">
        <ele>1136.2</ele>
        <time>2022-08-15T07:40:40Z</time>
      </trkpt>
      <trkpt lat="42.1505360" lon="-2.1624790">
        <ele>1135.4</ele>
        <time>2022-08-15T07:40:42Z</time>
      </trkpt>
      <trkpt lat="42.1505390" lon="-2.1623640">
        <ele>1134.7</ele>
        <time>2022-08-15T07:40:44Z</time>
      </trkpt>
      <trkpt lat="42.1505600" lon="-2.1622760">
        <ele>1134.1</ele>
        <time>2022-08-15T07:40:46Z</time>
      </trkpt>
      <trkpt lat="42.1505980" lon="-2.1621940">
        <ele>1133.4</ele>
        <time>2022-08-15T07:40:48Z</time>
      </trkpt>
      <trkpt lat="42.1505980" lon="-2.1621940">
        <ele>1133.4</ele>
        <time>2022-08-15T07:40:49Z</time>
      </trkpt>
      <trkpt lat="42.1506420" lon="-2.1621180">
        <ele>1132.7</ele>
        <time>2022-08-15T07:40:51Z</time>
      </trkpt>
      <trkpt lat="42.1506870" lon="-2.1620400">
        <ele>1132.0</ele>
        <time>2022-08-15T07:40:52Z</time>
      </trkpt>
      <trkpt lat="42.1507380" lon="-2.1619330">
        <ele>1131.0</ele>
        <time>2022-08-15T07:40:55Z</time>
      </trkpt>
      <trkpt lat="42.1507770" lon="-2.1618210">
        <ele>1130.1</ele>
        <time>2022-08-15T07:40:57Z</time>
      </trkpt>
      <trkpt lat="42.1507770" lon="-2.1618210">
        <ele>1130.1</ele>
        <time>2022-08-15T07:40:58Z</time>
      </trkpt>
      <trkpt lat="42.1508130" lon="-2.1616720">
        <ele>1128.9</ele>
        <time>2022-08-15T07:41:00Z</time>
      </trkpt>
      <trkpt lat="42.1508320" lon="-2.1615580">
        <ele>1128.1</ele>
        <time>2022-08-15T07:41:02Z</time>
      </trkpt>
      <trkpt lat="42.1508490" lon="-2.1613780">
        <ele>1126.9</ele>
        <time>2022-08-15T07:41:05Z</time>
      </trkpt>
      <trkpt lat="42.1508530" lon="-2.1613160">
        <ele>1126.5</ele>
        <time>2022-08-15T07:41:06Z</time>
      </trkpt>
      <trkpt lat="42.1508580" lon="-2.1611880">
        <ele>1125.7</ele>
        <time>2022-08-15T07:41:08Z</time>
      </trkpt>
      <trkpt lat="42.1508600" lon="-2.1609490">
        <ele>1124.0</ele>
        <time>2022-08-15T07:41:12Z</time>
      </trkpt>
      <trkpt lat="42.1508700" lon="-2.1608320">
        <ele>1123.1</ele>
        <time>2022-08-15T07:41:14Z</time>
      </trkpt>
      <trkpt lat="42.1508850" lon="-2.1607730">
        <ele>1122.6</ele>
        <time>2022-08-15T07:41:15Z</time>
      </trkpt>
      <trkpt lat="42.1509210" lon="-2.1606540">
        <ele>1121.5</ele>
        <time>2022-08-15T07:41:17Z</time>
      </trkpt>
      <trkpt lat="42.1509620" lon="-2.1605260">
        <ele>1120.4</ele>
        <time>2022-08-15T07:41:19Z</time>
      </trkpt>
      <trkpt lat="42.1509900" lon="-2.1604620">
        <ele>1119.8</ele>
        <time>2022-08-15T07:41:20Z</time>
      </trkpt>
      <trkpt lat="42.1510510" lon="-2.1603170">
        <ele>1118.5</ele>
        <time>2022-08-15T07:41:22Z</time>
      </trkpt>
      <trkpt lat="42.1511140" lon="-2.1601420">
        <ele>1117.2</ele>
        <time>2022-08-15T07:41:24Z</time>
      </trkpt>
      <trkpt lat="42.1511350" lon="-2.1600420">
        <ele>1116.5</ele>
        <time>2022-08-15T07:41:25Z</time>
      </trkpt>
      <trkpt lat="42.1511430" lon="-2.1599400">
        <ele>1115.8</ele>
        <time>2022-08-15T07:41:26Z</time>
      </trkpt>
      <trkpt lat="42.1511430" lon="-2.1598360">
        <ele>1115.1</ele>
        <time>2022-08-15T07:41:27Z</time>
      </trkpt>
      <trkpt lat="42.1511310" lon="-2.1597270">
        <ele>1114.4</ele>
        <time>2022-08-15T07:41:28Z</time>
      </trkpt>
      <trkpt lat="42.1511090" lon="-2.1596160">
        <ele>1113.7</ele>
        <time>2022-08-15T07:41:29Z</time>
      </trkpt>
      <trkpt lat="42.1510470" lon="-2.1593860">
        <ele>1112.5</ele>
        <time>2022-08-15T07:41:31Z</time>
      </trkpt>
      <trkpt lat="42.1510130" lon="-2.1592730">
        <ele>1112.1</ele>
        <time>2022-08-15T07:41:32Z</time>
      </trkpt>
      <trkpt lat="42.1509470" lon="-2.1590690">
        <ele>1111.5</ele>
        <time>2022-08-15T07:41:34Z</time>
      </trkpt>
      <trkpt lat="42.1509080" lon="-2.1589830">
        <ele>1111.3</ele>
        <time>2022-08-15T07:41:35Z</time>
      </trkpt>
      <trkpt lat="42.1508700" lon="-2.1589050">
        <ele>1111.2</ele>
        <time>2022-08-15T07:41:36Z</time>
      </trkpt>
      <trkpt lat="42.1508360" lon="-2.1588290">
        <ele>1111.0</ele>
        <time>2022-08-15T07:41:37Z</time>
      </trkpt>
      <trkpt lat="42.1507840" lon="-2.1586730">
        <ele>1110.8</ele>
        <time>2022-08-15T07:41:39Z</time>
      </trkpt>
      <trkpt lat="42.1507650" lon="-2.1586000">
        <ele>1110.7</ele>
        <time>2022-08-15T07:41:40Z</time>
      </trkpt>
      <trkpt lat="42.1506680" lon="-2.1581660">
        <ele>1110.0</ele>
        <time>2022-08-15T07:41:46Z</time>
      </trkpt>
      <trkpt lat="42.1505920" lon="-2.1578850">
        <ele>1109.8</ele>
        <time>2022-08-15T07:41:51Z</time>
      </trkpt>
      <trkpt lat="42.1505730" lon="-2.1577060">
        <ele>1109.4</ele>
        <time>2022-08-15T07:41:55Z</time>
      </trkpt>
      <trkpt lat="42.1505830" lon="-2.1576370">
        <ele>1108.7</ele>
        <time>2022-08-15T07:41:57Z</time>
      </trkpt>
      <trkpt lat="42.1505920" lon="-2.1576100">
        <ele>1108.4</ele>
        <time>2022-08-15T07:41:58Z</time>
      </trkpt>
      <trkpt lat="42.1506020" lon="-2.1575870">
        <ele>1108.1</ele>
        <time>2022-08-15T07:41:59Z</time>
      </trkpt>
      <trkpt lat="42.1506150" lon="-2.1575660">
        <ele>1107.8</ele>
        <time>2022-08-15T07:42:00Z</time>
      </trkpt>
      <trkpt lat="42.1506690" lon="-2.1574940">
        <ele>1106.8</ele>
        <time>2022-08-15T07:42:03Z</time>
      </trkpt>
      <trkpt lat="42.1507640" lon="-2.1573630">
        <ele>1104.9</ele>
        <time>2022-08-15T07:42:07Z</time>
      </trkpt>
      <trkpt lat="42.1507900" lon="-2.1573320">
        <ele>1104.4</ele>
        <time>2022-08-15T07:42:08Z</time>
      </trkpt>
      <trkpt lat="42.1507900" lon="-2.1573320">
        <ele>1104.4</ele>
        <time>2022-08-15T07:42:09Z</time>
      </trkpt>
      <trkpt lat="42.1508460" lon="-2.1572470">
        <ele>1103.4</ele>
        <time>2022-08-15T07:42:11Z</time>
      </trkpt>
      <trkpt lat="42.1508800" lon="-2.1571840">
        <ele>1102.7</ele>
        <time>2022-08-15T07:42:13Z</time>
      </trkpt>
      <trkpt lat="42.1509350" lon="-2.1570620">
        <ele>1101.6</ele>
        <time>2022-08-15T07:42:16Z</time>
      </trkpt>
      <trkpt lat="42.1509450" lon="-2.1570120">
        <ele>1101.2</ele>
        <time>2022-08-15T07:42:17Z</time>
      </trkpt>
      <trkpt lat="42.1509530" lon="-2.1569550">
        <ele>1100.8</ele>
        <time>2022-08-15T07:42:18Z</time>
      </trkpt>
      <trkpt lat="42.1509560" lon="-2.1568340">
        <ele>1100.0</ele>
        <time>2022-08-15T07:42:20Z</time>
      </trkpt>
      <trkpt lat="42.1509530" lon="-2.1567720">
        <ele>1099.6</ele>
        <time>2022-08-15T07:42:21Z</time>
      </trkpt>
      <trkpt lat="42.1509420" lon="-2.1565940">
        <ele>1098.3</ele>
        <time>2022-08-15T07:42:24Z</time>
      </trkpt>
      <trkpt lat="42.1509440" lon="-2.1565380">
        <ele>1098.0</ele>
        <time>2022-08-15T07:42:25Z</time>
      </trkpt>
      <trkpt lat="42.1509560" lon="-2.1564820">
        <ele>1097.6</ele>
        <time>2022-08-15T07:42:26Z</time>
      </trkpt>
      <trkpt lat="42.1509770" lon="-2.1564300">
        <ele>1097.2</ele>
        <time>2022-08-15T07:42:27Z</time>
      </trkpt>
      <trkpt lat="42.1510480" lon="-2.1563410">
        <ele>1096.2</ele>
        <time>2022-08-15T07:42:29Z</time>
      </trkpt>
      <trkpt lat="42.1510940" lon="-2.1563130">
        <ele>1095.7</ele>
        <time>2022-08-15T07:42:30Z</time>
      </trkpt>
      <trkpt lat="42.1511410" lon="-2.1562870">
        <ele>1095.2</ele>
        <time>2022-08-15T07:42:31Z</time>
      </trkpt>
      <trkpt lat="42.1512360" lon="-2.1562130">
        <ele>1094.0</ele>
        <time>2022-08-15T07:42:33Z</time>
      </trkpt>
      <trkpt lat="42.1512810" lon="-2.1561650">
        <ele>1093.3</ele>
        <time>2022-08-15T07:42:34Z</time>
      </trkpt>
      <trkpt lat="42.1513170" lon="-2.1561140">
        <ele>1092.7</ele>
        <time>2022-08-15T07:42:35Z</time>
      </trkpt>
      <trkpt lat="42.1513620" lon="-2.1559930">
        <ele>1091.3</ele>
        <time>2022-08-15T07:42:37Z</time>
      </trkpt>
      <trkpt lat="42.1513770" lon="-2.1558520">
        <ele>1089.9</ele>
        <time>2022-08-15T07:42:39Z</time>
      </trkpt>
      <trkpt lat="42.1513710" lon="-2.1556950">
        <ele>1088.2</ele>
        <time>2022-08-15T07:42:41Z</time>
      </trkpt>
      <trkpt lat="42.1513640" lon="-2.1556100">
        <ele>1087.4</ele>
        <time>2022-08-15T07:42:42Z</time>
      </trkpt>
      <trkpt lat="42.1513510" lon="-2.1554300">
        <ele>1085.7</ele>
        <time>2022-08-15T07:42:44Z</time>
      </trkpt>
      <trkpt lat="42.1513310" lon="-2.1552450">
        <ele>1084.1</ele>
        <time>2022-08-15T07:42:46Z</time>
      </trkpt>
      <trkpt lat="42.1513220" lon="-2.1551540">
        <ele>1083.3</ele>
        <time>2022-08-15T07:42:47Z</time>
      </trkpt>
      <trkpt lat="42.1513040" lon="-2.1549680">
        <ele>1081.9</ele>
        <time>2022-08-15T07:42:49Z</time>
      </trkpt>
      <trkpt lat="42.1512920" lon="-2.1547650">
        <ele>1080.5</ele>
        <time>2022-08-15T07:42:51Z</time>
      </trkpt>
      <trkpt lat="42.1512910" lon="-2.1545620">
        <ele>1079.1</ele>
        <time>2022-08-15T07:42:53Z</time>
      </trkpt>
      <trkpt lat="42.1512960" lon="-2.1543650">
        <ele>1077.7</ele>
        <time>2022-08-15T07:42:55Z</time>
      </trkpt>
      <trkpt lat="42.1513000" lon="-2.1542730">
        <ele>1077.0</ele>
        <time>2022-08-15T07:42:56Z</time>
      </trkpt>
      <trkpt lat="42.1513070" lon="-2.1541000">
        <ele>1075.7</ele>
        <time>2022-08-15T07:42:58Z</time>
      </trkpt>
      <trkpt lat="42.1513100" lon="-2.1540210">
        <ele>1075.0</ele>
        <time>2022-08-15T07:42:59Z</time>
      </trkpt>
      <trkpt lat="42.1513130" lon="-2.1539510">
        <ele>1074.5</ele>
        <time>2022-08-15T07:43:00Z</time>
      </trkpt>
      <trkpt lat="42.1513280" lon="-2.1538310">
        <ele>1073.5</ele>
        <time>2022-08-15T07:43:02Z</time>
      </trkpt>
      <trkpt lat="42.1513340" lon="-2.1537800">
        <ele>1073.2</ele>
        <time>2022-08-15T07:43:03Z</time>
      </trkpt>
      <trkpt lat="42.1513420" lon="-2.1537360">
        <ele>1072.9</ele>
        <time>2022-08-15T07:43:04Z</time>
      </trkpt>
      <trkpt lat="42.1513580" lon="-2.1537010">
        <ele>1072.6</ele>
        <time>2022-08-15T07:43:05Z</time>
      </trkpt>
      <trkpt lat="42.1513840" lon="-2.1536800">
        <ele>1072.3</ele>
        <time>2022-08-15T07:43:06Z</time>
      </trkpt>
      <trkpt lat="42.1514490" lon="-2.1536670">
        <ele>1071.8</ele>
        <time>2022-08-15T07:43:08Z</time>
      </trkpt>
      <trkpt lat="42.1514770" lon="-2.1536800">
        <ele>1071.5</ele>
        <time>2022-08-15T07:43:09Z</time>
      </trkpt>
      <trkpt lat="42.1515000" lon="-2.1537100">
        <ele>1071.3</ele>
        <time>2022-08-15T07:43:10Z</time>
      </trkpt>
      <trkpt lat="42.1515350" lon="-2.1537920">
        <ele>1070.6</ele>
        <time>2022-08-15T07:43:12Z</time>
      </trkpt>
      <trkpt lat="42.1515610" lon="-2.1538960">
        <ele>1069.9</ele>
        <time>2022-08-15T07:43:14Z</time>
      </trkpt>
      <trkpt lat="42.1515790" lon="-2.1539540">
        <ele>1069.3</ele>
        <time>2022-08-15T07:43:15Z</time>
      </trkpt>
      <trkpt lat="42.1516400" lon="-2.1540720">
        <ele>1068.1</ele>
        <time>2022-08-15T07:43:17Z</time>
      </trkpt>
      <trkpt lat="42.1517270" lon="-2.1541960">
        <ele>1066.5</ele>
        <time>2022-08-15T07:43:19Z</time>
      </trkpt>
      <trkpt lat="42.1518080" lon="-2.1543570">
        <ele>1064.5</ele>
        <time>2022-08-15T07:43:21Z</time>
      </trkpt>
      <trkpt lat="42.1518820" lon="-2.1545370">
        <ele>1062.3</ele>
        <time>2022-08-15T07:43:23Z</time>
      </trkpt>
      <trkpt lat="42.1519170" lon="-2.1546290">
        <ele>1061.2</ele>
        <time>2022-08-15T07:43:24Z</time>
      </trkpt>
      <trkpt lat="42.1519550" lon="-2.1547230">
        <ele>1059.9</ele>
        <time>2022-08-15T07:43:25Z</time>
      </trkpt>
      <trkpt lat="42.1520380" lon="-2.1549200">
        <ele>1057.1</ele>
        <time>2022-08-15T07:43:27Z</time>
      </trkpt>
      <trkpt lat="42.1521250" lon="-2.1551070">
        <ele>1054.2</ele>
        <time>2022-08-15T07:43:29Z</time>
      </trkpt>
      <trkpt lat="42.1521660" lon="-2.1552010">
        <ele>1052.9</ele>
        <time>2022-08-15T07:43:30Z</time>
      </trkpt>
      <trkpt lat="42.1522470" lon="-2.1553840">
        <ele>1050.4</ele>
        <time>2022-08-15T07:43:32Z</time>
      </trkpt>
      <trkpt lat="42.1523350" lon="-2.1555640">
        <ele>1048.1</ele>
        <time>2022-08-15T07:43:34Z</time>
      </trkpt>
      <trkpt lat="42.1524290" lon="-2.1557360">
        <ele>1046.2</ele>
        <time>2022-08-15T07:43:36Z</time>
      </trkpt>
      <trkpt lat="42.1524780" lon="-2.1558150">
        <ele>1045.4</ele>
        <time>2022-08-15T07:43:37Z</time>
      </trkpt>
      <trkpt lat="42.1525320" lon="-2.1558930">
        <ele>1044.6</ele>
        <time>2022-08-15T07:43:38Z</time>
      </trkpt>
      <trkpt lat="42.1525880" lon="-2.1559710">
        <ele>1043.9</ele>
        <time>2022-08-15T07:43:39Z</time>
      </trkpt>
      <trkpt lat="42.1526450" lon="-2.1560500">
        <ele>1043.1</ele>
        <time>2022-08-15T07:43:40Z</time>
      </trkpt>
      <trkpt lat="42.1527020" lon="-2.1561250">
        <ele>1042.4</ele>
        <time>2022-08-15T07:43:41Z</time>
      </trkpt>
      <trkpt lat="42.1527560" lon="-2.1561970">
        <ele>1041.7</ele>
        <time>2022-08-15T07:43:42Z</time>
      </trkpt>
      <trkpt lat="42.1528620" lon="-2.1563400">
        <ele>1040.4</ele>
        <time>2022-08-15T07:43:44Z</time>
      </trkpt>
      <trkpt lat="42.1529170" lon="-2.1564060">
        <ele>1039.8</ele>
        <time>2022-08-15T07:43:45Z</time>
      </trkpt>
      <trkpt lat="42.1530340" lon="-2.1565340">
        <ele>1038.5</ele>
        <time>2022-08-15T07:43:47Z</time>
      </trkpt>
      <trkpt lat="42.1531680" lon="-2.1566480">
        <ele>1037.2</ele>
        <time>2022-08-15T07:43:49Z</time>
      </trkpt>
      <trkpt lat="42.1532400" lon="-2.1567030">
        <ele>1036.7</ele>
        <time>2022-08-15T07:43:51Z</time>
      </trkpt>
      <trkpt lat="42.1533840" lon="-2.1568020">
        <ele>1035.5</ele>
        <time>2022-08-15T07:43:52Z</time>
      </trkpt>
      <trkpt lat="42.1534990" lon="-2.1568740">
        <ele>1034.6</ele>
        <time>2022-08-15T07:43:54Z</time>
      </trkpt>
      <trkpt lat="42.1535740" lon="-2.1569130">
        <ele>1034.1</ele>
        <time>2022-08-15T07:43:55Z</time>
      </trkpt>
      <trkpt lat="42.1536830" lon="-2.1569610">
        <ele>1033.2</ele>
        <time>2022-08-15T07:43:56Z</time>
      </trkpt>
      <trkpt lat="42.1537630" lon="-2.1569890">
        <ele>1032.6</ele>
        <time>2022-08-15T07:43:57Z</time>
      </trkpt>
      <trkpt lat="42.1538440" lon="-2.1570170">
        <ele>1032.0</ele>
        <time>2022-08-15T07:43:58Z</time>
      </trkpt>
      <trkpt lat="42.1540090" lon="-2.1570720">
        <ele>1030.5</ele>
        <time>2022-08-15T07:44:00Z</time>
      </trkpt>
      <trkpt lat="42.1542670" lon="-2.1571540">
        <ele>1028.0</ele>
        <time>2022-08-15T07:44:03Z</time>
      </trkpt>
      <trkpt lat="42.1543550" lon="-2.1571790">
        <ele>1027.1</ele>
        <time>2022-08-15T07:44:04Z</time>
      </trkpt>
      <trkpt lat="42.1544420" lon="-2.1572040">
        <ele>1026.3</ele>
        <time>2022-08-15T07:44:05Z</time>
      </trkpt>
      <trkpt lat="42.1545290" lon="-2.1572280">
        <ele>1025.6</ele>
        <time>2022-08-15T07:44:06Z</time>
      </trkpt>
      <trkpt lat="42.1546150" lon="-2.1572530">
        <ele>1024.9</ele>
        <time>2022-08-15T07:44:07Z</time>
      </trkpt>
      <trkpt lat="42.1547870" lon="-2.1573030">
        <ele>1023.8</ele>
        <time>2022-08-15T07:44:09Z</time>
      </trkpt>
      <trkpt lat="42.1549580" lon="-2.1573460">
        <ele>1023.0</ele>
        <time>2022-08-15T07:44:11Z</time>
      </trkpt>
      <trkpt lat="42.1551280" lon="-2.1573830">
        <ele>1022.6</ele>
        <time>2022-08-15T07:44:13Z</time>
      </trkpt>
      <trkpt lat="42.1552900" lon="-2.1574010">
        <ele>1022.4</ele>
        <time>2022-08-15T07:44:15Z</time>
      </trkpt>
      <trkpt lat="42.1554440" lon="-2.1574150">
        <ele>1022.5</ele>
        <time>2022-08-15T07:44:17Z</time>
      </trkpt>
      <trkpt lat="42.1555920" lon="-2.1574310">
        <ele>1023.1</ele>
        <time>2022-08-15T07:44:19Z</time>
      </trkpt>
      <trkpt lat="42.1556570" lon="-2.1574420">
        <ele>1023.5</ele>
        <time>2022-08-15T07:44:20Z</time>
      </trkpt>
      <trkpt lat="42.1557170" lon="-2.1574530">
        <ele>1023.9</ele>
        <time>2022-08-15T07:44:21Z</time>
      </trkpt>
      <trkpt lat="42.1559090" lon="-2.1575020">
        <ele>1025.3</ele>
        <time>2022-08-15T07:44:25Z</time>
      </trkpt>
      <trkpt lat="42.1559460" lon="-2.1575090">
        <ele>1025.6</ele>
        <time>2022-08-15T07:44:26Z</time>
      </trkpt>
      <trkpt lat="42.1560500" lon="-2.1575240">
        <ele>1026.4</ele>
        <time>2022-08-15T07:44:29Z</time>
      </trkpt>
      <trkpt lat="42.1560780" lon="-2.1575270">
        <ele>1026.6</ele>
        <time>2022-08-15T07:44:30Z</time>
      </trkpt>
      <trkpt lat="42.1561310" lon="-2.1575380">
        <ele>1027.0</ele>
        <time>2022-08-15T07:44:32Z</time>
      </trkpt>
      <trkpt lat="42.1562350" lon="-2.1575530">
        <ele>1027.7</ele>
        <time>2022-08-15T07:44:36Z</time>
      </trkpt>
      <trkpt lat="42.1562860" lon="-2.1575640">
        <ele>1028.0</ele>
        <time>2022-08-15T07:44:38Z</time>
      </trkpt>
      <trkpt lat="42.1563600" lon="-2.1575710">
        <ele>1028.3</ele>
        <time>2022-08-15T07:44:41Z</time>
      </trkpt>
      <trkpt lat="42.1564670" lon="-2.1575710">
        <ele>1028.7</ele>
        <time>2022-08-15T07:44:45Z</time>
      </trkpt>
      <trkpt lat="42.1565220" lon="-2.1575670">
        <ele>1028.8</ele>
        <time>2022-08-15T07:44:47Z</time>
      </trkpt>
      <trkpt lat="42.1567100" lon="-2.1575080">
        <ele>1029.0</ele>
        <time>2022-08-15T07:44:54Z</time>
      </trkpt>
      <trkpt lat="42.1569120" lon="-2.1574190">
        <ele>1028.9</ele>
        <time>2022-08-15T07:45:02Z</time>
      </trkpt>
      <trkpt lat="42.1569920" lon="-2.1573770">
        <ele>1028.9</ele>
        <time>2022-08-15T07:45:05Z</time>
      </trkpt>
      <trkpt lat="42.1570180" lon="-2.1573580">
        <ele>1028.9</ele>
        <time>2022-08-15T07:45:06Z</time>
      </trkpt>
      <trkpt lat="42.1570430" lon="-2.1573410">
        <ele>1028.9</ele>
        <time>2022-08-15T07:45:07Z</time>
      </trkpt>
      <trkpt lat="42.1571430" lon="-2.1572720">
        <ele>1028.8</ele>
        <time>2022-08-15T07:45:11Z</time>
      </trkpt>
      <trkpt lat="42.1572550" lon="-2.1571920">
        <ele>1028.7</ele>
        <time>2022-08-15T07:45:16Z</time>
      </trkpt>
      <trkpt lat="42.1573140" lon="-2.1571510">
        <ele>1028.6</ele>
        <time>2022-08-15T07:45:18Z</time>
      </trkpt>
      <trkpt lat="42.1575010" lon="-2.1570250">
        <ele>1028.5</ele>
        <time>2022-08-15T07:45:25Z</time>
      </trkpt>
      <trkpt lat="42.1575900" lon="-2.1569780">
        <ele>1028.4</ele>
        <time>2022-08-15T07:45:28Z</time>
      </trkpt>
      <trkpt lat="42.1577440" lon="-2.1569230">
        <ele>1028.3</ele>
        <time>2022-08-15T07:45:33Z</time>
      </trkpt>
      <trkpt lat="42.1578410" lon="-2.1568920">
        <ele>1028.2</ele>
        <time>2022-08-15T07:45:36Z</time>
      </trkpt>
      <trkpt lat="42.1578710" lon="-2.1568820">
        <ele>1028.2</ele>
        <time>2022-08-15T07:45:37Z</time>
      </trkpt>
      <trkpt lat="42.1579950" lon="-2.1568450">
        <ele>1028.1</ele>
        <time>2022-08-15T07:45:41Z</time>
      </trkpt>
      <trkpt lat="42.1580610" lon="-2.1568220">
        <ele>1028.0</ele>
        <time>2022-08-15T07:45:43Z</time>
      </trkpt>
      <trkpt lat="42.1581640" lon="-2.1567930">
        <ele>1027.9</ele>
        <time>2022-08-15T07:45:46Z</time>
      </trkpt>
      <trkpt lat="42.1583830" lon="-2.1567540">
        <ele>1027.4</ele>
        <time>2022-08-15T07:45:52Z</time>
      </trkpt>
      <trkpt lat="42.1584210" lon="-2.1567560">
        <ele>1027.4</ele>
        <time>2022-08-15T07:45:53Z</time>
      </trkpt>
      <trkpt lat="42.1584590" lon="-2.1567630">
        <ele>1027.3</ele>
        <time>2022-08-15T07:45:54Z</time>
      </trkpt>
      <trkpt lat="42.1586070" lon="-2.1568330">
        <ele>1027.0</ele>
        <time>2022-08-15T07:45:58Z</time>
      </trkpt>
      <trkpt lat="42.1586410" lon="-2.1568640">
        <ele>1026.9</ele>
        <time>2022-08-15T07:45:59Z</time>
      </trkpt>
      <trkpt lat="42.1586690" lon="-2.1569040">
        <ele>1026.7</ele>
        <time>2022-08-15T07:46:00Z</time>
      </trkpt>
      <trkpt lat="42.1586960" lon="-2.1570070">
        <ele>1026.5</ele>
        <time>2022-08-15T07:46:02Z</time>
      </trkpt>
      <trkpt lat="42.1586920" lon="-2.1570620">
        <ele>1026.3</ele>
        <time>2022-08-15T07:46:03Z</time>
      </trkpt>
      <trkpt lat="42.1586450" lon="-2.1572120">
        <ele>1025.7</ele>
        <time>2022-08-15T07:46:06Z</time>
      </trkpt>
      <trkpt lat="42.1586040" lon="-2.1573120">
        <ele>1025.3</ele>
        <time>2022-08-15T07:46:08Z</time>
      </trkpt>
      <trkpt lat="42.1585860" lon="-2.1573640">
        <ele>1025.0</ele>
        <time>2022-08-15T07:46:09Z</time>
      </trkpt>
      <trkpt lat="42.1585210" lon="-2.1575270">
        <ele>1024.0</ele>
        <time>2022-08-15T07:46:12Z</time>
      </trkpt>
      <trkpt lat="42.1584910" lon="-2.1575800">
        <ele>1023.6</ele>
        <time>2022-08-15T07:46:14Z</time>
      </trkpt>
      <trkpt lat="42.1584520" lon="-2.1576410">
        <ele>1023.0</ele>
        <time>2022-08-15T07:46:15Z</time>
      </trkpt>
      <trkpt lat="42.1584060" lon="-2.1577060">
        <ele>1022.4</ele>
        <time>2022-08-15T07:46:16Z</time>
      </trkpt>
      <trkpt lat="42.1583740" lon="-2.1577580">
        <ele>1021.9</ele>
        <time>2022-08-15T07:46:17Z</time>
      </trkpt>
      <trkpt lat="42.1583340" lon="-2.1578430">
        <ele>1021.2</ele>
        <time>2022-08-15T07:46:18Z</time>
      </trkpt>
      <trkpt lat="42.1582910" lon="-2.1579840">
        <ele>1020.2</ele>
        <time>2022-08-15T07:46:20Z</time>
      </trkpt>
      <trkpt lat="42.1582480" lon="-2.1581350">
        <ele>1019.1</ele>
        <time>2022-08-15T07:46:22Z</time>
      </trkpt>
      <trkpt lat="42.1581970" lon="-2.1582770">
        <ele>1018.1</ele>
        <time>2022-08-15T07:46:24Z</time>
      </trkpt>
      <trkpt lat="42.1581710" lon="-2.1583520">
        <ele>1017.5</ele>
        <time>2022-08-15T07:46:25Z</time>
      </trkpt>
      <trkpt lat="42.1581480" lon="-2.1584270">
        <ele>1016.9</ele>
        <time>2022-08-15T07:46:26Z</time>
      </trkpt>
      <trkpt lat="42.1581320" lon="-2.1584970">
        <ele>1016.4</ele>
        <time>2022-08-15T07:46:27Z</time>
      </trkpt>
      <trkpt lat="42.1581200" lon="-2.1585690">
        <ele>1015.9</ele>
        <time>2022-08-15T07:46:28Z</time>
      </trkpt>
      <trkpt lat="42.1581160" lon="-2.1586380">
        <ele>1015.4</ele>
        <time>2022-08-15T07:46:29Z</time>
      </trkpt>
      <trkpt lat="42.1581220" lon="-2.1587070">
        <ele>1014.9</ele>
        <time>2022-08-15T07:46:30Z</time>
      </trkpt>
      <trkpt lat="42.1581450" lon="-2.1587710">
        <ele>1014.3</ele>
        <time>2022-08-15T07:46:31Z</time>
      </trkpt>
      <trkpt lat="42.1582240" lon="-2.1589010">
        <ele>1013.0</ele>
        <time>2022-08-15T07:46:33Z</time>
      </trkpt>
      <trkpt lat="42.1583210" lon="-2.1590560">
        <ele>1011.4</ele>
        <time>2022-08-15T07:46:35Z</time>
      </trkpt>
      <trkpt lat="42.1583680" lon="-2.1591430">
        <ele>1010.6</ele>
        <time>2022-08-15T07:46:36Z</time>
      </trkpt>
      <trkpt lat="42.1584120" lon="-2.1592270">
        <ele>1009.8</ele>
        <time>2022-08-15T07:46:37Z</time>
      </trkpt>
      <trkpt lat="42.1584480" lon="-2.1592980">
        <ele>1009.0</ele>
        <time>2022-08-15T07:46:38Z</time>
      </trkpt>
      <trkpt lat="42.1584790" lon="-2.1593520">
        <ele>1008.5</ele>
        <time>2022-08-15T07:46:39Z</time>
      </trkpt>
      <trkpt lat="42.1585100" lon="-2.1593950">
        <ele>1007.9</ele>
        <time>2022-08-15T07:46:40Z</time>
      </trkpt>
      <trkpt lat="42.1585440" lon="-2.1594320">
        <ele>1007.4</ele>
        <time>2022-08-15T07:46:41Z</time>
      </trkpt>
      <trkpt lat="42.1585730" lon="-2.1594630">
        <ele>1007.0</ele>
        <time>2022-08-15T07:46:42Z</time>
      </trkpt>
      <trkpt lat="42.1586240" lon="-2.1595430">
        <ele>1006.1</ele>
        <time>2022-08-15T07:46:45Z</time>
      </trkpt>
      <trkpt lat="42.1586250" lon="-2.1595660">
        <ele>1005.9</ele>
        <time>2022-08-15T07:46:46Z</time>
      </trkpt>
      <trkpt lat="42.1586170" lon="-2.1595850">
        <ele>1005.7</ele>
        <time>2022-08-15T07:46:47Z</time>
      </trkpt>
      <trkpt lat="42.1586050" lon="-2.1596030">
        <ele>1005.5</ele>
        <time>2022-08-15T07:46:48Z</time>
      </trkpt>
      <trkpt lat="42.1585930" lon="-2.1596160">
        <ele>1005.4</ele>
        <time>2022-08-15T07:46:49Z</time>
      </trkpt>
      <trkpt lat="42.1585770" lon="-2.1596200">
        <ele>1005.2</ele>
        <time>2022-08-15T07:46:50Z</time>
      </trkpt>
      <trkpt lat="42.1585420" lon="-2.1596000">
        <ele>1004.8</ele>
        <time>2022-08-15T07:46:52Z</time>
      </trkpt>
      <trkpt lat="42.1585210" lon="-2.1595840">
        <ele>1004.5</ele>
        <time>2022-08-15T07:46:53Z</time>
      </trkpt>
      <trkpt lat="42.1584120" lon="-2.1594560">
        <ele>1003.1</ele>
        <time>2022-08-15T07:46:57Z</time>
      </trkpt>
      <trkpt lat="42.1583420" lon="-2.1593870">
        <ele>1002.4</ele>
        <time>2022-08-15T07:46:59Z</time>
      </trkpt>
      <trkpt lat="42.1582170" lon="-2.1592960">
        <ele>1001.2</ele>
        <time>2022-08-15T07:47:02Z</time>
      </trkpt>
      <trkpt lat="42.1581760" lon="-2.1592720">
        <ele>1000.9</ele>
        <time>2022-08-15T07:47:03Z</time>
      </trkpt>
      <trkpt lat="42.1581380" lon="-2.1592500">
        <ele>1000.5</ele>
        <time>2022-08-15T07:47:04Z</time>
      </trkpt>
      <trkpt lat="42.1580670" lon="-2.1592080">
        <ele>999.7</ele>
        <time>2022-08-15T07:47:06Z</time>
      </trkpt>
      <trkpt lat="42.1580010" lon="-2.1591660">
        <ele>999.0</ele>
        <time>2022-08-15T07:47:08Z</time>
      </trkpt>
      <trkpt lat="42.1580010" lon="-2.1591660">
        <ele>999.0</ele>
        <time>2022-08-15T07:47:09Z</time>
      </trkpt>
      <trkpt lat="42.1579420" lon="-2.1591230">
        <ele>998.3</ele>
        <time>2022-08-15T07:47:10Z</time>
      </trkpt>
      <trkpt lat="42.1579140" lon="-2.1590960">
        <ele>997.9</ele>
        <time>2022-08-15T07:47:11Z</time>
      </trkpt>
      <trkpt lat="42.1578620" lon="-2.1590360">
        <ele>997.2</ele>
        <time>2022-08-15T07:47:13Z</time>
      </trkpt>
      <trkpt lat="42.1578090" lon="-2.1589830">
        <ele>996.6</ele>
        <time>2022-08-15T07:47:15Z</time>
      </trkpt>
      <trkpt lat="42.1577580" lon="-2.1589490">
        <ele>996.0</ele>
        <time>2022-08-15T07:47:17Z</time>
      </trkpt>
      <trkpt lat="42.1577330" lon="-2.1589510">
        <ele>995.7</ele>
        <time>2022-08-15T07:47:18Z</time>
      </trkpt>
      <trkpt lat="42.1576930" lon="-2.1589850">
        <ele>995.3</ele>
        <time>2022-08-15T07:47:20Z</time>
      </trkpt>
      <trkpt lat="42.1576810" lon="-2.1590090">
        <ele>995.1</ele>
        <time>2022-08-15T07:47:21Z</time>
      </trkpt>
      <trkpt lat="42.1576760" lon="-2.1590340">
        <ele>994.9</ele>
        <time>2022-08-15T07:47:22Z</time>
      </trkpt>
      <trkpt lat="42.1576790" lon="-2.1590650">
        <ele>994.6</ele>
        <time>2022-08-15T07:47:23Z</time>
      </trkpt>
      <trkpt lat="42.1576860" lon="-2.1591000">
        <ele>994.4</ele>
        <time>2022-08-15T07:47:24Z</time>
      </trkpt>
      <trkpt lat="42.1576970" lon="-2.1591400">
        <ele>994.0</ele>
        <time>2022-08-15T07:47:25Z</time>
      </trkpt>
      <trkpt lat="42.1577310" lon="-2.1592270">
        <ele>993.3</ele>
        <time>2022-08-15T07:47:27Z</time>
      </trkpt>
      <trkpt lat="42.1578320" lon="-2.1594100">
        <ele>991.6</ele>
        <time>2022-08-15T07:47:31Z</time>
      </trkpt>
      <trkpt lat="42.1578610" lon="-2.1594560">
        <ele>991.2</ele>
        <time>2022-08-15T07:47:32Z</time>
      </trkpt>
      <trkpt lat="42.1578930" lon="-2.1594970">
        <ele>990.7</ele>
        <time>2022-08-15T07:47:33Z</time>
      </trkpt>
      <trkpt lat="42.1579970" lon="-2.1596000">
        <ele>989.4</ele>
        <time>2022-08-15T07:47:36Z</time>
      </trkpt>
      <trkpt lat="42.1580330" lon="-2.1596320">
        <ele>988.9</ele>
        <time>2022-08-15T07:47:37Z</time>
      </trkpt>
      <trkpt lat="42.1581030" lon="-2.1596960">
        <ele>988.0</ele>
        <time>2022-08-15T07:47:39Z</time>
      </trkpt>
      <trkpt lat="42.1581720" lon="-2.1597710">
        <ele>987.1</ele>
        <time>2022-08-15T07:47:41Z</time>
      </trkpt>
      <trkpt lat="42.1582030" lon="-2.1598160">
        <ele>986.7</ele>
        <time>2022-08-15T07:47:42Z</time>
      </trkpt>
      <trkpt lat="42.1582600" lon="-2.1599190">
        <ele>985.7</ele>
        <time>2022-08-15T07:47:44Z</time>
      </trkpt>
      <trkpt lat="42.1583020" lon="-2.1600010">
        <ele>985.0</ele>
        <time>2022-08-15T07:47:46Z</time>
      </trkpt>
      <trkpt lat="42.1583660" lon="-2.1601240">
        <ele>983.8</ele>
        <time>2022-08-15T07:47:48Z</time>
      </trkpt>
      <trkpt lat="42.1583970" lon="-2.1601700">
        <ele>983.3</ele>
        <time>2022-08-15T07:47:49Z</time>
      </trkpt>
      <trkpt lat="42.1584300" lon="-2.1602110">
        <ele>982.7</ele>
        <time>2022-08-15T07:47:50Z</time>
      </trkpt>
      <trkpt lat="42.1584670" lon="-2.1602470">
        <ele>982.2</ele>
        <time>2022-08-15T07:47:51Z</time>
      </trkpt>
      <trkpt lat="42.1585590" lon="-2.1603180">
        <ele>981.0</ele>
        <time>2022-08-15T07:47:53Z</time>
      </trkpt>
      <trkpt lat="42.1586610" lon="-2.1603700">
        <ele>979.7</ele>
        <time>2022-08-15T07:47:55Z</time>
      </trkpt>
      <trkpt lat="42.1587100" lon="-2.1603900">
        <ele>979.2</ele>
        <time>2022-08-15T07:47:56Z</time>
      </trkpt>
      <trkpt lat="42.1587600" lon="-2.1604040">
        <ele>978.6</ele>
        <time>2022-08-15T07:47:57Z</time>
      </trkpt>
      <trkpt lat="42.1588610" lon="-2.1604250">
        <ele>977.4</ele>
        <time>2022-08-15T07:47:59Z</time>
      </trkpt>
      <trkpt lat="42.1589080" lon="-2.1604390">
        <ele>976.9</ele>
        <time>2022-08-15T07:48:00Z</time>
      </trkpt>
      <trkpt lat="42.1589510" lon="-2.1604640">
        <ele>976.5</ele>
        <time>2022-08-15T07:48:01Z</time>
      </trkpt>
      <trkpt lat="42.1589920" lon="-2.1605030">
        <ele>976.0</ele>
        <time>2022-08-15T07:48:02Z</time>
      </trkpt>
      <trkpt lat="42.1590580" lon="-2.1606200">
        <ele>974.9</ele>
        <time>2022-08-15T07:48:04Z</time>
      </trkpt>
      <trkpt lat="42.1591160" lon="-2.1607220">
        <ele>973.8</ele>
        <time>2022-08-15T07:48:06Z</time>
      </trkpt>
      <trkpt lat="42.1591590" lon="-2.1607580">
        <ele>973.1</ele>
        <time>2022-08-15T07:48:07Z</time>
      </trkpt>
      <trkpt lat="42.1592080" lon="-2.1607880">
        <ele>972.4</ele>
        <time>2022-08-15T07:48:08Z</time>
      </trkpt>
      <trkpt lat="42.1592630" lon="-2.1608080">
        <ele>971.6</ele>
        <time>2022-08-15T07:48:09Z</time>
      </trkpt>
      <trkpt lat="42.1593210" lon="-2.1608200">
        <ele>970.8</ele>
        <time>2022-08-15T07:48:10Z</time>
      </trkpt>
      <trkpt lat="42.1593810" lon="-2.1608250">
        <ele>970.0</ele>
        <time>2022-08-15T07:48:11Z</time>
      </trkpt>
      <trkpt lat="42.1594990" lon="-2.1608190">
        <ele>968.4</ele>
        <time>2022-08-15T07:48:13Z</time>
      </trkpt>
      <trkpt lat="42.1596190" lon="-2.1608060">
        <ele>967.0</ele>
        <time>2022-08-15T07:48:15Z</time>
      </trkpt>
      <trkpt lat="42.1596780" lon="-2.1608100">
        <ele>966.4</ele>
        <time>2022-08-15T07:48:16Z</time>
      </trkpt>
      <trkpt lat="42.1597920" lon="-2.1608540">
        <ele>965.3</ele>
        <time>2022-08-15T07:48:18Z</time>
      </trkpt>
      <trkpt lat="42.1598490" lon="-2.1608940">
        <ele>964.8</ele>
        <time>2022-08-15T07:48:19Z</time>
      </trkpt>
      <trkpt lat="42.1599050" lon="-2.1609460">
        <ele>964.3</ele>
        <time>2022-08-15T07:48:20Z</time>
      </trkpt>
      <trkpt lat="42.1600120" lon="-2.1610880">
        <ele>963.4</ele>
        <time>2022-08-15T07:48:22Z</time>
      </trkpt>
      <trkpt lat="42.1600620" lon="-2.1611710">
        <ele>962.9</ele>
        <time>2022-08-15T07:48:23Z</time>
      </trkpt>
      <trkpt lat="42.1601090" lon="-2.1612590">
        <ele>962.5</ele>
        <time>2022-08-15T07:48:24Z</time>
      </trkpt>
      <trkpt lat="42.1602030" lon="-2.1614350">
        <ele>961.6</ele>
        <time>2022-08-15T07:48:26Z</time>
      </trkpt>
      <trkpt lat="42.1603040" lon="-2.1616150">
        <ele>960.8</ele>
        <time>2022-08-15T07:48:28Z</time>
      </trkpt>
      <trkpt lat="42.1603570" lon="-2.1617050">
        <ele>960.5</ele>
        <time>2022-08-15T07:48:29Z</time>
      </trkpt>
      <trkpt lat="42.1604110" lon="-2.1617960">
        <ele>960.3</ele>
        <time>2022-08-15T07:48:30Z</time>
      </trkpt>
      <trkpt lat="42.1605220" lon="-2.1619740">
        <ele>959.9</ele>
        <time>2022-08-15T07:48:32Z</time>
      </trkpt>
      <trkpt lat="42.1606290" lon="-2.1621480">
        <ele>959.6</ele>
        <time>2022-08-15T07:48:34Z</time>
      </trkpt>
      <trkpt lat="42.1606840" lon="-2.1622330">
        <ele>959.5</ele>
        <time>2022-08-15T07:48:35Z</time>
      </trkpt>
      <trkpt lat="42.1608470" lon="-2.1624840">
        <ele>958.9</ele>
        <time>2022-08-15T07:48:38Z</time>
      </trkpt>
      <trkpt lat="42.1609550" lon="-2.1626270">
        <ele>958.6</ele>
        <time>2022-08-15T07:48:40Z</time>
      </trkpt>
      <trkpt lat="42.1610110" lon="-2.1626830">
        <ele>958.5</ele>
        <time>2022-08-15T07:48:41Z</time>
      </trkpt>
      <trkpt lat="42.1610700" lon="-2.1627250">
        <ele>958.3</ele>
        <time>2022-08-15T07:48:42Z</time>
      </trkpt>
      <trkpt lat="42.1611310" lon="-2.1627520">
        <ele>958.2</ele>
        <time>2022-08-15T07:48:43Z</time>
      </trkpt>
      <trkpt lat="42.1611940" lon="-2.1627610">
        <ele>958.1</ele>
        <time>2022-08-15T07:48:44Z</time>
      </trkpt>
      <trkpt lat="42.1612550" lon="-2.1627520">
        <ele>957.9</ele>
        <time>2022-08-15T07:48:45Z</time>
      </trkpt>
      <trkpt lat="42.1614310" lon="-2.1627040">
        <ele>957.4</ele>
        <time>2022-08-15T07:48:48Z</time>
      </trkpt>
      <trkpt lat="42.1614930" lon="-2.1626830">
        <ele>957.2</ele>
        <time>2022-08-15T07:48:49Z</time>
      </trkpt>
      <trkpt lat="42.1615560" lon="-2.1626630">
        <ele>957.1</ele>
        <time>2022-08-15T07:48:50Z</time>
      </trkpt>
      <trkpt lat="42.1616830" lon="-2.1626340">
        <ele>956.7</ele>
        <time>2022-08-15T07:48:52Z</time>
      </trkpt>
      <trkpt lat="42.1618730" lon="-2.1626210">
        <ele>956.3</ele>
        <time>2022-08-15T07:48:55Z</time>
      </trkpt>
      <trkpt lat="42.1619880" lon="-2.1626440">
        <ele>956.1</ele>
        <time>2022-08-15T07:48:57Z</time>
      </trkpt>
      <trkpt lat="42.1620270" lon="-2.1626690">
        <ele>956.1</ele>
        <time>2022-08-15T07:48:58Z</time>
      </trkpt>
      <trkpt lat="42.1620800" lon="-2.1627230">
        <ele>956.0</ele>
        <time>2022-08-15T07:48:59Z</time>
      </trkpt>
      <trkpt lat="42.1621240" lon="-2.1628450">
        <ele>955.9</ele>
        <time>2022-08-15T07:49:01Z</time>
      </trkpt>
      <trkpt lat="42.1621270" lon="-2.1629600">
        <ele>955.8</ele>
        <time>2022-08-15T07:49:03Z</time>
      </trkpt>
      <trkpt lat="42.1621210" lon="-2.1630390">
        <ele>955.7</ele>
        <time>2022-08-15T07:49:04Z</time>
      </trkpt>
      <trkpt lat="42.1621120" lon="-2.1631070">
        <ele>955.6</ele>
        <time>2022-08-15T07:49:05Z</time>
      </trkpt>
      <trkpt lat="42.1621030" lon="-2.1631760">
        <ele>955.5</ele>
        <time>2022-08-15T07:49:06Z</time>
      </trkpt>
      <trkpt lat="42.1620910" lon="-2.1632470">
        <ele>955.3</ele>
        <time>2022-08-15T07:49:07Z</time>
      </trkpt>
      <trkpt lat="42.1620770" lon="-2.1633190">
        <ele>955.1</ele>
        <time>2022-08-15T07:49:08Z</time>
      </trkpt>
      <trkpt lat="42.1620590" lon="-2.1633930">
        <ele>954.9</ele>
        <time>2022-08-15T07:49:09Z</time>
      </trkpt>
      <trkpt lat="42.1620150" lon="-2.1635200">
        <ele>954.5</ele>
        <time>2022-08-15T07:49:11Z</time>
      </trkpt>
      <trkpt lat="42.1619650" lon="-2.1636660">
        <ele>954.0</ele>
        <time>2022-08-15T07:49:13Z</time>
      </trkpt>
      <trkpt lat="42.1619360" lon="-2.1637600">
        <ele>953.6</ele>
        <time>2022-08-15T07:49:14Z</time>
      </trkpt>
      <trkpt lat="42.1618530" lon="-2.1640900">
        <ele>952.7</ele>
        <time>2022-08-15T07:49:18Z</time>
      </trkpt>
      <trkpt lat="42.1617690" lon="-2.1643820">
        <ele>952.0</ele>
        <time>2022-08-15T07:49:21Z</time>
      </trkpt>
      <trkpt lat="42.1617410" lon="-2.1644710">
        <ele>951.9</ele>
        <time>2022-08-15T07:49:22Z</time>
      </trkpt>
      <trkpt lat="42.1617160" lon="-2.1645580">
        <ele>951.8</ele>
        <time>2022-08-15T07:49:23Z</time>
      </trkpt>
      <trkpt lat="42.1616940" lon="-2.1646450">
        <ele>951.7</ele>
        <time>2022-08-15T07:49:24Z</time>
      </trkpt>
      <trkpt lat="42.1616750" lon="-2.1648240">
        <ele>951.6</ele>
        <time>2022-08-15T07:49:26Z</time>
      </trkpt>
      <trkpt lat="42.1616920" lon="-2.1649990">
        <ele>951.5</ele>
        <time>2022-08-15T07:49:28Z</time>
      </trkpt>
      <trkpt lat="42.1617390" lon="-2.1651500">
        <ele>951.5</ele>
        <time>2022-08-15T07:49:30Z</time>
      </trkpt>
      <trkpt lat="42.1617760" lon="-2.1652100">
        <ele>951.5</ele>
        <time>2022-08-15T07:49:31Z</time>
      </trkpt>
      <trkpt lat="42.1618180" lon="-2.1652520">
        <ele>951.5</ele>
        <time>2022-08-15T07:49:32Z</time>
      </trkpt>
      <trkpt lat="42.1618640" lon="-2.1652690">
        <ele>951.5</ele>
        <time>2022-08-15T07:49:33Z</time>
      </trkpt>
      <trkpt lat="42.1619140" lon="-2.1652580">
        <ele>951.5</ele>
        <time>2022-08-15T07:49:34Z</time>
      </trkpt>
      <trkpt lat="42.1620130" lon="-2.1652050">
        <ele>951.4</ele>
        <time>2022-08-15T07:49:36Z</time>
      </trkpt>
      <trkpt lat="42.1620620" lon="-2.1651690">
        <ele>951.4</ele>
        <time>2022-08-15T07:49:37Z</time>
      </trkpt>
      <trkpt lat="42.1621080" lon="-2.1651300">
        <ele>951.3</ele>
        <time>2022-08-15T07:49:38Z</time>
      </trkpt>
      <trkpt lat="42.1621520" lon="-2.1650910">
        <ele>951.2</ele>
        <time>2022-08-15T07:49:39Z</time>
      </trkpt>
      <trkpt lat="42.1622350" lon="-2.1650190">
        <ele>951.0</ele>
        <time>2022-08-15T07:49:41Z</time>
      </trkpt>
      <trkpt lat="42.1622750" lon="-2.1649890">
        <ele>950.9</ele>
        <time>2022-08-15T07:49:42Z</time>
      </trkpt>
      <trkpt lat="42.1623550" lon="-2.1649580">
        <ele>950.7</ele>
        <time>2022-08-15T07:49:44Z</time>
      </trkpt>
      <trkpt lat="42.1623970" lon="-2.1649600">
        <ele>950.5</ele>
        <time>2022-08-15T07:49:45Z</time>
      </trkpt>
      <trkpt lat="42.1624370" lon="-2.1649760">
        <ele>950.3</ele>
        <time>2022-08-15T07:49:46Z</time>
      </trkpt>
      <trkpt lat="42.1624730" lon="-2.1650080">
        <ele>950.1</ele>
        <time>2022-08-15T07:49:47Z</time>
      </trkpt>
      <trkpt lat="42.1625030" lon="-2.1650540">
        <ele>949.9</ele>
        <time>2022-08-15T07:49:48Z</time>
      </trkpt>
      <trkpt lat="42.1625260" lon="-2.1651080">
        <ele>949.7</ele>
        <time>2022-08-15T07:49:49Z</time>
      </trkpt>
      <trkpt lat="42.1625580" lon="-2.1652200">
        <ele>949.2</ele>
        <time>2022-08-15T07:49:51Z</time>
      </trkpt>
      <trkpt lat="42.1625680" lon="-2.1653560">
        <ele>948.6</ele>
        <time>2022-08-15T07:49:53Z</time>
      </trkpt>
      <trkpt lat="42.1625600" lon="-2.1655140">
        <ele>947.7</ele>
        <time>2022-08-15T07:49:55Z</time>
      </trkpt>
      <trkpt lat="42.1625560" lon="-2.1655880">
        <ele>947.3</ele>
        <time>2022-08-15T07:49:56Z</time>
      </trkpt>
      <trkpt lat="42.1625400" lon="-2.1658180">
        <ele>945.9</ele>
        <time>2022-08-15T07:49:59Z</time>
      </trkpt>
      <trkpt lat="42.1625330" lon="-2.1659240">
        <ele>945.2</ele>
        <time>2022-08-15T07:50:00Z</time>
      </trkpt>
      <trkpt lat="42.1625280" lon="-2.1660150">
        <ele>944.7</ele>
        <time>2022-08-15T07:50:01Z</time>
      </trkpt>
      <trkpt lat="42.1624970" lon="-2.1663050">
        <ele>943.0</ele>
        <time>2022-08-15T07:50:04Z</time>
      </trkpt>
      <trkpt lat="42.1624570" lon="-2.1664970">
        <ele>941.7</ele>
        <time>2022-08-15T07:50:06Z</time>
      </trkpt>
      <trkpt lat="42.1624380" lon="-2.1666780">
        <ele>940.3</ele>
        <time>2022-08-15T07:50:08Z</time>
      </trkpt>
      <trkpt lat="42.1624410" lon="-2.1667680">
        <ele>939.6</ele>
        <time>2022-08-15T07:50:09Z</time>
      </trkpt>
      <trkpt lat="42.1624510" lon="-2.1668600">
        <ele>939.0</ele>
        <time>2022-08-15T07:50:10Z</time>
      </trkpt>
      <trkpt lat="42.1624660" lon="-2.1669560">
        <ele>938.3</ele>
        <time>2022-08-15T07:50:11Z</time>
      </trkpt>
      <trkpt lat="42.1624900" lon="-2.1671590">
        <ele>937.1</ele>
        <time>2022-08-15T07:50:13Z</time>
      </trkpt>
      <trkpt lat="42.1624800" lon="-2.1673350">
        <ele>936.2</ele>
        <time>2022-08-15T07:50:15Z</time>
      </trkpt>
      <trkpt lat="42.1624580" lon="-2.1675230">
        <ele>935.0</ele>
        <time>2022-08-15T07:50:17Z</time>
      </trkpt>
      <trkpt lat="42.1624350" lon="-2.1678310">
        <ele>932.8</ele>
        <time>2022-08-15T07:50:20Z</time>
      </trkpt>
      <trkpt lat="42.1624220" lon="-2.1680000">
        <ele>931.4</ele>
        <time>2022-08-15T07:50:22Z</time>
      </trkpt>
      <trkpt lat="42.1624250" lon="-2.1681700">
        <ele>930.0</ele>
        <time>2022-08-15T07:50:24Z</time>
      </trkpt>
      <trkpt lat="42.1624350" lon="-2.1682550">
        <ele>929.2</ele>
        <time>2022-08-15T07:50:25Z</time>
      </trkpt>
      <trkpt lat="42.1624540" lon="-2.1683420">
        <ele>928.3</ele>
        <time>2022-08-15T07:50:26Z</time>
      </trkpt>
      <trkpt lat="42.1624800" lon="-2.1684340">
        <ele>927.4</ele>
        <time>2022-08-15T07:50:27Z</time>
      </trkpt>
      <trkpt lat="42.1625970" lon="-2.1687190">
        <ele>924.3</ele>
        <time>2022-08-15T07:50:30Z</time>
      </trkpt>
      <trkpt lat="42.1626850" lon="-2.1688860">
        <ele>922.5</ele>
        <time>2022-08-15T07:50:32Z</time>
      </trkpt>
      <trkpt lat="42.1627280" lon="-2.1689550">
        <ele>921.7</ele>
        <time>2022-08-15T07:50:33Z</time>
      </trkpt>
      <trkpt lat="42.1627720" lon="-2.1690120">
        <ele>921.1</ele>
        <time>2022-08-15T07:50:34Z</time>
      </trkpt>
      <trkpt lat="42.1628770" lon="-2.1690990">
        <ele>919.8</ele>
        <time>2022-08-15T07:50:36Z</time>
      </trkpt>
      <trkpt lat="42.1629760" lon="-2.1691610">
        <ele>918.7</ele>
        <time>2022-08-15T07:50:38Z</time>
      </trkpt>
      <trkpt lat="42.1630270" lon="-2.1692060">
        <ele>918.1</ele>
        <time>2022-08-15T07:50:39Z</time>
      </trkpt>
      <trkpt lat="42.1630810" lon="-2.1692710">
        <ele>917.3</ele>
        <time>2022-08-15T07:50:40Z</time>
      </trkpt>
      <trkpt lat="42.1631180" lon="-2.1693380">
        <ele>916.7</ele>
        <time>2022-08-15T07:50:41Z</time>
      </trkpt>
      <trkpt lat="42.1631450" lon="-2.1694130">
        <ele>916.1</ele>
        <time>2022-08-15T07:50:42Z</time>
      </trkpt>
      <trkpt lat="42.1631660" lon="-2.1694940">
        <ele>915.5</ele>
        <time>2022-08-15T07:50:43Z</time>
      </trkpt>
      <trkpt lat="42.1631870" lon="-2.1696530">
        <ele>914.6</ele>
        <time>2022-08-15T07:50:45Z</time>
      </trkpt>
      <trkpt lat="42.1631930" lon="-2.1697630">
        <ele>914.0</ele>
        <time>2022-08-15T07:50:46Z</time>
      </trkpt>
      <trkpt lat="42.1631910" lon="-2.1698560">
        <ele>913.6</ele>
        <time>2022-08-15T07:50:47Z</time>
      </trkpt>
      <trkpt lat="42.1631820" lon="-2.1699520">
        <ele>913.1</ele>
        <time>2022-08-15T07:50:48Z</time>
      </trkpt>
      <trkpt lat="42.1631700" lon="-2.1700450">
        <ele>912.7</ele>
        <time>2022-08-15T07:50:49Z</time>
      </trkpt>
      <trkpt lat="42.1631600" lon="-2.1702130">
        <ele>911.8</ele>
        <time>2022-08-15T07:50:51Z</time>
      </trkpt>
      <trkpt lat="42.1631670" lon="-2.1702920">
        <ele>911.4</ele>
        <time>2022-08-15T07:50:52Z</time>
      </trkpt>
      <trkpt lat="42.1631790" lon="-2.1703560">
        <ele>911.0</ele>
        <time>2022-08-15T07:50:53Z</time>
      </trkpt>
      <trkpt lat="42.1632080" lon="-2.1704490">
        <ele>910.2</ele>
        <time>2022-08-15T07:50:54Z</time>
      </trkpt>
      <trkpt lat="42.1632430" lon="-2.1705250">
        <ele>909.7</ele>
        <time>2022-08-15T07:50:55Z</time>
      </trkpt>
      <trkpt lat="42.1633140" lon="-2.1706950">
        <ele>908.5</ele>
        <time>2022-08-15T07:50:57Z</time>
      </trkpt>
      <trkpt lat="42.1633680" lon="-2.1708850">
        <ele>907.4</ele>
        <time>2022-08-15T07:50:59Z</time>
      </trkpt>
      <trkpt lat="42.1634330" lon="-2.1711660">
        <ele>905.7</ele>
        <time>2022-08-15T07:51:02Z</time>
      </trkpt>
      <trkpt lat="42.1634690" lon="-2.1712860">
        <ele>905.0</ele>
        <time>2022-08-15T07:51:03Z</time>
      </trkpt>
      <trkpt lat="42.1635360" lon="-2.1714830">
        <ele>903.7</ele>
        <time>2022-08-15T07:51:05Z</time>
      </trkpt>
      <trkpt lat="42.1635630" lon="-2.1715860">
        <ele>903.0</ele>
        <time>2022-08-15T07:51:06Z</time>
      </trkpt>
      <trkpt lat="42.1635850" lon="-2.1716940">
        <ele>902.4</ele>
        <time>2022-08-15T07:51:07Z</time>
      </trkpt>
      <trkpt lat="42.1635980" lon="-2.1718030">
        <ele>901.8</ele>
        <time>2022-08-15T07:51:08Z</time>
      </trkpt>
      <trkpt lat="42.1636210" lon="-2.1719800">
        <ele>900.8</ele>
        <time>2022-08-15T07:51:10Z</time>
      </trkpt>
      <trkpt lat="42.1636750" lon="-2.1721570">
        <ele>899.6</ele>
        <time>2022-08-15T07:51:12Z</time>
      </trkpt>
      <trkpt lat="42.1637180" lon="-2.1722260">
        <ele>899.1</ele>
        <time>2022-08-15T07:51:13Z</time>
      </trkpt>
      <trkpt lat="42.1637710" lon="-2.1722850">
        <ele>898.5</ele>
        <time>2022-08-15T07:51:14Z</time>
      </trkpt>
      <trkpt lat="42.1638790" lon="-2.1723810">
        <ele>897.3</ele>
        <time>2022-08-15T07:51:16Z</time>
      </trkpt>
      <trkpt lat="42.1639270" lon="-2.1724180">
        <ele>896.8</ele>
        <time>2022-08-15T07:51:17Z</time>
      </trkpt>
      <trkpt lat="42.1639680" lon="-2.1724600">
        <ele>896.4</ele>
        <time>2022-08-15T07:51:18Z</time>
      </trkpt>
      <trkpt lat="42.1640190" lon="-2.1725740">
        <ele>895.4</ele>
        <time>2022-08-15T07:51:20Z</time>
      </trkpt>
      <trkpt lat="42.1640330" lon="-2.1727470">
        <ele>894.1</ele>
        <time>2022-08-15T07:51:22Z</time>
      </trkpt>
      <trkpt lat="42.1640080" lon="-2.1728220">
        <ele>893.4</ele>
        <time>2022-08-15T07:51:23Z</time>
      </trkpt>
      <trkpt lat="42.1639460" lon="-2.1729670">
        <ele>892.1</ele>
        <time>2022-08-15T07:51:25Z</time>
      </trkpt>
      <trkpt lat="42.1639070" lon="-2.1730690">
        <ele>891.1</ele>
        <time>2022-08-15T07:51:26Z</time>
      </trkpt>
      <trkpt lat="42.1638650" lon="-2.1732300">
        <ele>889.5</ele>
        <time>2022-08-15T07:51:28Z</time>
      </trkpt>
      <trkpt lat="42.1638500" lon="-2.1733310">
        <ele>888.6</ele>
        <time>2022-08-15T07:51:29Z</time>
      </trkpt>
      <trkpt lat="42.1638440" lon="-2.1735680">
        <ele>886.4</ele>
        <time>2022-08-15T07:51:31Z</time>
      </trkpt>
      <trkpt lat="42.1638550" lon="-2.1736730">
        <ele>885.6</ele>
        <time>2022-08-15T07:51:32Z</time>
      </trkpt>
      <trkpt lat="42.1639030" lon="-2.1738750">
        <ele>884.0</ele>
        <time>2022-08-15T07:51:34Z</time>
      </trkpt>
      <trkpt lat="42.1639880" lon="-2.1740710">
        <ele>882.6</ele>
        <time>2022-08-15T07:51:36Z</time>
      </trkpt>
      <trkpt lat="42.1640370" lon="-2.1741700">
        <ele>881.9</ele>
        <time>2022-08-15T07:51:37Z</time>
      </trkpt>
      <trkpt lat="42.1640760" lon="-2.1742530">
        <ele>881.3</ele>
        <time>2022-08-15T07:51:38Z</time>
      </trkpt>
      <trkpt lat="42.1641300" lon="-2.1743830">
        <ele>880.5</ele>
        <time>2022-08-15T07:51:39Z</time>
      </trkpt>
      <trkpt lat="42.1642180" lon="-2.1746060">
        <ele>879.3</ele>
        <time>2022-08-15T07:51:41Z</time>
      </trkpt>
      <trkpt lat="42.1642180" lon="-2.1746060">
        <ele>879.3</ele>
        <time>2022-08-15T07:51:42Z</time>
      </trkpt>
      <trkpt lat="42.1642800" lon="-2.1747800">
        <ele>878.4</ele>
        <time>2022-08-15T07:51:43Z</time>
      </trkpt>
      <trkpt lat="42.1643100" lon="-2.1748780">
        <ele>877.8</ele>
        <time>2022-08-15T07:51:44Z</time>
      </trkpt>
      <trkpt lat="42.1643610" lon="-2.1749860">
        <ele>877.2</ele>
        <time>2022-08-15T07:51:45Z</time>
      </trkpt>
      <trkpt lat="42.1644050" lon="-2.1750460">
        <ele>876.8</ele>
        <time>2022-08-15T07:51:46Z</time>
      </trkpt>
      <trkpt lat="42.1644850" lon="-2.1751550">
        <ele>876.1</ele>
        <time>2022-08-15T07:51:48Z</time>
      </trkpt>
      <trkpt lat="42.1645090" lon="-2.1752230">
        <ele>875.8</ele>
        <time>2022-08-15T07:51:49Z</time>
      </trkpt>
      <trkpt lat="42.1645170" lon="-2.1753010">
        <ele>875.6</ele>
        <time>2022-08-15T07:51:50Z</time>
      </trkpt>
      <trkpt lat="42.1644960" lon="-2.1754600">
        <ele>875.0</ele>
        <time>2022-08-15T07:51:52Z</time>
      </trkpt>
      <trkpt lat="42.1644780" lon="-2.1755470">
        <ele>874.7</ele>
        <time>2022-08-15T07:51:53Z</time>
      </trkpt>
      <trkpt lat="42.1644570" lon="-2.1756370">
        <ele>874.4</ele>
        <time>2022-08-15T07:51:54Z</time>
      </trkpt>
      <trkpt lat="42.1644370" lon="-2.1757280">
        <ele>874.0</ele>
        <time>2022-08-15T07:51:55Z</time>
      </trkpt>
      <trkpt lat="42.1644170" lon="-2.1758230">
        <ele>873.7</ele>
        <time>2022-08-15T07:51:56Z</time>
      </trkpt>
      <trkpt lat="42.1644030" lon="-2.1759210">
        <ele>873.3</ele>
        <time>2022-08-15T07:51:57Z</time>
      </trkpt>
      <trkpt lat="42.1643950" lon="-2.1760210">
        <ele>872.9</ele>
        <time>2022-08-15T07:51:58Z</time>
      </trkpt>
      <trkpt lat="42.1643940" lon="-2.1762070">
        <ele>872.2</ele>
        <time>2022-08-15T07:52:00Z</time>
      </trkpt>
      <trkpt lat="42.1643960" lon="-2.1763330">
        <ele>871.8</ele>
        <time>2022-08-15T07:52:01Z</time>
      </trkpt>
      <trkpt lat="42.1643960" lon="-2.1764140">
        <ele>871.4</ele>
        <time>2022-08-15T07:52:02Z</time>
      </trkpt>
      <trkpt lat="42.1644050" lon="-2.1765260">
        <ele>870.9</ele>
        <time>2022-08-15T07:52:03Z</time>
      </trkpt>
      <trkpt lat="42.1644410" lon="-2.1766530">
        <ele>870.2</ele>
        <time>2022-08-15T07:52:05Z</time>
      </trkpt>
      <trkpt lat="42.1644820" lon="-2.1767010">
        <ele>869.8</ele>
        <time>2022-08-15T07:52:06Z</time>
      </trkpt>
      <trkpt lat="42.1645200" lon="-2.1767180">
        <ele>869.6</ele>
        <time>2022-08-15T07:52:07Z</time>
      </trkpt>
      <trkpt lat="42.1645950" lon="-2.1766830">
        <ele>869.0</ele>
        <time>2022-08-15T07:52:09Z</time>
      </trkpt>
      <trkpt lat="42.1646350" lon="-2.1766380">
        <ele>868.7</ele>
        <time>2022-08-15T07:52:10Z</time>
      </trkpt>
      <trkpt lat="42.1647250" lon="-2.1765410">
        <ele>868.0</ele>
        <time>2022-08-15T07:52:12Z</time>
      </trkpt>
      <trkpt lat="42.1647790" lon="-2.1765020">
        <ele>867.7</ele>
        <time>2022-08-15T07:52:13Z</time>
      </trkpt>
      <trkpt lat="42.1648260" lon="-2.1764840">
        <ele>867.4</ele>
        <time>2022-08-15T07:52:14Z</time>
      </trkpt>
      <trkpt lat="42.1648980" lon="-2.1764790">
        <ele>866.9</ele>
        <time>2022-08-15T07:52:15Z</time>
      </trkpt>
      <trkpt lat="42.1650110" lon="-2.1765220">
        <ele>866.1</ele>
        <time>2022-08-15T07:52:17Z</time>
      </trkpt>
      <trkpt lat="42.1650520" lon="-2.1765510">
        <ele>865.8</ele>
        <time>2022-08-15T07:52:18Z</time>
      </trkpt>
      <trkpt lat="42.1651100" lon="-2.1766090">
        <ele>865.2</ele>
        <time>2022-08-15T07:52:19Z</time>
      </trkpt>
      <trkpt lat="42.1651560" lon="-2.1766740">
        <ele>864.7</ele>
        <time>2022-08-15T07:52:20Z</time>
      </trkpt>
      <trkpt lat="42.1651980" lon="-2.1767440">
        <ele>864.2</ele>
        <time>2022-08-15T07:52:21Z</time>
      </trkpt>
      <trkpt lat="42.1652610" lon="-2.1768850">
        <ele>863.1</ele>
        <time>2022-08-15T07:52:23Z</time>
      </trkpt>
      <trkpt lat="42.1653010" lon="-2.1769750">
        <ele>862.3</ele>
        <time>2022-08-15T07:52:24Z</time>
      </trkpt>
      <trkpt lat="42.1653410" lon="-2.1770440">
        <ele>861.6</ele>
        <time>2022-08-15T07:52:25Z</time>
      </trkpt>
      <trkpt lat="42.1653880" lon="-2.1771120">
        <ele>860.9</ele>
        <time>2022-08-15T07:52:26Z</time>
      </trkpt>
      <trkpt lat="42.1654950" lon="-2.1772160">
        <ele>859.4</ele>
        <time>2022-08-15T07:52:28Z</time>
      </trkpt>
      <trkpt lat="42.1655750" lon="-2.1772590">
        <ele>858.5</ele>
        <time>2022-08-15T07:52:29Z</time>
      </trkpt>
      <trkpt lat="42.1656420" lon="-2.1772670">
        <ele>857.9</ele>
        <time>2022-08-15T07:52:30Z</time>
      </trkpt>
      <trkpt lat="42.1657590" lon="-2.1772550">
        <ele>857.0</ele>
        <time>2022-08-15T07:52:32Z</time>
      </trkpt>
      <trkpt lat="42.1658350" lon="-2.1772690">
        <ele>856.4</ele>
        <time>2022-08-15T07:52:33Z</time>
      </trkpt>
      <trkpt lat="42.1658940" lon="-2.1773080">
        <ele>855.9</ele>
        <time>2022-08-15T07:52:34Z</time>
      </trkpt>
      <trkpt lat="42.1659470" lon="-2.1773640">
        <ele>855.5</ele>
        <time>2022-08-15T07:52:35Z</time>
      </trkpt>
      <trkpt lat="42.1659970" lon="-2.1774310">
        <ele>854.9</ele>
        <time>2022-08-15T07:52:36Z</time>
      </trkpt>
      <trkpt lat="42.1660890" lon="-2.1775780">
        <ele>853.8</ele>
        <time>2022-08-15T07:52:38Z</time>
      </trkpt>
      <trkpt lat="42.1662040" lon="-2.1776970">
        <ele>852.6</ele>
        <time>2022-08-15T07:52:40Z</time>
      </trkpt>
      <trkpt lat="42.1663410" lon="-2.1777740">
        <ele>851.4</ele>
        <time>2022-08-15T07:52:42Z</time>
      </trkpt>
      <trkpt lat="42.1664200" lon="-2.1777970">
        <ele>850.8</ele>
        <time>2022-08-15T07:52:43Z</time>
      </trkpt>
      <trkpt lat="42.1664990" lon="-2.1778160">
        <ele>850.2</ele>
        <time>2022-08-15T07:52:44Z</time>
      </trkpt>
      <trkpt lat="42.1666590" lon="-2.1778250">
        <ele>849.3</ele>
        <time>2022-08-15T07:52:46Z</time>
      </trkpt>
      <trkpt lat="42.1668170" lon="-2.1777800">
        <ele>848.4</ele>
        <time>2022-08-15T07:52:48Z</time>
      </trkpt>
      <trkpt lat="42.1668930" lon="-2.1777590">
        <ele>848.1</ele>
        <time>2022-08-15T07:52:49Z</time>
      </trkpt>
      <trkpt lat="42.1670520" lon="-2.1777590">
        <ele>847.7</ele>
        <time>2022-08-15T07:52:51Z</time>
      </trkpt>
      <trkpt lat="42.1671290" lon="-2.1777760">
        <ele>847.6</ele>
        <time>2022-08-15T07:52:52Z</time>
      </trkpt>
      <trkpt lat="42.1672050" lon="-2.1778010">
        <ele>847.6</ele>
        <time>2022-08-15T07:52:53Z</time>
      </trkpt>
      <trkpt lat="42.1672760" lon="-2.1778190">
        <ele>847.6</ele>
        <time>2022-08-15T07:52:54Z</time>
      </trkpt>
      <trkpt lat="42.1673420" lon="-2.1778170">
        <ele>847.7</ele>
        <time>2022-08-15T07:52:55Z</time>
      </trkpt>
      <trkpt lat="42.1674020" lon="-2.1777950">
        <ele>847.8</ele>
        <time>2022-08-15T07:52:56Z</time>
      </trkpt>
      <trkpt lat="42.1675130" lon="-2.1777330">
        <ele>848.2</ele>
        <time>2022-08-15T07:52:58Z</time>
      </trkpt>
      <trkpt lat="42.1676100" lon="-2.1777550">
        <ele>848.5</ele>
        <time>2022-08-15T07:53:00Z</time>
      </trkpt>
      <trkpt lat="42.1676470" lon="-2.1777850">
        <ele>848.6</ele>
        <time>2022-08-15T07:53:01Z</time>
      </trkpt>
      <trkpt lat="42.1676800" lon="-2.1778170">
        <ele>848.7</ele>
        <time>2022-08-15T07:53:02Z</time>
      </trkpt>
      <trkpt lat="42.1677380" lon="-2.1778900">
        <ele>849.1</ele>
        <time>2022-08-15T07:53:04Z</time>
      </trkpt>
      <trkpt lat="42.1677670" lon="-2.1779250">
        <ele>849.3</ele>
        <time>2022-08-15T07:53:05Z</time>
      </trkpt>
      <trkpt lat="42.1677960" lon="-2.1779550">
        <ele>849.5</ele>
        <time>2022-08-15T07:53:06Z</time>
      </trkpt>
      <trkpt lat="42.1678260" lon="-2.1779840">
        <ele>849.7</ele>
        <time>2022-08-15T07:53:07Z</time>
      </trkpt>
      <trkpt lat="42.1678810" lon="-2.1780390">
        <ele>850.1</ele>
        <time>2022-08-15T07:53:09Z</time>
      </trkpt>
      <trkpt lat="42.1679350" lon="-2.1780910">
        <ele>850.6</ele>
        <time>2022-08-15T07:53:11Z</time>
      </trkpt>
      <trkpt lat="42.1680120" lon="-2.1781670">
        <ele>851.4</ele>
        <time>2022-08-15T07:53:14Z</time>
      </trkpt>
      <trkpt lat="42.1680610" lon="-2.1782190">
        <ele>851.9</ele>
        <time>2022-08-15T07:53:16Z</time>
      </trkpt>
      <trkpt lat="42.1681390" lon="-2.1782810">
        <ele>852.5</ele>
        <time>2022-08-15T07:53:20Z</time>
      </trkpt>
      <trkpt lat="42.1681770" lon="-2.1782840">
        <ele>852.7</ele>
        <time>2022-08-15T07:53:22Z</time>
      </trkpt>
      <trkpt lat="42.1682230" lon="-2.1782510">
        <ele>852.9</ele>
        <time>2022-08-15T07:53:25Z</time>
      </trkpt>
      <trkpt lat="42.1682420" lon="-2.1782200">
        <ele>853.0</ele>
        <time>2022-08-15T07:53:26Z</time>
      </trkpt>
      <trkpt lat="42.1682620" lon="-2.1781150">
        <ele>853.3</ele>
        <time>2022-08-15T07:53:30Z</time>
      </trkpt>
      <trkpt lat="42.1682710" lon="-2.1780530">
        <ele>853.4</ele>
        <time>2022-08-15T07:53:32Z</time>
      </trkpt>
      <trkpt lat="42.1682910" lon="-2.1778620">
        <ele>853.7</ele>
        <time>2022-08-15T07:53:37Z</time>
      </trkpt>
      <trkpt lat="42.1682970" lon="-2.1777800">
        <ele>853.9</ele>
        <time>2022-08-15T07:53:39Z</time>
      </trkpt>
      <trkpt lat="42.1683590" lon="-2.1774860">
        <ele>854.8</ele>
        <time>2022-08-15T07:53:46Z</time>
      </trkpt>
      <trkpt lat="42.1684490" lon="-2.1773560">
        <ele>855.3</ele>
        <time>2022-08-15T07:53:50Z</time>
      </trkpt>
      <trkpt lat="42.1684770" lon="-2.1773330">
        <ele>855.4</ele>
        <time>2022-08-15T07:53:51Z</time>
      </trkpt>
      <trkpt lat="42.1686200" lon="-2.1772860">
        <ele>856.1</ele>
        <time>2022-08-15T07:53:56Z</time>
      </trkpt>
      <trkpt lat="42.1687650" lon="-2.1771680">
        <ele>857.0</ele>
        <time>2022-08-15T07:54:02Z</time>
      </trkpt>
      <trkpt lat="42.1688350" lon="-2.1770420">
        <ele>857.6</ele>
        <time>2022-08-15T07:54:06Z</time>
      </trkpt>
      <trkpt lat="42.1689150" lon="-2.1769210">
        <ele>858.2</ele>
        <time>2022-08-15T07:54:10Z</time>
      </trkpt>
      <trkpt lat="42.1689980" lon="-2.1768760">
        <ele>858.5</ele>
        <time>2022-08-15T07:54:13Z</time>
      </trkpt>
      <trkpt lat="42.1690540" lon="-2.1768940">
        <ele>858.7</ele>
        <time>2022-08-15T07:54:15Z</time>
      </trkpt>
      <trkpt lat="42.1691330" lon="-2.1769600">
        <ele>859.0</ele>
        <time>2022-08-15T07:54:18Z</time>
      </trkpt>
      <trkpt lat="42.1692030" lon="-2.1770520">
        <ele>859.3</ele>
        <time>2022-08-15T07:54:21Z</time>
      </trkpt>
      <trkpt lat="42.1693430" lon="-2.1773290">
        <ele>860.7</ele>
        <time>2022-08-15T07:54:29Z</time>
      </trkpt>
      <trkpt lat="42.1694320" lon="-2.1775200">
        <ele>861.7</ele>
        <time>2022-08-15T07:54:35Z</time>
      </trkpt>
      <trkpt lat="42.1694490" lon="-2.1775500">
        <ele>861.8</ele>
        <time>2022-08-15T07:54:36Z</time>
      </trkpt>
      <trkpt lat="42.1695350" lon="-2.1776420">
        <ele>862.4</ele>
        <time>2022-08-15T07:54:40Z</time>
      </trkpt>
      <trkpt lat="42.1695900" lon="-2.1776660">
        <ele>862.7</ele>
        <time>2022-08-15T07:54:42Z</time>
      </trkpt>
      <trkpt lat="42.1697990" lon="-2.1776610">
        <ele>863.8</ele>
        <time>2022-08-15T07:54:49Z</time>
      </trkpt>
      <trkpt lat="42.1700820" lon="-2.1776730">
        <ele>865.0</ele>
        <time>2022-08-15T07:54:59Z</time>
      </trkpt>
      <trkpt lat="42.1701110" lon="-2.1776780">
        <ele>865.1</ele>
        <time>2022-08-15T07:55:00Z</time>
      </trkpt>
      <trkpt lat="42.1702810" lon="-2.1777110">
        <ele>865.6</ele>
        <time>2022-08-15T07:55:06Z</time>
      </trkpt>
      <trkpt lat="42.1703070" lon="-2.1777200">
        <ele>865.7</ele>
        <time>2022-08-15T07:55:07Z</time>
      </trkpt>
      <trkpt lat="42.1705660" lon="-2.1778060">
        <ele>865.2</ele>
        <time>2022-08-15T07:55:16Z</time>
      </trkpt>
      <trkpt lat="42.1706580" lon="-2.1778120">
        <ele>864.6</ele>
        <time>2022-08-15T07:55:19Z</time>
      </trkpt>
      <trkpt lat="42.1707820" lon="-2.1777840">
        <ele>863.6</ele>
        <time>2022-08-15T07:55:22Z</time>
      </trkpt>
      <trkpt lat="42.1708220" lon="-2.1777680">
        <ele>863.3</ele>
        <time>2022-08-15T07:55:23Z</time>
      </trkpt>
      <trkpt lat="42.1708610" lon="-2.1777480">
        <ele>862.9</ele>
        <time>2022-08-15T07:55:24Z</time>
      </trkpt>
      <trkpt lat="42.1709000" lon="-2.1777270">
        <ele>862.6</ele>
        <time>2022-08-15T07:55:25Z</time>
      </trkpt>
      <trkpt lat="42.1709380" lon="-2.1777040">
        <ele>862.2</ele>
        <time>2022-08-15T07:55:26Z</time>
      </trkpt>
      <trkpt lat="42.1710640" lon="-2.1776380">
        <ele>861.1</ele>
        <time>2022-08-15T07:55:29Z</time>
      </trkpt>
      <trkpt lat="42.1711090" lon="-2.1776160">
        <ele>860.7</ele>
        <time>2022-08-15T07:55:30Z</time>
      </trkpt>
      <trkpt lat="42.1711560" lon="-2.1775940">
        <ele>860.3</ele>
        <time>2022-08-15T07:55:31Z</time>
      </trkpt>
      <trkpt lat="42.1712610" lon="-2.1775480">
        <ele>859.5</ele>
        <time>2022-08-15T07:55:33Z</time>
      </trkpt>
      <trkpt lat="42.1713800" lon="-2.1775020">
        <ele>858.6</ele>
        <time>2022-08-15T07:55:35Z</time>
      </trkpt>
      <trkpt lat="42.1714430" lon="-2.1774770">
        <ele>858.0</ele>
        <time>2022-08-15T07:55:36Z</time>
      </trkpt>
      <trkpt lat="42.1715000" lon="-2.1774480">
        <ele>857.5</ele>
        <time>2022-08-15T07:55:37Z</time>
      </trkpt>
      <trkpt lat="42.1715500" lon="-2.1774070">
        <ele>857.0</ele>
        <time>2022-08-15T07:55:38Z</time>
      </trkpt>
      <trkpt lat="42.1715940" lon="-2.1773540">
        <ele>856.5</ele>
        <time>2022-08-15T07:55:39Z</time>
      </trkpt>
      <trkpt lat="42.1716760" lon="-2.1772490">
        <ele>855.5</ele>
        <time>2022-08-15T07:55:41Z</time>
      </trkpt>
      <trkpt lat="42.1717780" lon="-2.1771930">
        <ele>854.7</ele>
        <time>2022-08-15T07:55:43Z</time>
      </trkpt>
      <trkpt lat="42.1718380" lon="-2.1771880">
        <ele>854.3</ele>
        <time>2022-08-15T07:55:44Z</time>
      </trkpt>
      <trkpt lat="42.1719660" lon="-2.1771730">
        <ele>853.3</ele>
        <time>2022-08-15T07:55:46Z</time>
      </trkpt>
      <trkpt lat="42.1720940" lon="-2.1771150">
        <ele>852.5</ele>
        <time>2022-08-15T07:55:48Z</time>
      </trkpt>
      <trkpt lat="42.1722940" lon="-2.1769560">
        <ele>851.0</ele>
        <time>2022-08-15T07:55:51Z</time>
      </trkpt>
      <trkpt lat="42.1724360" lon="-2.1768680">
        <ele>850.1</ele>
        <time>2022-08-15T07:55:53Z</time>
      </trkpt>
      <trkpt lat="42.1725870" lon="-2.1768190">
        <ele>849.1</ele>
        <time>2022-08-15T07:55:55Z</time>
      </trkpt>
      <trkpt lat="42.1726610" lon="-2.1768120">
        <ele>848.5</ele>
        <time>2022-08-15T07:55:56Z</time>
      </trkpt>
      <trkpt lat="42.1727280" lon="-2.1768180">
        <ele>848.0</ele>
        <time>2022-08-15T07:55:57Z</time>
      </trkpt>
      <trkpt lat="42.1727910" lon="-2.1768430">
        <ele>847.4</ele>
        <time>2022-08-15T07:55:58Z</time>
      </trkpt>
      <trkpt lat="42.1729880" lon="-2.1769300">
        <ele>845.7</ele>
        <time>2022-08-15T07:56:01Z</time>
      </trkpt>
      <trkpt lat="42.1731390" lon="-2.1769360">
        <ele>844.6</ele>
        <time>2022-08-15T07:56:03Z</time>
      </trkpt>
      <trkpt lat="42.1732170" lon="-2.1769200">
        <ele>844.1</ele>
        <time>2022-08-15T07:56:04Z</time>
      </trkpt>
      <trkpt lat="42.1732930" lon="-2.1768930">
        <ele>843.5</ele>
        <time>2022-08-15T07:56:05Z</time>
      </trkpt>
      <trkpt lat="42.1733660" lon="-2.1768550">
        <ele>842.9</ele>
        <time>2022-08-15T07:56:06Z</time>
      </trkpt>
      <trkpt lat="42.1734400" lon="-2.1768140">
        <ele>842.3</ele>
        <time>2022-08-15T07:56:07Z</time>
      </trkpt>
      <trkpt lat="42.1735190" lon="-2.1767780">
        <ele>841.7</ele>
        <time>2022-08-15T07:56:08Z</time>
      </trkpt>
      <trkpt lat="42.1736050" lon="-2.1767570">
        <ele>841.2</ele>
        <time>2022-08-15T07:56:09Z</time>
      </trkpt>
      <trkpt lat="42.1737830" lon="-2.1767530">
        <ele>840.0</ele>
        <time>2022-08-15T07:56:11Z</time>
      </trkpt>
      <trkpt lat="42.1739640" lon="-2.1767320">
        <ele>838.7</ele>
        <time>2022-08-15T07:56:13Z</time>
      </trkpt>
      <trkpt lat="42.1740540" lon="-2.1767170">
        <ele>838.0</ele>
        <time>2022-08-15T07:56:14Z</time>
      </trkpt>
      <trkpt lat="42.1741080" lon="-2.1767080">
        <ele>837.7</ele>
        <time>2022-08-15T07:56:15Z</time>
      </trkpt>
      <trkpt lat="42.1741980" lon="-2.1767000">
        <ele>837.1</ele>
        <time>2022-08-15T07:56:16Z</time>
      </trkpt>
      <trkpt lat="42.1744180" lon="-2.1767270">
        <ele>836.0</ele>
        <time>2022-08-15T07:56:18Z</time>
      </trkpt>
      <trkpt lat="42.1745830" lon="-2.1767550">
        <ele>835.1</ele>
        <time>2022-08-15T07:56:20Z</time>
      </trkpt>
      <trkpt lat="42.1746510" lon="-2.1767560">
        <ele>834.6</ele>
        <time>2022-08-15T07:56:21Z</time>
      </trkpt>
      <trkpt lat="42.1747150" lon="-2.1767390">
        <ele>834.2</ele>
        <time>2022-08-15T07:56:22Z</time>
      </trkpt>
      <trkpt lat="42.1747780" lon="-2.1767100">
        <ele>833.7</ele>
        <time>2022-08-15T07:56:23Z</time>
      </trkpt>
      <trkpt lat="42.1749100" lon="-2.1766420">
        <ele>832.5</ele>
        <time>2022-08-15T07:56:25Z</time>
      </trkpt>
      <trkpt lat="42.1750560" lon="-2.1765670">
        <ele>831.1</ele>
        <time>2022-08-15T07:56:27Z</time>
      </trkpt>
      <trkpt lat="42.1751330" lon="-2.1765290">
        <ele>830.4</ele>
        <time>2022-08-15T07:56:28Z</time>
      </trkpt>
      <trkpt lat="42.1754670" lon="-2.1763770">
        <ele>827.5</ele>
        <time>2022-08-15T07:56:32Z</time>
      </trkpt>
      <trkpt lat="42.1756270" lon="-2.1763020">
        <ele>826.2</ele>
        <time>2022-08-15T07:56:34Z</time>
      </trkpt>
      <trkpt lat="42.1756990" lon="-2.1762580">
        <ele>825.6</ele>
        <time>2022-08-15T07:56:35Z</time>
      </trkpt>
      <trkpt lat="42.1757690" lon="-2.1762050">
        <ele>825.0</ele>
        <time>2022-08-15T07:56:36Z</time>
      </trkpt>
      <trkpt lat="42.1758350" lon="-2.1761400">
        <ele>824.4</ele>
        <time>2022-08-15T07:56:37Z</time>
      </trkpt>
      <trkpt lat="42.1758950" lon="-2.1760610">
        <ele>823.7</ele>
        <time>2022-08-15T07:56:38Z</time>
      </trkpt>
      <trkpt lat="42.1759510" lon="-2.1759740">
        <ele>823.1</ele>
        <time>2022-08-15T07:56:39Z</time>
      </trkpt>
      <trkpt lat="42.1760450" lon="-2.1758050">
        <ele>822.0</ele>
        <time>2022-08-15T07:56:41Z</time>
      </trkpt>
      <trkpt lat="42.1761640" lon="-2.1755900">
        <ele>820.5</ele>
        <time>2022-08-15T07:56:43Z</time>
      </trkpt>
      <trkpt lat="42.1762210" lon="-2.1754910">
        <ele>819.8</ele>
        <time>2022-08-15T07:56:44Z</time>
      </trkpt>
      <trkpt lat="42.1763200" lon="-2.1753000">
        <ele>818.5</ele>
        <time>2022-08-15T07:56:46Z</time>
      </trkpt>
      <trkpt lat="42.1764340" lon="-2.1750620">
        <ele>816.9</ele>
        <time>2022-08-15T07:56:48Z</time>
      </trkpt>
      <trkpt lat="42.1765490" lon="-2.1747630">
        <ele>814.9</ele>
        <time>2022-08-15T07:56:51Z</time>
      </trkpt>
      <trkpt lat="42.1765750" lon="-2.1746670">
        <ele>814.3</ele>
        <time>2022-08-15T07:56:52Z</time>
      </trkpt>
      <trkpt lat="42.1766030" lon="-2.1745730">
        <ele>813.7</ele>
        <time>2022-08-15T07:56:53Z</time>
      </trkpt>
      <trkpt lat="42.1766380" lon="-2.1744840">
        <ele>813.2</ele>
        <time>2022-08-15T07:56:54Z</time>
      </trkpt>
      <trkpt lat="42.1766850" lon="-2.1744060">
        <ele>812.8</ele>
        <time>2022-08-15T07:56:55Z</time>
      </trkpt>
      <trkpt lat="42.1767390" lon="-2.1743360">
        <ele>812.3</ele>
        <time>2022-08-15T07:56:56Z</time>
      </trkpt>
      <trkpt lat="42.1767890" lon="-2.1742640">
        <ele>811.9</ele>
        <time>2022-08-15T07:56:57Z</time>
      </trkpt>
      <trkpt lat="42.1768660" lon="-2.1740980">
        <ele>811.2</ele>
        <time>2022-08-15T07:56:59Z</time>
      </trkpt>
      <trkpt lat="42.1769090" lon="-2.1739090">
        <ele>810.5</ele>
        <time>2022-08-15T07:57:01Z</time>
      </trkpt>
      <trkpt lat="42.1769340" lon="-2.1737030">
        <ele>809.7</ele>
        <time>2022-08-15T07:57:03Z</time>
      </trkpt>
      <trkpt lat="42.1769570" lon="-2.1734980">
        <ele>808.9</ele>
        <time>2022-08-15T07:57:05Z</time>
      </trkpt>
      <trkpt lat="42.1769790" lon="-2.1734060">
        <ele>808.4</ele>
        <time>2022-08-15T07:57:06Z</time>
      </trkpt>
      <trkpt lat="42.1770080" lon="-2.1733260">
        <ele>808.0</ele>
        <time>2022-08-15T07:57:07Z</time>
      </trkpt>
      <trkpt lat="42.1770910" lon="-2.1732140">
        <ele>807.2</ele>
        <time>2022-08-15T07:57:09Z</time>
      </trkpt>
      <trkpt lat="42.1771440" lon="-2.1731870">
        <ele>806.8</ele>
        <time>2022-08-15T07:57:10Z</time>
      </trkpt>
      <trkpt lat="42.1772020" lon="-2.1731670">
        <ele>806.3</ele>
        <time>2022-08-15T07:57:11Z</time>
      </trkpt>
      <trkpt lat="42.1772630" lon="-2.1731440">
        <ele>805.8</ele>
        <time>2022-08-15T07:57:12Z</time>
      </trkpt>
      <trkpt lat="42.1773190" lon="-2.1731040">
        <ele>805.3</ele>
        <time>2022-08-15T07:57:13Z</time>
      </trkpt>
      <trkpt lat="42.1773700" lon="-2.1730510">
        <ele>804.7</ele>
        <time>2022-08-15T07:57:14Z</time>
      </trkpt>
      <trkpt lat="42.1774450" lon="-2.1729010">
        <ele>803.5</ele>
        <time>2022-08-15T07:57:16Z</time>
      </trkpt>
      <trkpt lat="42.1774730" lon="-2.1728070">
        <ele>802.9</ele>
        <time>2022-08-15T07:57:17Z</time>
      </trkpt>
      <trkpt lat="42.1775430" lon="-2.1726060">
        <ele>801.7</ele>
        <time>2022-08-15T07:57:19Z</time>
      </trkpt>
      <trkpt lat="42.1775820" lon="-2.1725040">
        <ele>801.2</ele>
        <time>2022-08-15T07:57:20Z</time>
      </trkpt>
      <trkpt lat="42.1776640" lon="-2.1722980">
        <ele>800.4</ele>
        <time>2022-08-15T07:57:22Z</time>
      </trkpt>
      <trkpt lat="42.1777040" lon="-2.1722080">
        <ele>800.0</ele>
        <time>2022-08-15T07:57:23Z</time>
      </trkpt>
      <trkpt lat="42.1777490" lon="-2.1721340">
        <ele>799.7</ele>
        <time>2022-08-15T07:57:24Z</time>
      </trkpt>
      <trkpt lat="42.1778020" lon="-2.1720790">
        <ele>799.5</ele>
        <time>2022-08-15T07:57:25Z</time>
      </trkpt>
      <trkpt lat="42.1778530" lon="-2.1720420">
        <ele>799.2</ele>
        <time>2022-08-15T07:57:26Z</time>
      </trkpt>
      <trkpt lat="42.1778950" lon="-2.1720290">
        <ele>799.0</ele>
        <time>2022-08-15T07:57:27Z</time>
      </trkpt>
      <trkpt lat="42.1779230" lon="-2.1720310">
        <ele>798.8</ele>
        <time>2022-08-15T07:57:28Z</time>
      </trkpt>
      <trkpt lat="42.1779680" lon="-2.1720680">
        <ele>798.5</ele>
        <time>2022-08-15T07:57:30Z</time>
      </trkpt>
      <trkpt lat="42.1779770" lon="-2.1721340">
        <ele>798.3</ele>
        <time>2022-08-15T07:57:31Z</time>
      </trkpt>
      <trkpt lat="42.1779160" lon="-2.1723000">
        <ele>797.7</ele>
        <time>2022-08-15T07:57:33Z</time>
      </trkpt>
      <trkpt lat="42.1778180" lon="-2.1725640">
        <ele>797.0</ele>
        <time>2022-08-15T07:57:36Z</time>
      </trkpt>
      <trkpt lat="42.1777510" lon="-2.1728280">
        <ele>796.4</ele>
        <time>2022-08-15T07:57:39Z</time>
      </trkpt>
      <trkpt lat="42.1777340" lon="-2.1729220">
        <ele>796.2</ele>
        <time>2022-08-15T07:57:40Z</time>
      </trkpt>
      <trkpt lat="42.1777210" lon="-2.1730150">
        <ele>796.0</ele>
        <time>2022-08-15T07:57:41Z</time>
      </trkpt>
      <trkpt lat="42.1777100" lon="-2.1731070">
        <ele>795.8</ele>
        <time>2022-08-15T07:57:42Z</time>
      </trkpt>
      <trkpt lat="42.1776820" lon="-2.1732870">
        <ele>795.3</ele>
        <time>2022-08-15T07:57:44Z</time>
      </trkpt>
      <trkpt lat="42.1776650" lon="-2.1733740">
        <ele>795.0</ele>
        <time>2022-08-15T07:57:45Z</time>
      </trkpt>
      <trkpt lat="42.1776340" lon="-2.1735560">
        <ele>794.3</ele>
        <time>2022-08-15T07:57:47Z</time>
      </trkpt>
      <trkpt lat="42.1775970" lon="-2.1737500">
        <ele>793.4</ele>
        <time>2022-08-15T07:57:49Z</time>
      </trkpt>
      <trkpt lat="42.1775500" lon="-2.1739520">
        <ele>792.5</ele>
        <time>2022-08-15T07:57:51Z</time>
      </trkpt>
      <trkpt lat="42.1774700" lon="-2.1742640">
        <ele>791.2</ele>
        <time>2022-08-15T07:57:54Z</time>
      </trkpt>
      <trkpt lat="42.1774030" lon="-2.1744620">
        <ele>790.4</ele>
        <time>2022-08-15T07:57:56Z</time>
      </trkpt>
      <trkpt lat="42.1773640" lon="-2.1745600">
        <ele>789.9</ele>
        <time>2022-08-15T07:57:57Z</time>
      </trkpt>
      <trkpt lat="42.1772800" lon="-2.1747470">
        <ele>789.2</ele>
        <time>2022-08-15T07:57:59Z</time>
      </trkpt>
      <trkpt lat="42.1772440" lon="-2.1748440">
        <ele>788.8</ele>
        <time>2022-08-15T07:58:00Z</time>
      </trkpt>
      <trkpt lat="42.1771980" lon="-2.1750470">
        <ele>788.2</ele>
        <time>2022-08-15T07:58:02Z</time>
      </trkpt>
      <trkpt lat="42.1771920" lon="-2.1751500">
        <ele>787.8</ele>
        <time>2022-08-15T07:58:03Z</time>
      </trkpt>
      <trkpt lat="42.1771930" lon="-2.1753600">
        <ele>787.2</ele>
        <time>2022-08-15T07:58:05Z</time>
      </trkpt>
      <trkpt lat="42.1772000" lon="-2.1754640">
        <ele>786.9</ele>
        <time>2022-08-15T07:58:06Z</time>
      </trkpt>
      <trkpt lat="42.1772080" lon="-2.1755690">
        <ele>786.5</ele>
        <time>2022-08-15T07:58:07Z</time>
      </trkpt>
      <trkpt lat="42.1772200" lon="-2.1758880">
        <ele>785.0</ele>
        <time>2022-08-15T07:58:10Z</time>
      </trkpt>
      <trkpt lat="42.1771920" lon="-2.1761060">
        <ele>783.9</ele>
        <time>2022-08-15T07:58:12Z</time>
      </trkpt>
      <trkpt lat="42.1771510" lon="-2.1763390">
        <ele>782.8</ele>
        <time>2022-08-15T07:58:14Z</time>
      </trkpt>
      <trkpt lat="42.1771280" lon="-2.1764570">
        <ele>782.3</ele>
        <time>2022-08-15T07:58:15Z</time>
      </trkpt>
      <trkpt lat="42.1771070" lon="-2.1765780">
        <ele>781.8</ele>
        <time>2022-08-15T07:58:16Z</time>
      </trkpt>
      <trkpt lat="42.1770860" lon="-2.1767000">
        <ele>781.4</ele>
        <time>2022-08-15T07:58:17Z</time>
      </trkpt>
      <trkpt lat="42.1770670" lon="-2.1768230">
        <ele>780.9</ele>
        <time>2022-08-15T07:58:18Z</time>
      </trkpt>
      <trkpt lat="42.1770480" lon="-2.1769440">
        <ele>780.3</ele>
        <time>2022-08-15T07:58:19Z</time>
      </trkpt>
      <trkpt lat="42.1770170" lon="-2.1771770">
        <ele>779.1</ele>
        <time>2022-08-15T07:58:21Z</time>
      </trkpt>
      <trkpt lat="42.1769910" lon="-2.1773620">
        <ele>777.8</ele>
        <time>2022-08-15T07:58:23Z</time>
      </trkpt>
      <trkpt lat="42.1769790" lon="-2.1774380">
        <ele>777.3</ele>
        <time>2022-08-15T07:58:24Z</time>
      </trkpt>
      <trkpt lat="42.1769660" lon="-2.1775060">
        <ele>776.7</ele>
        <time>2022-08-15T07:58:25Z</time>
      </trkpt>
      <trkpt lat="42.1769590" lon="-2.1775670">
        <ele>776.3</ele>
        <time>2022-08-15T07:58:26Z</time>
      </trkpt>
      <trkpt lat="42.1769610" lon="-2.1776210">
        <ele>775.9</ele>
        <time>2022-08-15T07:58:27Z</time>
      </trkpt>
      <trkpt lat="42.1769710" lon="-2.1776690">
        <ele>775.5</ele>
        <time>2022-08-15T07:58:28Z</time>
      </trkpt>
      <trkpt lat="42.1769900" lon="-2.1777110">
        <ele>775.1</ele>
        <time>2022-08-15T07:58:29Z</time>
      </trkpt>
      <trkpt lat="42.1770200" lon="-2.1777440">
        <ele>774.8</ele>
        <time>2022-08-15T07:58:30Z</time>
      </trkpt>
      <trkpt lat="42.1770580" lon="-2.1777590">
        <ele>774.4</ele>
        <time>2022-08-15T07:58:31Z</time>
      </trkpt>
      <trkpt lat="42.1770980" lon="-2.1777560">
        <ele>774.0</ele>
        <time>2022-08-15T07:58:32Z</time>
      </trkpt>
      <trkpt lat="42.1771770" lon="-2.1776910">
        <ele>773.2</ele>
        <time>2022-08-15T07:58:34Z</time>
      </trkpt>
      <trkpt lat="42.1772170" lon="-2.1776340">
        <ele>772.6</ele>
        <time>2022-08-15T07:58:35Z</time>
      </trkpt>
      <trkpt lat="42.1772960" lon="-2.1774880">
        <ele>771.3</ele>
        <time>2022-08-15T07:58:37Z</time>
      </trkpt>
      <trkpt lat="42.1773350" lon="-2.1774000">
        <ele>770.6</ele>
        <time>2022-08-15T07:58:38Z</time>
      </trkpt>
      <trkpt lat="42.1773750" lon="-2.1773040">
        <ele>769.8</ele>
        <time>2022-08-15T07:58:39Z</time>
      </trkpt>
      <trkpt lat="42.1774200" lon="-2.1772010">
        <ele>769.0</ele>
        <time>2022-08-15T07:58:40Z</time>
      </trkpt>
      <trkpt lat="42.1774470" lon="-2.1771370">
        <ele>768.5</ele>
        <time>2022-08-15T07:58:41Z</time>
      </trkpt>
      <trkpt lat="42.1774950" lon="-2.1770310">
        <ele>767.7</ele>
        <time>2022-08-15T07:58:42Z</time>
      </trkpt>
      <trkpt lat="42.1776350" lon="-2.1767790">
        <ele>766.2</ele>
        <time>2022-08-15T07:58:44Z</time>
      </trkpt>
      <trkpt lat="42.1777700" lon="-2.1765820">
        <ele>764.6</ele>
        <time>2022-08-15T07:58:46Z</time>
      </trkpt>
      <trkpt lat="42.1778390" lon="-2.1764900">
        <ele>763.7</ele>
        <time>2022-08-15T07:58:47Z</time>
      </trkpt>
      <trkpt lat="42.1779410" lon="-2.1763270">
        <ele>762.4</ele>
        <time>2022-08-15T07:58:49Z</time>
      </trkpt>
      <trkpt lat="42.1779810" lon="-2.1762590">
        <ele>761.9</ele>
        <time>2022-08-15T07:58:50Z</time>
      </trkpt>
      <trkpt lat="42.1780190" lon="-2.1762030">
        <ele>761.4</ele>
        <time>2022-08-15T07:58:51Z</time>
      </trkpt>
      <trkpt lat="42.1781020" lon="-2.1761540">
        <ele>760.7</ele>
        <time>2022-08-15T07:58:53Z</time>
      </trkpt>
      <trkpt lat="42.1781660" lon="-2.1762020">
        <ele>760.1</ele>
        <time>2022-08-15T07:58:55Z</time>
      </trkpt>
      <trkpt lat="42.1781850" lon="-2.1762530">
        <ele>759.8</ele>
        <time>2022-08-15T07:58:56Z</time>
      </trkpt>
      <trkpt lat="42.1781920" lon="-2.1763160">
        <ele>759.4</ele>
        <time>2022-08-15T07:58:57Z</time>
      </trkpt>
      <trkpt lat="42.1781700" lon="-2.1764740">
        <ele>758.6</ele>
        <time>2022-08-15T07:58:59Z</time>
      </trkpt>
      <trkpt lat="42.1781330" lon="-2.1766630">
        <ele>757.6</ele>
        <time>2022-08-15T07:59:01Z</time>
      </trkpt>
      <trkpt lat="42.1781100" lon="-2.1767610">
        <ele>757.2</ele>
        <time>2022-08-15T07:59:02Z</time>
      </trkpt>
      <trkpt lat="42.1780800" lon="-2.1768620">
        <ele>756.8</ele>
        <time>2022-08-15T07:59:03Z</time>
      </trkpt>
      <trkpt lat="42.1780500" lon="-2.1769620">
        <ele>756.4</ele>
        <time>2022-08-15T07:59:04Z</time>
      </trkpt>
      <trkpt lat="42.1780040" lon="-2.1771740">
        <ele>755.7</ele>
        <time>2022-08-15T07:59:06Z</time>
      </trkpt>
      <trkpt lat="42.1779950" lon="-2.1772830">
        <ele>755.5</ele>
        <time>2022-08-15T07:59:07Z</time>
      </trkpt>
      <trkpt lat="42.1779920" lon="-2.1775010">
        <ele>755.2</ele>
        <time>2022-08-15T07:59:09Z</time>
      </trkpt>
      <trkpt lat="42.1779980" lon="-2.1777170">
        <ele>755.0</ele>
        <time>2022-08-15T07:59:11Z</time>
      </trkpt>
      <trkpt lat="42.1780000" lon="-2.1778240">
        <ele>754.8</ele>
        <time>2022-08-15T07:59:12Z</time>
      </trkpt>
      <trkpt lat="42.1780010" lon="-2.1780320">
        <ele>754.6</ele>
        <time>2022-08-15T07:59:14Z</time>
      </trkpt>
      <trkpt lat="42.1779860" lon="-2.1782280">
        <ele>754.1</ele>
        <time>2022-08-15T07:59:16Z</time>
      </trkpt>
      <trkpt lat="42.1779450" lon="-2.1784120">
        <ele>753.5</ele>
        <time>2022-08-15T07:59:18Z</time>
      </trkpt>
      <trkpt lat="42.1778720" lon="-2.1785570">
        <ele>752.7</ele>
        <time>2022-08-15T07:59:20Z</time>
      </trkpt>
      <trkpt lat="42.1778200" lon="-2.1786030">
        <ele>752.3</ele>
        <time>2022-08-15T07:59:21Z</time>
      </trkpt>
      <trkpt lat="42.1777600" lon="-2.1786330">
        <ele>751.9</ele>
        <time>2022-08-15T07:59:22Z</time>
      </trkpt>
      <trkpt lat="42.1775630" lon="-2.1786680">
        <ele>750.4</ele>
        <time>2022-08-15T07:59:25Z</time>
      </trkpt>
      <trkpt lat="42.1774940" lon="-2.1786720">
        <ele>749.8</ele>
        <time>2022-08-15T07:59:26Z</time>
      </trkpt>
      <trkpt lat="42.1774270" lon="-2.1786760">
        <ele>749.1</ele>
        <time>2022-08-15T07:59:27Z</time>
      </trkpt>
      <trkpt lat="42.1773030" lon="-2.1787020">
        <ele>748.0</ele>
        <time>2022-08-15T07:59:29Z</time>
      </trkpt>
      <trkpt lat="42.1772490" lon="-2.1787260">
        <ele>747.4</ele>
        <time>2022-08-15T07:59:30Z</time>
      </trkpt>
      <trkpt lat="42.1772020" lon="-2.1787630">
        <ele>747.0</ele>
        <time>2022-08-15T07:59:31Z</time>
      </trkpt>
      <trkpt lat="42.1771440" lon="-2.1788870">
        <ele>746.0</ele>
        <time>2022-08-15T07:59:33Z</time>
      </trkpt>
      <trkpt lat="42.1771180" lon="-2.1790540">
        <ele>744.9</ele>
        <time>2022-08-15T07:59:35Z</time>
      </trkpt>
      <trkpt lat="42.1771160" lon="-2.1791490">
        <ele>744.3</ele>
        <time>2022-08-15T07:59:36Z</time>
      </trkpt>
      <trkpt lat="42.1771200" lon="-2.1792430">
        <ele>743.7</ele>
        <time>2022-08-15T07:59:37Z</time>
      </trkpt>
      <trkpt lat="42.1771320" lon="-2.1793330">
        <ele>743.1</ele>
        <time>2022-08-15T07:59:38Z</time>
      </trkpt>
      <trkpt lat="42.1771560" lon="-2.1794170">
        <ele>742.5</ele>
        <time>2022-08-15T07:59:39Z</time>
      </trkpt>
      <trkpt lat="42.1771930" lon="-2.1794920">
        <ele>741.9</ele>
        <time>2022-08-15T07:59:40Z</time>
      </trkpt>
      <trkpt lat="42.1772400" lon="-2.1795620">
        <ele>741.2</ele>
        <time>2022-08-15T07:59:41Z</time>
      </trkpt>
      <trkpt lat="42.1773490" lon="-2.1796930">
        <ele>739.7</ele>
        <time>2022-08-15T07:59:43Z</time>
      </trkpt>
      <trkpt lat="42.1774050" lon="-2.1797530">
        <ele>739.0</ele>
        <time>2022-08-15T07:59:45Z</time>
      </trkpt>
      <trkpt lat="42.1775660" lon="-2.1799410">
        <ele>736.6</ele>
        <time>2022-08-15T07:59:47Z</time>
      </trkpt>
      <trkpt lat="42.1776540" lon="-2.1800420">
        <ele>735.3</ele>
        <time>2022-08-15T07:59:49Z</time>
      </trkpt>
      <trkpt lat="42.1777300" lon="-2.1801240">
        <ele>734.3</ele>
        <time>2022-08-15T07:59:51Z</time>
      </trkpt>
      <trkpt lat="42.1777950" lon="-2.1801250">
        <ele>733.7</ele>
        <time>2022-08-15T07:59:53Z</time>
      </trkpt>
      <trkpt lat="42.1778130" lon="-2.1800860">
        <ele>733.4</ele>
        <time>2022-08-15T07:59:54Z</time>
      </trkpt>
      <trkpt lat="42.1778060" lon="-2.1800320">
        <ele>733.1</ele>
        <time>2022-08-15T07:59:55Z</time>
      </trkpt>
      <trkpt lat="42.1777870" lon="-2.1799790">
        <ele>732.7</ele>
        <time>2022-08-15T07:59:56Z</time>
      </trkpt>
      <trkpt lat="42.1777600" lon="-2.1799260">
        <ele>732.4</ele>
        <time>2022-08-15T07:59:57Z</time>
      </trkpt>
      <trkpt lat="42.1776490" lon="-2.1797360">
        <ele>731.1</ele>
        <time>2022-08-15T08:00:00Z</time>
      </trkpt>
      <trkpt lat="42.1776200" lon="-2.1796600">
        <ele>730.6</ele>
        <time>2022-08-15T08:00:01Z</time>
      </trkpt>
      <trkpt lat="42.1776080" lon="-2.1795860">
        <ele>730.2</ele>
        <time>2022-08-15T08:00:02Z</time>
      </trkpt>
      <trkpt lat="42.1776190" lon="-2.1795140">
        <ele>729.8</ele>
        <time>2022-08-15T08:00:03Z</time>
      </trkpt>
      <trkpt lat="42.1776500" lon="-2.1794510">
        <ele>729.4</ele>
        <time>2022-08-15T08:00:04Z</time>
      </trkpt>
      <trkpt lat="42.1776940" lon="-2.1794020">
        <ele>728.9</ele>
        <time>2022-08-15T08:00:05Z</time>
      </trkpt>
      <trkpt lat="42.1777480" lon="-2.1793750">
        <ele>728.4</ele>
        <time>2022-08-15T08:00:06Z</time>
      </trkpt>
      <trkpt lat="42.1778120" lon="-2.1793620">
        <ele>727.8</ele>
        <time>2022-08-15T08:00:07Z</time>
      </trkpt>
      <trkpt lat="42.1778800" lon="-2.1793490">
        <ele>727.1</ele>
        <time>2022-08-15T08:00:08Z</time>
      </trkpt>
      <trkpt lat="42.1779540" lon="-2.1793380">
        <ele>726.4</ele>
        <time>2022-08-15T08:00:09Z</time>
      </trkpt>
      <trkpt lat="42.1780340" lon="-2.1793430">
        <ele>725.6</ele>
        <time>2022-08-15T08:00:10Z</time>
      </trkpt>
      <trkpt lat="42.1781160" lon="-2.1793620">
        <ele>724.9</ele>
        <time>2022-08-15T08:00:11Z</time>
      </trkpt>
      <trkpt lat="42.1783750" lon="-2.1794430">
        <ele>722.7</ele>
        <time>2022-08-15T08:00:14Z</time>
      </trkpt>
      <trkpt lat="42.1784620" lon="-2.1794770">
        <ele>722.0</ele>
        <time>2022-08-15T08:00:15Z</time>
      </trkpt>
      <trkpt lat="42.1786260" lon="-2.1795430">
        <ele>720.7</ele>
        <time>2022-08-15T08:00:17Z</time>
      </trkpt>
      <trkpt lat="42.1787570" lon="-2.1795920">
        <ele>719.2</ele>
        <time>2022-08-15T08:00:19Z</time>
      </trkpt>
      <trkpt lat="42.1788130" lon="-2.1795980">
        <ele>718.6</ele>
        <time>2022-08-15T08:00:20Z</time>
      </trkpt>
      <trkpt lat="42.1788700" lon="-2.1795820">
        <ele>717.8</ele>
        <time>2022-08-15T08:00:21Z</time>
      </trkpt>
      <trkpt lat="42.1789270" lon="-2.1795470">
        <ele>717.1</ele>
        <time>2022-08-15T08:00:22Z</time>
      </trkpt>
      <trkpt lat="42.1789880" lon="-2.1795040">
        <ele>716.3</ele>
        <time>2022-08-15T08:00:23Z</time>
      </trkpt>
      <trkpt lat="42.1790570" lon="-2.1794620">
        <ele>715.4</ele>
        <time>2022-08-15T08:00:24Z</time>
      </trkpt>
      <trkpt lat="42.1791300" lon="-2.1794310">
        <ele>714.6</ele>
        <time>2022-08-15T08:00:25Z</time>
      </trkpt>
      <trkpt lat="42.1792110" lon="-2.1794120">
        <ele>713.7</ele>
        <time>2022-08-15T08:00:26Z</time>
      </trkpt>
      <trkpt lat="42.1792950" lon="-2.1794030">
        <ele>712.9</ele>
        <time>2022-08-15T08:00:27Z</time>
      </trkpt>
      <trkpt lat="42.1794750" lon="-2.1793960">
        <ele>711.1</ele>
        <time>2022-08-15T08:00:29Z</time>
      </trkpt>
      <trkpt lat="42.1796540" lon="-2.1793850">
        <ele>709.3</ele>
        <time>2022-08-15T08:00:31Z</time>
      </trkpt>
      <trkpt lat="42.1797440" lon="-2.1793700">
        <ele>708.4</ele>
        <time>2022-08-15T08:00:32Z</time>
      </trkpt>
      <trkpt lat="42.1798290" lon="-2.1793520">
        <ele>707.5</ele>
        <time>2022-08-15T08:00:33Z</time>
      </trkpt>
      <trkpt lat="42.1799040" lon="-2.1793360">
        <ele>706.6</ele>
        <time>2022-08-15T08:00:34Z</time>
      </trkpt>
      <trkpt lat="42.1800280" lon="-2.1793160">
        <ele>705.1</ele>
        <time>2022-08-15T08:00:36Z</time>
      </trkpt>
      <trkpt lat="42.1800830" lon="-2.1793240">
        <ele>704.4</ele>
        <time>2022-08-15T08:00:37Z</time>
      </trkpt>
      <trkpt lat="42.1801360" lon="-2.1793490">
        <ele>703.8</ele>
        <time>2022-08-15T08:00:38Z</time>
      </trkpt>
      <trkpt lat="42.1802310" lon="-2.1794460">
        <ele>702.1</ele>
        <time>2022-08-15T08:00:40Z</time>
      </trkpt>
      <trkpt lat="42.1802780" lon="-2.1795080">
        <ele>701.1</ele>
        <time>2022-08-15T08:00:42Z</time>
      </trkpt>
      <trkpt lat="42.1803370" lon="-2.1795870">
        <ele>699.8</ele>
        <time>2022-08-15T08:00:43Z</time>
      </trkpt>
      <trkpt lat="42.1804610" lon="-2.1797530">
        <ele>697.4</ele>
        <time>2022-08-15T08:00:45Z</time>
      </trkpt>
      <trkpt lat="42.1805300" lon="-2.1798550">
        <ele>696.2</ele>
        <time>2022-08-15T08:00:46Z</time>
      </trkpt>
      <trkpt lat="42.1805780" lon="-2.1799300">
        <ele>695.4</ele>
        <time>2022-08-15T08:00:47Z</time>
      </trkpt>
      <trkpt lat="42.1806250" lon="-2.1800030">
        <ele>694.7</ele>
        <time>2022-08-15T08:00:48Z</time>
      </trkpt>
      <trkpt lat="42.1806750" lon="-2.1800640">
        <ele>694.0</ele>
        <time>2022-08-15T08:00:49Z</time>
      </trkpt>
      <trkpt lat="42.1807310" lon="-2.1801130">
        <ele>693.4</ele>
        <time>2022-08-15T08:00:50Z</time>
      </trkpt>
      <trkpt lat="42.1807930" lon="-2.1801500">
        <ele>692.7</ele>
        <time>2022-08-15T08:00:51Z</time>
      </trkpt>
      <trkpt lat="42.1808610" lon="-2.1801750">
        <ele>692.1</ele>
        <time>2022-08-15T08:00:52Z</time>
      </trkpt>
      <trkpt lat="42.1810000" lon="-2.1801950">
        <ele>690.8</ele>
        <time>2022-08-15T08:00:54Z</time>
      </trkpt>
      <trkpt lat="42.1811320" lon="-2.1801720">
        <ele>689.8</ele>
        <time>2022-08-15T08:00:56Z</time>
      </trkpt>
      <trkpt lat="42.1812670" lon="-2.1801060">
        <ele>688.8</ele>
        <time>2022-08-15T08:00:58Z</time>
      </trkpt>
      <trkpt lat="42.1813370" lon="-2.1800700">
        <ele>688.4</ele>
        <time>2022-08-15T08:00:59Z</time>
      </trkpt>
      <trkpt lat="42.1814110" lon="-2.1800350">
        <ele>688.0</ele>
        <time>2022-08-15T08:01:00Z</time>
      </trkpt>
      <trkpt lat="42.1814840" lon="-2.1800040">
        <ele>687.6</ele>
        <time>2022-08-15T08:01:01Z</time>
      </trkpt>
      <trkpt lat="42.1815550" lon="-2.1799770">
        <ele>687.3</ele>
        <time>2022-08-15T08:01:02Z</time>
      </trkpt>
      <trkpt lat="42.1816220" lon="-2.1799460">
        <ele>687.1</ele>
        <time>2022-08-15T08:01:03Z</time>
      </trkpt>
      <trkpt lat="42.1817560" lon="-2.1798890">
        <ele>686.8</ele>
        <time>2022-08-15T08:01:05Z</time>
      </trkpt>
      <trkpt lat="42.1818650" lon="-2.1799200">
        <ele>686.7</ele>
        <time>2022-08-15T08:01:07Z</time>
      </trkpt>
      <trkpt lat="42.1819050" lon="-2.1799540">
        <ele>686.7</ele>
        <time>2022-08-15T08:01:08Z</time>
      </trkpt>
      <trkpt lat="42.1819760" lon="-2.1800330">
        <ele>686.7</ele>
        <time>2022-08-15T08:01:10Z</time>
      </trkpt>
      <trkpt lat="42.1821000" lon="-2.1801540">
        <ele>686.7</ele>
        <time>2022-08-15T08:01:13Z</time>
      </trkpt>
      <trkpt lat="42.1821480" lon="-2.1801880">
        <ele>686.7</ele>
        <time>2022-08-15T08:01:14Z</time>
      </trkpt>
      <trkpt lat="42.1821960" lon="-2.1802170">
        <ele>686.8</ele>
        <time>2022-08-15T08:01:15Z</time>
      </trkpt>
      <trkpt lat="42.1822440" lon="-2.1802430">
        <ele>686.8</ele>
        <time>2022-08-15T08:01:16Z</time>
      </trkpt>
      <trkpt lat="42.1822880" lon="-2.1802610">
        <ele>686.9</ele>
        <time>2022-08-15T08:01:17Z</time>
      </trkpt>
      <trkpt lat="42.1823340" lon="-2.1802690">
        <ele>686.9</ele>
        <time>2022-08-15T08:01:18Z</time>
      </trkpt>
      <trkpt lat="42.1823820" lon="-2.1802720">
        <ele>687.0</ele>
        <time>2022-08-15T08:01:19Z</time>
      </trkpt>
      <trkpt lat="42.1824290" lon="-2.1802820">
        <ele>687.1</ele>
        <time>2022-08-15T08:01:20Z</time>
      </trkpt>
      <trkpt lat="42.1825140" lon="-2.1803090">
        <ele>687.3</ele>
        <time>2022-08-15T08:01:22Z</time>
      </trkpt>
      <trkpt lat="42.1825680" lon="-2.1803320">
        <ele>687.6</ele>
        <time>2022-08-15T08:01:24Z</time>
      </trkpt>
      <trkpt lat="42.1826090" lon="-2.1803500">
        <ele>687.9</ele>
        <time>2022-08-15T08:01:26Z</time>
      </trkpt>
      <trkpt lat="42.1826520" lon="-2.1803640">
        <ele>688.2</ele>
        <time>2022-08-15T08:01:28Z</time>
      </trkpt>
      <trkpt lat="42.1827020" lon="-2.1803830">
        <ele>688.5</ele>
        <time>2022-08-15T08:01:30Z</time>
      </trkpt>
      <trkpt lat="42.1827460" lon="-2.1804030">
        <ele>688.9</ele>
        <time>2022-08-15T08:01:32Z</time>
      </trkpt>
      <trkpt lat="42.1827800" lon="-2.1804140">
        <ele>689.1</ele>
        <time>2022-08-15T08:01:34Z</time>
      </trkpt>
      <trkpt lat="42.1828220" lon="-2.1804150">
        <ele>689.5</ele>
        <time>2022-08-15T08:01:36Z</time>
      </trkpt>
      <trkpt lat="42.1828440" lon="-2.1804140">
        <ele>689.6</ele>
        <time>2022-08-15T08:01:37Z</time>
      </trkpt>
      <trkpt lat="42.1828670" lon="-2.1804120">
        <ele>689.8</ele>
        <time>2022-08-15T08:01:38Z</time>
      </trkpt>
      <trkpt lat="42.1829340" lon="-2.1804170">
        <ele>690.4</ele>
        <time>2022-08-15T08:01:41Z</time>
      </trkpt>
      <trkpt lat="42.1829560" lon="-2.1804230">
        <ele>690.6</ele>
        <time>2022-08-15T08:01:42Z</time>
      </trkpt>
      <trkpt lat="42.1830180" lon="-2.1804460">
        <ele>691.2</ele>
        <time>2022-08-15T08:01:45Z</time>
      </trkpt>
      <trkpt lat="42.1830390" lon="-2.1804560">
        <ele>691.4</ele>
        <time>2022-08-15T08:01:46Z</time>
      </trkpt>
      <trkpt lat="42.1831430" lon="-2.1805110">
        <ele>692.5</ele>
        <time>2022-08-15T08:01:52Z</time>
      </trkpt>
      <trkpt lat="42.1831620" lon="-2.1805220">
        <ele>692.7</ele>
        <time>2022-08-15T08:01:53Z</time>
      </trkpt>
      <trkpt lat="42.1832510" lon="-2.1805690">
        <ele>693.7</ele>
        <time>2022-08-15T08:01:58Z</time>
      </trkpt>
      <trkpt lat="42.1833050" lon="-2.1805790">
        <ele>694.3</ele>
        <time>2022-08-15T08:02:01Z</time>
      </trkpt>
      <trkpt lat="42.1833530" lon="-2.1805850">
        <ele>695.6</ele>
        <time>2022-08-15T08:02:04Z</time>
      </trkpt>
      <trkpt lat="42.1833780" lon="-2.1805930">
        <ele>695.9</ele>
        <time>2022-08-15T08:02:06Z</time>
      </trkpt>
      <trkpt lat="42.1833880" lon="-2.1806030">
        <ele>696.0</ele>
        <time>2022-08-15T08:02:07Z</time>
      </trkpt>
      <trkpt lat="42.1833940" lon="-2.1806240">
        <ele>696.1</ele>
        <time>2022-08-15T08:02:08Z</time>
      </trkpt>
      <trkpt lat="42.1833860" lon="-2.1807170">
        <ele>696.7</ele>
        <time>2022-08-15T08:02:12Z</time>
      </trkpt>
      <trkpt lat="42.1833820" lon="-2.1807310">
        <ele>696.8</ele>
        <time>2022-08-15T08:02:13Z</time>
      </trkpt>
      <trkpt lat="42.1833770" lon="-2.1807520">
        <ele>696.9</ele>
        <time>2022-08-15T08:02:16Z</time>
      </trkpt>
      <trkpt lat="42.1833770" lon="-2.1807520">
        <ele>696.9</ele>
        <time>2022-08-15T08:02:53Z</time>
      </trkpt>
      <trkpt lat="42.1833770" lon="-2.1807540">
        <ele>696.9</ele>
        <time>2022-08-15T08:02:54Z</time>
      </trkpt>
      <trkpt lat="42.1833670" lon="-2.1807700">
        <ele>697.0</ele>
        <time>2022-08-15T08:02:55Z</time>
      </trkpt>
      <trkpt lat="42.1833430" lon="-2.1808120">
        <ele>697.3</ele>
        <time>2022-08-15T08:02:57Z</time>
      </trkpt>
      <trkpt lat="42.1833140" lon="-2.1808540">
        <ele>697.6</ele>
        <time>2022-08-15T08:02:59Z</time>
      </trkpt>
      <trkpt lat="42.1833000" lon="-2.1808740">
        <ele>697.7</ele>
        <time>2022-08-15T08:03:00Z</time>
      </trkpt>
      <trkpt lat="42.1832760" lon="-2.1809090">
        <ele>697.9</ele>
        <time>2022-08-15T08:03:02Z</time>
      </trkpt>
      <trkpt lat="42.1832470" lon="-2.1809660">
        <ele>698.2</ele>
        <time>2022-08-15T08:03:05Z</time>
      </trkpt>
      <trkpt lat="42.1832130" lon="-2.1809860">
        <ele>698.4</ele>
        <time>2022-08-15T08:03:07Z</time>
      </trkpt>
      <trkpt lat="42.1831640" lon="-2.1809920">
        <ele>698.5</ele>
        <time>2022-08-15T08:03:10Z</time>
      </trkpt>
      <trkpt lat="42.1831360" lon="-2.1809750">
        <ele>698.6</ele>
        <time>2022-08-15T08:03:12Z</time>
      </trkpt>
      <trkpt lat="42.1831270" lon="-2.1809600">
        <ele>698.6</ele>
        <time>2022-08-15T08:03:13Z</time>
      </trkpt>
      <trkpt lat="42.1831200" lon="-2.1809390">
        <ele>698.6</ele>
        <time>2022-08-15T08:03:14Z</time>
      </trkpt>
      <trkpt lat="42.1831080" lon="-2.1808930">
        <ele>698.7</ele>
        <time>2022-08-15T08:03:16Z</time>
      </trkpt>
      <trkpt lat="42.1830890" lon="-2.1808300">
        <ele>698.7</ele>
        <time>2022-08-15T08:03:19Z</time>
      </trkpt>
      <trkpt lat="42.1830770" lon="-2.1808150">
        <ele>698.8</ele>
        <time>2022-08-15T08:03:20Z</time>
      </trkpt>
      <trkpt lat="42.1830460" lon="-2.1807850">
        <ele>698.8</ele>
        <time>2022-08-15T08:03:22Z</time>
      </trkpt>
      <trkpt lat="42.1830100" lon="-2.1807520">
        <ele>698.8</ele>
        <time>2022-08-15T08:03:24Z</time>
      </trkpt>
      <trkpt lat="42.1829680" lon="-2.1807150">
        <ele>698.7</ele>
        <time>2022-08-15T08:03:27Z</time>
      </trkpt>
      <trkpt lat="42.1829340" lon="-2.1807090">
        <ele>698.7</ele>
        <time>2022-08-15T08:03:29Z</time>
      </trkpt>
      <trkpt lat="42.1828870" lon="-2.1807280">
        <ele>698.6</ele>
        <time>2022-08-15T08:03:32Z</time>
      </trkpt>
      <trkpt lat="42.1828380" lon="-2.1807850">
        <ele>698.4</ele>
        <time>2022-08-15T08:03:36Z</time>
      </trkpt>
      <trkpt lat="42.1828150" lon="-2.1808110">
        <ele>698.4</ele>
        <time>2022-08-15T08:03:38Z</time>
      </trkpt>
      <trkpt lat="42.1827710" lon="-2.1808730">
        <ele>698.6</ele>
        <time>2022-08-15T08:03:42Z</time>
      </trkpt>
      <trkpt lat="42.1827520" lon="-2.1809090">
        <ele>698.9</ele>
        <time>2022-08-15T08:03:44Z</time>
      </trkpt>
      <trkpt lat="42.1827290" lon="-2.1809380">
        <ele>699.2</ele>
        <time>2022-08-15T08:03:46Z</time>
      </trkpt>
      <trkpt lat="42.1826900" lon="-2.1809970">
        <ele>702.4</ele>
        <time>2022-08-15T08:03:50Z</time>
      </trkpt>
      <trkpt lat="42.1826480" lon="-2.1810560">
        <ele>702.7</ele>
        <time>2022-08-15T08:03:54Z</time>
      </trkpt>
      <trkpt lat="42.1826230" lon="-2.1811270">
        <ele>702.9</ele>
        <time>2022-08-15T08:03:58Z</time>
      </trkpt>
      <trkpt lat="42.1826070" lon="-2.1811600">
        <ele>706.5</ele>
        <time>2022-08-15T08:04:00Z</time>
      </trkpt>
      <trkpt lat="42.1825850" lon="-2.1811890">
        <ele>706.7</ele>
        <time>2022-08-15T08:04:02Z</time>
      </trkpt>
      <trkpt lat="42.1825640" lon="-2.1812240">
        <ele>706.9</ele>
        <time>2022-08-15T08:04:04Z</time>
      </trkpt>
      <trkpt lat="42.1825440" lon="-2.1812560">
        <ele>707.2</ele>
        <time>2022-08-15T08:04:06Z</time>
      </trkpt>
      <trkpt lat="42.1824890" lon="-2.1813370">
        <ele>710.4</ele>
        <time>2022-08-15T08:04:11Z</time>
      </trkpt>
      <trkpt lat="42.1824380" lon="-2.1814330">
        <ele>710.3</ele>
        <time>2022-08-15T08:04:17Z</time>
      </trkpt>
      <trkpt lat="42.1824090" lon="-2.1814910">
        <ele>713.4</ele>
        <time>2022-08-15T08:04:20Z</time>
      </trkpt>
      <trkpt lat="42.1823830" lon="-2.1815430">
        <ele>713.6</ele>
        <time>2022-08-15T08:04:23Z</time>
      </trkpt>
      <trkpt lat="42.1823750" lon="-2.1815600">
        <ele>713.8</ele>
        <time>2022-08-15T08:04:24Z</time>
      </trkpt>
      <trkpt lat="42.1823500" lon="-2.1816050">
        <ele>713.6</ele>
        <time>2022-08-15T08:04:27Z</time>
      </trkpt>
      <trkpt lat="42.1823260" lon="-2.1816590">
        <ele>716.6</ele>
        <time>2022-08-15T08:04:30Z</time>
      </trkpt>
      <trkpt lat="42.1823130" lon="-2.1816740">
        <ele>716.8</ele>
        <time>2022-08-15T08:04:31Z</time>
      </trkpt>
      <trkpt lat="42.1822770" lon="-2.1817090">
        <ele>717.1</ele>
        <time>2022-08-15T08:04:34Z</time>
      </trkpt>
      <trkpt lat="42.1822580" lon="-2.1817650">
        <ele>717.3</ele>
        <time>2022-08-15T08:04:37Z</time>
      </trkpt>
      <trkpt lat="42.1822540" lon="-2.1817860">
        <ele>717.5</ele>
        <time>2022-08-15T08:04:38Z</time>
      </trkpt>
      <trkpt lat="42.1822530" lon="-2.1818090">
        <ele>717.8</ele>
        <time>2022-08-15T08:04:39Z</time>
      </trkpt>
      <trkpt lat="42.1822410" lon="-2.1818930">
        <ele>720.3</ele>
        <time>2022-08-15T08:04:43Z</time>
      </trkpt>
      <trkpt lat="42.1822410" lon="-2.1819330">
        <ele>720.5</ele>
        <time>2022-08-15T08:04:45Z</time>
      </trkpt>
      <trkpt lat="42.1822420" lon="-2.1819520">
        <ele>720.7</ele>
        <time>2022-08-15T08:04:46Z</time>
      </trkpt>
      <trkpt lat="42.1822870" lon="-2.1820320">
        <ele>723.5</ele>
        <time>2022-08-15T08:04:51Z</time>
      </trkpt>
      <trkpt lat="42.1823600" lon="-2.1820380">
        <ele>724.3</ele>
        <time>2022-08-15T08:04:55Z</time>
      </trkpt>
      <trkpt lat="42.1824200" lon="-2.1820560">
        <ele>724.6</ele>
        <time>2022-08-15T08:04:58Z</time>
      </trkpt>
      <trkpt lat="42.1825630" lon="-2.1820820">
        <ele>724.5</ele>
        <time>2022-08-15T08:05:05Z</time>
      </trkpt>
      <trkpt lat="42.1826330" lon="-2.1820750">
        <ele>724.5</ele>
        <time>2022-08-15T08:05:08Z</time>
      </trkpt>
      <trkpt lat="42.1828190" lon="-2.1821420">
        <ele>724.6</ele>
        <time>2022-08-15T08:05:14Z</time>
      </trkpt>
      <trkpt lat="42.1828930" lon="-2.1822420">
        <ele>724.6</ele>
        <time>2022-08-15T08:05:17Z</time>
      </trkpt>
      <trkpt lat="42.1829360" lon="-2.1823110">
        <ele>724.7</ele>
        <time>2022-08-15T08:05:19Z</time>
      </trkpt>
      <trkpt lat="42.1830240" lon="-2.1823570">
        <ele>724.7</ele>
        <time>2022-08-15T08:05:22Z</time>
      </trkpt>
      <trkpt lat="42.1830540" lon="-2.1823420">
        <ele>724.6</ele>
        <time>2022-08-15T08:05:23Z</time>
      </trkpt>
      <trkpt lat="42.1831350" lon="-2.1822340">
        <ele>724.5</ele>
        <time>2022-08-15T08:05:26Z</time>
      </trkpt>
      <trkpt lat="42.1831610" lon="-2.1821940">
        <ele>724.5</ele>
        <time>2022-08-15T08:05:27Z</time>
      </trkpt>
      <trkpt lat="42.1832430" lon="-2.1820680">
        <ele>724.4</ele>
        <time>2022-08-15T08:05:30Z</time>
      </trkpt>
      <trkpt lat="42.1833030" lon="-2.1819880">
        <ele>724.3</ele>
        <time>2022-08-15T08:05:32Z</time>
      </trkpt>
      <trkpt lat="42.1833670" lon="-2.1819140">
        <ele>724.3</ele>
        <time>2022-08-15T08:05:34Z</time>
      </trkpt>
      <trkpt lat="42.1834000" lon="-2.1818780">
        <ele>724.3</ele>
        <time>2022-08-15T08:05:35Z</time>
      </trkpt>
      <trkpt lat="42.1835080" lon="-2.1817870">
        <ele>724.2</ele>
        <time>2022-08-15T08:05:38Z</time>
      </trkpt>
      <trkpt lat="42.1835510" lon="-2.1817700">
        <ele>724.1</ele>
        <time>2022-08-15T08:05:39Z</time>
      </trkpt>
      <trkpt lat="42.1835970" lon="-2.1817610">
        <ele>724.1</ele>
        <time>2022-08-15T08:05:40Z</time>
      </trkpt>
      <trkpt lat="42.1837740" lon="-2.1817900">
        <ele>724.0</ele>
        <time>2022-08-15T08:05:44Z</time>
      </trkpt>
      <trkpt lat="42.1840620" lon="-2.1819400">
        <ele>724.0</ele>
        <time>2022-08-15T08:05:51Z</time>
      </trkpt>
      <trkpt lat="42.1842300" lon="-2.1820040">
        <ele>723.9</ele>
        <time>2022-08-15T08:05:55Z</time>
      </trkpt>
      <trkpt lat="42.1843980" lon="-2.1820550">
        <ele>723.8</ele>
        <time>2022-08-15T08:05:59Z</time>
      </trkpt>
      <trkpt lat="42.1846350" lon="-2.1820700">
        <ele>723.6</ele>
        <time>2022-08-15T08:06:04Z</time>
      </trkpt>
      <trkpt lat="42.1847390" lon="-2.1820770">
        <ele>723.5</ele>
        <time>2022-08-15T08:06:06Z</time>
      </trkpt>
      <trkpt lat="42.1847920" lon="-2.1820740">
        <ele>723.4</ele>
        <time>2022-08-15T08:06:07Z</time>
      </trkpt>
      <trkpt lat="42.1848450" lon="-2.1820670">
        <ele>723.4</ele>
        <time>2022-08-15T08:06:08Z</time>
      </trkpt>
      <trkpt lat="42.1849480" lon="-2.1820380">
        <ele>723.3</ele>
        <time>2022-08-15T08:06:10Z</time>
      </trkpt>
      <trkpt lat="42.1851210" lon="-2.1819610">
        <ele>723.2</ele>
        <time>2022-08-15T08:06:14Z</time>
      </trkpt>
      <trkpt lat="42.1851660" lon="-2.1819420">
        <ele>723.1</ele>
        <time>2022-08-15T08:06:15Z</time>
      </trkpt>
      <trkpt lat="42.1853180" lon="-2.1818740">
        <ele>722.9</ele>
        <time>2022-08-15T08:06:18Z</time>
      </trkpt>
      <trkpt lat="42.1854170" lon="-2.1818340">
        <ele>722.8</ele>
        <time>2022-08-15T08:06:20Z</time>
      </trkpt>
      <trkpt lat="42.1855170" lon="-2.1817940">
        <ele>722.7</ele>
        <time>2022-08-15T08:06:22Z</time>
      </trkpt>
      <trkpt lat="42.1859070" lon="-2.1817060">
        <ele>722.1</ele>
        <time>2022-08-15T08:06:29Z</time>
      </trkpt>
      <trkpt lat="42.1860740" lon="-2.1816850">
        <ele>722.0</ele>
        <time>2022-08-15T08:06:32Z</time>
      </trkpt>
      <trkpt lat="42.1861860" lon="-2.1816680">
        <ele>721.9</ele>
        <time>2022-08-15T08:06:34Z</time>
      </trkpt>
      <trkpt lat="42.1862950" lon="-2.1816490">
        <ele>721.8</ele>
        <time>2022-08-15T08:06:36Z</time>
      </trkpt>
      <trkpt lat="42.1865060" lon="-2.1816150">
        <ele>721.7</ele>
        <time>2022-08-15T08:06:40Z</time>
      </trkpt>
      <trkpt lat="42.1867600" lon="-2.1815950">
        <ele>721.6</ele>
        <time>2022-08-15T08:06:45Z</time>
      </trkpt>
      <trkpt lat="42.1869190" lon="-2.1815970">
        <ele>721.6</ele>
        <time>2022-08-15T08:06:48Z</time>
      </trkpt>
      <trkpt lat="42.1869720" lon="-2.1815950">
        <ele>721.6</ele>
        <time>2022-08-15T08:06:49Z</time>
      </trkpt>
      <trkpt lat="42.1871200" lon="-2.1815760">
        <ele>721.6</ele>
        <time>2022-08-15T08:06:52Z</time>
      </trkpt>
      <trkpt lat="42.1871630" lon="-2.1815600">
        <ele>721.6</ele>
        <time>2022-08-15T08:06:53Z</time>
      </trkpt>
      <trkpt lat="42.1872020" lon="-2.1815400">
        <ele>721.7</ele>
        <time>2022-08-15T08:06:54Z</time>
      </trkpt>
      <trkpt lat="42.1872420" lon="-2.1815170">
        <ele>721.7</ele>
        <time>2022-08-15T08:06:55Z</time>
      </trkpt>
      <trkpt lat="42.1873140" lon="-2.1814610">
        <ele>721.7</ele>
        <time>2022-08-15T08:06:57Z</time>
      </trkpt>
      <trkpt lat="42.1874070" lon="-2.1813370">
        <ele>721.7</ele>
        <time>2022-08-15T08:07:00Z</time>
      </trkpt>
      <trkpt lat="42.1874190" lon="-2.1811810">
        <ele>721.7</ele>
        <time>2022-08-15T08:07:03Z</time>
      </trkpt>
      <trkpt lat="42.1874080" lon="-2.1808220">
        <ele>722.3</ele>
        <time>2022-08-15T08:07:10Z</time>
      </trkpt>
      <trkpt lat="42.1874170" lon="-2.1807740">
        <ele>722.4</ele>
        <time>2022-08-15T08:07:11Z</time>
      </trkpt>
      <trkpt lat="42.1874370" lon="-2.1806860">
        <ele>722.8</ele>
        <time>2022-08-15T08:07:13Z</time>
      </trkpt>
      <trkpt lat="42.1874640" lon="-2.1805860">
        <ele>723.4</ele>
        <time>2022-08-15T08:07:15Z</time>
      </trkpt>
      <trkpt lat="42.1874950" lon="-2.1804760">
        <ele>724.1</ele>
        <time>2022-08-15T08:07:17Z</time>
      </trkpt>
      <trkpt lat="42.1875050" lon="-2.1804150">
        <ele>724.6</ele>
        <time>2022-08-15T08:07:18Z</time>
      </trkpt>
      <trkpt lat="42.1875100" lon="-2.1803500">
        <ele>725.1</ele>
        <time>2022-08-15T08:07:19Z</time>
      </trkpt>
      <trkpt lat="42.1875190" lon="-2.1802310">
        <ele>726.0</ele>
        <time>2022-08-15T08:07:21Z</time>
      </trkpt>
      <trkpt lat="42.1875420" lon="-2.1801390">
        <ele>725.8</ele>
        <time>2022-08-15T08:07:23Z</time>
      </trkpt>
      <trkpt lat="42.1875570" lon="-2.1800980">
        <ele>725.6</ele>
        <time>2022-08-15T08:07:24Z</time>
      </trkpt>
      <trkpt lat="42.1875820" lon="-2.1800180">
        <ele>725.2</ele>
        <time>2022-08-15T08:07:26Z</time>
      </trkpt>
      <trkpt lat="42.1876040" lon="-2.1799230">
        <ele>724.5</ele>
        <time>2022-08-15T08:07:28Z</time>
      </trkpt>
      <trkpt lat="42.1876170" lon="-2.1798680">
        <ele>724.1</ele>
        <time>2022-08-15T08:07:29Z</time>
      </trkpt>
      <trkpt lat="42.1876270" lon="-2.1798110">
        <ele>723.6</ele>
        <time>2022-08-15T08:07:30Z</time>
      </trkpt>
      <trkpt lat="42.1876140" lon="-2.1797510">
        <ele>723.1</ele>
        <time>2022-08-15T08:07:31Z</time>
      </trkpt>
      <trkpt lat="42.1875720" lon="-2.1796250">
        <ele>721.8</ele>
        <time>2022-08-15T08:07:33Z</time>
      </trkpt>
      <trkpt lat="42.1875110" lon="-2.1795110">
        <ele>720.4</ele>
        <time>2022-08-15T08:07:35Z</time>
      </trkpt>
      <trkpt lat="42.1874570" lon="-2.1794040">
        <ele>719.2</ele>
        <time>2022-08-15T08:07:37Z</time>
      </trkpt>
      <trkpt lat="42.1874400" lon="-2.1793460">
        <ele>718.1</ele>
        <time>2022-08-15T08:07:38Z</time>
      </trkpt>
      <trkpt lat="42.1874400" lon="-2.1792870">
        <ele>717.6</ele>
        <time>2022-08-15T08:07:39Z</time>
      </trkpt>
      <trkpt lat="42.1874990" lon="-2.1791770">
        <ele>716.4</ele>
        <time>2022-08-15T08:07:41Z</time>
      </trkpt>
      <trkpt lat="42.1875540" lon="-2.1791340">
        <ele>715.7</ele>
        <time>2022-08-15T08:07:42Z</time>
      </trkpt>
      <trkpt lat="42.1876190" lon="-2.1791150">
        <ele>715.0</ele>
        <time>2022-08-15T08:07:43Z</time>
      </trkpt>
      <trkpt lat="42.1876890" lon="-2.1791300">
        <ele>714.5</ele>
        <time>2022-08-15T08:07:44Z</time>
      </trkpt>
      <trkpt lat="42.1877590" lon="-2.1791770">
        <ele>714.3</ele>
        <time>2022-08-15T08:07:45Z</time>
      </trkpt>
      <trkpt lat="42.1878830" lon="-2.1793260">
        <ele>713.8</ele>
        <time>2022-08-15T08:07:47Z</time>
      </trkpt>
      <trkpt lat="42.1879450" lon="-2.1794060">
        <ele>713.6</ele>
        <time>2022-08-15T08:07:48Z</time>
      </trkpt>
      <trkpt lat="42.1880060" lon="-2.1794890">
        <ele>713.0</ele>
        <time>2022-08-15T08:07:49Z</time>
      </trkpt>
      <trkpt lat="42.1880650" lon="-2.1795720">
        <ele>712.4</ele>
        <time>2022-08-15T08:07:50Z</time>
      </trkpt>
      <trkpt lat="42.1882580" lon="-2.1798040">
        <ele>710.3</ele>
        <time>2022-08-15T08:07:53Z</time>
      </trkpt>
      <trkpt lat="42.1884080" lon="-2.1799530">
        <ele>708.6</ele>
        <time>2022-08-15T08:07:55Z</time>
      </trkpt>
      <trkpt lat="42.1885620" lon="-2.1801170">
        <ele>706.9</ele>
        <time>2022-08-15T08:07:57Z</time>
      </trkpt>
      <trkpt lat="42.1886340" lon="-2.1801890">
        <ele>706.2</ele>
        <time>2022-08-15T08:07:58Z</time>
      </trkpt>
      <trkpt lat="42.1887100" lon="-2.1802360">
        <ele>705.4</ele>
        <time>2022-08-15T08:07:59Z</time>
      </trkpt>
      <trkpt lat="42.1887890" lon="-2.1802550">
        <ele>704.6</ele>
        <time>2022-08-15T08:08:00Z</time>
      </trkpt>
      <trkpt lat="42.1888600" lon="-2.1802400">
        <ele>703.9</ele>
        <time>2022-08-15T08:08:01Z</time>
      </trkpt>
      <trkpt lat="42.1889260" lon="-2.1801760">
        <ele>703.1</ele>
        <time>2022-08-15T08:08:02Z</time>
      </trkpt>
      <trkpt lat="42.1889850" lon="-2.1800890">
        <ele>702.2</ele>
        <time>2022-08-15T08:08:03Z</time>
      </trkpt>
      <trkpt lat="42.1890360" lon="-2.1799770">
        <ele>701.2</ele>
        <time>2022-08-15T08:08:04Z</time>
      </trkpt>
      <trkpt lat="42.1890740" lon="-2.1798460">
        <ele>700.1</ele>
        <time>2022-08-15T08:08:05Z</time>
      </trkpt>
      <trkpt lat="42.1890860" lon="-2.1797040">
        <ele>699.1</ele>
        <time>2022-08-15T08:08:06Z</time>
      </trkpt>
      <trkpt lat="42.1890840" lon="-2.1795540">
        <ele>698.0</ele>
        <time>2022-08-15T08:08:07Z</time>
      </trkpt>
      <trkpt lat="42.1890780" lon="-2.1792730">
        <ele>695.9</ele>
        <time>2022-08-15T08:08:09Z</time>
      </trkpt>
      <trkpt lat="42.1890790" lon="-2.1790320">
        <ele>694.1</ele>
        <time>2022-08-15T08:08:11Z</time>
      </trkpt>
      <trkpt lat="42.1890790" lon="-2.1788150">
        <ele>692.6</ele>
        <time>2022-08-15T08:08:13Z</time>
      </trkpt>
      <trkpt lat="42.1890820" lon="-2.1787250">
        <ele>692.1</ele>
        <time>2022-08-15T08:08:14Z</time>
      </trkpt>
      <trkpt lat="42.1890910" lon="-2.1786160">
        <ele>691.7</ele>
        <time>2022-08-15T08:08:16Z</time>
      </trkpt>
      <trkpt lat="42.1890910" lon="-2.1785420">
        <ele>691.7</ele>
        <time>2022-08-15T08:08:17Z</time>
      </trkpt>
      <trkpt lat="42.1890860" lon="-2.1784890">
        <ele>691.6</ele>
        <time>2022-08-15T08:08:18Z</time>
      </trkpt>
      <trkpt lat="42.1890740" lon="-2.1784330">
        <ele>691.6</ele>
        <time>2022-08-15T08:08:19Z</time>
      </trkpt>
      <trkpt lat="42.1890530" lon="-2.1783800">
        <ele>691.5</ele>
        <time>2022-08-15T08:08:20Z</time>
      </trkpt>
      <trkpt lat="42.1889820" lon="-2.1783020">
        <ele>691.3</ele>
        <time>2022-08-15T08:08:22Z</time>
      </trkpt>
      <trkpt lat="42.1889260" lon="-2.1782480">
        <ele>691.1</ele>
        <time>2022-08-15T08:08:23Z</time>
      </trkpt>
      <trkpt lat="42.1888750" lon="-2.1782020">
        <ele>691.0</ele>
        <time>2022-08-15T08:08:24Z</time>
      </trkpt>
      <trkpt lat="42.1887660" lon="-2.1781180">
        <ele>690.7</ele>
        <time>2022-08-15T08:08:26Z</time>
      </trkpt>
      <trkpt lat="42.1887110" lon="-2.1780800">
        <ele>690.6</ele>
        <time>2022-08-15T08:08:27Z</time>
      </trkpt>
      <trkpt lat="42.1885630" lon="-2.1779820">
        <ele>690.2</ele>
        <time>2022-08-15T08:08:30Z</time>
      </trkpt>
      <trkpt lat="42.1884540" lon="-2.1779150">
        <ele>689.9</ele>
        <time>2022-08-15T08:08:33Z</time>
      </trkpt>
      <trkpt lat="42.1884350" lon="-2.1778880">
        <ele>689.9</ele>
        <time>2022-08-15T08:08:34Z</time>
      </trkpt>
      <trkpt lat="42.1884310" lon="-2.1778220">
        <ele>689.7</ele>
        <time>2022-08-15T08:08:36Z</time>
      </trkpt>
      <trkpt lat="42.1884460" lon="-2.1777900">
        <ele>689.7</ele>
        <time>2022-08-15T08:08:37Z</time>
      </trkpt>
      <trkpt lat="42.1884950" lon="-2.1777570">
        <ele>688.5</ele>
        <time>2022-08-15T08:08:39Z</time>
      </trkpt>
      <trkpt lat="42.1886060" lon="-2.1777240">
        <ele>687.8</ele>
        <time>2022-08-15T08:08:42Z</time>
      </trkpt>
      <trkpt lat="42.1887320" lon="-2.1776950">
        <ele>687.1</ele>
        <time>2022-08-15T08:08:44Z</time>
      </trkpt>
      <trkpt lat="42.1889440" lon="-2.1776420">
        <ele>686.3</ele>
        <time>2022-08-15T08:08:47Z</time>
      </trkpt>
      <trkpt lat="42.1890140" lon="-2.1776170">
        <ele>686.0</ele>
        <time>2022-08-15T08:08:48Z</time>
      </trkpt>
      <trkpt lat="42.1890840" lon="-2.1775930">
        <ele>685.8</ele>
        <time>2022-08-15T08:08:49Z</time>
      </trkpt>
      <trkpt lat="42.1892270" lon="-2.1775530">
        <ele>685.2</ele>
        <time>2022-08-15T08:08:51Z</time>
      </trkpt>
      <trkpt lat="42.1893570" lon="-2.1775130">
        <ele>684.6</ele>
        <time>2022-08-15T08:08:53Z</time>
      </trkpt>
      <trkpt lat="42.1894060" lon="-2.1774780">
        <ele>684.3</ele>
        <time>2022-08-15T08:08:54Z</time>
      </trkpt>
      <trkpt lat="42.1894410" lon="-2.1774310">
        <ele>684.0</ele>
        <time>2022-08-15T08:08:55Z</time>
      </trkpt>
      <trkpt lat="42.1894640" lon="-2.1773080">
        <ele>682.9</ele>
        <time>2022-08-15T08:08:57Z</time>
      </trkpt>
      <trkpt lat="42.1895060" lon="-2.1771460">
        <ele>682.2</ele>
        <time>2022-08-15T08:08:59Z</time>
      </trkpt>
      <trkpt lat="42.1895440" lon="-2.1770870">
        <ele>681.8</ele>
        <time>2022-08-15T08:09:00Z</time>
      </trkpt>
      <trkpt lat="42.1895810" lon="-2.1770610">
        <ele>681.5</ele>
        <time>2022-08-15T08:09:01Z</time>
      </trkpt>
      <trkpt lat="42.1896960" lon="-2.1770380">
        <ele>680.7</ele>
        <time>2022-08-15T08:09:03Z</time>
      </trkpt>
      <trkpt lat="42.1897590" lon="-2.1770380">
        <ele>680.2</ele>
        <time>2022-08-15T08:09:04Z</time>
      </trkpt>
      <trkpt lat="42.1898940" lon="-2.1770390">
        <ele>679.2</ele>
        <time>2022-08-15T08:09:06Z</time>
      </trkpt>
      <trkpt lat="42.1899580" lon="-2.1770130">
        <ele>678.8</ele>
        <time>2022-08-15T08:09:07Z</time>
      </trkpt>
      <trkpt lat="42.1900160" lon="-2.1769570">
        <ele>678.3</ele>
        <time>2022-08-15T08:09:08Z</time>
      </trkpt>
      <trkpt lat="42.1901170" lon="-2.1768180">
        <ele>677.6</ele>
        <time>2022-08-15T08:09:10Z</time>
      </trkpt>
      <trkpt lat="42.1901510" lon="-2.1767660">
        <ele>677.3</ele>
        <time>2022-08-15T08:09:11Z</time>
      </trkpt>
      <trkpt lat="42.1902520" lon="-2.1766400">
        <ele>676.8</ele>
        <time>2022-08-15T08:09:13Z</time>
      </trkpt>
      <trkpt lat="42.1902940" lon="-2.1766060">
        <ele>676.6</ele>
        <time>2022-08-15T08:09:14Z</time>
      </trkpt>
      <trkpt lat="42.1904140" lon="-2.1765420">
        <ele>676.1</ele>
        <time>2022-08-15T08:09:16Z</time>
      </trkpt>
      <trkpt lat="42.1904800" lon="-2.1765110">
        <ele>675.8</ele>
        <time>2022-08-15T08:09:17Z</time>
      </trkpt>
      <trkpt lat="42.1905490" lon="-2.1764840">
        <ele>675.5</ele>
        <time>2022-08-15T08:09:18Z</time>
      </trkpt>
      <trkpt lat="42.1906190" lon="-2.1764600">
        <ele>675.1</ele>
        <time>2022-08-15T08:09:19Z</time>
      </trkpt>
      <trkpt lat="42.1907680" lon="-2.1764220">
        <ele>674.5</ele>
        <time>2022-08-15T08:09:21Z</time>
      </trkpt>
      <trkpt lat="42.1909930" lon="-2.1763490">
        <ele>673.4</ele>
        <time>2022-08-15T08:09:24Z</time>
      </trkpt>
      <trkpt lat="42.1911560" lon="-2.1763010">
        <ele>672.8</ele>
        <time>2022-08-15T08:09:26Z</time>
      </trkpt>
      <trkpt lat="42.1912120" lon="-2.1762800">
        <ele>672.6</ele>
        <time>2022-08-15T08:09:27Z</time>
      </trkpt>
      <trkpt lat="42.1913490" lon="-2.1762300">
        <ele>672.1</ele>
        <time>2022-08-15T08:09:29Z</time>
      </trkpt>
      <trkpt lat="42.1914170" lon="-2.1762090">
        <ele>671.8</ele>
        <time>2022-08-15T08:09:30Z</time>
      </trkpt>
      <trkpt lat="42.1914940" lon="-2.1761780">
        <ele>671.5</ele>
        <time>2022-08-15T08:09:31Z</time>
      </trkpt>
      <trkpt lat="42.1915830" lon="-2.1761260">
        <ele>671.1</ele>
        <time>2022-08-15T08:09:33Z</time>
      </trkpt>
      <trkpt lat="42.1916220" lon="-2.1760980">
        <ele>670.9</ele>
        <time>2022-08-15T08:09:34Z</time>
      </trkpt>
      <trkpt lat="42.1917140" lon="-2.1760300">
        <ele>670.5</ele>
        <time>2022-08-15T08:09:36Z</time>
      </trkpt>
      <trkpt lat="42.1918110" lon="-2.1759920">
        <ele>670.1</ele>
        <time>2022-08-15T08:09:38Z</time>
      </trkpt>
      <trkpt lat="42.1919960" lon="-2.1759430">
        <ele>669.4</ele>
        <time>2022-08-15T08:09:41Z</time>
      </trkpt>
      <trkpt lat="42.1921910" lon="-2.1758820">
        <ele>668.7</ele>
        <time>2022-08-15T08:09:44Z</time>
      </trkpt>
      <trkpt lat="42.1926280" lon="-2.1757480">
        <ele>667.1</ele>
        <time>2022-08-15T08:09:50Z</time>
      </trkpt>
      <trkpt lat="42.1927740" lon="-2.1757190">
        <ele>666.6</ele>
        <time>2022-08-15T08:09:52Z</time>
      </trkpt>
      <trkpt lat="42.1930540" lon="-2.1756460">
        <ele>665.6</ele>
        <time>2022-08-15T08:09:56Z</time>
      </trkpt>
      <trkpt lat="42.1931290" lon="-2.1756250">
        <ele>665.3</ele>
        <time>2022-08-15T08:09:57Z</time>
      </trkpt>
      <trkpt lat="42.1932020" lon="-2.1756040">
        <ele>665.0</ele>
        <time>2022-08-15T08:09:58Z</time>
      </trkpt>
      <trkpt lat="42.1932760" lon="-2.1755830">
        <ele>664.8</ele>
        <time>2022-08-15T08:09:59Z</time>
      </trkpt>
      <trkpt lat="42.1934240" lon="-2.1755440">
        <ele>664.2</ele>
        <time>2022-08-15T08:10:01Z</time>
      </trkpt>
      <trkpt lat="42.1934970" lon="-2.1755280">
        <ele>663.9</ele>
        <time>2022-08-15T08:10:02Z</time>
      </trkpt>
      <trkpt lat="42.1936410" lon="-2.1754950">
        <ele>663.4</ele>
        <time>2022-08-15T08:10:04Z</time>
      </trkpt>
      <trkpt lat="42.1938740" lon="-2.1754360">
        <ele>662.5</ele>
        <time>2022-08-15T08:10:07Z</time>
      </trkpt>
      <trkpt lat="42.1940880" lon="-2.1753900">
        <ele>661.7</ele>
        <time>2022-08-15T08:10:10Z</time>
      </trkpt>
      <trkpt lat="42.1941670" lon="-2.1753800">
        <ele>661.4</ele>
        <time>2022-08-15T08:10:11Z</time>
      </trkpt>
      <trkpt lat="42.1943240" lon="-2.1753580">
        <ele>660.8</ele>
        <time>2022-08-15T08:10:13Z</time>
      </trkpt>
      <trkpt lat="42.1943240" lon="-2.1753580">
        <ele>660.8</ele>
        <time>2022-08-15T08:10:14Z</time>
      </trkpt>
      <trkpt lat="42.1944490" lon="-2.1753390">
        <ele>660.3</ele>
        <time>2022-08-15T08:10:15Z</time>
      </trkpt>
      <trkpt lat="42.1945270" lon="-2.1753260">
        <ele>660.1</ele>
        <time>2022-08-15T08:10:16Z</time>
      </trkpt>
      <trkpt lat="42.1947140" lon="-2.1752880">
        <ele>659.4</ele>
        <time>2022-08-15T08:10:18Z</time>
      </trkpt>
      <trkpt lat="42.1948680" lon="-2.1752540">
        <ele>658.9</ele>
        <time>2022-08-15T08:10:20Z</time>
      </trkpt>
      <trkpt lat="42.1951800" lon="-2.1751680">
        <ele>657.8</ele>
        <time>2022-08-15T08:10:24Z</time>
      </trkpt>
      <trkpt lat="42.1953380" lon="-2.1751140">
        <ele>657.2</ele>
        <time>2022-08-15T08:10:26Z</time>
      </trkpt>
      <trkpt lat="42.1954970" lon="-2.1750700">
        <ele>656.7</ele>
        <time>2022-08-15T08:10:28Z</time>
      </trkpt>
      <trkpt lat="42.1955770" lon="-2.1750490">
        <ele>656.4</ele>
        <time>2022-08-15T08:10:29Z</time>
      </trkpt>
      <trkpt lat="42.1957340" lon="-2.1750100">
        <ele>655.9</ele>
        <time>2022-08-15T08:10:31Z</time>
      </trkpt>
      <trkpt lat="42.1958140" lon="-2.1749960">
        <ele>655.7</ele>
        <time>2022-08-15T08:10:32Z</time>
      </trkpt>
      <trkpt lat="42.1958960" lon="-2.1749870">
        <ele>655.4</ele>
        <time>2022-08-15T08:10:33Z</time>
      </trkpt>
      <trkpt lat="42.1959780" lon="-2.1749810">
        <ele>655.1</ele>
        <time>2022-08-15T08:10:34Z</time>
      </trkpt>
      <trkpt lat="42.1960590" lon="-2.1749760">
        <ele>654.9</ele>
        <time>2022-08-15T08:10:35Z</time>
      </trkpt>
      <trkpt lat="42.1962180" lon="-2.1749790">
        <ele>654.4</ele>
        <time>2022-08-15T08:10:37Z</time>
      </trkpt>
      <trkpt lat="42.1963790" lon="-2.1749870">
        <ele>653.8</ele>
        <time>2022-08-15T08:10:39Z</time>
      </trkpt>
      <trkpt lat="42.1965450" lon="-2.1749780">
        <ele>653.1</ele>
        <time>2022-08-15T08:10:41Z</time>
      </trkpt>
      <trkpt lat="42.1966260" lon="-2.1749640">
        <ele>652.8</ele>
        <time>2022-08-15T08:10:42Z</time>
      </trkpt>
      <trkpt lat="42.1968640" lon="-2.1748900">
        <ele>651.8</ele>
        <time>2022-08-15T08:10:45Z</time>
      </trkpt>
      <trkpt lat="42.1969420" lon="-2.1748540">
        <ele>651.5</ele>
        <time>2022-08-15T08:10:46Z</time>
      </trkpt>
      <trkpt lat="42.1970200" lon="-2.1748180">
        <ele>651.2</ele>
        <time>2022-08-15T08:10:47Z</time>
      </trkpt>
      <trkpt lat="42.1971830" lon="-2.1747670">
        <ele>650.6</ele>
        <time>2022-08-15T08:10:49Z</time>
      </trkpt>
      <trkpt lat="42.1973550" lon="-2.1747570">
        <ele>649.9</ele>
        <time>2022-08-15T08:10:51Z</time>
      </trkpt>
      <trkpt lat="42.1976980" lon="-2.1747550">
        <ele>648.6</ele>
        <time>2022-08-15T08:10:55Z</time>
      </trkpt>
      <trkpt lat="42.1979630" lon="-2.1747460">
        <ele>647.6</ele>
        <time>2022-08-15T08:10:58Z</time>
      </trkpt>
      <trkpt lat="42.1982320" lon="-2.1747360">
        <ele>646.7</ele>
        <time>2022-08-15T08:11:01Z</time>
      </trkpt>
      <trkpt lat="42.1985780" lon="-2.1747340">
        <ele>645.5</ele>
        <time>2022-08-15T08:11:05Z</time>
      </trkpt>
      <trkpt lat="42.1989210" lon="-2.1747220">
        <ele>644.2</ele>
        <time>2022-08-15T08:11:09Z</time>
      </trkpt>
      <trkpt lat="42.1990920" lon="-2.1746970">
        <ele>643.5</ele>
        <time>2022-08-15T08:11:11Z</time>
      </trkpt>
      <trkpt lat="42.1992630" lon="-2.1746540">
        <ele>642.8</ele>
        <time>2022-08-15T08:11:13Z</time>
      </trkpt>
      <trkpt lat="42.1994710" lon="-2.1745900">
        <ele>642.0</ele>
        <time>2022-08-15T08:11:16Z</time>
      </trkpt>
      <trkpt lat="42.1995850" lon="-2.1745970">
        <ele>641.6</ele>
        <time>2022-08-15T08:11:17Z</time>
      </trkpt>
      <trkpt lat="42.1996390" lon="-2.1746230">
        <ele>641.4</ele>
        <time>2022-08-15T08:11:18Z</time>
      </trkpt>
      <trkpt lat="42.1997810" lon="-2.1746920">
        <ele>640.8</ele>
        <time>2022-08-15T08:11:20Z</time>
      </trkpt>
      <trkpt lat="42.1998550" lon="-2.1747170">
        <ele>640.6</ele>
        <time>2022-08-15T08:11:21Z</time>
      </trkpt>
      <trkpt lat="42.1999350" lon="-2.1747350">
        <ele>640.3</ele>
        <time>2022-08-15T08:11:22Z</time>
      </trkpt>
      <trkpt lat="42.2000180" lon="-2.1747450">
        <ele>640.0</ele>
        <time>2022-08-15T08:11:23Z</time>
      </trkpt>
      <trkpt lat="42.2001010" lon="-2.1747470">
        <ele>639.8</ele>
        <time>2022-08-15T08:11:24Z</time>
      </trkpt>
      <trkpt lat="42.2003430" lon="-2.1747320">
        <ele>639.3</ele>
        <time>2022-08-15T08:11:27Z</time>
      </trkpt>
      <trkpt lat="42.2005060" lon="-2.1747110">
        <ele>639.0</ele>
        <time>2022-08-15T08:11:29Z</time>
      </trkpt>
      <trkpt lat="42.2005810" lon="-2.1747060">
        <ele>638.9</ele>
        <time>2022-08-15T08:11:30Z</time>
      </trkpt>
      <trkpt lat="42.2007150" lon="-2.1747370">
        <ele>638.7</ele>
        <time>2022-08-15T08:11:32Z</time>
      </trkpt>
      <trkpt lat="42.2007870" lon="-2.1748510">
        <ele>638.5</ele>
        <time>2022-08-15T08:11:34Z</time>
      </trkpt>
      <trkpt lat="42.2008520" lon="-2.1749790">
        <ele>638.2</ele>
        <time>2022-08-15T08:11:36Z</time>
      </trkpt>
      <trkpt lat="42.2008950" lon="-2.1750400">
        <ele>638.0</ele>
        <time>2022-08-15T08:11:37Z</time>
      </trkpt>
      <trkpt lat="42.2009800" lon="-2.1751660">
        <ele>637.6</ele>
        <time>2022-08-15T08:11:39Z</time>
      </trkpt>
      <trkpt lat="42.2010190" lon="-2.1752370">
        <ele>637.4</ele>
        <time>2022-08-15T08:11:40Z</time>
      </trkpt>
      <trkpt lat="42.2011250" lon="-2.1754720">
        <ele>636.8</ele>
        <time>2022-08-15T08:11:43Z</time>
      </trkpt>
      <trkpt lat="42.2011640" lon="-2.1755420">
        <ele>636.6</ele>
        <time>2022-08-15T08:11:44Z</time>
      </trkpt>
      <trkpt lat="42.2012150" lon="-2.1755960">
        <ele>636.4</ele>
        <time>2022-08-15T08:11:45Z</time>
      </trkpt>
      <trkpt lat="42.2012750" lon="-2.1756310">
        <ele>636.2</ele>
        <time>2022-08-15T08:11:46Z</time>
      </trkpt>
      <trkpt lat="42.2014080" lon="-2.1756270">
        <ele>635.7</ele>
        <time>2022-08-15T08:11:48Z</time>
      </trkpt>
      <trkpt lat="42.2016820" lon="-2.1756070">
        <ele>634.8</ele>
        <time>2022-08-15T08:11:52Z</time>
      </trkpt>
      <trkpt lat="42.2019680" lon="-2.1755830">
        <ele>633.7</ele>
        <time>2022-08-15T08:11:56Z</time>
      </trkpt>
      <trkpt lat="42.2020390" lon="-2.1755790">
        <ele>633.5</ele>
        <time>2022-08-15T08:11:57Z</time>
      </trkpt>
      <trkpt lat="42.2022530" lon="-2.1755650">
        <ele>632.7</ele>
        <time>2022-08-15T08:12:00Z</time>
      </trkpt>
      <trkpt lat="42.2023260" lon="-2.1755630">
        <ele>632.4</ele>
        <time>2022-08-15T08:12:01Z</time>
      </trkpt>
      <trkpt lat="42.2026510" lon="-2.1755770">
        <ele>630.9</ele>
        <time>2022-08-15T08:12:06Z</time>
      </trkpt>
      <trkpt lat="42.2027120" lon="-2.1755850">
        <ele>630.6</ele>
        <time>2022-08-15T08:12:07Z</time>
      </trkpt>
      <trkpt lat="42.2028300" lon="-2.1755970">
        <ele>630.1</ele>
        <time>2022-08-15T08:12:09Z</time>
      </trkpt>
      <trkpt lat="42.2028900" lon="-2.1756030">
        <ele>629.8</ele>
        <time>2022-08-15T08:12:10Z</time>
      </trkpt>
      <trkpt lat="42.2030690" lon="-2.1756100">
        <ele>629.1</ele>
        <time>2022-08-15T08:12:13Z</time>
      </trkpt>
      <trkpt lat="42.2031320" lon="-2.1756120">
        <ele>628.8</ele>
        <time>2022-08-15T08:12:14Z</time>
      </trkpt>
      <trkpt lat="42.2033640" lon="-2.1756100">
        <ele>627.8</ele>
        <time>2022-08-15T08:12:18Z</time>
      </trkpt>
      <trkpt lat="42.2034750" lon="-2.1756080">
        <ele>627.1</ele>
        <time>2022-08-15T08:12:20Z</time>
      </trkpt>
      <trkpt lat="42.2035800" lon="-2.1756330">
        <ele>626.3</ele>
        <time>2022-08-15T08:12:22Z</time>
      </trkpt>
      <trkpt lat="42.2036320" lon="-2.1756590">
        <ele>625.9</ele>
        <time>2022-08-15T08:12:23Z</time>
      </trkpt>
      <trkpt lat="42.2036830" lon="-2.1756890">
        <ele>625.4</ele>
        <time>2022-08-15T08:12:24Z</time>
      </trkpt>
      <trkpt lat="42.2039040" lon="-2.1758140">
        <ele>623.6</ele>
        <time>2022-08-15T08:12:28Z</time>
      </trkpt>
      <trkpt lat="42.2039630" lon="-2.1758380">
        <ele>623.2</ele>
        <time>2022-08-15T08:12:29Z</time>
      </trkpt>
      <trkpt lat="42.2040720" lon="-2.1758470">
        <ele>622.6</ele>
        <time>2022-08-15T08:12:31Z</time>
      </trkpt>
      <trkpt lat="42.2041180" lon="-2.1758380">
        <ele>622.4</ele>
        <time>2022-08-15T08:12:32Z</time>
      </trkpt>
      <trkpt lat="42.2041850" lon="-2.1758410">
        <ele>622.0</ele>
        <time>2022-08-15T08:12:34Z</time>
      </trkpt>
      <trkpt lat="42.2042150" lon="-2.1758610">
        <ele>621.5</ele>
        <time>2022-08-15T08:12:35Z</time>
      </trkpt>
      <trkpt lat="42.2042410" lon="-2.1758940">
        <ele>621.1</ele>
        <time>2022-08-15T08:12:36Z</time>
      </trkpt>
      <trkpt lat="42.2043000" lon="-2.1759890">
        <ele>619.9</ele>
        <time>2022-08-15T08:12:38Z</time>
      </trkpt>
      <trkpt lat="42.2043330" lon="-2.1760450">
        <ele>619.4</ele>
        <time>2022-08-15T08:12:39Z</time>
      </trkpt>
      <trkpt lat="42.2043910" lon="-2.1761470">
        <ele>618.4</ele>
        <time>2022-08-15T08:12:41Z</time>
      </trkpt>
      <trkpt lat="42.2044120" lon="-2.1762030">
        <ele>617.9</ele>
        <time>2022-08-15T08:12:42Z</time>
      </trkpt>
      <trkpt lat="42.2044280" lon="-2.1762630">
        <ele>617.4</ele>
        <time>2022-08-15T08:12:43Z</time>
      </trkpt>
      <trkpt lat="42.2044430" lon="-2.1763220">
        <ele>617.0</ele>
        <time>2022-08-15T08:12:44Z</time>
      </trkpt>
      <trkpt lat="42.2044640" lon="-2.1763820">
        <ele>616.4</ele>
        <time>2022-08-15T08:12:45Z</time>
      </trkpt>
      <trkpt lat="42.2045450" lon="-2.1765670">
        <ele>614.8</ele>
        <time>2022-08-15T08:12:48Z</time>
      </trkpt>
      <trkpt lat="42.2045740" lon="-2.1766200">
        <ele>614.3</ele>
        <time>2022-08-15T08:12:49Z</time>
      </trkpt>
      <trkpt lat="42.2046470" lon="-2.1767220">
        <ele>613.2</ele>
        <time>2022-08-15T08:12:51Z</time>
      </trkpt>
      <trkpt lat="42.2047340" lon="-2.1768080">
        <ele>612.1</ele>
        <time>2022-08-15T08:12:53Z</time>
      </trkpt>
      <trkpt lat="42.2047810" lon="-2.1768430">
        <ele>611.7</ele>
        <time>2022-08-15T08:12:54Z</time>
      </trkpt>
      <trkpt lat="42.2048270" lon="-2.1768680">
        <ele>611.3</ele>
        <time>2022-08-15T08:12:55Z</time>
      </trkpt>
      <trkpt lat="42.2048740" lon="-2.1768790">
        <ele>610.9</ele>
        <time>2022-08-15T08:12:56Z</time>
      </trkpt>
      <trkpt lat="42.2049640" lon="-2.1768750">
        <ele>610.3</ele>
        <time>2022-08-15T08:12:58Z</time>
      </trkpt>
      <trkpt lat="42.2050110" lon="-2.1768640">
        <ele>610.0</ele>
        <time>2022-08-15T08:12:59Z</time>
      </trkpt>
      <trkpt lat="42.2050600" lon="-2.1768540">
        <ele>609.7</ele>
        <time>2022-08-15T08:13:00Z</time>
      </trkpt>
      <trkpt lat="42.2051650" lon="-2.1768800">
        <ele>608.9</ele>
        <time>2022-08-15T08:13:02Z</time>
      </trkpt>
      <trkpt lat="42.2052470" lon="-2.1769670">
        <ele>608.1</ele>
        <time>2022-08-15T08:13:04Z</time>
      </trkpt>
      <trkpt lat="42.2052720" lon="-2.1770230">
        <ele>607.7</ele>
        <time>2022-08-15T08:13:05Z</time>
      </trkpt>
      <trkpt lat="42.2053180" lon="-2.1771250">
        <ele>607.0</ele>
        <time>2022-08-15T08:13:07Z</time>
      </trkpt>
      <trkpt lat="42.2053800" lon="-2.1771830">
        <ele>606.4</ele>
        <time>2022-08-15T08:13:09Z</time>
      </trkpt>
      <trkpt lat="42.2054900" lon="-2.1771800">
        <ele>605.5</ele>
        <time>2022-08-15T08:13:12Z</time>
      </trkpt>
      <trkpt lat="42.2055290" lon="-2.1771580">
        <ele>605.1</ele>
        <time>2022-08-15T08:13:13Z</time>
      </trkpt>
      <trkpt lat="42.2057860" lon="-2.1769720">
        <ele>602.2</ele>
        <time>2022-08-15T08:13:19Z</time>
      </trkpt>
      <trkpt lat="42.2058760" lon="-2.1769350">
        <ele>601.1</ele>
        <time>2022-08-15T08:13:21Z</time>
      </trkpt>
      <trkpt lat="42.2059670" lon="-2.1769330">
        <ele>600.0</ele>
        <time>2022-08-15T08:13:23Z</time>
      </trkpt>
      <trkpt lat="42.2060820" lon="-2.1769780">
        <ele>598.5</ele>
        <time>2022-08-15T08:13:25Z</time>
      </trkpt>
      <trkpt lat="42.2061250" lon="-2.1770120">
        <ele>597.9</ele>
        <time>2022-08-15T08:13:26Z</time>
      </trkpt>
      <trkpt lat="42.2062580" lon="-2.1771230">
        <ele>596.1</ele>
        <time>2022-08-15T08:13:29Z</time>
      </trkpt>
      <trkpt lat="42.2063470" lon="-2.1771600">
        <ele>595.1</ele>
        <time>2022-08-15T08:13:31Z</time>
      </trkpt>
      <trkpt lat="42.2063930" lon="-2.1771600">
        <ele>594.8</ele>
        <time>2022-08-15T08:13:32Z</time>
      </trkpt>
      <trkpt lat="42.2064420" lon="-2.1771500">
        <ele>594.4</ele>
        <time>2022-08-15T08:13:33Z</time>
      </trkpt>
      <trkpt lat="42.2065240" lon="-2.1770850">
        <ele>593.9</ele>
        <time>2022-08-15T08:13:35Z</time>
      </trkpt>
      <trkpt lat="42.2065710" lon="-2.1769650">
        <ele>593.6</ele>
        <time>2022-08-15T08:13:37Z</time>
      </trkpt>
      <trkpt lat="42.2066030" lon="-2.1768290">
        <ele>593.3</ele>
        <time>2022-08-15T08:13:39Z</time>
      </trkpt>
      <trkpt lat="42.2066390" lon="-2.1765950">
        <ele>592.8</ele>
        <time>2022-08-15T08:13:42Z</time>
      </trkpt>
      <trkpt lat="42.2066540" lon="-2.1765100">
        <ele>592.7</ele>
        <time>2022-08-15T08:13:43Z</time>
      </trkpt>
      <trkpt lat="42.2066700" lon="-2.1764230">
        <ele>592.5</ele>
        <time>2022-08-15T08:13:44Z</time>
      </trkpt>
      <trkpt lat="42.2067930" lon="-2.1759180">
        <ele>591.5</ele>
        <time>2022-08-15T08:13:50Z</time>
      </trkpt>
      <trkpt lat="42.2068210" lon="-2.1758380">
        <ele>591.4</ele>
        <time>2022-08-15T08:13:51Z</time>
      </trkpt>
      <trkpt lat="42.2068420" lon="-2.1757550">
        <ele>591.2</ele>
        <time>2022-08-15T08:13:52Z</time>
      </trkpt>
      <trkpt lat="42.2068650" lon="-2.1756770">
        <ele>591.1</ele>
        <time>2022-08-15T08:13:53Z</time>
      </trkpt>
      <trkpt lat="42.2069210" lon="-2.1755220">
        <ele>590.8</ele>
        <time>2022-08-15T08:13:55Z</time>
      </trkpt>
      <trkpt lat="42.2069980" lon="-2.1753770">
        <ele>590.5</ele>
        <time>2022-08-15T08:13:57Z</time>
      </trkpt>
      <trkpt lat="42.2070640" lon="-2.1752390">
        <ele>590.3</ele>
        <time>2022-08-15T08:13:59Z</time>
      </trkpt>
      <trkpt lat="42.2071000" lon="-2.1751720">
        <ele>590.2</ele>
        <time>2022-08-15T08:14:00Z</time>
      </trkpt>
      <trkpt lat="42.2071340" lon="-2.1751040">
        <ele>590.1</ele>
        <time>2022-08-15T08:14:01Z</time>
      </trkpt>
      <trkpt lat="42.2071680" lon="-2.1750420">
        <ele>590.0</ele>
        <time>2022-08-15T08:14:02Z</time>
      </trkpt>
      <trkpt lat="42.2072100" lon="-2.1749880">
        <ele>589.9</ele>
        <time>2022-08-15T08:14:03Z</time>
      </trkpt>
      <trkpt lat="42.2073070" lon="-2.1748900">
        <ele>589.8</ele>
        <time>2022-08-15T08:14:05Z</time>
      </trkpt>
      <trkpt lat="42.2074170" lon="-2.1748080">
        <ele>589.7</ele>
        <time>2022-08-15T08:14:07Z</time>
      </trkpt>
      <trkpt lat="42.2074760" lon="-2.1747630">
        <ele>589.6</ele>
        <time>2022-08-15T08:14:08Z</time>
      </trkpt>
      <trkpt lat="42.2076550" lon="-2.1746000">
        <ele>589.3</ele>
        <time>2022-08-15T08:14:11Z</time>
      </trkpt>
      <trkpt lat="42.2077210" lon="-2.1745410">
        <ele>589.2</ele>
        <time>2022-08-15T08:14:12Z</time>
      </trkpt>
      <trkpt lat="42.2077850" lon="-2.1744850">
        <ele>589.1</ele>
        <time>2022-08-15T08:14:13Z</time>
      </trkpt>
      <trkpt lat="42.2078490" lon="-2.1744330">
        <ele>589.0</ele>
        <time>2022-08-15T08:14:14Z</time>
      </trkpt>
      <trkpt lat="42.2079710" lon="-2.1743250">
        <ele>588.9</ele>
        <time>2022-08-15T08:14:16Z</time>
      </trkpt>
      <trkpt lat="42.2080890" lon="-2.1742210">
        <ele>588.6</ele>
        <time>2022-08-15T08:14:18Z</time>
      </trkpt>
      <trkpt lat="42.2081490" lon="-2.1741710">
        <ele>588.4</ele>
        <time>2022-08-15T08:14:19Z</time>
      </trkpt>
      <trkpt lat="42.2082720" lon="-2.1740670">
        <ele>588.1</ele>
        <time>2022-08-15T08:14:21Z</time>
      </trkpt>
      <trkpt lat="42.2083310" lon="-2.1740140">
        <ele>588.0</ele>
        <time>2022-08-15T08:14:22Z</time>
      </trkpt>
      <trkpt lat="42.2083660" lon="-2.1739830">
        <ele>587.9</ele>
        <time>2022-08-15T08:14:23Z</time>
      </trkpt>
      <trkpt lat="42.2084230" lon="-2.1739330">
        <ele>587.8</ele>
        <time>2022-08-15T08:14:24Z</time>
      </trkpt>
      <trkpt lat="42.2085630" lon="-2.1738130">
        <ele>587.5</ele>
        <time>2022-08-15T08:14:26Z</time>
      </trkpt>
      <trkpt lat="42.2086190" lon="-2.1737580">
        <ele>587.3</ele>
        <time>2022-08-15T08:14:27Z</time>
      </trkpt>
      <trkpt lat="42.2087300" lon="-2.1736550">
        <ele>587.0</ele>
        <time>2022-08-15T08:14:29Z</time>
      </trkpt>
      <trkpt lat="42.2087860" lon="-2.1736060">
        <ele>586.9</ele>
        <time>2022-08-15T08:14:30Z</time>
      </trkpt>
      <trkpt lat="42.2089470" lon="-2.1734620">
        <ele>586.5</ele>
        <time>2022-08-15T08:14:33Z</time>
      </trkpt>
      <trkpt lat="42.2090570" lon="-2.1733640">
        <ele>586.2</ele>
        <time>2022-08-15T08:14:35Z</time>
      </trkpt>
      <trkpt lat="42.2091750" lon="-2.1732680">
        <ele>585.9</ele>
        <time>2022-08-15T08:14:37Z</time>
      </trkpt>
      <trkpt lat="42.2093520" lon="-2.1731260">
        <ele>585.5</ele>
        <time>2022-08-15T08:14:40Z</time>
      </trkpt>
      <trkpt lat="42.2095190" lon="-2.1729780">
        <ele>585.1</ele>
        <time>2022-08-15T08:14:43Z</time>
      </trkpt>
      <trkpt lat="42.2096940" lon="-2.1728320">
        <ele>584.7</ele>
        <time>2022-08-15T08:14:46Z</time>
      </trkpt>
      <trkpt lat="42.2098110" lon="-2.1727340">
        <ele>584.4</ele>
        <time>2022-08-15T08:14:48Z</time>
      </trkpt>
      <trkpt lat="42.2100950" lon="-2.1724970">
        <ele>583.8</ele>
        <time>2022-08-15T08:14:53Z</time>
      </trkpt>
      <trkpt lat="42.2101520" lon="-2.1724530">
        <ele>583.6</ele>
        <time>2022-08-15T08:14:54Z</time>
      </trkpt>
      <trkpt lat="42.2102060" lon="-2.1724040">
        <ele>583.5</ele>
        <time>2022-08-15T08:14:55Z</time>
      </trkpt>
      <trkpt lat="42.2102600" lon="-2.1723560">
        <ele>583.4</ele>
        <time>2022-08-15T08:14:56Z</time>
      </trkpt>
      <trkpt lat="42.2103120" lon="-2.1723080">
        <ele>583.2</ele>
        <time>2022-08-15T08:14:57Z</time>
      </trkpt>
      <trkpt lat="42.2103650" lon="-2.1722610">
        <ele>583.1</ele>
        <time>2022-08-15T08:14:58Z</time>
      </trkpt>
      <trkpt lat="42.2104200" lon="-2.1722160">
        <ele>583.0</ele>
        <time>2022-08-15T08:14:59Z</time>
      </trkpt>
      <trkpt lat="42.2105270" lon="-2.1721200">
        <ele>582.8</ele>
        <time>2022-08-15T08:15:01Z</time>
      </trkpt>
      <trkpt lat="42.2105700" lon="-2.1720780">
        <ele>582.7</ele>
        <time>2022-08-15T08:15:02Z</time>
      </trkpt>
      <trkpt lat="42.2106870" lon="-2.1719730">
        <ele>582.5</ele>
        <time>2022-08-15T08:15:04Z</time>
      </trkpt>
      <trkpt lat="42.2109350" lon="-2.1717610">
        <ele>582.0</ele>
        <time>2022-08-15T08:15:09Z</time>
      </trkpt>
      <trkpt lat="42.2110310" lon="-2.1716810">
        <ele>581.9</ele>
        <time>2022-08-15T08:15:11Z</time>
      </trkpt>
      <trkpt lat="42.2111870" lon="-2.1715610">
        <ele>581.6</ele>
        <time>2022-08-15T08:15:14Z</time>
      </trkpt>
      <trkpt lat="42.2115390" lon="-2.1712440">
        <ele>580.9</ele>
        <time>2022-08-15T08:15:21Z</time>
      </trkpt>
      <trkpt lat="42.2116410" lon="-2.1711530">
        <ele>580.7</ele>
        <time>2022-08-15T08:15:23Z</time>
      </trkpt>
      <trkpt lat="42.2116920" lon="-2.1711100">
        <ele>580.6</ele>
        <time>2022-08-15T08:15:24Z</time>
      </trkpt>
      <trkpt lat="42.2120370" lon="-2.1708090">
        <ele>580.0</ele>
        <time>2022-08-15T08:15:31Z</time>
      </trkpt>
      <trkpt lat="42.2122090" lon="-2.1706640">
        <ele>579.7</ele>
        <time>2022-08-15T08:15:34Z</time>
      </trkpt>
      <trkpt lat="42.2124660" lon="-2.1704300">
        <ele>579.4</ele>
        <time>2022-08-15T08:15:39Z</time>
      </trkpt>
      <trkpt lat="42.2127970" lon="-2.1700600">
        <ele>578.8</ele>
        <time>2022-08-15T08:15:46Z</time>
      </trkpt>
      <trkpt lat="42.2129250" lon="-2.1698630">
        <ele>578.6</ele>
        <time>2022-08-15T08:15:49Z</time>
      </trkpt>
      <trkpt lat="42.2130750" lon="-2.1696210">
        <ele>578.3</ele>
        <time>2022-08-15T08:15:53Z</time>
      </trkpt>
      <trkpt lat="42.2131080" lon="-2.1695540">
        <ele>578.3</ele>
        <time>2022-08-15T08:15:54Z</time>
      </trkpt>
      <trkpt lat="42.2131370" lon="-2.1694790">
        <ele>578.2</ele>
        <time>2022-08-15T08:15:55Z</time>
      </trkpt>
      <trkpt lat="42.2132170" lon="-2.1692510">
        <ele>577.9</ele>
        <time>2022-08-15T08:15:58Z</time>
      </trkpt>
      <trkpt lat="42.2132370" lon="-2.1691710">
        <ele>577.8</ele>
        <time>2022-08-15T08:15:59Z</time>
      </trkpt>
      <trkpt lat="42.2132750" lon="-2.1690100">
        <ele>577.7</ele>
        <time>2022-08-15T08:16:01Z</time>
      </trkpt>
      <trkpt lat="42.2133220" lon="-2.1685950">
        <ele>577.6</ele>
        <time>2022-08-15T08:16:06Z</time>
      </trkpt>
      <trkpt lat="42.2133240" lon="-2.1683380">
        <ele>577.5</ele>
        <time>2022-08-15T08:16:09Z</time>
      </trkpt>
      <trkpt lat="42.2133040" lon="-2.1679240">
        <ele>577.4</ele>
        <time>2022-08-15T08:16:14Z</time>
      </trkpt>
      <trkpt lat="42.2132940" lon="-2.1676680">
        <ele>577.3</ele>
        <time>2022-08-15T08:16:17Z</time>
      </trkpt>
      <trkpt lat="42.2132550" lon="-2.1673220">
        <ele>577.3</ele>
        <time>2022-08-15T08:16:21Z</time>
      </trkpt>
      <trkpt lat="42.2131820" lon="-2.1667460">
        <ele>577.1</ele>
        <time>2022-08-15T08:16:28Z</time>
      </trkpt>
      <trkpt lat="42.2131340" lon="-2.1661580">
        <ele>576.9</ele>
        <time>2022-08-15T08:16:35Z</time>
      </trkpt>
      <trkpt lat="42.2131290" lon="-2.1660750">
        <ele>576.9</ele>
        <time>2022-08-15T08:16:36Z</time>
      </trkpt>
      <trkpt lat="42.2130630" lon="-2.1653200">
        <ele>576.8</ele>
        <time>2022-08-15T08:16:45Z</time>
      </trkpt>
      <trkpt lat="42.2130200" lon="-2.1648320">
        <ele>576.6</ele>
        <time>2022-08-15T08:16:51Z</time>
      </trkpt>
      <trkpt lat="42.2130130" lon="-2.1647510">
        <ele>576.6</ele>
        <time>2022-08-15T08:16:52Z</time>
      </trkpt>
      <trkpt lat="42.2129640" lon="-2.1641880">
        <ele>576.3</ele>
        <time>2022-08-15T08:16:59Z</time>
      </trkpt>
      <trkpt lat="42.2129570" lon="-2.1640450">
        <ele>576.1</ele>
        <time>2022-08-15T08:17:01Z</time>
      </trkpt>
      <trkpt lat="42.2129150" lon="-2.1634900">
        <ele>575.4</ele>
        <time>2022-08-15T08:17:08Z</time>
      </trkpt>
      <trkpt lat="42.2129090" lon="-2.1633470">
        <ele>575.2</ele>
        <time>2022-08-15T08:17:10Z</time>
      </trkpt>
      <trkpt lat="42.2128570" lon="-2.1626870">
        <ele>574.3</ele>
        <time>2022-08-15T08:17:18Z</time>
      </trkpt>
      <trkpt lat="42.2128460" lon="-2.1625410">
        <ele>574.1</ele>
        <time>2022-08-15T08:17:20Z</time>
      </trkpt>
      <trkpt lat="42.2128380" lon="-2.1624440">
        <ele>574.0</ele>
        <time>2022-08-15T08:17:21Z</time>
      </trkpt>
      <trkpt lat="42.2127870" lon="-2.1618820">
        <ele>573.2</ele>
        <time>2022-08-15T08:17:28Z</time>
      </trkpt>
      <trkpt lat="42.2127580" lon="-2.1615400">
        <ele>572.7</ele>
        <time>2022-08-15T08:17:32Z</time>
      </trkpt>
      <trkpt lat="42.2127400" lon="-2.1612150">
        <ele>572.3</ele>
        <time>2022-08-15T08:17:36Z</time>
      </trkpt>
      <trkpt lat="42.2127340" lon="-2.1611470">
        <ele>572.2</ele>
        <time>2022-08-15T08:17:37Z</time>
      </trkpt>
      <trkpt lat="42.2127130" lon="-2.1608940">
        <ele>571.9</ele>
        <time>2022-08-15T08:17:40Z</time>
      </trkpt>
      <trkpt lat="42.2126610" lon="-2.1603890">
        <ele>571.2</ele>
        <time>2022-08-15T08:17:46Z</time>
      </trkpt>
      <trkpt lat="42.2126510" lon="-2.1603010">
        <ele>571.0</ele>
        <time>2022-08-15T08:17:47Z</time>
      </trkpt>
      <trkpt lat="42.2126140" lon="-2.1599480">
        <ele>570.5</ele>
        <time>2022-08-15T08:17:51Z</time>
      </trkpt>
      <trkpt lat="42.2125690" lon="-2.1596650">
        <ele>570.1</ele>
        <time>2022-08-15T08:17:54Z</time>
      </trkpt>
      <trkpt lat="42.2125390" lon="-2.1595060">
        <ele>569.8</ele>
        <time>2022-08-15T08:17:56Z</time>
      </trkpt>
      <trkpt lat="42.2124490" lon="-2.1591600">
        <ele>569.3</ele>
        <time>2022-08-15T08:18:00Z</time>
      </trkpt>
      <trkpt lat="42.2123490" lon="-2.1588250">
        <ele>568.9</ele>
        <time>2022-08-15T08:18:04Z</time>
      </trkpt>
      <trkpt lat="42.2122930" lon="-2.1586430">
        <ele>568.7</ele>
        <time>2022-08-15T08:18:06Z</time>
      </trkpt>
      <trkpt lat="42.2122720" lon="-2.1585780">
        <ele>568.6</ele>
        <time>2022-08-15T08:18:07Z</time>
      </trkpt>
      <trkpt lat="42.2121450" lon="-2.1581520">
        <ele>568.2</ele>
        <time>2022-08-15T08:18:12Z</time>
      </trkpt>
      <trkpt lat="42.2120130" lon="-2.1576720">
        <ele>567.9</ele>
        <time>2022-08-15T08:18:18Z</time>
      </trkpt>
      <trkpt lat="42.2119600" lon="-2.1574930">
        <ele>567.8</ele>
        <time>2022-08-15T08:18:20Z</time>
      </trkpt>
      <trkpt lat="42.2118430" lon="-2.1570940">
        <ele>567.6</ele>
        <time>2022-08-15T08:18:25Z</time>
      </trkpt>
      <trkpt lat="42.2118000" lon="-2.1569350">
        <ele>567.5</ele>
        <time>2022-08-15T08:18:27Z</time>
      </trkpt>
      <trkpt lat="42.2117600" lon="-2.1567850">
        <ele>567.5</ele>
        <time>2022-08-15T08:18:29Z</time>
      </trkpt>
      <trkpt lat="42.2116930" lon="-2.1565330">
        <ele>567.4</ele>
        <time>2022-08-15T08:18:32Z</time>
      </trkpt>
      <trkpt lat="42.2116150" lon="-2.1562770">
        <ele>567.4</ele>
        <time>2022-08-15T08:18:35Z</time>
      </trkpt>
      <trkpt lat="42.2115420" lon="-2.1560290">
        <ele>567.3</ele>
        <time>2022-08-15T08:18:38Z</time>
      </trkpt>
      <trkpt lat="42.2114170" lon="-2.1555490">
        <ele>567.4</ele>
        <time>2022-08-15T08:18:44Z</time>
      </trkpt>
      <trkpt lat="42.2113540" lon="-2.1550810">
        <ele>567.3</ele>
        <time>2022-08-15T08:18:50Z</time>
      </trkpt>
      <trkpt lat="42.2113050" lon="-2.1543920">
        <ele>566.8</ele>
        <time>2022-08-15T08:18:58Z</time>
      </trkpt>
      <trkpt lat="42.2112970" lon="-2.1542990">
        <ele>566.6</ele>
        <time>2022-08-15T08:18:59Z</time>
      </trkpt>
      <trkpt lat="42.2112680" lon="-2.1539260">
        <ele>566.1</ele>
        <time>2022-08-15T08:19:03Z</time>
      </trkpt>
      <trkpt lat="42.2112500" lon="-2.1537410">
        <ele>565.8</ele>
        <time>2022-08-15T08:19:05Z</time>
      </trkpt>
      <trkpt lat="42.2112440" lon="-2.1536510">
        <ele>565.7</ele>
        <time>2022-08-15T08:19:06Z</time>
      </trkpt>
      <trkpt lat="42.2112380" lon="-2.1535610">
        <ele>565.5</ele>
        <time>2022-08-15T08:19:07Z</time>
      </trkpt>
      <trkpt lat="42.2112030" lon="-2.1531250">
        <ele>564.9</ele>
        <time>2022-08-15T08:19:12Z</time>
      </trkpt>
      <trkpt lat="42.2111990" lon="-2.1530370">
        <ele>564.7</ele>
        <time>2022-08-15T08:19:13Z</time>
      </trkpt>
      <trkpt lat="42.2111680" lon="-2.1524980">
        <ele>563.8</ele>
        <time>2022-08-15T08:19:19Z</time>
      </trkpt>
      <trkpt lat="42.2111410" lon="-2.1521500">
        <ele>563.2</ele>
        <time>2022-08-15T08:19:23Z</time>
      </trkpt>
      <trkpt lat="42.2111340" lon="-2.1520620">
        <ele>563.0</ele>
        <time>2022-08-15T08:19:24Z</time>
      </trkpt>
      <trkpt lat="42.2111220" lon="-2.1518850">
        <ele>562.7</ele>
        <time>2022-08-15T08:19:26Z</time>
      </trkpt>
      <trkpt lat="42.2110850" lon="-2.1514230">
        <ele>561.9</ele>
        <time>2022-08-15T08:19:31Z</time>
      </trkpt>
      <trkpt lat="42.2110410" lon="-2.1508710">
        <ele>561.0</ele>
        <time>2022-08-15T08:19:37Z</time>
      </trkpt>
      <trkpt lat="42.2110300" lon="-2.1506870">
        <ele>560.5</ele>
        <time>2022-08-15T08:19:39Z</time>
      </trkpt>
      <trkpt lat="42.2110240" lon="-2.1505950">
        <ele>560.3</ele>
        <time>2022-08-15T08:19:40Z</time>
      </trkpt>
      <trkpt lat="42.2110090" lon="-2.1504130">
        <ele>559.8</ele>
        <time>2022-08-15T08:19:42Z</time>
      </trkpt>
      <trkpt lat="42.2109940" lon="-2.1502270">
        <ele>559.5</ele>
        <time>2022-08-15T08:19:44Z</time>
      </trkpt>
      <trkpt lat="42.2109790" lon="-2.1500500">
        <ele>559.3</ele>
        <time>2022-08-15T08:19:46Z</time>
      </trkpt>
      <trkpt lat="42.2109710" lon="-2.1499630">
        <ele>559.2</ele>
        <time>2022-08-15T08:19:47Z</time>
      </trkpt>
      <trkpt lat="42.2109610" lon="-2.1498780">
        <ele>559.2</ele>
        <time>2022-08-15T08:19:48Z</time>
      </trkpt>
      <trkpt lat="42.2109530" lon="-2.1497910">
        <ele>559.1</ele>
        <time>2022-08-15T08:19:49Z</time>
      </trkpt>
      <trkpt lat="42.2109340" lon="-2.1494510">
        <ele>558.6</ele>
        <time>2022-08-15T08:19:53Z</time>
      </trkpt>
      <trkpt lat="42.2109270" lon="-2.1493630">
        <ele>558.5</ele>
        <time>2022-08-15T08:19:54Z</time>
      </trkpt>
      <trkpt lat="42.2108600" lon="-2.1485970">
        <ele>557.6</ele>
        <time>2022-08-15T08:20:03Z</time>
      </trkpt>
      <trkpt lat="42.2108500" lon="-2.1485130">
        <ele>557.5</ele>
        <time>2022-08-15T08:20:04Z</time>
      </trkpt>
      <trkpt lat="42.2108250" lon="-2.1480240">
        <ele>557.0</ele>
        <time>2022-08-15T08:20:10Z</time>
      </trkpt>
      <trkpt lat="42.2108220" lon="-2.1479440">
        <ele>556.9</ele>
        <time>2022-08-15T08:20:11Z</time>
      </trkpt>
      <trkpt lat="42.2107890" lon="-2.1477020">
        <ele>556.7</ele>
        <time>2022-08-15T08:20:14Z</time>
      </trkpt>
      <trkpt lat="42.2107680" lon="-2.1474590">
        <ele>556.4</ele>
        <time>2022-08-15T08:20:17Z</time>
      </trkpt>
      <trkpt lat="42.2107620" lon="-2.1473770">
        <ele>556.3</ele>
        <time>2022-08-15T08:20:18Z</time>
      </trkpt>
      <trkpt lat="42.2107250" lon="-2.1468760">
        <ele>555.9</ele>
        <time>2022-08-15T08:20:24Z</time>
      </trkpt>
      <trkpt lat="42.2107160" lon="-2.1467030">
        <ele>555.8</ele>
        <time>2022-08-15T08:20:26Z</time>
      </trkpt>
      <trkpt lat="42.2107100" lon="-2.1466160">
        <ele>555.7</ele>
        <time>2022-08-15T08:20:27Z</time>
      </trkpt>
      <trkpt lat="42.2106530" lon="-2.1458900">
        <ele>555.0</ele>
        <time>2022-08-15T08:20:35Z</time>
      </trkpt>
      <trkpt lat="42.2106320" lon="-2.1455230">
        <ele>554.6</ele>
        <time>2022-08-15T08:20:39Z</time>
      </trkpt>
      <trkpt lat="42.2105990" lon="-2.1450610">
        <ele>554.1</ele>
        <time>2022-08-15T08:20:44Z</time>
      </trkpt>
      <trkpt lat="42.2105770" lon="-2.1447770">
        <ele>553.9</ele>
        <time>2022-08-15T08:20:47Z</time>
      </trkpt>
      <trkpt lat="42.2105440" lon="-2.1443960">
        <ele>553.6</ele>
        <time>2022-08-15T08:20:51Z</time>
      </trkpt>
      <trkpt lat="42.2104970" lon="-2.1438650">
        <ele>553.0</ele>
        <time>2022-08-15T08:20:56Z</time>
      </trkpt>
      <trkpt lat="42.2104960" lon="-2.1436570">
        <ele>552.7</ele>
        <time>2022-08-15T08:20:58Z</time>
      </trkpt>
      <trkpt lat="42.2105200" lon="-2.1433610">
        <ele>552.4</ele>
        <time>2022-08-15T08:21:01Z</time>
      </trkpt>
      <trkpt lat="42.2105420" lon="-2.1431760">
        <ele>552.3</ele>
        <time>2022-08-15T08:21:03Z</time>
      </trkpt>
      <trkpt lat="42.2105600" lon="-2.1429940">
        <ele>552.1</ele>
        <time>2022-08-15T08:21:05Z</time>
      </trkpt>
      <trkpt lat="42.2105790" lon="-2.1428190">
        <ele>552.0</ele>
        <time>2022-08-15T08:21:07Z</time>
      </trkpt>
      <trkpt lat="42.2106210" lon="-2.1425740">
        <ele>551.8</ele>
        <time>2022-08-15T08:21:10Z</time>
      </trkpt>
      <trkpt lat="42.2106530" lon="-2.1423250">
        <ele>551.6</ele>
        <time>2022-08-15T08:21:13Z</time>
      </trkpt>
      <trkpt lat="42.2106670" lon="-2.1422240">
        <ele>551.5</ele>
        <time>2022-08-15T08:21:14Z</time>
      </trkpt>
      <trkpt lat="42.2107080" lon="-2.1419650">
        <ele>551.4</ele>
        <time>2022-08-15T08:21:17Z</time>
      </trkpt>
      <trkpt lat="42.2107930" lon="-2.1414500">
        <ele>551.1</ele>
        <time>2022-08-15T08:21:23Z</time>
      </trkpt>
      <trkpt lat="42.2108850" lon="-2.1408190">
        <ele>550.9</ele>
        <time>2022-08-15T08:21:30Z</time>
      </trkpt>
      <trkpt lat="42.2109090" lon="-2.1406430">
        <ele>550.9</ele>
        <time>2022-08-15T08:21:32Z</time>
      </trkpt>
      <trkpt lat="42.2110160" lon="-2.1399780">
        <ele>550.7</ele>
        <time>2022-08-15T08:21:40Z</time>
      </trkpt>
      <trkpt lat="42.2110750" lon="-2.1395800">
        <ele>550.5</ele>
        <time>2022-08-15T08:21:45Z</time>
      </trkpt>
      <trkpt lat="42.2111660" lon="-2.1389540">
        <ele>550.4</ele>
        <time>2022-08-15T08:21:52Z</time>
      </trkpt>
      <trkpt lat="42.2112270" lon="-2.1385520">
        <ele>550.1</ele>
        <time>2022-08-15T08:21:57Z</time>
      </trkpt>
      <trkpt lat="42.2112480" lon="-2.1383960">
        <ele>549.9</ele>
        <time>2022-08-15T08:21:59Z</time>
      </trkpt>
      <trkpt lat="42.2112790" lon="-2.1381710">
        <ele>549.7</ele>
        <time>2022-08-15T08:22:02Z</time>
      </trkpt>
      <trkpt lat="42.2113360" lon="-2.1378190">
        <ele>549.4</ele>
        <time>2022-08-15T08:22:06Z</time>
      </trkpt>
      <trkpt lat="42.2113620" lon="-2.1376650">
        <ele>549.3</ele>
        <time>2022-08-15T08:22:08Z</time>
      </trkpt>
      <trkpt lat="42.2113850" lon="-2.1374920">
        <ele>549.2</ele>
        <time>2022-08-15T08:22:10Z</time>
      </trkpt>
      <trkpt lat="42.2114480" lon="-2.1370270">
        <ele>548.8</ele>
        <time>2022-08-15T08:22:15Z</time>
      </trkpt>
      <trkpt lat="42.2114890" lon="-2.1367830">
        <ele>548.7</ele>
        <time>2022-08-15T08:22:18Z</time>
      </trkpt>
      <trkpt lat="42.2115000" lon="-2.1367000">
        <ele>548.6</ele>
        <time>2022-08-15T08:22:19Z</time>
      </trkpt>
      <trkpt lat="42.2115260" lon="-2.1365200">
        <ele>548.5</ele>
        <time>2022-08-15T08:22:21Z</time>
      </trkpt>
      <trkpt lat="42.2115630" lon="-2.1362620">
        <ele>548.3</ele>
        <time>2022-08-15T08:22:24Z</time>
      </trkpt>
      <trkpt lat="42.2116110" lon="-2.1359070">
        <ele>548.2</ele>
        <time>2022-08-15T08:22:28Z</time>
      </trkpt>
      <trkpt lat="42.2116410" lon="-2.1356640">
        <ele>548.1</ele>
        <time>2022-08-15T08:22:31Z</time>
      </trkpt>
      <trkpt lat="42.2117230" lon="-2.1351350">
        <ele>548.0</ele>
        <time>2022-08-15T08:22:37Z</time>
      </trkpt>
      <trkpt lat="42.2117360" lon="-2.1350480">
        <ele>548.0</ele>
        <time>2022-08-15T08:22:38Z</time>
      </trkpt>
      <trkpt lat="42.2118400" lon="-2.1342700">
        <ele>547.9</ele>
        <time>2022-08-15T08:22:47Z</time>
      </trkpt>
      <trkpt lat="42.2119220" lon="-2.1337900">
        <ele>547.7</ele>
        <time>2022-08-15T08:22:53Z</time>
      </trkpt>
      <trkpt lat="42.2119500" lon="-2.1336310">
        <ele>547.6</ele>
        <time>2022-08-15T08:22:55Z</time>
      </trkpt>
      <trkpt lat="42.2119630" lon="-2.1335550">
        <ele>547.5</ele>
        <time>2022-08-15T08:22:56Z</time>
      </trkpt>
      <trkpt lat="42.2119800" lon="-2.1334200">
        <ele>547.4</ele>
        <time>2022-08-15T08:22:58Z</time>
      </trkpt>
      <trkpt lat="42.2119860" lon="-2.1333520">
        <ele>547.3</ele>
        <time>2022-08-15T08:22:59Z</time>
      </trkpt>
      <trkpt lat="42.2119960" lon="-2.1332820">
        <ele>547.2</ele>
        <time>2022-08-15T08:23:00Z</time>
      </trkpt>
      <trkpt lat="42.2120080" lon="-2.1332050">
        <ele>547.0</ele>
        <time>2022-08-15T08:23:01Z</time>
      </trkpt>
      <trkpt lat="42.2120650" lon="-2.1327910">
        <ele>546.4</ele>
        <time>2022-08-15T08:23:06Z</time>
      </trkpt>
      <trkpt lat="42.2120900" lon="-2.1326310">
        <ele>546.3</ele>
        <time>2022-08-15T08:23:08Z</time>
      </trkpt>
      <trkpt lat="42.2121410" lon="-2.1323060">
        <ele>545.9</ele>
        <time>2022-08-15T08:23:12Z</time>
      </trkpt>
      <trkpt lat="42.2121870" lon="-2.1319560">
        <ele>545.3</ele>
        <time>2022-08-15T08:23:16Z</time>
      </trkpt>
      <trkpt lat="42.2122430" lon="-2.1315330">
        <ele>544.7</ele>
        <time>2022-08-15T08:23:21Z</time>
      </trkpt>
      <trkpt lat="42.2122690" lon="-2.1313530">
        <ele>544.4</ele>
        <time>2022-08-15T08:23:23Z</time>
      </trkpt>
      <trkpt lat="42.2123440" lon="-2.1308750">
        <ele>543.7</ele>
        <time>2022-08-15T08:23:28Z</time>
      </trkpt>
      <trkpt lat="42.2123730" lon="-2.1306220">
        <ele>543.4</ele>
        <time>2022-08-15T08:23:31Z</time>
      </trkpt>
      <trkpt lat="42.2124750" lon="-2.1301890">
        <ele>542.7</ele>
        <time>2022-08-15T08:23:36Z</time>
      </trkpt>
      <trkpt lat="42.2125420" lon="-2.1300000">
        <ele>542.3</ele>
        <time>2022-08-15T08:23:38Z</time>
      </trkpt>
      <trkpt lat="42.2127160" lon="-2.1295850">
        <ele>541.5</ele>
        <time>2022-08-15T08:23:43Z</time>
      </trkpt>
      <trkpt lat="42.2128230" lon="-2.1293850">
        <ele>541.2</ele>
        <time>2022-08-15T08:23:46Z</time>
      </trkpt>
      <trkpt lat="42.2129540" lon="-2.1291490">
        <ele>540.8</ele>
        <time>2022-08-15T08:23:49Z</time>
      </trkpt>
      <trkpt lat="42.2129910" lon="-2.1290770">
        <ele>540.7</ele>
        <time>2022-08-15T08:23:50Z</time>
      </trkpt>
      <trkpt lat="42.2132830" lon="-2.1285660">
        <ele>540.1</ele>
        <time>2022-08-15T08:23:57Z</time>
      </trkpt>
      <trkpt lat="42.2134750" lon="-2.1282210">
        <ele>539.8</ele>
        <time>2022-08-15T08:24:02Z</time>
      </trkpt>
      <trkpt lat="42.2135130" lon="-2.1281540">
        <ele>539.7</ele>
        <time>2022-08-15T08:24:03Z</time>
      </trkpt>
      <trkpt lat="42.2135990" lon="-2.1279970">
        <ele>539.6</ele>
        <time>2022-08-15T08:24:05Z</time>
      </trkpt>
      <trkpt lat="42.2137590" lon="-2.1277250">
        <ele>539.5</ele>
        <time>2022-08-15T08:24:09Z</time>
      </trkpt>
      <trkpt lat="42.2137900" lon="-2.1276680">
        <ele>539.5</ele>
        <time>2022-08-15T08:24:10Z</time>
      </trkpt>
      <trkpt lat="42.2140690" lon="-2.1271680">
        <ele>539.4</ele>
        <time>2022-08-15T08:24:17Z</time>
      </trkpt>
      <trkpt lat="42.2141460" lon="-2.1270310">
        <ele>539.3</ele>
        <time>2022-08-15T08:24:19Z</time>
      </trkpt>
      <trkpt lat="42.2143040" lon="-2.1267630">
        <ele>539.3</ele>
        <time>2022-08-15T08:24:23Z</time>
      </trkpt>
      <trkpt lat="42.2145000" lon="-2.1264280">
        <ele>539.1</ele>
        <time>2022-08-15T08:24:28Z</time>
      </trkpt>
      <trkpt lat="42.2145320" lon="-2.1263740">
        <ele>539.0</ele>
        <time>2022-08-15T08:24:29Z</time>
      </trkpt>
      <trkpt lat="42.2148500" lon="-2.1258130">
        <ele>538.9</ele>
        <time>2022-08-15T08:24:37Z</time>
      </trkpt>
      <trkpt lat="42.2151790" lon="-2.1252470">
        <ele>538.8</ele>
        <time>2022-08-15T08:24:46Z</time>
      </trkpt>
      <trkpt lat="42.2154540" lon="-2.1246800">
        <ele>538.8</ele>
        <time>2022-08-15T08:24:54Z</time>
      </trkpt>
      <trkpt lat="42.2154840" lon="-2.1246070">
        <ele>538.8</ele>
        <time>2022-08-15T08:24:55Z</time>
      </trkpt>
      <trkpt lat="42.2156720" lon="-2.1240920">
        <ele>538.5</ele>
        <time>2022-08-15T08:25:02Z</time>
      </trkpt>
      <trkpt lat="42.2157600" lon="-2.1238730">
        <ele>538.5</ele>
        <time>2022-08-15T08:25:05Z</time>
      </trkpt>
      <trkpt lat="42.2160000" lon="-2.1232550">
        <ele>538.4</ele>
        <time>2022-08-15T08:25:14Z</time>
      </trkpt>
      <trkpt lat="42.2160620" lon="-2.1230940">
        <ele>538.4</ele>
        <time>2022-08-15T08:25:16Z</time>
      </trkpt>
      <trkpt lat="42.2163260" lon="-2.1224030">
        <ele>538.2</ele>
        <time>2022-08-15T08:25:25Z</time>
      </trkpt>
      <trkpt lat="42.2163870" lon="-2.1222540">
        <ele>538.2</ele>
        <time>2022-08-15T08:25:27Z</time>
      </trkpt>
      <trkpt lat="42.2165030" lon="-2.1219650">
        <ele>538.2</ele>
        <time>2022-08-15T08:25:31Z</time>
      </trkpt>
      <trkpt lat="42.2166380" lon="-2.1216160">
        <ele>538.1</ele>
        <time>2022-08-15T08:25:36Z</time>
      </trkpt>
      <trkpt lat="42.2169110" lon="-2.1209150">
        <ele>538.3</ele>
        <time>2022-08-15T08:25:46Z</time>
      </trkpt>
      <trkpt lat="42.2171230" lon="-2.1203930">
        <ele>538.0</ele>
        <time>2022-08-15T08:25:54Z</time>
      </trkpt>
      <trkpt lat="42.2171750" lon="-2.1202540">
        <ele>537.9</ele>
        <time>2022-08-15T08:25:56Z</time>
      </trkpt>
      <trkpt lat="42.2172880" lon="-2.1200040">
        <ele>538.0</ele>
        <time>2022-08-15T08:26:00Z</time>
      </trkpt>
      <trkpt lat="42.2173490" lon="-2.1198860">
        <ele>538.0</ele>
        <time>2022-08-15T08:26:02Z</time>
      </trkpt>
      <trkpt lat="42.2175640" lon="-2.1195310">
        <ele>537.6</ele>
        <time>2022-08-15T08:26:08Z</time>
      </trkpt>
      <trkpt lat="42.2177740" lon="-2.1192510">
        <ele>537.4</ele>
        <time>2022-08-15T08:26:13Z</time>
      </trkpt>
      <trkpt lat="42.2178370" lon="-2.1191820">
        <ele>537.3</ele>
        <time>2022-08-15T08:26:15Z</time>
      </trkpt>
      <trkpt lat="42.2181350" lon="-2.1188650">
        <ele>537.0</ele>
        <time>2022-08-15T08:26:21Z</time>
      </trkpt>
      <trkpt lat="42.2181750" lon="-2.1188210">
        <ele>536.9</ele>
        <time>2022-08-15T08:26:22Z</time>
      </trkpt>
      <trkpt lat="42.2182100" lon="-2.1187770">
        <ele>536.9</ele>
        <time>2022-08-15T08:26:23Z</time>
      </trkpt>
      <trkpt lat="42.2182440" lon="-2.1187330">
        <ele>536.9</ele>
        <time>2022-08-15T08:26:24Z</time>
      </trkpt>
      <trkpt lat="42.2182820" lon="-2.1186910">
        <ele>536.8</ele>
        <time>2022-08-15T08:26:25Z</time>
      </trkpt>
      <trkpt lat="42.2183630" lon="-2.1186030">
        <ele>536.8</ele>
        <time>2022-08-15T08:26:27Z</time>
      </trkpt>
      <trkpt lat="42.2185420" lon="-2.1184370">
        <ele>536.6</ele>
        <time>2022-08-15T08:26:31Z</time>
      </trkpt>
      <trkpt lat="42.2185820" lon="-2.1183930">
        <ele>536.6</ele>
        <time>2022-08-15T08:26:32Z</time>
      </trkpt>
      <trkpt lat="42.2186500" lon="-2.1183010">
        <ele>536.3</ele>
        <time>2022-08-15T08:26:34Z</time>
      </trkpt>
      <trkpt lat="42.2187360" lon="-2.1181600">
        <ele>535.9</ele>
        <time>2022-08-15T08:26:36Z</time>
      </trkpt>
      <trkpt lat="42.2187770" lon="-2.1180900">
        <ele>535.7</ele>
        <time>2022-08-15T08:26:37Z</time>
      </trkpt>
      <trkpt lat="42.2188180" lon="-2.1180220">
        <ele>535.5</ele>
        <time>2022-08-15T08:26:38Z</time>
      </trkpt>
      <trkpt lat="42.2188520" lon="-2.1179540">
        <ele>535.3</ele>
        <time>2022-08-15T08:26:39Z</time>
      </trkpt>
      <trkpt lat="42.2188800" lon="-2.1178850">
        <ele>535.1</ele>
        <time>2022-08-15T08:26:40Z</time>
      </trkpt>
      <trkpt lat="42.2189020" lon="-2.1178170">
        <ele>535.0</ele>
        <time>2022-08-15T08:26:41Z</time>
      </trkpt>
      <trkpt lat="42.2189420" lon="-2.1176680">
        <ele>534.5</ele>
        <time>2022-08-15T08:26:43Z</time>
      </trkpt>
      <trkpt lat="42.2190000" lon="-2.1174430">
        <ele>533.6</ele>
        <time>2022-08-15T08:26:46Z</time>
      </trkpt>
      <trkpt lat="42.2190170" lon="-2.1173710">
        <ele>533.3</ele>
        <time>2022-08-15T08:26:47Z</time>
      </trkpt>
      <trkpt lat="42.2190590" lon="-2.1172180">
        <ele>532.9</ele>
        <time>2022-08-15T08:26:49Z</time>
      </trkpt>
      <trkpt lat="42.2191190" lon="-2.1169820">
        <ele>532.3</ele>
        <time>2022-08-15T08:26:52Z</time>
      </trkpt>
      <trkpt lat="42.2191510" lon="-2.1168130">
        <ele>532.0</ele>
        <time>2022-08-15T08:26:54Z</time>
      </trkpt>
      <trkpt lat="42.2191810" lon="-2.1166430">
        <ele>531.8</ele>
        <time>2022-08-15T08:26:56Z</time>
      </trkpt>
      <trkpt lat="42.2192220" lon="-2.1164820">
        <ele>531.5</ele>
        <time>2022-08-15T08:26:58Z</time>
      </trkpt>
      <trkpt lat="42.2192470" lon="-2.1164050">
        <ele>531.4</ele>
        <time>2022-08-15T08:26:59Z</time>
      </trkpt>
      <trkpt lat="42.2192750" lon="-2.1163300">
        <ele>531.4</ele>
        <time>2022-08-15T08:27:00Z</time>
      </trkpt>
      <trkpt lat="42.2194780" lon="-2.1159220">
        <ele>531.0</ele>
        <time>2022-08-15T08:27:06Z</time>
      </trkpt>
      <trkpt lat="42.2195070" lon="-2.1158520">
        <ele>530.9</ele>
        <time>2022-08-15T08:27:07Z</time>
      </trkpt>
      <trkpt lat="42.2196190" lon="-2.1155460">
        <ele>530.8</ele>
        <time>2022-08-15T08:27:11Z</time>
      </trkpt>
      <trkpt lat="42.2196620" lon="-2.1153860">
        <ele>530.7</ele>
        <time>2022-08-15T08:27:13Z</time>
      </trkpt>
      <trkpt lat="42.2196830" lon="-2.1153080">
        <ele>530.7</ele>
        <time>2022-08-15T08:27:14Z</time>
      </trkpt>
      <trkpt lat="42.2197090" lon="-2.1151860">
        <ele>530.7</ele>
        <time>2022-08-15T08:27:16Z</time>
      </trkpt>
      <trkpt lat="42.2197290" lon="-2.1151140">
        <ele>530.8</ele>
        <time>2022-08-15T08:27:17Z</time>
      </trkpt>
      <trkpt lat="42.2197610" lon="-2.1150100">
        <ele>530.8</ele>
        <time>2022-08-15T08:27:18Z</time>
      </trkpt>
      <trkpt lat="42.2198430" lon="-2.1148020">
        <ele>531.0</ele>
        <time>2022-08-15T08:27:21Z</time>
      </trkpt>
      <trkpt lat="42.2198720" lon="-2.1147420">
        <ele>531.1</ele>
        <time>2022-08-15T08:27:22Z</time>
      </trkpt>
      <trkpt lat="42.2199290" lon="-2.1146430">
        <ele>531.5</ele>
        <time>2022-08-15T08:27:24Z</time>
      </trkpt>
      <trkpt lat="42.2200100" lon="-2.1145370">
        <ele>532.0</ele>
        <time>2022-08-15T08:27:27Z</time>
      </trkpt>
      <trkpt lat="42.2200330" lon="-2.1145020">
        <ele>532.2</ele>
        <time>2022-08-15T08:27:28Z</time>
      </trkpt>
      <trkpt lat="42.2200740" lon="-2.1144310">
        <ele>532.5</ele>
        <time>2022-08-15T08:27:30Z</time>
      </trkpt>
      <trkpt lat="42.2200930" lon="-2.1143850">
        <ele>532.4</ele>
        <time>2022-08-15T08:27:31Z</time>
      </trkpt>
      <trkpt lat="42.2201040" lon="-2.1143320">
        <ele>532.3</ele>
        <time>2022-08-15T08:27:32Z</time>
      </trkpt>
      <trkpt lat="42.2201090" lon="-2.1142700">
        <ele>532.3</ele>
        <time>2022-08-15T08:27:33Z</time>
      </trkpt>
      <trkpt lat="42.2201160" lon="-2.1142050">
        <ele>532.2</ele>
        <time>2022-08-15T08:27:34Z</time>
      </trkpt>
      <trkpt lat="42.2201370" lon="-2.1139910">
        <ele>532.0</ele>
        <time>2022-08-15T08:27:37Z</time>
      </trkpt>
      <trkpt lat="42.2201770" lon="-2.1134500">
        <ele>531.6</ele>
        <time>2022-08-15T08:27:44Z</time>
      </trkpt>
      <trkpt lat="42.2201990" lon="-2.1132300">
        <ele>531.4</ele>
        <time>2022-08-15T08:27:47Z</time>
      </trkpt>
      <trkpt lat="42.2202740" lon="-2.1127460">
        <ele>531.1</ele>
        <time>2022-08-15T08:27:53Z</time>
      </trkpt>
      <trkpt lat="42.2204250" lon="-2.1121800">
        <ele>530.7</ele>
        <time>2022-08-15T08:28:00Z</time>
      </trkpt>
      <trkpt lat="42.2206610" lon="-2.1116530">
        <ele>530.2</ele>
        <time>2022-08-15T08:28:07Z</time>
      </trkpt>
      <trkpt lat="42.2209180" lon="-2.1111140">
        <ele>529.6</ele>
        <time>2022-08-15T08:28:14Z</time>
      </trkpt>
      <trkpt lat="42.2209930" lon="-2.1109630">
        <ele>529.4</ele>
        <time>2022-08-15T08:28:16Z</time>
      </trkpt>
      <trkpt lat="42.2212840" lon="-2.1103600">
        <ele>528.8</ele>
        <time>2022-08-15T08:28:24Z</time>
      </trkpt>
      <trkpt lat="42.2213970" lon="-2.1101070">
        <ele>528.5</ele>
        <time>2022-08-15T08:28:27Z</time>
      </trkpt>
      <trkpt lat="42.2215630" lon="-2.1097000">
        <ele>528.0</ele>
        <time>2022-08-15T08:28:32Z</time>
      </trkpt>
      <trkpt lat="42.2216500" lon="-2.1094450">
        <ele>527.6</ele>
        <time>2022-08-15T08:28:35Z</time>
      </trkpt>
      <trkpt lat="42.2216990" lon="-2.1092680">
        <ele>527.2</ele>
        <time>2022-08-15T08:28:37Z</time>
      </trkpt>
      <trkpt lat="42.2218150" lon="-2.1088070">
        <ele>526.2</ele>
        <time>2022-08-15T08:28:42Z</time>
      </trkpt>
      <trkpt lat="42.2218830" lon="-2.1085150">
        <ele>525.5</ele>
        <time>2022-08-15T08:28:45Z</time>
      </trkpt>
      <trkpt lat="42.2220290" lon="-2.1079140">
        <ele>524.2</ele>
        <time>2022-08-15T08:28:51Z</time>
      </trkpt>
      <trkpt lat="42.2220570" lon="-2.1077850">
        <ele>523.9</ele>
        <time>2022-08-15T08:28:52Z</time>
      </trkpt>
      <trkpt lat="42.2221510" lon="-2.1073470">
        <ele>522.9</ele>
        <time>2022-08-15T08:28:56Z</time>
      </trkpt>
      <trkpt lat="42.2222280" lon="-2.1070150">
        <ele>522.4</ele>
        <time>2022-08-15T08:28:59Z</time>
      </trkpt>
      <trkpt lat="42.2222810" lon="-2.1067960">
        <ele>522.2</ele>
        <time>2022-08-15T08:29:01Z</time>
      </trkpt>
      <trkpt lat="42.2224350" lon="-2.1061540">
        <ele>521.6</ele>
        <time>2022-08-15T08:29:07Z</time>
      </trkpt>
      <trkpt lat="42.2224880" lon="-2.1059510">
        <ele>521.5</ele>
        <time>2022-08-15T08:29:09Z</time>
      </trkpt>
      <trkpt lat="42.2225890" lon="-2.1055690">
        <ele>521.3</ele>
        <time>2022-08-15T08:29:13Z</time>
      </trkpt>
      <trkpt lat="42.2226400" lon="-2.1053880">
        <ele>521.2</ele>
        <time>2022-08-15T08:29:15Z</time>
      </trkpt>
      <trkpt lat="42.2226850" lon="-2.1052210">
        <ele>521.1</ele>
        <time>2022-08-15T08:29:17Z</time>
      </trkpt>
      <trkpt lat="42.2227040" lon="-2.1051510">
        <ele>521.0</ele>
        <time>2022-08-15T08:29:18Z</time>
      </trkpt>
      <trkpt lat="42.2227480" lon="-2.1049940">
        <ele>520.9</ele>
        <time>2022-08-15T08:29:21Z</time>
      </trkpt>
      <trkpt lat="42.2227940" lon="-2.1048870">
        <ele>520.8</ele>
        <time>2022-08-15T08:29:25Z</time>
      </trkpt>
      <trkpt lat="42.2227970" lon="-2.1048800">
        <ele>520.8</ele>
        <time>2022-08-15T08:29:26Z</time>
      </trkpt>
      <trkpt lat="42.2228010" lon="-2.1048690">
        <ele>520.8</ele>
        <time>2022-08-15T08:29:27Z</time>
      </trkpt>
      <trkpt lat="42.2228510" lon="-2.1047370">
        <ele>520.7</ele>
        <time>2022-08-15T08:29:31Z</time>
      </trkpt>
      <trkpt lat="42.2228860" lon="-2.1046280">
        <ele>520.7</ele>
        <time>2022-08-15T08:29:33Z</time>
      </trkpt>
      <trkpt lat="42.2229320" lon="-2.1045010">
        <ele>520.5</ele>
        <time>2022-08-15T08:29:35Z</time>
      </trkpt>
      <trkpt lat="42.2229560" lon="-2.1044340">
        <ele>520.5</ele>
        <time>2022-08-15T08:29:36Z</time>
      </trkpt>
      <trkpt lat="42.2230000" lon="-2.1042970">
        <ele>520.3</ele>
        <time>2022-08-15T08:29:38Z</time>
      </trkpt>
      <trkpt lat="42.2230510" lon="-2.1041610">
        <ele>520.1</ele>
        <time>2022-08-15T08:29:40Z</time>
      </trkpt>
      <trkpt lat="42.2230810" lon="-2.1040900">
        <ele>520.0</ele>
        <time>2022-08-15T08:29:41Z</time>
      </trkpt>
      <trkpt lat="42.2231310" lon="-2.1039720">
        <ele>519.8</ele>
        <time>2022-08-15T08:29:43Z</time>
      </trkpt>
      <trkpt lat="42.2232070" lon="-2.1038180">
        <ele>519.5</ele>
        <time>2022-08-15T08:29:45Z</time>
      </trkpt>
      <trkpt lat="42.2233630" lon="-2.1034440">
        <ele>518.9</ele>
        <time>2022-08-15T08:29:50Z</time>
      </trkpt>
      <trkpt lat="42.2233910" lon="-2.1033720">
        <ele>518.8</ele>
        <time>2022-08-15T08:29:51Z</time>
      </trkpt>
      <trkpt lat="42.2234250" lon="-2.1032990">
        <ele>518.7</ele>
        <time>2022-08-15T08:29:52Z</time>
      </trkpt>
      <trkpt lat="42.2235770" lon="-2.1029160">
        <ele>518.1</ele>
        <time>2022-08-15T08:29:57Z</time>
      </trkpt>
      <trkpt lat="42.2236200" lon="-2.1028170">
        <ele>518.0</ele>
        <time>2022-08-15T08:29:58Z</time>
      </trkpt>
      <trkpt lat="42.2236840" lon="-2.1026570">
        <ele>517.8</ele>
        <time>2022-08-15T08:30:00Z</time>
      </trkpt>
      <trkpt lat="42.2237870" lon="-2.1024100">
        <ele>517.6</ele>
        <time>2022-08-15T08:30:03Z</time>
      </trkpt>
      <trkpt lat="42.2239480" lon="-2.1020070">
        <ele>517.3</ele>
        <time>2022-08-15T08:30:08Z</time>
      </trkpt>
      <trkpt lat="42.2240250" lon="-2.1018470">
        <ele>517.3</ele>
        <time>2022-08-15T08:30:10Z</time>
      </trkpt>
      <trkpt lat="42.2241040" lon="-2.1016910">
        <ele>517.2</ele>
        <time>2022-08-15T08:30:12Z</time>
      </trkpt>
      <trkpt lat="42.2241900" lon="-2.1014910">
        <ele>517.2</ele>
        <time>2022-08-15T08:30:15Z</time>
      </trkpt>
      <trkpt lat="42.2243750" lon="-2.1010950">
        <ele>517.2</ele>
        <time>2022-08-15T08:30:20Z</time>
      </trkpt>
      <trkpt lat="42.2244050" lon="-2.1010250">
        <ele>517.2</ele>
        <time>2022-08-15T08:30:21Z</time>
      </trkpt>
      <trkpt lat="42.2244670" lon="-2.1008880">
        <ele>517.2</ele>
        <time>2022-08-15T08:30:23Z</time>
      </trkpt>
      <trkpt lat="42.2245130" lon="-2.1007390">
        <ele>517.1</ele>
        <time>2022-08-15T08:30:25Z</time>
      </trkpt>
      <trkpt lat="42.2245300" lon="-2.1006570">
        <ele>517.1</ele>
        <time>2022-08-15T08:30:26Z</time>
      </trkpt>
      <trkpt lat="42.2245340" lon="-2.1005710">
        <ele>517.1</ele>
        <time>2022-08-15T08:30:27Z</time>
      </trkpt>
      <trkpt lat="42.2245350" lon="-2.1003950">
        <ele>516.9</ele>
        <time>2022-08-15T08:30:29Z</time>
      </trkpt>
      <trkpt lat="42.2245480" lon="-2.1003140">
        <ele>516.8</ele>
        <time>2022-08-15T08:30:30Z</time>
      </trkpt>
      <trkpt lat="42.2245740" lon="-2.1002440">
        <ele>516.7</ele>
        <time>2022-08-15T08:30:31Z</time>
      </trkpt>
      <trkpt lat="42.2246420" lon="-2.1001600">
        <ele>516.7</ele>
        <time>2022-08-15T08:30:33Z</time>
      </trkpt>
      <trkpt lat="42.2246950" lon="-2.1001570">
        <ele>516.7</ele>
        <time>2022-08-15T08:30:34Z</time>
      </trkpt>
      <trkpt lat="42.2247510" lon="-2.1001750">
        <ele>516.7</ele>
        <time>2022-08-15T08:30:35Z</time>
      </trkpt>
      <trkpt lat="42.2248000" lon="-2.1002210">
        <ele>516.8</ele>
        <time>2022-08-15T08:30:36Z</time>
      </trkpt>
      <trkpt lat="42.2248650" lon="-2.1003520">
        <ele>516.9</ele>
        <time>2022-08-15T08:30:38Z</time>
      </trkpt>
      <trkpt lat="42.2249320" lon="-2.1004930">
        <ele>517.6</ele>
        <time>2022-08-15T08:30:41Z</time>
      </trkpt>
      <trkpt lat="42.2249450" lon="-2.1005130">
        <ele>517.7</ele>
        <time>2022-08-15T08:30:42Z</time>
      </trkpt>
      <trkpt lat="42.2250120" lon="-2.1005520">
        <ele>518.1</ele>
        <time>2022-08-15T08:30:46Z</time>
      </trkpt>
      <trkpt lat="42.2251010" lon="-2.1006010">
        <ele>518.4</ele>
        <time>2022-08-15T08:30:49Z</time>
      </trkpt>
      <trkpt lat="42.2251690" lon="-2.1006530">
        <ele>518.6</ele>
        <time>2022-08-15T08:30:51Z</time>
      </trkpt>
      <trkpt lat="42.2252070" lon="-2.1006770">
        <ele>518.7</ele>
        <time>2022-08-15T08:30:52Z</time>
      </trkpt>
      <trkpt lat="42.2252390" lon="-2.1006980">
        <ele>518.8</ele>
        <time>2022-08-15T08:30:53Z</time>
      </trkpt>
      <trkpt lat="42.2252970" lon="-2.1007570">
        <ele>519.0</ele>
        <time>2022-08-15T08:30:55Z</time>
      </trkpt>
      <trkpt lat="42.2253540" lon="-2.1008010">
        <ele>519.2</ele>
        <time>2022-08-15T08:30:57Z</time>
      </trkpt>
      <trkpt lat="42.2253630" lon="-2.1008660">
        <ele>519.8</ele>
        <time>2022-08-15T08:30:59Z</time>
      </trkpt>
      <trkpt lat="42.2253480" lon="-2.1009570">
        <ele>519.9</ele>
        <time>2022-08-15T08:31:01Z</time>
      </trkpt>
      <trkpt lat="42.2253180" lon="-2.1010670">
        <ele>520.0</ele>
        <time>2022-08-15T08:31:03Z</time>
      </trkpt>
      <trkpt lat="42.2252570" lon="-2.1012910">
        <ele>520.3</ele>
        <time>2022-08-15T08:31:07Z</time>
      </trkpt>
      <trkpt lat="42.2252630" lon="-2.1013360">
        <ele>520.4</ele>
        <time>2022-08-15T08:31:08Z</time>
      </trkpt>
      <trkpt lat="42.2252960" lon="-2.1014070">
        <ele>520.4</ele>
        <time>2022-08-15T08:31:10Z</time>
      </trkpt>
      <trkpt lat="42.2253080" lon="-2.1014330">
        <ele>520.4</ele>
        <time>2022-08-15T08:31:12Z</time>
      </trkpt>
      <trkpt lat="42.2253050" lon="-2.1014820">
        <ele>520.5</ele>
        <time>2022-08-15T08:31:30Z</time>
      </trkpt>
      <trkpt lat="42.2252980" lon="-2.1015090">
        <ele>520.5</ele>
        <time>2022-08-15T08:31:31Z</time>
      </trkpt>
      <trkpt lat="42.2252910" lon="-2.1015330">
        <ele>520.5</ele>
        <time>2022-08-15T08:31:32Z</time>
      </trkpt>
      <trkpt lat="42.2252870" lon="-2.1015610">
        <ele>520.5</ele>
        <time>2022-08-15T08:31:33Z</time>
      </trkpt>
      <trkpt lat="42.2252920" lon="-2.1016080">
        <ele>520.5</ele>
        <time>2022-08-15T08:31:35Z</time>
      </trkpt>
      <trkpt lat="42.2253040" lon="-2.1016840">
        <ele>520.4</ele>
        <time>2022-08-15T08:31:39Z</time>
      </trkpt>
      <trkpt lat="42.2252960" lon="-2.1017050">
        <ele>520.4</ele>
        <time>2022-08-15T08:31:40Z</time>
      </trkpt>
      <trkpt lat="42.2252850" lon="-2.1017400">
        <ele>520.4</ele>
        <time>2022-08-15T08:31:42Z</time>
      </trkpt>
      <trkpt lat="42.2252950" lon="-2.1017680">
        <ele>520.4</ele>
        <time>2022-08-15T08:31:44Z</time>
      </trkpt>
      <trkpt lat="42.2253040" lon="-2.1017780">
        <ele>520.4</ele>
        <time>2022-08-15T08:31:45Z</time>
      </trkpt>
      <trkpt lat="42.2253370" lon="-2.1018310">
        <ele>520.4</ele>
        <time>2022-08-15T08:31:49Z</time>
      </trkpt>
      <trkpt lat="42.2253450" lon="-2.1018430">
        <ele>520.4</ele>
        <time>2022-08-15T08:31:51Z</time>
      </trkpt>
      <trkpt lat="42.2253450" lon="-2.1018430">
        <ele>520.4</ele>
        <time>2022-08-15T08:31:52Z</time>
      </trkpt>
      <trkpt lat="42.2253490" lon="-2.1018890">
        <ele>520.4</ele>
        <time>2022-08-15T08:32:07Z</time>
      </trkpt>
      <trkpt lat="42.2253450" lon="-2.1019160">
        <ele>520.4</ele>
        <time>2022-08-15T08:32:09Z</time>
      </trkpt>
      <trkpt lat="42.2253420" lon="-2.1019210">
        <ele>520.4</ele>
        <time>2022-08-15T08:32:10Z</time>
      </trkpt>
      <trkpt lat="42.2253350" lon="-2.1019340">
        <ele>520.4</ele>
        <time>2022-08-15T08:34:40Z</time>
      </trkpt>
      <trkpt lat="42.2253390" lon="-2.1020060">
        <ele>520.4</ele>
        <time>2022-08-15T08:34:43Z</time>
      </trkpt>
      <trkpt lat="42.2253410" lon="-2.1020340">
        <ele>520.4</ele>
        <time>2022-08-15T08:34:44Z</time>
      </trkpt>
      <trkpt lat="42.2253470" lon="-2.1020560">
        <ele>520.4</ele>
        <time>2022-08-15T08:34:45Z</time>
      </trkpt>
      <trkpt lat="42.2253380" lon="-2.1020720">
        <ele>520.4</ele>
        <time>2022-08-15T08:34:47Z</time>
      </trkpt>
      <trkpt lat="42.2252950" lon="-2.1020560">
        <ele>520.4</ele>
        <time>2022-08-15T08:34:52Z</time>
      </trkpt>
      <trkpt lat="42.2252480" lon="-2.1020210">
        <ele>520.4</ele>
        <time>2022-08-15T08:34:55Z</time>
      </trkpt>
      <trkpt lat="42.2252050" lon="-2.1019590">
        <ele>520.4</ele>
        <time>2022-08-15T08:34:58Z</time>
      </trkpt>
      <trkpt lat="42.2252080" lon="-2.1019260">
        <ele>520.4</ele>
        <time>2022-08-15T08:34:59Z</time>
      </trkpt>
      <trkpt lat="42.2252190" lon="-2.1018490">
        <ele>520.4</ele>
        <time>2022-08-15T08:35:01Z</time>
      </trkpt>
      <trkpt lat="42.2252540" lon="-2.1017650">
        <ele>520.4</ele>
        <time>2022-08-15T08:35:03Z</time>
      </trkpt>
      <trkpt lat="42.2252810" lon="-2.1016670">
        <ele>520.4</ele>
        <time>2022-08-15T08:35:06Z</time>
      </trkpt>
      <trkpt lat="42.2252830" lon="-2.1016460">
        <ele>520.4</ele>
        <time>2022-08-15T08:35:07Z</time>
      </trkpt>
      <trkpt lat="42.2252840" lon="-2.1016170">
        <ele>520.4</ele>
        <time>2022-08-15T08:35:10Z</time>
      </trkpt>
      <trkpt lat="42.2252980" lon="-2.1015900">
        <ele>520.4</ele>
        <time>2022-08-15T08:35:12Z</time>
      </trkpt>
      <trkpt lat="42.2253010" lon="-2.1014870">
        <ele>520.5</ele>
        <time>2022-08-15T08:35:17Z</time>
      </trkpt>
      <trkpt lat="42.2252910" lon="-2.1014580">
        <ele>520.5</ele>
        <time>2022-08-15T08:35:18Z</time>
      </trkpt>
      <trkpt lat="42.2252950" lon="-2.1012930">
        <ele>520.3</ele>
        <time>2022-08-15T08:35:22Z</time>
      </trkpt>
      <trkpt lat="42.2253650" lon="-2.1011060">
        <ele>520.0</ele>
        <time>2022-08-15T08:35:26Z</time>
      </trkpt>
      <trkpt lat="42.2253770" lon="-2.1010660">
        <ele>520.0</ele>
        <time>2022-08-15T08:35:27Z</time>
      </trkpt>
      <trkpt lat="42.2254000" lon="-2.1009920">
        <ele>519.9</ele>
        <time>2022-08-15T08:35:29Z</time>
      </trkpt>
      <trkpt lat="42.2254120" lon="-2.1009540">
        <ele>519.9</ele>
        <time>2022-08-15T08:35:30Z</time>
      </trkpt>
      <trkpt lat="42.2254770" lon="-2.1008230">
        <ele>519.7</ele>
        <time>2022-08-15T08:35:34Z</time>
      </trkpt>
      <trkpt lat="42.2255110" lon="-2.1007350">
        <ele>519.7</ele>
        <time>2022-08-15T08:35:36Z</time>
      </trkpt>
      <trkpt lat="42.2255240" lon="-2.1006820">
        <ele>519.6</ele>
        <time>2022-08-15T08:35:37Z</time>
      </trkpt>
      <trkpt lat="42.2255380" lon="-2.1005840">
        <ele>519.4</ele>
        <time>2022-08-15T08:35:39Z</time>
      </trkpt>
      <trkpt lat="42.2255420" lon="-2.1005310">
        <ele>519.4</ele>
        <time>2022-08-15T08:35:40Z</time>
      </trkpt>
      <trkpt lat="42.2255700" lon="-2.1003910">
        <ele>519.2</ele>
        <time>2022-08-15T08:35:43Z</time>
      </trkpt>
      <trkpt lat="42.2255940" lon="-2.1003260">
        <ele>519.2</ele>
        <time>2022-08-15T08:35:45Z</time>
      </trkpt>
      <trkpt lat="42.2256210" lon="-2.1002430">
        <ele>519.1</ele>
        <time>2022-08-15T08:35:47Z</time>
      </trkpt>
      <trkpt lat="42.2256700" lon="-2.1002000">
        <ele>519.1</ele>
        <time>2022-08-15T08:35:50Z</time>
      </trkpt>
      <trkpt lat="42.2256730" lon="-2.1001960">
        <ele>519.1</ele>
        <time>2022-08-15T08:35:51Z</time>
      </trkpt>
      <trkpt lat="42.2256830" lon="-2.1001330">
        <ele>519.0</ele>
        <time>2022-08-15T08:36:37Z</time>
      </trkpt>
      <trkpt lat="42.2256950" lon="-2.1001010">
        <ele>519.0</ele>
        <time>2022-08-15T08:36:38Z</time>
      </trkpt>
      <trkpt lat="42.2257270" lon="-2.1000150">
        <ele>519.0</ele>
        <time>2022-08-15T08:36:41Z</time>
      </trkpt>
      <trkpt lat="42.2257410" lon="-2.0999150">
        <ele>519.0</ele>
        <time>2022-08-15T08:36:45Z</time>
      </trkpt>
      <trkpt lat="42.2257400" lon="-2.0998980">
        <ele>519.0</ele>
        <time>2022-08-15T08:36:46Z</time>
      </trkpt>
      <trkpt lat="42.2257460" lon="-2.0998820">
        <ele>519.0</ele>
        <time>2022-08-15T08:36:47Z</time>
      </trkpt>
      <trkpt lat="42.2257540" lon="-2.0998620">
        <ele>519.0</ele>
        <time>2022-08-15T08:36:48Z</time>
      </trkpt>
      <trkpt lat="42.2257610" lon="-2.0998410">
        <ele>519.0</ele>
        <time>2022-08-15T08:36:49Z</time>
      </trkpt>
      <trkpt lat="42.2257650" lon="-2.0998200">
        <ele>518.9</ele>
        <time>2022-08-15T08:36:50Z</time>
      </trkpt>
      <trkpt lat="42.2257660" lon="-2.0998040">
        <ele>518.9</ele>
        <time>2022-08-15T08:36:51Z</time>
      </trkpt>
      <trkpt lat="42.2257670" lon="-2.0997970">
        <ele>518.9</ele>
        <time>2022-08-15T08:36:52Z</time>
      </trkpt>
      <trkpt lat="42.2257670" lon="-2.0997930">
        <ele>518.9</ele>
        <time>2022-08-15T08:36:53Z</time>
      </trkpt>
      <trkpt lat="42.2257660" lon="-2.0997910">
        <ele>518.9</ele>
        <time>2022-08-15T08:36:54Z</time>
      </trkpt>
      <trkpt lat="42.2257660" lon="-2.0997910">
        <ele>518.9</ele>
        <time>2022-08-15T08:36:55Z</time>
      </trkpt>
      <trkpt lat="42.2257590" lon="-2.0997840">
        <ele>518.9</ele>
        <time>2022-08-15T08:36:59Z</time>
      </trkpt>
      <trkpt lat="42.2257590" lon="-2.0997840">
        <ele>518.9</ele>
        <time>2022-08-15T08:37:00Z</time>
      </trkpt>
      <trkpt lat="42.2257590" lon="-2.0997840">
        <ele>518.9</ele>
        <time>2022-08-15T08:37:01Z</time>
      </trkpt>
      <trkpt lat="42.2257530" lon="-2.0997990">
        <ele>518.9</ele>
        <time>2022-08-15T08:39:31Z</time>
      </trkpt>
      <trkpt lat="42.2257350" lon="-2.0998190">
        <ele>518.9</ele>
        <time>2022-08-15T08:39:33Z</time>
      </trkpt>
      <trkpt lat="42.2257100" lon="-2.0998000">
        <ele>518.9</ele>
        <time>2022-08-15T08:39:37Z</time>
      </trkpt>
      <trkpt lat="42.2257100" lon="-2.0997700">
        <ele>518.8</ele>
        <time>2022-08-15T08:39:38Z</time>
      </trkpt>
      <trkpt lat="42.2257180" lon="-2.0997370">
        <ele>518.8</ele>
        <time>2022-08-15T08:39:39Z</time>
      </trkpt>
      <trkpt lat="42.2257280" lon="-2.0996740">
        <ele>518.0</ele>
        <time>2022-08-15T08:39:41Z</time>
      </trkpt>
      <trkpt lat="42.2257160" lon="-2.0996530">
        <ele>517.9</ele>
        <time>2022-08-15T08:39:42Z</time>
      </trkpt>
      <trkpt lat="42.2256930" lon="-2.0996120">
        <ele>517.7</ele>
        <time>2022-08-15T08:39:44Z</time>
      </trkpt>
      <trkpt lat="42.2256770" lon="-2.0995930">
        <ele>517.6</ele>
        <time>2022-08-15T08:39:45Z</time>
      </trkpt>
      <trkpt lat="42.2256510" lon="-2.0995740">
        <ele>517.4</ele>
        <time>2022-08-15T08:39:46Z</time>
      </trkpt>
      <trkpt lat="42.2256230" lon="-2.0995550">
        <ele>517.3</ele>
        <time>2022-08-15T08:39:47Z</time>
      </trkpt>
      <trkpt lat="42.2254530" lon="-2.0994320">
        <ele>516.5</ele>
        <time>2022-08-15T08:39:51Z</time>
      </trkpt>
      <trkpt lat="42.2254230" lon="-2.0994070">
        <ele>516.4</ele>
        <time>2022-08-15T08:39:52Z</time>
      </trkpt>
      <trkpt lat="42.2253940" lon="-2.0993820">
        <ele>516.4</ele>
        <time>2022-08-15T08:39:53Z</time>
      </trkpt>
      <trkpt lat="42.2253560" lon="-2.0993400">
        <ele>515.9</ele>
        <time>2022-08-15T08:39:55Z</time>
      </trkpt>
      <trkpt lat="42.2253560" lon="-2.0993190">
        <ele>516.0</ele>
        <time>2022-08-15T08:39:56Z</time>
      </trkpt>
      <trkpt lat="42.2253460" lon="-2.0993160">
        <ele>516.0</ele>
        <time>2022-08-15T08:40:00Z</time>
      </trkpt>
      <trkpt lat="42.2253430" lon="-2.0993260">
        <ele>516.0</ele>
        <time>2022-08-15T08:40:03Z</time>
      </trkpt>
      <trkpt lat="42.2253430" lon="-2.0993260">
        <ele>516.0</ele>
        <time>2022-08-15T08:40:04Z</time>
      </trkpt>
      <trkpt lat="42.2253430" lon="-2.0993260">
        <ele>516.0</ele>
        <time>2022-08-15T08:40:05Z</time>
      </trkpt>
      <trkpt lat="42.2253430" lon="-2.0993320">
        <ele>516.0</ele>
        <time>2022-08-15T08:40:06Z</time>
      </trkpt>
      <trkpt lat="42.2253310" lon="-2.0993460">
        <ele>516.0</ele>
        <time>2022-08-15T08:40:07Z</time>
      </trkpt>
      <trkpt lat="42.2253210" lon="-2.0993710">
        <ele>516.0</ele>
        <time>2022-08-15T08:40:08Z</time>
      </trkpt>
      <trkpt lat="42.2252790" lon="-2.0994570">
        <ele>516.1</ele>
        <time>2022-08-15T08:40:10Z</time>
      </trkpt>
      <trkpt lat="42.2252370" lon="-2.0995630">
        <ele>516.2</ele>
        <time>2022-08-15T08:40:12Z</time>
      </trkpt>
      <trkpt lat="42.2251660" lon="-2.0997130">
        <ele>516.3</ele>
        <time>2022-08-15T08:40:15Z</time>
      </trkpt>
      <trkpt lat="42.2251490" lon="-2.0997600">
        <ele>516.3</ele>
        <time>2022-08-15T08:40:16Z</time>
      </trkpt>
      <trkpt lat="42.2251390" lon="-2.0998010">
        <ele>516.4</ele>
        <time>2022-08-15T08:40:17Z</time>
      </trkpt>
      <trkpt lat="42.2251170" lon="-2.0998860">
        <ele>516.4</ele>
        <time>2022-08-15T08:40:19Z</time>
      </trkpt>
      <trkpt lat="42.2250550" lon="-2.1000460">
        <ele>516.6</ele>
        <time>2022-08-15T08:40:22Z</time>
      </trkpt>
      <trkpt lat="42.2250020" lon="-2.1001610">
        <ele>516.7</ele>
        <time>2022-08-15T08:40:24Z</time>
      </trkpt>
      <trkpt lat="42.2249520" lon="-2.1002900">
        <ele>516.8</ele>
        <time>2022-08-15T08:40:26Z</time>
      </trkpt>
      <trkpt lat="42.2249540" lon="-2.1003490">
        <ele>517.0</ele>
        <time>2022-08-15T08:40:27Z</time>
      </trkpt>
      <trkpt lat="42.2249530" lon="-2.1004060">
        <ele>517.1</ele>
        <time>2022-08-15T08:40:28Z</time>
      </trkpt>
      <trkpt lat="42.2249180" lon="-2.1005170">
        <ele>517.2</ele>
        <time>2022-08-15T08:40:30Z</time>
      </trkpt>
      <trkpt lat="42.2248470" lon="-2.1005950">
        <ele>517.4</ele>
        <time>2022-08-15T08:40:32Z</time>
      </trkpt>
      <trkpt lat="42.2247730" lon="-2.1006410">
        <ele>517.3</ele>
        <time>2022-08-15T08:40:34Z</time>
      </trkpt>
      <trkpt lat="42.2247320" lon="-2.1006440">
        <ele>517.3</ele>
        <time>2022-08-15T08:40:35Z</time>
      </trkpt>
      <trkpt lat="42.2246900" lon="-2.1006190">
        <ele>517.2</ele>
        <time>2022-08-15T08:40:36Z</time>
      </trkpt>
      <trkpt lat="42.2246520" lon="-2.1005700">
        <ele>517.2</ele>
        <time>2022-08-15T08:40:37Z</time>
      </trkpt>
      <trkpt lat="42.2245950" lon="-2.1004450">
        <ele>517.0</ele>
        <time>2022-08-15T08:40:39Z</time>
      </trkpt>
      <trkpt lat="42.2245870" lon="-2.1003090">
        <ele>516.8</ele>
        <time>2022-08-15T08:40:41Z</time>
      </trkpt>
      <trkpt lat="42.2246210" lon="-2.1002120">
        <ele>516.7</ele>
        <time>2022-08-15T08:40:43Z</time>
      </trkpt>
      <trkpt lat="42.2246460" lon="-2.1001780">
        <ele>516.7</ele>
        <time>2022-08-15T08:40:44Z</time>
      </trkpt>
      <trkpt lat="42.2246710" lon="-2.1001540">
        <ele>516.7</ele>
        <time>2022-08-15T08:40:45Z</time>
      </trkpt>
      <trkpt lat="42.2247740" lon="-2.1000740">
        <ele>516.6</ele>
        <time>2022-08-15T08:40:48Z</time>
      </trkpt>
      <trkpt lat="42.2248710" lon="-2.0999250">
        <ele>516.6</ele>
        <time>2022-08-15T08:40:51Z</time>
      </trkpt>
      <trkpt lat="42.2249130" lon="-2.0998250">
        <ele>516.5</ele>
        <time>2022-08-15T08:40:53Z</time>
      </trkpt>
      <trkpt lat="42.2249890" lon="-2.0996620">
        <ele>516.3</ele>
        <time>2022-08-15T08:40:56Z</time>
      </trkpt>
      <trkpt lat="42.2250420" lon="-2.0995400">
        <ele>516.2</ele>
        <time>2022-08-15T08:40:58Z</time>
      </trkpt>
      <trkpt lat="42.2251440" lon="-2.0993700">
        <ele>516.1</ele>
        <time>2022-08-15T08:41:01Z</time>
      </trkpt>
      <trkpt lat="42.2252310" lon="-2.0991990">
        <ele>515.9</ele>
        <time>2022-08-15T08:41:04Z</time>
      </trkpt>
      <trkpt lat="42.2252620" lon="-2.0991420">
        <ele>515.9</ele>
        <time>2022-08-15T08:41:05Z</time>
      </trkpt>
      <trkpt lat="42.2254130" lon="-2.0988600">
        <ele>515.5</ele>
        <time>2022-08-15T08:41:10Z</time>
      </trkpt>
      <trkpt lat="42.2254490" lon="-2.0987990">
        <ele>515.4</ele>
        <time>2022-08-15T08:41:11Z</time>
      </trkpt>
      <trkpt lat="42.2254710" lon="-2.0987290">
        <ele>515.3</ele>
        <time>2022-08-15T08:41:12Z</time>
      </trkpt>
      <trkpt lat="42.2254930" lon="-2.0986630">
        <ele>515.2</ele>
        <time>2022-08-15T08:41:13Z</time>
      </trkpt>
      <trkpt lat="42.2255510" lon="-2.0985350">
        <ele>515.0</ele>
        <time>2022-08-15T08:41:15Z</time>
      </trkpt>
      <trkpt lat="42.2256150" lon="-2.0983930">
        <ele>514.8</ele>
        <time>2022-08-15T08:41:17Z</time>
      </trkpt>
      <trkpt lat="42.2256880" lon="-2.0981610">
        <ele>514.5</ele>
        <time>2022-08-15T08:41:20Z</time>
      </trkpt>
      <trkpt lat="42.2257440" lon="-2.0980160">
        <ele>514.4</ele>
        <time>2022-08-15T08:41:22Z</time>
      </trkpt>
      <trkpt lat="42.2258040" lon="-2.0978750">
        <ele>514.2</ele>
        <time>2022-08-15T08:41:24Z</time>
      </trkpt>
      <trkpt lat="42.2258400" lon="-2.0978060">
        <ele>514.1</ele>
        <time>2022-08-15T08:41:25Z</time>
      </trkpt>
      <trkpt lat="42.2259090" lon="-2.0976630">
        <ele>513.9</ele>
        <time>2022-08-15T08:41:27Z</time>
      </trkpt>
      <trkpt lat="42.2259400" lon="-2.0975920">
        <ele>513.8</ele>
        <time>2022-08-15T08:41:28Z</time>
      </trkpt>
      <trkpt lat="42.2261210" lon="-2.0972000">
        <ele>513.4</ele>
        <time>2022-08-15T08:41:34Z</time>
      </trkpt>
      <trkpt lat="42.2261420" lon="-2.0971470">
        <ele>513.3</ele>
        <time>2022-08-15T08:41:36Z</time>
      </trkpt>
      <trkpt lat="42.2261510" lon="-2.0971350">
        <ele>513.3</ele>
        <time>2022-08-15T08:41:37Z</time>
      </trkpt>
      <trkpt lat="42.2261820" lon="-2.0970960">
        <ele>513.3</ele>
        <time>2022-08-15T08:41:39Z</time>
      </trkpt>
      <trkpt lat="42.2262170" lon="-2.0970240">
        <ele>513.2</ele>
        <time>2022-08-15T08:41:41Z</time>
      </trkpt>
      <trkpt lat="42.2262450" lon="-2.0969790">
        <ele>513.1</ele>
        <time>2022-08-15T08:41:42Z</time>
      </trkpt>
      <trkpt lat="42.2262760" lon="-2.0969220">
        <ele>513.0</ele>
        <time>2022-08-15T08:41:43Z</time>
      </trkpt>
      <trkpt lat="42.2263080" lon="-2.0968610">
        <ele>512.9</ele>
        <time>2022-08-15T08:41:44Z</time>
      </trkpt>
      <trkpt lat="42.2263340" lon="-2.0967990">
        <ele>512.8</ele>
        <time>2022-08-15T08:41:45Z</time>
      </trkpt>
      <trkpt lat="42.2263610" lon="-2.0967350">
        <ele>512.7</ele>
        <time>2022-08-15T08:41:46Z</time>
      </trkpt>
      <trkpt lat="42.2263910" lon="-2.0966730">
        <ele>512.6</ele>
        <time>2022-08-15T08:41:47Z</time>
      </trkpt>
      <trkpt lat="42.2264540" lon="-2.0965400">
        <ele>512.5</ele>
        <time>2022-08-15T08:41:49Z</time>
      </trkpt>
      <trkpt lat="42.2265480" lon="-2.0963150">
        <ele>512.1</ele>
        <time>2022-08-15T08:41:52Z</time>
      </trkpt>
      <trkpt lat="42.2266020" lon="-2.0961530">
        <ele>511.9</ele>
        <time>2022-08-15T08:41:54Z</time>
      </trkpt>
      <trkpt lat="42.2266250" lon="-2.0960680">
        <ele>511.7</ele>
        <time>2022-08-15T08:41:55Z</time>
      </trkpt>
      <trkpt lat="42.2266840" lon="-2.0959100">
        <ele>511.5</ele>
        <time>2022-08-15T08:41:57Z</time>
      </trkpt>
      <trkpt lat="42.2267420" lon="-2.0957450">
        <ele>511.2</ele>
        <time>2022-08-15T08:41:59Z</time>
      </trkpt>
      <trkpt lat="42.2267760" lon="-2.0956650">
        <ele>511.0</ele>
        <time>2022-08-15T08:42:00Z</time>
      </trkpt>
      <trkpt lat="42.2269080" lon="-2.0951950">
        <ele>510.3</ele>
        <time>2022-08-15T08:42:06Z</time>
      </trkpt>
      <trkpt lat="42.2269530" lon="-2.0949520">
        <ele>510.0</ele>
        <time>2022-08-15T08:42:09Z</time>
      </trkpt>
      <trkpt lat="42.2269790" lon="-2.0948740">
        <ele>509.8</ele>
        <time>2022-08-15T08:42:10Z</time>
      </trkpt>
      <trkpt lat="42.2270550" lon="-2.0946320">
        <ele>509.5</ele>
        <time>2022-08-15T08:42:13Z</time>
      </trkpt>
      <trkpt lat="42.2270810" lon="-2.0945540">
        <ele>509.3</ele>
        <time>2022-08-15T08:42:14Z</time>
      </trkpt>
      <trkpt lat="42.2271550" lon="-2.0943140">
        <ele>509.1</ele>
        <time>2022-08-15T08:42:17Z</time>
      </trkpt>
      <trkpt lat="42.2271680" lon="-2.0941450">
        <ele>509.1</ele>
        <time>2022-08-15T08:42:19Z</time>
      </trkpt>
      <trkpt lat="42.2271720" lon="-2.0940580">
        <ele>509.0</ele>
        <time>2022-08-15T08:42:20Z</time>
      </trkpt>
      <trkpt lat="42.2272160" lon="-2.0938970">
        <ele>508.8</ele>
        <time>2022-08-15T08:42:22Z</time>
      </trkpt>
      <trkpt lat="42.2272500" lon="-2.0938240">
        <ele>508.4</ele>
        <time>2022-08-15T08:42:23Z</time>
      </trkpt>
      <trkpt lat="42.2274070" lon="-2.0935170">
        <ele>506.9</ele>
        <time>2022-08-15T08:42:27Z</time>
      </trkpt>
      <trkpt lat="42.2274750" lon="-2.0933510">
        <ele>506.5</ele>
        <time>2022-08-15T08:42:29Z</time>
      </trkpt>
      <trkpt lat="42.2275060" lon="-2.0932660">
        <ele>506.4</ele>
        <time>2022-08-15T08:42:30Z</time>
      </trkpt>
      <trkpt lat="42.2276400" lon="-2.0928510">
        <ele>505.7</ele>
        <time>2022-08-15T08:42:35Z</time>
      </trkpt>
      <trkpt lat="42.2276620" lon="-2.0927740">
        <ele>505.6</ele>
        <time>2022-08-15T08:42:36Z</time>
      </trkpt>
      <trkpt lat="42.2276900" lon="-2.0926860">
        <ele>505.4</ele>
        <time>2022-08-15T08:42:37Z</time>
      </trkpt>
      <trkpt lat="42.2277640" lon="-2.0924040">
        <ele>504.9</ele>
        <time>2022-08-15T08:42:41Z</time>
      </trkpt>
      <trkpt lat="42.2277830" lon="-2.0923280">
        <ele>504.8</ele>
        <time>2022-08-15T08:42:42Z</time>
      </trkpt>
      <trkpt lat="42.2278060" lon="-2.0922530">
        <ele>504.7</ele>
        <time>2022-08-15T08:42:43Z</time>
      </trkpt>
      <trkpt lat="42.2278560" lon="-2.0920630">
        <ele>504.4</ele>
        <time>2022-08-15T08:42:46Z</time>
      </trkpt>
      <trkpt lat="42.2278720" lon="-2.0919900">
        <ele>504.3</ele>
        <time>2022-08-15T08:42:47Z</time>
      </trkpt>
      <trkpt lat="42.2278970" lon="-2.0918870">
        <ele>504.1</ele>
        <time>2022-08-15T08:42:48Z</time>
      </trkpt>
      <trkpt lat="42.2279420" lon="-2.0917380">
        <ele>503.9</ele>
        <time>2022-08-15T08:42:50Z</time>
      </trkpt>
      <trkpt lat="42.2280590" lon="-2.0914570">
        <ele>503.6</ele>
        <time>2022-08-15T08:42:54Z</time>
      </trkpt>
      <trkpt lat="42.2280680" lon="-2.0913120">
        <ele>503.4</ele>
        <time>2022-08-15T08:42:56Z</time>
      </trkpt>
      <trkpt lat="42.2280780" lon="-2.0911610">
        <ele>503.3</ele>
        <time>2022-08-15T08:42:58Z</time>
      </trkpt>
      <trkpt lat="42.2281070" lon="-2.0910920">
        <ele>503.2</ele>
        <time>2022-08-15T08:42:59Z</time>
      </trkpt>
      <trkpt lat="42.2281360" lon="-2.0910230">
        <ele>503.1</ele>
        <time>2022-08-15T08:43:00Z</time>
      </trkpt>
      <trkpt lat="42.2281640" lon="-2.0909590">
        <ele>503.1</ele>
        <time>2022-08-15T08:43:01Z</time>
      </trkpt>
      <trkpt lat="42.2281890" lon="-2.0908950">
        <ele>503.0</ele>
        <time>2022-08-15T08:43:02Z</time>
      </trkpt>
      <trkpt lat="42.2283190" lon="-2.0905340">
        <ele>502.6</ele>
        <time>2022-08-15T08:43:07Z</time>
      </trkpt>
      <trkpt lat="42.2283730" lon="-2.0903840">
        <ele>502.3</ele>
        <time>2022-08-15T08:43:09Z</time>
      </trkpt>
      <trkpt lat="42.2284260" lon="-2.0902280">
        <ele>502.1</ele>
        <time>2022-08-15T08:43:11Z</time>
      </trkpt>
      <trkpt lat="42.2286510" lon="-2.0895430">
        <ele>501.3</ele>
        <time>2022-08-15T08:43:20Z</time>
      </trkpt>
      <trkpt lat="42.2288040" lon="-2.0891230">
        <ele>500.9</ele>
        <time>2022-08-15T08:43:26Z</time>
      </trkpt>
      <trkpt lat="42.2288370" lon="-2.0890600">
        <ele>500.8</ele>
        <time>2022-08-15T08:43:27Z</time>
      </trkpt>
      <trkpt lat="42.2289730" lon="-2.0888610">
        <ele>500.7</ele>
        <time>2022-08-15T08:43:31Z</time>
      </trkpt>
      <trkpt lat="42.2290120" lon="-2.0886800">
        <ele>500.7</ele>
        <time>2022-08-15T08:43:34Z</time>
      </trkpt>
      <trkpt lat="42.2290350" lon="-2.0885590">
        <ele>500.6</ele>
        <time>2022-08-15T08:43:36Z</time>
      </trkpt>
      <trkpt lat="42.2290380" lon="-2.0885050">
        <ele>500.6</ele>
        <time>2022-08-15T08:43:37Z</time>
      </trkpt>
      <trkpt lat="42.2290460" lon="-2.0884510">
        <ele>500.5</ele>
        <time>2022-08-15T08:43:38Z</time>
      </trkpt>
      <trkpt lat="42.2290840" lon="-2.0882790">
        <ele>500.4</ele>
        <time>2022-08-15T08:43:41Z</time>
      </trkpt>
      <trkpt lat="42.2291260" lon="-2.0881620">
        <ele>500.3</ele>
        <time>2022-08-15T08:43:43Z</time>
      </trkpt>
      <trkpt lat="42.2291260" lon="-2.0881620">
        <ele>500.3</ele>
        <time>2022-08-15T08:43:44Z</time>
      </trkpt>
      <trkpt lat="42.2291960" lon="-2.0879380">
        <ele>500.0</ele>
        <time>2022-08-15T08:43:47Z</time>
      </trkpt>
      <trkpt lat="42.2292690" lon="-2.0877150">
        <ele>499.9</ele>
        <time>2022-08-15T08:43:50Z</time>
      </trkpt>
      <trkpt lat="42.2294220" lon="-2.0872500">
        <ele>499.6</ele>
        <time>2022-08-15T08:43:57Z</time>
      </trkpt>
      <trkpt lat="42.2294430" lon="-2.0871840">
        <ele>499.5</ele>
        <time>2022-08-15T08:43:58Z</time>
      </trkpt>
      <trkpt lat="42.2296210" lon="-2.0866300">
        <ele>499.1</ele>
        <time>2022-08-15T08:44:06Z</time>
      </trkpt>
      <trkpt lat="42.2297830" lon="-2.0861070">
        <ele>498.8</ele>
        <time>2022-08-15T08:44:14Z</time>
      </trkpt>
      <trkpt lat="42.2297950" lon="-2.0860520">
        <ele>498.7</ele>
        <time>2022-08-15T08:44:15Z</time>
      </trkpt>
      <trkpt lat="42.2298100" lon="-2.0860050">
        <ele>498.7</ele>
        <time>2022-08-15T08:44:16Z</time>
      </trkpt>
      <trkpt lat="42.2298430" lon="-2.0859380">
        <ele>498.6</ele>
        <time>2022-08-15T08:44:18Z</time>
      </trkpt>
      <trkpt lat="42.2299010" lon="-2.0857700">
        <ele>498.5</ele>
        <time>2022-08-15T08:44:22Z</time>
      </trkpt>
      <trkpt lat="42.2299190" lon="-2.0857310">
        <ele>498.5</ele>
        <time>2022-08-15T08:44:23Z</time>
      </trkpt>
      <trkpt lat="42.2299410" lon="-2.0856940">
        <ele>498.4</ele>
        <time>2022-08-15T08:44:24Z</time>
      </trkpt>
      <trkpt lat="42.2300210" lon="-2.0855080">
        <ele>499.0</ele>
        <time>2022-08-15T08:44:30Z</time>
      </trkpt>
      <trkpt lat="42.2300330" lon="-2.0854610">
        <ele>499.5</ele>
        <time>2022-08-15T08:44:32Z</time>
      </trkpt>
      <trkpt lat="42.2300370" lon="-2.0854400">
        <ele>499.7</ele>
        <time>2022-08-15T08:44:33Z</time>
      </trkpt>
      <trkpt lat="42.2300670" lon="-2.0854180">
        <ele>500.2</ele>
        <time>2022-08-15T08:44:35Z</time>
      </trkpt>
      <trkpt lat="42.2301060" lon="-2.0854780">
        <ele>500.9</ele>
        <time>2022-08-15T08:44:38Z</time>
      </trkpt>
      <trkpt lat="42.2301660" lon="-2.0855550">
        <ele>502.0</ele>
        <time>2022-08-15T08:44:41Z</time>
      </trkpt>
      <trkpt lat="42.2302200" lon="-2.0855280">
        <ele>502.8</ele>
        <time>2022-08-15T08:44:43Z</time>
      </trkpt>
      <trkpt lat="42.2302560" lon="-2.0854220">
        <ele>502.7</ele>
        <time>2022-08-15T08:44:45Z</time>
      </trkpt>
      <trkpt lat="42.2302840" lon="-2.0853080">
        <ele>502.5</ele>
        <time>2022-08-15T08:44:47Z</time>
      </trkpt>
      <trkpt lat="42.2303120" lon="-2.0851870">
        <ele>502.1</ele>
        <time>2022-08-15T08:44:49Z</time>
      </trkpt>
      <trkpt lat="42.2303300" lon="-2.0851280">
        <ele>500.1</ele>
        <time>2022-08-15T08:44:50Z</time>
      </trkpt>
      <trkpt lat="42.2303610" lon="-2.0850010">
        <ele>497.5</ele>
        <time>2022-08-15T08:44:52Z</time>
      </trkpt>
      <trkpt lat="42.2304040" lon="-2.0847110">
        <ele>497.3</ele>
        <time>2022-08-15T08:44:56Z</time>
      </trkpt>
      <trkpt lat="42.2304330" lon="-2.0845670">
        <ele>497.2</ele>
        <time>2022-08-15T08:44:58Z</time>
      </trkpt>
      <trkpt lat="42.2304780" lon="-2.0842570">
        <ele>497.0</ele>
        <time>2022-08-15T08:45:03Z</time>
      </trkpt>
      <trkpt lat="42.2304840" lon="-2.0842140">
        <ele>497.0</ele>
        <time>2022-08-15T08:45:04Z</time>
      </trkpt>
      <trkpt lat="42.2305000" lon="-2.0841240">
        <ele>497.0</ele>
        <time>2022-08-15T08:45:06Z</time>
      </trkpt>
      <trkpt lat="42.2305120" lon="-2.0840730">
        <ele>497.0</ele>
        <time>2022-08-15T08:45:07Z</time>
      </trkpt>
      <trkpt lat="42.2305460" lon="-2.0839620">
        <ele>497.0</ele>
        <time>2022-08-15T08:45:09Z</time>
      </trkpt>
      <trkpt lat="42.2305840" lon="-2.0838450">
        <ele>497.1</ele>
        <time>2022-08-15T08:45:11Z</time>
      </trkpt>
      <trkpt lat="42.2306750" lon="-2.0836340">
        <ele>497.2</ele>
        <time>2022-08-15T08:45:15Z</time>
      </trkpt>
      <trkpt lat="42.2307920" lon="-2.0833650">
        <ele>497.0</ele>
        <time>2022-08-15T08:45:19Z</time>
      </trkpt>
      <trkpt lat="42.2308630" lon="-2.0831820">
        <ele>496.9</ele>
        <time>2022-08-15T08:45:22Z</time>
      </trkpt>
      <trkpt lat="42.2308870" lon="-2.0831210">
        <ele>496.9</ele>
        <time>2022-08-15T08:45:23Z</time>
      </trkpt>
      <trkpt lat="42.2309290" lon="-2.0829980">
        <ele>496.8</ele>
        <time>2022-08-15T08:45:25Z</time>
      </trkpt>
      <trkpt lat="42.2309300" lon="-2.0828560">
        <ele>496.6</ele>
        <time>2022-08-15T08:45:27Z</time>
      </trkpt>
      <trkpt lat="42.2309180" lon="-2.0827760">
        <ele>495.7</ele>
        <time>2022-08-15T08:45:28Z</time>
      </trkpt>
      <trkpt lat="42.2309130" lon="-2.0826930">
        <ele>495.6</ele>
        <time>2022-08-15T08:45:29Z</time>
      </trkpt>
      <trkpt lat="42.2309200" lon="-2.0825320">
        <ele>495.5</ele>
        <time>2022-08-15T08:45:31Z</time>
      </trkpt>
      <trkpt lat="42.2309340" lon="-2.0824570">
        <ele>495.5</ele>
        <time>2022-08-15T08:45:32Z</time>
      </trkpt>
      <trkpt lat="42.2309760" lon="-2.0823170">
        <ele>495.5</ele>
        <time>2022-08-15T08:45:34Z</time>
      </trkpt>
      <trkpt lat="42.2309950" lon="-2.0822460">
        <ele>495.4</ele>
        <time>2022-08-15T08:45:35Z</time>
      </trkpt>
      <trkpt lat="42.2310510" lon="-2.0820290">
        <ele>495.4</ele>
        <time>2022-08-15T08:45:38Z</time>
      </trkpt>
      <trkpt lat="42.2310720" lon="-2.0819580">
        <ele>495.4</ele>
        <time>2022-08-15T08:45:39Z</time>
      </trkpt>
      <trkpt lat="42.2310770" lon="-2.0818860">
        <ele>495.3</ele>
        <time>2022-08-15T08:45:40Z</time>
      </trkpt>
      <trkpt lat="42.2310720" lon="-2.0818270">
        <ele>495.3</ele>
        <time>2022-08-15T08:45:41Z</time>
      </trkpt>
      <trkpt lat="42.2310850" lon="-2.0815210">
        <ele>495.2</ele>
        <time>2022-08-15T08:45:45Z</time>
      </trkpt>
      <trkpt lat="42.2311170" lon="-2.0807750">
        <ele>495.0</ele>
        <time>2022-08-15T08:45:55Z</time>
      </trkpt>
      <trkpt lat="42.2311230" lon="-2.0800960">
        <ele>495.1</ele>
        <time>2022-08-15T08:46:04Z</time>
      </trkpt>
      <trkpt lat="42.2311230" lon="-2.0798550">
        <ele>495.2</ele>
        <time>2022-08-15T08:46:07Z</time>
      </trkpt>
      <trkpt lat="42.2311220" lon="-2.0796940">
        <ele>495.4</ele>
        <time>2022-08-15T08:46:09Z</time>
      </trkpt>
      <trkpt lat="42.2311250" lon="-2.0795350">
        <ele>495.6</ele>
        <time>2022-08-15T08:46:11Z</time>
      </trkpt>
      <trkpt lat="42.2311320" lon="-2.0793810">
        <ele>495.6</ele>
        <time>2022-08-15T08:46:14Z</time>
      </trkpt>
      <trkpt lat="42.2311400" lon="-2.0792870">
        <ele>495.6</ele>
        <time>2022-08-15T08:46:15Z</time>
      </trkpt>
      <trkpt lat="42.2312410" lon="-2.0787190">
        <ele>495.1</ele>
        <time>2022-08-15T08:46:21Z</time>
      </trkpt>
      <trkpt lat="42.2312960" lon="-2.0785630">
        <ele>494.9</ele>
        <time>2022-08-15T08:46:23Z</time>
      </trkpt>
      <trkpt lat="42.2314180" lon="-2.0782580">
        <ele>494.6</ele>
        <time>2022-08-15T08:46:27Z</time>
      </trkpt>
      <trkpt lat="42.2314440" lon="-2.0781750">
        <ele>494.4</ele>
        <time>2022-08-15T08:46:28Z</time>
      </trkpt>
      <trkpt lat="42.2314670" lon="-2.0780880">
        <ele>494.4</ele>
        <time>2022-08-15T08:46:29Z</time>
      </trkpt>
      <trkpt lat="42.2316310" lon="-2.0773780">
        <ele>493.3</ele>
        <time>2022-08-15T08:46:37Z</time>
      </trkpt>
      <trkpt lat="42.2316610" lon="-2.0770950">
        <ele>493.0</ele>
        <time>2022-08-15T08:46:40Z</time>
      </trkpt>
      <trkpt lat="42.2317340" lon="-2.0767350">
        <ele>492.7</ele>
        <time>2022-08-15T08:46:44Z</time>
      </trkpt>
      <trkpt lat="42.2317600" lon="-2.0766460">
        <ele>492.6</ele>
        <time>2022-08-15T08:46:45Z</time>
      </trkpt>
      <trkpt lat="42.2317910" lon="-2.0765640">
        <ele>492.5</ele>
        <time>2022-08-15T08:46:46Z</time>
      </trkpt>
      <trkpt lat="42.2318220" lon="-2.0765010">
        <ele>492.5</ele>
        <time>2022-08-15T08:46:47Z</time>
      </trkpt>
      <trkpt lat="42.2318750" lon="-2.0764120">
        <ele>492.4</ele>
        <time>2022-08-15T08:46:48Z</time>
      </trkpt>
      <trkpt lat="42.2319720" lon="-2.0762780">
        <ele>492.4</ele>
        <time>2022-08-15T08:46:50Z</time>
      </trkpt>
      <trkpt lat="42.2321430" lon="-2.0761170">
        <ele>492.4</ele>
        <time>2022-08-15T08:46:53Z</time>
      </trkpt>
      <trkpt lat="42.2322500" lon="-2.0760040">
        <ele>492.4</ele>
        <time>2022-08-15T08:46:55Z</time>
      </trkpt>
      <trkpt lat="42.2323500" lon="-2.0758810">
        <ele>492.2</ele>
        <time>2022-08-15T08:46:57Z</time>
      </trkpt>
      <trkpt lat="42.2324430" lon="-2.0757490">
        <ele>492.1</ele>
        <time>2022-08-15T08:46:59Z</time>
      </trkpt>
      <trkpt lat="42.2326550" lon="-2.0753040">
        <ele>490.7</ele>
        <time>2022-08-15T08:47:05Z</time>
      </trkpt>
      <trkpt lat="42.2326780" lon="-2.0752340">
        <ele>490.5</ele>
        <time>2022-08-15T08:47:06Z</time>
      </trkpt>
      <trkpt lat="42.2327490" lon="-2.0749260">
        <ele>489.4</ele>
        <time>2022-08-15T08:47:09Z</time>
      </trkpt>
      <trkpt lat="42.2327730" lon="-2.0747240">
        <ele>489.2</ele>
        <time>2022-08-15T08:47:11Z</time>
      </trkpt>
      <trkpt lat="42.2327830" lon="-2.0746270">
        <ele>489.1</ele>
        <time>2022-08-15T08:47:12Z</time>
      </trkpt>
      <trkpt lat="42.2328260" lon="-2.0742480">
        <ele>488.8</ele>
        <time>2022-08-15T08:47:16Z</time>
      </trkpt>
      <trkpt lat="42.2328410" lon="-2.0741550">
        <ele>488.7</ele>
        <time>2022-08-15T08:47:17Z</time>
      </trkpt>
      <trkpt lat="42.2329200" lon="-2.0735100">
        <ele>488.0</ele>
        <time>2022-08-15T08:47:24Z</time>
      </trkpt>
      <trkpt lat="42.2329770" lon="-2.0730330">
        <ele>487.8</ele>
        <time>2022-08-15T08:47:29Z</time>
      </trkpt>
      <trkpt lat="42.2330330" lon="-2.0725650">
        <ele>487.5</ele>
        <time>2022-08-15T08:47:34Z</time>
      </trkpt>
      <trkpt lat="42.2330990" lon="-2.0721160">
        <ele>487.2</ele>
        <time>2022-08-15T08:47:39Z</time>
      </trkpt>
      <trkpt lat="42.2331300" lon="-2.0717580">
        <ele>487.0</ele>
        <time>2022-08-15T08:47:43Z</time>
      </trkpt>
      <trkpt lat="42.2331400" lon="-2.0716710">
        <ele>486.9</ele>
        <time>2022-08-15T08:47:44Z</time>
      </trkpt>
      <trkpt lat="42.2331770" lon="-2.0713160">
        <ele>486.7</ele>
        <time>2022-08-15T08:47:48Z</time>
      </trkpt>
      <trkpt lat="42.2332130" lon="-2.0709560">
        <ele>486.5</ele>
        <time>2022-08-15T08:47:52Z</time>
      </trkpt>
      <trkpt lat="42.2332740" lon="-2.0704100">
        <ele>486.2</ele>
        <time>2022-08-15T08:47:58Z</time>
      </trkpt>
      <trkpt lat="42.2333050" lon="-2.0701450">
        <ele>486.2</ele>
        <time>2022-08-15T08:48:01Z</time>
      </trkpt>
      <trkpt lat="42.2333450" lon="-2.0697930">
        <ele>486.2</ele>
        <time>2022-08-15T08:48:05Z</time>
      </trkpt>
      <trkpt lat="42.2333790" lon="-2.0695340">
        <ele>486.1</ele>
        <time>2022-08-15T08:48:08Z</time>
      </trkpt>
      <trkpt lat="42.2334370" lon="-2.0691040">
        <ele>485.7</ele>
        <time>2022-08-15T08:48:13Z</time>
      </trkpt>
      <trkpt lat="42.2334880" lon="-2.0683750">
        <ele>485.2</ele>
        <time>2022-08-15T08:48:21Z</time>
      </trkpt>
      <trkpt lat="42.2334150" lon="-2.0678410">
        <ele>484.8</ele>
        <time>2022-08-15T08:48:27Z</time>
      </trkpt>
      <trkpt lat="42.2333510" lon="-2.0675500">
        <ele>484.6</ele>
        <time>2022-08-15T08:48:30Z</time>
      </trkpt>
      <trkpt lat="42.2333280" lon="-2.0674590">
        <ele>484.5</ele>
        <time>2022-08-15T08:48:31Z</time>
      </trkpt>
      <trkpt lat="42.2332120" lon="-2.0670070">
        <ele>484.0</ele>
        <time>2022-08-15T08:48:36Z</time>
      </trkpt>
      <trkpt lat="42.2330390" lon="-2.0663120">
        <ele>483.6</ele>
        <time>2022-08-15T08:48:44Z</time>
      </trkpt>
      <trkpt lat="42.2329110" lon="-2.0658160">
        <ele>483.4</ele>
        <time>2022-08-15T08:48:48Z</time>
      </trkpt>
      <trkpt lat="42.2327900" lon="-2.0653250">
        <ele>483.0</ele>
        <time>2022-08-15T08:48:53Z</time>
      </trkpt>
      <trkpt lat="42.2325970" lon="-2.0645370">
        <ele>482.3</ele>
        <time>2022-08-15T08:49:01Z</time>
      </trkpt>
      <trkpt lat="42.2324510" lon="-2.0639480">
        <ele>481.8</ele>
        <time>2022-08-15T08:49:07Z</time>
      </trkpt>
      <trkpt lat="42.2324250" lon="-2.0638480">
        <ele>481.7</ele>
        <time>2022-08-15T08:49:08Z</time>
      </trkpt>
      <trkpt lat="42.2322460" lon="-2.0631530">
        <ele>481.2</ele>
        <time>2022-08-15T08:49:15Z</time>
      </trkpt>
      <trkpt lat="42.2321170" lon="-2.0626990">
        <ele>480.9</ele>
        <time>2022-08-15T08:49:20Z</time>
      </trkpt>
      <trkpt lat="42.2318480" lon="-2.0622200">
        <ele>480.5</ele>
        <time>2022-08-15T08:49:26Z</time>
      </trkpt>
      <trkpt lat="42.2314270" lon="-2.0617390">
        <ele>480.1</ele>
        <time>2022-08-15T08:49:34Z</time>
      </trkpt>
      <trkpt lat="42.2310410" lon="-2.0612700">
        <ele>480.0</ele>
        <time>2022-08-15T08:49:42Z</time>
      </trkpt>
      <trkpt lat="42.2307600" lon="-2.0609160">
        <ele>479.9</ele>
        <time>2022-08-15T08:49:48Z</time>
      </trkpt>
      <trkpt lat="42.2305220" lon="-2.0606390">
        <ele>479.6</ele>
        <time>2022-08-15T08:49:53Z</time>
      </trkpt>
      <trkpt lat="42.2304360" lon="-2.0605240">
        <ele>479.4</ele>
        <time>2022-08-15T08:49:55Z</time>
      </trkpt>
      <trkpt lat="42.2303850" lon="-2.0603880">
        <ele>479.3</ele>
        <time>2022-08-15T08:49:57Z</time>
      </trkpt>
      <trkpt lat="42.2303710" lon="-2.0603130">
        <ele>479.2</ele>
        <time>2022-08-15T08:49:58Z</time>
      </trkpt>
      <trkpt lat="42.2303530" lon="-2.0602510">
        <ele>479.2</ele>
        <time>2022-08-15T08:49:59Z</time>
      </trkpt>
      <trkpt lat="42.2302720" lon="-2.0600090">
        <ele>478.9</ele>
        <time>2022-08-15T08:50:02Z</time>
      </trkpt>
      <trkpt lat="42.2302650" lon="-2.0598480">
        <ele>478.8</ele>
        <time>2022-08-15T08:50:04Z</time>
      </trkpt>
      <trkpt lat="42.2302710" lon="-2.0597640">
        <ele>478.8</ele>
        <time>2022-08-15T08:50:05Z</time>
      </trkpt>
      <trkpt lat="42.2302680" lon="-2.0596820">
        <ele>478.7</ele>
        <time>2022-08-15T08:50:06Z</time>
      </trkpt>
      <trkpt lat="42.2302320" lon="-2.0595250">
        <ele>478.6</ele>
        <time>2022-08-15T08:50:08Z</time>
      </trkpt>
      <trkpt lat="42.2302000" lon="-2.0593620">
        <ele>478.6</ele>
        <time>2022-08-15T08:50:10Z</time>
      </trkpt>
      <trkpt lat="42.2301950" lon="-2.0591060">
        <ele>478.5</ele>
        <time>2022-08-15T08:50:13Z</time>
      </trkpt>
      <trkpt lat="42.2301840" lon="-2.0587650">
        <ele>478.6</ele>
        <time>2022-08-15T08:50:17Z</time>
      </trkpt>
      <trkpt lat="42.2301680" lon="-2.0585160">
        <ele>479.1</ele>
        <time>2022-08-15T08:50:20Z</time>
      </trkpt>
      <trkpt lat="42.2301830" lon="-2.0583560">
        <ele>479.5</ele>
        <time>2022-08-15T08:50:23Z</time>
      </trkpt>
      <trkpt lat="42.2302080" lon="-2.0583360">
        <ele>479.6</ele>
        <time>2022-08-15T08:50:24Z</time>
      </trkpt>
      <trkpt lat="42.2302700" lon="-2.0583370">
        <ele>479.6</ele>
        <time>2022-08-15T08:50:26Z</time>
      </trkpt>
      <trkpt lat="42.2303800" lon="-2.0583670">
        <ele>479.8</ele>
        <time>2022-08-15T08:50:29Z</time>
      </trkpt>
      <trkpt lat="42.2304640" lon="-2.0583830">
        <ele>479.9</ele>
        <time>2022-08-15T08:50:31Z</time>
      </trkpt>
      <trkpt lat="42.2305480" lon="-2.0584060">
        <ele>480.1</ele>
        <time>2022-08-15T08:50:33Z</time>
      </trkpt>
      <trkpt lat="42.2306360" lon="-2.0584290">
        <ele>480.3</ele>
        <time>2022-08-15T08:50:35Z</time>
      </trkpt>
      <trkpt lat="42.2306790" lon="-2.0584350">
        <ele>480.5</ele>
        <time>2022-08-15T08:50:36Z</time>
      </trkpt>
      <trkpt lat="42.2307640" lon="-2.0584310">
        <ele>480.8</ele>
        <time>2022-08-15T08:50:38Z</time>
      </trkpt>
      <trkpt lat="42.2308060" lon="-2.0584200">
        <ele>480.9</ele>
        <time>2022-08-15T08:50:39Z</time>
      </trkpt>
      <trkpt lat="42.2308920" lon="-2.0583930">
        <ele>481.3</ele>
        <time>2022-08-15T08:50:41Z</time>
      </trkpt>
      <trkpt lat="42.2309340" lon="-2.0583740">
        <ele>481.4</ele>
        <time>2022-08-15T08:50:42Z</time>
      </trkpt>
      <trkpt lat="42.2310430" lon="-2.0583070">
        <ele>481.8</ele>
        <time>2022-08-15T08:50:45Z</time>
      </trkpt>
      <trkpt lat="42.2310950" lon="-2.0582600">
        <ele>482.1</ele>
        <time>2022-08-15T08:50:46Z</time>
      </trkpt>
      <trkpt lat="42.2312380" lon="-2.0581340">
        <ele>482.7</ele>
        <time>2022-08-15T08:50:50Z</time>
      </trkpt>
      <trkpt lat="42.2313580" lon="-2.0580690">
        <ele>483.2</ele>
        <time>2022-08-15T08:50:53Z</time>
      </trkpt>
      <trkpt lat="42.2313990" lon="-2.0580530">
        <ele>483.3</ele>
        <time>2022-08-15T08:50:54Z</time>
      </trkpt>
      <trkpt lat="42.2314400" lon="-2.0580350">
        <ele>483.5</ele>
        <time>2022-08-15T08:50:55Z</time>
      </trkpt>
      <trkpt lat="42.2316640" lon="-2.0578840">
        <ele>484.5</ele>
        <time>2022-08-15T08:51:01Z</time>
      </trkpt>
      <trkpt lat="42.2317370" lon="-2.0578300">
        <ele>484.8</ele>
        <time>2022-08-15T08:51:03Z</time>
      </trkpt>
      <trkpt lat="42.2318930" lon="-2.0576870">
        <ele>485.5</ele>
        <time>2022-08-15T08:51:08Z</time>
      </trkpt>
      <trkpt lat="42.2319950" lon="-2.0576140">
        <ele>485.9</ele>
        <time>2022-08-15T08:51:11Z</time>
      </trkpt>
      <trkpt lat="42.2321220" lon="-2.0575200">
        <ele>486.4</ele>
        <time>2022-08-15T08:51:15Z</time>
      </trkpt>
      <trkpt lat="42.2322940" lon="-2.0573990">
        <ele>487.1</ele>
        <time>2022-08-15T08:51:20Z</time>
      </trkpt>
      <trkpt lat="42.2324110" lon="-2.0572770">
        <ele>487.6</ele>
        <time>2022-08-15T08:51:24Z</time>
      </trkpt>
      <trkpt lat="42.2325540" lon="-2.0571010">
        <ele>488.2</ele>
        <time>2022-08-15T08:51:29Z</time>
      </trkpt>
      <trkpt lat="42.2326990" lon="-2.0569440">
        <ele>488.9</ele>
        <time>2022-08-15T08:51:34Z</time>
      </trkpt>
      <trkpt lat="42.2328600" lon="-2.0568390">
        <ele>489.7</ele>
        <time>2022-08-15T08:51:39Z</time>
      </trkpt>
      <trkpt lat="42.2328940" lon="-2.0568220">
        <ele>489.8</ele>
        <time>2022-08-15T08:51:40Z</time>
      </trkpt>
      <trkpt lat="42.2330380" lon="-2.0567080">
        <ele>490.6</ele>
        <time>2022-08-15T08:51:45Z</time>
      </trkpt>
      <trkpt lat="42.2331380" lon="-2.0566230">
        <ele>491.3</ele>
        <time>2022-08-15T08:51:48Z</time>
      </trkpt>
      <trkpt lat="42.2332630" lon="-2.0564920">
        <ele>492.2</ele>
        <time>2022-08-15T08:51:53Z</time>
      </trkpt>
      <trkpt lat="42.2332780" lon="-2.0564590">
        <ele>492.4</ele>
        <time>2022-08-15T08:51:54Z</time>
      </trkpt>
      <trkpt lat="42.2332930" lon="-2.0563430">
        <ele>493.0</ele>
        <time>2022-08-15T08:51:57Z</time>
      </trkpt>
      <trkpt lat="42.2332950" lon="-2.0562610">
        <ele>493.0</ele>
        <time>2022-08-15T08:51:59Z</time>
      </trkpt>
      <trkpt lat="42.2333230" lon="-2.0560320">
        <ele>493.0</ele>
        <time>2022-08-15T08:52:05Z</time>
      </trkpt>
      <trkpt lat="42.2333440" lon="-2.0559520">
        <ele>493.1</ele>
        <time>2022-08-15T08:52:07Z</time>
      </trkpt>
      <trkpt lat="42.2333880" lon="-2.0558920">
        <ele>493.2</ele>
        <time>2022-08-15T08:52:09Z</time>
      </trkpt>
      <trkpt lat="42.2335660" lon="-2.0557720">
        <ele>493.6</ele>
        <time>2022-08-15T08:52:15Z</time>
      </trkpt>
      <trkpt lat="42.2337060" lon="-2.0556700">
        <ele>494.1</ele>
        <time>2022-08-15T08:52:20Z</time>
      </trkpt>
      <trkpt lat="42.2338890" lon="-2.0555190">
        <ele>495.1</ele>
        <time>2022-08-15T08:52:27Z</time>
      </trkpt>
      <trkpt lat="42.2340360" lon="-2.0553910">
        <ele>496.1</ele>
        <time>2022-08-15T08:52:33Z</time>
      </trkpt>
      <trkpt lat="42.2340630" lon="-2.0553700">
        <ele>496.3</ele>
        <time>2022-08-15T08:52:34Z</time>
      </trkpt>
      <trkpt lat="42.2342400" lon="-2.0552280">
        <ele>497.6</ele>
        <time>2022-08-15T08:52:41Z</time>
      </trkpt>
      <trkpt lat="42.2343330" lon="-2.0551580">
        <ele>498.3</ele>
        <time>2022-08-15T08:52:45Z</time>
      </trkpt>
      <trkpt lat="42.2343590" lon="-2.0551390">
        <ele>498.5</ele>
        <time>2022-08-15T08:52:46Z</time>
      </trkpt>
      <trkpt lat="42.2345150" lon="-2.0550100">
        <ele>499.8</ele>
        <time>2022-08-15T08:52:52Z</time>
      </trkpt>
      <trkpt lat="42.2345390" lon="-2.0549890">
        <ele>500.0</ele>
        <time>2022-08-15T08:52:53Z</time>
      </trkpt>
      <trkpt lat="42.2346300" lon="-2.0548970">
        <ele>500.8</ele>
        <time>2022-08-15T08:52:57Z</time>
      </trkpt>
      <trkpt lat="42.2347240" lon="-2.0547930">
        <ele>501.6</ele>
        <time>2022-08-15T08:53:01Z</time>
      </trkpt>
      <trkpt lat="42.2347480" lon="-2.0547690">
        <ele>501.8</ele>
        <time>2022-08-15T08:53:02Z</time>
      </trkpt>
      <trkpt lat="42.2348860" lon="-2.0545840">
        <ele>503.1</ele>
        <time>2022-08-15T08:53:09Z</time>
      </trkpt>
      <trkpt lat="42.2349350" lon="-2.0544960">
        <ele>503.7</ele>
        <time>2022-08-15T08:53:12Z</time>
      </trkpt>
      <trkpt lat="42.2349620" lon="-2.0544340">
        <ele>504.1</ele>
        <time>2022-08-15T08:53:14Z</time>
      </trkpt>
      <trkpt lat="42.2350190" lon="-2.0543150">
        <ele>504.9</ele>
        <time>2022-08-15T08:53:18Z</time>
      </trkpt>
      <trkpt lat="42.2350960" lon="-2.0541270">
        <ele>506.0</ele>
        <time>2022-08-15T08:53:24Z</time>
      </trkpt>
      <trkpt lat="42.2351210" lon="-2.0540660">
        <ele>506.4</ele>
        <time>2022-08-15T08:53:26Z</time>
      </trkpt>
      <trkpt lat="42.2351920" lon="-2.0539210">
        <ele>507.2</ele>
        <time>2022-08-15T08:53:31Z</time>
      </trkpt>
      <trkpt lat="42.2352330" lon="-2.0538250">
        <ele>507.8</ele>
        <time>2022-08-15T08:53:34Z</time>
      </trkpt>
      <trkpt lat="42.2353080" lon="-2.0536440">
        <ele>508.9</ele>
        <time>2022-08-15T08:53:40Z</time>
      </trkpt>
      <trkpt lat="42.2353230" lon="-2.0536160">
        <ele>509.0</ele>
        <time>2022-08-15T08:53:41Z</time>
      </trkpt>
      <trkpt lat="42.2353990" lon="-2.0535150">
        <ele>509.7</ele>
        <time>2022-08-15T08:53:45Z</time>
      </trkpt>
      <trkpt lat="42.2355220" lon="-2.0533900">
        <ele>510.6</ele>
        <time>2022-08-15T08:53:51Z</time>
      </trkpt>
      <trkpt lat="42.2355460" lon="-2.0533710">
        <ele>510.8</ele>
        <time>2022-08-15T08:53:52Z</time>
      </trkpt>
      <trkpt lat="42.2356780" lon="-2.0532710">
        <ele>511.7</ele>
        <time>2022-08-15T08:53:58Z</time>
      </trkpt>
      <trkpt lat="42.2357470" lon="-2.0532290">
        <ele>512.2</ele>
        <time>2022-08-15T08:54:01Z</time>
      </trkpt>
      <trkpt lat="42.2358480" lon="-2.0531840">
        <ele>512.9</ele>
        <time>2022-08-15T08:54:05Z</time>
      </trkpt>
      <trkpt lat="42.2360180" lon="-2.0531150">
        <ele>513.9</ele>
        <time>2022-08-15T08:54:12Z</time>
      </trkpt>
      <trkpt lat="42.2360900" lon="-2.0530840">
        <ele>514.4</ele>
        <time>2022-08-15T08:54:15Z</time>
      </trkpt>
      <trkpt lat="42.2362650" lon="-2.0530210">
        <ele>515.4</ele>
        <time>2022-08-15T08:54:22Z</time>
      </trkpt>
      <trkpt lat="42.2363540" lon="-2.0530000">
        <ele>515.9</ele>
        <time>2022-08-15T08:54:25Z</time>
      </trkpt>
      <trkpt lat="42.2366040" lon="-2.0529390">
        <ele>516.4</ele>
        <time>2022-08-15T08:54:33Z</time>
      </trkpt>
      <trkpt lat="42.2367590" lon="-2.0529060">
        <ele>516.6</ele>
        <time>2022-08-15T08:54:38Z</time>
      </trkpt>
      <trkpt lat="42.2368580" lon="-2.0528920">
        <ele>516.7</ele>
        <time>2022-08-15T08:54:41Z</time>
      </trkpt>
      <trkpt lat="42.2369400" lon="-2.0528860">
        <ele>516.7</ele>
        <time>2022-08-15T08:54:43Z</time>
      </trkpt>
      <trkpt lat="42.2373090" lon="-2.0528790">
        <ele>516.6</ele>
        <time>2022-08-15T08:54:52Z</time>
      </trkpt>
      <trkpt lat="42.2374390" lon="-2.0528690">
        <ele>516.5</ele>
        <time>2022-08-15T08:54:55Z</time>
      </trkpt>
      <trkpt lat="42.2374790" lon="-2.0528480">
        <ele>516.0</ele>
        <time>2022-08-15T08:54:56Z</time>
      </trkpt>
      <trkpt lat="42.2375150" lon="-2.0528080">
        <ele>515.4</ele>
        <time>2022-08-15T08:54:57Z</time>
      </trkpt>
      <trkpt lat="42.2375690" lon="-2.0526710">
        <ele>513.8</ele>
        <time>2022-08-15T08:54:59Z</time>
      </trkpt>
      <trkpt lat="42.2375990" lon="-2.0526000">
        <ele>513.2</ele>
        <time>2022-08-15T08:55:00Z</time>
      </trkpt>
      <trkpt lat="42.2376940" lon="-2.0525030">
        <ele>512.7</ele>
        <time>2022-08-15T08:55:02Z</time>
      </trkpt>
      <trkpt lat="42.2377490" lon="-2.0524810">
        <ele>512.5</ele>
        <time>2022-08-15T08:55:03Z</time>
      </trkpt>
      <trkpt lat="42.2379280" lon="-2.0524360">
        <ele>511.7</ele>
        <time>2022-08-15T08:55:06Z</time>
      </trkpt>
      <trkpt lat="42.2381740" lon="-2.0523840">
        <ele>510.7</ele>
        <time>2022-08-15T08:55:10Z</time>
      </trkpt>
      <trkpt lat="42.2382370" lon="-2.0523750">
        <ele>510.5</ele>
        <time>2022-08-15T08:55:11Z</time>
      </trkpt>
      <trkpt lat="42.2384310" lon="-2.0523510">
        <ele>509.7</ele>
        <time>2022-08-15T08:55:14Z</time>
      </trkpt>
      <trkpt lat="42.2387540" lon="-2.0523050">
        <ele>508.5</ele>
        <time>2022-08-15T08:55:19Z</time>
      </trkpt>
      <trkpt lat="42.2388180" lon="-2.0522960">
        <ele>508.2</ele>
        <time>2022-08-15T08:55:20Z</time>
      </trkpt>
      <trkpt lat="42.2391470" lon="-2.0522640">
        <ele>506.7</ele>
        <time>2022-08-15T08:55:25Z</time>
      </trkpt>
      <trkpt lat="42.2392790" lon="-2.0522430">
        <ele>506.0</ele>
        <time>2022-08-15T08:55:27Z</time>
      </trkpt>
      <trkpt lat="42.2393400" lon="-2.0522070">
        <ele>505.7</ele>
        <time>2022-08-15T08:55:28Z</time>
      </trkpt>
      <trkpt lat="42.2393880" lon="-2.0521460">
        <ele>505.4</ele>
        <time>2022-08-15T08:55:29Z</time>
      </trkpt>
      <trkpt lat="42.2394620" lon="-2.0519860">
        <ele>504.7</ele>
        <time>2022-08-15T08:55:31Z</time>
      </trkpt>
      <trkpt lat="42.2395230" lon="-2.0518040">
        <ele>503.9</ele>
        <time>2022-08-15T08:55:33Z</time>
      </trkpt>
      <trkpt lat="42.2395510" lon="-2.0517110">
        <ele>503.5</ele>
        <time>2022-08-15T08:55:34Z</time>
      </trkpt>
      <trkpt lat="42.2396490" lon="-2.0514160">
        <ele>502.3</ele>
        <time>2022-08-15T08:55:37Z</time>
      </trkpt>
      <trkpt lat="42.2397010" lon="-2.0512510">
        <ele>501.7</ele>
        <time>2022-08-15T08:55:39Z</time>
      </trkpt>
      <trkpt lat="42.2397270" lon="-2.0511810">
        <ele>501.5</ele>
        <time>2022-08-15T08:55:40Z</time>
      </trkpt>
      <trkpt lat="42.2397590" lon="-2.0511200">
        <ele>501.2</ele>
        <time>2022-08-15T08:55:41Z</time>
      </trkpt>
      <trkpt lat="42.2398060" lon="-2.0510770">
        <ele>500.9</ele>
        <time>2022-08-15T08:55:42Z</time>
      </trkpt>
      <trkpt lat="42.2399070" lon="-2.0510320">
        <ele>500.4</ele>
        <time>2022-08-15T08:55:44Z</time>
      </trkpt>
      <trkpt lat="42.2400290" lon="-2.0509960">
        <ele>499.9</ele>
        <time>2022-08-15T08:55:46Z</time>
      </trkpt>
      <trkpt lat="42.2400910" lon="-2.0509750">
        <ele>499.7</ele>
        <time>2022-08-15T08:55:47Z</time>
      </trkpt>
      <trkpt lat="42.2401540" lon="-2.0509430">
        <ele>499.4</ele>
        <time>2022-08-15T08:55:48Z</time>
      </trkpt>
      <trkpt lat="42.2402170" lon="-2.0509010">
        <ele>499.1</ele>
        <time>2022-08-15T08:55:49Z</time>
      </trkpt>
      <trkpt lat="42.2403450" lon="-2.0508070">
        <ele>498.6</ele>
        <time>2022-08-15T08:55:51Z</time>
      </trkpt>
      <trkpt lat="42.2406230" lon="-2.0506520">
        <ele>497.6</ele>
        <time>2022-08-15T08:55:55Z</time>
      </trkpt>
      <trkpt lat="42.2408240" lon="-2.0505680">
        <ele>497.1</ele>
        <time>2022-08-15T08:55:58Z</time>
      </trkpt>
      <trkpt lat="42.2410190" lon="-2.0504900">
        <ele>496.6</ele>
        <time>2022-08-15T08:56:01Z</time>
      </trkpt>
      <trkpt lat="42.2411420" lon="-2.0504400">
        <ele>496.4</ele>
        <time>2022-08-15T08:56:03Z</time>
      </trkpt>
      <trkpt lat="42.2412540" lon="-2.0503860">
        <ele>496.2</ele>
        <time>2022-08-15T08:56:05Z</time>
      </trkpt>
      <trkpt lat="42.2414080" lon="-2.0503170">
        <ele>496.1</ele>
        <time>2022-08-15T08:56:08Z</time>
      </trkpt>
      <trkpt lat="42.2414730" lon="-2.0502910">
        <ele>496.0</ele>
        <time>2022-08-15T08:56:09Z</time>
      </trkpt>
      <trkpt lat="42.2417560" lon="-2.0501730">
        <ele>495.5</ele>
        <time>2022-08-15T08:56:14Z</time>
      </trkpt>
      <trkpt lat="42.2418370" lon="-2.0501380">
        <ele>495.4</ele>
        <time>2022-08-15T08:56:16Z</time>
      </trkpt>
      <trkpt lat="42.2419290" lon="-2.0500890">
        <ele>495.2</ele>
        <time>2022-08-15T08:56:17Z</time>
      </trkpt>
      <trkpt lat="42.2421450" lon="-2.0499890">
        <ele>494.9</ele>
        <time>2022-08-15T08:56:21Z</time>
      </trkpt>
      <trkpt lat="42.2422560" lon="-2.0499230">
        <ele>494.8</ele>
        <time>2022-08-15T08:56:23Z</time>
      </trkpt>
      <trkpt lat="42.2423690" lon="-2.0498570">
        <ele>494.7</ele>
        <time>2022-08-15T08:56:25Z</time>
      </trkpt>
      <trkpt lat="42.2425360" lon="-2.0497490">
        <ele>494.6</ele>
        <time>2022-08-15T08:56:28Z</time>
      </trkpt>
      <trkpt lat="42.2425920" lon="-2.0497140">
        <ele>494.5</ele>
        <time>2022-08-15T08:56:29Z</time>
      </trkpt>
      <trkpt lat="42.2428150" lon="-2.0495980">
        <ele>494.5</ele>
        <time>2022-08-15T08:56:33Z</time>
      </trkpt>
      <trkpt lat="42.2433170" lon="-2.0493960">
        <ele>494.5</ele>
        <time>2022-08-15T08:56:42Z</time>
      </trkpt>
      <trkpt lat="42.2435200" lon="-2.0493060">
        <ele>494.9</ele>
        <time>2022-08-15T08:56:46Z</time>
      </trkpt>
      <trkpt lat="42.2437280" lon="-2.0492480">
        <ele>495.4</ele>
        <time>2022-08-15T08:56:50Z</time>
      </trkpt>
      <trkpt lat="42.2438170" lon="-2.0492210">
        <ele>495.6</ele>
        <time>2022-08-15T08:56:52Z</time>
      </trkpt>
      <trkpt lat="42.2439520" lon="-2.0491330">
        <ele>495.8</ele>
        <time>2022-08-15T08:56:55Z</time>
      </trkpt>
      <trkpt lat="42.2440260" lon="-2.0490410">
        <ele>495.9</ele>
        <time>2022-08-15T08:56:57Z</time>
      </trkpt>
      <trkpt lat="42.2441180" lon="-2.0488570">
        <ele>496.0</ele>
        <time>2022-08-15T08:57:00Z</time>
      </trkpt>
      <trkpt lat="42.2443510" lon="-2.0483620">
        <ele>496.4</ele>
        <time>2022-08-15T08:57:08Z</time>
      </trkpt>
      <trkpt lat="42.2445000" lon="-2.0480670">
        <ele>496.7</ele>
        <time>2022-08-15T08:57:13Z</time>
      </trkpt>
      <trkpt lat="42.2446410" lon="-2.0478060">
        <ele>497.4</ele>
        <time>2022-08-15T08:57:18Z</time>
      </trkpt>
      <trkpt lat="42.2447490" lon="-2.0476440">
        <ele>497.6</ele>
        <time>2022-08-15T08:57:22Z</time>
      </trkpt>
      <trkpt lat="42.2448020" lon="-2.0475610">
        <ele>497.6</ele>
        <time>2022-08-15T08:57:24Z</time>
      </trkpt>
      <trkpt lat="42.2448310" lon="-2.0475050">
        <ele>497.6</ele>
        <time>2022-08-15T08:57:25Z</time>
      </trkpt>
      <trkpt lat="42.2448480" lon="-2.0474660">
        <ele>497.5</ele>
        <time>2022-08-15T08:57:26Z</time>
      </trkpt>
      <trkpt lat="42.2448660" lon="-2.0473330">
        <ele>497.3</ele>
        <time>2022-08-15T08:57:28Z</time>
      </trkpt>
      <trkpt lat="42.2448600" lon="-2.0472820">
        <ele>497.2</ele>
        <time>2022-08-15T08:57:29Z</time>
      </trkpt>
      <trkpt lat="42.2448490" lon="-2.0472170">
        <ele>497.1</ele>
        <time>2022-08-15T08:57:30Z</time>
      </trkpt>
      <trkpt lat="42.2447590" lon="-2.0469410">
        <ele>496.0</ele>
        <time>2022-08-15T08:57:34Z</time>
      </trkpt>
      <trkpt lat="42.2447180" lon="-2.0467740">
        <ele>494.9</ele>
        <time>2022-08-15T08:57:36Z</time>
      </trkpt>
      <trkpt lat="42.2447030" lon="-2.0465660">
        <ele>493.2</ele>
        <time>2022-08-15T08:57:38Z</time>
      </trkpt>
      <trkpt lat="42.2447100" lon="-2.0464520">
        <ele>492.2</ele>
        <time>2022-08-15T08:57:39Z</time>
      </trkpt>
      <trkpt lat="42.2447560" lon="-2.0462960">
        <ele>490.5</ele>
        <time>2022-08-15T08:57:41Z</time>
      </trkpt>
      <trkpt lat="42.2448060" lon="-2.0461820">
        <ele>489.1</ele>
        <time>2022-08-15T08:57:42Z</time>
      </trkpt>
      <trkpt lat="42.2449480" lon="-2.0458380">
        <ele>484.6</ele>
        <time>2022-08-15T08:57:44Z</time>
      </trkpt>
      <trkpt lat="42.2449960" lon="-2.0457220">
        <ele>483.3</ele>
        <time>2022-08-15T08:57:45Z</time>
      </trkpt>
      <trkpt lat="42.2450730" lon="-2.0455480">
        <ele>481.5</ele>
        <time>2022-08-15T08:57:46Z</time>
      </trkpt>
      <trkpt lat="42.2452040" lon="-2.0452920">
        <ele>479.5</ele>
        <time>2022-08-15T08:57:48Z</time>
      </trkpt>
      <trkpt lat="42.2452800" lon="-2.0451640">
        <ele>478.7</ele>
        <time>2022-08-15T08:57:49Z</time>
      </trkpt>
      <trkpt lat="42.2453650" lon="-2.0450260">
        <ele>477.7</ele>
        <time>2022-08-15T08:57:50Z</time>
      </trkpt>
      <trkpt lat="42.2454330" lon="-2.0449310">
        <ele>476.6</ele>
        <time>2022-08-15T08:57:51Z</time>
      </trkpt>
      <trkpt lat="42.2454950" lon="-2.0448760">
        <ele>475.7</ele>
        <time>2022-08-15T08:57:52Z</time>
      </trkpt>
      <trkpt lat="42.2455830" lon="-2.0448300">
        <ele>474.4</ele>
        <time>2022-08-15T08:57:53Z</time>
      </trkpt>
      <trkpt lat="42.2457720" lon="-2.0447620">
        <ele>471.5</ele>
        <time>2022-08-15T08:57:55Z</time>
      </trkpt>
      <trkpt lat="42.2458900" lon="-2.0447140">
        <ele>469.6</ele>
        <time>2022-08-15T08:57:56Z</time>
      </trkpt>
      <trkpt lat="42.2459710" lon="-2.0446800">
        <ele>468.4</ele>
        <time>2022-08-15T08:57:57Z</time>
      </trkpt>
      <trkpt lat="42.2460730" lon="-2.0446300">
        <ele>467.0</ele>
        <time>2022-08-15T08:57:58Z</time>
      </trkpt>
      <trkpt lat="42.2463060" lon="-2.0445010">
        <ele>463.7</ele>
        <time>2022-08-15T08:58:00Z</time>
      </trkpt>
      <trkpt lat="42.2465040" lon="-2.0443910">
        <ele>461.1</ele>
        <time>2022-08-15T08:58:02Z</time>
      </trkpt>
      <trkpt lat="42.2467260" lon="-2.0442620">
        <ele>458.3</ele>
        <time>2022-08-15T08:58:04Z</time>
      </trkpt>
      <trkpt lat="42.2468630" lon="-2.0441860">
        <ele>456.7</ele>
        <time>2022-08-15T08:58:05Z</time>
      </trkpt>
      <trkpt lat="42.2469540" lon="-2.0441370">
        <ele>455.8</ele>
        <time>2022-08-15T08:58:06Z</time>
      </trkpt>
      <trkpt lat="42.2470660" lon="-2.0440780">
        <ele>455.0</ele>
        <time>2022-08-15T08:58:07Z</time>
      </trkpt>
      <trkpt lat="42.2472900" lon="-2.0439640">
        <ele>453.5</ele>
        <time>2022-08-15T08:58:09Z</time>
      </trkpt>
      <trkpt lat="42.2473960" lon="-2.0439110">
        <ele>452.9</ele>
        <time>2022-08-15T08:58:10Z</time>
      </trkpt>
      <trkpt lat="42.2475000" lon="-2.0438590">
        <ele>452.3</ele>
        <time>2022-08-15T08:58:11Z</time>
      </trkpt>
      <trkpt lat="42.2476810" lon="-2.0437350">
        <ele>451.0</ele>
        <time>2022-08-15T08:58:13Z</time>
      </trkpt>
      <trkpt lat="42.2477730" lon="-2.0436360">
        <ele>450.1</ele>
        <time>2022-08-15T08:58:14Z</time>
      </trkpt>
      <trkpt lat="42.2478250" lon="-2.0435540">
        <ele>449.5</ele>
        <time>2022-08-15T08:58:15Z</time>
      </trkpt>
      <trkpt lat="42.2478820" lon="-2.0434420">
        <ele>448.8</ele>
        <time>2022-08-15T08:58:16Z</time>
      </trkpt>
      <trkpt lat="42.2479330" lon="-2.0433280">
        <ele>448.1</ele>
        <time>2022-08-15T08:58:17Z</time>
      </trkpt>
      <trkpt lat="42.2480240" lon="-2.0430640">
        <ele>446.4</ele>
        <time>2022-08-15T08:58:19Z</time>
      </trkpt>
      <trkpt lat="42.2480590" lon="-2.0429390">
        <ele>445.6</ele>
        <time>2022-08-15T08:58:20Z</time>
      </trkpt>
      <trkpt lat="42.2480970" lon="-2.0428110">
        <ele>444.9</ele>
        <time>2022-08-15T08:58:21Z</time>
      </trkpt>
      <trkpt lat="42.2481820" lon="-2.0425510">
        <ele>443.6</ele>
        <time>2022-08-15T08:58:23Z</time>
      </trkpt>
      <trkpt lat="42.2482680" lon="-2.0423290">
        <ele>442.8</ele>
        <time>2022-08-15T08:58:25Z</time>
      </trkpt>
      <trkpt lat="42.2483290" lon="-2.0421860">
        <ele>442.2</ele>
        <time>2022-08-15T08:58:26Z</time>
      </trkpt>
      <trkpt lat="42.2483830" lon="-2.0420730">
        <ele>441.8</ele>
        <time>2022-08-15T08:58:27Z</time>
      </trkpt>
      <trkpt lat="42.2485020" lon="-2.0418670">
        <ele>441.0</ele>
        <time>2022-08-15T08:58:29Z</time>
      </trkpt>
      <trkpt lat="42.2485650" lon="-2.0417720">
        <ele>440.7</ele>
        <time>2022-08-15T08:58:30Z</time>
      </trkpt>
      <trkpt lat="42.2486300" lon="-2.0416810">
        <ele>440.4</ele>
        <time>2022-08-15T08:58:31Z</time>
      </trkpt>
      <trkpt lat="42.2486940" lon="-2.0415940">
        <ele>440.1</ele>
        <time>2022-08-15T08:58:32Z</time>
      </trkpt>
      <trkpt lat="42.2487560" lon="-2.0415080">
        <ele>439.8</ele>
        <time>2022-08-15T08:58:33Z</time>
      </trkpt>
      <trkpt lat="42.2488170" lon="-2.0414200">
        <ele>439.5</ele>
        <time>2022-08-15T08:58:34Z</time>
      </trkpt>
      <trkpt lat="42.2488740" lon="-2.0413350">
        <ele>439.2</ele>
        <time>2022-08-15T08:58:35Z</time>
      </trkpt>
      <trkpt lat="42.2490380" lon="-2.0410750">
        <ele>438.2</ele>
        <time>2022-08-15T08:58:38Z</time>
      </trkpt>
      <trkpt lat="42.2490930" lon="-2.0409880">
        <ele>437.8</ele>
        <time>2022-08-15T08:58:39Z</time>
      </trkpt>
      <trkpt lat="42.2492630" lon="-2.0407330">
        <ele>436.7</ele>
        <time>2022-08-15T08:58:42Z</time>
      </trkpt>
      <trkpt lat="42.2494180" lon="-2.0405190">
        <ele>435.9</ele>
        <time>2022-08-15T08:58:45Z</time>
      </trkpt>
      <trkpt lat="42.2494820" lon="-2.0404430">
        <ele>435.5</ele>
        <time>2022-08-15T08:58:46Z</time>
      </trkpt>
      <trkpt lat="42.2495760" lon="-2.0403490">
        <ele>435.1</ele>
        <time>2022-08-15T08:58:47Z</time>
      </trkpt>
      <trkpt lat="42.2498240" lon="-2.0401060">
        <ele>434.1</ele>
        <time>2022-08-15T08:58:51Z</time>
      </trkpt>
      <trkpt lat="42.2500210" lon="-2.0398820">
        <ele>433.4</ele>
        <time>2022-08-15T08:58:54Z</time>
      </trkpt>
      <trkpt lat="42.2502480" lon="-2.0395980">
        <ele>432.6</ele>
        <time>2022-08-15T08:58:58Z</time>
      </trkpt>
      <trkpt lat="42.2503030" lon="-2.0395270">
        <ele>432.3</ele>
        <time>2022-08-15T08:58:59Z</time>
      </trkpt>
      <trkpt lat="42.2506690" lon="-2.0391460">
        <ele>430.2</ele>
        <time>2022-08-15T08:59:05Z</time>
      </trkpt>
      <trkpt lat="42.2507360" lon="-2.0390850">
        <ele>429.7</ele>
        <time>2022-08-15T08:59:06Z</time>
      </trkpt>
      <trkpt lat="42.2510180" lon="-2.0388130">
        <ele>427.6</ele>
        <time>2022-08-15T08:59:10Z</time>
      </trkpt>
      <trkpt lat="42.2510880" lon="-2.0387410">
        <ele>427.2</ele>
        <time>2022-08-15T08:59:11Z</time>
      </trkpt>
      <trkpt lat="42.2511440" lon="-2.0386840">
        <ele>426.9</ele>
        <time>2022-08-15T08:59:12Z</time>
      </trkpt>
      <trkpt lat="42.2512980" lon="-2.0385320">
        <ele>426.3</ele>
        <time>2022-08-15T08:59:14Z</time>
      </trkpt>
      <trkpt lat="42.2514360" lon="-2.0384020">
        <ele>425.9</ele>
        <time>2022-08-15T08:59:16Z</time>
      </trkpt>
      <trkpt lat="42.2515560" lon="-2.0382870">
        <ele>425.5</ele>
        <time>2022-08-15T08:59:18Z</time>
      </trkpt>
      <trkpt lat="42.2517610" lon="-2.0380970">
        <ele>425.0</ele>
        <time>2022-08-15T08:59:21Z</time>
      </trkpt>
      <trkpt lat="42.2518220" lon="-2.0380360">
        <ele>424.9</ele>
        <time>2022-08-15T08:59:22Z</time>
      </trkpt>
      <trkpt lat="42.2519330" lon="-2.0379260">
        <ele>424.7</ele>
        <time>2022-08-15T08:59:24Z</time>
      </trkpt>
      <trkpt lat="42.2522590" lon="-2.0376180">
        <ele>424.4</ele>
        <time>2022-08-15T08:59:29Z</time>
      </trkpt>
      <trkpt lat="42.2524430" lon="-2.0374470">
        <ele>424.3</ele>
        <time>2022-08-15T08:59:32Z</time>
      </trkpt>
      <trkpt lat="42.2526740" lon="-2.0372270">
        <ele>424.0</ele>
        <time>2022-08-15T08:59:36Z</time>
      </trkpt>
      <trkpt lat="42.2527820" lon="-2.0371270">
        <ele>423.9</ele>
        <time>2022-08-15T08:59:38Z</time>
      </trkpt>
      <trkpt lat="42.2529950" lon="-2.0369130">
        <ele>423.7</ele>
        <time>2022-08-15T08:59:42Z</time>
      </trkpt>
      <trkpt lat="42.2530480" lon="-2.0368590">
        <ele>423.6</ele>
        <time>2022-08-15T08:59:43Z</time>
      </trkpt>
      <trkpt lat="42.2531010" lon="-2.0368080">
        <ele>423.6</ele>
        <time>2022-08-15T08:59:44Z</time>
      </trkpt>
      <trkpt lat="42.2531870" lon="-2.0367250">
        <ele>423.5</ele>
        <time>2022-08-15T08:59:46Z</time>
      </trkpt>
      <trkpt lat="42.2533770" lon="-2.0365630">
        <ele>423.4</ele>
        <time>2022-08-15T08:59:49Z</time>
      </trkpt>
      <trkpt lat="42.2534210" lon="-2.0365260">
        <ele>423.4</ele>
        <time>2022-08-15T08:59:50Z</time>
      </trkpt>
      <trkpt lat="42.2535430" lon="-2.0364360">
        <ele>423.3</ele>
        <time>2022-08-15T08:59:52Z</time>
      </trkpt>
      <trkpt lat="42.2540100" lon="-2.0361590">
        <ele>422.9</ele>
        <time>2022-08-15T09:00:00Z</time>
      </trkpt>
      <trkpt lat="42.2541170" lon="-2.0360750">
        <ele>422.9</ele>
        <time>2022-08-15T09:00:02Z</time>
      </trkpt>
      <trkpt lat="42.2542140" lon="-2.0359690">
        <ele>422.8</ele>
        <time>2022-08-15T09:00:04Z</time>
      </trkpt>
      <trkpt lat="42.2542550" lon="-2.0359060">
        <ele>422.8</ele>
        <time>2022-08-15T09:00:05Z</time>
      </trkpt>
      <trkpt lat="42.2545020" lon="-2.0355350">
        <ele>422.6</ele>
        <time>2022-08-15T09:00:11Z</time>
      </trkpt>
      <trkpt lat="42.2546000" lon="-2.0354320">
        <ele>422.5</ele>
        <time>2022-08-15T09:00:13Z</time>
      </trkpt>
      <trkpt lat="42.2548890" lon="-2.0351300">
        <ele>422.4</ele>
        <time>2022-08-15T09:00:19Z</time>
      </trkpt>
      <trkpt lat="42.2551720" lon="-2.0347110">
        <ele>422.2</ele>
        <time>2022-08-15T09:00:26Z</time>
      </trkpt>
      <trkpt lat="42.2553060" lon="-2.0345370">
        <ele>422.1</ele>
        <time>2022-08-15T09:00:29Z</time>
      </trkpt>
      <trkpt lat="42.2555610" lon="-2.0342840">
        <ele>422.0</ele>
        <time>2022-08-15T09:00:34Z</time>
      </trkpt>
      <trkpt lat="42.2556050" lon="-2.0342220">
        <ele>422.0</ele>
        <time>2022-08-15T09:00:35Z</time>
      </trkpt>
      <trkpt lat="42.2556440" lon="-2.0341550">
        <ele>422.1</ele>
        <time>2022-08-15T09:00:36Z</time>
      </trkpt>
      <trkpt lat="42.2558020" lon="-2.0338110">
        <ele>422.0</ele>
        <time>2022-08-15T09:00:41Z</time>
      </trkpt>
      <trkpt lat="42.2560530" lon="-2.0331800">
        <ele>421.7</ele>
        <time>2022-08-15T09:00:50Z</time>
      </trkpt>
      <trkpt lat="42.2562830" lon="-2.0326480">
        <ele>421.9</ele>
        <time>2022-08-15T09:00:58Z</time>
      </trkpt>
      <trkpt lat="42.2565850" lon="-2.0319980">
        <ele>422.0</ele>
        <time>2022-08-15T09:01:08Z</time>
      </trkpt>
      <trkpt lat="42.2566130" lon="-2.0319310">
        <ele>422.0</ele>
        <time>2022-08-15T09:01:09Z</time>
      </trkpt>
      <trkpt lat="42.2568890" lon="-2.0312660">
        <ele>422.1</ele>
        <time>2022-08-15T09:01:19Z</time>
      </trkpt>
      <trkpt lat="42.2571150" lon="-2.0308910">
        <ele>421.5</ele>
        <time>2022-08-15T09:01:25Z</time>
      </trkpt>
      <trkpt lat="42.2573370" lon="-2.0305800">
        <ele>420.7</ele>
        <time>2022-08-15T09:01:30Z</time>
      </trkpt>
      <trkpt lat="42.2576410" lon="-2.0300800">
        <ele>419.8</ele>
        <time>2022-08-15T09:01:37Z</time>
      </trkpt>
      <trkpt lat="42.2576840" lon="-2.0300140">
        <ele>419.7</ele>
        <time>2022-08-15T09:01:38Z</time>
      </trkpt>
      <trkpt lat="42.2578470" lon="-2.0297690">
        <ele>419.4</ele>
        <time>2022-08-15T09:01:42Z</time>
      </trkpt>
      <trkpt lat="42.2578970" lon="-2.0296900">
        <ele>419.3</ele>
        <time>2022-08-15T09:01:43Z</time>
      </trkpt>
      <trkpt lat="42.2581340" lon="-2.0293130">
        <ele>419.0</ele>
        <time>2022-08-15T09:01:49Z</time>
      </trkpt>
      <trkpt lat="42.2584210" lon="-2.0288550">
        <ele>418.7</ele>
        <time>2022-08-15T09:01:56Z</time>
      </trkpt>
      <trkpt lat="42.2585750" lon="-2.0285890">
        <ele>418.5</ele>
        <time>2022-08-15T09:02:00Z</time>
      </trkpt>
      <trkpt lat="42.2589160" lon="-2.0279440">
        <ele>417.0</ele>
        <time>2022-08-15T09:02:09Z</time>
      </trkpt>
      <trkpt lat="42.2589610" lon="-2.0278750">
        <ele>416.7</ele>
        <time>2022-08-15T09:02:10Z</time>
      </trkpt>
      <trkpt lat="42.2591920" lon="-2.0275830">
        <ele>415.4</ele>
        <time>2022-08-15T09:02:15Z</time>
      </trkpt>
      <trkpt lat="42.2592450" lon="-2.0275180">
        <ele>415.2</ele>
        <time>2022-08-15T09:02:16Z</time>
      </trkpt>
      <trkpt lat="42.2594740" lon="-2.0272240">
        <ele>414.2</ele>
        <time>2022-08-15T09:02:20Z</time>
      </trkpt>
      <trkpt lat="42.2596230" lon="-2.0270120">
        <ele>413.6</ele>
        <time>2022-08-15T09:02:23Z</time>
      </trkpt>
      <trkpt lat="42.2596780" lon="-2.0269530">
        <ele>413.5</ele>
        <time>2022-08-15T09:02:24Z</time>
      </trkpt>
      <trkpt lat="42.2597980" lon="-2.0268500">
        <ele>413.2</ele>
        <time>2022-08-15T09:02:26Z</time>
      </trkpt>
      <trkpt lat="42.2600850" lon="-2.0265580">
        <ele>412.4</ele>
        <time>2022-08-15T09:02:31Z</time>
      </trkpt>
      <trkpt lat="42.2601310" lon="-2.0264860">
        <ele>412.2</ele>
        <time>2022-08-15T09:02:32Z</time>
      </trkpt>
      <trkpt lat="42.2602050" lon="-2.0263270">
        <ele>411.8</ele>
        <time>2022-08-15T09:02:34Z</time>
      </trkpt>
      <trkpt lat="42.2602400" lon="-2.0262450">
        <ele>411.6</ele>
        <time>2022-08-15T09:02:35Z</time>
      </trkpt>
      <trkpt lat="42.2602880" lon="-2.0261500">
        <ele>411.4</ele>
        <time>2022-08-15T09:02:36Z</time>
      </trkpt>
      <trkpt lat="42.2603260" lon="-2.0260910">
        <ele>411.3</ele>
        <time>2022-08-15T09:02:37Z</time>
      </trkpt>
      <trkpt lat="42.2604310" lon="-2.0259540">
        <ele>411.0</ele>
        <time>2022-08-15T09:02:39Z</time>
      </trkpt>
      <trkpt lat="42.2606450" lon="-2.0257060">
        <ele>410.7</ele>
        <time>2022-08-15T09:02:43Z</time>
      </trkpt>
      <trkpt lat="42.2607560" lon="-2.0255850">
        <ele>410.5</ele>
        <time>2022-08-15T09:02:45Z</time>
      </trkpt>
      <trkpt lat="42.2609270" lon="-2.0254280">
        <ele>410.2</ele>
        <time>2022-08-15T09:02:48Z</time>
      </trkpt>
      <trkpt lat="42.2613350" lon="-2.0249530">
        <ele>409.6</ele>
        <time>2022-08-15T09:02:56Z</time>
      </trkpt>
      <trkpt lat="42.2614740" lon="-2.0247600">
        <ele>409.3</ele>
        <time>2022-08-15T09:02:59Z</time>
      </trkpt>
      <trkpt lat="42.2617380" lon="-2.0243600">
        <ele>408.9</ele>
        <time>2022-08-15T09:03:05Z</time>
      </trkpt>
      <trkpt lat="42.2620330" lon="-2.0238550">
        <ele>408.2</ele>
        <time>2022-08-15T09:03:12Z</time>
      </trkpt>
      <trkpt lat="42.2621200" lon="-2.0236940">
        <ele>407.9</ele>
        <time>2022-08-15T09:03:14Z</time>
      </trkpt>
      <trkpt lat="42.2622740" lon="-2.0234160">
        <ele>407.4</ele>
        <time>2022-08-15T09:03:18Z</time>
      </trkpt>
      <trkpt lat="42.2623890" lon="-2.0232030">
        <ele>407.1</ele>
        <time>2022-08-15T09:03:21Z</time>
      </trkpt>
      <trkpt lat="42.2624660" lon="-2.0230660">
        <ele>406.9</ele>
        <time>2022-08-15T09:03:23Z</time>
      </trkpt>
      <trkpt lat="42.2626520" lon="-2.0227320">
        <ele>406.6</ele>
        <time>2022-08-15T09:03:28Z</time>
      </trkpt>
      <trkpt lat="42.2628440" lon="-2.0223900">
        <ele>406.6</ele>
        <time>2022-08-15T09:03:33Z</time>
      </trkpt>
      <trkpt lat="42.2628930" lon="-2.0222200">
        <ele>406.7</ele>
        <time>2022-08-15T09:03:36Z</time>
      </trkpt>
      <trkpt lat="42.2628990" lon="-2.0221310">
        <ele>406.6</ele>
        <time>2022-08-15T09:03:38Z</time>
      </trkpt>
      <trkpt lat="42.2629030" lon="-2.0220520">
        <ele>406.6</ele>
        <time>2022-08-15T09:03:40Z</time>
      </trkpt>
      <trkpt lat="42.2629080" lon="-2.0220160">
        <ele>406.5</ele>
        <time>2022-08-15T09:03:41Z</time>
      </trkpt>
      <trkpt lat="42.2629760" lon="-2.0218070">
        <ele>406.2</ele>
        <time>2022-08-15T09:03:48Z</time>
      </trkpt>
      <trkpt lat="42.2630210" lon="-2.0217520">
        <ele>406.1</ele>
        <time>2022-08-15T09:03:50Z</time>
      </trkpt>
      <trkpt lat="42.2630910" lon="-2.0216630">
        <ele>405.9</ele>
        <time>2022-08-15T09:03:53Z</time>
      </trkpt>
      <trkpt lat="42.2631910" lon="-2.0215470">
        <ele>405.8</ele>
        <time>2022-08-15T09:03:57Z</time>
      </trkpt>
      <trkpt lat="42.2633130" lon="-2.0213680">
        <ele>405.6</ele>
        <time>2022-08-15T09:04:02Z</time>
      </trkpt>
      <trkpt lat="42.2634120" lon="-2.0212190">
        <ele>405.4</ele>
        <time>2022-08-15T09:04:06Z</time>
      </trkpt>
      <trkpt lat="42.2634910" lon="-2.0210700">
        <ele>405.2</ele>
        <time>2022-08-15T09:04:10Z</time>
      </trkpt>
      <trkpt lat="42.2635310" lon="-2.0209990">
        <ele>405.1</ele>
        <time>2022-08-15T09:04:12Z</time>
      </trkpt>
      <trkpt lat="42.2636710" lon="-2.0207250">
        <ele>404.8</ele>
        <time>2022-08-15T09:04:18Z</time>
      </trkpt>
      <trkpt lat="42.2636930" lon="-2.0206740">
        <ele>404.7</ele>
        <time>2022-08-15T09:04:19Z</time>
      </trkpt>
      <trkpt lat="42.2637350" lon="-2.0205720">
        <ele>404.6</ele>
        <time>2022-08-15T09:04:21Z</time>
      </trkpt>
      <trkpt lat="42.2637780" lon="-2.0204750">
        <ele>404.4</ele>
        <time>2022-08-15T09:04:23Z</time>
      </trkpt>
      <trkpt lat="42.2639010" lon="-2.0201400">
        <ele>404.0</ele>
        <time>2022-08-15T09:04:29Z</time>
      </trkpt>
      <trkpt lat="42.2639450" lon="-2.0200290">
        <ele>403.8</ele>
        <time>2022-08-15T09:04:31Z</time>
      </trkpt>
      <trkpt lat="42.2641290" lon="-2.0195600">
        <ele>403.3</ele>
        <time>2022-08-15T09:04:38Z</time>
      </trkpt>
      <trkpt lat="42.2641600" lon="-2.0194930">
        <ele>403.2</ele>
        <time>2022-08-15T09:04:39Z</time>
      </trkpt>
      <trkpt lat="42.2643440" lon="-2.0190610">
        <ele>402.5</ele>
        <time>2022-08-15T09:04:45Z</time>
      </trkpt>
      <trkpt lat="42.2644290" lon="-2.0188410">
        <ele>402.2</ele>
        <time>2022-08-15T09:04:48Z</time>
      </trkpt>
      <trkpt lat="42.2644880" lon="-2.0186950">
        <ele>401.9</ele>
        <time>2022-08-15T09:04:50Z</time>
      </trkpt>
      <trkpt lat="42.2645790" lon="-2.0184710">
        <ele>401.5</ele>
        <time>2022-08-15T09:04:53Z</time>
      </trkpt>
      <trkpt lat="42.2647590" lon="-2.0180000">
        <ele>400.8</ele>
        <time>2022-08-15T09:04:59Z</time>
      </trkpt>
      <trkpt lat="42.2648550" lon="-2.0177520">
        <ele>400.5</ele>
        <time>2022-08-15T09:05:02Z</time>
      </trkpt>
      <trkpt lat="42.2649460" lon="-2.0175490">
        <ele>400.5</ele>
        <time>2022-08-15T09:05:05Z</time>
      </trkpt>
      <trkpt lat="42.2650270" lon="-2.0174430">
        <ele>400.4</ele>
        <time>2022-08-15T09:05:07Z</time>
      </trkpt>
      <trkpt lat="42.2651270" lon="-2.0173850">
        <ele>400.3</ele>
        <time>2022-08-15T09:05:09Z</time>
      </trkpt>
      <trkpt lat="42.2652260" lon="-2.0173400">
        <ele>400.2</ele>
        <time>2022-08-15T09:05:11Z</time>
      </trkpt>
      <trkpt lat="42.2653050" lon="-2.0172610">
        <ele>400.2</ele>
        <time>2022-08-15T09:05:13Z</time>
      </trkpt>
      <trkpt lat="42.2653510" lon="-2.0171520">
        <ele>400.2</ele>
        <time>2022-08-15T09:05:15Z</time>
      </trkpt>
      <trkpt lat="42.2653440" lon="-2.0170230">
        <ele>400.1</ele>
        <time>2022-08-15T09:05:17Z</time>
      </trkpt>
      <trkpt lat="42.2653200" lon="-2.0169630">
        <ele>400.0</ele>
        <time>2022-08-15T09:05:18Z</time>
      </trkpt>
      <trkpt lat="42.2652850" lon="-2.0169100">
        <ele>399.9</ele>
        <time>2022-08-15T09:05:19Z</time>
      </trkpt>
      <trkpt lat="42.2652000" lon="-2.0168210">
        <ele>399.7</ele>
        <time>2022-08-15T09:05:21Z</time>
      </trkpt>
      <trkpt lat="42.2651540" lon="-2.0167880">
        <ele>399.6</ele>
        <time>2022-08-15T09:05:22Z</time>
      </trkpt>
      <trkpt lat="42.2650650" lon="-2.0167410">
        <ele>399.4</ele>
        <time>2022-08-15T09:05:24Z</time>
      </trkpt>
      <trkpt lat="42.2649730" lon="-2.0167240">
        <ele>399.3</ele>
        <time>2022-08-15T09:05:26Z</time>
      </trkpt>
      <trkpt lat="42.2649290" lon="-2.0167220">
        <ele>399.3</ele>
        <time>2022-08-15T09:05:27Z</time>
      </trkpt>
      <trkpt lat="42.2648380" lon="-2.0167160">
        <ele>399.2</ele>
        <time>2022-08-15T09:05:29Z</time>
      </trkpt>
      <trkpt lat="42.2647240" lon="-2.0166540">
        <ele>399.1</ele>
        <time>2022-08-15T09:05:32Z</time>
      </trkpt>
      <trkpt lat="42.2646770" lon="-2.0165700">
        <ele>399.0</ele>
        <time>2022-08-15T09:05:34Z</time>
      </trkpt>
      <trkpt lat="42.2646580" lon="-2.0164650">
        <ele>398.9</ele>
        <time>2022-08-15T09:05:36Z</time>
      </trkpt>
      <trkpt lat="42.2646620" lon="-2.0163440">
        <ele>398.7</ele>
        <time>2022-08-15T09:05:38Z</time>
      </trkpt>
      <trkpt lat="42.2647020" lon="-2.0160770">
        <ele>398.4</ele>
        <time>2022-08-15T09:05:42Z</time>
      </trkpt>
      <trkpt lat="42.2647580" lon="-2.0155180">
        <ele>397.9</ele>
        <time>2022-08-15T09:05:50Z</time>
      </trkpt>
      <trkpt lat="42.2647820" lon="-2.0152270">
        <ele>397.8</ele>
        <time>2022-08-15T09:05:54Z</time>
      </trkpt>
      <trkpt lat="42.2648200" lon="-2.0147930">
        <ele>397.7</ele>
        <time>2022-08-15T09:06:00Z</time>
      </trkpt>
      <trkpt lat="42.2648480" lon="-2.0145030">
        <ele>397.6</ele>
        <time>2022-08-15T09:06:04Z</time>
      </trkpt>
      <trkpt lat="42.2648860" lon="-2.0140710">
        <ele>397.6</ele>
        <time>2022-08-15T09:06:10Z</time>
      </trkpt>
      <trkpt lat="42.2649030" lon="-2.0140090">
        <ele>397.6</ele>
        <time>2022-08-15T09:06:11Z</time>
      </trkpt>
      <trkpt lat="42.2649290" lon="-2.0139620">
        <ele>397.6</ele>
        <time>2022-08-15T09:06:12Z</time>
      </trkpt>
      <trkpt lat="42.2649950" lon="-2.0138980">
        <ele>397.5</ele>
        <time>2022-08-15T09:06:14Z</time>
      </trkpt>
      <trkpt lat="42.2650300" lon="-2.0138720">
        <ele>397.5</ele>
        <time>2022-08-15T09:06:15Z</time>
      </trkpt>
      <trkpt lat="42.2652340" lon="-2.0137390">
        <ele>397.3</ele>
        <time>2022-08-15T09:06:20Z</time>
      </trkpt>
      <trkpt lat="42.2652680" lon="-2.0136970">
        <ele>397.3</ele>
        <time>2022-08-15T09:06:21Z</time>
      </trkpt>
      <trkpt lat="42.2652960" lon="-2.0136480">
        <ele>397.2</ele>
        <time>2022-08-15T09:06:22Z</time>
      </trkpt>
      <trkpt lat="42.2653290" lon="-2.0135250">
        <ele>397.1</ele>
        <time>2022-08-15T09:06:24Z</time>
      </trkpt>
      <trkpt lat="42.2653320" lon="-2.0134540">
        <ele>397.0</ele>
        <time>2022-08-15T09:06:25Z</time>
      </trkpt>
      <trkpt lat="42.2653650" lon="-2.0127920">
        <ele>396.5</ele>
        <time>2022-08-15T09:06:34Z</time>
      </trkpt>
      <trkpt lat="42.2653840" lon="-2.0124960">
        <ele>396.4</ele>
        <time>2022-08-15T09:06:38Z</time>
      </trkpt>
      <trkpt lat="42.2654110" lon="-2.0121390">
        <ele>396.3</ele>
        <time>2022-08-15T09:06:43Z</time>
      </trkpt>
      <trkpt lat="42.2654280" lon="-2.0118180">
        <ele>396.3</ele>
        <time>2022-08-15T09:06:48Z</time>
      </trkpt>
      <trkpt lat="42.2654580" lon="-2.0117170">
        <ele>396.4</ele>
        <time>2022-08-15T09:06:50Z</time>
      </trkpt>
      <trkpt lat="42.2655410" lon="-2.0116170">
        <ele>396.6</ele>
        <time>2022-08-15T09:06:53Z</time>
      </trkpt>
      <trkpt lat="42.2656690" lon="-2.0115740">
        <ele>396.6</ele>
        <time>2022-08-15T09:06:57Z</time>
      </trkpt>
      <trkpt lat="42.2657060" lon="-2.0115320">
        <ele>396.6</ele>
        <time>2022-08-15T09:06:59Z</time>
      </trkpt>
      <trkpt lat="42.2657150" lon="-2.0115040">
        <ele>396.6</ele>
        <time>2022-08-15T09:07:00Z</time>
      </trkpt>
      <trkpt lat="42.2657090" lon="-2.0114740">
        <ele>396.6</ele>
        <time>2022-08-15T09:07:01Z</time>
      </trkpt>
      <trkpt lat="42.2656230" lon="-2.0114150">
        <ele>396.4</ele>
        <time>2022-08-15T09:07:04Z</time>
      </trkpt>
      <trkpt lat="42.2656030" lon="-2.0113890">
        <ele>396.4</ele>
        <time>2022-08-15T09:07:05Z</time>
      </trkpt>
      <trkpt lat="42.2655980" lon="-2.0113660">
        <ele>396.4</ele>
        <time>2022-08-15T09:07:06Z</time>
      </trkpt>
      <trkpt lat="42.2656280" lon="-2.0113370">
        <ele>396.3</ele>
        <time>2022-08-15T09:07:08Z</time>
      </trkpt>
      <trkpt lat="42.2657570" lon="-2.0113720">
        <ele>396.1</ele>
        <time>2022-08-15T09:07:12Z</time>
      </trkpt>
      <trkpt lat="42.2657950" lon="-2.0113820">
        <ele>396.1</ele>
        <time>2022-08-15T09:07:13Z</time>
      </trkpt>
      <trkpt lat="42.2659190" lon="-2.0114030">
        <ele>395.9</ele>
        <time>2022-08-15T09:07:16Z</time>
      </trkpt>
      <trkpt lat="42.2660500" lon="-2.0114220">
        <ele>395.8</ele>
        <time>2022-08-15T09:07:19Z</time>
      </trkpt>
      <trkpt lat="42.2663450" lon="-2.0114760">
        <ele>395.5</ele>
        <time>2022-08-15T09:07:25Z</time>
      </trkpt>
      <trkpt lat="42.2666730" lon="-2.0115340">
        <ele>395.2</ele>
        <time>2022-08-15T09:07:31Z</time>
      </trkpt>
      <trkpt lat="42.2668990" lon="-2.0115780">
        <ele>395.0</ele>
        <time>2022-08-15T09:07:35Z</time>
      </trkpt>
      <trkpt lat="42.2674610" lon="-2.0116760">
        <ele>394.5</ele>
        <time>2022-08-15T09:07:45Z</time>
      </trkpt>
      <trkpt lat="42.2675200" lon="-2.0116880">
        <ele>394.4</ele>
        <time>2022-08-15T09:07:46Z</time>
      </trkpt>
      <trkpt lat="42.2676190" lon="-2.0117060">
        <ele>394.3</ele>
        <time>2022-08-15T09:07:47Z</time>
      </trkpt>
      <trkpt lat="42.2679070" lon="-2.0117630">
        <ele>394.1</ele>
        <time>2022-08-15T09:07:52Z</time>
      </trkpt>
      <trkpt lat="42.2680310" lon="-2.0117900">
        <ele>393.9</ele>
        <time>2022-08-15T09:07:54Z</time>
      </trkpt>
      <trkpt lat="42.2682230" lon="-2.0118290">
        <ele>393.7</ele>
        <time>2022-08-15T09:07:57Z</time>
      </trkpt>
      <trkpt lat="42.2687370" lon="-2.0119260">
        <ele>393.3</ele>
        <time>2022-08-15T09:08:05Z</time>
      </trkpt>
      <trkpt lat="42.2688630" lon="-2.0119530">
        <ele>393.2</ele>
        <time>2022-08-15T09:08:07Z</time>
      </trkpt>
      <trkpt lat="42.2694240" lon="-2.0120620">
        <ele>392.6</ele>
        <time>2022-08-15T09:08:16Z</time>
      </trkpt>
      <trkpt lat="42.2695540" lon="-2.0120860">
        <ele>392.5</ele>
        <time>2022-08-15T09:08:18Z</time>
      </trkpt>
      <trkpt lat="42.2698620" lon="-2.0121430">
        <ele>392.2</ele>
        <time>2022-08-15T09:08:23Z</time>
      </trkpt>
      <trkpt lat="42.2701180" lon="-2.0121920">
        <ele>392.0</ele>
        <time>2022-08-15T09:08:27Z</time>
      </trkpt>
      <trkpt lat="42.2706940" lon="-2.0122990">
        <ele>391.3</ele>
        <time>2022-08-15T09:08:36Z</time>
      </trkpt>
      <trkpt lat="42.2707600" lon="-2.0123110">
        <ele>391.3</ele>
        <time>2022-08-15T09:08:37Z</time>
      </trkpt>
      <trkpt lat="42.2709650" lon="-2.0123480">
        <ele>391.0</ele>
        <time>2022-08-15T09:08:40Z</time>
      </trkpt>
      <trkpt lat="42.2714640" lon="-2.0124380">
        <ele>390.4</ele>
        <time>2022-08-15T09:08:48Z</time>
      </trkpt>
      <trkpt lat="42.2715900" lon="-2.0124590">
        <ele>390.2</ele>
        <time>2022-08-15T09:08:50Z</time>
      </trkpt>
      <trkpt lat="42.2720160" lon="-2.0125280">
        <ele>389.0</ele>
        <time>2022-08-15T09:08:57Z</time>
      </trkpt>
      <trkpt lat="42.2722650" lon="-2.0125600">
        <ele>388.6</ele>
        <time>2022-08-15T09:09:01Z</time>
      </trkpt>
      <trkpt lat="42.2726980" lon="-2.0125730">
        <ele>387.9</ele>
        <time>2022-08-15T09:09:08Z</time>
      </trkpt>
      <trkpt lat="42.2728870" lon="-2.0125600">
        <ele>387.6</ele>
        <time>2022-08-15T09:09:11Z</time>
      </trkpt>
      <trkpt lat="42.2734380" lon="-2.0124610">
        <ele>386.3</ele>
        <time>2022-08-15T09:09:20Z</time>
      </trkpt>
      <trkpt lat="42.2735000" lon="-2.0124430">
        <ele>386.2</ele>
        <time>2022-08-15T09:09:21Z</time>
      </trkpt>
      <trkpt lat="42.2737310" lon="-2.0123660">
        <ele>385.7</ele>
        <time>2022-08-15T09:09:25Z</time>
      </trkpt>
      <trkpt lat="42.2738950" lon="-2.0122920">
        <ele>385.4</ele>
        <time>2022-08-15T09:09:28Z</time>
      </trkpt>
      <trkpt lat="42.2739620" lon="-2.0122590">
        <ele>385.3</ele>
        <time>2022-08-15T09:09:29Z</time>
      </trkpt>
      <trkpt lat="42.2743500" lon="-2.0120360">
        <ele>384.6</ele>
        <time>2022-08-15T09:09:36Z</time>
      </trkpt>
      <trkpt lat="42.2745140" lon="-2.0119280">
        <ele>384.2</ele>
        <time>2022-08-15T09:09:39Z</time>
      </trkpt>
      <trkpt lat="42.2746830" lon="-2.0118160">
        <ele>383.7</ele>
        <time>2022-08-15T09:09:42Z</time>
      </trkpt>
      <trkpt lat="42.2748500" lon="-2.0117030">
        <ele>383.4</ele>
        <time>2022-08-15T09:09:45Z</time>
      </trkpt>
      <trkpt lat="42.2750140" lon="-2.0115980">
        <ele>383.0</ele>
        <time>2022-08-15T09:09:48Z</time>
      </trkpt>
      <trkpt lat="42.2750690" lon="-2.0115600">
        <ele>382.9</ele>
        <time>2022-08-15T09:09:49Z</time>
      </trkpt>
      <trkpt lat="42.2751850" lon="-2.0114850">
        <ele>382.7</ele>
        <time>2022-08-15T09:09:51Z</time>
      </trkpt>
      <trkpt lat="42.2753570" lon="-2.0113760">
        <ele>382.5</ele>
        <time>2022-08-15T09:09:54Z</time>
      </trkpt>
      <trkpt lat="42.2756330" lon="-2.0111960">
        <ele>382.0</ele>
        <time>2022-08-15T09:09:59Z</time>
      </trkpt>
      <trkpt lat="42.2759700" lon="-2.0109820">
        <ele>381.3</ele>
        <time>2022-08-15T09:10:05Z</time>
      </trkpt>
      <trkpt lat="42.2763100" lon="-2.0107620">
        <ele>380.6</ele>
        <time>2022-08-15T09:10:11Z</time>
      </trkpt>
      <trkpt lat="42.2766050" lon="-2.0105720">
        <ele>380.0</ele>
        <time>2022-08-15T09:10:16Z</time>
      </trkpt>
      <trkpt lat="42.2768390" lon="-2.0104360">
        <ele>379.4</ele>
        <time>2022-08-15T09:10:20Z</time>
      </trkpt>
      <trkpt lat="42.2770750" lon="-2.0103040">
        <ele>379.0</ele>
        <time>2022-08-15T09:10:24Z</time>
      </trkpt>
      <trkpt lat="42.2772660" lon="-2.0102120">
        <ele>378.7</ele>
        <time>2022-08-15T09:10:27Z</time>
      </trkpt>
      <trkpt lat="42.2773760" lon="-2.0101810">
        <ele>378.5</ele>
        <time>2022-08-15T09:10:29Z</time>
      </trkpt>
      <trkpt lat="42.2775050" lon="-2.0101610">
        <ele>378.4</ele>
        <time>2022-08-15T09:10:31Z</time>
      </trkpt>
      <trkpt lat="42.2777110" lon="-2.0101430">
        <ele>378.0</ele>
        <time>2022-08-15T09:10:34Z</time>
      </trkpt>
      <trkpt lat="42.2778950" lon="-2.0101440">
        <ele>377.8</ele>
        <time>2022-08-15T09:10:37Z</time>
      </trkpt>
      <trkpt lat="42.2782360" lon="-2.0101490">
        <ele>377.4</ele>
        <time>2022-08-15T09:10:42Z</time>
      </trkpt>
      <trkpt lat="42.2784890" lon="-2.0101620">
        <ele>377.0</ele>
        <time>2022-08-15T09:10:46Z</time>
      </trkpt>
      <trkpt lat="42.2788150" lon="-2.0102330">
        <ele>376.2</ele>
        <time>2022-08-15T09:10:51Z</time>
      </trkpt>
      <trkpt lat="42.2789460" lon="-2.0102560">
        <ele>375.8</ele>
        <time>2022-08-15T09:10:53Z</time>
      </trkpt>
      <trkpt lat="42.2791930" lon="-2.0102870">
        <ele>375.1</ele>
        <time>2022-08-15T09:10:57Z</time>
      </trkpt>
      <trkpt lat="42.2796680" lon="-2.0103200">
        <ele>374.5</ele>
        <time>2022-08-15T09:11:04Z</time>
      </trkpt>
      <trkpt lat="42.2797980" lon="-2.0103260">
        <ele>374.2</ele>
        <time>2022-08-15T09:11:06Z</time>
      </trkpt>
      <trkpt lat="42.2799310" lon="-2.0103170">
        <ele>373.9</ele>
        <time>2022-08-15T09:11:08Z</time>
      </trkpt>
      <trkpt lat="42.2800520" lon="-2.0102860">
        <ele>373.7</ele>
        <time>2022-08-15T09:11:10Z</time>
      </trkpt>
      <trkpt lat="42.2801300" lon="-2.0102580">
        <ele>373.6</ele>
        <time>2022-08-15T09:11:11Z</time>
      </trkpt>
      <trkpt lat="42.2803210" lon="-2.0101820">
        <ele>373.3</ele>
        <time>2022-08-15T09:11:14Z</time>
      </trkpt>
      <trkpt lat="42.2804890" lon="-2.0101100">
        <ele>373.1</ele>
        <time>2022-08-15T09:11:17Z</time>
      </trkpt>
      <trkpt lat="42.2808130" lon="-2.0099730">
        <ele>372.5</ele>
        <time>2022-08-15T09:11:22Z</time>
      </trkpt>
      <trkpt lat="42.2813850" lon="-2.0097320">
        <ele>371.5</ele>
        <time>2022-08-15T09:11:31Z</time>
      </trkpt>
      <trkpt lat="42.2814360" lon="-2.0097100">
        <ele>371.4</ele>
        <time>2022-08-15T09:11:32Z</time>
      </trkpt>
      <trkpt lat="42.2815150" lon="-2.0096770">
        <ele>371.3</ele>
        <time>2022-08-15T09:11:33Z</time>
      </trkpt>
      <trkpt lat="42.2817120" lon="-2.0095990">
        <ele>370.9</ele>
        <time>2022-08-15T09:11:36Z</time>
      </trkpt>
      <trkpt lat="42.2820270" lon="-2.0094680">
        <ele>370.3</ele>
        <time>2022-08-15T09:11:41Z</time>
      </trkpt>
      <trkpt lat="42.2822770" lon="-2.0093640">
        <ele>369.7</ele>
        <time>2022-08-15T09:11:45Z</time>
      </trkpt>
      <trkpt lat="42.2827560" lon="-2.0091700">
        <ele>369.0</ele>
        <time>2022-08-15T09:11:52Z</time>
      </trkpt>
      <trkpt lat="42.2828190" lon="-2.0091430">
        <ele>368.9</ele>
        <time>2022-08-15T09:11:53Z</time>
      </trkpt>
      <trkpt lat="42.2832120" lon="-2.0089700">
        <ele>368.2</ele>
        <time>2022-08-15T09:11:59Z</time>
      </trkpt>
      <trkpt lat="42.2832650" lon="-2.0089500">
        <ele>368.1</ele>
        <time>2022-08-15T09:12:00Z</time>
      </trkpt>
      <trkpt lat="42.2834490" lon="-2.0088710">
        <ele>367.9</ele>
        <time>2022-08-15T09:12:03Z</time>
      </trkpt>
      <trkpt lat="42.2835200" lon="-2.0088380">
        <ele>367.7</ele>
        <time>2022-08-15T09:12:04Z</time>
      </trkpt>
      <trkpt lat="42.2838170" lon="-2.0087050">
        <ele>367.3</ele>
        <time>2022-08-15T09:12:09Z</time>
      </trkpt>
      <trkpt lat="42.2838750" lon="-2.0086740">
        <ele>367.2</ele>
        <time>2022-08-15T09:12:10Z</time>
      </trkpt>
      <trkpt lat="42.2843950" lon="-2.0083500">
        <ele>366.6</ele>
        <time>2022-08-15T09:12:19Z</time>
      </trkpt>
      <trkpt lat="42.2845680" lon="-2.0082370">
        <ele>366.4</ele>
        <time>2022-08-15T09:12:22Z</time>
      </trkpt>
      <trkpt lat="42.2846820" lon="-2.0081620">
        <ele>366.3</ele>
        <time>2022-08-15T09:12:24Z</time>
      </trkpt>
      <trkpt lat="42.2850260" lon="-2.0079380">
        <ele>365.9</ele>
        <time>2022-08-15T09:12:30Z</time>
      </trkpt>
      <trkpt lat="42.2852330" lon="-2.0077960">
        <ele>365.7</ele>
        <time>2022-08-15T09:12:34Z</time>
      </trkpt>
      <trkpt lat="42.2855840" lon="-2.0075700">
        <ele>365.3</ele>
        <time>2022-08-15T09:12:40Z</time>
      </trkpt>
      <trkpt lat="42.2856410" lon="-2.0075330">
        <ele>365.2</ele>
        <time>2022-08-15T09:12:41Z</time>
      </trkpt>
      <trkpt lat="42.2859930" lon="-2.0073000">
        <ele>364.8</ele>
        <time>2022-08-15T09:12:47Z</time>
      </trkpt>
      <trkpt lat="42.2862320" lon="-2.0071420">
        <ele>364.6</ele>
        <time>2022-08-15T09:12:51Z</time>
      </trkpt>
      <trkpt lat="42.2862900" lon="-2.0071030">
        <ele>364.6</ele>
        <time>2022-08-15T09:12:52Z</time>
      </trkpt>
      <trkpt lat="42.2867030" lon="-2.0067260">
        <ele>364.2</ele>
        <time>2022-08-15T09:13:00Z</time>
      </trkpt>
      <trkpt lat="42.2870630" lon="-2.0062170">
        <ele>363.8</ele>
        <time>2022-08-15T09:13:08Z</time>
      </trkpt>
      <trkpt lat="42.2873660" lon="-2.0057710">
        <ele>363.4</ele>
        <time>2022-08-15T09:13:15Z</time>
      </trkpt>
      <trkpt lat="42.2874500" lon="-2.0056400">
        <ele>363.3</ele>
        <time>2022-08-15T09:13:17Z</time>
      </trkpt>
      <trkpt lat="42.2878620" lon="-2.0050240">
        <ele>362.7</ele>
        <time>2022-08-15T09:13:26Z</time>
      </trkpt>
      <trkpt lat="42.2879920" lon="-2.0048300">
        <ele>362.6</ele>
        <time>2022-08-15T09:13:29Z</time>
      </trkpt>
      <trkpt lat="42.2882080" lon="-2.0045160">
        <ele>362.5</ele>
        <time>2022-08-15T09:13:34Z</time>
      </trkpt>
      <trkpt lat="42.2884120" lon="-2.0042130">
        <ele>362.2</ele>
        <time>2022-08-15T09:13:39Z</time>
      </trkpt>
      <trkpt lat="42.2888070" lon="-2.0036430">
        <ele>361.9</ele>
        <time>2022-08-15T09:13:48Z</time>
      </trkpt>
      <trkpt lat="42.2888520" lon="-2.0035830">
        <ele>361.9</ele>
        <time>2022-08-15T09:13:49Z</time>
      </trkpt>
      <trkpt lat="42.2891090" lon="-2.0031990">
        <ele>361.6</ele>
        <time>2022-08-15T09:13:55Z</time>
      </trkpt>
      <trkpt lat="42.2892370" lon="-2.0030070">
        <ele>361.5</ele>
        <time>2022-08-15T09:13:58Z</time>
      </trkpt>
      <trkpt lat="42.2895690" lon="-2.0025100">
        <ele>361.3</ele>
        <time>2022-08-15T09:14:06Z</time>
      </trkpt>
      <trkpt lat="42.2896390" lon="-2.0024030">
        <ele>361.3</ele>
        <time>2022-08-15T09:14:08Z</time>
      </trkpt>
      <trkpt lat="42.2900430" lon="-2.0018210">
        <ele>361.1</ele>
        <time>2022-08-15T09:14:18Z</time>
      </trkpt>
      <trkpt lat="42.2903980" lon="-2.0012830">
        <ele>361.0</ele>
        <time>2022-08-15T09:14:27Z</time>
      </trkpt>
      <trkpt lat="42.2905670" lon="-2.0010330">
        <ele>361.0</ele>
        <time>2022-08-15T09:14:31Z</time>
      </trkpt>
      <trkpt lat="42.2908070" lon="-2.0006930">
        <ele>360.9</ele>
        <time>2022-08-15T09:14:37Z</time>
      </trkpt>
      <trkpt lat="42.2911970" lon="-2.0001130">
        <ele>360.4</ele>
        <time>2022-08-15T09:14:46Z</time>
      </trkpt>
      <trkpt lat="42.2915930" lon="-1.9995420">
        <ele>359.6</ele>
        <time>2022-08-15T09:14:55Z</time>
      </trkpt>
      <trkpt lat="42.2916350" lon="-1.9994790">
        <ele>359.5</ele>
        <time>2022-08-15T09:14:56Z</time>
      </trkpt>
      <trkpt lat="42.2917200" lon="-1.9993530">
        <ele>359.3</ele>
        <time>2022-08-15T09:14:58Z</time>
      </trkpt>
      <trkpt lat="42.2920710" lon="-1.9988310">
        <ele>358.4</ele>
        <time>2022-08-15T09:15:06Z</time>
      </trkpt>
      <trkpt lat="42.2921070" lon="-1.9987800">
        <ele>358.3</ele>
        <time>2022-08-15T09:15:07Z</time>
      </trkpt>
      <trkpt lat="42.2923400" lon="-1.9984400">
        <ele>357.8</ele>
        <time>2022-08-15T09:15:12Z</time>
      </trkpt>
      <trkpt lat="42.2925100" lon="-1.9981830">
        <ele>357.2</ele>
        <time>2022-08-15T09:15:16Z</time>
      </trkpt>
      <trkpt lat="42.2925540" lon="-1.9981210">
        <ele>357.1</ele>
        <time>2022-08-15T09:15:17Z</time>
      </trkpt>
      <trkpt lat="42.2927660" lon="-1.9978170">
        <ele>356.4</ele>
        <time>2022-08-15T09:15:22Z</time>
      </trkpt>
      <trkpt lat="42.2928430" lon="-1.9977060">
        <ele>356.2</ele>
        <time>2022-08-15T09:15:24Z</time>
      </trkpt>
      <trkpt lat="42.2929340" lon="-1.9975790">
        <ele>356.1</ele>
        <time>2022-08-15T09:15:26Z</time>
      </trkpt>
      <trkpt lat="42.2930120" lon="-1.9974630">
        <ele>355.9</ele>
        <time>2022-08-15T09:15:28Z</time>
      </trkpt>
      <trkpt lat="42.2932300" lon="-1.9971330">
        <ele>355.4</ele>
        <time>2022-08-15T09:15:34Z</time>
      </trkpt>
      <trkpt lat="42.2933420" lon="-1.9969510">
        <ele>355.0</ele>
        <time>2022-08-15T09:15:37Z</time>
      </trkpt>
      <trkpt lat="42.2935050" lon="-1.9967200">
        <ele>354.5</ele>
        <time>2022-08-15T09:15:41Z</time>
      </trkpt>
      <trkpt lat="42.2935760" lon="-1.9966320">
        <ele>354.3</ele>
        <time>2022-08-15T09:15:43Z</time>
      </trkpt>
      <trkpt lat="42.2936170" lon="-1.9965700">
        <ele>354.2</ele>
        <time>2022-08-15T09:15:44Z</time>
      </trkpt>
      <trkpt lat="42.2936920" lon="-1.9963970">
        <ele>353.9</ele>
        <time>2022-08-15T09:15:46Z</time>
      </trkpt>
      <trkpt lat="42.2937180" lon="-1.9963210">
        <ele>353.7</ele>
        <time>2022-08-15T09:15:47Z</time>
      </trkpt>
      <trkpt lat="42.2937580" lon="-1.9961820">
        <ele>353.5</ele>
        <time>2022-08-15T09:15:49Z</time>
      </trkpt>
      <trkpt lat="42.2937910" lon="-1.9960080">
        <ele>353.3</ele>
        <time>2022-08-15T09:15:51Z</time>
      </trkpt>
      <trkpt lat="42.2938190" lon="-1.9958750">
        <ele>353.2</ele>
        <time>2022-08-15T09:15:53Z</time>
      </trkpt>
      <trkpt lat="42.2938370" lon="-1.9958030">
        <ele>353.2</ele>
        <time>2022-08-15T09:15:54Z</time>
      </trkpt>
      <trkpt lat="42.2938600" lon="-1.9957320">
        <ele>353.1</ele>
        <time>2022-08-15T09:15:55Z</time>
      </trkpt>
      <trkpt lat="42.2938930" lon="-1.9956490">
        <ele>353.1</ele>
        <time>2022-08-15T09:15:56Z</time>
      </trkpt>
      <trkpt lat="42.2939510" lon="-1.9955320">
        <ele>352.9</ele>
        <time>2022-08-15T09:15:58Z</time>
      </trkpt>
      <trkpt lat="42.2939870" lon="-1.9954720">
        <ele>352.8</ele>
        <time>2022-08-15T09:15:59Z</time>
      </trkpt>
      <trkpt lat="42.2942000" lon="-1.9951890">
        <ele>352.1</ele>
        <time>2022-08-15T09:16:04Z</time>
      </trkpt>
      <trkpt lat="42.2943830" lon="-1.9949570">
        <ele>351.7</ele>
        <time>2022-08-15T09:16:08Z</time>
      </trkpt>
      <trkpt lat="42.2945030" lon="-1.9948010">
        <ele>351.5</ele>
        <time>2022-08-15T09:16:11Z</time>
      </trkpt>
      <trkpt lat="42.2945670" lon="-1.9947230">
        <ele>351.4</ele>
        <time>2022-08-15T09:16:13Z</time>
      </trkpt>
      <trkpt lat="42.2945990" lon="-1.9946760">
        <ele>351.4</ele>
        <time>2022-08-15T09:16:15Z</time>
      </trkpt>
      <trkpt lat="42.2946030" lon="-1.9946750">
        <ele>351.4</ele>
        <time>2022-08-15T09:17:30Z</time>
      </trkpt>
      <trkpt lat="42.2946890" lon="-1.9945850">
        <ele>351.2</ele>
        <time>2022-08-15T09:17:34Z</time>
      </trkpt>
      <trkpt lat="42.2948450" lon="-1.9944400">
        <ele>351.0</ele>
        <time>2022-08-15T09:17:39Z</time>
      </trkpt>
      <trkpt lat="42.2948800" lon="-1.9944180">
        <ele>351.0</ele>
        <time>2022-08-15T09:17:40Z</time>
      </trkpt>
      <trkpt lat="42.2949260" lon="-1.9943970">
        <ele>350.9</ele>
        <time>2022-08-15T09:17:41Z</time>
      </trkpt>
      <trkpt lat="42.2950790" lon="-1.9943590">
        <ele>350.6</ele>
        <time>2022-08-15T09:17:44Z</time>
      </trkpt>
      <trkpt lat="42.2951700" lon="-1.9942810">
        <ele>350.4</ele>
        <time>2022-08-15T09:17:46Z</time>
      </trkpt>
      <trkpt lat="42.2952100" lon="-1.9942260">
        <ele>350.4</ele>
        <time>2022-08-15T09:17:47Z</time>
      </trkpt>
      <trkpt lat="42.2953400" lon="-1.9940470">
        <ele>350.0</ele>
        <time>2022-08-15T09:17:50Z</time>
      </trkpt>
      <trkpt lat="42.2954250" lon="-1.9939220">
        <ele>349.8</ele>
        <time>2022-08-15T09:17:52Z</time>
      </trkpt>
      <trkpt lat="42.2954680" lon="-1.9938640">
        <ele>349.6</ele>
        <time>2022-08-15T09:17:53Z</time>
      </trkpt>
      <trkpt lat="42.2957670" lon="-1.9934250">
        <ele>348.7</ele>
        <time>2022-08-15T09:18:00Z</time>
      </trkpt>
      <trkpt lat="42.2958460" lon="-1.9933030">
        <ele>348.5</ele>
        <time>2022-08-15T09:18:02Z</time>
      </trkpt>
      <trkpt lat="42.2959290" lon="-1.9931800">
        <ele>348.4</ele>
        <time>2022-08-15T09:18:04Z</time>
      </trkpt>
      <trkpt lat="42.2959780" lon="-1.9931040">
        <ele>348.3</ele>
        <time>2022-08-15T09:18:05Z</time>
      </trkpt>
      <trkpt lat="42.2960170" lon="-1.9930420">
        <ele>348.2</ele>
        <time>2022-08-15T09:18:06Z</time>
      </trkpt>
      <trkpt lat="42.2960890" lon="-1.9929300">
        <ele>348.0</ele>
        <time>2022-08-15T09:18:08Z</time>
      </trkpt>
      <trkpt lat="42.2961660" lon="-1.9928140">
        <ele>347.9</ele>
        <time>2022-08-15T09:18:10Z</time>
      </trkpt>
      <trkpt lat="42.2965260" lon="-1.9922530">
        <ele>347.3</ele>
        <time>2022-08-15T09:18:19Z</time>
      </trkpt>
      <trkpt lat="42.2969180" lon="-1.9916430">
        <ele>346.6</ele>
        <time>2022-08-15T09:18:29Z</time>
      </trkpt>
      <trkpt lat="42.2971200" lon="-1.9913210">
        <ele>345.8</ele>
        <time>2022-08-15T09:18:34Z</time>
      </trkpt>
      <trkpt lat="42.2972410" lon="-1.9911100">
        <ele>345.5</ele>
        <time>2022-08-15T09:18:37Z</time>
      </trkpt>
      <trkpt lat="42.2972830" lon="-1.9910410">
        <ele>345.5</ele>
        <time>2022-08-15T09:18:38Z</time>
      </trkpt>
      <trkpt lat="42.2973200" lon="-1.9909750">
        <ele>345.6</ele>
        <time>2022-08-15T09:18:39Z</time>
      </trkpt>
      <trkpt lat="42.2974340" lon="-1.9907800">
        <ele>345.7</ele>
        <time>2022-08-15T09:18:42Z</time>
      </trkpt>
      <trkpt lat="42.2976180" lon="-1.9904740">
        <ele>345.6</ele>
        <time>2022-08-15T09:18:47Z</time>
      </trkpt>
      <trkpt lat="42.2978290" lon="-1.9901280">
        <ele>345.4</ele>
        <time>2022-08-15T09:18:53Z</time>
      </trkpt>
      <trkpt lat="42.2978630" lon="-1.9900680">
        <ele>345.4</ele>
        <time>2022-08-15T09:18:54Z</time>
      </trkpt>
      <trkpt lat="42.2981250" lon="-1.9895870">
        <ele>345.2</ele>
        <time>2022-08-15T09:19:02Z</time>
      </trkpt>
      <trkpt lat="42.2983090" lon="-1.9892660">
        <ele>345.1</ele>
        <time>2022-08-15T09:19:07Z</time>
      </trkpt>
      <trkpt lat="42.2985150" lon="-1.9889150">
        <ele>345.6</ele>
        <time>2022-08-15T09:19:13Z</time>
      </trkpt>
      <trkpt lat="42.2987760" lon="-1.9884170">
        <ele>345.4</ele>
        <time>2022-08-15T09:19:21Z</time>
      </trkpt>
      <trkpt lat="42.2990070" lon="-1.9879950">
        <ele>345.3</ele>
        <time>2022-08-15T09:19:28Z</time>
      </trkpt>
      <trkpt lat="42.2992420" lon="-1.9875640">
        <ele>345.2</ele>
        <time>2022-08-15T09:19:35Z</time>
      </trkpt>
      <trkpt lat="42.2993680" lon="-1.9873140">
        <ele>345.2</ele>
        <time>2022-08-15T09:19:39Z</time>
      </trkpt>
      <trkpt lat="42.2997030" lon="-1.9867060">
        <ele>345.1</ele>
        <time>2022-08-15T09:19:49Z</time>
      </trkpt>
      <trkpt lat="42.2999410" lon="-1.9862810">
        <ele>345.0</ele>
        <time>2022-08-15T09:19:56Z</time>
      </trkpt>
      <trkpt lat="42.3001390" lon="-1.9858820">
        <ele>345.2</ele>
        <time>2022-08-15T09:20:02Z</time>
      </trkpt>
      <trkpt lat="42.3001920" lon="-1.9857520">
        <ele>345.3</ele>
        <time>2022-08-15T09:20:04Z</time>
      </trkpt>
      <trkpt lat="42.3003420" lon="-1.9853110">
        <ele>345.6</ele>
        <time>2022-08-15T09:20:11Z</time>
      </trkpt>
      <trkpt lat="42.3003520" lon="-1.9852430">
        <ele>345.6</ele>
        <time>2022-08-15T09:20:12Z</time>
      </trkpt>
      <trkpt lat="42.3003780" lon="-1.9849850">
        <ele>345.9</ele>
        <time>2022-08-15T09:20:16Z</time>
      </trkpt>
      <trkpt lat="42.3004070" lon="-1.9848640">
        <ele>345.9</ele>
        <time>2022-08-15T09:20:18Z</time>
      </trkpt>
      <trkpt lat="42.3005910" lon="-1.9843780">
        <ele>346.2</ele>
        <time>2022-08-15T09:20:26Z</time>
      </trkpt>
      <trkpt lat="42.3006210" lon="-1.9843220">
        <ele>346.2</ele>
        <time>2022-08-15T09:20:27Z</time>
      </trkpt>
      <trkpt lat="42.3007910" lon="-1.9840490">
        <ele>345.9</ele>
        <time>2022-08-15T09:20:32Z</time>
      </trkpt>
      <trkpt lat="42.3008210" lon="-1.9839790">
        <ele>345.8</ele>
        <time>2022-08-15T09:20:33Z</time>
      </trkpt>
      <trkpt lat="42.3008600" lon="-1.9838230">
        <ele>345.7</ele>
        <time>2022-08-15T09:20:35Z</time>
      </trkpt>
      <trkpt lat="42.3008780" lon="-1.9837460">
        <ele>345.7</ele>
        <time>2022-08-15T09:20:36Z</time>
      </trkpt>
      <trkpt lat="42.3009310" lon="-1.9836070">
        <ele>345.7</ele>
        <time>2022-08-15T09:20:38Z</time>
      </trkpt>
      <trkpt lat="42.3010160" lon="-1.9834700">
        <ele>345.6</ele>
        <time>2022-08-15T09:20:40Z</time>
      </trkpt>
      <trkpt lat="42.3010320" lon="-1.9834470">
        <ele>345.6</ele>
        <time>2022-08-15T09:20:41Z</time>
      </trkpt>
      <trkpt lat="42.3013160" lon="-1.9831110">
        <ele>345.8</ele>
        <time>2022-08-15T09:20:47Z</time>
      </trkpt>
      <trkpt lat="42.3015730" lon="-1.9827250">
        <ele>346.5</ele>
        <time>2022-08-15T09:20:54Z</time>
      </trkpt>
      <trkpt lat="42.3016010" lon="-1.9826630">
        <ele>346.7</ele>
        <time>2022-08-15T09:20:55Z</time>
      </trkpt>
      <trkpt lat="42.3016430" lon="-1.9825450">
        <ele>346.8</ele>
        <time>2022-08-15T09:20:57Z</time>
      </trkpt>
      <trkpt lat="42.3016720" lon="-1.9824310">
        <ele>347.0</ele>
        <time>2022-08-15T09:20:59Z</time>
      </trkpt>
      <trkpt lat="42.3016870" lon="-1.9823200">
        <ele>347.2</ele>
        <time>2022-08-15T09:21:01Z</time>
      </trkpt>
      <trkpt lat="42.3017120" lon="-1.9822220">
        <ele>347.3</ele>
        <time>2022-08-15T09:21:03Z</time>
      </trkpt>
      <trkpt lat="42.3017310" lon="-1.9821800">
        <ele>347.4</ele>
        <time>2022-08-15T09:21:04Z</time>
      </trkpt>
      <trkpt lat="42.3017540" lon="-1.9821430">
        <ele>347.4</ele>
        <time>2022-08-15T09:21:05Z</time>
      </trkpt>
      <trkpt lat="42.3018220" lon="-1.9820770">
        <ele>347.3</ele>
        <time>2022-08-15T09:21:07Z</time>
      </trkpt>
      <trkpt lat="42.3018500" lon="-1.9820620">
        <ele>347.5</ele>
        <time>2022-08-15T09:21:08Z</time>
      </trkpt>
      <trkpt lat="42.3019270" lon="-1.9820270">
        <ele>348.4</ele>
        <time>2022-08-15T09:21:10Z</time>
      </trkpt>
      <trkpt lat="42.3020030" lon="-1.9819530">
        <ele>348.4</ele>
        <time>2022-08-15T09:21:12Z</time>
      </trkpt>
      <trkpt lat="42.3020360" lon="-1.9819010">
        <ele>348.4</ele>
        <time>2022-08-15T09:21:13Z</time>
      </trkpt>
      <trkpt lat="42.3021230" lon="-1.9817160">
        <ele>348.5</ele>
        <time>2022-08-15T09:21:16Z</time>
      </trkpt>
      <trkpt lat="42.3022310" lon="-1.9814370">
        <ele>348.5</ele>
        <time>2022-08-15T09:21:20Z</time>
      </trkpt>
      <trkpt lat="42.3024650" lon="-1.9807290">
        <ele>348.5</ele>
        <time>2022-08-15T09:21:30Z</time>
      </trkpt>
      <trkpt lat="42.3024860" lon="-1.9806550">
        <ele>348.5</ele>
        <time>2022-08-15T09:21:31Z</time>
      </trkpt>
      <trkpt lat="42.3026000" lon="-1.9801000">
        <ele>348.5</ele>
        <time>2022-08-15T09:21:38Z</time>
      </trkpt>
      <trkpt lat="42.3026200" lon="-1.9799340">
        <ele>348.5</ele>
        <time>2022-08-15T09:21:40Z</time>
      </trkpt>
      <trkpt lat="42.3026560" lon="-1.9795910">
        <ele>348.5</ele>
        <time>2022-08-15T09:21:44Z</time>
      </trkpt>
      <trkpt lat="42.3026950" lon="-1.9791130">
        <ele>348.5</ele>
        <time>2022-08-15T09:21:50Z</time>
      </trkpt>
      <trkpt lat="42.3027110" lon="-1.9787930">
        <ele>348.5</ele>
        <time>2022-08-15T09:21:54Z</time>
      </trkpt>
      <trkpt lat="42.3027390" lon="-1.9787300">
        <ele>348.5</ele>
        <time>2022-08-15T09:21:55Z</time>
      </trkpt>
      <trkpt lat="42.3027860" lon="-1.9786760">
        <ele>348.5</ele>
        <time>2022-08-15T09:21:56Z</time>
      </trkpt>
      <trkpt lat="42.3029460" lon="-1.9786110">
        <ele>348.1</ele>
        <time>2022-08-15T09:21:58Z</time>
      </trkpt>
      <trkpt lat="42.3030700" lon="-1.9786150">
        <ele>347.9</ele>
        <time>2022-08-15T09:22:00Z</time>
      </trkpt>
      <trkpt lat="42.3031210" lon="-1.9786220">
        <ele>347.8</ele>
        <time>2022-08-15T09:22:01Z</time>
      </trkpt>
      <trkpt lat="42.3031670" lon="-1.9786140">
        <ele>347.7</ele>
        <time>2022-08-15T09:22:02Z</time>
      </trkpt>
      <trkpt lat="42.3033250" lon="-1.9785380">
        <ele>347.7</ele>
        <time>2022-08-15T09:22:05Z</time>
      </trkpt>
      <trkpt lat="42.3034160" lon="-1.9784670">
        <ele>347.7</ele>
        <time>2022-08-15T09:22:07Z</time>
      </trkpt>
      <trkpt lat="42.3034850" lon="-1.9783720">
        <ele>347.8</ele>
        <time>2022-08-15T09:22:09Z</time>
      </trkpt>
      <trkpt lat="42.3035130" lon="-1.9783140">
        <ele>347.9</ele>
        <time>2022-08-15T09:22:10Z</time>
      </trkpt>
      <trkpt lat="42.3035340" lon="-1.9782480">
        <ele>347.9</ele>
        <time>2022-08-15T09:22:11Z</time>
      </trkpt>
      <trkpt lat="42.3035790" lon="-1.9779930">
        <ele>348.2</ele>
        <time>2022-08-15T09:22:15Z</time>
      </trkpt>
      <trkpt lat="42.3036000" lon="-1.9779200">
        <ele>348.2</ele>
        <time>2022-08-15T09:22:16Z</time>
      </trkpt>
      <trkpt lat="42.3036560" lon="-1.9778220">
        <ele>348.4</ele>
        <time>2022-08-15T09:22:18Z</time>
      </trkpt>
      <trkpt lat="42.3036970" lon="-1.9777800">
        <ele>348.5</ele>
        <time>2022-08-15T09:22:19Z</time>
      </trkpt>
      <trkpt lat="42.3037360" lon="-1.9777410">
        <ele>348.6</ele>
        <time>2022-08-15T09:22:20Z</time>
      </trkpt>
      <trkpt lat="42.3038250" lon="-1.9776830">
        <ele>348.8</ele>
        <time>2022-08-15T09:22:22Z</time>
      </trkpt>
      <trkpt lat="42.3038530" lon="-1.9776690">
        <ele>348.9</ele>
        <time>2022-08-15T09:22:23Z</time>
      </trkpt>
      <trkpt lat="42.3038950" lon="-1.9776540">
        <ele>349.0</ele>
        <time>2022-08-15T09:22:24Z</time>
      </trkpt>
      <trkpt lat="42.3040930" lon="-1.9776070">
        <ele>349.3</ele>
        <time>2022-08-15T09:22:28Z</time>
      </trkpt>
      <trkpt lat="42.3044570" lon="-1.9775330">
        <ele>349.8</ele>
        <time>2022-08-15T09:22:35Z</time>
      </trkpt>
      <trkpt lat="42.3045000" lon="-1.9775260">
        <ele>349.9</ele>
        <time>2022-08-15T09:22:36Z</time>
      </trkpt>
      <trkpt lat="42.3048990" lon="-1.9774500">
        <ele>350.1</ele>
        <time>2022-08-15T09:22:43Z</time>
      </trkpt>
      <trkpt lat="42.3052270" lon="-1.9773840">
        <ele>350.8</ele>
        <time>2022-08-15T09:22:49Z</time>
      </trkpt>
      <trkpt lat="42.3052580" lon="-1.9773560">
        <ele>350.9</ele>
        <time>2022-08-15T09:22:50Z</time>
      </trkpt>
      <trkpt lat="42.3052830" lon="-1.9773000">
        <ele>351.0</ele>
        <time>2022-08-15T09:22:51Z</time>
      </trkpt>
      <trkpt lat="42.3052770" lon="-1.9772440">
        <ele>351.0</ele>
        <time>2022-08-15T09:22:52Z</time>
      </trkpt>
      <trkpt lat="42.3051790" lon="-1.9768390">
        <ele>351.2</ele>
        <time>2022-08-15T09:22:59Z</time>
      </trkpt>
      <trkpt lat="42.3051220" lon="-1.9765750">
        <ele>351.4</ele>
        <time>2022-08-15T09:23:03Z</time>
      </trkpt>
      <trkpt lat="42.3050780" lon="-1.9763600">
        <ele>351.6</ele>
        <time>2022-08-15T09:23:06Z</time>
      </trkpt>
      <trkpt lat="42.3050520" lon="-1.9762400">
        <ele>351.7</ele>
        <time>2022-08-15T09:23:08Z</time>
      </trkpt>
      <trkpt lat="42.3049330" lon="-1.9757450">
        <ele>352.0</ele>
        <time>2022-08-15T09:23:15Z</time>
      </trkpt>
      <trkpt lat="42.3048450" lon="-1.9753180">
        <ele>352.1</ele>
        <time>2022-08-15T09:23:21Z</time>
      </trkpt>
      <trkpt lat="42.3047740" lon="-1.9749580">
        <ele>352.2</ele>
        <time>2022-08-15T09:23:26Z</time>
      </trkpt>
      <trkpt lat="42.3046500" lon="-1.9743680">
        <ele>352.4</ele>
        <time>2022-08-15T09:23:34Z</time>
      </trkpt>
      <trkpt lat="42.3046360" lon="-1.9742980">
        <ele>352.4</ele>
        <time>2022-08-15T09:23:35Z</time>
      </trkpt>
      <trkpt lat="42.3046300" lon="-1.9742100">
        <ele>352.4</ele>
        <time>2022-08-15T09:23:36Z</time>
      </trkpt>
      <trkpt lat="42.3046450" lon="-1.9741390">
        <ele>352.4</ele>
        <time>2022-08-15T09:23:37Z</time>
      </trkpt>
      <trkpt lat="42.3046640" lon="-1.9740930">
        <ele>352.4</ele>
        <time>2022-08-15T09:23:38Z</time>
      </trkpt>
      <trkpt lat="42.3046920" lon="-1.9740530">
        <ele>352.4</ele>
        <time>2022-08-15T09:23:39Z</time>
      </trkpt>
      <trkpt lat="42.3047740" lon="-1.9740000">
        <ele>352.4</ele>
        <time>2022-08-15T09:23:41Z</time>
      </trkpt>
      <trkpt lat="42.3048120" lon="-1.9739780">
        <ele>352.4</ele>
        <time>2022-08-15T09:23:42Z</time>
      </trkpt>
      <trkpt lat="42.3048870" lon="-1.9739110">
        <ele>352.4</ele>
        <time>2022-08-15T09:23:44Z</time>
      </trkpt>
      <trkpt lat="42.3049090" lon="-1.9738620">
        <ele>352.3</ele>
        <time>2022-08-15T09:23:45Z</time>
      </trkpt>
      <trkpt lat="42.3049250" lon="-1.9737980">
        <ele>352.1</ele>
        <time>2022-08-15T09:23:46Z</time>
      </trkpt>
      <trkpt lat="42.3049250" lon="-1.9736570">
        <ele>351.9</ele>
        <time>2022-08-15T09:23:48Z</time>
      </trkpt>
      <trkpt lat="42.3049050" lon="-1.9734470">
        <ele>351.8</ele>
        <time>2022-08-15T09:23:51Z</time>
      </trkpt>
      <trkpt lat="42.3048920" lon="-1.9733220">
        <ele>351.8</ele>
        <time>2022-08-15T09:23:53Z</time>
      </trkpt>
      <trkpt lat="42.3048840" lon="-1.9731600">
        <ele>351.8</ele>
        <time>2022-08-15T09:23:56Z</time>
      </trkpt>
      <trkpt lat="42.3048980" lon="-1.9731110">
        <ele>351.8</ele>
        <time>2022-08-15T09:23:57Z</time>
      </trkpt>
      <trkpt lat="42.3049280" lon="-1.9730640">
        <ele>351.9</ele>
        <time>2022-08-15T09:23:58Z</time>
      </trkpt>
      <trkpt lat="42.3049660" lon="-1.9730310">
        <ele>351.9</ele>
        <time>2022-08-15T09:23:59Z</time>
      </trkpt>
      <trkpt lat="42.3050150" lon="-1.9730100">
        <ele>351.9</ele>
        <time>2022-08-15T09:24:00Z</time>
      </trkpt>
      <trkpt lat="42.3050670" lon="-1.9729980">
        <ele>352.0</ele>
        <time>2022-08-15T09:24:01Z</time>
      </trkpt>
      <trkpt lat="42.3051600" lon="-1.9729730">
        <ele>352.0</ele>
        <time>2022-08-15T09:24:03Z</time>
      </trkpt>
      <trkpt lat="42.3052530" lon="-1.9729080">
        <ele>352.1</ele>
        <time>2022-08-15T09:24:05Z</time>
      </trkpt>
      <trkpt lat="42.3055250" lon="-1.9726370">
        <ele>352.3</ele>
        <time>2022-08-15T09:24:11Z</time>
      </trkpt>
      <trkpt lat="42.3057800" lon="-1.9723730">
        <ele>352.5</ele>
        <time>2022-08-15T09:24:17Z</time>
      </trkpt>
      <trkpt lat="42.3058930" lon="-1.9722750">
        <ele>352.6</ele>
        <time>2022-08-15T09:24:20Z</time>
      </trkpt>
      <trkpt lat="42.3059490" lon="-1.9722070">
        <ele>352.6</ele>
        <time>2022-08-15T09:24:22Z</time>
      </trkpt>
      <trkpt lat="42.3061070" lon="-1.9720150">
        <ele>352.7</ele>
        <time>2022-08-15T09:24:28Z</time>
      </trkpt>
      <trkpt lat="42.3061330" lon="-1.9719900">
        <ele>352.7</ele>
        <time>2022-08-15T09:24:29Z</time>
      </trkpt>
      <trkpt lat="42.3061530" lon="-1.9719710">
        <ele>352.7</ele>
        <time>2022-08-15T09:24:30Z</time>
      </trkpt>
      <trkpt lat="42.3061610" lon="-1.9719650">
        <ele>352.7</ele>
        <time>2022-08-15T09:24:31Z</time>
      </trkpt>
      <trkpt lat="42.3061610" lon="-1.9719650">
        <ele>352.7</ele>
        <time>2022-08-15T09:24:32Z</time>
      </trkpt>
    </trkseg>
  </trk>
</gpx>
